<?xml version='1.0' encoding='UTF-8'?><gpx version="1.1" creator="JPX - https://github.com/jenetics/jpx" xmlns="http://www.topografix.com/GPX/1/1"><trk><trkseg><trkpt lat="43.8421262058477" lon="11.183592490262477"><ele>48.99999999999999</ele><time>2026-04-19T07:42:13.998Z</time></trkpt><trkpt lat="43.84207497051805" lon="11.183529516032346"><ele>49.0</ele><time>2026-04-19T07:43:05.001Z</time></trkpt><trkpt lat="43.84212526638346" lon="11.183377267798763"><ele>49.0</ele><time>2026-04-19T07:43:09.001Z</time></trkpt><trkpt lat="43.84215395255828" lon="11.183288019844287"><ele>49.0</ele><time>2026-04-19T07:43:12.001Z</time></trkpt><trkpt lat="43.84212932830836" lon="11.183199295158767"><ele>48.99999999999999</ele><time>2026-04-19T07:43:15.001Z</time></trkpt><trkpt lat="43.84207243401389" lon="11.183159282928083"><ele>49.0</ele><time>2026-04-19T07:43:16.001Z</time></trkpt><trkpt lat="43.84199402901155" lon="11.183112199271308"><ele>49.2</ele><time>2026-04-19T07:43:17.001Z</time></trkpt><trkpt lat="43.841929068398855" lon="11.183061316730644"><ele>49.400000000000006</ele><time>2026-04-19T07:43:18.001Z</time></trkpt><trkpt lat="43.841839556714476" lon="11.182976552813093"><ele>49.6</ele><time>2026-04-19T07:43:20.001Z</time></trkpt><trkpt lat="43.84175124196232" lon="11.182899616200478"><ele>49.8</ele><time>2026-04-19T07:43:22Z</time></trkpt><trkpt lat="43.84165127815562" lon="11.182810034920964"><ele>50.0</ele><time>2026-04-19T07:43:24Z</time></trkpt><trkpt lat="43.84155626610255" lon="11.182746213249457"><ele>49.6</ele><time>2026-04-19T07:43:26Z</time></trkpt><trkpt lat="43.84149269506321" lon="11.182678550523946"><ele>49.2</ele><time>2026-04-19T07:43:28Z</time></trkpt><trkpt lat="43.841418668056825" lon="11.18261145382862"><ele>48.8</ele><time>2026-04-19T07:43:30Z</time></trkpt><trkpt lat="43.84130656288794" lon="11.182523038886508"><ele>48.4</ele><time>2026-04-19T07:43:32Z</time></trkpt><trkpt lat="43.84122639323043" lon="11.18244433587183"><ele>48.0</ele><time>2026-04-19T07:43:33Z</time></trkpt><trkpt lat="43.84115147082536" lon="11.182372823153319"><ele>47.833333333333336</ele><time>2026-04-19T07:43:34Z</time></trkpt><trkpt lat="43.84107897025549" lon="11.182308735759571"><ele>47.666666666666664</ele><time>2026-04-19T07:43:35Z</time></trkpt><trkpt lat="43.84102062330266" lon="11.182254384641146"><ele>47.5</ele><time>2026-04-19T07:43:36Z</time></trkpt><trkpt lat="43.84096377069335" lon="11.182202933081994"><ele>47.33333333333333</ele><time>2026-04-19T07:43:37Z</time></trkpt><trkpt lat="43.840905981930206" lon="11.182144596588378"><ele>47.166666666666664</ele><time>2026-04-19T07:43:38Z</time></trkpt><trkpt lat="43.84083642959142" lon="11.182082735224165"><ele>47.0</ele><time>2026-04-19T07:43:39Z</time></trkpt><trkpt lat="43.84077424991211" lon="11.182023804815726"><ele>47.0</ele><time>2026-04-19T07:43:40Z</time></trkpt><trkpt lat="43.84071855316299" lon="11.181974364899013"><ele>47.0</ele><time>2026-04-19T07:43:41Z</time></trkpt><trkpt lat="43.840636586017126" lon="11.181909517812281"><ele>47.0</ele><time>2026-04-19T07:43:43Z</time></trkpt><trkpt lat="43.840576961109925" lon="11.181847429176711"><ele>47.0</ele><time>2026-04-19T07:43:46Z</time></trkpt><trkpt lat="43.840472710143395" lon="11.181932316628936"><ele>47.0</ele><time>2026-04-19T07:43:48Z</time></trkpt><trkpt lat="43.8404144103934" lon="11.182036069249996"><ele>47.0</ele><time>2026-04-19T07:43:49Z</time></trkpt><trkpt lat="43.84035668142631" lon="11.182149614818352"><ele>47.0</ele><time>2026-04-19T07:43:50.001Z</time></trkpt><trkpt lat="43.84030088856709" lon="11.182260563178042"><ele>47.0</ele><time>2026-04-19T07:43:51.001Z</time></trkpt><trkpt lat="43.84023813642214" lon="11.182374792286371"><ele>47.0</ele><time>2026-04-19T07:43:52.001Z</time></trkpt><trkpt lat="43.840172794130645" lon="11.182481449072268"><ele>47.0</ele><time>2026-04-19T07:43:53.001Z</time></trkpt><trkpt lat="43.840112116876" lon="11.182574679325606"><ele>47.0</ele><time>2026-04-19T07:43:54.001Z</time></trkpt><trkpt lat="43.840065354024475" lon="11.182661477326713"><ele>47.0</ele><time>2026-04-19T07:43:55.001Z</time></trkpt><trkpt lat="43.84002124368871" lon="11.182743024590012"><ele>47.0</ele><time>2026-04-19T07:43:56.001Z</time></trkpt><trkpt lat="43.83997073776334" lon="11.182828787241464"><ele>47.0</ele><time>2026-04-19T07:43:57.001Z</time></trkpt><trkpt lat="43.839917890449556" lon="11.18291066773798"><ele>47.0</ele><time>2026-04-19T07:43:58.001Z</time></trkpt><trkpt lat="43.83986963981877" lon="11.182990211866082"><ele>47.0</ele><time>2026-04-19T07:43:59.001Z</time></trkpt><trkpt lat="43.83982239465303" lon="11.183062165635427"><ele>47.0</ele><time>2026-04-19T07:44:00.001Z</time></trkpt><trkpt lat="43.8397715550441" lon="11.183151246976893"><ele>47.0</ele><time>2026-04-19T07:44:01.001Z</time></trkpt><trkpt lat="43.83970355883294" lon="11.183248602781337"><ele>47.0</ele><time>2026-04-19T07:44:02.001Z</time></trkpt><trkpt lat="43.839626552950094" lon="11.183353079478914"><ele>47.0</ele><time>2026-04-19T07:44:03.001Z</time></trkpt><trkpt lat="43.83956065846089" lon="11.183454054859718"><ele>47.0</ele><time>2026-04-19T07:44:04.001Z</time></trkpt><trkpt lat="43.839496434050425" lon="11.18355433388103"><ele>47.0</ele><time>2026-04-19T07:44:05.001Z</time></trkpt><trkpt lat="43.8394364350624" lon="11.183652402235731"><ele>47.0</ele><time>2026-04-19T07:44:06.001Z</time></trkpt><trkpt lat="43.83938324064871" lon="11.183734204772955"><ele>47.0</ele><time>2026-04-19T07:44:07.001Z</time></trkpt><trkpt lat="43.83933826035075" lon="11.183808698902782"><ele>47.0</ele><time>2026-04-19T07:44:08.001Z</time></trkpt><trkpt lat="43.839264520505736" lon="11.183926584409134"><ele>47.0</ele><time>2026-04-19T07:44:10Z</time></trkpt><trkpt lat="43.839159996570984" lon="11.184082723233606"><ele>47.25</ele><time>2026-04-19T07:44:12Z</time></trkpt><trkpt lat="43.83909382041682" lon="11.184195301227698"><ele>47.5</ele><time>2026-04-19T07:44:13Z</time></trkpt><trkpt lat="43.839020581541206" lon="11.184314129453574"><ele>47.75</ele><time>2026-04-19T07:44:14Z</time></trkpt><trkpt lat="43.83893552484818" lon="11.184442977133804"><ele>48.0</ele><time>2026-04-19T07:44:15Z</time></trkpt><trkpt lat="43.83884493270487" lon="11.184587551744297"><ele>48.0</ele><time>2026-04-19T07:44:16Z</time></trkpt><trkpt lat="43.83875408121918" lon="11.1847348028505"><ele>48.0</ele><time>2026-04-19T07:44:17Z</time></trkpt><trkpt lat="43.83866310932008" lon="11.184876087228039"><ele>48.0</ele><time>2026-04-19T07:44:18Z</time></trkpt><trkpt lat="43.83857865503746" lon="11.185004858903532"><ele>48.0</ele><time>2026-04-19T07:44:19Z</time></trkpt><trkpt lat="43.83850559341041" lon="11.185124841269797"><ele>48.2</ele><time>2026-04-19T07:44:20Z</time></trkpt><trkpt lat="43.838437285819964" lon="11.185232688779973"><ele>48.4</ele><time>2026-04-19T07:44:21Z</time></trkpt><trkpt lat="43.83837445684745" lon="11.185325484039197"><ele>48.6</ele><time>2026-04-19T07:44:22Z</time></trkpt><trkpt lat="43.83832350907007" lon="11.18541069516156"><ele>48.800000000000004</ele><time>2026-04-19T07:44:23Z</time></trkpt><trkpt lat="43.83828173923224" lon="11.18548430313371"><ele>49.0</ele><time>2026-04-19T07:44:24Z</time></trkpt><trkpt lat="43.838278666658006" lon="11.185642706220248"><ele>49.6</ele><time>2026-04-19T07:44:26Z</time></trkpt><trkpt lat="43.83834911554955" lon="11.185729110698915"><ele>50.2</ele><time>2026-04-19T07:44:27Z</time></trkpt><trkpt lat="43.83842632270927" lon="11.185793244081578"><ele>50.800000000000004</ele><time>2026-04-19T07:44:28Z</time></trkpt><trkpt lat="43.83852521457961" lon="11.185860148843323"><ele>51.400000000000006</ele><time>2026-04-19T07:44:29Z</time></trkpt><trkpt lat="43.8386302926836" lon="11.185944500720991"><ele>52.0</ele><time>2026-04-19T07:44:30Z</time></trkpt><trkpt lat="43.838728318300944" lon="11.186039442186207"><ele>52.2</ele><time>2026-04-19T07:44:31Z</time></trkpt><trkpt lat="43.83882536813641" lon="11.186136354710422"><ele>52.400000000000006</ele><time>2026-04-19T07:44:32Z</time></trkpt><trkpt lat="43.83891485933045" lon="11.186219854547659"><ele>52.599999999999994</ele><time>2026-04-19T07:44:33Z</time></trkpt><trkpt lat="43.838993846746675" lon="11.18629820517639"><ele>52.8</ele><time>2026-04-19T07:44:34Z</time></trkpt><trkpt lat="43.83906207503587" lon="11.186368494611914"><ele>53.0</ele><time>2026-04-19T07:44:35Z</time></trkpt><trkpt lat="43.8391165462296" lon="11.186438296980976"><ele>53.0</ele><time>2026-04-19T07:44:36Z</time></trkpt><trkpt lat="43.839172904829184" lon="11.18650616208499"><ele>53.0</ele><time>2026-04-19T07:44:37Z</time></trkpt><trkpt lat="43.839170192937516" lon="11.186793789383184"><ele>53.0</ele><time>2026-04-19T07:44:39Z</time></trkpt><trkpt lat="43.83917048788283" lon="11.186938599177159"><ele>53.0</ele><time>2026-04-19T07:44:40Z</time></trkpt><trkpt lat="43.83921122082435" lon="11.187093364140232"><ele>52.75</ele><time>2026-04-19T07:44:41Z</time></trkpt><trkpt lat="43.839265394553856" lon="11.187272219213924"><ele>52.5</ele><time>2026-04-19T07:44:42Z</time></trkpt><trkpt lat="43.83930518364941" lon="11.187449403787078"><ele>52.25</ele><time>2026-04-19T07:44:43Z</time></trkpt><trkpt lat="43.839344421153996" lon="11.187624367425093"><ele>52.0</ele><time>2026-04-19T07:44:44Z</time></trkpt><trkpt lat="43.839387253143485" lon="11.18780023415145"><ele>52.0</ele><time>2026-04-19T07:44:45Z</time></trkpt><trkpt lat="43.83942954485289" lon="11.187969478761179"><ele>52.0</ele><time>2026-04-19T07:44:46Z</time></trkpt><trkpt lat="43.83946822112409" lon="11.188134308081919"><ele>52.0</ele><time>2026-04-19T07:44:47Z</time></trkpt><trkpt lat="43.839502264294836" lon="11.188297247461696"><ele>52.0</ele><time>2026-04-19T07:44:48Z</time></trkpt><trkpt lat="43.8395474492688" lon="11.18845899603382"><ele>52.5</ele><time>2026-04-19T07:44:49Z</time></trkpt><trkpt lat="43.83959925441419" lon="11.188613463459484"><ele>53.0</ele><time>2026-04-19T07:44:50Z</time></trkpt><trkpt lat="43.83964125105742" lon="11.188767145131948"><ele>53.5</ele><time>2026-04-19T07:44:51Z</time></trkpt><trkpt lat="43.83967845507093" lon="11.188912969749312"><ele>54.0</ele><time>2026-04-19T07:44:52Z</time></trkpt><trkpt lat="43.839711258384725" lon="11.189044833860411"><ele>54.333333333333336</ele><time>2026-04-19T07:44:53Z</time></trkpt><trkpt lat="43.83973658792862" lon="11.189162173006451"><ele>54.66666666666667</ele><time>2026-04-19T07:44:54Z</time></trkpt><trkpt lat="43.83977617858993" lon="11.189254915266"><ele>55.0</ele><time>2026-04-19T07:44:55Z</time></trkpt><trkpt lat="43.8397608910866" lon="11.189365391934158"><ele>55.333333333333336</ele><time>2026-04-19T07:44:56Z</time></trkpt><trkpt lat="43.83975789015359" lon="11.189452823073784"><ele>55.66666666666667</ele><time>2026-04-19T07:44:57Z</time></trkpt><trkpt lat="43.839746798285724" lon="11.189541313494852"><ele>56.0</ele><time>2026-04-19T07:44:58Z</time></trkpt><trkpt lat="43.839730359174524" lon="11.189663568108767"><ele>56.00000000000001</ele><time>2026-04-19T07:44:59Z</time></trkpt><trkpt lat="43.83972306809325" lon="11.189776378923208"><ele>56.0</ele><time>2026-04-19T07:45:00Z</time></trkpt><trkpt lat="43.83975291477893" lon="11.18986663134385"><ele>56.0</ele><time>2026-04-19T07:45:01Z</time></trkpt><trkpt lat="43.83982421742696" lon="11.18994811711921"><ele>56.0</ele><time>2026-04-19T07:45:02Z</time></trkpt><trkpt lat="43.83990009816299" lon="11.19000484720232"><ele>56.00000000000001</ele><time>2026-04-19T07:45:03Z</time></trkpt><trkpt lat="43.83996902890018" lon="11.190093886901142"><ele>56.0</ele><time>2026-04-19T07:45:04Z</time></trkpt><trkpt lat="43.84001414722324" lon="11.190208235036492"><ele>56.199999999999996</ele><time>2026-04-19T07:45:05Z</time></trkpt><trkpt lat="43.84004010841663" lon="11.190332585263384"><ele>56.39999999999999</ele><time>2026-04-19T07:45:06Z</time></trkpt><trkpt lat="43.840061120656095" lon="11.19044767127394"><ele>56.6</ele><time>2026-04-19T07:45:07Z</time></trkpt><trkpt lat="43.840089930014834" lon="11.190563748711353"><ele>56.8</ele><time>2026-04-19T07:45:08Z</time></trkpt><trkpt lat="43.84012548840314" lon="11.190688523797528"><ele>57.0</ele><time>2026-04-19T07:45:09Z</time></trkpt><trkpt lat="43.84016756665446" lon="11.190828556472356"><ele>57.0</ele><time>2026-04-19T07:45:10Z</time></trkpt><trkpt lat="43.8402165882735" lon="11.190981098760483"><ele>57.0</ele><time>2026-04-19T07:45:11Z</time></trkpt><trkpt lat="43.84025254563329" lon="11.191137250863946"><ele>57.0</ele><time>2026-04-19T07:45:12Z</time></trkpt><trkpt lat="43.84030123342331" lon="11.19129786302274"><ele>57.0</ele><time>2026-04-19T07:45:13Z</time></trkpt><trkpt lat="43.840354838910926" lon="11.191473952361973"><ele>57.25</ele><time>2026-04-19T07:45:14Z</time></trkpt><trkpt lat="43.84041208752371" lon="11.191673471979044"><ele>57.5</ele><time>2026-04-19T07:45:15Z</time></trkpt><trkpt lat="43.840470664358286" lon="11.191866531975531"><ele>57.75</ele><time>2026-04-19T07:45:16Z</time></trkpt><trkpt lat="43.84052093887234" lon="11.192050765385382"><ele>58.0</ele><time>2026-04-19T07:45:17Z</time></trkpt><trkpt lat="43.84056993271525" lon="11.192229278867599"><ele>59.0</ele><time>2026-04-19T07:45:18Z</time></trkpt><trkpt lat="43.84062346565001" lon="11.192402558930016"><ele>60.0</ele><time>2026-04-19T07:45:19Z</time></trkpt><trkpt lat="43.8406719872164" lon="11.192569575895885"><ele>61.0</ele><time>2026-04-19T07:45:20Z</time></trkpt><trkpt lat="43.840716176072974" lon="11.192741756757783"><ele>62.0</ele><time>2026-04-19T07:45:21Z</time></trkpt><trkpt lat="43.840753328288024" lon="11.192913838968597"><ele>62.0</ele><time>2026-04-19T07:45:22Z</time></trkpt><trkpt lat="43.840781431427764" lon="11.193094253737238"><ele>62.0</ele><time>2026-04-19T07:45:23Z</time></trkpt><trkpt lat="43.84079238040019" lon="11.19328159676835"><ele>62.0</ele><time>2026-04-19T07:45:24Z</time></trkpt><trkpt lat="43.8407876794203" lon="11.193470732760197"><ele>62.0</ele><time>2026-04-19T07:45:25Z</time></trkpt><trkpt lat="43.84076372213416" lon="11.193630919652692"><ele>62.2</ele><time>2026-04-19T07:45:26Z</time></trkpt><trkpt lat="43.84076736695685" lon="11.193778479761637"><ele>62.400000000000006</ele><time>2026-04-19T07:45:27Z</time></trkpt><trkpt lat="43.8407606368926" lon="11.193901394132602"><ele>62.599999999999994</ele><time>2026-04-19T07:45:28Z</time></trkpt><trkpt lat="43.84074255666385" lon="11.194014029120138"><ele>62.8</ele><time>2026-04-19T07:45:29Z</time></trkpt><trkpt lat="43.84073090942694" lon="11.194133741167622"><ele>63.0</ele><time>2026-04-19T07:45:30Z</time></trkpt><trkpt lat="43.84075074699364" lon="11.194276829643293"><ele>63.25</ele><time>2026-04-19T07:45:31Z</time></trkpt><trkpt lat="43.84077704175305" lon="11.194435315725825"><ele>63.5</ele><time>2026-04-19T07:45:32Z</time></trkpt><trkpt lat="43.840784511533755" lon="11.194608638791397"><ele>63.75</ele><time>2026-04-19T07:45:33Z</time></trkpt><trkpt lat="43.84079610704801" lon="11.194790510372128"><ele>64.0</ele><time>2026-04-19T07:45:34Z</time></trkpt><trkpt lat="43.840823164754916" lon="11.19497718914376"><ele>64.25</ele><time>2026-04-19T07:45:35Z</time></trkpt><trkpt lat="43.84085194823455" lon="11.195169881124547"><ele>64.5</ele><time>2026-04-19T07:45:36Z</time></trkpt><trkpt lat="43.840879250486275" lon="11.195355234309613"><ele>64.75</ele><time>2026-04-19T07:45:37Z</time></trkpt><trkpt lat="43.8409077432223" lon="11.195537082990587"><ele>65.0</ele><time>2026-04-19T07:45:38Z</time></trkpt><trkpt lat="43.84093548154996" lon="11.19571068203059"><ele>65.0</ele><time>2026-04-19T07:45:39Z</time></trkpt><trkpt lat="43.840971785343264" lon="11.195896511908613"><ele>65.0</ele><time>2026-04-19T07:45:40Z</time></trkpt><trkpt lat="43.8409922792713" lon="11.19603896955081"><ele>65.0</ele><time>2026-04-19T07:45:41Z</time></trkpt><trkpt lat="43.841014690446684" lon="11.196213387171225"><ele>65.0</ele><time>2026-04-19T07:45:42Z</time></trkpt><trkpt lat="43.841026843936326" lon="11.19638978327827"><ele>65.75</ele><time>2026-04-19T07:45:43Z</time></trkpt><trkpt lat="43.84104208347135" lon="11.196576313958808"><ele>66.5</ele><time>2026-04-19T07:45:44Z</time></trkpt><trkpt lat="43.84105850273557" lon="11.196758175335532"><ele>67.25</ele><time>2026-04-19T07:45:45Z</time></trkpt><trkpt lat="43.84107321099865" lon="11.196936485187166"><ele>68.0</ele><time>2026-04-19T07:45:46Z</time></trkpt><trkpt lat="43.84108131424355" lon="11.197099143885024"><ele>68.0</ele><time>2026-04-19T07:45:47Z</time></trkpt><trkpt lat="43.841091950223166" lon="11.197254674997131"><ele>68.0</ele><time>2026-04-19T07:45:48Z</time></trkpt><trkpt lat="43.84110022816097" lon="11.19739426230346"><ele>68.0</ele><time>2026-04-19T07:45:49Z</time></trkpt><trkpt lat="43.84110823621431" lon="11.197525890702389"><ele>68.0</ele><time>2026-04-19T07:45:50Z</time></trkpt><trkpt lat="43.841121012084926" lon="11.197643947448093"><ele>68.0</ele><time>2026-04-19T07:45:51Z</time></trkpt><trkpt lat="43.84113258730911" lon="11.19775131465006"><ele>68.4</ele><time>2026-04-19T07:45:52Z</time></trkpt><trkpt lat="43.84114287695683" lon="11.197865917547528"><ele>68.8</ele><time>2026-04-19T07:45:53Z</time></trkpt><trkpt lat="43.8411335529226" lon="11.197990182886224"><ele>69.2</ele><time>2026-04-19T07:45:54Z</time></trkpt><trkpt lat="43.841133061251575" lon="11.19811315634391"><ele>69.6</ele><time>2026-04-19T07:45:55Z</time></trkpt><trkpt lat="43.84115336013106" lon="11.198241970348333"><ele>70.0</ele><time>2026-04-19T07:45:56Z</time></trkpt><trkpt lat="43.84116352754018" lon="11.198371832005247"><ele>70.0</ele><time>2026-04-19T07:45:57Z</time></trkpt><trkpt lat="43.84114119472574" lon="11.19849458891798"><ele>70.0</ele><time>2026-04-19T07:45:58Z</time></trkpt><trkpt lat="43.84108823145142" lon="11.19865829514035"><ele>70.0</ele><time>2026-04-19T07:46:00Z</time></trkpt><trkpt lat="43.84103440829143" lon="11.19877158495504"><ele>70.0</ele><time>2026-04-19T07:46:01Z</time></trkpt><trkpt lat="43.84098471463967" lon="11.198891550529762"><ele>70.0</ele><time>2026-04-19T07:46:02Z</time></trkpt><trkpt lat="43.84093346108065" lon="11.199017395539448"><ele>70.5</ele><time>2026-04-19T07:46:03Z</time></trkpt><trkpt lat="43.84087104577926" lon="11.199154670156357"><ele>71.0</ele><time>2026-04-19T07:46:04Z</time></trkpt><trkpt lat="43.84080651419829" lon="11.199298213128285"><ele>71.5</ele><time>2026-04-19T07:46:05Z</time></trkpt><trkpt lat="43.84073724901774" lon="11.19944566294972"><ele>72.0</ele><time>2026-04-19T07:46:06Z</time></trkpt><trkpt lat="43.84066516493705" lon="11.199602181194185"><ele>72.0</ele><time>2026-04-19T07:46:07Z</time></trkpt><trkpt lat="43.84058580752431" lon="11.199745417317633"><ele>72.0</ele><time>2026-04-19T07:46:08Z</time></trkpt><trkpt lat="43.84050731361574" lon="11.199917512853867"><ele>72.0</ele><time>2026-04-19T07:46:09Z</time></trkpt><trkpt lat="43.84043288274907" lon="11.200074455975967"><ele>72.0</ele><time>2026-04-19T07:46:10Z</time></trkpt><trkpt lat="43.840359561668016" lon="11.200226298929204"><ele>72.5</ele><time>2026-04-19T07:46:11Z</time></trkpt><trkpt lat="43.8402863332899" lon="11.200382514102083"><ele>73.0</ele><time>2026-04-19T07:46:12Z</time></trkpt><trkpt lat="43.84020774719121" lon="11.200552598471694"><ele>73.5</ele><time>2026-04-19T07:46:13Z</time></trkpt><trkpt lat="43.840127715259904" lon="11.200724517922549"><ele>74.0</ele><time>2026-04-19T07:46:14Z</time></trkpt><trkpt lat="43.84004535573548" lon="11.200892174488992"><ele>74.5</ele><time>2026-04-19T07:46:15Z</time></trkpt><trkpt lat="43.83996289896511" lon="11.201050360254236"><ele>75.0</ele><time>2026-04-19T07:46:16Z</time></trkpt><trkpt lat="43.839874017451734" lon="11.201208734163021"><ele>75.5</ele><time>2026-04-19T07:46:17Z</time></trkpt><trkpt lat="43.83979033538055" lon="11.201380076975918"><ele>76.0</ele><time>2026-04-19T07:46:18Z</time></trkpt><trkpt lat="43.83969534125747" lon="11.201567576752733"><ele>76.33333333333333</ele><time>2026-04-19T07:46:19Z</time></trkpt><trkpt lat="43.83960545967531" lon="11.201741246912567"><ele>76.66666666666667</ele><time>2026-04-19T07:46:20Z</time></trkpt><trkpt lat="43.83951646312261" lon="11.201923177230569"><ele>77.0</ele><time>2026-04-19T07:46:21Z</time></trkpt><trkpt lat="43.83943341741608" lon="11.202099056769168"><ele>77.0</ele><time>2026-04-19T07:46:22Z</time></trkpt><trkpt lat="43.83935009062644" lon="11.202270378578557"><ele>77.0</ele><time>2026-04-19T07:46:23Z</time></trkpt><trkpt lat="43.83927524607255" lon="11.2024479219283"><ele>77.0</ele><time>2026-04-19T07:46:24Z</time></trkpt><trkpt lat="43.83920709868506" lon="11.202633337183748"><ele>77.0</ele><time>2026-04-19T07:46:25Z</time></trkpt><trkpt lat="43.839145563854316" lon="11.202826821004388"><ele>77.25</ele><time>2026-04-19T07:46:26Z</time></trkpt><trkpt lat="43.83909078327577" lon="11.203029620324326"><ele>77.5</ele><time>2026-04-19T07:46:27Z</time></trkpt><trkpt lat="43.83904298865302" lon="11.203219708161328"><ele>77.75</ele><time>2026-04-19T07:46:28Z</time></trkpt><trkpt lat="43.83899487066111" lon="11.20339929851134"><ele>78.0</ele><time>2026-04-19T07:46:29Z</time></trkpt><trkpt lat="43.838931105638146" lon="11.203584277842518"><ele>78.5</ele><time>2026-04-19T07:46:30Z</time></trkpt><trkpt lat="43.83885352164221" lon="11.203752092035982"><ele>79.0</ele><time>2026-04-19T07:46:31Z</time></trkpt><trkpt lat="43.83877920362104" lon="11.203922378858564"><ele>79.5</ele><time>2026-04-19T07:46:32Z</time></trkpt><trkpt lat="43.83869199431311" lon="11.204095131648737"><ele>80.0</ele><time>2026-04-19T07:46:33Z</time></trkpt><trkpt lat="43.8386082159557" lon="11.204270777587032"><ele>80.25</ele><time>2026-04-19T07:46:34Z</time></trkpt><trkpt lat="43.83851900311149" lon="11.20443719516051"><ele>80.5</ele><time>2026-04-19T07:46:35Z</time></trkpt><trkpt lat="43.83842993611569" lon="11.204595287003949"><ele>80.75</ele><time>2026-04-19T07:46:36Z</time></trkpt><trkpt lat="43.83834605814485" lon="11.204739255807842"><ele>81.0</ele><time>2026-04-19T07:46:37Z</time></trkpt><trkpt lat="43.83827053951759" lon="11.204877320237284"><ele>81.25</ele><time>2026-04-19T07:46:38Z</time></trkpt><trkpt lat="43.838194587977064" lon="11.205019085479869"><ele>81.5</ele><time>2026-04-19T07:46:39Z</time></trkpt><trkpt lat="43.838120091644356" lon="11.205170224077538"><ele>81.75</ele><time>2026-04-19T07:46:40Z</time></trkpt><trkpt lat="43.838045500385476" lon="11.205325373680997"><ele>82.0</ele><time>2026-04-19T07:46:41Z</time></trkpt><trkpt lat="43.8379776479101" lon="11.205471432206691"><ele>82.0</ele><time>2026-04-19T07:46:42Z</time></trkpt><trkpt lat="43.83791239363625" lon="11.205605951313137"><ele>82.0</ele><time>2026-04-19T07:46:43Z</time></trkpt><trkpt lat="43.837849087484564" lon="11.205736629984784"><ele>82.0</ele><time>2026-04-19T07:46:44Z</time></trkpt><trkpt lat="43.83779362321153" lon="11.205862090162315"><ele>82.0</ele><time>2026-04-19T07:46:45Z</time></trkpt><trkpt lat="43.837735731060704" lon="11.205973284821269"><ele>82.0</ele><time>2026-04-19T07:46:46Z</time></trkpt><trkpt lat="43.83767447086851" lon="11.206079114248631"><ele>81.6</ele><time>2026-04-19T07:46:47Z</time></trkpt><trkpt lat="43.837601914206886" lon="11.206194020012191"><ele>81.19999999999999</ele><time>2026-04-19T07:46:48Z</time></trkpt><trkpt lat="43.83753017623661" lon="11.20630717282578"><ele>80.8</ele><time>2026-04-19T07:46:49Z</time></trkpt><trkpt lat="43.83746032654758" lon="11.206408994309271"><ele>80.4</ele><time>2026-04-19T07:46:50Z</time></trkpt><trkpt lat="43.8373921638862" lon="11.206491451232093"><ele>80.0</ele><time>2026-04-19T07:46:51Z</time></trkpt><trkpt lat="43.83731908902865" lon="11.206551191924266"><ele>80.0</ele><time>2026-04-19T07:46:52Z</time></trkpt><trkpt lat="43.83724397140201" lon="11.206579999782473"><ele>80.0</ele><time>2026-04-19T07:46:53Z</time></trkpt><trkpt lat="43.83717880827266" lon="11.206610695886607"><ele>80.0</ele><time>2026-04-19T07:46:54Z</time></trkpt><trkpt lat="43.837119717995286" lon="11.206741080781967"><ele>80.0</ele><time>2026-04-19T07:46:56Z</time></trkpt><trkpt lat="43.83717083695962" lon="11.206905476926632"><ele>80.0</ele><time>2026-04-19T07:46:58Z</time></trkpt><trkpt lat="43.83726481805722" lon="11.206886207540217"><ele>80.0</ele><time>2026-04-19T07:46:59Z</time></trkpt><trkpt lat="43.8373310568961" lon="11.206835298646418"><ele>80.0</ele><time>2026-04-19T07:47:00Z</time></trkpt><trkpt lat="43.83738608919698" lon="11.206737215088598"><ele>80.0</ele><time>2026-04-19T07:47:01Z</time></trkpt><trkpt lat="43.837434186565666" lon="11.206590618437486"><ele>80.0</ele><time>2026-04-19T07:47:02Z</time></trkpt><trkpt lat="43.83750380171581" lon="11.20643710180118"><ele>80.0</ele><time>2026-04-19T07:47:03Z</time></trkpt><trkpt lat="43.83758502130928" lon="11.20630478321875"><ele>80.16666666666667</ele><time>2026-04-19T07:47:04Z</time></trkpt><trkpt lat="43.837652743629356" lon="11.206194617887187"><ele>80.33333333333334</ele><time>2026-04-19T07:47:05Z</time></trkpt><trkpt lat="43.8377082650302" lon="11.206096090492366"><ele>80.5</ele><time>2026-04-19T07:47:06Z</time></trkpt><trkpt lat="43.8377531899335" lon="11.20601300113083"><ele>80.66666666666667</ele><time>2026-04-19T07:47:07Z</time></trkpt><trkpt lat="43.83779150272135" lon="11.205943071574456"><ele>80.83333333333333</ele><time>2026-04-19T07:47:08Z</time></trkpt><trkpt lat="43.837872264751134" lon="11.205833064242285"><ele>81.0</ele><time>2026-04-19T07:47:10Z</time></trkpt><trkpt lat="43.837933630981425" lon="11.205808468649744"><ele>81.0</ele><time>2026-04-19T07:47:12Z</time></trkpt><trkpt lat="43.83804317997021" lon="11.205898717765999"><ele>81.0</ele><time>2026-04-19T07:47:13Z</time></trkpt><trkpt lat="43.83811315913594" lon="11.205980374490302"><ele>81.0</ele><time>2026-04-19T07:47:14Z</time></trkpt><trkpt lat="43.838184315454775" lon="11.206086665381784"><ele>81.0</ele><time>2026-04-19T07:47:15Z</time></trkpt><trkpt lat="43.83825781245806" lon="11.206187183777129"><ele>81.0</ele><time>2026-04-19T07:47:16Z</time></trkpt><trkpt lat="43.83831856032685" lon="11.206294315908337"><ele>81.0</ele><time>2026-04-19T07:47:17Z</time></trkpt><trkpt lat="43.83838408689853" lon="11.206405948382475"><ele>81.0</ele><time>2026-04-19T07:47:18Z</time></trkpt><trkpt lat="43.838461566452025" lon="11.20653098858706"><ele>81.0</ele><time>2026-04-19T07:47:19Z</time></trkpt><trkpt lat="43.83855083810094" lon="11.206668151855501"><ele>81.0</ele><time>2026-04-19T07:47:20Z</time></trkpt><trkpt lat="43.83863529685823" lon="11.206812322363119"><ele>81.75</ele><time>2026-04-19T07:47:21Z</time></trkpt><trkpt lat="43.838704000847315" lon="11.206955398729685"><ele>82.5</ele><time>2026-04-19T07:47:22Z</time></trkpt><trkpt lat="43.83876749099843" lon="11.20707944539268"><ele>83.25</ele><time>2026-04-19T07:47:23Z</time></trkpt><trkpt lat="43.83883169366673" lon="11.207204590657193"><ele>84.0</ele><time>2026-04-19T07:47:24Z</time></trkpt><trkpt lat="43.83889259597501" lon="11.207324917022538"><ele>84.5</ele><time>2026-04-19T07:47:25Z</time></trkpt><trkpt lat="43.83893487628866" lon="11.207435461585444"><ele>85.0</ele><time>2026-04-19T07:47:26Z</time></trkpt><trkpt lat="43.83897575698081" lon="11.20753613341482"><ele>85.5</ele><time>2026-04-19T07:47:27Z</time></trkpt><trkpt lat="43.83901965698167" lon="11.207639577090632"><ele>86.0</ele><time>2026-04-19T07:47:28Z</time></trkpt><trkpt lat="43.8390620125336" lon="11.207747225548188"><ele>86.5</ele><time>2026-04-19T07:47:29Z</time></trkpt><trkpt lat="43.83909505810949" lon="11.207839651409786"><ele>87.0</ele><time>2026-04-19T07:47:30Z</time></trkpt><trkpt lat="43.839119364633326" lon="11.207926607609116"><ele>87.0</ele><time>2026-04-19T07:47:31Z</time></trkpt><trkpt lat="43.83913260853709" lon="11.208026132935352"><ele>87.0</ele><time>2026-04-19T07:47:32Z</time></trkpt><trkpt lat="43.83914043975768" lon="11.208152096498411"><ele>87.0</ele><time>2026-04-19T07:47:33Z</time></trkpt><trkpt lat="43.8391587107877" lon="11.208295241737616"><ele>87.0</ele><time>2026-04-19T07:47:34Z</time></trkpt><trkpt lat="43.83917836387535" lon="11.208446639535213"><ele>87.0</ele><time>2026-04-19T07:47:35Z</time></trkpt><trkpt lat="43.83919002492346" lon="11.208602008339515"><ele>87.25</ele><time>2026-04-19T07:47:36Z</time></trkpt><trkpt lat="43.839199604268615" lon="11.208762562584875"><ele>87.5</ele><time>2026-04-19T07:47:37Z</time></trkpt><trkpt lat="43.83921735958228" lon="11.20892991523172"><ele>87.75</ele><time>2026-04-19T07:47:38Z</time></trkpt><trkpt lat="43.83924085151807" lon="11.209110070863348"><ele>88.0</ele><time>2026-04-19T07:47:39Z</time></trkpt><trkpt lat="43.83926649361242" lon="11.209308261614376"><ele>88.5</ele><time>2026-04-19T07:47:40Z</time></trkpt><trkpt lat="43.83929327174016" lon="11.209496409438827"><ele>89.0</ele><time>2026-04-19T07:47:41Z</time></trkpt><trkpt lat="43.83931722208116" lon="11.209672799879115"><ele>89.5</ele><time>2026-04-19T07:47:42Z</time></trkpt><trkpt lat="43.839342690197896" lon="11.209847207053"><ele>90.0</ele><time>2026-04-19T07:47:43Z</time></trkpt><trkpt lat="43.839372761662766" lon="11.210025629986625"><ele>91.25</ele><time>2026-04-19T07:47:44Z</time></trkpt><trkpt lat="43.83940549498895" lon="11.21020245307861"><ele>92.5</ele><time>2026-04-19T07:47:45Z</time></trkpt><trkpt lat="43.83943429851186" lon="11.210356170588469"><ele>93.75</ele><time>2026-04-19T07:47:46Z</time></trkpt><trkpt lat="43.83946080671829" lon="11.210503364937026"><ele>95.0</ele><time>2026-04-19T07:47:47Z</time></trkpt><trkpt lat="43.839478893399594" lon="11.210650224581373"><ele>95.33333333333334</ele><time>2026-04-19T07:47:48Z</time></trkpt><trkpt lat="43.839486678007695" lon="11.210774722297142"><ele>95.66666666666667</ele><time>2026-04-19T07:47:49Z</time></trkpt><trkpt lat="43.83948291235471" lon="11.21089292435651"><ele>96.0</ele><time>2026-04-19T07:47:50Z</time></trkpt><trkpt lat="43.83946680512367" lon="11.210991089369497"><ele>96.33333333333334</ele><time>2026-04-19T07:47:51Z</time></trkpt><trkpt lat="43.83945560474544" lon="11.211077414123462"><ele>96.66666666666667</ele><time>2026-04-19T07:47:52Z</time></trkpt><trkpt lat="43.83950534640664" lon="11.21123170062059"><ele>97.0</ele><time>2026-04-19T07:47:54Z</time></trkpt><trkpt lat="43.839572929179496" lon="11.211297629703791"><ele>97.0</ele><time>2026-04-19T07:47:55Z</time></trkpt><trkpt lat="43.83964782900324" lon="11.211360657357531"><ele>97.0</ele><time>2026-04-19T07:47:56Z</time></trkpt><trkpt lat="43.83971405728462" lon="11.211433669498092"><ele>97.0</ele><time>2026-04-19T07:47:57Z</time></trkpt><trkpt lat="43.83976151497901" lon="11.21149418141015"><ele>97.0</ele><time>2026-04-19T07:47:58Z</time></trkpt><trkpt lat="43.8398388457687" lon="11.211588077671424"><ele>97.0</ele><time>2026-04-19T07:48:00Z</time></trkpt><trkpt lat="43.83993478908286" lon="11.211697591482979"><ele>97.6</ele><time>2026-04-19T07:48:02.001Z</time></trkpt><trkpt lat="43.83999349536116" lon="11.211763569673797"><ele>98.19999999999999</ele><time>2026-04-19T07:48:03.001Z</time></trkpt><trkpt lat="43.84005017524886" lon="11.21182127538704"><ele>98.8</ele><time>2026-04-19T07:48:04Z</time></trkpt><trkpt lat="43.840119083607874" lon="11.211951129437079"><ele>99.4</ele><time>2026-04-19T07:48:06.001Z</time></trkpt><trkpt lat="43.8401338398281" lon="11.212131416464686"><ele>100.0</ele><time>2026-04-19T07:48:08Z</time></trkpt><trkpt lat="43.84013403066528" lon="11.212243452543566"><ele>100.42857142857143</ele><time>2026-04-19T07:48:09Z</time></trkpt><trkpt lat="43.84013198481338" lon="11.21236029556382"><ele>100.85714285714286</ele><time>2026-04-19T07:48:10Z</time></trkpt><trkpt lat="43.8401268787906" lon="11.212469000215854"><ele>101.28571428571428</ele><time>2026-04-19T07:48:11Z</time></trkpt><trkpt lat="43.84010711165867" lon="11.212558364630105"><ele>101.71428571428572</ele><time>2026-04-19T07:48:12Z</time></trkpt><trkpt lat="43.84008107257603" lon="11.212651322705609"><ele>102.14285714285714</ele><time>2026-04-19T07:48:13Z</time></trkpt><trkpt lat="43.84005770358843" lon="11.212751229293328"><ele>102.57142857142857</ele><time>2026-04-19T07:48:14Z</time></trkpt><trkpt lat="43.84004202158532" lon="11.212836051946375"><ele>103.0</ele><time>2026-04-19T07:48:15Z</time></trkpt><trkpt lat="43.84009219434315" lon="11.213005637555066"><ele>103.4</ele><time>2026-04-19T07:48:17Z</time></trkpt><trkpt lat="43.84016293741667" lon="11.213086090403369"><ele>103.80000000000001</ele><time>2026-04-19T07:48:18Z</time></trkpt><trkpt lat="43.84024290885656" lon="11.213153100479838"><ele>104.2</ele><time>2026-04-19T07:48:19Z</time></trkpt><trkpt lat="43.84032332952034" lon="11.213225709298676"><ele>104.6</ele><time>2026-04-19T07:48:20Z</time></trkpt><trkpt lat="43.84039382305836" lon="11.213304354505864"><ele>105.0</ele><time>2026-04-19T07:48:21Z</time></trkpt><trkpt lat="43.840460291339284" lon="11.213383726475925"><ele>106.0</ele><time>2026-04-19T07:48:22Z</time></trkpt><trkpt lat="43.84051305164755" lon="11.213450911845639"><ele>107.0</ele><time>2026-04-19T07:48:23Z</time></trkpt><trkpt lat="43.840606416934264" lon="11.213541899826938"><ele>108.0</ele><time>2026-04-19T07:48:25Z</time></trkpt><trkpt lat="43.8406859382413" lon="11.213634948492018"><ele>109.0</ele><time>2026-04-19T07:48:27Z</time></trkpt><trkpt lat="43.840769542265534" lon="11.213557775840872"><ele>110.0</ele><time>2026-04-19T07:48:28Z</time></trkpt><trkpt lat="43.84083822659911" lon="11.213539229925212"><ele>110.0</ele><time>2026-04-19T07:48:29Z</time></trkpt><trkpt lat="43.840933557092605" lon="11.213577194593816"><ele>110.0</ele><time>2026-04-19T07:48:30Z</time></trkpt><trkpt lat="43.84103085284812" lon="11.213613399697316"><ele>110.0</ele><time>2026-04-19T07:48:31Z</time></trkpt><trkpt lat="43.841141960382" lon="11.213635705103547"><ele>110.0</ele><time>2026-04-19T07:48:32Z</time></trkpt><trkpt lat="43.8412752448018" lon="11.213675110361377"><ele>110.0</ele><time>2026-04-19T07:48:33Z</time></trkpt><trkpt lat="43.841412768551166" lon="11.21372261794533"><ele>112.0</ele><time>2026-04-19T07:48:34Z</time></trkpt><trkpt lat="43.84156235601161" lon="11.21377698047697"><ele>114.0</ele><time>2026-04-19T07:48:35Z</time></trkpt><trkpt lat="43.84171686623254" lon="11.21383338930461"><ele>116.0</ele><time>2026-04-19T07:48:36Z</time></trkpt><trkpt lat="43.841873575677894" lon="11.213891394467208"><ele>117.0</ele><time>2026-04-19T07:48:37Z</time></trkpt><trkpt lat="43.842047772416045" lon="11.213960003705143"><ele>118.0</ele><time>2026-04-19T07:48:38Z</time></trkpt><trkpt lat="43.842211459059" lon="11.214022570678136"><ele>119.0</ele><time>2026-04-19T07:48:39Z</time></trkpt><trkpt lat="43.842359409656616" lon="11.214057818968971"><ele>120.66666666666666</ele><time>2026-04-19T07:48:40Z</time></trkpt><trkpt lat="43.84251200033065" lon="11.214046458747275"><ele>122.33333333333334</ele><time>2026-04-19T07:48:41Z</time></trkpt><trkpt lat="43.84265422388536" lon="11.214018407357683"><ele>124.0</ele><time>2026-04-19T07:48:42Z</time></trkpt><trkpt lat="43.842802976209065" lon="11.213943258725681"><ele>124.0</ele><time>2026-04-19T07:48:43Z</time></trkpt><trkpt lat="43.842947825670414" lon="11.213828215966892"><ele>124.0</ele><time>2026-04-19T07:48:44Z</time></trkpt><trkpt lat="43.84306726239794" lon="11.213710611496401"><ele>124.0</ele><time>2026-04-19T07:48:45Z</time></trkpt><trkpt lat="43.843192807743144" lon="11.213594731429566"><ele>124.0</ele><time>2026-04-19T07:48:46Z</time></trkpt><trkpt lat="43.843320296507265" lon="11.213503618004767"><ele>124.0</ele><time>2026-04-19T07:48:47Z</time></trkpt><trkpt lat="43.84345563479027" lon="11.213429052315497"><ele>124.0</ele><time>2026-04-19T07:48:48Z</time></trkpt><trkpt lat="43.84359895007322" lon="11.213371289318019"><ele>124.0</ele><time>2026-04-19T07:48:49Z</time></trkpt><trkpt lat="43.8437552223188" lon="11.213325030466173"><ele>126.33333333333334</ele><time>2026-04-19T07:48:50Z</time></trkpt><trkpt lat="43.8439222172917" lon="11.21332810613444"><ele>128.66666666666666</ele><time>2026-04-19T07:48:51Z</time></trkpt><trkpt lat="43.84407816939676" lon="11.213319099197411"><ele>131.0</ele><time>2026-04-19T07:48:52Z</time></trkpt><trkpt lat="43.84423029314231" lon="11.213290154740953"><ele>131.66666666666666</ele><time>2026-04-19T07:48:53Z</time></trkpt><trkpt lat="43.84437728742624" lon="11.213293465690965"><ele>132.33333333333334</ele><time>2026-04-19T07:48:54Z</time></trkpt><trkpt lat="43.844527887753145" lon="11.213312310191915"><ele>133.0</ele><time>2026-04-19T07:48:55Z</time></trkpt><trkpt lat="43.84467633955007" lon="11.213394157430995"><ele>133.0</ele><time>2026-04-19T07:48:56Z</time></trkpt><trkpt lat="43.84483412826279" lon="11.213438083742771"><ele>133.0</ele><time>2026-04-19T07:48:57Z</time></trkpt><trkpt lat="43.84497139501886" lon="11.21348616939765"><ele>133.0</ele><time>2026-04-19T07:48:58Z</time></trkpt><trkpt lat="43.845110664105725" lon="11.213516286167245"><ele>133.0</ele><time>2026-04-19T07:48:59Z</time></trkpt><trkpt lat="43.84525957559116" lon="11.21351325181628"><ele>134.0</ele><time>2026-04-19T07:49:00Z</time></trkpt><trkpt lat="43.845405947825824" lon="11.213490072439791"><ele>135.0</ele><time>2026-04-19T07:49:01Z</time></trkpt><trkpt lat="43.84554080787449" lon="11.213472419684853"><ele>136.0</ele><time>2026-04-19T07:49:02Z</time></trkpt><trkpt lat="43.845677250986625" lon="11.213462003022588"><ele>137.0</ele><time>2026-04-19T07:49:03Z</time></trkpt><trkpt lat="43.84580955752998" lon="11.213453888574511"><ele>136.33333333333331</ele><time>2026-04-19T07:49:04Z</time></trkpt><trkpt lat="43.84596310027424" lon="11.213464504199012"><ele>135.66666666666666</ele><time>2026-04-19T07:49:05Z</time></trkpt><trkpt lat="43.84613434971178" lon="11.213534384529645"><ele>135.0</ele><time>2026-04-19T07:49:06Z</time></trkpt><trkpt lat="43.84632736278317" lon="11.213590700250395"><ele>135.0</ele><time>2026-04-19T07:49:07Z</time></trkpt><trkpt lat="43.846532138398686" lon="11.213649588466383"><ele>135.0</ele><time>2026-04-19T07:49:08Z</time></trkpt><trkpt lat="43.846736163761804" lon="11.21370826092824"><ele>135.0</ele><time>2026-04-19T07:49:09Z</time></trkpt><trkpt lat="43.84694540804603" lon="11.213749553465128"><ele>134.66666666666666</ele><time>2026-04-19T07:49:10Z</time></trkpt><trkpt lat="43.84715012593754" lon="11.213814454777333"><ele>134.33333333333331</ele><time>2026-04-19T07:49:11Z</time></trkpt><trkpt lat="43.847352324535315" lon="11.213874387410211"><ele>134.0</ele><time>2026-04-19T07:49:12Z</time></trkpt><trkpt lat="43.84753838350959" lon="11.213935357705342"><ele>139.0</ele><time>2026-04-19T07:49:13Z</time></trkpt><trkpt lat="43.84772568150057" lon="11.214005899150804"><ele>144.0</ele><time>2026-04-19T07:49:14Z</time></trkpt><trkpt lat="43.84788895308301" lon="11.214107768139714"><ele>149.0</ele><time>2026-04-19T07:49:15Z</time></trkpt><trkpt lat="43.848050644443674" lon="11.214206826117696"><ele>149.0</ele><time>2026-04-19T07:49:16Z</time></trkpt><trkpt lat="43.848219596002195" lon="11.214288425976498"><ele>149.0</ele><time>2026-04-19T07:49:17Z</time></trkpt><trkpt lat="43.848379371182375" lon="11.214419263183675"><ele>149.0</ele><time>2026-04-19T07:49:18Z</time></trkpt><trkpt lat="43.84854015190438" lon="11.214563791482568"><ele>148.0</ele><time>2026-04-19T07:49:19Z</time></trkpt><trkpt lat="43.8487004339726" lon="11.2146713179904"><ele>147.0</ele><time>2026-04-19T07:49:20Z</time></trkpt><trkpt lat="43.84888068847476" lon="11.21473516558282"><ele>146.0</ele><time>2026-04-19T07:49:21Z</time></trkpt><trkpt lat="43.84908045419603" lon="11.214754875887946"><ele>146.0</ele><time>2026-04-19T07:49:22Z</time></trkpt><trkpt lat="43.84929042061258" lon="11.214765795443734"><ele>146.0</ele><time>2026-04-19T07:49:23Z</time></trkpt><trkpt lat="43.849492216063545" lon="11.214778640034059"><ele>146.0</ele><time>2026-04-19T07:49:24Z</time></trkpt><trkpt lat="43.84968770176389" lon="11.214797760051926"><ele>146.0</ele><time>2026-04-19T07:49:25Z</time></trkpt><trkpt lat="43.84987721469166" lon="11.214819931969506"><ele>146.0</ele><time>2026-04-19T07:49:26Z</time></trkpt><trkpt lat="43.850075110612714" lon="11.214841069697849"><ele>146.0</ele><time>2026-04-19T07:49:27Z</time></trkpt><trkpt lat="43.850276407256686" lon="11.21486455510454"><ele>148.33333333333331</ele><time>2026-04-19T07:49:28Z</time></trkpt><trkpt lat="43.85048542729217" lon="11.2148850105266"><ele>150.66666666666666</ele><time>2026-04-19T07:49:29Z</time></trkpt><trkpt lat="43.85069493934153" lon="11.214905972827207"><ele>153.0</ele><time>2026-04-19T07:49:30Z</time></trkpt><trkpt lat="43.850900788056244" lon="11.214929658084284"><ele>155.33333333333334</ele><time>2026-04-19T07:49:31Z</time></trkpt><trkpt lat="43.85109940051781" lon="11.214953864047708"><ele>157.66666666666669</ele><time>2026-04-19T07:49:32Z</time></trkpt><trkpt lat="43.851297557475604" lon="11.214975783965556"><ele>160.0</ele><time>2026-04-19T07:49:33Z</time></trkpt><trkpt lat="43.85147679759452" lon="11.214994163130639"><ele>160.0</ele><time>2026-04-19T07:49:34Z</time></trkpt><trkpt lat="43.851641406563154" lon="11.215011713042934"><ele>160.0</ele><time>2026-04-19T07:49:35Z</time></trkpt><trkpt lat="43.851802242838744" lon="11.21502012508186"><ele>160.0</ele><time>2026-04-19T07:49:36Z</time></trkpt><trkpt lat="43.85196091484341" lon="11.215037296878162"><ele>163.5</ele><time>2026-04-19T07:49:37Z</time></trkpt><trkpt lat="43.85211112099015" lon="11.215055677254073"><ele>167.0</ele><time>2026-04-19T07:49:38Z</time></trkpt><trkpt lat="43.85225249531483" lon="11.215070286130553"><ele>170.5</ele><time>2026-04-19T07:49:39Z</time></trkpt><trkpt lat="43.8523861649022" lon="11.215067805852804"><ele>174.0</ele><time>2026-04-19T07:49:40Z</time></trkpt><trkpt lat="43.85253915226245" lon="11.215039184635664"><ele>178.0</ele><time>2026-04-19T07:49:41Z</time></trkpt><trkpt lat="43.852690992140744" lon="11.214978429684734"><ele>182.0</ele><time>2026-04-19T07:49:42Z</time></trkpt><trkpt lat="43.85284472666109" lon="11.214933531239348"><ele>186.0</ele><time>2026-04-19T07:49:43Z</time></trkpt><trkpt lat="43.85298644854808" lon="11.214875575829668"><ele>187.75</ele><time>2026-04-19T07:49:44Z</time></trkpt><trkpt lat="43.8531256471587" lon="11.214807651114938"><ele>189.5</ele><time>2026-04-19T07:49:45Z</time></trkpt><trkpt lat="43.85326291631871" lon="11.214740909327922"><ele>191.25</ele><time>2026-04-19T07:49:46Z</time></trkpt><trkpt lat="43.853392209257755" lon="11.214681821278512"><ele>193.0</ele><time>2026-04-19T07:49:47Z</time></trkpt><trkpt lat="43.85350968354396" lon="11.21463845572727"><ele>196.4</ele><time>2026-04-19T07:49:48Z</time></trkpt><trkpt lat="43.8536162427294" lon="11.214598945162697"><ele>199.8</ele><time>2026-04-19T07:49:49Z</time></trkpt><trkpt lat="43.85371795014114" lon="11.21453445114101"><ele>203.2</ele><time>2026-04-19T07:49:50Z</time></trkpt><trkpt lat="43.85382270345985" lon="11.214508706022245"><ele>206.6</ele><time>2026-04-19T07:49:51Z</time></trkpt><trkpt lat="43.853911743380806" lon="11.214459848668064"><ele>210.0</ele><time>2026-04-19T07:49:52Z</time></trkpt><trkpt lat="43.85398519837401" lon="11.214355993020469"><ele>210.0</ele><time>2026-04-19T07:49:53Z</time></trkpt><trkpt lat="43.85403319972261" lon="11.214248993987944"><ele>210.0</ele><time>2026-04-19T07:49:54Z</time></trkpt><trkpt lat="43.85407718458569" lon="11.214179410829237"><ele>210.0</ele><time>2026-04-19T07:49:55Z</time></trkpt><trkpt lat="43.85413576142652" lon="11.214102192844814"><ele>210.0</ele><time>2026-04-19T07:49:57Z</time></trkpt><trkpt lat="43.85420198420126" lon="11.214162732574385"><ele>210.0</ele><time>2026-04-19T07:49:59Z</time></trkpt><trkpt lat="43.85417532065264" lon="11.21428216786426"><ele>210.0</ele><time>2026-04-19T07:50:00Z</time></trkpt><trkpt lat="43.85419081903404" lon="11.21441897352027"><ele>210.0</ele><time>2026-04-19T07:50:01Z</time></trkpt><trkpt lat="43.85421859245115" lon="11.214542602262568"><ele>210.0</ele><time>2026-04-19T07:50:02Z</time></trkpt><trkpt lat="43.85429763667328" lon="11.2146270340062"><ele>210.0</ele><time>2026-04-19T07:50:03Z</time></trkpt><trkpt lat="43.85436460859689" lon="11.214780941475713"><ele>210.0</ele><time>2026-04-19T07:50:04Z</time></trkpt><trkpt lat="43.85434804809541" lon="11.214961915825475"><ele>217.75</ele><time>2026-04-19T07:50:05Z</time></trkpt><trkpt lat="43.85436157833352" lon="11.215129741196563"><ele>225.5</ele><time>2026-04-19T07:50:06Z</time></trkpt><trkpt lat="43.854375153347014" lon="11.215294540111776"><ele>233.25</ele><time>2026-04-19T07:50:07.001Z</time></trkpt><trkpt lat="43.85440598641145" lon="11.215479816834712"><ele>241.0</ele><time>2026-04-19T07:50:08.001Z</time></trkpt><trkpt lat="43.854451121701075" lon="11.215643285058462"><ele>241.75</ele><time>2026-04-19T07:50:09.001Z</time></trkpt><trkpt lat="43.85449834575474" lon="11.215809832337966"><ele>242.5</ele><time>2026-04-19T07:50:10.001Z</time></trkpt><trkpt lat="43.85456498423483" lon="11.215972941733089"><ele>243.25</ele><time>2026-04-19T07:50:11.001Z</time></trkpt><trkpt lat="43.85464682160534" lon="11.216118839321398"><ele>244.0</ele><time>2026-04-19T07:50:12.001Z</time></trkpt><trkpt lat="43.854702915888424" lon="11.216219596667054"><ele>243.99999999999997</ele><time>2026-04-19T07:50:13.001Z</time></trkpt><trkpt lat="43.85474511162804" lon="11.216295878956382"><ele>244.0</ele><time>2026-04-19T07:50:14.001Z</time></trkpt><trkpt lat="43.854785511749" lon="11.216365797406668"><ele>244.0</ele><time>2026-04-19T07:50:15.001Z</time></trkpt><trkpt lat="43.85488714686565" lon="11.216342344181859"><ele>244.0</ele><time>2026-04-19T07:50:18.001Z</time></trkpt><trkpt lat="43.85486314483542" lon="11.21622686165216"><ele>243.99999999999997</ele><time>2026-04-19T07:50:19.001Z</time></trkpt><trkpt lat="43.854818473561174" lon="11.21612355756134"><ele>244.0</ele><time>2026-04-19T07:50:20.001Z</time></trkpt><trkpt lat="43.854778640743454" lon="11.215992102748581"><ele>244.0</ele><time>2026-04-19T07:50:21.001Z</time></trkpt><trkpt lat="43.85478255702959" lon="11.215868066101836"><ele>244.0</ele><time>2026-04-19T07:50:22.001Z</time></trkpt><trkpt lat="43.8547986081036" lon="11.215684897206053"><ele>244.0</ele><time>2026-04-19T07:50:23.001Z</time></trkpt><trkpt lat="43.85481327358224" lon="11.215495576394868"><ele>244.0</ele><time>2026-04-19T07:50:24.001Z</time></trkpt><trkpt lat="43.85483750745682" lon="11.215321984921463"><ele>243.25</ele><time>2026-04-19T07:50:25.001Z</time></trkpt><trkpt lat="43.854889165131524" lon="11.215160942308264"><ele>242.5</ele><time>2026-04-19T07:50:26.001Z</time></trkpt><trkpt lat="43.85493791294749" lon="11.215029169401658"><ele>241.75</ele><time>2026-04-19T07:50:27.001Z</time></trkpt><trkpt lat="43.855016705927774" lon="11.21493486516612"><ele>241.0</ele><time>2026-04-19T07:50:28.001Z</time></trkpt><trkpt lat="43.855111460952905" lon="11.21483543762301"><ele>245.75</ele><time>2026-04-19T07:50:29.001Z</time></trkpt><trkpt lat="43.85522440303976" lon="11.214727275538705"><ele>250.5</ele><time>2026-04-19T07:50:30.001Z</time></trkpt><trkpt lat="43.855352643579984" lon="11.214646238126075"><ele>255.25</ele><time>2026-04-19T07:50:31.001Z</time></trkpt><trkpt lat="43.855495631847916" lon="11.21457266773862"><ele>260.0</ele><time>2026-04-19T07:50:32.001Z</time></trkpt><trkpt lat="43.85563556410001" lon="11.214524029844005"><ele>260.0</ele><time>2026-04-19T07:50:33.001Z</time></trkpt><trkpt lat="43.85574982789926" lon="11.214478608753117"><ele>260.0</ele><time>2026-04-19T07:50:34.001Z</time></trkpt><trkpt lat="43.855831333387485" lon="11.214448580865458"><ele>260.0</ele><time>2026-04-19T07:50:35.001Z</time></trkpt><trkpt lat="43.855894118731385" lon="11.214417272395071"><ele>260.0</ele><time>2026-04-19T07:50:36.001Z</time></trkpt><trkpt lat="43.855944886986514" lon="11.214358568178076"><ele>260.0</ele><time>2026-04-19T07:50:37.001Z</time></trkpt><trkpt lat="43.85590684908671" lon="11.214171408989039"><ele>260.0</ele><time>2026-04-19T07:50:39.001Z</time></trkpt><trkpt lat="43.855826971633775" lon="11.214059870121336"><ele>260.0</ele><time>2026-04-19T07:50:40.001Z</time></trkpt><trkpt lat="43.8557469839333" lon="11.213941978007739"><ele>260.0</ele><time>2026-04-19T07:50:41.001Z</time></trkpt><trkpt lat="43.855718243042006" lon="11.213860859226886"><ele>260.0</ele><time>2026-04-19T07:50:42.001Z</time></trkpt><trkpt lat="43.85571247063841" lon="11.213743711057717"><ele>260.0</ele><time>2026-04-19T07:50:44.001Z</time></trkpt><trkpt lat="43.85577488960495" lon="11.21372069159768"><ele>260.0</ele><time>2026-04-19T07:50:45.001Z</time></trkpt><trkpt lat="43.85582371373684" lon="11.213796067574208"><ele>259.75</ele><time>2026-04-19T07:50:46.001Z</time></trkpt><trkpt lat="43.85589928636386" lon="11.213865157848875"><ele>259.5</ele><time>2026-04-19T07:50:47.001Z</time></trkpt><trkpt lat="43.85600644194726" lon="11.21398318890914"><ele>259.25</ele><time>2026-04-19T07:50:48.001Z</time></trkpt><trkpt lat="43.85613070667707" lon="11.214080404331494"><ele>259.0</ele><time>2026-04-19T07:50:49.001Z</time></trkpt><trkpt lat="43.85624323593831" lon="11.214156290435715"><ele>262.8</ele><time>2026-04-19T07:50:50.001Z</time></trkpt><trkpt lat="43.856297236644316" lon="11.214219815941796"><ele>266.59999999999997</ele><time>2026-04-19T07:50:51.001Z</time></trkpt><trkpt lat="43.856390147340086" lon="11.21424745301734"><ele>270.4</ele><time>2026-04-19T07:50:53Z</time></trkpt><trkpt lat="43.85645392413317" lon="11.214091296735686"><ele>274.2</ele><time>2026-04-19T07:50:55Z</time></trkpt><trkpt lat="43.856382479231605" lon="11.213929861116096"><ele>278.0</ele><time>2026-04-19T07:50:56Z</time></trkpt><trkpt lat="43.856308296897105" lon="11.213780684176347"><ele>279.0</ele><time>2026-04-19T07:50:57Z</time></trkpt><trkpt lat="43.856256635966574" lon="11.213669192735134"><ele>280.0</ele><time>2026-04-19T07:50:58Z</time></trkpt><trkpt lat="43.85621872386606" lon="11.213589769733431"><ele>281.0</ele><time>2026-04-19T07:50:59Z</time></trkpt><trkpt lat="43.856201110019086" lon="11.213473326015366"><ele>282.0</ele><time>2026-04-19T07:51:01Z</time></trkpt><trkpt lat="43.85631398369773" lon="11.213455603165032"><ele>283.0</ele><time>2026-04-19T07:51:03Z</time></trkpt><trkpt lat="43.856376191698104" lon="11.213541910316671"><ele>283.0</ele><time>2026-04-19T07:51:04Z</time></trkpt><trkpt lat="43.8564644342785" lon="11.213599102887581"><ele>283.0</ele><time>2026-04-19T07:51:05Z</time></trkpt><trkpt lat="43.85654579923978" lon="11.21367415005802"><ele>283.0</ele><time>2026-04-19T07:51:06Z</time></trkpt><trkpt lat="43.856596611387374" lon="11.213770233669441"><ele>283.0</ele><time>2026-04-19T07:51:07Z</time></trkpt><trkpt lat="43.85666713659679" lon="11.213856294944906"><ele>283.0</ele><time>2026-04-19T07:51:08Z</time></trkpt><trkpt lat="43.85672230627664" lon="11.213957245701756"><ele>282.0</ele><time>2026-04-19T07:51:09Z</time></trkpt><trkpt lat="43.856767406030364" lon="11.214043879250426"><ele>281.0</ele><time>2026-04-19T07:51:10Z</time></trkpt><trkpt lat="43.856823672005994" lon="11.214145783220463"><ele>280.0</ele><time>2026-04-19T07:51:11Z</time></trkpt><trkpt lat="43.85688410021895" lon="11.214241842369969"><ele>279.0</ele><time>2026-04-19T07:51:12Z</time></trkpt><trkpt lat="43.85695070794736" lon="11.214335995739068"><ele>278.0</ele><time>2026-04-19T07:51:13Z</time></trkpt><trkpt lat="43.85701559905735" lon="11.214431819677047"><ele>282.6</ele><time>2026-04-19T07:51:14Z</time></trkpt><trkpt lat="43.85710917148246" lon="11.214518331598017"><ele>287.20000000000005</ele><time>2026-04-19T07:51:15Z</time></trkpt><trkpt lat="43.8571839327708" lon="11.214603624110957"><ele>291.8</ele><time>2026-04-19T07:51:16Z</time></trkpt><trkpt lat="43.85725690906439" lon="11.214683811289417"><ele>296.40000000000003</ele><time>2026-04-19T07:51:17Z</time></trkpt><trkpt lat="43.85731956831551" lon="11.214749685297882"><ele>301.0</ele><time>2026-04-19T07:51:18Z</time></trkpt><trkpt lat="43.85738767803" lon="11.214810775720657"><ele>300.6</ele><time>2026-04-19T07:51:19Z</time></trkpt><trkpt lat="43.85746509777713" lon="11.214861214987062"><ele>300.20000000000005</ele><time>2026-04-19T07:51:20Z</time></trkpt><trkpt lat="43.85754465564973" lon="11.214909844373846"><ele>299.79999999999995</ele><time>2026-04-19T07:51:21Z</time></trkpt><trkpt lat="43.857629723652025" lon="11.214951883012827"><ele>299.4</ele><time>2026-04-19T07:51:22Z</time></trkpt><trkpt lat="43.85771922921718" lon="11.215009503246181"><ele>299.0</ele><time>2026-04-19T07:51:23Z</time></trkpt><trkpt lat="43.85781051362594" lon="11.21506828637101"><ele>300.2</ele><time>2026-04-19T07:51:24Z</time></trkpt><trkpt lat="43.857895572094876" lon="11.215128587279938"><ele>301.4</ele><time>2026-04-19T07:51:25Z</time></trkpt><trkpt lat="43.85797275680578" lon="11.21517898720045"><ele>302.6</ele><time>2026-04-19T07:51:26Z</time></trkpt><trkpt lat="43.85804782352992" lon="11.215252060348016"><ele>303.8</ele><time>2026-04-19T07:51:27Z</time></trkpt><trkpt lat="43.85812610055678" lon="11.21531909061635"><ele>305.0</ele><time>2026-04-19T07:51:28Z</time></trkpt><trkpt lat="43.858209368742614" lon="11.21538037293782"><ele>305.0</ele><time>2026-04-19T07:51:29Z</time></trkpt><trkpt lat="43.858289304827096" lon="11.21546031253059"><ele>305.0</ele><time>2026-04-19T07:51:30Z</time></trkpt><trkpt lat="43.85836181078621" lon="11.21553745278765"><ele>305.0</ele><time>2026-04-19T07:51:31Z</time></trkpt><trkpt lat="43.85844159964292" lon="11.215621984148301"><ele>305.0</ele><time>2026-04-19T07:51:32Z</time></trkpt><trkpt lat="43.85854919199755" lon="11.215724092302084"><ele>305.0</ele><time>2026-04-19T07:51:33Z</time></trkpt><trkpt lat="43.858671165859626" lon="11.215831534660108"><ele>306.6666666666667</ele><time>2026-04-19T07:51:34Z</time></trkpt><trkpt lat="43.858812201093045" lon="11.215951669715247"><ele>308.3333333333333</ele><time>2026-04-19T07:51:35Z</time></trkpt><trkpt lat="43.858953687108375" lon="11.216056280968743"><ele>310.0</ele><time>2026-04-19T07:51:36Z</time></trkpt><trkpt lat="43.859099591445506" lon="11.216180321839326"><ele>310.0</ele><time>2026-04-19T07:51:37Z</time></trkpt><trkpt lat="43.859246092719026" lon="11.216313973614245"><ele>310.0</ele><time>2026-04-19T07:51:38Z</time></trkpt><trkpt lat="43.85939288914656" lon="11.216435298055739"><ele>310.0</ele><time>2026-04-19T07:51:39Z</time></trkpt><trkpt lat="43.85954303722987" lon="11.216544751549257"><ele>311.3333333333333</ele><time>2026-04-19T07:51:40Z</time></trkpt><trkpt lat="43.8596974861179" lon="11.216653917185896"><ele>312.6666666666667</ele><time>2026-04-19T07:51:41Z</time></trkpt><trkpt lat="43.859854413898205" lon="11.216731311357515"><ele>314.0</ele><time>2026-04-19T07:51:42Z</time></trkpt><trkpt lat="43.860021260833975" lon="11.216811414694709"><ele>317.75</ele><time>2026-04-19T07:51:43Z</time></trkpt><trkpt lat="43.860183880972215" lon="11.216891387540596"><ele>321.5</ele><time>2026-04-19T07:51:44Z</time></trkpt><trkpt lat="43.8603215549171" lon="11.216960974989885"><ele>325.25</ele><time>2026-04-19T07:51:45Z</time></trkpt><trkpt lat="43.86044161537663" lon="11.217022203238036"><ele>329.0</ele><time>2026-04-19T07:51:46Z</time></trkpt><trkpt lat="43.86054292390354" lon="11.217110637909446"><ele>329.0</ele><time>2026-04-19T07:51:47Z</time></trkpt><trkpt lat="43.8606224251425" lon="11.217219447978175"><ele>329.0</ele><time>2026-04-19T07:51:48Z</time></trkpt><trkpt lat="43.86069761111682" lon="11.217341540277378"><ele>329.0</ele><time>2026-04-19T07:51:49Z</time></trkpt><trkpt lat="43.860768470534886" lon="11.217431441150271"><ele>329.0</ele><time>2026-04-19T07:51:50Z</time></trkpt><trkpt lat="43.86082276952047" lon="11.217507173819728"><ele>329.0</ele><time>2026-04-19T07:51:51Z</time></trkpt><trkpt lat="43.86088474089414" lon="11.217540495595522"><ele>328.6666666666667</ele><time>2026-04-19T07:51:52Z</time></trkpt><trkpt lat="43.86096437375844" lon="11.217520449589518"><ele>328.33333333333337</ele><time>2026-04-19T07:51:53Z</time></trkpt><trkpt lat="43.8610384031698" lon="11.21746956665568"><ele>328.0</ele><time>2026-04-19T07:51:54Z</time></trkpt><trkpt lat="43.861109947088536" lon="11.217499050026506"><ele>327.6666666666667</ele><time>2026-04-19T07:51:55Z</time></trkpt><trkpt lat="43.861169801711846" lon="11.217572849543858"><ele>327.3333333333333</ele><time>2026-04-19T07:51:56Z</time></trkpt><trkpt lat="43.861203771739206" lon="11.217683881064973"><ele>327.0</ele><time>2026-04-19T07:51:57Z</time></trkpt><trkpt lat="43.86121839362928" lon="11.217823061806127"><ele>327.0</ele><time>2026-04-19T07:51:58Z</time></trkpt><trkpt lat="43.861223948704094" lon="11.217983593184904"><ele>327.0</ele><time>2026-04-19T07:51:59Z</time></trkpt><trkpt lat="43.86124079015083" lon="11.218110672348075"><ele>327.0</ele><time>2026-04-19T07:52:00Z</time></trkpt><trkpt lat="43.86125653788284" lon="11.218212473099667"><ele>327.0</ele><time>2026-04-19T07:52:03Z</time></trkpt><trkpt lat="43.86126814291096" lon="11.218306562753112"><ele>327.0</ele><time>2026-04-19T07:52:04Z</time></trkpt><trkpt lat="43.861278747552674" lon="11.218445765158645"><ele>328.0</ele><time>2026-04-19T07:52:05Z</time></trkpt><trkpt lat="43.861294471031606" lon="11.218602884793288"><ele>329.0</ele><time>2026-04-19T07:52:06Z</time></trkpt><trkpt lat="43.86130646851405" lon="11.218777657942773"><ele>330.0</ele><time>2026-04-19T07:52:07Z</time></trkpt><trkpt lat="43.861325355419176" lon="11.218976461226356"><ele>331.0</ele><time>2026-04-19T07:52:08Z</time></trkpt><trkpt lat="43.861363933912294" lon="11.219176068622236"><ele>333.0</ele><time>2026-04-19T07:52:09Z</time></trkpt><trkpt lat="43.861433823237455" lon="11.219379037632992"><ele>335.0</ele><time>2026-04-19T07:52:10Z</time></trkpt><trkpt lat="43.861529647654386" lon="11.219575263281651"><ele>337.0</ele><time>2026-04-19T07:52:11Z</time></trkpt><trkpt lat="43.861653965496416" lon="11.219769245071156"><ele>339.66666666666663</ele><time>2026-04-19T07:52:12Z</time></trkpt><trkpt lat="43.861781948185936" lon="11.219972487874529"><ele>342.3333333333333</ele><time>2026-04-19T07:52:13.001Z</time></trkpt><trkpt lat="43.86190087298887" lon="11.220173622098715"><ele>345.0</ele><time>2026-04-19T07:52:14.001Z</time></trkpt><trkpt lat="43.86201312561569" lon="11.220368617264228"><ele>345.0</ele><time>2026-04-19T07:52:15.001Z</time></trkpt><trkpt lat="43.86211978637125" lon="11.220560516513117"><ele>345.0</ele><time>2026-04-19T07:52:16.001Z</time></trkpt><trkpt lat="43.862217543972875" lon="11.220749744005742"><ele>345.0</ele><time>2026-04-19T07:52:17.001Z</time></trkpt><trkpt lat="43.86230476485905" lon="11.220942607277374"><ele>348.6666666666667</ele><time>2026-04-19T07:52:18.001Z</time></trkpt><trkpt lat="43.86235783910956" lon="11.221163298068607"><ele>352.33333333333337</ele><time>2026-04-19T07:52:19.001Z</time></trkpt><trkpt lat="43.86241007507525" lon="11.221381733662538"><ele>356.0</ele><time>2026-04-19T07:52:20.001Z</time></trkpt><trkpt lat="43.862441249045446" lon="11.221613010159217"><ele>359.6666666666667</ele><time>2026-04-19T07:52:21.001Z</time></trkpt><trkpt lat="43.862498905489524" lon="11.221830456666915"><ele>363.3333333333333</ele><time>2026-04-19T07:52:22.001Z</time></trkpt><trkpt lat="43.862583137961664" lon="11.222030651569266"><ele>367.0</ele><time>2026-04-19T07:52:23.001Z</time></trkpt><trkpt lat="43.86267985946049" lon="11.222221338124722"><ele>371.3333333333333</ele><time>2026-04-19T07:52:24.001Z</time></trkpt><trkpt lat="43.8627794581338" lon="11.222387763167765"><ele>375.6666666666667</ele><time>2026-04-19T07:52:25.001Z</time></trkpt><trkpt lat="43.86281738924677" lon="11.222579705234613"><ele>380.0</ele><time>2026-04-19T07:52:26.001Z</time></trkpt><trkpt lat="43.862848892826804" lon="11.222787242821797"><ele>380.0</ele><time>2026-04-19T07:52:27.001Z</time></trkpt><trkpt lat="43.86287849717868" lon="11.223003515296337"><ele>380.0</ele><time>2026-04-19T07:52:28.001Z</time></trkpt><trkpt lat="43.86291679534692" lon="11.223213985909537"><ele>380.0</ele><time>2026-04-19T07:52:29.001Z</time></trkpt><trkpt lat="43.86292975507458" lon="11.223423583992624"><ele>384.0</ele><time>2026-04-19T07:52:30.001Z</time></trkpt><trkpt lat="43.86292755996244" lon="11.223617351404812"><ele>388.0</ele><time>2026-04-19T07:52:31.001Z</time></trkpt><trkpt lat="43.86293304338519" lon="11.223786906956793"><ele>392.0</ele><time>2026-04-19T07:52:32.001Z</time></trkpt><trkpt lat="43.86298395429349" lon="11.22395840223791"><ele>396.0</ele><time>2026-04-19T07:52:33.001Z</time></trkpt><trkpt lat="43.86306599293436" lon="11.224122524719986"><ele>400.33333333333337</ele><time>2026-04-19T07:52:34.001Z</time></trkpt><trkpt lat="43.8631737740353" lon="11.224289399219229"><ele>404.6666666666667</ele><time>2026-04-19T07:52:35.001Z</time></trkpt><trkpt lat="43.863301090786415" lon="11.224448315408557"><ele>409.0</ele><time>2026-04-19T07:52:36.001Z</time></trkpt><trkpt lat="43.86345777896415" lon="11.224585358156212"><ele>409.6666666666667</ele><time>2026-04-19T07:52:37.001Z</time></trkpt><trkpt lat="43.863595015196665" lon="11.224707357308448"><ele>410.33333333333337</ele><time>2026-04-19T07:52:38.001Z</time></trkpt><trkpt lat="43.86370600782615" lon="11.22482578499785"><ele>411.0</ele><time>2026-04-19T07:52:39.001Z</time></trkpt><trkpt lat="43.86383055385419" lon="11.224946185624557"><ele>414.0</ele><time>2026-04-19T07:52:40.001Z</time></trkpt><trkpt lat="43.86398537203382" lon="11.225023933889565"><ele>417.0</ele><time>2026-04-19T07:52:41.001Z</time></trkpt><trkpt lat="43.864137223405294" lon="11.22506054296041"><ele>420.0</ele><time>2026-04-19T07:52:42.001Z</time></trkpt><trkpt lat="43.8642745491597" lon="11.225088157930623"><ele>423.4</ele><time>2026-04-19T07:52:43.001Z</time></trkpt><trkpt lat="43.86439515028316" lon="11.225125670455254"><ele>426.8</ele><time>2026-04-19T07:52:44.001Z</time></trkpt><trkpt lat="43.86449628968288" lon="11.225170771579588"><ele>430.20000000000005</ele><time>2026-04-19T07:52:45.001Z</time></trkpt><trkpt lat="43.86459449708335" lon="11.22522535207649"><ele>433.6</ele><time>2026-04-19T07:52:46.001Z</time></trkpt><trkpt lat="43.86468135971241" lon="11.225299562584306"><ele>437.0</ele><time>2026-04-19T07:52:47.001Z</time></trkpt><trkpt lat="43.86475029869723" lon="11.22537896524984"><ele>436.99999999999994</ele><time>2026-04-19T07:52:48.001Z</time></trkpt><trkpt lat="43.86480311265265" lon="11.225444131291068"><ele>437.0</ele><time>2026-04-19T07:52:49.001Z</time></trkpt><trkpt lat="43.86486031742926" lon="11.225519201598289"><ele>437.0</ele><time>2026-04-19T07:52:50.001Z</time></trkpt><trkpt lat="43.864912162449194" lon="11.225588285369408"><ele>437.0</ele><time>2026-04-19T07:52:51.001Z</time></trkpt><trkpt lat="43.86497780274403" lon="11.225709159535905"><ele>436.99999999999994</ele><time>2026-04-19T07:52:53Z</time></trkpt><trkpt lat="43.865027026257046" lon="11.225789603943864"><ele>437.0</ele><time>2026-04-19T07:52:55Z</time></trkpt><trkpt lat="43.86507632286447" lon="11.225857996463825"><ele>442.99999999999994</ele><time>2026-04-19T07:52:57Z</time></trkpt><trkpt lat="43.86512443325281" lon="11.225945926836719"><ele>449.0</ele><time>2026-04-19T07:52:59Z</time></trkpt><trkpt lat="43.865165230896835" lon="11.226028168700374"><ele>455.0</ele><time>2026-04-19T07:53:01Z</time></trkpt><trkpt lat="43.86520538361572" lon="11.226115810473319"><ele>461.0</ele><time>2026-04-19T07:53:04Z</time></trkpt><trkpt lat="43.865264602381785" lon="11.22622127536976"><ele>466.99999999999994</ele><time>2026-04-19T07:55:50Z</time></trkpt><trkpt lat="43.86529523903136" lon="11.226317001474515"><ele>473.0</ele><time>2026-04-19T07:55:51Z</time></trkpt><trkpt lat="43.86533576506884" lon="11.226438062776548"><ele>472.79999999999995</ele><time>2026-04-19T07:55:52Z</time></trkpt><trkpt lat="43.865378544024885" lon="11.226580432221159"><ele>472.59999999999997</ele><time>2026-04-19T07:55:53Z</time></trkpt><trkpt lat="43.865422189372744" lon="11.226726406942552"><ele>472.40000000000003</ele><time>2026-04-19T07:55:54Z</time></trkpt><trkpt lat="43.86546495818688" lon="11.226873565400776"><ele>472.20000000000005</ele><time>2026-04-19T07:55:55Z</time></trkpt><trkpt lat="43.865502274129874" lon="11.227008071085972"><ele>472.0</ele><time>2026-04-19T07:55:56Z</time></trkpt><trkpt lat="43.8655408424363" lon="11.227144849950184"><ele>472.0</ele><time>2026-04-19T07:55:57Z</time></trkpt><trkpt lat="43.86558510648387" lon="11.227296056849514"><ele>472.0</ele><time>2026-04-19T07:55:58Z</time></trkpt><trkpt lat="43.86563289418936" lon="11.227469902323083"><ele>472.0</ele><time>2026-04-19T07:55:59Z</time></trkpt><trkpt lat="43.86568106109206" lon="11.227653951248374"><ele>472.0</ele><time>2026-04-19T07:56:00Z</time></trkpt><trkpt lat="43.86573082876504" lon="11.22784524839159"><ele>468.0</ele><time>2026-04-19T07:56:01Z</time></trkpt><trkpt lat="43.865783710271714" lon="11.228050382710238"><ele>464.0</ele><time>2026-04-19T07:56:02Z</time></trkpt><trkpt lat="43.86583970307724" lon="11.228268772809875"><ele>460.0</ele><time>2026-04-19T07:56:03Z</time></trkpt><trkpt lat="43.86589270454105" lon="11.228496464137654"><ele>456.6666666666667</ele><time>2026-04-19T07:56:04Z</time></trkpt><trkpt lat="43.86593807555839" lon="11.228736056362278"><ele>453.33333333333337</ele><time>2026-04-19T07:56:05Z</time></trkpt><trkpt lat="43.86598029328937" lon="11.228973982370295"><ele>450.0</ele><time>2026-04-19T07:56:06Z</time></trkpt><trkpt lat="43.866023487537795" lon="11.229209500989835"><ele>464.66666666666663</ele><time>2026-04-19T07:56:07Z</time></trkpt><trkpt lat="43.86606147561099" lon="11.229447208942268"><ele>479.3333333333333</ele><time>2026-04-19T07:56:08Z</time></trkpt><trkpt lat="43.86610215438247" lon="11.229681334671996"><ele>494.0</ele><time>2026-04-19T07:56:09Z</time></trkpt><trkpt lat="43.86614704587339" lon="11.22991232747888"><ele>494.0</ele><time>2026-04-19T07:56:10Z</time></trkpt><trkpt lat="43.86618848595666" lon="11.230143925767536"><ele>494.0</ele><time>2026-04-19T07:56:11Z</time></trkpt><trkpt lat="43.866204441115535" lon="11.230374970854644"><ele>494.0</ele><time>2026-04-19T07:56:12Z</time></trkpt><trkpt lat="43.86623397300859" lon="11.230606664499389"><ele>495.0</ele><time>2026-04-19T07:56:13Z</time></trkpt><trkpt lat="43.866226012572426" lon="11.230840527091608"><ele>496.0</ele><time>2026-04-19T07:56:14Z</time></trkpt><trkpt lat="43.86621281064365" lon="11.231049454806936"><ele>497.0</ele><time>2026-04-19T07:56:15Z</time></trkpt><trkpt lat="43.86620266948385" lon="11.231253984310893"><ele>497.0</ele><time>2026-04-19T07:56:16Z</time></trkpt><trkpt lat="43.866204075008156" lon="11.23147661572293"><ele>497.0</ele><time>2026-04-19T07:56:17Z</time></trkpt><trkpt lat="43.866260057619236" lon="11.23169301795158"><ele>497.0</ele><time>2026-04-19T07:56:18Z</time></trkpt><trkpt lat="43.866318580111376" lon="11.231894013672548"><ele>497.0</ele><time>2026-04-19T07:56:19Z</time></trkpt><trkpt lat="43.86636660412358" lon="11.232070736356185"><ele>497.0</ele><time>2026-04-19T07:56:20Z</time></trkpt><trkpt lat="43.866381577559906" lon="11.232244958204083"><ele>497.0</ele><time>2026-04-19T07:56:21Z</time></trkpt><trkpt lat="43.86639185099971" lon="11.23241079345034"><ele>497.0</ele><time>2026-04-19T07:56:22Z</time></trkpt><trkpt lat="43.86638521533928" lon="11.23259328108979"><ele>497.25</ele><time>2026-04-19T07:56:23Z</time></trkpt><trkpt lat="43.86631785207412" lon="11.23275336440128"><ele>497.5</ele><time>2026-04-19T07:56:24Z</time></trkpt><trkpt lat="43.86625974677547" lon="11.232907457302773"><ele>497.75</ele><time>2026-04-19T07:56:25.001Z</time></trkpt><trkpt lat="43.86615366929715" lon="11.233027908727408"><ele>498.0</ele><time>2026-04-19T07:56:26.001Z</time></trkpt><trkpt lat="43.86601986382357" lon="11.233132995740425"><ele>493.33333333333337</ele><time>2026-04-19T07:56:27.001Z</time></trkpt><trkpt lat="43.86586114134634" lon="11.233219727211862"><ele>488.6666666666667</ele><time>2026-04-19T07:56:28.001Z</time></trkpt><trkpt lat="43.86568214042123" lon="11.23327231542301"><ele>484.0</ele><time>2026-04-19T07:56:29.001Z</time></trkpt><trkpt lat="43.86548110799882" lon="11.23329523215663"><ele>484.0</ele><time>2026-04-19T07:56:30.001Z</time></trkpt><trkpt lat="43.865266654309124" lon="11.233321389383454"><ele>484.0</ele><time>2026-04-19T07:56:31.001Z</time></trkpt><trkpt lat="43.86505191226421" lon="11.233350717475828"><ele>484.0</ele><time>2026-04-19T07:56:32.001Z</time></trkpt><trkpt lat="43.864859435718" lon="11.233389577130025"><ele>484.0</ele><time>2026-04-19T07:56:33.001Z</time></trkpt><trkpt lat="43.86467890377633" lon="11.233423122052864"><ele>484.0</ele><time>2026-04-19T07:56:34.001Z</time></trkpt><trkpt lat="43.86450185500784" lon="11.233455597435878"><ele>484.0</ele><time>2026-04-19T07:56:35.001Z</time></trkpt><trkpt lat="43.864331380073956" lon="11.233495678927508"><ele>484.0</ele><time>2026-04-19T07:56:36.001Z</time></trkpt><trkpt lat="43.86415475185875" lon="11.233566691217062"><ele>484.0</ele><time>2026-04-19T07:56:37.001Z</time></trkpt><trkpt lat="43.86397946915566" lon="11.233674179731176"><ele>484.0</ele><time>2026-04-19T07:56:38.001Z</time></trkpt><trkpt lat="43.86381708063525" lon="11.23380267467974"><ele>484.0</ele><time>2026-04-19T07:56:39.001Z</time></trkpt><trkpt lat="43.86366452570016" lon="11.233940381561345"><ele>484.0</ele><time>2026-04-19T07:56:40.001Z</time></trkpt><trkpt lat="43.8635283817791" lon="11.234062772733774"><ele>484.0</ele><time>2026-04-19T07:56:41.001Z</time></trkpt><trkpt lat="43.863393336392406" lon="11.234180644841318"><ele>488.0</ele><time>2026-04-19T07:56:42.001Z</time></trkpt><trkpt lat="43.863263451929065" lon="11.234295768503348"><ele>492.0</ele><time>2026-04-19T07:56:43.001Z</time></trkpt><trkpt lat="43.86312427411205" lon="11.23438695355282"><ele>496.0</ele><time>2026-04-19T07:56:44.001Z</time></trkpt><trkpt lat="43.86299067031311" lon="11.234468479355217"><ele>496.0</ele><time>2026-04-19T07:56:45.001Z</time></trkpt><trkpt lat="43.86284373149424" lon="11.23454395112101"><ele>496.0</ele><time>2026-04-19T07:56:46.001Z</time></trkpt><trkpt lat="43.86269107008483" lon="11.234644505130008"><ele>496.0</ele><time>2026-04-19T07:56:47.001Z</time></trkpt><trkpt lat="43.86251876329372" lon="11.234721663140952"><ele>503.33333333333337</ele><time>2026-04-19T07:56:48.001Z</time></trkpt><trkpt lat="43.86233680984522" lon="11.23481549542734"><ele>510.66666666666663</ele><time>2026-04-19T07:56:49.001Z</time></trkpt><trkpt lat="43.86216935087203" lon="11.234896077359972"><ele>518.0</ele><time>2026-04-19T07:56:50.001Z</time></trkpt><trkpt lat="43.862003076356174" lon="11.234903693412647"><ele>518.0</ele><time>2026-04-19T07:56:51.001Z</time></trkpt><trkpt lat="43.86184005526313" lon="11.234873717022078"><ele>518.0</ele><time>2026-04-19T07:56:52.001Z</time></trkpt><trkpt lat="43.861669595083974" lon="11.234813167340002"><ele>518.0</ele><time>2026-04-19T07:56:53Z</time></trkpt><trkpt lat="43.86150909734557" lon="11.234710858173116"><ele>516.0</ele><time>2026-04-19T07:56:54Z</time></trkpt><trkpt lat="43.861364159632494" lon="11.234552896785441"><ele>514.0</ele><time>2026-04-19T07:56:55Z</time></trkpt><trkpt lat="43.86123815715544" lon="11.234353009317449"><ele>512.0</ele><time>2026-04-19T07:56:56Z</time></trkpt><trkpt lat="43.861102484621185" lon="11.23417857629168"><ele>512.0</ele><time>2026-04-19T07:56:57Z</time></trkpt><trkpt lat="43.86101760339529" lon="11.23400270630829"><ele>512.0</ele><time>2026-04-19T07:56:58Z</time></trkpt><trkpt lat="43.86089661602959" lon="11.233874191841366"><ele>512.0</ele><time>2026-04-19T07:56:59Z</time></trkpt><trkpt lat="43.86074453498326" lon="11.233768405823408"><ele>512.3333333333333</ele><time>2026-04-19T07:57:00Z</time></trkpt><trkpt lat="43.860560523009426" lon="11.23369211049714"><ele>512.6666666666666</ele><time>2026-04-19T07:57:01Z</time></trkpt><trkpt lat="43.86035077673293" lon="11.23364208651969"><ele>513.0</ele><time>2026-04-19T07:57:02Z</time></trkpt><trkpt lat="43.860131552637576" lon="11.233607046549743"><ele>516.0</ele><time>2026-04-19T07:57:03Z</time></trkpt><trkpt lat="43.85990147662513" lon="11.2336034291201"><ele>519.0</ele><time>2026-04-19T07:57:04Z</time></trkpt><trkpt lat="43.85968665346932" lon="11.233573609297602"><ele>522.0</ele><time>2026-04-19T07:57:05Z</time></trkpt><trkpt lat="43.859468662266266" lon="11.23354977486153"><ele>524.0</ele><time>2026-04-19T07:57:06Z</time></trkpt><trkpt lat="43.85924668414163" lon="11.233531348884064"><ele>526.0</ele><time>2026-04-19T07:57:07Z</time></trkpt><trkpt lat="43.859040462780975" lon="11.233533199234772"><ele>528.0</ele><time>2026-04-19T07:57:08Z</time></trkpt><trkpt lat="43.85884921485012" lon="11.233535425262534"><ele>528.0</ele><time>2026-04-19T07:57:09Z</time></trkpt><trkpt lat="43.85867949832013" lon="11.233673724681125"><ele>528.0</ele><time>2026-04-19T07:57:10Z</time></trkpt><trkpt lat="43.858510441473484" lon="11.233816715273173"><ele>528.0</ele><time>2026-04-19T07:57:11Z</time></trkpt><trkpt lat="43.858339653704036" lon="11.23400400960875"><ele>532.6666666666666</ele><time>2026-04-19T07:57:12Z</time></trkpt><trkpt lat="43.85816846727041" lon="11.234201890426124"><ele>537.3333333333333</ele><time>2026-04-19T07:57:13Z</time></trkpt><trkpt lat="43.857998296922055" lon="11.234392785195991"><ele>542.0</ele><time>2026-04-19T07:57:14Z</time></trkpt><trkpt lat="43.85783349757893" lon="11.2345788783884"><ele>542.0</ele><time>2026-04-19T07:57:15Z</time></trkpt><trkpt lat="43.85765537174718" lon="11.234743287977391"><ele>542.0</ele><time>2026-04-19T07:57:16Z</time></trkpt><trkpt lat="43.85747003536107" lon="11.234895853688302"><ele>542.0</ele><time>2026-04-19T07:57:17Z</time></trkpt><trkpt lat="43.8572610437246" lon="11.235017792253128"><ele>542.5</ele><time>2026-04-19T07:57:18Z</time></trkpt><trkpt lat="43.857052369092585" lon="11.23515233286597"><ele>543.0</ele><time>2026-04-19T07:57:19Z</time></trkpt><trkpt lat="43.85683447349464" lon="11.235263084788288"><ele>535.5</ele><time>2026-04-19T07:57:20Z</time></trkpt><trkpt lat="43.85662051279512" lon="11.235383834559672"><ele>528.0</ele><time>2026-04-19T07:57:21Z</time></trkpt><trkpt lat="43.85641469521999" lon="11.235500776870445"><ele>528.0</ele><time>2026-04-19T07:57:22Z</time></trkpt><trkpt lat="43.85620247024304" lon="11.235586184251206"><ele>528.0</ele><time>2026-04-19T07:57:23Z</time></trkpt><trkpt lat="43.85598900412786" lon="11.235676089251395"><ele>528.0</ele><time>2026-04-19T07:57:24Z</time></trkpt><trkpt lat="43.855768915856466" lon="11.2357603210954"><ele>533.3333333333334</ele><time>2026-04-19T07:57:25Z</time></trkpt><trkpt lat="43.85554120004927" lon="11.235803347106627"><ele>538.6666666666667</ele><time>2026-04-19T07:57:26Z</time></trkpt><trkpt lat="43.85532323715941" lon="11.23582888510485"><ele>544.0</ele><time>2026-04-19T07:57:27Z</time></trkpt><trkpt lat="43.855100808625444" lon="11.235882783788576"><ele>544.0</ele><time>2026-04-19T07:57:28Z</time></trkpt><trkpt lat="43.85490369359968" lon="11.235917283150046"><ele>544.0</ele><time>2026-04-19T07:57:29Z</time></trkpt><trkpt lat="43.85472378602622" lon="11.235930584671102"><ele>544.0</ele><time>2026-04-19T07:57:30Z</time></trkpt><trkpt lat="43.854539132313256" lon="11.235888632580386"><ele>544.0</ele><time>2026-04-19T07:57:31Z</time></trkpt><trkpt lat="43.85437487765863" lon="11.23579521221481"><ele>544.0</ele><time>2026-04-19T07:57:32Z</time></trkpt><trkpt lat="43.854228002130114" lon="11.235714980330721"><ele>544.0</ele><time>2026-04-19T07:57:33Z</time></trkpt><trkpt lat="43.85406275023806" lon="11.23571095720471"><ele>544.6666666666667</ele><time>2026-04-19T07:57:34Z</time></trkpt><trkpt lat="43.85386660511503" lon="11.235762372128397"><ele>545.3333333333334</ele><time>2026-04-19T07:57:35Z</time></trkpt><trkpt lat="43.853658751066554" lon="11.235845178653076"><ele>546.0</ele><time>2026-04-19T07:57:36Z</time></trkpt><trkpt lat="43.85344046935494" lon="11.235920361708692"><ele>546.0</ele><time>2026-04-19T07:57:37Z</time></trkpt><trkpt lat="43.85322638999047" lon="11.235988659312767"><ele>546.0</ele><time>2026-04-19T07:57:38Z</time></trkpt><trkpt lat="43.85301968771378" lon="11.236047602317067"><ele>546.0</ele><time>2026-04-19T07:57:39Z</time></trkpt><trkpt lat="43.85281709019851" lon="11.236113758591117"><ele>546.0</ele><time>2026-04-19T07:57:40Z</time></trkpt><trkpt lat="43.852626377051976" lon="11.23619406331535"><ele>546.0</ele><time>2026-04-19T07:57:41Z</time></trkpt><trkpt lat="43.85244019722022" lon="11.236302311633876"><ele>546.0</ele><time>2026-04-19T07:57:42Z</time></trkpt><trkpt lat="43.85226207935677" lon="11.236441042776123"><ele>554.3333333333334</ele><time>2026-04-19T07:57:43Z</time></trkpt><trkpt lat="43.85210037388085" lon="11.236578921073892"><ele>562.6666666666667</ele><time>2026-04-19T07:57:44Z</time></trkpt><trkpt lat="43.85197390469131" lon="11.236738622905268"><ele>571.0</ele><time>2026-04-19T07:57:45Z</time></trkpt><trkpt lat="43.85185622605485" lon="11.236867139723294"><ele>568.75</ele><time>2026-04-19T07:57:46Z</time></trkpt><trkpt lat="43.85174388474449" lon="11.236965985907254"><ele>566.5</ele><time>2026-04-19T07:57:47Z</time></trkpt><trkpt lat="43.85163536372768" lon="11.237049757648245"><ele>564.25</ele><time>2026-04-19T07:57:48Z</time></trkpt><trkpt lat="43.85152268520779" lon="11.237092184389953"><ele>562.0</ele><time>2026-04-19T07:57:49Z</time></trkpt><trkpt lat="43.85141417950233" lon="11.237021082423919"><ele>562.0</ele><time>2026-04-19T07:57:50Z</time></trkpt><trkpt lat="43.85129614907343" lon="11.236932049693817"><ele>562.0</ele><time>2026-04-19T07:57:51Z</time></trkpt><trkpt lat="43.851196875151075" lon="11.236735709170315"><ele>562.0</ele><time>2026-04-19T07:57:52Z</time></trkpt><trkpt lat="43.85111859353546" lon="11.236514353682153"><ele>557.6666666666667</ele><time>2026-04-19T07:57:53Z</time></trkpt><trkpt lat="43.851081053582355" lon="11.23624946812352"><ele>553.3333333333334</ele><time>2026-04-19T07:57:54Z</time></trkpt><trkpt lat="43.85101460266185" lon="11.23597527690116"><ele>549.0</ele><time>2026-04-19T07:57:55Z</time></trkpt><trkpt lat="43.85096785769591" lon="11.23569740011238"><ele>557.6666666666666</ele><time>2026-04-19T07:57:56Z</time></trkpt><trkpt lat="43.85091913857404" lon="11.235432232392474"><ele>566.3333333333333</ele><time>2026-04-19T07:57:57Z</time></trkpt><trkpt lat="43.85086688250955" lon="11.23516137979983"><ele>575.0</ele><time>2026-04-19T07:57:58Z</time></trkpt><trkpt lat="43.850809892111876" lon="11.234885882596924"><ele>572.6666666666666</ele><time>2026-04-19T07:57:59Z</time></trkpt><trkpt lat="43.85075281649148" lon="11.234612145509708"><ele>570.3333333333334</ele><time>2026-04-19T07:58:00Z</time></trkpt><trkpt lat="43.85069885471923" lon="11.23433191268603"><ele>568.0</ele><time>2026-04-19T07:58:01Z</time></trkpt><trkpt lat="43.850645947516874" lon="11.234056295596421"><ele>564.3333333333334</ele><time>2026-04-19T07:58:02Z</time></trkpt><trkpt lat="43.85058184124243" lon="11.233784417416123"><ele>560.6666666666666</ele><time>2026-04-19T07:58:03Z</time></trkpt><trkpt lat="43.85052980361545" lon="11.233512914784422"><ele>557.0</ele><time>2026-04-19T07:58:04Z</time></trkpt><trkpt lat="43.850471727401604" lon="11.23324268968801"><ele>554.6666666666666</ele><time>2026-04-19T07:58:05Z</time></trkpt><trkpt lat="43.850303636687556" lon="11.233022783992373"><ele>552.3333333333334</ele><time>2026-04-19T07:58:06Z</time></trkpt><trkpt lat="43.85018748833861" lon="11.232780946705603"><ele>550.0</ele><time>2026-04-19T07:58:07Z</time></trkpt><trkpt lat="43.85006380284736" lon="11.232545130665994"><ele>556.6666666666667</ele><time>2026-04-19T07:58:08Z</time></trkpt><trkpt lat="43.84992981987464" lon="11.232314531992117"><ele>563.3333333333334</ele><time>2026-04-19T07:58:09Z</time></trkpt><trkpt lat="43.84980127309206" lon="11.23208403073481"><ele>570.0</ele><time>2026-04-19T07:58:10Z</time></trkpt><trkpt lat="43.8496884865688" lon="11.23186105308397"><ele>570.0</ele><time>2026-04-19T07:58:11Z</time></trkpt><trkpt lat="43.84958851343012" lon="11.231650070984722"><ele>570.0</ele><time>2026-04-19T07:58:12Z</time></trkpt><trkpt lat="43.849487398139686" lon="11.231451202025344"><ele>570.0</ele><time>2026-04-19T07:58:13Z</time></trkpt><trkpt lat="43.84937231945243" lon="11.231276785891657"><ele>571.0</ele><time>2026-04-19T07:58:14Z</time></trkpt><trkpt lat="43.84923286570673" lon="11.231139830106047"><ele>572.0</ele><time>2026-04-19T07:58:15Z</time></trkpt><trkpt lat="43.84905855510276" lon="11.231066323643404"><ele>573.0</ele><time>2026-04-19T07:58:16Z</time></trkpt><trkpt lat="43.84886343491863" lon="11.231036096148555"><ele>573.0</ele><time>2026-04-19T07:58:17Z</time></trkpt><trkpt lat="43.84866310814324" lon="11.231054770062574"><ele>573.0</ele><time>2026-04-19T07:58:18Z</time></trkpt><trkpt lat="43.84848104324764" lon="11.23108229093176"><ele>573.0</ele><time>2026-04-19T07:58:19Z</time></trkpt><trkpt lat="43.848333009655555" lon="11.231117799374006"><ele>573.3333333333334</ele><time>2026-04-19T07:58:20Z</time></trkpt><trkpt lat="43.84817979699403" lon="11.231208434636232"><ele>573.6666666666667</ele><time>2026-04-19T07:58:21Z</time></trkpt><trkpt lat="43.848027998126405" lon="11.231346550754635"><ele>574.0</ele><time>2026-04-19T07:58:22Z</time></trkpt><trkpt lat="43.84791625038855" lon="11.231495771499564"><ele>579.0</ele><time>2026-04-19T07:58:23Z</time></trkpt><trkpt lat="43.84783395837484" lon="11.231657856631102"><ele>584.0</ele><time>2026-04-19T07:58:24Z</time></trkpt><trkpt lat="43.847793791461235" lon="11.231849718811175"><ele>589.0</ele><time>2026-04-19T07:58:25Z</time></trkpt><trkpt lat="43.847804339577635" lon="11.23208107068915"><ele>590.0</ele><time>2026-04-19T07:58:26Z</time></trkpt><trkpt lat="43.847860947064426" lon="11.232336183576056"><ele>591.0</ele><time>2026-04-19T07:58:27Z</time></trkpt><trkpt lat="43.84795632320375" lon="11.232586477458469"><ele>592.0</ele><time>2026-04-19T07:58:28Z</time></trkpt><trkpt lat="43.8480732749318" lon="11.232829997687462"><ele>592.0</ele><time>2026-04-19T07:58:29Z</time></trkpt><trkpt lat="43.84819495279933" lon="11.23307412778111"><ele>592.0</ele><time>2026-04-19T07:58:30Z</time></trkpt><trkpt lat="43.848317472976525" lon="11.233313984548692"><ele>592.0</ele><time>2026-04-19T07:58:31Z</time></trkpt><trkpt lat="43.84843858559778" lon="11.233569473551139"><ele>594.0</ele><time>2026-04-19T07:58:32Z</time></trkpt><trkpt lat="43.8485557021012" lon="11.233820356994004"><ele>596.0</ele><time>2026-04-19T07:58:33Z</time></trkpt><trkpt lat="43.848667268683585" lon="11.23406339399795"><ele>598.0</ele><time>2026-04-19T07:58:34Z</time></trkpt><trkpt lat="43.848774889932855" lon="11.234307340451863"><ele>598.0</ele><time>2026-04-19T07:58:35Z</time></trkpt><trkpt lat="43.84887134285759" lon="11.234555139646275"><ele>598.0</ele><time>2026-04-19T07:58:36Z</time></trkpt><trkpt lat="43.84896717550444" lon="11.234801786331127"><ele>598.0</ele><time>2026-04-19T07:58:37.001Z</time></trkpt><trkpt lat="43.849068807582924" lon="11.235048254415165"><ele>598.6666666666667</ele><time>2026-04-19T07:58:38.001Z</time></trkpt><trkpt lat="43.849169296946734" lon="11.235290055885057"><ele>599.3333333333334</ele><time>2026-04-19T07:58:39.001Z</time></trkpt><trkpt lat="43.84926907405921" lon="11.23553702489483"><ele>600.0</ele><time>2026-04-19T07:58:40.001Z</time></trkpt><trkpt lat="43.84937117469673" lon="11.235777174141173"><ele>600.0</ele><time>2026-04-19T07:58:41.001Z</time></trkpt><trkpt lat="43.84947188644819" lon="11.236016917930517"><ele>600.0</ele><time>2026-04-19T07:58:42.001Z</time></trkpt><trkpt lat="43.84956246495874" lon="11.236266689325857"><ele>600.0</ele><time>2026-04-19T07:58:43.001Z</time></trkpt><trkpt lat="43.84964789085731" lon="11.236491861508306"><ele>597.6666666666666</ele><time>2026-04-19T07:58:44.001Z</time></trkpt><trkpt lat="43.84973432258143" lon="11.236703399769132"><ele>595.3333333333333</ele><time>2026-04-19T07:58:45.001Z</time></trkpt><trkpt lat="43.849823466628685" lon="11.236915464218912"><ele>593.0</ele><time>2026-04-19T07:58:46.001Z</time></trkpt><trkpt lat="43.84991639902655" lon="11.23711527768547"><ele>593.0</ele><time>2026-04-19T07:58:47.001Z</time></trkpt><trkpt lat="43.850028014961914" lon="11.237291124247111"><ele>593.0</ele><time>2026-04-19T07:58:48.001Z</time></trkpt><trkpt lat="43.85017164820463" lon="11.237453904810378"><ele>593.0</ele><time>2026-04-19T07:58:49.001Z</time></trkpt><trkpt lat="43.85033501603176" lon="11.237584557181087"><ele>591.6666666666666</ele><time>2026-04-19T07:58:50.001Z</time></trkpt><trkpt lat="43.850508924928015" lon="11.237696359034627"><ele>590.3333333333334</ele><time>2026-04-19T07:58:51.001Z</time></trkpt><trkpt lat="43.850669005847614" lon="11.237794980531907"><ele>589.0</ele><time>2026-04-19T07:58:52.001Z</time></trkpt><trkpt lat="43.8508084630901" lon="11.23789908471411"><ele>589.0</ele><time>2026-04-19T07:58:53.001Z</time></trkpt><trkpt lat="43.85092896002589" lon="11.238029788717967"><ele>589.0</ele><time>2026-04-19T07:58:54.001Z</time></trkpt><trkpt lat="43.85102962371438" lon="11.238204353022429"><ele>589.0</ele><time>2026-04-19T07:58:55.001Z</time></trkpt><trkpt lat="43.85109164915354" lon="11.238410871273361"><ele>590.3333333333334</ele><time>2026-04-19T07:58:56.001Z</time></trkpt><trkpt lat="43.85110042485518" lon="11.238641894701889"><ele>591.6666666666666</ele><time>2026-04-19T07:58:57.001Z</time></trkpt><trkpt lat="43.85106737953305" lon="11.238902382967485"><ele>593.0</ele><time>2026-04-19T07:58:58.001Z</time></trkpt><trkpt lat="43.851010560216146" lon="11.239167988965328"><ele>592.6666666666666</ele><time>2026-04-19T07:58:59.001Z</time></trkpt><trkpt lat="43.85095399165982" lon="11.239425216808764"><ele>592.3333333333334</ele><time>2026-04-19T07:59:00.001Z</time></trkpt><trkpt lat="43.85090044967498" lon="11.239672607216315"><ele>592.0</ele><time>2026-04-19T07:59:01.001Z</time></trkpt><trkpt lat="43.85084990307518" lon="11.239919691187286"><ele>594.0</ele><time>2026-04-19T07:59:02.001Z</time></trkpt><trkpt lat="43.85081331865033" lon="11.240166389411703"><ele>596.0</ele><time>2026-04-19T07:59:03.001Z</time></trkpt><trkpt lat="43.850788107842256" lon="11.240414584604322"><ele>598.0</ele><time>2026-04-19T07:59:04Z</time></trkpt><trkpt lat="43.850796507180476" lon="11.240678447942766"><ele>599.0</ele><time>2026-04-19T07:59:05Z</time></trkpt><trkpt lat="43.850829710347824" lon="11.240950755097723"><ele>600.0</ele><time>2026-04-19T07:59:06Z</time></trkpt><trkpt lat="43.85086387363264" lon="11.24123061461082"><ele>601.0</ele><time>2026-04-19T07:59:07Z</time></trkpt><trkpt lat="43.850853963208706" lon="11.241503749017877"><ele>602.0</ele><time>2026-04-19T07:59:08Z</time></trkpt><trkpt lat="43.85084150189325" lon="11.241785833170846"><ele>603.0</ele><time>2026-04-19T07:59:09Z</time></trkpt><trkpt lat="43.850798161559524" lon="11.242071338209236"><ele>604.0</ele><time>2026-04-19T07:59:10Z</time></trkpt><trkpt lat="43.85076520846093" lon="11.24236168509541"><ele>606.6666666666667</ele><time>2026-04-19T07:59:11Z</time></trkpt><trkpt lat="43.85073378463897" lon="11.24264205337764"><ele>609.3333333333334</ele><time>2026-04-19T07:59:12Z</time></trkpt><trkpt lat="43.8507035507164" lon="11.242903847432382"><ele>612.0</ele><time>2026-04-19T07:59:13Z</time></trkpt><trkpt lat="43.85067520814947" lon="11.243164634119118"><ele>613.3333333333334</ele><time>2026-04-19T07:59:14Z</time></trkpt><trkpt lat="43.850647144267626" lon="11.243405237168691"><ele>614.6666666666667</ele><time>2026-04-19T07:59:15Z</time></trkpt><trkpt lat="43.85061622504422" lon="11.243635878363426"><ele>616.0</ele><time>2026-04-19T07:59:16Z</time></trkpt><trkpt lat="43.85057578008078" lon="11.24386436514884"><ele>617.3333333333334</ele><time>2026-04-19T07:59:17Z</time></trkpt><trkpt lat="43.85052633518485" lon="11.244083394621647"><ele>618.6666666666666</ele><time>2026-04-19T07:59:18Z</time></trkpt><trkpt lat="43.850478928562744" lon="11.244296333377768"><ele>620.0</ele><time>2026-04-19T07:59:19Z</time></trkpt><trkpt lat="43.85044230731685" lon="11.2445001040259"><ele>620.0</ele><time>2026-04-19T07:59:20Z</time></trkpt><trkpt lat="43.85040361672543" lon="11.244689640426676"><ele>620.0</ele><time>2026-04-19T07:59:21Z</time></trkpt><trkpt lat="43.850427180837485" lon="11.24488399907059"><ele>620.0</ele><time>2026-04-19T07:59:22Z</time></trkpt><trkpt lat="43.85039038215707" lon="11.245064988914997"><ele>620.0</ele><time>2026-04-19T07:59:23Z</time></trkpt><trkpt lat="43.85033962869611" lon="11.245247274495977"><ele>622.3333333333333</ele><time>2026-04-19T07:59:24Z</time></trkpt><trkpt lat="43.85023699746642" lon="11.245404012618517"><ele>624.6666666666666</ele><time>2026-04-19T07:59:25Z</time></trkpt><trkpt lat="43.850185442358544" lon="11.245597191348972"><ele>627.0</ele><time>2026-04-19T07:59:26Z</time></trkpt><trkpt lat="43.850125781946346" lon="11.245806904805383"><ele>620.3333333333334</ele><time>2026-04-19T07:59:27Z</time></trkpt><trkpt lat="43.850037849761584" lon="11.246010448583922"><ele>613.6666666666667</ele><time>2026-04-19T07:59:28Z</time></trkpt><trkpt lat="43.84991106742204" lon="11.246182306471546"><ele>607.0</ele><time>2026-04-19T07:59:29Z</time></trkpt><trkpt lat="43.84976840917508" lon="11.246343905502389"><ele>612.6666666666667</ele><time>2026-04-19T07:59:30Z</time></trkpt><trkpt lat="43.84963753583746" lon="11.246530737378711"><ele>618.3333333333334</ele><time>2026-04-19T07:59:31Z</time></trkpt><trkpt lat="43.84951242427745" lon="11.246683867380797"><ele>624.0</ele><time>2026-04-19T07:59:32Z</time></trkpt><trkpt lat="43.849394591088405" lon="11.246817909252794"><ele>618.3333333333334</ele><time>2026-04-19T07:59:33Z</time></trkpt><trkpt lat="43.84925383139812" lon="11.246885562056166"><ele>612.6666666666667</ele><time>2026-04-19T07:59:34Z</time></trkpt><trkpt lat="43.84908240406837" lon="11.246910327917352"><ele>607.0</ele><time>2026-04-19T07:59:35Z</time></trkpt><trkpt lat="43.84888135021583" lon="11.246914217547117"><ele>607.0</ele><time>2026-04-19T07:59:36Z</time></trkpt><trkpt lat="43.84869645185677" lon="11.246845579987408"><ele>607.0</ele><time>2026-04-19T07:59:37Z</time></trkpt><trkpt lat="43.848525043184814" lon="11.246788587999434"><ele>607.0</ele><time>2026-04-19T07:59:38Z</time></trkpt><trkpt lat="43.84835443188971" lon="11.24674635881159"><ele>605.6666666666667</ele><time>2026-04-19T07:59:39Z</time></trkpt><trkpt lat="43.848188726463924" lon="11.246742717847336"><ele>604.3333333333334</ele><time>2026-04-19T07:59:40Z</time></trkpt><trkpt lat="43.8480254640347" lon="11.246816759233889"><ele>603.0</ele><time>2026-04-19T07:59:41Z</time></trkpt><trkpt lat="43.84788100358551" lon="11.246941373091026"><ele>603.0</ele><time>2026-04-19T07:59:42Z</time></trkpt><trkpt lat="43.84773526274602" lon="11.247065383781672"><ele>603.0</ele><time>2026-04-19T07:59:43Z</time></trkpt><trkpt lat="43.84756369995559" lon="11.247092177273679"><ele>603.0</ele><time>2026-04-19T07:59:44Z</time></trkpt><trkpt lat="43.84738250689825" lon="11.247075997997921"><ele>601.6666666666666</ele><time>2026-04-19T07:59:45Z</time></trkpt><trkpt lat="43.84721594188479" lon="11.246970658093142"><ele>600.3333333333333</ele><time>2026-04-19T07:59:46Z</time></trkpt><trkpt lat="43.847021901129786" lon="11.246876436613027"><ele>599.0</ele><time>2026-04-19T07:59:47Z</time></trkpt><trkpt lat="43.846841547631726" lon="11.246741455391513"><ele>602.6666666666666</ele><time>2026-04-19T07:59:48Z</time></trkpt><trkpt lat="43.84665656211849" lon="11.246612090938438"><ele>606.3333333333334</ele><time>2026-04-19T07:59:49Z</time></trkpt><trkpt lat="43.846488137246546" lon="11.246458236030483"><ele>610.0</ele><time>2026-04-19T07:59:50Z</time></trkpt><trkpt lat="43.846342183603795" lon="11.246286748266634"><ele>603.3333333333334</ele><time>2026-04-19T07:59:51Z</time></trkpt><trkpt lat="43.846203389095606" lon="11.246129182715677"><ele>596.6666666666666</ele><time>2026-04-19T07:59:52Z</time></trkpt><trkpt lat="43.846047347373045" lon="11.246016369262973"><ele>590.0</ele><time>2026-04-19T07:59:53Z</time></trkpt><trkpt lat="43.84586350124474" lon="11.245974899403626"><ele>590.0</ele><time>2026-04-19T07:59:54Z</time></trkpt><trkpt lat="43.845662164802064" lon="11.245993227033816"><ele>590.0</ele><time>2026-04-19T07:59:55Z</time></trkpt><trkpt lat="43.84545061441782" lon="11.246060066378"><ele>590.0</ele><time>2026-04-19T07:59:56Z</time></trkpt><trkpt lat="43.84523272055016" lon="11.24616507094508"><ele>590.6666666666666</ele><time>2026-04-19T07:59:57Z</time></trkpt><trkpt lat="43.84504237019333" lon="11.246228311778996"><ele>591.3333333333334</ele><time>2026-04-19T07:59:58Z</time></trkpt><trkpt lat="43.844848811478" lon="11.246262978262424"><ele>592.0</ele><time>2026-04-19T07:59:59Z</time></trkpt><trkpt lat="43.84464120065604" lon="11.246263462252786"><ele>592.0</ele><time>2026-04-19T08:00:00Z</time></trkpt><trkpt lat="43.8444346079833" lon="11.246254376839797"><ele>592.0</ele><time>2026-04-19T08:00:01Z</time></trkpt><trkpt lat="43.84422015239497" lon="11.2462361757251"><ele>592.0</ele><time>2026-04-19T08:00:02Z</time></trkpt><trkpt lat="43.844015840933096" lon="11.246226058730397"><ele>590.3333333333334</ele><time>2026-04-19T08:00:03Z</time></trkpt><trkpt lat="43.8438260892234" lon="11.246220856037386"><ele>588.6666666666666</ele><time>2026-04-19T08:00:04Z</time></trkpt><trkpt lat="43.84365282312161" lon="11.24621652797607"><ele>587.0</ele><time>2026-04-19T08:00:05Z</time></trkpt><trkpt lat="43.84348528583569" lon="11.246205301765826"><ele>586.25</ele><time>2026-04-19T08:00:06Z</time></trkpt><trkpt lat="43.84333166420833" lon="11.246189370535847"><ele>585.5</ele><time>2026-04-19T08:00:07Z</time></trkpt><trkpt lat="43.84318645588982" lon="11.246180503270637"><ele>584.75</ele><time>2026-04-19T08:00:08Z</time></trkpt><trkpt lat="43.843051928002524" lon="11.246205066377723"><ele>584.0</ele><time>2026-04-19T08:00:09Z</time></trkpt><trkpt lat="43.842920645658204" lon="11.246263475287257"><ele>584.0</ele><time>2026-04-19T08:00:10Z</time></trkpt><trkpt lat="43.8427999397797" lon="11.24636507666869"><ele>584.0</ele><time>2026-04-19T08:00:11Z</time></trkpt><trkpt lat="43.8426788294369" lon="11.246504699888584"><ele>584.0</ele><time>2026-04-19T08:00:12Z</time></trkpt><trkpt lat="43.84256016776733" lon="11.24665301907847"><ele>586.0</ele><time>2026-04-19T08:00:13Z</time></trkpt><trkpt lat="43.84244032808172" lon="11.246787822557403"><ele>588.0</ele><time>2026-04-19T08:00:14Z</time></trkpt><trkpt lat="43.84234268377258" lon="11.246906055705121"><ele>590.0</ele><time>2026-04-19T08:00:15Z</time></trkpt><trkpt lat="43.84245093520971" lon="11.247315163372063"><ele>593.0</ele><time>2026-04-19T08:00:16Z</time></trkpt><trkpt lat="43.84246924207234" lon="11.247519591326666"><ele>596.0</ele><time>2026-04-19T08:00:17Z</time></trkpt><trkpt lat="43.84253434575249" lon="11.247746361563326"><ele>599.0</ele><time>2026-04-19T08:00:18Z</time></trkpt><trkpt lat="43.842582012082964" lon="11.247954766863366"><ele>607.3333333333333</ele><time>2026-04-19T08:00:19Z</time></trkpt><trkpt lat="43.84264031056344" lon="11.248150151082958"><ele>615.6666666666666</ele><time>2026-04-19T08:00:20Z</time></trkpt><trkpt lat="43.842726416540366" lon="11.248342213272764"><ele>624.0</ele><time>2026-04-19T08:00:21Z</time></trkpt><trkpt lat="43.84281508908489" lon="11.248540481778782"><ele>624.0</ele><time>2026-04-19T08:00:22Z</time></trkpt><trkpt lat="43.8429139415804" lon="11.248739231271614"><ele>624.0</ele><time>2026-04-19T08:00:23Z</time></trkpt><trkpt lat="43.84302476805839" lon="11.248928994747416"><ele>624.0</ele><time>2026-04-19T08:00:24Z</time></trkpt><trkpt lat="43.843134514150925" lon="11.24911223625242"><ele>619.3333333333334</ele><time>2026-04-19T08:00:25Z</time></trkpt><trkpt lat="43.84325167038154" lon="11.249289911021345"><ele>614.6666666666667</ele><time>2026-04-19T08:00:26Z</time></trkpt><trkpt lat="43.84336978796104" lon="11.249462033234469"><ele>610.0</ele><time>2026-04-19T08:00:27Z</time></trkpt><trkpt lat="43.84348362579657" lon="11.24961778390335"><ele>611.0</ele><time>2026-04-19T08:00:28Z</time></trkpt><trkpt lat="43.84359673360002" lon="11.249760960994818"><ele>612.0</ele><time>2026-04-19T08:00:29Z</time></trkpt><trkpt lat="43.84371929014738" lon="11.249909052750548"><ele>613.0</ele><time>2026-04-19T08:00:30Z</time></trkpt><trkpt lat="43.8438389280389" lon="11.250045876951823"><ele>613.0</ele><time>2026-04-19T08:00:31Z</time></trkpt><trkpt lat="43.843954388322985" lon="11.25016364542789"><ele>613.0</ele><time>2026-04-19T08:00:32Z</time></trkpt><trkpt lat="43.84407294344843" lon="11.2502641775932"><ele>613.0</ele><time>2026-04-19T08:00:33Z</time></trkpt><trkpt lat="43.844184620530136" lon="11.250356978470863"><ele>613.0</ele><time>2026-04-19T08:00:34Z</time></trkpt><trkpt lat="43.84429566757033" lon="11.250442064473939"><ele>614.25</ele><time>2026-04-19T08:00:35Z</time></trkpt><trkpt lat="43.84440842267984" lon="11.250499333234947"><ele>615.5</ele><time>2026-04-19T08:00:36Z</time></trkpt><trkpt lat="43.84453918670062" lon="11.25050240315486"><ele>616.75</ele><time>2026-04-19T08:00:37.001Z</time></trkpt><trkpt lat="43.844674595125575" lon="11.250451555738735"><ele>618.0</ele><time>2026-04-19T08:00:38.001Z</time></trkpt><trkpt lat="43.84480412102402" lon="11.250346266621554"><ele>618.0</ele><time>2026-04-19T08:00:39.001Z</time></trkpt><trkpt lat="43.84491561405208" lon="11.250221244003521"><ele>618.0</ele><time>2026-04-19T08:00:40.001Z</time></trkpt><trkpt lat="43.845018162299915" lon="11.250111143398371"><ele>618.0</ele><time>2026-04-19T08:00:41.001Z</time></trkpt><trkpt lat="43.845145525555296" lon="11.250073517392178"><ele>618.0</ele><time>2026-04-19T08:00:42.001Z</time></trkpt><trkpt lat="43.845299147423866" lon="11.25009394333667"><ele>618.6666666666666</ele><time>2026-04-19T08:00:43.001Z</time></trkpt><trkpt lat="43.84546021962566" lon="11.250122060542838"><ele>619.3333333333333</ele><time>2026-04-19T08:00:44.001Z</time></trkpt><trkpt lat="43.84563176205242" lon="11.250167257926243"><ele>620.0</ele><time>2026-04-19T08:00:45.001Z</time></trkpt><trkpt lat="43.845767199475425" lon="11.250245505921695"><ele>620.0</ele><time>2026-04-19T08:00:46.001Z</time></trkpt><trkpt lat="43.845895598480276" lon="11.250357390390919"><ele>620.0</ele><time>2026-04-19T08:00:47.001Z</time></trkpt><trkpt lat="43.84600440874878" lon="11.250478977682185"><ele>620.0</ele><time>2026-04-19T08:00:48.001Z</time></trkpt><trkpt lat="43.84611359880454" lon="11.250652472525633"><ele>618.3333333333333</ele><time>2026-04-19T08:00:49.001Z</time></trkpt><trkpt lat="43.84620428687901" lon="11.250824437758807"><ele>616.6666666666666</ele><time>2026-04-19T08:00:50.001Z</time></trkpt><trkpt lat="43.84629987850746" lon="11.251000569304464"><ele>615.0</ele><time>2026-04-19T08:00:51.001Z</time></trkpt><trkpt lat="43.8464055176305" lon="11.251130776335815"><ele>615.0</ele><time>2026-04-19T08:00:52.001Z</time></trkpt><trkpt lat="43.846513380116065" lon="11.251253513817028"><ele>615.0</ele><time>2026-04-19T08:00:53.001Z</time></trkpt><trkpt lat="43.8466056692517" lon="11.251386410700308"><ele>615.0</ele><time>2026-04-19T08:00:54.001Z</time></trkpt><trkpt lat="43.846674924191554" lon="11.251540835816437"><ele>615.0</ele><time>2026-04-19T08:00:55.001Z</time></trkpt><trkpt lat="43.84670924176248" lon="11.251704539117798"><ele>614.25</ele><time>2026-04-19T08:00:56.001Z</time></trkpt><trkpt lat="43.84672045235089" lon="11.251871951022299"><ele>613.5</ele><time>2026-04-19T08:00:57.001Z</time></trkpt><trkpt lat="43.84673667303355" lon="11.252066435271285"><ele>612.75</ele><time>2026-04-19T08:00:58.001Z</time></trkpt><trkpt lat="43.84681462437143" lon="11.252286707228919"><ele>612.0</ele><time>2026-04-19T08:00:59.001Z</time></trkpt><trkpt lat="43.84693560434889" lon="11.252500554646936"><ele>612.0</ele><time>2026-04-19T08:01:00Z</time></trkpt><trkpt lat="43.847062338622415" lon="11.252676362194666"><ele>612.0</ele><time>2026-04-19T08:01:01Z</time></trkpt><trkpt lat="43.84719998519922" lon="11.252863487418256"><ele>612.0</ele><time>2026-04-19T08:01:02Z</time></trkpt><trkpt lat="43.84728571703827" lon="11.252979086970942"><ele>612.0</ele><time>2026-04-19T08:01:04Z</time></trkpt><trkpt lat="43.84738735349271" lon="11.253118519981214"><ele>612.0</ele><time>2026-04-19T08:01:05Z</time></trkpt><trkpt lat="43.84748612875561" lon="11.253255342297374"><ele>612.0</ele><time>2026-04-19T08:01:06Z</time></trkpt><trkpt lat="43.84758283727277" lon="11.253368458719068"><ele>612.0</ele><time>2026-04-19T08:01:07Z</time></trkpt><trkpt lat="43.847692179719495" lon="11.253467229081172"><ele>610.0</ele><time>2026-04-19T08:01:08Z</time></trkpt><trkpt lat="43.8478186185435" lon="11.253549363656463"><ele>608.0</ele><time>2026-04-19T08:01:09Z</time></trkpt><trkpt lat="43.84796895790771" lon="11.253594423373904"><ele>606.0</ele><time>2026-04-19T08:01:10Z</time></trkpt><trkpt lat="43.848135135162735" lon="11.253601708010512"><ele>606.0</ele><time>2026-04-19T08:01:11Z</time></trkpt><trkpt lat="43.84829850569026" lon="11.253612798795649"><ele>606.0</ele><time>2026-04-19T08:01:12Z</time></trkpt><trkpt lat="43.84844714689987" lon="11.25361075462451"><ele>606.0</ele><time>2026-04-19T08:01:13Z</time></trkpt><trkpt lat="43.84858575463301" lon="11.253615305190301"><ele>607.0</ele><time>2026-04-19T08:01:14Z</time></trkpt><trkpt lat="43.84871884075797" lon="11.253623747661296"><ele>608.0</ele><time>2026-04-19T08:01:15Z</time></trkpt><trkpt lat="43.84884689793813" lon="11.253634450231539"><ele>609.0</ele><time>2026-04-19T08:01:16Z</time></trkpt><trkpt lat="43.84897967441559" lon="11.253649821074902"><ele>610.0</ele><time>2026-04-19T08:01:17Z</time></trkpt><trkpt lat="43.84912535861188" lon="11.253644795957882"><ele>610.0</ele><time>2026-04-19T08:01:18Z</time></trkpt><trkpt lat="43.84927830292053" lon="11.253601659579138"><ele>610.0</ele><time>2026-04-19T08:01:19Z</time></trkpt><trkpt lat="43.84942654292781" lon="11.253545507875607"><ele>610.0</ele><time>2026-04-19T08:01:20Z</time></trkpt><trkpt lat="43.8495632853661" lon="11.253504389615534"><ele>609.5</ele><time>2026-04-19T08:01:21Z</time></trkpt><trkpt lat="43.84969554141453" lon="11.253489216196725"><ele>609.0</ele><time>2026-04-19T08:01:22Z</time></trkpt><trkpt lat="43.849836661730556" lon="11.253486950945057"><ele>608.5</ele><time>2026-04-19T08:01:23Z</time></trkpt><trkpt lat="43.8499835250299" lon="11.253521121249053"><ele>608.0</ele><time>2026-04-19T08:01:24Z</time></trkpt><trkpt lat="43.85013851434807" lon="11.253542379247166"><ele>607.3333333333333</ele><time>2026-04-19T08:01:25Z</time></trkpt><trkpt lat="43.85028839197072" lon="11.253593048182152"><ele>606.6666666666666</ele><time>2026-04-19T08:01:26Z</time></trkpt><trkpt lat="43.850435830501766" lon="11.253724397664055"><ele>606.0</ele><time>2026-04-19T08:01:27Z</time></trkpt><trkpt lat="43.850607889283125" lon="11.25384796728902"><ele>599.6666666666666</ele><time>2026-04-19T08:01:28Z</time></trkpt><trkpt lat="43.85077684386505" lon="11.253998222608073"><ele>593.3333333333333</ele><time>2026-04-19T08:01:29Z</time></trkpt><trkpt lat="43.85094793825634" lon="11.254129691657154"><ele>587.0</ele><time>2026-04-19T08:01:30Z</time></trkpt><trkpt lat="43.851125216708496" lon="11.254222331559149"><ele>587.0</ele><time>2026-04-19T08:01:31Z</time></trkpt><trkpt lat="43.85131897337738" lon="11.254296335638022"><ele>587.0</ele><time>2026-04-19T08:01:32Z</time></trkpt><trkpt lat="43.8515071930958" lon="11.254383559884054"><ele>587.0</ele><time>2026-04-19T08:01:33Z</time></trkpt><trkpt lat="43.85166696121705" lon="11.254515960532013"><ele>587.0</ele><time>2026-04-19T08:01:34Z</time></trkpt><trkpt lat="43.85182211304404" lon="11.25463852110692"><ele>587.0</ele><time>2026-04-19T08:01:35Z</time></trkpt><trkpt lat="43.85197724426332" lon="11.254743976791238"><ele>587.0</ele><time>2026-04-19T08:01:36Z</time></trkpt><trkpt lat="43.85212717609007" lon="11.254873147284293"><ele>587.0</ele><time>2026-04-19T08:01:37Z</time></trkpt><trkpt lat="43.85229074852975" lon="11.255003568533517"><ele>587.0</ele><time>2026-04-19T08:01:38Z</time></trkpt><trkpt lat="43.852449568888325" lon="11.255129543038743"><ele>587.0</ele><time>2026-04-19T08:01:39Z</time></trkpt><trkpt lat="43.85261712555895" lon="11.255247995955887"><ele>598.6666666666666</ele><time>2026-04-19T08:01:40Z</time></trkpt><trkpt lat="43.85277170953411" lon="11.25538821823185"><ele>610.3333333333334</ele><time>2026-04-19T08:01:41Z</time></trkpt><trkpt lat="43.85292289372825" lon="11.255502831427608"><ele>622.0</ele><time>2026-04-19T08:01:42Z</time></trkpt><trkpt lat="43.85307371619095" lon="11.255596245741044"><ele>617.3333333333334</ele><time>2026-04-19T08:01:43Z</time></trkpt><trkpt lat="43.853204998141045" lon="11.255727575575571"><ele>612.6666666666666</ele><time>2026-04-19T08:01:44Z</time></trkpt><trkpt lat="43.853355385322345" lon="11.255820404278351"><ele>608.0</ele><time>2026-04-19T08:01:45Z</time></trkpt><trkpt lat="43.85348790581483" lon="11.255957765693545"><ele>608.0</ele><time>2026-04-19T08:01:46Z</time></trkpt><trkpt lat="43.853607398613036" lon="11.25608210901291"><ele>608.0</ele><time>2026-04-19T08:01:47Z</time></trkpt><trkpt lat="43.853725442777865" lon="11.256186251004836"><ele>608.0</ele><time>2026-04-19T08:01:48Z</time></trkpt><trkpt lat="43.853821055478846" lon="11.25630071123462"><ele>608.0</ele><time>2026-04-19T08:01:49Z</time></trkpt><trkpt lat="43.85391922821508" lon="11.256381271191898"><ele>608.0</ele><time>2026-04-19T08:01:50Z</time></trkpt><trkpt lat="43.85404817867562" lon="11.256382234340782"><ele>608.0</ele><time>2026-04-19T08:01:51Z</time></trkpt><trkpt lat="43.854191935717246" lon="11.256351692313167"><ele>608.0</ele><time>2026-04-19T08:01:52Z</time></trkpt><trkpt lat="43.85432168987947" lon="11.256369654765763"><ele>608.0</ele><time>2026-04-19T08:01:53Z</time></trkpt><trkpt lat="43.85444799584732" lon="11.256429134783135"><ele>602.6666666666666</ele><time>2026-04-19T08:01:54Z</time></trkpt><trkpt lat="43.85456090888811" lon="11.256551916845575"><ele>597.3333333333334</ele><time>2026-04-19T08:01:55Z</time></trkpt><trkpt lat="43.85468986144426" lon="11.256724585167312"><ele>592.0</ele><time>2026-04-19T08:01:56Z</time></trkpt><trkpt lat="43.85482639953634" lon="11.256868232488493"><ele>592.0</ele><time>2026-04-19T08:01:57Z</time></trkpt><trkpt lat="43.854948622389216" lon="11.257006994575278"><ele>592.0</ele><time>2026-04-19T08:01:58Z</time></trkpt><trkpt lat="43.855056598366566" lon="11.257129934813618"><ele>592.0</ele><time>2026-04-19T08:01:59Z</time></trkpt><trkpt lat="43.855145120282025" lon="11.257268479053149"><ele>592.0</ele><time>2026-04-19T08:02:00Z</time></trkpt><trkpt lat="43.85520821425967" lon="11.25746722514773"><ele>594.5</ele><time>2026-04-19T08:02:01Z</time></trkpt><trkpt lat="43.85521272737059" lon="11.257684794233953"><ele>597.0</ele><time>2026-04-19T08:02:02Z</time></trkpt><trkpt lat="43.85521667797113" lon="11.257867085651444"><ele>599.5</ele><time>2026-04-19T08:02:03Z</time></trkpt><trkpt lat="43.85524464639114" lon="11.258020162813724"><ele>602.0</ele><time>2026-04-19T08:02:04Z</time></trkpt><trkpt lat="43.855305755883094" lon="11.258173449508636"><ele>602.0</ele><time>2026-04-19T08:02:05Z</time></trkpt><trkpt lat="43.85541753971296" lon="11.258306210348017"><ele>602.0</ele><time>2026-04-19T08:02:06Z</time></trkpt><trkpt lat="43.85553622806771" lon="11.258461688033055"><ele>602.0</ele><time>2026-04-19T08:02:07Z</time></trkpt><trkpt lat="43.855592517279916" lon="11.258671834629325"><ele>602.0</ele><time>2026-04-19T08:02:08Z</time></trkpt><trkpt lat="43.8556579848983" lon="11.258886896368509"><ele>602.0</ele><time>2026-04-19T08:02:09Z</time></trkpt><trkpt lat="43.85574205719172" lon="11.259042844110533"><ele>602.0</ele><time>2026-04-19T08:02:10Z</time></trkpt><trkpt lat="43.855838674160616" lon="11.259227833627678"><ele>605.0</ele><time>2026-04-19T08:02:11Z</time></trkpt><trkpt lat="43.85587600917819" lon="11.259436901089037"><ele>608.0</ele><time>2026-04-19T08:02:12Z</time></trkpt><trkpt lat="43.85592961612423" lon="11.259674959891314"><ele>611.0</ele><time>2026-04-19T08:02:13Z</time></trkpt><trkpt lat="43.85598112503768" lon="11.259926265780111"><ele>611.0</ele><time>2026-04-19T08:02:14Z</time></trkpt><trkpt lat="43.8560261674672" lon="11.260140047797382"><ele>611.0</ele><time>2026-04-19T08:02:15Z</time></trkpt><trkpt lat="43.85608006574473" lon="11.260334644995254"><ele>611.0</ele><time>2026-04-19T08:02:16Z</time></trkpt><trkpt lat="43.85614910573426" lon="11.260504560644273"><ele>604.6666666666666</ele><time>2026-04-19T08:02:17Z</time></trkpt><trkpt lat="43.856242369051216" lon="11.260662101513919"><ele>598.3333333333334</ele><time>2026-04-19T08:02:18Z</time></trkpt><trkpt lat="43.85636090522661" lon="11.260803329558225"><ele>592.0</ele><time>2026-04-19T08:02:19Z</time></trkpt><trkpt lat="43.85649266343472" lon="11.260944835650442"><ele>592.0</ele><time>2026-04-19T08:02:20Z</time></trkpt><trkpt lat="43.856626258445054" lon="11.261089378945835"><ele>592.0</ele><time>2026-04-19T08:02:21Z</time></trkpt><trkpt lat="43.85672350364442" lon="11.261257156673942"><ele>592.0</ele><time>2026-04-19T08:02:22Z</time></trkpt><trkpt lat="43.85680978071252" lon="11.261420806164466"><ele>593.5</ele><time>2026-04-19T08:02:23Z</time></trkpt><trkpt lat="43.856914626574245" lon="11.261572171406149"><ele>595.0</ele><time>2026-04-19T08:02:24Z</time></trkpt><trkpt lat="43.8570111728957" lon="11.261734580971481"><ele>596.5</ele><time>2026-04-19T08:02:25Z</time></trkpt><trkpt lat="43.857084334819255" lon="11.261905690742495"><ele>598.0</ele><time>2026-04-19T08:02:26Z</time></trkpt><trkpt lat="43.85715087205927" lon="11.262060761986668"><ele>598.0</ele><time>2026-04-19T08:02:27Z</time></trkpt><trkpt lat="43.85719715941166" lon="11.262221988876675"><ele>598.0</ele><time>2026-04-19T08:02:28Z</time></trkpt><trkpt lat="43.85723080366124" lon="11.262378410466795"><ele>598.0</ele><time>2026-04-19T08:02:29Z</time></trkpt><trkpt lat="43.85725139980199" lon="11.262540391852419"><ele>598.0</ele><time>2026-04-19T08:02:30Z</time></trkpt><trkpt lat="43.85730851170009" lon="11.26268683712178"><ele>593.25</ele><time>2026-04-19T08:02:31Z</time></trkpt><trkpt lat="43.85741336322151" lon="11.26280822910037"><ele>588.5</ele><time>2026-04-19T08:02:32Z</time></trkpt><trkpt lat="43.85753959701431" lon="11.26289611082037"><ele>583.75</ele><time>2026-04-19T08:02:33Z</time></trkpt><trkpt lat="43.8576591583309" lon="11.26295582845491"><ele>579.0</ele><time>2026-04-19T08:02:34Z</time></trkpt><trkpt lat="43.8577989824046" lon="11.26296369468039"><ele>579.0</ele><time>2026-04-19T08:02:35Z</time></trkpt><trkpt lat="43.857938359241444" lon="11.262940410679409"><ele>579.0</ele><time>2026-04-19T08:02:36Z</time></trkpt><trkpt lat="43.85807363234521" lon="11.262894190021028"><ele>579.0</ele><time>2026-04-19T08:02:37Z</time></trkpt><trkpt lat="43.858199341291154" lon="11.262797031627128"><ele>579.0</ele><time>2026-04-19T08:02:38Z</time></trkpt><trkpt lat="43.85831651778946" lon="11.262703525061262"><ele>579.0</ele><time>2026-04-19T08:02:39Z</time></trkpt><trkpt lat="43.85843619774631" lon="11.26264706264678"><ele>579.0</ele><time>2026-04-19T08:02:40Z</time></trkpt><trkpt lat="43.85854018080344" lon="11.262611478675685"><ele>579.0</ele><time>2026-04-19T08:02:41Z</time></trkpt><trkpt lat="43.85863413477389" lon="11.262582957789714"><ele>579.0</ele><time>2026-04-19T08:02:42Z</time></trkpt><trkpt lat="43.85873130898423" lon="11.262626642756166"><ele>579.0</ele><time>2026-04-19T08:02:43Z</time></trkpt><trkpt lat="43.85880845766972" lon="11.262727941384743"><ele>575.0</ele><time>2026-04-19T08:02:44Z</time></trkpt><trkpt lat="43.858850669135855" lon="11.262879629677569"><ele>571.0</ele><time>2026-04-19T08:02:45Z</time></trkpt><trkpt lat="43.85882386866413" lon="11.263052396209368"><ele>567.0</ele><time>2026-04-19T08:02:46Z</time></trkpt><trkpt lat="43.858762126066935" lon="11.263225586889574"><ele>563.0</ele><time>2026-04-19T08:02:47Z</time></trkpt><trkpt lat="43.858727699005925" lon="11.263421709858237"><ele>563.0</ele><time>2026-04-19T08:02:48Z</time></trkpt><trkpt lat="43.85872999495514" lon="11.263635112122573"><ele>563.0</ele><time>2026-04-19T08:02:49Z</time></trkpt><trkpt lat="43.8587801244243" lon="11.263864672498812"><ele>563.0</ele><time>2026-04-19T08:02:50Z</time></trkpt><trkpt lat="43.858845506071916" lon="11.264113312649522"><ele>562.3333333333333</ele><time>2026-04-19T08:02:51Z</time></trkpt><trkpt lat="43.85892339092585" lon="11.264346389907981"><ele>561.6666666666666</ele><time>2026-04-19T08:02:52Z</time></trkpt><trkpt lat="43.858984905865384" lon="11.264562845911948"><ele>561.0</ele><time>2026-04-19T08:02:53Z</time></trkpt><trkpt lat="43.85905410780834" lon="11.264783880614006"><ele>561.0</ele><time>2026-04-19T08:02:54Z</time></trkpt><trkpt lat="43.859148834379674" lon="11.264992309919153"><ele>561.0</ele><time>2026-04-19T08:02:55Z</time></trkpt><trkpt lat="43.859268516992124" lon="11.265180893687825"><ele>561.0</ele><time>2026-04-19T08:02:56Z</time></trkpt><trkpt lat="43.859403384327514" lon="11.265371000247882"><ele>564.3333333333334</ele><time>2026-04-19T08:02:57Z</time></trkpt><trkpt lat="43.85952412126102" lon="11.265595097396567"><ele>567.6666666666667</ele><time>2026-04-19T08:02:58Z</time></trkpt><trkpt lat="43.859660704936786" lon="11.26578127526388"><ele>571.0</ele><time>2026-04-19T08:02:59Z</time></trkpt><trkpt lat="43.859758991478444" lon="11.265980910470981"><ele>571.0</ele><time>2026-04-19T08:03:00Z</time></trkpt><trkpt lat="43.85986181299575" lon="11.266160816952464"><ele>571.0</ele><time>2026-04-19T08:03:01Z</time></trkpt><trkpt lat="43.85994336057998" lon="11.26634549338476"><ele>571.0</ele><time>2026-04-19T08:03:02Z</time></trkpt><trkpt lat="43.859987687699174" lon="11.266537145726673"><ele>567.6666666666667</ele><time>2026-04-19T08:03:03Z</time></trkpt><trkpt lat="43.859985791766455" lon="11.266740928999571"><ele>564.3333333333334</ele><time>2026-04-19T08:03:04Z</time></trkpt><trkpt lat="43.8599862720632" lon="11.266984341266847"><ele>561.0</ele><time>2026-04-19T08:03:05Z</time></trkpt><trkpt lat="43.85995141685668" lon="11.267227566538041"><ele>562.0</ele><time>2026-04-19T08:03:06Z</time></trkpt><trkpt lat="43.85992828716355" lon="11.267444021910048"><ele>563.0</ele><time>2026-04-19T08:03:07Z</time></trkpt><trkpt lat="43.85986131065564" lon="11.267628585065642"><ele>564.0</ele><time>2026-04-19T08:03:08Z</time></trkpt><trkpt lat="43.859802550965966" lon="11.267814153079554"><ele>564.0</ele><time>2026-04-19T08:03:09Z</time></trkpt><trkpt lat="43.85976807498033" lon="11.267982743065234"><ele>564.0</ele><time>2026-04-19T08:03:10Z</time></trkpt><trkpt lat="43.85982646506118" lon="11.268149166502635"><ele>564.0</ele><time>2026-04-19T08:03:11Z</time></trkpt><trkpt lat="43.859908792801086" lon="11.268266946488259"><ele>564.0</ele><time>2026-04-19T08:03:12Z</time></trkpt><trkpt lat="43.85998647446251" lon="11.268409418451126"><ele>561.6666666666666</ele><time>2026-04-19T08:03:13Z</time></trkpt><trkpt lat="43.860079079162844" lon="11.268572858985685"><ele>559.3333333333333</ele><time>2026-04-19T08:03:14Z</time></trkpt><trkpt lat="43.860165312249514" lon="11.268761700900166"><ele>557.0</ele><time>2026-04-19T08:03:15Z</time></trkpt><trkpt lat="43.86023687268511" lon="11.268965884352571"><ele>561.75</ele><time>2026-04-19T08:03:16Z</time></trkpt><trkpt lat="43.8602924527485" lon="11.26916395038949"><ele>566.5</ele><time>2026-04-19T08:03:17Z</time></trkpt><trkpt lat="43.860342582650844" lon="11.269362069561668"><ele>571.25</ele><time>2026-04-19T08:03:18Z</time></trkpt><trkpt lat="43.86036922788256" lon="11.269551236859783"><ele>576.0</ele><time>2026-04-19T08:03:19Z</time></trkpt><trkpt lat="43.86035267268023" lon="11.269747802582508"><ele>573.5</ele><time>2026-04-19T08:03:20Z</time></trkpt><trkpt lat="43.86029683052208" lon="11.269925787138305"><ele>571.0</ele><time>2026-04-19T08:03:21Z</time></trkpt><trkpt lat="43.8602004210148" lon="11.270049350733519"><ele>568.5</ele><time>2026-04-19T08:03:22Z</time></trkpt><trkpt lat="43.86006834658656" lon="11.270152005617268"><ele>566.0</ele><time>2026-04-19T08:03:23Z</time></trkpt><trkpt lat="43.8599112095079" lon="11.270236206364332"><ele>560.0</ele><time>2026-04-19T08:03:24Z</time></trkpt><trkpt lat="43.85974890485213" lon="11.270277831740508"><ele>554.0</ele><time>2026-04-19T08:03:25Z</time></trkpt><trkpt lat="43.85961067748502" lon="11.270341077654669"><ele>548.0</ele><time>2026-04-19T08:03:26Z</time></trkpt><trkpt lat="43.85947208940719" lon="11.27039798476653"><ele>548.0</ele><time>2026-04-19T08:03:27Z</time></trkpt><trkpt lat="43.85934891093101" lon="11.270483914836568"><ele>548.0</ele><time>2026-04-19T08:03:28Z</time></trkpt><trkpt lat="43.85925980465711" lon="11.270629341236674"><ele>548.0</ele><time>2026-04-19T08:03:29Z</time></trkpt><trkpt lat="43.8592047868588" lon="11.270814609768859"><ele>548.0</ele><time>2026-04-19T08:03:30Z</time></trkpt><trkpt lat="43.859196185814156" lon="11.271017937425361"><ele>549.6666666666666</ele><time>2026-04-19T08:03:31Z</time></trkpt><trkpt lat="43.859241257564534" lon="11.271218237658106"><ele>551.3333333333334</ele><time>2026-04-19T08:03:32Z</time></trkpt><trkpt lat="43.859331170053736" lon="11.271405444744829"><ele>553.0</ele><time>2026-04-19T08:03:33Z</time></trkpt><trkpt lat="43.85945108616542" lon="11.271565767989012"><ele>553.0</ele><time>2026-04-19T08:03:34Z</time></trkpt><trkpt lat="43.85953898179218" lon="11.271736782749933"><ele>553.0</ele><time>2026-04-19T08:03:35Z</time></trkpt><trkpt lat="43.85960902314356" lon="11.271901260928665"><ele>553.0</ele><time>2026-04-19T08:03:36Z</time></trkpt><trkpt lat="43.859640540496684" lon="11.272085654307979"><ele>553.0</ele><time>2026-04-19T08:03:37Z</time></trkpt><trkpt lat="43.85963161009392" lon="11.272271545772456"><ele>551.0</ele><time>2026-04-19T08:03:38Z</time></trkpt><trkpt lat="43.85958211386889" lon="11.272448329385833"><ele>549.0</ele><time>2026-04-19T08:03:39Z</time></trkpt><trkpt lat="43.859500089263086" lon="11.272621002023659"><ele>547.0</ele><time>2026-04-19T08:03:40Z</time></trkpt><trkpt lat="43.85933418968452" lon="11.272704471360687"><ele>541.3333333333334</ele><time>2026-04-19T08:03:41Z</time></trkpt><trkpt lat="43.859169493307" lon="11.272771515910499"><ele>535.6666666666666</ele><time>2026-04-19T08:03:42Z</time></trkpt><trkpt lat="43.859028906868836" lon="11.27285899751678"><ele>530.0</ele><time>2026-04-19T08:03:43Z</time></trkpt><trkpt lat="43.85887953217618" lon="11.27300830570662"><ele>534.6666666666666</ele><time>2026-04-19T08:03:44Z</time></trkpt><trkpt lat="43.85873540971668" lon="11.273235760348223"><ele>539.3333333333334</ele><time>2026-04-19T08:03:45Z</time></trkpt><trkpt lat="43.85859536533548" lon="11.273477961656623"><ele>544.0</ele><time>2026-04-19T08:03:46Z</time></trkpt><trkpt lat="43.85846361130715" lon="11.273662498139473"><ele>540.75</ele><time>2026-04-19T08:03:47Z</time></trkpt><trkpt lat="43.85837088431797" lon="11.273816108553468"><ele>537.5</ele><time>2026-04-19T08:03:48Z</time></trkpt><trkpt lat="43.85830362193529" lon="11.27396793281234"><ele>534.25</ele><time>2026-04-19T08:03:49Z</time></trkpt><trkpt lat="43.858288345553035" lon="11.274162601862963"><ele>531.0</ele><time>2026-04-19T08:03:50Z</time></trkpt><trkpt lat="43.85832637696094" lon="11.274368065721172"><ele>531.0</ele><time>2026-04-19T08:03:51Z</time></trkpt><trkpt lat="43.85841576511759" lon="11.274585172928413"><ele>531.0</ele><time>2026-04-19T08:03:52Z</time></trkpt><trkpt lat="43.85853025432863" lon="11.27482890221387"><ele>531.0</ele><time>2026-04-19T08:03:53Z</time></trkpt><trkpt lat="43.85862903241015" lon="11.275080491122658"><ele>532.6666666666666</ele><time>2026-04-19T08:03:54Z</time></trkpt><trkpt lat="43.85871758068997" lon="11.275299646297638"><ele>534.3333333333333</ele><time>2026-04-19T08:03:55Z</time></trkpt><trkpt lat="43.858801181273414" lon="11.275508339816625"><ele>536.0</ele><time>2026-04-19T08:03:56Z</time></trkpt><trkpt lat="43.85888389129262" lon="11.27571324813822"><ele>536.0</ele><time>2026-04-19T08:03:57Z</time></trkpt><trkpt lat="43.85896872943927" lon="11.275923490606408"><ele>536.0</ele><time>2026-04-19T08:03:58Z</time></trkpt><trkpt lat="43.85905596337779" lon="11.27614554083145"><ele>536.0</ele><time>2026-04-19T08:03:59Z</time></trkpt><trkpt lat="43.859138732305226" lon="11.276365939880131"><ele>535.3333333333333</ele><time>2026-04-19T08:04:00Z</time></trkpt><trkpt lat="43.85921920831772" lon="11.27658105757373"><ele>534.6666666666666</ele><time>2026-04-19T08:04:01Z</time></trkpt><trkpt lat="43.859294938114964" lon="11.276796592536945"><ele>534.0</ele><time>2026-04-19T08:04:02Z</time></trkpt><trkpt lat="43.85936979883858" lon="11.277014556099823"><ele>534.0</ele><time>2026-04-19T08:04:03Z</time></trkpt><trkpt lat="43.8594479473309" lon="11.27722530250929"><ele>534.0</ele><time>2026-04-19T08:04:04Z</time></trkpt><trkpt lat="43.85952421113687" lon="11.277439949267345"><ele>534.0</ele><time>2026-04-19T08:04:05Z</time></trkpt><trkpt lat="43.85961130052352" lon="11.277653004871809"><ele>530.6666666666666</ele><time>2026-04-19T08:04:06Z</time></trkpt><trkpt lat="43.859718957396844" lon="11.277849582781755"><ele>527.3333333333333</ele><time>2026-04-19T08:04:07Z</time></trkpt><trkpt lat="43.85983362098768" lon="11.278023482585452"><ele>524.0</ele><time>2026-04-19T08:04:08Z</time></trkpt><trkpt lat="43.85994981938578" lon="11.278186172582075"><ele>519.6666666666666</ele><time>2026-04-19T08:04:09Z</time></trkpt><trkpt lat="43.860057313002265" lon="11.27835178917481"><ele>515.3333333333334</ele><time>2026-04-19T08:04:10Z</time></trkpt><trkpt lat="43.86015078511569" lon="11.27852729886494"><ele>511.0</ele><time>2026-04-19T08:04:11Z</time></trkpt><trkpt lat="43.860222227280005" lon="11.278718430648574"><ele>508.6666666666667</ele><time>2026-04-19T08:04:12Z</time></trkpt><trkpt lat="43.860270386438664" lon="11.278928196695622"><ele>506.33333333333337</ele><time>2026-04-19T08:04:13Z</time></trkpt><trkpt lat="43.86028111247859" lon="11.279142687924601"><ele>504.0</ele><time>2026-04-19T08:04:14Z</time></trkpt><trkpt lat="43.86028147252833" lon="11.27937010017725"><ele>504.0</ele><time>2026-04-19T08:04:15Z</time></trkpt><trkpt lat="43.86025559972764" lon="11.27961637158708"><ele>504.0</ele><time>2026-04-19T08:04:16Z</time></trkpt><trkpt lat="43.86020780768838" lon="11.279880158535518"><ele>504.0</ele><time>2026-04-19T08:04:17Z</time></trkpt><trkpt lat="43.86014518422565" lon="11.280134359591752"><ele>502.33333333333337</ele><time>2026-04-19T08:04:18Z</time></trkpt><trkpt lat="43.86009460069028" lon="11.280380755465076"><ele>500.6666666666667</ele><time>2026-04-19T08:04:19Z</time></trkpt><trkpt lat="43.86002364458423" lon="11.28060330113402"><ele>499.0</ele><time>2026-04-19T08:04:20Z</time></trkpt><trkpt lat="43.85994776310612" lon="11.280824023356715"><ele>498.6666666666667</ele><time>2026-04-19T08:04:21Z</time></trkpt><trkpt lat="43.85986028511546" lon="11.281023246720157"><ele>498.33333333333337</ele><time>2026-04-19T08:04:22Z</time></trkpt><trkpt lat="43.859751716732035" lon="11.281199390231825"><ele>498.0</ele><time>2026-04-19T08:04:23Z</time></trkpt><trkpt lat="43.85961920145568" lon="11.281341980968525"><ele>497.0</ele><time>2026-04-19T08:04:24Z</time></trkpt><trkpt lat="43.85946635475577" lon="11.281449291249505"><ele>496.0</ele><time>2026-04-19T08:04:25Z</time></trkpt><trkpt lat="43.859316799484304" lon="11.281541848643254"><ele>495.0</ele><time>2026-04-19T08:04:26Z</time></trkpt><trkpt lat="43.859182353484016" lon="11.28163606104913"><ele>495.0</ele><time>2026-04-19T08:04:27Z</time></trkpt><trkpt lat="43.859065255013945" lon="11.281735052029575"><ele>495.0</ele><time>2026-04-19T08:04:28Z</time></trkpt><trkpt lat="43.858960777019455" lon="11.28186043753064"><ele>495.0</ele><time>2026-04-19T08:04:29Z</time></trkpt><trkpt lat="43.8588775941737" lon="11.282037824288444"><ele>495.0</ele><time>2026-04-19T08:04:30Z</time></trkpt><trkpt lat="43.85882538673795" lon="11.282263038788686"><ele>496.0</ele><time>2026-04-19T08:04:31Z</time></trkpt><trkpt lat="43.858783742452296" lon="11.282510507768793"><ele>497.0</ele><time>2026-04-19T08:04:32Z</time></trkpt><trkpt lat="43.858734203144316" lon="11.282748851838786"><ele>498.0</ele><time>2026-04-19T08:04:33Z</time></trkpt><trkpt lat="43.85868132178743" lon="11.282961545622957"><ele>494.33333333333337</ele><time>2026-04-19T08:04:34Z</time></trkpt><trkpt lat="43.85863092285669" lon="11.283164297021019"><ele>490.6666666666667</ele><time>2026-04-19T08:04:35Z</time></trkpt><trkpt lat="43.85856726708597" lon="11.283365074963239"><ele>487.0</ele><time>2026-04-19T08:04:36Z</time></trkpt><trkpt lat="43.85851698830805" lon="11.283561291381345"><ele>487.0</ele><time>2026-04-19T08:04:37Z</time></trkpt><trkpt lat="43.858459465946076" lon="11.283735462805994"><ele>487.0</ele><time>2026-04-19T08:04:38Z</time></trkpt><trkpt lat="43.858381635669815" lon="11.283877859529728"><ele>487.0</ele><time>2026-04-19T08:04:39Z</time></trkpt><trkpt lat="43.85827448188908" lon="11.283979620953017"><ele>487.0</ele><time>2026-04-19T08:04:40Z</time></trkpt><trkpt lat="43.858129171095314" lon="11.2840639180646"><ele>489.33333333333337</ele><time>2026-04-19T08:04:41Z</time></trkpt><trkpt lat="43.857961059911126" lon="11.284039046925129"><ele>491.66666666666663</ele><time>2026-04-19T08:04:42Z</time></trkpt><trkpt lat="43.85778557729553" lon="11.283997218103055"><ele>494.0</ele><time>2026-04-19T08:04:43Z</time></trkpt><trkpt lat="43.857607550960985" lon="11.28393442188862"><ele>495.66666666666663</ele><time>2026-04-19T08:04:44Z</time></trkpt><trkpt lat="43.85741544612036" lon="11.283916619630066"><ele>497.33333333333337</ele><time>2026-04-19T08:04:45Z</time></trkpt><trkpt lat="43.85723049164074" lon="11.28393638801729"><ele>499.0</ele><time>2026-04-19T08:04:46Z</time></trkpt><trkpt lat="43.85706386597959" lon="11.28396870859534"><ele>499.0</ele><time>2026-04-19T08:04:47Z</time></trkpt><trkpt lat="43.85691539659368" lon="11.284015750029885"><ele>499.0</ele><time>2026-04-19T08:04:48Z</time></trkpt><trkpt lat="43.85677212946601" lon="11.284082413610337"><ele>499.0</ele><time>2026-04-19T08:04:49Z</time></trkpt><trkpt lat="43.856637445455995" lon="11.284187063543104"><ele>499.33333333333337</ele><time>2026-04-19T08:04:50Z</time></trkpt><trkpt lat="43.856512811457854" lon="11.284365839785375"><ele>499.66666666666663</ele><time>2026-04-19T08:04:51Z</time></trkpt><trkpt lat="43.85641377872695" lon="11.284601204920195"><ele>500.0</ele><time>2026-04-19T08:04:52Z</time></trkpt><trkpt lat="43.8563315699945" lon="11.284870288898464"><ele>499.3333333333333</ele><time>2026-04-19T08:04:53Z</time></trkpt><trkpt lat="43.856248352916396" lon="11.285135656105286"><ele>498.66666666666663</ele><time>2026-04-19T08:04:54Z</time></trkpt><trkpt lat="43.85617224325335" lon="11.285362565506288"><ele>498.0</ele><time>2026-04-19T08:04:55Z</time></trkpt><trkpt lat="43.85609368763607" lon="11.285578462875149"><ele>498.33333333333337</ele><time>2026-04-19T08:04:56Z</time></trkpt><trkpt lat="43.85600376291521" lon="11.28578889157389"><ele>498.6666666666667</ele><time>2026-04-19T08:04:57Z</time></trkpt><trkpt lat="43.85592879631339" lon="11.286007773404865"><ele>499.0</ele><time>2026-04-19T08:04:58Z</time></trkpt><trkpt lat="43.85587407226291" lon="11.286237284147182"><ele>499.6666666666667</ele><time>2026-04-19T08:04:59Z</time></trkpt><trkpt lat="43.855842182619966" lon="11.286483835553492"><ele>500.33333333333337</ele><time>2026-04-19T08:05:00Z</time></trkpt><trkpt lat="43.85583834269568" lon="11.286742131030133"><ele>501.0</ele><time>2026-04-19T08:05:01Z</time></trkpt><trkpt lat="43.85585133192877" lon="11.286991236097249"><ele>501.0</ele><time>2026-04-19T08:05:02Z</time></trkpt><trkpt lat="43.85588828809335" lon="11.287212148202128"><ele>501.0</ele><time>2026-04-19T08:05:03Z</time></trkpt><trkpt lat="43.85594705222447" lon="11.28742763180879"><ele>501.0</ele><time>2026-04-19T08:05:04Z</time></trkpt><trkpt lat="43.85600926905026" lon="11.287635955294647"><ele>504.0</ele><time>2026-04-19T08:05:05Z</time></trkpt><trkpt lat="43.85603770415476" lon="11.287847754134523"><ele>507.0</ele><time>2026-04-19T08:05:06Z</time></trkpt><trkpt lat="43.85604991879871" lon="11.288058062344778"><ele>510.0</ele><time>2026-04-19T08:05:07Z</time></trkpt><trkpt lat="43.85605138907113" lon="11.288271313206325"><ele>510.0</ele><time>2026-04-19T08:05:08Z</time></trkpt><trkpt lat="43.85604905447485" lon="11.28847698921474"><ele>510.0</ele><time>2026-04-19T08:05:09Z</time></trkpt><trkpt lat="43.85603443355754" lon="11.288682620890137"><ele>510.0</ele><time>2026-04-19T08:05:10Z</time></trkpt><trkpt lat="43.85601766854303" lon="11.288883220868907"><ele>510.0</ele><time>2026-04-19T08:05:11Z</time></trkpt><trkpt lat="43.85600843717297" lon="11.28908285134086"><ele>507.0</ele><time>2026-04-19T08:05:12Z</time></trkpt><trkpt lat="43.856000328894396" lon="11.289277967733936"><ele>504.0</ele><time>2026-04-19T08:05:13Z</time></trkpt><trkpt lat="43.8559854042555" lon="11.289468847613762"><ele>501.0</ele><time>2026-04-19T08:05:14Z</time></trkpt><trkpt lat="43.8559724388837" lon="11.289653813788801"><ele>498.0</ele><time>2026-04-19T08:05:15Z</time></trkpt><trkpt lat="43.855951437354996" lon="11.289810112155768"><ele>497.0</ele><time>2026-04-19T08:05:16Z</time></trkpt><trkpt lat="43.855921425175694" lon="11.289954737053739"><ele>495.99999999999994</ele><time>2026-04-19T08:05:17Z</time></trkpt><trkpt lat="43.855889753106595" lon="11.290070317767457"><ele>494.99999999999994</ele><time>2026-04-19T08:05:18Z</time></trkpt><trkpt lat="43.85585829784647" lon="11.290159270309148"><ele>494.0</ele><time>2026-04-19T08:05:19Z</time></trkpt><trkpt lat="43.85581227704863" lon="11.290261190048096"><ele>493.0</ele><time>2026-04-19T08:05:21Z</time></trkpt><trkpt lat="43.85592029877427" lon="11.29036880042407"><ele>491.25</ele><time>2026-04-19T08:05:25Z</time></trkpt><trkpt lat="43.8560099699446" lon="11.290409425095408"><ele>489.5</ele><time>2026-04-19T08:05:26Z</time></trkpt><trkpt lat="43.856091324126794" lon="11.290504479692528"><ele>487.75</ele><time>2026-04-19T08:05:27Z</time></trkpt><trkpt lat="43.85619353366442" lon="11.290618758422191"><ele>486.0</ele><time>2026-04-19T08:05:28Z</time></trkpt><trkpt lat="43.85631342607927" lon="11.290724245099772"><ele>486.0</ele><time>2026-04-19T08:05:29Z</time></trkpt><trkpt lat="43.85643549300796" lon="11.290838413968538"><ele>486.0</ele><time>2026-04-19T08:05:30Z</time></trkpt><trkpt lat="43.856565078825994" lon="11.290957569555378"><ele>486.0</ele><time>2026-04-19T08:05:31Z</time></trkpt><trkpt lat="43.85669311596215" lon="11.291079225843399"><ele>486.75</ele><time>2026-04-19T08:05:32Z</time></trkpt><trkpt lat="43.856819233691525" lon="11.291201880291508"><ele>487.5</ele><time>2026-04-19T08:05:33Z</time></trkpt><trkpt lat="43.85693834342666" lon="11.291313308581575"><ele>488.25</ele><time>2026-04-19T08:05:34Z</time></trkpt><trkpt lat="43.8570419366265" lon="11.291419914205525"><ele>489.0</ele><time>2026-04-19T08:05:35Z</time></trkpt><trkpt lat="43.857144910937656" lon="11.291526610711495"><ele>489.0</ele><time>2026-04-19T08:05:36Z</time></trkpt><trkpt lat="43.85724334769035" lon="11.291639391056874"><ele>489.0</ele><time>2026-04-19T08:05:37Z</time></trkpt><trkpt lat="43.8573336503329" lon="11.291769490401663"><ele>489.0</ele><time>2026-04-19T08:05:38Z</time></trkpt><trkpt lat="43.85743684573838" lon="11.291896998174952"><ele>489.0</ele><time>2026-04-19T08:05:39Z</time></trkpt><trkpt lat="43.85753500344869" lon="11.292032146378633"><ele>487.75</ele><time>2026-04-19T08:05:40Z</time></trkpt><trkpt lat="43.85763356034664" lon="11.292149527581065"><ele>486.5</ele><time>2026-04-19T08:05:41Z</time></trkpt><trkpt lat="43.85773388517874" lon="11.29226098288629"><ele>485.25</ele><time>2026-04-19T08:05:42Z</time></trkpt><trkpt lat="43.857854411079636" lon="11.292345003074333"><ele>484.0</ele><time>2026-04-19T08:05:43Z</time></trkpt><trkpt lat="43.85799170043843" lon="11.292413368063144"><ele>485.5</ele><time>2026-04-19T08:05:44Z</time></trkpt><trkpt lat="43.85812653297639" lon="11.292485367986105"><ele>487.0</ele><time>2026-04-19T08:05:45Z</time></trkpt><trkpt lat="43.8582658584953" lon="11.292565616491615"><ele>488.5</ele><time>2026-04-19T08:05:46Z</time></trkpt><trkpt lat="43.858397568157706" lon="11.29263484386755"><ele>490.0</ele><time>2026-04-19T08:05:47Z</time></trkpt><trkpt lat="43.85852449416765" lon="11.292702300941409"><ele>490.0</ele><time>2026-04-19T08:05:48Z</time></trkpt><trkpt lat="43.85864607523135" lon="11.292769931527525"><ele>490.0</ele><time>2026-04-19T08:05:49Z</time></trkpt><trkpt lat="43.858766823118934" lon="11.292833109695659"><ele>490.0</ele><time>2026-04-19T08:05:50Z</time></trkpt><trkpt lat="43.858875428518296" lon="11.292904423082208"><ele>490.0</ele><time>2026-04-19T08:05:51Z</time></trkpt><trkpt lat="43.85897808479084" lon="11.292971444914372"><ele>490.0</ele><time>2026-04-19T08:05:52Z</time></trkpt><trkpt lat="43.8590731480711" lon="11.293028144881102"><ele>490.0</ele><time>2026-04-19T08:05:53Z</time></trkpt><trkpt lat="43.85917327621432" lon="11.29308372234652"><ele>490.0</ele><time>2026-04-19T08:05:54Z</time></trkpt><trkpt lat="43.85926488049588" lon="11.29314483933885"><ele>490.0</ele><time>2026-04-19T08:05:55Z</time></trkpt><trkpt lat="43.85935760057624" lon="11.293200422007605"><ele>490.0</ele><time>2026-04-19T08:05:56Z</time></trkpt><trkpt lat="43.859461780180254" lon="11.293251228734222"><ele>490.25</ele><time>2026-04-19T08:05:57Z</time></trkpt><trkpt lat="43.8595661530581" lon="11.29330584582888"><ele>490.5</ele><time>2026-04-19T08:05:58Z</time></trkpt><trkpt lat="43.85966682322791" lon="11.293374606673122"><ele>490.75</ele><time>2026-04-19T08:05:59Z</time></trkpt><trkpt lat="43.8597528452807" lon="11.293485862805683"><ele>491.0</ele><time>2026-04-19T08:06:00Z</time></trkpt><trkpt lat="43.8598655075754" lon="11.293575155278464"><ele>491.0</ele><time>2026-04-19T08:06:01Z</time></trkpt><trkpt lat="43.85997098169642" lon="11.293678543408614"><ele>491.0</ele><time>2026-04-19T08:06:02Z</time></trkpt><trkpt lat="43.86006244376726" lon="11.293783635397906"><ele>491.0</ele><time>2026-04-19T08:06:03Z</time></trkpt><trkpt lat="43.860150773301065" lon="11.293854215496888"><ele>491.0</ele><time>2026-04-19T08:06:04Z</time></trkpt><trkpt lat="43.86023843152397" lon="11.293916727217763"><ele>491.0</ele><time>2026-04-19T08:06:05Z</time></trkpt><trkpt lat="43.860327967134175" lon="11.293983105263099"><ele>491.6</ele><time>2026-04-19T08:06:06Z</time></trkpt><trkpt lat="43.860405366958965" lon="11.294056525349818"><ele>492.20000000000005</ele><time>2026-04-19T08:06:07Z</time></trkpt><trkpt lat="43.86047017944894" lon="11.294133799012503"><ele>492.79999999999995</ele><time>2026-04-19T08:06:08Z</time></trkpt><trkpt lat="43.8605126680834" lon="11.294230526137559"><ele>493.4</ele><time>2026-04-19T08:06:09Z</time></trkpt><trkpt lat="43.86053617455953" lon="11.294327548652065"><ele>494.0</ele><time>2026-04-19T08:06:10Z</time></trkpt><trkpt lat="43.86039923680767" lon="11.294437276331843"><ele>494.0</ele><time>2026-04-19T08:06:11Z</time></trkpt><trkpt lat="43.86037852021935" lon="11.294598570155989"><ele>494.0</ele><time>2026-04-19T08:06:13Z</time></trkpt><trkpt lat="43.86037027272644" lon="11.294696539557718"><ele>494.0</ele><time>2026-04-19T08:06:14Z</time></trkpt><trkpt lat="43.86043025220746" lon="11.294804392011736"><ele>494.0</ele><time>2026-04-19T08:06:15Z</time></trkpt><trkpt lat="43.86047612477294" lon="11.29495090588331"><ele>494.0</ele><time>2026-04-19T08:06:16Z</time></trkpt><trkpt lat="43.8605404681395" lon="11.295104022821864"><ele>493.25</ele><time>2026-04-19T08:06:17Z</time></trkpt><trkpt lat="43.86060096555278" lon="11.295268870682017"><ele>492.5</ele><time>2026-04-19T08:06:18Z</time></trkpt><trkpt lat="43.860670944391174" lon="11.29545341500689"><ele>491.75</ele><time>2026-04-19T08:06:19Z</time></trkpt><trkpt lat="43.86073844594393" lon="11.295644860755084"><ele>491.0</ele><time>2026-04-19T08:06:20Z</time></trkpt><trkpt lat="43.860814995945304" lon="11.29584585342836"><ele>492.3333333333333</ele><time>2026-04-19T08:06:21Z</time></trkpt><trkpt lat="43.86088935584236" lon="11.296038805852112"><ele>493.66666666666663</ele><time>2026-04-19T08:06:22Z</time></trkpt><trkpt lat="43.8609645402788" lon="11.296240619061907"><ele>495.0</ele><time>2026-04-19T08:06:23Z</time></trkpt><trkpt lat="43.86103504315269" lon="11.296430762941455"><ele>495.0</ele><time>2026-04-19T08:06:24Z</time></trkpt><trkpt lat="43.861101591748195" lon="11.296612799382382"><ele>495.0</ele><time>2026-04-19T08:06:25Z</time></trkpt><trkpt lat="43.86116168204166" lon="11.296785334392478"><ele>495.0</ele><time>2026-04-19T08:06:26Z</time></trkpt><trkpt lat="43.861220405061566" lon="11.296949591404546"><ele>495.0</ele><time>2026-04-19T08:06:27Z</time></trkpt><trkpt lat="43.86128255970039" lon="11.297105319460112"><ele>495.0</ele><time>2026-04-19T08:06:28Z</time></trkpt><trkpt lat="43.86133628437294" lon="11.297252214775366"><ele>495.0</ele><time>2026-04-19T08:06:29Z</time></trkpt><trkpt lat="43.86138158700512" lon="11.297386626605343"><ele>495.0</ele><time>2026-04-19T08:06:30Z</time></trkpt><trkpt lat="43.86142887234907" lon="11.297507724166794"><ele>495.0</ele><time>2026-04-19T08:06:31Z</time></trkpt><trkpt lat="43.86147494713972" lon="11.297612173310911"><ele>495.0</ele><time>2026-04-19T08:06:32Z</time></trkpt><trkpt lat="43.861510879726126" lon="11.29771174656676"><ele>493.8333333333333</ele><time>2026-04-19T08:06:33Z</time></trkpt><trkpt lat="43.861523780043065" lon="11.297808084696612"><ele>492.66666666666663</ele><time>2026-04-19T08:06:34Z</time></trkpt><trkpt lat="43.86150772153009" lon="11.297905140290231"><ele>491.5</ele><time>2026-04-19T08:06:35Z</time></trkpt><trkpt lat="43.861468057627896" lon="11.297985078815929"><ele>490.3333333333333</ele><time>2026-04-19T08:06:36Z</time></trkpt><trkpt lat="43.86141364423227" lon="11.298041145877521"><ele>489.16666666666663</ele><time>2026-04-19T08:06:37Z</time></trkpt><trkpt lat="43.86135124256174" lon="11.298121159527474"><ele>488.0</ele><time>2026-04-19T08:06:39Z</time></trkpt><trkpt lat="43.86143252679269" lon="11.2983289773434"><ele>486.4</ele><time>2026-04-19T08:06:43Z</time></trkpt><trkpt lat="43.86150259045854" lon="11.298391074607993"><ele>484.79999999999995</ele><time>2026-04-19T08:06:44Z</time></trkpt><trkpt lat="43.861588113187615" lon="11.298477330285124"><ele>483.2</ele><time>2026-04-19T08:06:46Z</time></trkpt><trkpt lat="43.861631102985115" lon="11.298543610216498"><ele>481.6</ele><time>2026-04-19T08:06:48Z</time></trkpt><trkpt lat="43.86158108588285" lon="11.298673562390011"><ele>480.0</ele><time>2026-04-19T08:06:51Z</time></trkpt><trkpt lat="43.86149473787395" lon="11.298775921187188"><ele>480.0</ele><time>2026-04-19T08:06:53Z</time></trkpt><trkpt lat="43.8614497311717" lon="11.298859761660214"><ele>480.0</ele><time>2026-04-19T08:06:55Z</time></trkpt><trkpt lat="43.86140778920452" lon="11.298934313452634"><ele>480.0</ele><time>2026-04-19T08:07:00Z</time></trkpt><trkpt lat="43.86136080759256" lon="11.299006498645463"><ele>480.0</ele><time>2026-04-19T08:07:07Z</time></trkpt><trkpt lat="43.86146340977981" lon="11.29919099405415"><ele>480.0</ele><time>2026-04-19T08:07:09Z</time></trkpt><trkpt lat="43.86155352411493" lon="11.299285630432546"><ele>480.75</ele><time>2026-04-19T08:07:10Z</time></trkpt><trkpt lat="43.86163854224473" lon="11.299382701616318"><ele>481.5</ele><time>2026-04-19T08:07:11Z</time></trkpt><trkpt lat="43.86172106587746" lon="11.299490430267403"><ele>482.25</ele><time>2026-04-19T08:07:12Z</time></trkpt><trkpt lat="43.86179857896111" lon="11.299607056081589"><ele>483.0</ele><time>2026-04-19T08:07:13Z</time></trkpt><trkpt lat="43.861885492895766" lon="11.29971895614352"><ele>482.0</ele><time>2026-04-19T08:07:14Z</time></trkpt><trkpt lat="43.86197131714983" lon="11.299828633438647"><ele>480.99999999999994</ele><time>2026-04-19T08:07:15Z</time></trkpt><trkpt lat="43.86203822021862" lon="11.299915682492705"><ele>479.99999999999994</ele><time>2026-04-19T08:07:16Z</time></trkpt><trkpt lat="43.8620836852713" lon="11.300010009779266"><ele>479.0</ele><time>2026-04-19T08:07:17Z</time></trkpt><trkpt lat="43.86214852544094" lon="11.300074538653684"><ele>478.0</ele><time>2026-04-19T08:07:18Z</time></trkpt><trkpt lat="43.86221128705507" lon="11.30017866544321"><ele>478.0</ele><time>2026-04-19T08:07:19Z</time></trkpt><trkpt lat="43.86227198106354" lon="11.3003000640241"><ele>478.0</ele><time>2026-04-19T08:07:20Z</time></trkpt><trkpt lat="43.862336220213855" lon="11.300435082931548"><ele>478.0</ele><time>2026-04-19T08:07:21Z</time></trkpt><trkpt lat="43.862398888337886" lon="11.300578881020678"><ele>478.0</ele><time>2026-04-19T08:07:22Z</time></trkpt><trkpt lat="43.86245488983985" lon="11.300735587240034"><ele>477.0</ele><time>2026-04-19T08:07:23Z</time></trkpt><trkpt lat="43.86250664499945" lon="11.300914476332043"><ele>476.0</ele><time>2026-04-19T08:07:24Z</time></trkpt><trkpt lat="43.86256736556009" lon="11.301087590891079"><ele>475.0</ele><time>2026-04-19T08:07:25Z</time></trkpt><trkpt lat="43.86263112184734" lon="11.301236601416212"><ele>474.0</ele><time>2026-04-19T08:07:26Z</time></trkpt><trkpt lat="43.8627042350683" lon="11.301376180647758"><ele>473.79999999999995</ele><time>2026-04-19T08:07:27Z</time></trkpt><trkpt lat="43.86278811512836" lon="11.30151712915147"><ele>473.59999999999997</ele><time>2026-04-19T08:07:28Z</time></trkpt><trkpt lat="43.86285917742105" lon="11.301645294083242"><ele>473.4</ele><time>2026-04-19T08:07:29Z</time></trkpt><trkpt lat="43.86290269247282" lon="11.301761855814703"><ele>473.2</ele><time>2026-04-19T08:07:30Z</time></trkpt><trkpt lat="43.86294351932028" lon="11.30184115815373"><ele>473.0</ele><time>2026-04-19T08:07:31Z</time></trkpt><trkpt lat="43.86300015005906" lon="11.301964147489418"><ele>472.99999999999994</ele><time>2026-04-19T08:07:33Z</time></trkpt><trkpt lat="43.86306875909111" lon="11.302100278647371"><ele>473.0</ele><time>2026-04-19T08:07:35Z</time></trkpt><trkpt lat="43.86310503332928" lon="11.302197125350464"><ele>473.0</ele><time>2026-04-19T08:07:36Z</time></trkpt><trkpt lat="43.863124485826106" lon="11.302295530449491"><ele>473.0</ele><time>2026-04-19T08:07:37Z</time></trkpt><trkpt lat="43.86317004311382" lon="11.302356434858845"><ele>472.99999999999994</ele><time>2026-04-19T08:07:38Z</time></trkpt><trkpt lat="43.86321036164562" lon="11.302431370209932"><ele>473.0</ele><time>2026-04-19T08:07:39Z</time></trkpt><trkpt lat="43.86326290696573" lon="11.30249974850728"><ele>475.2</ele><time>2026-04-19T08:07:40Z</time></trkpt><trkpt lat="43.86334607343698" lon="11.302585081871927"><ele>477.4</ele><time>2026-04-19T08:07:42Z</time></trkpt><trkpt lat="43.8634430049524" lon="11.302628984349555"><ele>479.59999999999997</ele><time>2026-04-19T08:07:44Z</time></trkpt><trkpt lat="43.86355126786061" lon="11.302693237550686"><ele>481.79999999999995</ele><time>2026-04-19T08:07:46Z</time></trkpt><trkpt lat="43.86366610333261" lon="11.302737263929313"><ele>484.0</ele><time>2026-04-19T08:07:48Z</time></trkpt><trkpt lat="43.86373395261825" lon="11.302762985329144"><ele>484.83333333333337</ele><time>2026-04-19T08:07:49Z</time></trkpt><trkpt lat="43.863809936362934" lon="11.302790405866135"><ele>485.6666666666667</ele><time>2026-04-19T08:07:50Z</time></trkpt><trkpt lat="43.86389037242724" lon="11.30281711963511"><ele>486.5</ele><time>2026-04-19T08:07:51Z</time></trkpt><trkpt lat="43.86397473182194" lon="11.302840309454691"><ele>487.33333333333337</ele><time>2026-04-19T08:07:52Z</time></trkpt><trkpt lat="43.86406143858262" lon="11.302864144493242"><ele>488.1666666666667</ele><time>2026-04-19T08:07:53Z</time></trkpt><trkpt lat="43.86414623281058" lon="11.302886510048992"><ele>489.0</ele><time>2026-04-19T08:07:54Z</time></trkpt><trkpt lat="43.864232632787825" lon="11.30290887373811"><ele>489.0</ele><time>2026-04-19T08:07:55Z</time></trkpt><trkpt lat="43.86431997173528" lon="11.302930191274715"><ele>489.0</ele><time>2026-04-19T08:07:56Z</time></trkpt><trkpt lat="43.86440372827468" lon="11.302953165800863"><ele>489.0</ele><time>2026-04-19T08:07:57Z</time></trkpt><trkpt lat="43.86448300219011" lon="11.30298107307987"><ele>489.0</ele><time>2026-04-19T08:07:58Z</time></trkpt><trkpt lat="43.864552753097506" lon="11.303028253060985"><ele>489.0</ele><time>2026-04-19T08:07:59Z</time></trkpt><trkpt lat="43.864609965669125" lon="11.303120533756891"><ele>489.0</ele><time>2026-04-19T08:08:00Z</time></trkpt><trkpt lat="43.86465733710823" lon="11.30323458224047"><ele>489.0</ele><time>2026-04-19T08:08:01Z</time></trkpt><trkpt lat="43.86469401657116" lon="11.30335215366987"><ele>489.0</ele><time>2026-04-19T08:08:02Z</time></trkpt><trkpt lat="43.86472869295444" lon="11.30347313654526"><ele>489.0</ele><time>2026-04-19T08:08:03Z</time></trkpt><trkpt lat="43.86476019748541" lon="11.3036047180756"><ele>489.0</ele><time>2026-04-19T08:08:04Z</time></trkpt><trkpt lat="43.86479257405233" lon="11.303734837660532"><ele>489.0</ele><time>2026-04-19T08:08:05Z</time></trkpt><trkpt lat="43.86482365975134" lon="11.303858086191019"><ele>491.4</ele><time>2026-04-19T08:08:06Z</time></trkpt><trkpt lat="43.86484918308139" lon="11.303986036188082"><ele>493.79999999999995</ele><time>2026-04-19T08:08:07Z</time></trkpt><trkpt lat="43.86486791942546" lon="11.304119683446284"><ele>496.20000000000005</ele><time>2026-04-19T08:08:08Z</time></trkpt><trkpt lat="43.8648882915704" lon="11.30426583511478"><ele>498.6</ele><time>2026-04-19T08:08:09Z</time></trkpt><trkpt lat="43.864904070522456" lon="11.3044123572066"><ele>501.0</ele><time>2026-04-19T08:08:10Z</time></trkpt><trkpt lat="43.86491688176185" lon="11.304548987022471"><ele>501.0</ele><time>2026-04-19T08:08:11Z</time></trkpt><trkpt lat="43.86492468964237" lon="11.304673686464598"><ele>501.0</ele><time>2026-04-19T08:08:12Z</time></trkpt><trkpt lat="43.86493305542169" lon="11.304792062376338"><ele>501.0</ele><time>2026-04-19T08:08:13Z</time></trkpt><trkpt lat="43.86494987548495" lon="11.304916447403308"><ele>501.0</ele><time>2026-04-19T08:08:14Z</time></trkpt><trkpt lat="43.86498704351343" lon="11.305053881727872"><ele>501.0</ele><time>2026-04-19T08:08:15Z</time></trkpt><trkpt lat="43.86504506685065" lon="11.305174213435755"><ele>501.1666666666667</ele><time>2026-04-19T08:08:16Z</time></trkpt><trkpt lat="43.86511672055691" lon="11.305269130847057"><ele>501.33333333333337</ele><time>2026-04-19T08:08:17Z</time></trkpt><trkpt lat="43.8651883828357" lon="11.305335238436863"><ele>501.5</ele><time>2026-04-19T08:08:18Z</time></trkpt><trkpt lat="43.8652501820403" lon="11.305399882485943"><ele>501.6666666666667</ele><time>2026-04-19T08:08:19Z</time></trkpt><trkpt lat="43.865311274229995" lon="11.305464482209127"><ele>501.83333333333337</ele><time>2026-04-19T08:08:20Z</time></trkpt><trkpt lat="43.865386851628664" lon="11.30556920797375"><ele>502.0</ele><time>2026-04-19T08:08:22Z</time></trkpt><trkpt lat="43.86543884168868" lon="11.305695234088997"><ele>504.50000000000006</ele><time>2026-04-19T08:08:24Z</time></trkpt><trkpt lat="43.86545631496765" lon="11.305787171340242"><ele>507.0</ele><time>2026-04-19T08:08:25Z</time></trkpt><trkpt lat="43.865494421201674" lon="11.305935878638905"><ele>509.5</ele><time>2026-04-19T08:08:27Z</time></trkpt><trkpt lat="43.865512638888056" lon="11.306032244964243"><ele>512.0</ele><time>2026-04-19T08:08:28Z</time></trkpt><trkpt lat="43.86553253613037" lon="11.3061301602726"><ele>514.5</ele><time>2026-04-19T08:08:29Z</time></trkpt><trkpt lat="43.8655458357205" lon="11.306231957238992"><ele>517.0</ele><time>2026-04-19T08:08:30Z</time></trkpt><trkpt lat="43.86554858788461" lon="11.306349028230297"><ele>518.0</ele><time>2026-04-19T08:08:31Z</time></trkpt><trkpt lat="43.86554522340569" lon="11.306467095257856"><ele>519.0</ele><time>2026-04-19T08:08:32Z</time></trkpt><trkpt lat="43.86553337182057" lon="11.306588638964092"><ele>520.0</ele><time>2026-04-19T08:08:33Z</time></trkpt><trkpt lat="43.86550766849652" lon="11.306710435623232"><ele>521.0</ele><time>2026-04-19T08:08:34Z</time></trkpt><trkpt lat="43.86549879730249" lon="11.306837625925713"><ele>522.0</ele><time>2026-04-19T08:08:35Z</time></trkpt><trkpt lat="43.86549493925279" lon="11.306965022747958"><ele>523.0</ele><time>2026-04-19T08:08:36Z</time></trkpt><trkpt lat="43.86549586256052" lon="11.307090599333385"><ele>523.0</ele><time>2026-04-19T08:08:37Z</time></trkpt><trkpt lat="43.86549835639596" lon="11.307202879299556"><ele>523.0</ele><time>2026-04-19T08:08:38Z</time></trkpt><trkpt lat="43.86550104824638" lon="11.307324074456846"><ele>523.0</ele><time>2026-04-19T08:08:39Z</time></trkpt><trkpt lat="43.865502855983316" lon="11.307454773347347"><ele>523.0</ele><time>2026-04-19T08:08:40Z</time></trkpt><trkpt lat="43.86549833319819" lon="11.307585892124852"><ele>523.0</ele><time>2026-04-19T08:08:41Z</time></trkpt><trkpt lat="43.86546955069667" lon="11.30770116460897"><ele>523.0</ele><time>2026-04-19T08:08:42Z</time></trkpt><trkpt lat="43.86543405692137" lon="11.307815181689392"><ele>523.6</ele><time>2026-04-19T08:08:43Z</time></trkpt><trkpt lat="43.86539790698092" lon="11.307938089762423"><ele>524.1999999999999</ele><time>2026-04-19T08:08:44Z</time></trkpt><trkpt lat="43.865366373106966" lon="11.308080671653904"><ele>524.8</ele><time>2026-04-19T08:08:45Z</time></trkpt><trkpt lat="43.86536862879805" lon="11.308236589906377"><ele>525.4</ele><time>2026-04-19T08:08:46Z</time></trkpt><trkpt lat="43.8653874120422" lon="11.308372974352956"><ele>526.0</ele><time>2026-04-19T08:08:47Z</time></trkpt><trkpt lat="43.865407456084064" lon="11.30848992419285"><ele>526.4</ele><time>2026-04-19T08:08:48Z</time></trkpt><trkpt lat="43.86544094886521" lon="11.308664342804837"><ele>526.8</ele><time>2026-04-19T08:08:50Z</time></trkpt><trkpt lat="43.86546345958525" lon="11.308781570657667"><ele>527.1999999999999</ele><time>2026-04-19T08:08:52Z</time></trkpt><trkpt lat="43.86548598157121" lon="11.308898857219436"><ele>527.6</ele><time>2026-04-19T08:08:53Z</time></trkpt><trkpt lat="43.865509590661475" lon="11.309021805007163"><ele>528.0</ele><time>2026-04-19T08:08:54Z</time></trkpt><trkpt lat="43.86553100844768" lon="11.3091333413442"><ele>528.3333333333334</ele><time>2026-04-19T08:08:55Z</time></trkpt><trkpt lat="43.865554404288176" lon="11.309240259581276"><ele>528.6666666666666</ele><time>2026-04-19T08:08:56Z</time></trkpt><trkpt lat="43.86557982919116" lon="11.30933778036568"><ele>529.0</ele><time>2026-04-19T08:08:57Z</time></trkpt><trkpt lat="43.86561634040823" lon="11.309450337605943"><ele>529.3333333333333</ele><time>2026-04-19T08:08:58Z</time></trkpt><trkpt lat="43.86565906689499" lon="11.309560057663377"><ele>529.6666666666666</ele><time>2026-04-19T08:08:59Z</time></trkpt><trkpt lat="43.86569882522882" lon="11.309662155663867"><ele>530.0</ele><time>2026-04-19T08:09:00Z</time></trkpt><trkpt lat="43.86573475745221" lon="11.309754428323231"><ele>531.0</ele><time>2026-04-19T08:09:01Z</time></trkpt><trkpt lat="43.865765647652324" lon="11.309840993919133"><ele>532.0</ele><time>2026-04-19T08:09:02Z</time></trkpt><trkpt lat="43.86579130162919" lon="11.309936092334679"><ele>533.0</ele><time>2026-04-19T08:09:03Z</time></trkpt><trkpt lat="43.86580464268179" lon="11.310027409593678"><ele>534.0</ele><time>2026-04-19T08:09:04Z</time></trkpt><trkpt lat="43.86580758239339" lon="11.310135071328226"><ele>535.0</ele><time>2026-04-19T08:09:05Z</time></trkpt><trkpt lat="43.86580337592901" lon="11.31025400087519"><ele>536.0</ele><time>2026-04-19T08:09:06Z</time></trkpt><trkpt lat="43.86580127996438" lon="11.310390708622549"><ele>536.0</ele><time>2026-04-19T08:09:07Z</time></trkpt><trkpt lat="43.865800997508764" lon="11.310524131622058"><ele>536.0</ele><time>2026-04-19T08:09:08Z</time></trkpt><trkpt lat="43.86580600180543" lon="11.310657264732823"><ele>536.0</ele><time>2026-04-19T08:09:09Z</time></trkpt><trkpt lat="43.8658127366829" lon="11.31078937420148"><ele>536.0</ele><time>2026-04-19T08:09:10Z</time></trkpt><trkpt lat="43.86586052419073" lon="11.310912755236755"><ele>536.0</ele><time>2026-04-19T08:09:11Z</time></trkpt><trkpt lat="43.86591316261639" lon="11.311029223143764"><ele>536.8333333333333</ele><time>2026-04-19T08:09:12Z</time></trkpt><trkpt lat="43.865987804015624" lon="11.311106986049555"><ele>537.6666666666666</ele><time>2026-04-19T08:09:13Z</time></trkpt><trkpt lat="43.86604685929496" lon="11.311187535903274"><ele>538.5</ele><time>2026-04-19T08:09:14Z</time></trkpt><trkpt lat="43.86610266528947" lon="11.311256393758125"><ele>539.3333333333334</ele><time>2026-04-19T08:09:15Z</time></trkpt><trkpt lat="43.866163040451355" lon="11.311329930657479"><ele>540.1666666666667</ele><time>2026-04-19T08:09:16Z</time></trkpt><trkpt lat="43.86622261927263" lon="11.311396387976936"><ele>541.0</ele><time>2026-04-19T08:09:17Z</time></trkpt><trkpt lat="43.866288357931595" lon="11.311456675485134"><ele>539.0</ele><time>2026-04-19T08:09:18Z</time></trkpt><trkpt lat="43.86636488540162" lon="11.31153029679188"><ele>537.0</ele><time>2026-04-19T08:09:19Z</time></trkpt><trkpt lat="43.866442142658194" lon="11.311599839320676"><ele>535.0</ele><time>2026-04-19T08:09:20Z</time></trkpt><trkpt lat="43.866521458512715" lon="11.31165373212652"><ele>533.0</ele><time>2026-04-19T08:09:21Z</time></trkpt><trkpt lat="43.86658960553444" lon="11.311703010309927"><ele>531.0</ele><time>2026-04-19T08:09:22Z</time></trkpt><trkpt lat="43.86665802045099" lon="11.311746959753572"><ele>529.0</ele><time>2026-04-19T08:09:23Z</time></trkpt><trkpt lat="43.86672695519696" lon="11.311794293119439"><ele>527.6</ele><time>2026-04-19T08:09:24Z</time></trkpt><trkpt lat="43.86680175924016" lon="11.311844964248897"><ele>526.2</ele><time>2026-04-19T08:09:25Z</time></trkpt><trkpt lat="43.86688071090296" lon="11.311907847958912"><ele>524.8000000000001</ele><time>2026-04-19T08:09:26Z</time></trkpt><trkpt lat="43.86696012999509" lon="11.311982146765546"><ele>523.4</ele><time>2026-04-19T08:09:27Z</time></trkpt><trkpt lat="43.86704137426296" lon="11.312059602578225"><ele>522.0</ele><time>2026-04-19T08:09:28Z</time></trkpt><trkpt lat="43.86711553342294" lon="11.31214209592429"><ele>522.0</ele><time>2026-04-19T08:09:29Z</time></trkpt><trkpt lat="43.86718851696433" lon="11.312221379246818"><ele>522.0</ele><time>2026-04-19T08:09:30Z</time></trkpt><trkpt lat="43.86725122543921" lon="11.31227834225519"><ele>522.0</ele><time>2026-04-19T08:09:31Z</time></trkpt><trkpt lat="43.86732696472896" lon="11.312359192807602"><ele>522.0</ele><time>2026-04-19T08:09:32Z</time></trkpt><trkpt lat="43.86739485077787" lon="11.312429883501656"><ele>522.0</ele><time>2026-04-19T08:09:33Z</time></trkpt><trkpt lat="43.86746334131712" lon="11.31249952343685"><ele>522.0</ele><time>2026-04-19T08:09:34Z</time></trkpt><trkpt lat="43.86753249060229" lon="11.312570265973264"><ele>520.8333333333334</ele><time>2026-04-19T08:09:35Z</time></trkpt><trkpt lat="43.86760049710722" lon="11.312641867631076"><ele>519.6666666666666</ele><time>2026-04-19T08:09:36Z</time></trkpt><trkpt lat="43.867669771296974" lon="11.312714557306878"><ele>518.5</ele><time>2026-04-19T08:09:37Z</time></trkpt><trkpt lat="43.867731987891226" lon="11.312793925102193"><ele>517.3333333333333</ele><time>2026-04-19T08:09:38Z</time></trkpt><trkpt lat="43.867795818070654" lon="11.312879072822984"><ele>516.1666666666666</ele><time>2026-04-19T08:09:39Z</time></trkpt><trkpt lat="43.86785329536197" lon="11.31297702185464"><ele>515.0</ele><time>2026-04-19T08:09:40Z</time></trkpt><trkpt lat="43.86789873790429" lon="11.313089062545234"><ele>514.5</ele><time>2026-04-19T08:09:41Z</time></trkpt><trkpt lat="43.86792370624678" lon="11.313196913148687"><ele>514.0</ele><time>2026-04-19T08:09:42Z</time></trkpt><trkpt lat="43.86795783228739" lon="11.313333851891464"><ele>513.5</ele><time>2026-04-19T08:09:43Z</time></trkpt><trkpt lat="43.867976464189454" lon="11.313452359781097"><ele>513.0</ele><time>2026-04-19T08:09:44Z</time></trkpt><trkpt lat="43.86799170635361" lon="11.313564946202357"><ele>512.5</ele><time>2026-04-19T08:09:45Z</time></trkpt><trkpt lat="43.868004393641634" lon="11.313675975661008"><ele>512.0</ele><time>2026-04-19T08:09:46Z</time></trkpt><trkpt lat="43.8680208971837" lon="11.313792015573513"><ele>512.6</ele><time>2026-04-19T08:09:47Z</time></trkpt><trkpt lat="43.86803625598327" lon="11.313919551430857"><ele>513.2</ele><time>2026-04-19T08:09:48Z</time></trkpt><trkpt lat="43.86806077002581" lon="11.314069536371747"><ele>513.8</ele><time>2026-04-19T08:09:49Z</time></trkpt><trkpt lat="43.868096843396046" lon="11.314225472648817"><ele>514.4</ele><time>2026-04-19T08:09:50Z</time></trkpt><trkpt lat="43.86813207673571" lon="11.314367425008925"><ele>515.0</ele><time>2026-04-19T08:09:51Z</time></trkpt><trkpt lat="43.86817339829091" lon="11.314499412059279"><ele>515.0</ele><time>2026-04-19T08:09:52Z</time></trkpt><trkpt lat="43.86821670977251" lon="11.314627270550826"><ele>515.0</ele><time>2026-04-19T08:09:53Z</time></trkpt><trkpt lat="43.868263211266004" lon="11.314763746324294"><ele>515.0</ele><time>2026-04-19T08:09:54Z</time></trkpt><trkpt lat="43.86831802855739" lon="11.314910975893275"><ele>515.0</ele><time>2026-04-19T08:09:55Z</time></trkpt><trkpt lat="43.868375381383174" lon="11.315055304516113"><ele>515.0</ele><time>2026-04-19T08:09:56Z</time></trkpt><trkpt lat="43.86843680993096" lon="11.315199666899709"><ele>514.0</ele><time>2026-04-19T08:09:57Z</time></trkpt><trkpt lat="43.868487312034176" lon="11.315356220674547"><ele>513.0</ele><time>2026-04-19T08:09:58Z</time></trkpt><trkpt lat="43.86853430464847" lon="11.315523287319486"><ele>512.0</ele><time>2026-04-19T08:09:59Z</time></trkpt><trkpt lat="43.868559231978935" lon="11.315707680894313"><ele>511.0</ele><time>2026-04-19T08:10:00Z</time></trkpt><trkpt lat="43.86857089339998" lon="11.315904205070487"><ele>511.0</ele><time>2026-04-19T08:10:01Z</time></trkpt><trkpt lat="43.86856493993734" lon="11.316108184619907"><ele>511.0</ele><time>2026-04-19T08:10:02Z</time></trkpt><trkpt lat="43.86856368893328" lon="11.316307954429087"><ele>511.0</ele><time>2026-04-19T08:10:03Z</time></trkpt><trkpt lat="43.868564737788326" lon="11.316484007887437"><ele>511.0</ele><time>2026-04-19T08:10:04Z</time></trkpt><trkpt lat="43.868564538119266" lon="11.31664105713615"><ele>510.5</ele><time>2026-04-19T08:10:05Z</time></trkpt><trkpt lat="43.868571305399975" lon="11.316803240982962"><ele>510.0</ele><time>2026-04-19T08:10:06Z</time></trkpt><trkpt lat="43.86857978757837" lon="11.316969738816997"><ele>509.5</ele><time>2026-04-19T08:10:07Z</time></trkpt><trkpt lat="43.86859884674914" lon="11.317119842102365"><ele>509.0</ele><time>2026-04-19T08:10:08Z</time></trkpt><trkpt lat="43.868627665100554" lon="11.317260948401373"><ele>509.8333333333333</ele><time>2026-04-19T08:10:09Z</time></trkpt><trkpt lat="43.868655311943506" lon="11.317387310871563"><ele>510.66666666666663</ele><time>2026-04-19T08:10:10Z</time></trkpt><trkpt lat="43.86868569328622" lon="11.317500984694103"><ele>511.5</ele><time>2026-04-19T08:10:11Z</time></trkpt><trkpt lat="43.86871188913573" lon="11.31759902049799"><ele>512.3333333333334</ele><time>2026-04-19T08:10:12Z</time></trkpt><trkpt lat="43.86873418087779" lon="11.317697785358563"><ele>513.1666666666667</ele><time>2026-04-19T08:10:13Z</time></trkpt><trkpt lat="43.86875837021736" lon="11.317803416107227"><ele>514.0</ele><time>2026-04-19T08:10:14Z</time></trkpt><trkpt lat="43.86880153596712" lon="11.317910658330819"><ele>514.0</ele><time>2026-04-19T08:10:15Z</time></trkpt><trkpt lat="43.8688580663402" lon="11.317990048187905"><ele>514.0</ele><time>2026-04-19T08:10:16Z</time></trkpt><trkpt lat="43.868928556124715" lon="11.318032069528684"><ele>514.0</ele><time>2026-04-19T08:10:17Z</time></trkpt><trkpt lat="43.869009005865614" lon="11.318053257916677"><ele>514.0</ele><time>2026-04-19T08:10:18Z</time></trkpt><trkpt lat="43.86909408755669" lon="11.318051810111854"><ele>514.0</ele><time>2026-04-19T08:10:19Z</time></trkpt><trkpt lat="43.86917727356278" lon="11.31805460196035"><ele>514.0</ele><time>2026-04-19T08:10:20Z</time></trkpt><trkpt lat="43.86924387749773" lon="11.318076462953917"><ele>513.5</ele><time>2026-04-19T08:10:21Z</time></trkpt><trkpt lat="43.869311671163764" lon="11.318079499896676"><ele>513.0</ele><time>2026-04-19T08:10:23Z</time></trkpt><trkpt lat="43.869379818778164" lon="11.318114985921497"><ele>512.5</ele><time>2026-04-19T08:10:26Z</time></trkpt><trkpt lat="43.86946567791122" lon="11.31815681136321"><ele>512.0</ele><time>2026-04-19T08:10:28Z</time></trkpt><trkpt lat="43.86953858789677" lon="11.318274876908676"><ele>511.50000000000006</ele><time>2026-04-19T08:10:30Z</time></trkpt><trkpt lat="43.86957025814746" lon="11.318366172847968"><ele>511.0</ele><time>2026-04-19T08:10:31Z</time></trkpt><trkpt lat="43.86959590800921" lon="11.31847122274394"><ele>511.00000000000006</ele><time>2026-04-19T08:10:32Z</time></trkpt><trkpt lat="43.869628213994304" lon="11.318584660705508"><ele>511.0</ele><time>2026-04-19T08:10:33Z</time></trkpt><trkpt lat="43.86965608188524" lon="11.318688799312472"><ele>511.0</ele><time>2026-04-19T08:10:34Z</time></trkpt><trkpt lat="43.869682862342245" lon="11.318788639481662"><ele>511.0</ele><time>2026-04-19T08:10:35Z</time></trkpt><trkpt lat="43.86971135706791" lon="11.318883473372933"><ele>511.00000000000006</ele><time>2026-04-19T08:10:36Z</time></trkpt><trkpt lat="43.86977038053864" lon="11.319031612380055"><ele>511.0</ele><time>2026-04-19T08:10:38Z</time></trkpt><trkpt lat="43.86980609396756" lon="11.319129509407336"><ele>511.6666666666667</ele><time>2026-04-19T08:10:40Z</time></trkpt><trkpt lat="43.86985420017241" lon="11.319279745878138"><ele>512.3333333333334</ele><time>2026-04-19T08:10:42Z</time></trkpt><trkpt lat="43.86988438420028" lon="11.31938185571329"><ele>513.0</ele><time>2026-04-19T08:10:43Z</time></trkpt><trkpt lat="43.869915992812935" lon="11.319489668294526"><ele>513.6666666666666</ele><time>2026-04-19T08:10:44Z</time></trkpt><trkpt lat="43.86994636252707" lon="11.319597812168356"><ele>514.3333333333333</ele><time>2026-04-19T08:10:45Z</time></trkpt><trkpt lat="43.869967831099785" lon="11.319698066614258"><ele>515.0</ele><time>2026-04-19T08:10:46Z</time></trkpt><trkpt lat="43.8699908345513" lon="11.319806286028067"><ele>515.6</ele><time>2026-04-19T08:10:47Z</time></trkpt><trkpt lat="43.870020955106796" lon="11.31991620295933"><ele>516.2</ele><time>2026-04-19T08:10:48Z</time></trkpt><trkpt lat="43.87004789956763" lon="11.320033334751347"><ele>516.8</ele><time>2026-04-19T08:10:48.999Z</time></trkpt><trkpt lat="43.87007085037015" lon="11.320157390401159"><ele>517.4</ele><time>2026-04-19T08:10:49.999Z</time></trkpt><trkpt lat="43.87009953495763" lon="11.32027433078254"><ele>518.0</ele><time>2026-04-19T08:10:50.999Z</time></trkpt><trkpt lat="43.87012375605574" lon="11.320403631542208"><ele>516.4</ele><time>2026-04-19T08:10:51.999Z</time></trkpt><trkpt lat="43.87014526407566" lon="11.320538229106921"><ele>514.8</ele><time>2026-04-19T08:10:52.999Z</time></trkpt><trkpt lat="43.87017258956793" lon="11.320678794041353"><ele>513.2</ele><time>2026-04-19T08:10:53.999Z</time></trkpt><trkpt lat="43.87018462138146" lon="11.320830269820343"><ele>511.6</ele><time>2026-04-19T08:10:54.999Z</time></trkpt><trkpt lat="43.87020974261753" lon="11.320983485180589"><ele>510.0</ele><time>2026-04-19T08:10:55.999Z</time></trkpt><trkpt lat="43.87025138492271" lon="11.321144987060434"><ele>510.0</ele><time>2026-04-19T08:10:56.999Z</time></trkpt><trkpt lat="43.87027629191055" lon="11.321303411533444"><ele>510.0</ele><time>2026-04-19T08:10:57.999Z</time></trkpt><trkpt lat="43.87030420913775" lon="11.321457124365418"><ele>510.0</ele><time>2026-04-19T08:10:58.999Z</time></trkpt><trkpt lat="43.87032817047567" lon="11.321606308421744"><ele>510.0</ele><time>2026-04-19T08:10:59.999Z</time></trkpt><trkpt lat="43.870351109080325" lon="11.32174785300499"><ele>510.0</ele><time>2026-04-19T08:11:00.999Z</time></trkpt><trkpt lat="43.8703752817189" lon="11.321900079548552"><ele>512.25</ele><time>2026-04-19T08:11:01.999Z</time></trkpt><trkpt lat="43.87040556222187" lon="11.322062442160641"><ele>514.5</ele><time>2026-04-19T08:11:02.999Z</time></trkpt><trkpt lat="43.870441627904626" lon="11.322227726086426"><ele>516.75</ele><time>2026-04-19T08:11:03.999Z</time></trkpt><trkpt lat="43.870487603323895" lon="11.322387770644236"><ele>519.0</ele><time>2026-04-19T08:11:04.999Z</time></trkpt><trkpt lat="43.87053901682693" lon="11.322553799176024"><ele>521.3333333333334</ele><time>2026-04-19T08:11:06Z</time></trkpt><trkpt lat="43.870603639344516" lon="11.322758792962077"><ele>523.6666666666667</ele><time>2026-04-19T08:11:07Z</time></trkpt><trkpt lat="43.870698368961406" lon="11.323007935319426"><ele>526.0</ele><time>2026-04-19T08:11:08Z</time></trkpt><trkpt lat="43.87080887825945" lon="11.323282945275574"><ele>525.5</ele><time>2026-04-19T08:11:09Z</time></trkpt><trkpt lat="43.870919907274136" lon="11.323562850072271"><ele>525.0</ele><time>2026-04-19T08:11:10Z</time></trkpt><trkpt lat="43.87103953912202" lon="11.323833637182618"><ele>528.6666666666666</ele><time>2026-04-19T08:11:11Z</time></trkpt><trkpt lat="43.87113772209357" lon="11.3240847073204"><ele>532.3333333333333</ele><time>2026-04-19T08:11:12Z</time></trkpt><trkpt lat="43.87125135309141" lon="11.324315765052932"><ele>536.0</ele><time>2026-04-19T08:11:13Z</time></trkpt><trkpt lat="43.87138187993276" lon="11.324559817076764"><ele>538.3333333333333</ele><time>2026-04-19T08:11:14Z</time></trkpt><trkpt lat="43.87151355189125" lon="11.324810780615561"><ele>540.6666666666666</ele><time>2026-04-19T08:11:15Z</time></trkpt><trkpt lat="43.87163365493782" lon="11.325036746024558"><ele>543.0</ele><time>2026-04-19T08:11:16Z</time></trkpt><trkpt lat="43.871750737766256" lon="11.325256660053897"><ele>541.6666666666666</ele><time>2026-04-19T08:11:17Z</time></trkpt><trkpt lat="43.87186514081113" lon="11.32547605458333"><ele>540.3333333333333</ele><time>2026-04-19T08:11:18Z</time></trkpt><trkpt lat="43.871983663269674" lon="11.325696519437068"><ele>539.0</ele><time>2026-04-19T08:11:19Z</time></trkpt><trkpt lat="43.87210117224621" lon="11.325900387811338"><ele>541.5</ele><time>2026-04-19T08:11:20Z</time></trkpt><trkpt lat="43.87221801326144" lon="11.326074777218016"><ele>544.0</ele><time>2026-04-19T08:11:21Z</time></trkpt><trkpt lat="43.872331979404265" lon="11.32620870596056"><ele>546.5</ele><time>2026-04-19T08:11:22Z</time></trkpt><trkpt lat="43.872433186645125" lon="11.326311913512429"><ele>549.0</ele><time>2026-04-19T08:11:23Z</time></trkpt><trkpt lat="43.87252084808999" lon="11.326397927400176"><ele>550.25</ele><time>2026-04-19T08:11:24Z</time></trkpt><trkpt lat="43.87258942704025" lon="11.326470446335678"><ele>551.5</ele><time>2026-04-19T08:11:25Z</time></trkpt><trkpt lat="43.87267780887839" lon="11.326503757565192"><ele>552.75</ele><time>2026-04-19T08:11:26Z</time></trkpt><trkpt lat="43.87265872005988" lon="11.326751580384489"><ele>554.0</ele><time>2026-04-19T08:11:27Z</time></trkpt><trkpt lat="43.872664035366085" lon="11.326947049676315"><ele>558.0</ele><time>2026-04-19T08:11:28Z</time></trkpt><trkpt lat="43.87267793061294" lon="11.327171740158345"><ele>562.0</ele><time>2026-04-19T08:11:29Z</time></trkpt><trkpt lat="43.87269833951282" lon="11.32740416383697"><ele>566.0</ele><time>2026-04-19T08:11:30Z</time></trkpt><trkpt lat="43.87271466485015" lon="11.327637592556664"><ele>566.6666666666666</ele><time>2026-04-19T08:11:31Z</time></trkpt><trkpt lat="43.87273176458364" lon="11.327852635392974"><ele>567.3333333333334</ele><time>2026-04-19T08:11:32Z</time></trkpt><trkpt lat="43.87275323953431" lon="11.328063829895836"><ele>568.0</ele><time>2026-04-19T08:11:33Z</time></trkpt><trkpt lat="43.872795612002605" lon="11.32827989524483"><ele>568.3333333333334</ele><time>2026-04-19T08:11:34Z</time></trkpt><trkpt lat="43.872857573254834" lon="11.32850291502269"><ele>568.6666666666666</ele><time>2026-04-19T08:11:35Z</time></trkpt><trkpt lat="43.872907425016614" lon="11.328730033366275"><ele>569.0</ele><time>2026-04-19T08:11:36Z</time></trkpt><trkpt lat="43.87293593892955" lon="11.328938976207304"><ele>567.3333333333333</ele><time>2026-04-19T08:11:37Z</time></trkpt><trkpt lat="43.87298290857482" lon="11.329139669564526"><ele>565.6666666666666</ele><time>2026-04-19T08:11:38Z</time></trkpt><trkpt lat="43.873068335834" lon="11.329339500747675"><ele>564.0</ele><time>2026-04-19T08:11:39Z</time></trkpt><trkpt lat="43.87317428373566" lon="11.329540275469386"><ele>562.3333333333334</ele><time>2026-04-19T08:11:40Z</time></trkpt><trkpt lat="43.87326528969767" lon="11.329752709225666"><ele>560.6666666666667</ele><time>2026-04-19T08:11:41Z</time></trkpt><trkpt lat="43.87330150683883" lon="11.329990886796875"><ele>559.0</ele><time>2026-04-19T08:11:42Z</time></trkpt><trkpt lat="43.873360688342785" lon="11.33020299602025"><ele>559.0</ele><time>2026-04-19T08:11:43Z</time></trkpt><trkpt lat="43.87342665441356" lon="11.330395927906299"><ele>559.0</ele><time>2026-04-19T08:11:44Z</time></trkpt><trkpt lat="43.873502290472516" lon="11.330576755620966"><ele>559.0</ele><time>2026-04-19T08:11:45Z</time></trkpt><trkpt lat="43.87354748713453" lon="11.330779905099355"><ele>558.3333333333334</ele><time>2026-04-19T08:11:46Z</time></trkpt><trkpt lat="43.87350321425367" lon="11.330983377983372"><ele>557.6666666666666</ele><time>2026-04-19T08:11:47Z</time></trkpt><trkpt lat="43.87343327008169" lon="11.331189327257395"><ele>557.0</ele><time>2026-04-19T08:11:48Z</time></trkpt><trkpt lat="43.873368238119454" lon="11.3314360987338"><ele>557.0</ele><time>2026-04-19T08:11:49Z</time></trkpt><trkpt lat="43.873290569978394" lon="11.331681748270734"><ele>557.0</ele><time>2026-04-19T08:11:50Z</time></trkpt><trkpt lat="43.873223508388925" lon="11.331938967641058"><ele>557.0</ele><time>2026-04-19T08:11:51Z</time></trkpt><trkpt lat="43.87316516693284" lon="11.332175672925258"><ele>557.0</ele><time>2026-04-19T08:11:52Z</time></trkpt><trkpt lat="43.873121074731046" lon="11.332401309908304"><ele>557.0</ele><time>2026-04-19T08:11:53Z</time></trkpt><trkpt lat="43.87307876486995" lon="11.332625381773004"><ele>557.0</ele><time>2026-04-19T08:11:54Z</time></trkpt><trkpt lat="43.87302450358288" lon="11.33282914091482"><ele>557.0</ele><time>2026-04-19T08:11:55Z</time></trkpt><trkpt lat="43.87295310046231" lon="11.333004468226402"><ele>557.0</ele><time>2026-04-19T08:11:56Z</time></trkpt><trkpt lat="43.87287007384383" lon="11.333162300779525"><ele>557.0</ele><time>2026-04-19T08:11:57Z</time></trkpt><trkpt lat="43.87276898821604" lon="11.333293435662911"><ele>557.0</ele><time>2026-04-19T08:11:58Z</time></trkpt><trkpt lat="43.8726355253787" lon="11.333355375720366"><ele>556.0</ele><time>2026-04-19T08:11:59Z</time></trkpt><trkpt lat="43.872492281197545" lon="11.333399375276711"><ele>555.0</ele><time>2026-04-19T08:12:00Z</time></trkpt><trkpt lat="43.872350451060534" lon="11.333453152269144"><ele>554.0</ele><time>2026-04-19T08:12:01Z</time></trkpt><trkpt lat="43.87222610453352" lon="11.333459057205182"><ele>553.0</ele><time>2026-04-19T08:12:02Z</time></trkpt><trkpt lat="43.87212194340848" lon="11.333379529663642"><ele>553.0</ele><time>2026-04-19T08:12:03Z</time></trkpt><trkpt lat="43.87199428325619" lon="11.33327652495801"><ele>553.0</ele><time>2026-04-19T08:12:04Z</time></trkpt><trkpt lat="43.87183204072619" lon="11.333195250595644"><ele>553.0</ele><time>2026-04-19T08:12:05Z</time></trkpt><trkpt lat="43.87164188153637" lon="11.333148205246761"><ele>552.25</ele><time>2026-04-19T08:12:06Z</time></trkpt><trkpt lat="43.871474603001204" lon="11.333111513716874"><ele>551.5</ele><time>2026-04-19T08:12:07Z</time></trkpt><trkpt lat="43.87133000991429" lon="11.333066604133283"><ele>550.75</ele><time>2026-04-19T08:12:08Z</time></trkpt><trkpt lat="43.87121088000852" lon="11.333012194339124"><ele>550.0</ele><time>2026-04-19T08:12:09Z</time></trkpt><trkpt lat="43.871121787078366" lon="11.332965110293788"><ele>548.0</ele><time>2026-04-19T08:12:10Z</time></trkpt><trkpt lat="43.871039312213185" lon="11.332941531107261"><ele>546.0</ele><time>2026-04-19T08:12:11Z</time></trkpt><trkpt lat="43.87095864681918" lon="11.332969039517328"><ele>544.0</ele><time>2026-04-19T08:12:12Z</time></trkpt><trkpt lat="43.870899535772494" lon="11.333068660655583"><ele>542.0</ele><time>2026-04-19T08:12:13Z</time></trkpt><trkpt lat="43.87086766419352" lon="11.33322893810145"><ele>540.0</ele><time>2026-04-19T08:12:14Z</time></trkpt><trkpt lat="43.8708470691561" lon="11.33343120866115"><ele>540.0</ele><time>2026-04-19T08:12:15Z</time></trkpt><trkpt lat="43.870810498268405" lon="11.333648686107255"><ele>540.0</ele><time>2026-04-19T08:12:16Z</time></trkpt><trkpt lat="43.870731697249845" lon="11.333837190333771"><ele>540.0</ele><time>2026-04-19T08:12:17Z</time></trkpt><trkpt lat="43.8706431527284" lon="11.33399251209813"><ele>541.25</ele><time>2026-04-19T08:12:18Z</time></trkpt><trkpt lat="43.87053056145497" lon="11.334098550983258"><ele>542.5</ele><time>2026-04-19T08:12:19Z</time></trkpt><trkpt lat="43.87039967556297" lon="11.334130188935221"><ele>543.75</ele><time>2026-04-19T08:12:20Z</time></trkpt><trkpt lat="43.87027284847145" lon="11.334085950006305"><ele>545.0</ele><time>2026-04-19T08:12:21Z</time></trkpt><trkpt lat="43.870139777592584" lon="11.334054707106016"><ele>542.3333333333333</ele><time>2026-04-19T08:12:22Z</time></trkpt><trkpt lat="43.869987718255544" lon="11.334021793533402"><ele>539.6666666666666</ele><time>2026-04-19T08:12:23Z</time></trkpt><trkpt lat="43.86982025482773" lon="11.333968622872268"><ele>537.0</ele><time>2026-04-19T08:12:24Z</time></trkpt><trkpt lat="43.86967327051531" lon="11.333923343857254"><ele>534.25</ele><time>2026-04-19T08:12:25Z</time></trkpt><trkpt lat="43.869538456126286" lon="11.333852689243438"><ele>531.5</ele><time>2026-04-19T08:12:26Z</time></trkpt><trkpt lat="43.869428470007385" lon="11.333721007516388"><ele>528.75</ele><time>2026-04-19T08:12:27Z</time></trkpt><trkpt lat="43.869305893202636" lon="11.33362418362027"><ele>526.0</ele><time>2026-04-19T08:12:28Z</time></trkpt><trkpt lat="43.86921157054536" lon="11.333516877333693"><ele>525.2</ele><time>2026-04-19T08:12:29Z</time></trkpt><trkpt lat="43.869116970660166" lon="11.333455701342112"><ele>524.4000000000001</ele><time>2026-04-19T08:12:30Z</time></trkpt><trkpt lat="43.86901603524881" lon="11.333451604229516"><ele>523.6</ele><time>2026-04-19T08:12:31Z</time></trkpt><trkpt lat="43.86891851090503" lon="11.333509929437882"><ele>522.8000000000001</ele><time>2026-04-19T08:12:32Z</time></trkpt><trkpt lat="43.86881446165078" lon="11.333623640311822"><ele>522.0</ele><time>2026-04-19T08:12:33Z</time></trkpt><trkpt lat="43.868707009809484" lon="11.333792888672999"><ele>522.0</ele><time>2026-04-19T08:12:34Z</time></trkpt><trkpt lat="43.868600933798945" lon="11.333883486880769"><ele>522.0</ele><time>2026-04-19T08:12:35Z</time></trkpt><trkpt lat="43.868480927055806" lon="11.333943692664302"><ele>522.0</ele><time>2026-04-19T08:12:36Z</time></trkpt><trkpt lat="43.868358764772395" lon="11.333965736880998"><ele>522.0</ele><time>2026-04-19T08:12:37Z</time></trkpt><trkpt lat="43.86820984792253" lon="11.333951114594326"><ele>522.3333333333334</ele><time>2026-04-19T08:12:38Z</time></trkpt><trkpt lat="43.86804661995733" lon="11.333924464317631"><ele>522.6666666666667</ele><time>2026-04-19T08:12:39Z</time></trkpt><trkpt lat="43.86787052301388" lon="11.333896603563815"><ele>523.0</ele><time>2026-04-19T08:12:40Z</time></trkpt><trkpt lat="43.86768809432408" lon="11.333874936699333"><ele>517.6666666666667</ele><time>2026-04-19T08:12:41Z</time></trkpt><trkpt lat="43.867511746273166" lon="11.333838214252676"><ele>512.3333333333334</ele><time>2026-04-19T08:12:42Z</time></trkpt><trkpt lat="43.867330885140696" lon="11.333780943433425"><ele>507.0</ele><time>2026-04-19T08:12:43Z</time></trkpt><trkpt lat="43.867143431425795" lon="11.33372324385295"><ele>507.0</ele><time>2026-04-19T08:12:44Z</time></trkpt><trkpt lat="43.86696559204959" lon="11.33366457174247"><ele>507.0</ele><time>2026-04-19T08:12:45Z</time></trkpt><trkpt lat="43.8667959858593" lon="11.333595830028312"><ele>507.0</ele><time>2026-04-19T08:12:46Z</time></trkpt><trkpt lat="43.86662788824392" lon="11.33350994399835"><ele>509.33333333333337</ele><time>2026-04-19T08:12:47Z</time></trkpt><trkpt lat="43.86645826749552" lon="11.333415095992777"><ele>511.6666666666667</ele><time>2026-04-19T08:12:48Z</time></trkpt><trkpt lat="43.866302218171654" lon="11.333327298682658"><ele>514.0</ele><time>2026-04-19T08:12:49Z</time></trkpt><trkpt lat="43.86615268322221" lon="11.333250406687025"><ele>514.0</ele><time>2026-04-19T08:12:50Z</time></trkpt><trkpt lat="43.86600885322211" lon="11.333175425922006"><ele>514.0</ele><time>2026-04-19T08:12:51Z</time></trkpt><trkpt lat="43.86586890735027" lon="11.333106491467172"><ele>514.0</ele><time>2026-04-19T08:12:52Z</time></trkpt><trkpt lat="43.865726539258" lon="11.333075588836818"><ele>514.0</ele><time>2026-04-19T08:12:53Z</time></trkpt><trkpt lat="43.86556150502929" lon="11.333092043745314"><ele>515.0</ele><time>2026-04-19T08:12:54Z</time></trkpt><trkpt lat="43.86539966614548" lon="11.333104284749066"><ele>516.0</ele><time>2026-04-19T08:12:55Z</time></trkpt><trkpt lat="43.86524736953436" lon="11.333120079543544"><ele>517.0</ele><time>2026-04-19T08:12:56Z</time></trkpt><trkpt lat="43.865110712365755" lon="11.33312881784955"><ele>514.75</ele><time>2026-04-19T08:12:57Z</time></trkpt><trkpt lat="43.86497411233968" lon="11.333160337478338"><ele>512.5</ele><time>2026-04-19T08:12:58Z</time></trkpt><trkpt lat="43.864844566026285" lon="11.333219037373265"><ele>510.25</ele><time>2026-04-19T08:12:59Z</time></trkpt><trkpt lat="43.86474097491613" lon="11.333293403884719"><ele>508.0</ele><time>2026-04-19T08:13:00Z</time></trkpt><trkpt lat="43.864646900317574" lon="11.333360242059738"><ele>508.0</ele><time>2026-04-19T08:13:01Z</time></trkpt><trkpt lat="43.864547226118944" lon="11.333398190272158"><ele>508.0</ele><time>2026-04-19T08:13:02Z</time></trkpt><trkpt lat="43.864438051622656" lon="11.333359987752319"><ele>508.0</ele><time>2026-04-19T08:13:03Z</time></trkpt><trkpt lat="43.86430771530922" lon="11.333356095693862"><ele>508.0</ele><time>2026-04-19T08:13:04Z</time></trkpt><trkpt lat="43.86415538404437" lon="11.333323702456921"><ele>506.25</ele><time>2026-04-19T08:13:05Z</time></trkpt><trkpt lat="43.86401927937762" lon="11.33330310969397"><ele>504.5</ele><time>2026-04-19T08:13:06Z</time></trkpt><trkpt lat="43.86388456798547" lon="11.333275800780363"><ele>502.75</ele><time>2026-04-19T08:13:07Z</time></trkpt><trkpt lat="43.8637502565691" lon="11.333249732220429"><ele>501.0</ele><time>2026-04-19T08:13:08Z</time></trkpt><trkpt lat="43.86362875891729" lon="11.33322976229568"><ele>501.0</ele><time>2026-04-19T08:13:09Z</time></trkpt><trkpt lat="43.86352604972011" lon="11.333215913472326"><ele>501.0</ele><time>2026-04-19T08:13:10Z</time></trkpt><trkpt lat="43.863434763217626" lon="11.333194989933563"><ele>501.0</ele><time>2026-04-19T08:13:11Z</time></trkpt><trkpt lat="43.863356035352346" lon="11.33318644419846"><ele>501.0</ele><time>2026-04-19T08:13:12Z</time></trkpt><trkpt lat="43.863293306882206" lon="11.333225189699604"><ele>501.0</ele><time>2026-04-19T08:13:13Z</time></trkpt><trkpt lat="43.863259142208484" lon="11.333303301522811"><ele>501.0</ele><time>2026-04-19T08:13:14Z</time></trkpt><trkpt lat="43.863317172911714" lon="11.333504782171792"><ele>501.0</ele><time>2026-04-19T08:13:16Z</time></trkpt><trkpt lat="43.863398647938936" lon="11.333621717989846"><ele>501.0</ele><time>2026-04-19T08:13:17Z</time></trkpt><trkpt lat="43.86348829121534" lon="11.333758927308093"><ele>501.0</ele><time>2026-04-19T08:13:18Z</time></trkpt><trkpt lat="43.86354863385466" lon="11.33392140737102"><ele>501.0</ele><time>2026-04-19T08:13:19Z</time></trkpt><trkpt lat="43.86361586163779" lon="11.334057789060003"><ele>499.75</ele><time>2026-04-19T08:13:20Z</time></trkpt><trkpt lat="43.863710884682924" lon="11.33418607505111"><ele>498.5</ele><time>2026-04-19T08:13:21Z</time></trkpt><trkpt lat="43.86380523206242" lon="11.334309637320867"><ele>497.25</ele><time>2026-04-19T08:13:22Z</time></trkpt><trkpt lat="43.863936262011144" lon="11.334448692038892"><ele>496.0</ele><time>2026-04-19T08:13:23Z</time></trkpt><trkpt lat="43.86403345429027" lon="11.334582838296052"><ele>494.75</ele><time>2026-04-19T08:13:24Z</time></trkpt><trkpt lat="43.86408676467575" lon="11.334757656139553"><ele>493.5</ele><time>2026-04-19T08:13:25Z</time></trkpt><trkpt lat="43.86414255386809" lon="11.33491537170857"><ele>492.25</ele><time>2026-04-19T08:13:26Z</time></trkpt><trkpt lat="43.86417606643771" lon="11.33505627821641"><ele>491.0</ele><time>2026-04-19T08:13:27Z</time></trkpt><trkpt lat="43.864169240579095" lon="11.335190255059407"><ele>491.0</ele><time>2026-04-19T08:13:28Z</time></trkpt><trkpt lat="43.864118102383955" lon="11.335337948183335"><ele>491.0</ele><time>2026-04-19T08:13:29Z</time></trkpt><trkpt lat="43.864100070132494" lon="11.335547671494608"><ele>491.0</ele><time>2026-04-19T08:13:30Z</time></trkpt><trkpt lat="43.86411935911059" lon="11.335766998488298"><ele>491.0</ele><time>2026-04-19T08:13:31Z</time></trkpt><trkpt lat="43.864138540639665" lon="11.335996246104376"><ele>490.66666666666663</ele><time>2026-04-19T08:13:32Z</time></trkpt><trkpt lat="43.86410618164849" lon="11.336227109437361"><ele>490.33333333333337</ele><time>2026-04-19T08:13:33Z</time></trkpt><trkpt lat="43.864061722468534" lon="11.336450945992116"><ele>490.0</ele><time>2026-04-19T08:13:34Z</time></trkpt><trkpt lat="43.86400675074429" lon="11.336693643376202"><ele>490.0</ele><time>2026-04-19T08:13:35Z</time></trkpt><trkpt lat="43.86395518785552" lon="11.336942790299801"><ele>490.0</ele><time>2026-04-19T08:13:36Z</time></trkpt><trkpt lat="43.86394084808564" lon="11.33720044435945"><ele>490.0</ele><time>2026-04-19T08:13:37Z</time></trkpt><trkpt lat="43.863922979714175" lon="11.337464449012716"><ele>492.33333333333337</ele><time>2026-04-19T08:13:38Z</time></trkpt><trkpt lat="43.86392699990881" lon="11.33773473533156"><ele>494.66666666666663</ele><time>2026-04-19T08:13:39Z</time></trkpt><trkpt lat="43.86392576874134" lon="11.337967444110287"><ele>497.0</ele><time>2026-04-19T08:13:40Z</time></trkpt><trkpt lat="43.86391621549462" lon="11.338173337740688"><ele>498.5</ele><time>2026-04-19T08:13:41Z</time></trkpt><trkpt lat="43.863906625335616" lon="11.338361912233932"><ele>500.0</ele><time>2026-04-19T08:13:42Z</time></trkpt><trkpt lat="43.8638558520899" lon="11.338555477455557"><ele>501.5</ele><time>2026-04-19T08:13:43Z</time></trkpt><trkpt lat="43.863770027878516" lon="11.338741777984676"><ele>503.0</ele><time>2026-04-19T08:13:44Z</time></trkpt><trkpt lat="43.86364898251165" lon="11.338874391727803"><ele>503.0</ele><time>2026-04-19T08:13:45Z</time></trkpt><trkpt lat="43.86357768585283" lon="11.339043074403893"><ele>503.0</ele><time>2026-04-19T08:13:46Z</time></trkpt><trkpt lat="43.86350760465178" lon="11.33921183131687"><ele>503.0</ele><time>2026-04-19T08:13:47Z</time></trkpt><trkpt lat="43.86344609959964" lon="11.339359528896994"><ele>503.0</ele><time>2026-04-19T08:13:48Z</time></trkpt><trkpt lat="43.86338804562628" lon="11.339499076461845"><ele>502.99999999999994</ele><time>2026-04-19T08:13:49Z</time></trkpt><trkpt lat="43.86335182467054" lon="11.339627914013276"><ele>503.0</ele><time>2026-04-19T08:13:50Z</time></trkpt><trkpt lat="43.86331268409476" lon="11.339707160564068"><ele>503.0</ele><time>2026-04-19T08:13:51Z</time></trkpt><trkpt lat="43.863272739145344" lon="11.339789586288981"><ele>503.0</ele><time>2026-04-19T08:13:53Z</time></trkpt><trkpt lat="43.86323147237396" lon="11.33987112575751"><ele>502.99999999999994</ele><time>2026-04-19T08:14:00Z</time></trkpt><trkpt lat="43.86333706003395" lon="11.339968389600422"><ele>503.0</ele><time>2026-04-19T08:14:02Z</time></trkpt><trkpt lat="43.86340564557832" lon="11.339975146226928"><ele>504.4</ele><time>2026-04-19T08:14:03Z</time></trkpt><trkpt lat="43.86346951691478" lon="11.340014738725136"><ele>505.79999999999995</ele><time>2026-04-19T08:14:04Z</time></trkpt><trkpt lat="43.86355959863924" lon="11.340034755332347"><ele>507.2</ele><time>2026-04-19T08:14:05Z</time></trkpt><trkpt lat="43.86366733632384" lon="11.340080561125172"><ele>508.6</ele><time>2026-04-19T08:14:06Z</time></trkpt><trkpt lat="43.863790040948736" lon="11.340114837803421"><ele>510.0</ele><time>2026-04-19T08:14:07Z</time></trkpt><trkpt lat="43.863917658463485" lon="11.340152931795652"><ele>510.0</ele><time>2026-04-19T08:14:08Z</time></trkpt><trkpt lat="43.86405614176824" lon="11.340199661031404"><ele>510.0</ele><time>2026-04-19T08:14:09Z</time></trkpt><trkpt lat="43.86420587875318" lon="11.340251313686734"><ele>510.0</ele><time>2026-04-19T08:14:10Z</time></trkpt><trkpt lat="43.86436374283927" lon="11.340312352679838"><ele>511.33333333333337</ele><time>2026-04-19T08:14:11Z</time></trkpt><trkpt lat="43.86452567519997" lon="11.340387943799756"><ele>512.6666666666667</ele><time>2026-04-19T08:14:12Z</time></trkpt><trkpt lat="43.86467560368496" lon="11.340458829264529"><ele>514.0</ele><time>2026-04-19T08:14:13Z</time></trkpt><trkpt lat="43.86480632893269" lon="11.340532211891448"><ele>515.25</ele><time>2026-04-19T08:14:14Z</time></trkpt><trkpt lat="43.864943638775415" lon="11.340590914620714"><ele>516.5</ele><time>2026-04-19T08:14:15Z</time></trkpt><trkpt lat="43.86507709758272" lon="11.340658814889848"><ele>517.75</ele><time>2026-04-19T08:14:16Z</time></trkpt><trkpt lat="43.86520601881143" lon="11.340759174103942"><ele>519.0</ele><time>2026-04-19T08:14:17Z</time></trkpt><trkpt lat="43.8653004130204" lon="11.340940342850546"><ele>521.0</ele><time>2026-04-19T08:14:18Z</time></trkpt><trkpt lat="43.86541498551799" lon="11.341126097310084"><ele>523.0</ele><time>2026-04-19T08:14:19Z</time></trkpt><trkpt lat="43.86551632398167" lon="11.341335105537022"><ele>525.0</ele><time>2026-04-19T08:14:20Z</time></trkpt><trkpt lat="43.8656413451661" lon="11.341519386182632"><ele>525.0</ele><time>2026-04-19T08:14:21Z</time></trkpt><trkpt lat="43.865777676228106" lon="11.341686174659282"><ele>525.0</ele><time>2026-04-19T08:14:22Z</time></trkpt><trkpt lat="43.86592826075972" lon="11.341841352717896"><ele>525.0</ele><time>2026-04-19T08:14:23Z</time></trkpt><trkpt lat="43.86609320250746" lon="11.34199273434389"><ele>524.6666666666666</ele><time>2026-04-19T08:14:24Z</time></trkpt><trkpt lat="43.86626861212098" lon="11.342147857131334"><ele>524.3333333333333</ele><time>2026-04-19T08:14:25Z</time></trkpt><trkpt lat="43.86645298934722" lon="11.342310222674078"><ele>524.0</ele><time>2026-04-19T08:14:26Z</time></trkpt><trkpt lat="43.86663681548394" lon="11.342469125599049"><ele>525.0</ele><time>2026-04-19T08:14:27Z</time></trkpt><trkpt lat="43.86681640153766" lon="11.342623414481672"><ele>526.0</ele><time>2026-04-19T08:14:28Z</time></trkpt><trkpt lat="43.86698434527517" lon="11.342770936936503"><ele>527.0</ele><time>2026-04-19T08:14:29Z</time></trkpt><trkpt lat="43.867147985833185" lon="11.342920375829424"><ele>525.6666666666666</ele><time>2026-04-19T08:14:30Z</time></trkpt><trkpt lat="43.86731372845864" lon="11.343070216479385"><ele>524.3333333333334</ele><time>2026-04-19T08:14:31Z</time></trkpt><trkpt lat="43.86747515101965" lon="11.34321069176995"><ele>523.0</ele><time>2026-04-19T08:14:32Z</time></trkpt><trkpt lat="43.867622807858176" lon="11.343351801931696"><ele>523.0</ele><time>2026-04-19T08:14:33Z</time></trkpt><trkpt lat="43.867750040827865" lon="11.343500600340935"><ele>523.0</ele><time>2026-04-19T08:14:34Z</time></trkpt><trkpt lat="43.86785970073452" lon="11.343652246158365"><ele>523.0</ele><time>2026-04-19T08:14:35Z</time></trkpt><trkpt lat="43.86796765283815" lon="11.343786728927995"><ele>520.3333333333334</ele><time>2026-04-19T08:14:36Z</time></trkpt><trkpt lat="43.86809163633571" lon="11.343883163157539"><ele>517.6666666666666</ele><time>2026-04-19T08:14:37Z</time></trkpt><trkpt lat="43.868257622767324" lon="11.343921906705852"><ele>515.0</ele><time>2026-04-19T08:14:38Z</time></trkpt><trkpt lat="43.86845313677405" lon="11.34389052381295"><ele>515.0</ele><time>2026-04-19T08:14:39Z</time></trkpt><trkpt lat="43.86866848921194" lon="11.343872645297358"><ele>515.0</ele><time>2026-04-19T08:14:40Z</time></trkpt><trkpt lat="43.86887320071597" lon="11.343851183605947"><ele>515.0</ele><time>2026-04-19T08:14:41Z</time></trkpt><trkpt lat="43.86906301759135" lon="11.343832128811021"><ele>515.0</ele><time>2026-04-19T08:14:42Z</time></trkpt><trkpt lat="43.86924787351389" lon="11.34382193483719"><ele>515.0</ele><time>2026-04-19T08:14:43Z</time></trkpt><trkpt lat="43.869431311284636" lon="11.343853102104514"><ele>515.0</ele><time>2026-04-19T08:14:44Z</time></trkpt><trkpt lat="43.86960142370909" lon="11.343936161832993"><ele>511.66666666666663</ele><time>2026-04-19T08:14:45Z</time></trkpt><trkpt lat="43.86976880569907" lon="11.344037631448362"><ele>508.33333333333337</ele><time>2026-04-19T08:14:46Z</time></trkpt><trkpt lat="43.86992623855511" lon="11.34412943618969"><ele>505.0</ele><time>2026-04-19T08:14:47Z</time></trkpt><trkpt lat="43.870081706795645" lon="11.344226907451558"><ele>504.33333333333337</ele><time>2026-04-19T08:14:48Z</time></trkpt><trkpt lat="43.87026159786744" lon="11.344285223269438"><ele>503.66666666666663</ele><time>2026-04-19T08:14:49Z</time></trkpt><trkpt lat="43.87045924065231" lon="11.344279764139454"><ele>503.0</ele><time>2026-04-19T08:14:50Z</time></trkpt><trkpt lat="43.87066528166823" lon="11.344220393607644"><ele>503.0</ele><time>2026-04-19T08:14:51Z</time></trkpt><trkpt lat="43.870882537849575" lon="11.34418862120357"><ele>503.0</ele><time>2026-04-19T08:14:52Z</time></trkpt><trkpt lat="43.87109051960368" lon="11.344162430788678"><ele>503.0</ele><time>2026-04-19T08:14:53Z</time></trkpt><trkpt lat="43.87130034883199" lon="11.34416793213228"><ele>502.3333333333333</ele><time>2026-04-19T08:14:54Z</time></trkpt><trkpt lat="43.87151785095377" lon="11.344201024269651"><ele>501.66666666666663</ele><time>2026-04-19T08:14:55Z</time></trkpt><trkpt lat="43.87172680903266" lon="11.344224807179444"><ele>501.0</ele><time>2026-04-19T08:14:56Z</time></trkpt><trkpt lat="43.87192212901815" lon="11.344264258080944"><ele>499.0</ele><time>2026-04-19T08:14:57Z</time></trkpt><trkpt lat="43.87211243235601" lon="11.344259875695286"><ele>497.0</ele><time>2026-04-19T08:14:58Z</time></trkpt><trkpt lat="43.8722963720872" lon="11.34422047769707"><ele>495.0</ele><time>2026-04-19T08:14:59Z</time></trkpt><trkpt lat="43.87248328040056" lon="11.34414313845678"><ele>495.0</ele><time>2026-04-19T08:15:00Z</time></trkpt><trkpt lat="43.872671974621674" lon="11.344027520694612"><ele>495.0</ele><time>2026-04-19T08:15:01Z</time></trkpt><trkpt lat="43.872858919017695" lon="11.343911969518198"><ele>495.0</ele><time>2026-04-19T08:15:02Z</time></trkpt><trkpt lat="43.87302964007221" lon="11.343791013446976"><ele>495.0</ele><time>2026-04-19T08:15:03Z</time></trkpt><trkpt lat="43.873181047236564" lon="11.343642894307667"><ele>495.0</ele><time>2026-04-19T08:15:04Z</time></trkpt><trkpt lat="43.87331994516541" lon="11.343484201405314"><ele>495.0</ele><time>2026-04-19T08:15:05Z</time></trkpt><trkpt lat="43.873475833777704" lon="11.343377583590819"><ele>494.0</ele><time>2026-04-19T08:15:06Z</time></trkpt><trkpt lat="43.87363742903358" lon="11.343327410601637"><ele>493.0</ele><time>2026-04-19T08:15:07Z</time></trkpt><trkpt lat="43.87382533122618" lon="11.343301919165912"><ele>492.0</ele><time>2026-04-19T08:15:08Z</time></trkpt><trkpt lat="43.87402479924793" lon="11.343255094675548"><ele>492.0</ele><time>2026-04-19T08:15:09Z</time></trkpt><trkpt lat="43.87422168844565" lon="11.34323112179522"><ele>492.0</ele><time>2026-04-19T08:15:10Z</time></trkpt><trkpt lat="43.8744174213288" lon="11.34320562506255"><ele>492.0</ele><time>2026-04-19T08:15:11Z</time></trkpt><trkpt lat="43.874607838743195" lon="11.34317632581634"><ele>491.0</ele><time>2026-04-19T08:15:12Z</time></trkpt><trkpt lat="43.874790229484" lon="11.343157120212153"><ele>490.0</ele><time>2026-04-19T08:15:13Z</time></trkpt><trkpt lat="43.87496821742968" lon="11.34316322372265"><ele>489.0</ele><time>2026-04-19T08:15:14Z</time></trkpt><trkpt lat="43.87513729774857" lon="11.343249182978234"><ele>489.0</ele><time>2026-04-19T08:15:15Z</time></trkpt><trkpt lat="43.87531367103897" lon="11.343361019096525"><ele>489.0</ele><time>2026-04-19T08:15:16Z</time></trkpt><trkpt lat="43.875493962462244" lon="11.343482860840359"><ele>489.0</ele><time>2026-04-19T08:15:17Z</time></trkpt><trkpt lat="43.87566848516365" lon="11.343587786244537"><ele>489.0</ele><time>2026-04-19T08:15:18Z</time></trkpt><trkpt lat="43.875825856727566" lon="11.343700170131466"><ele>489.0</ele><time>2026-04-19T08:15:19Z</time></trkpt><trkpt lat="43.875982107621674" lon="11.343804187379622"><ele>489.0</ele><time>2026-04-19T08:15:20Z</time></trkpt><trkpt lat="43.87613460552299" lon="11.34389743951236"><ele>486.66666666666663</ele><time>2026-04-19T08:15:21Z</time></trkpt><trkpt lat="43.87629497465203" lon="11.343964764826724"><ele>484.3333333333333</ele><time>2026-04-19T08:15:22Z</time></trkpt><trkpt lat="43.87647229529611" lon="11.344009872283085"><ele>482.0</ele><time>2026-04-19T08:15:23Z</time></trkpt><trkpt lat="43.87666853913534" lon="11.344013469166804"><ele>482.0</ele><time>2026-04-19T08:15:24Z</time></trkpt><trkpt lat="43.876868004081565" lon="11.344013632099989"><ele>482.0</ele><time>2026-04-19T08:15:25Z</time></trkpt><trkpt lat="43.877052289378945" lon="11.344017864928905"><ele>482.0</ele><time>2026-04-19T08:15:26Z</time></trkpt><trkpt lat="43.87722689511966" lon="11.344036831185544"><ele>482.0</ele><time>2026-04-19T08:15:27Z</time></trkpt><trkpt lat="43.877393465844044" lon="11.344063429503954"><ele>482.0</ele><time>2026-04-19T08:15:28Z</time></trkpt><trkpt lat="43.87755006208096" lon="11.344117058039426"><ele>482.0</ele><time>2026-04-19T08:15:29Z</time></trkpt><trkpt lat="43.87771009603852" lon="11.34417218363585"><ele>482.3333333333333</ele><time>2026-04-19T08:15:30Z</time></trkpt><trkpt lat="43.87786785939262" lon="11.344208010755889"><ele>482.66666666666663</ele><time>2026-04-19T08:15:31Z</time></trkpt><trkpt lat="43.87801269667399" lon="11.344270571190584"><ele>483.0</ele><time>2026-04-19T08:15:32Z</time></trkpt><trkpt lat="43.878155194808336" lon="11.344347033678273"><ele>483.0</ele><time>2026-04-19T08:15:33Z</time></trkpt><trkpt lat="43.87831548760502" lon="11.344409038694526"><ele>483.0</ele><time>2026-04-19T08:15:34Z</time></trkpt><trkpt lat="43.878502037897874" lon="11.344434149928038"><ele>483.0</ele><time>2026-04-19T08:15:35Z</time></trkpt><trkpt lat="43.878693681745744" lon="11.344376588009101"><ele>483.0</ele><time>2026-04-19T08:15:36Z</time></trkpt><trkpt lat="43.878872432133335" lon="11.344361112663632"><ele>483.0</ele><time>2026-04-19T08:15:37Z</time></trkpt><trkpt lat="43.879031085711325" lon="11.344439519176266"><ele>483.0</ele><time>2026-04-19T08:15:38Z</time></trkpt><trkpt lat="43.879175577527256" lon="11.344537195826224"><ele>482.66666666666663</ele><time>2026-04-19T08:15:39Z</time></trkpt><trkpt lat="43.87927618888171" lon="11.34470846117623"><ele>482.3333333333333</ele><time>2026-04-19T08:15:40Z</time></trkpt><trkpt lat="43.8793647763383" lon="11.344922136539317"><ele>482.0</ele><time>2026-04-19T08:15:41Z</time></trkpt><trkpt lat="43.87947427393336" lon="11.345147686703667"><ele>482.0</ele><time>2026-04-19T08:15:42Z</time></trkpt><trkpt lat="43.87957361423904" lon="11.34535689042837"><ele>482.0</ele><time>2026-04-19T08:15:43Z</time></trkpt><trkpt lat="43.8796783083023" lon="11.34554499032294"><ele>482.0</ele><time>2026-04-19T08:15:44Z</time></trkpt><trkpt lat="43.879795520291424" lon="11.345718423327583"><ele>482.3333333333333</ele><time>2026-04-19T08:15:45Z</time></trkpt><trkpt lat="43.87992827179846" lon="11.345868892882743"><ele>482.66666666666663</ele><time>2026-04-19T08:15:46Z</time></trkpt><trkpt lat="43.88006574352361" lon="11.346016760196688"><ele>483.0</ele><time>2026-04-19T08:15:47Z</time></trkpt><trkpt lat="43.8801940614474" lon="11.346163820781138"><ele>483.0</ele><time>2026-04-19T08:15:48Z</time></trkpt><trkpt lat="43.88033082033523" lon="11.346301541444179"><ele>483.0</ele><time>2026-04-19T08:15:49Z</time></trkpt><trkpt lat="43.88048670687586" lon="11.346404131074582"><ele>483.0</ele><time>2026-04-19T08:15:50Z</time></trkpt><trkpt lat="43.88065842169413" lon="11.346477074323515"><ele>481.33333333333337</ele><time>2026-04-19T08:15:51Z</time></trkpt><trkpt lat="43.8808374512816" lon="11.346533733342081"><ele>479.6666666666667</ele><time>2026-04-19T08:15:52Z</time></trkpt><trkpt lat="43.88101137147403" lon="11.346594505570161"><ele>478.0</ele><time>2026-04-19T08:15:53Z</time></trkpt><trkpt lat="43.881161486771866" lon="11.346702735595878"><ele>478.0</ele><time>2026-04-19T08:15:54Z</time></trkpt><trkpt lat="43.88131164385591" lon="11.34680817237017"><ele>478.0</ele><time>2026-04-19T08:15:55Z</time></trkpt><trkpt lat="43.88145961245718" lon="11.346919634424474"><ele>478.0</ele><time>2026-04-19T08:15:56Z</time></trkpt><trkpt lat="43.881597201332916" lon="11.347032554272394"><ele>478.0</ele><time>2026-04-19T08:15:57Z</time></trkpt><trkpt lat="43.881727750266435" lon="11.347157891787177"><ele>478.0</ele><time>2026-04-19T08:15:58Z</time></trkpt><trkpt lat="43.8818254094977" lon="11.347312462295545"><ele>478.0</ele><time>2026-04-19T08:15:59Z</time></trkpt><trkpt lat="43.881895920643565" lon="11.347504720936307"><ele>475.6666666666667</ele><time>2026-04-19T08:16:00Z</time></trkpt><trkpt lat="43.881931398338935" lon="11.34773706954853"><ele>473.33333333333337</ele><time>2026-04-19T08:16:01Z</time></trkpt><trkpt lat="43.881932908302765" lon="11.347966226121002"><ele>471.0</ele><time>2026-04-19T08:16:02Z</time></trkpt><trkpt lat="43.881940514307196" lon="11.34819043282719"><ele>468.33333333333337</ele><time>2026-04-19T08:16:03Z</time></trkpt><trkpt lat="43.88195995130686" lon="11.348400148651443"><ele>465.6666666666667</ele><time>2026-04-19T08:16:04Z</time></trkpt><trkpt lat="43.88203749985782" lon="11.348586631353944"><ele>463.0</ele><time>2026-04-19T08:16:05Z</time></trkpt><trkpt lat="43.88215440336139" lon="11.348753312530777"><ele>460.25</ele><time>2026-04-19T08:16:06Z</time></trkpt><trkpt lat="43.88227024872828" lon="11.34890393523154"><ele>457.5</ele><time>2026-04-19T08:16:07Z</time></trkpt><trkpt lat="43.882374098507434" lon="11.349041702899106"><ele>454.75</ele><time>2026-04-19T08:16:08Z</time></trkpt><trkpt lat="43.88246425481482" lon="11.349168702332527"><ele>452.0</ele><time>2026-04-19T08:16:09Z</time></trkpt><trkpt lat="43.88254670510293" lon="11.349283113701835"><ele>452.6</ele><time>2026-04-19T08:16:10Z</time></trkpt><trkpt lat="43.88265634394205" lon="11.349358846283085"><ele>453.20000000000005</ele><time>2026-04-19T08:16:11Z</time></trkpt><trkpt lat="43.882758304026886" lon="11.349418118291839"><ele>453.8</ele><time>2026-04-19T08:16:12Z</time></trkpt><trkpt lat="43.88286268012489" lon="11.34944858931021"><ele>454.4</ele><time>2026-04-19T08:16:13Z</time></trkpt><trkpt lat="43.88296754217365" lon="11.34946875560464"><ele>455.0</ele><time>2026-04-19T08:16:14Z</time></trkpt><trkpt lat="43.883077055463204" lon="11.349489229550526"><ele>455.0</ele><time>2026-04-19T08:16:15Z</time></trkpt><trkpt lat="43.88319065076283" lon="11.349515317342792"><ele>455.0</ele><time>2026-04-19T08:16:16Z</time></trkpt><trkpt lat="43.88329678456399" lon="11.349540009017668"><ele>455.0</ele><time>2026-04-19T08:16:17Z</time></trkpt><trkpt lat="43.883402004380265" lon="11.349566364173924"><ele>455.0</ele><time>2026-04-19T08:16:18Z</time></trkpt><trkpt lat="43.88351264522281" lon="11.349592078022038"><ele>455.0</ele><time>2026-04-19T08:16:19Z</time></trkpt><trkpt lat="43.88362549482561" lon="11.349618472342426"><ele>455.75</ele><time>2026-04-19T08:16:20Z</time></trkpt><trkpt lat="43.8837388079592" lon="11.349656021729768"><ele>456.5</ele><time>2026-04-19T08:16:21Z</time></trkpt><trkpt lat="43.88383794467655" lon="11.349748743004046"><ele>457.25</ele><time>2026-04-19T08:16:22Z</time></trkpt><trkpt lat="43.883947297846035" lon="11.3498337199363"><ele>458.0</ele><time>2026-04-19T08:16:23Z</time></trkpt><trkpt lat="43.884024685338574" lon="11.349969949104981"><ele>457.0</ele><time>2026-04-19T08:16:24Z</time></trkpt><trkpt lat="43.884081676258866" lon="11.350113831046299"><ele>455.99999999999994</ele><time>2026-04-19T08:16:25Z</time></trkpt><trkpt lat="43.88415082827254" lon="11.350232180196834"><ele>454.99999999999994</ele><time>2026-04-19T08:16:26Z</time></trkpt><trkpt lat="43.884225580872545" lon="11.35032763442897"><ele>454.0</ele><time>2026-04-19T08:16:27Z</time></trkpt><trkpt lat="43.88429587429757" lon="11.350417232830557"><ele>453.0</ele><time>2026-04-19T08:16:28Z</time></trkpt><trkpt lat="43.88436259059779" lon="11.350502272747509"><ele>451.33333333333337</ele><time>2026-04-19T08:16:29Z</time></trkpt><trkpt lat="43.88440469966968" lon="11.350611043900543"><ele>449.6666666666667</ele><time>2026-04-19T08:16:30Z</time></trkpt><trkpt lat="43.88446171515768" lon="11.350715983170222"><ele>448.0</ele><time>2026-04-19T08:16:31Z</time></trkpt><trkpt lat="43.88423454427385" lon="11.35126875950365"><ele>447.59999999999997</ele><time>2026-04-19T08:16:32Z</time></trkpt><trkpt lat="43.88425051748154" lon="11.351436972010148"><ele>447.19999999999993</ele><time>2026-04-19T08:16:33Z</time></trkpt><trkpt lat="43.88427466281635" lon="11.351588157344864"><ele>446.8</ele><time>2026-04-19T08:16:34Z</time></trkpt><trkpt lat="43.884315533969875" lon="11.351720005928767"><ele>446.4</ele><time>2026-04-19T08:16:35Z</time></trkpt><trkpt lat="43.88437880665821" lon="11.351819822243614"><ele>446.0</ele><time>2026-04-19T08:16:36Z</time></trkpt><trkpt lat="43.884459037446064" lon="11.351890676918734"><ele>446.0</ele><time>2026-04-19T08:16:37Z</time></trkpt><trkpt lat="43.884471004972454" lon="11.352034928286544"><ele>446.0</ele><time>2026-04-19T08:16:38Z</time></trkpt><trkpt lat="43.88542566013957" lon="11.351129603917773"><ele>446.75</ele><time>2026-04-19T08:16:39Z</time></trkpt><trkpt lat="43.88552789034868" lon="11.351193311766725"><ele>447.5</ele><time>2026-04-19T08:16:40Z</time></trkpt><trkpt lat="43.885645118223614" lon="11.351226976420199"><ele>448.25</ele><time>2026-04-19T08:16:41Z</time></trkpt><trkpt lat="43.885770924385056" lon="11.351281404859158"><ele>449.0</ele><time>2026-04-19T08:16:42Z</time></trkpt><trkpt lat="43.88590833807654" lon="11.351339388193558"><ele>447.66666666666663</ele><time>2026-04-19T08:16:43Z</time></trkpt><trkpt lat="43.88605556759669" lon="11.351409973595574"><ele>446.33333333333337</ele><time>2026-04-19T08:16:44Z</time></trkpt><trkpt lat="43.88621477374239" lon="11.351486065016008"><ele>445.0</ele><time>2026-04-19T08:16:45Z</time></trkpt><trkpt lat="43.88637870649767" lon="11.351567443524186"><ele>445.0</ele><time>2026-04-19T08:16:46Z</time></trkpt><trkpt lat="43.88652939609213" lon="11.351684538126568"><ele>445.0</ele><time>2026-04-19T08:16:47Z</time></trkpt><trkpt lat="43.88666629392588" lon="11.351800070787906"><ele>445.0</ele><time>2026-04-19T08:16:48Z</time></trkpt><trkpt lat="43.88679066116113" lon="11.351920556280392"><ele>447.75</ele><time>2026-04-19T08:16:49Z</time></trkpt><trkpt lat="43.886923363532986" lon="11.35200366037926"><ele>450.5</ele><time>2026-04-19T08:16:50Z</time></trkpt><trkpt lat="43.88705872906683" lon="11.352061812154975"><ele>453.25</ele><time>2026-04-19T08:16:51Z</time></trkpt><trkpt lat="43.887213577399656" lon="11.352048589674883"><ele>456.0</ele><time>2026-04-19T08:16:52Z</time></trkpt><trkpt lat="43.88738832198457" lon="11.35199511737481"><ele>456.0</ele><time>2026-04-19T08:16:53Z</time></trkpt><trkpt lat="43.88756209269476" lon="11.351927520747576"><ele>456.0</ele><time>2026-04-19T08:16:54Z</time></trkpt><trkpt lat="43.887738907065426" lon="11.351840447514427"><ele>456.0</ele><time>2026-04-19T08:16:55Z</time></trkpt><trkpt lat="43.887903593224145" lon="11.351786625921914"><ele>459.0</ele><time>2026-04-19T08:16:56Z</time></trkpt><trkpt lat="43.88805502992976" lon="11.351755869108159"><ele>462.0</ele><time>2026-04-19T08:16:57Z</time></trkpt><trkpt lat="43.88820715762147" lon="11.351833663312528"><ele>465.0</ele><time>2026-04-19T08:16:58Z</time></trkpt><trkpt lat="43.88835837335485" lon="11.351937755887727"><ele>460.0</ele><time>2026-04-19T08:16:59Z</time></trkpt><trkpt lat="43.888516725400606" lon="11.35205267723419"><ele>455.0</ele><time>2026-04-19T08:17:00Z</time></trkpt><trkpt lat="43.888668798418074" lon="11.352171378436166"><ele>450.0</ele><time>2026-04-19T08:17:01Z</time></trkpt><trkpt lat="43.88877534728784" lon="11.352354741133746"><ele>450.0</ele><time>2026-04-19T08:17:02Z</time></trkpt><trkpt lat="43.88888497837082" lon="11.35255621806585"><ele>450.0</ele><time>2026-04-19T08:17:03Z</time></trkpt><trkpt lat="43.889008473986785" lon="11.352735656449264"><ele>450.0</ele><time>2026-04-19T08:17:04Z</time></trkpt><trkpt lat="43.88912866597052" lon="11.352904337752936"><ele>446.33333333333337</ele><time>2026-04-19T08:17:05Z</time></trkpt><trkpt lat="43.889255830844405" lon="11.353053161704015"><ele>442.6666666666667</ele><time>2026-04-19T08:17:06Z</time></trkpt><trkpt lat="43.889383314764366" lon="11.353178823354632"><ele>439.0</ele><time>2026-04-19T08:17:07Z</time></trkpt><trkpt lat="43.88950756199843" lon="11.35327722704239"><ele>438.5</ele><time>2026-04-19T08:17:08Z</time></trkpt><trkpt lat="43.889616603664834" lon="11.353369302012691"><ele>438.0</ele><time>2026-04-19T08:17:09Z</time></trkpt><trkpt lat="43.889722681794886" lon="11.353460209910008"><ele>437.5</ele><time>2026-04-19T08:17:10Z</time></trkpt><trkpt lat="43.889829854560695" lon="11.353546070792124"><ele>437.0</ele><time>2026-04-19T08:17:11Z</time></trkpt><trkpt lat="43.889943188867655" lon="11.353608793773864"><ele>437.0</ele><time>2026-04-19T08:17:12Z</time></trkpt><trkpt lat="43.89005771210356" lon="11.353654738558411"><ele>437.0</ele><time>2026-04-19T08:17:13Z</time></trkpt><trkpt lat="43.890174427903354" lon="11.353672864260174"><ele>437.0</ele><time>2026-04-19T08:17:14Z</time></trkpt><trkpt lat="43.89029542531193" lon="11.353680741094504"><ele>437.0</ele><time>2026-04-19T08:17:15Z</time></trkpt><trkpt lat="43.890411691411614" lon="11.353696466144056"><ele>439.25</ele><time>2026-04-19T08:17:16Z</time></trkpt><trkpt lat="43.890520814379876" lon="11.353700856862785"><ele>441.5</ele><time>2026-04-19T08:17:17Z</time></trkpt><trkpt lat="43.89062628800892" lon="11.353741397731874"><ele>443.75</ele><time>2026-04-19T08:17:18Z</time></trkpt><trkpt lat="43.890739416661056" lon="11.35377975218664"><ele>446.0</ele><time>2026-04-19T08:17:19Z</time></trkpt><trkpt lat="43.89085565908508" lon="11.353851234725443"><ele>443.5</ele><time>2026-04-19T08:17:20Z</time></trkpt><trkpt lat="43.89096204746191" lon="11.353975288753373"><ele>441.0</ele><time>2026-04-19T08:17:21Z</time></trkpt><trkpt lat="43.891032126272165" lon="11.354147288183032"><ele>438.5</ele><time>2026-04-19T08:17:22Z</time></trkpt><trkpt lat="43.89110597673214" lon="11.354347720318929"><ele>436.0</ele><time>2026-04-19T08:17:23Z</time></trkpt><trkpt lat="43.891155906449164" lon="11.354588619855265"><ele>429.33333333333337</ele><time>2026-04-19T08:17:24Z</time></trkpt><trkpt lat="43.89122798971253" lon="11.354825477574735"><ele>422.66666666666663</ele><time>2026-04-19T08:17:25Z</time></trkpt><trkpt lat="43.89132282471413" lon="11.355029643257808"><ele>416.0</ele><time>2026-04-19T08:17:26Z</time></trkpt><trkpt lat="43.89144129932783" lon="11.355177482112092"><ele>416.0</ele><time>2026-04-19T08:17:27Z</time></trkpt><trkpt lat="43.89158552272042" lon="11.35527406931742"><ele>416.0</ele><time>2026-04-19T08:17:28Z</time></trkpt><trkpt lat="43.89175792155773" lon="11.355316061755003"><ele>416.0</ele><time>2026-04-19T08:17:29Z</time></trkpt><trkpt lat="43.89195558232103" lon="11.355324131241382"><ele>417.66666666666663</ele><time>2026-04-19T08:17:30Z</time></trkpt><trkpt lat="43.89215877178898" lon="11.355307405327856"><ele>419.33333333333337</ele><time>2026-04-19T08:17:31Z</time></trkpt><trkpt lat="43.892369912146705" lon="11.355260900008462"><ele>421.0</ele><time>2026-04-19T08:17:32Z</time></trkpt><trkpt lat="43.89258002851112" lon="11.355203836760898"><ele>415.0</ele><time>2026-04-19T08:17:33Z</time></trkpt><trkpt lat="43.89277542683802" lon="11.35514511647525"><ele>409.0</ele><time>2026-04-19T08:17:34Z</time></trkpt><trkpt lat="43.89296284034736" lon="11.355125834377395"><ele>403.0</ele><time>2026-04-19T08:17:35Z</time></trkpt><trkpt lat="43.893146281476135" lon="11.355106215421696"><ele>403.0</ele><time>2026-04-19T08:17:36Z</time></trkpt><trkpt lat="43.8933206765407" lon="11.35511429128353"><ele>403.0</ele><time>2026-04-19T08:17:37Z</time></trkpt><trkpt lat="43.893470364117015" lon="11.355134335314728"><ele>403.0</ele><time>2026-04-19T08:17:38Z</time></trkpt><trkpt lat="43.89359010054236" lon="11.355189697738668"><ele>403.0</ele><time>2026-04-19T08:17:39Z</time></trkpt><trkpt lat="43.893688075031186" lon="11.355279713599165"><ele>403.0</ele><time>2026-04-19T08:17:40Z</time></trkpt><trkpt lat="43.89378080089482" lon="11.35539800891815"><ele>403.0</ele><time>2026-04-19T08:17:41Z</time></trkpt><trkpt lat="43.893841040440954" lon="11.355581699853355"><ele>403.0</ele><time>2026-04-19T08:17:42Z</time></trkpt><trkpt lat="43.89390823729302" lon="11.355754862693676"><ele>399.6666666666667</ele><time>2026-04-19T08:17:43Z</time></trkpt><trkpt lat="43.89400894097286" lon="11.355932939424228"><ele>396.33333333333337</ele><time>2026-04-19T08:17:44Z</time></trkpt><trkpt lat="43.89414817155623" lon="11.356103516568362"><ele>393.0</ele><time>2026-04-19T08:17:45Z</time></trkpt><trkpt lat="43.89428981456487" lon="11.356268027087825"><ele>389.0</ele><time>2026-04-19T08:17:46Z</time></trkpt><trkpt lat="43.89440906067294" lon="11.356438934160595"><ele>385.0</ele><time>2026-04-19T08:17:47Z</time></trkpt><trkpt lat="43.89451947542712" lon="11.356602941008013"><ele>381.0</ele><time>2026-04-19T08:17:48Z</time></trkpt><trkpt lat="43.89461537987773" lon="11.356765495116099"><ele>381.0</ele><time>2026-04-19T08:17:49Z</time></trkpt><trkpt lat="43.89470151379166" lon="11.356867924550363"><ele>381.0</ele><time>2026-04-19T08:17:50Z</time></trkpt><trkpt lat="43.89478555256063" lon="11.3569492070855"><ele>381.0</ele><time>2026-04-19T08:17:51Z</time></trkpt><trkpt lat="43.89489012581899" lon="11.356964857351045"><ele>381.0</ele><time>2026-04-19T08:17:52Z</time></trkpt><trkpt lat="43.895020678057335" lon="11.356910860406165"><ele>380.0</ele><time>2026-04-19T08:17:53Z</time></trkpt><trkpt lat="43.89518207058123" lon="11.35683397724194"><ele>379.0</ele><time>2026-04-19T08:17:54Z</time></trkpt><trkpt lat="43.895346581602325" lon="11.356787531298982"><ele>378.0</ele><time>2026-04-19T08:17:55Z</time></trkpt><trkpt lat="43.89551394742763" lon="11.356806800516342"><ele>378.0</ele><time>2026-04-19T08:17:56Z</time></trkpt><trkpt lat="43.895668615360584" lon="11.356869362392107"><ele>378.0</ele><time>2026-04-19T08:17:57Z</time></trkpt><trkpt lat="43.895831097720325" lon="11.356911426528637"><ele>378.0</ele><time>2026-04-19T08:17:58Z</time></trkpt><trkpt lat="43.89600998910282" lon="11.356897970981603"><ele>376.25</ele><time>2026-04-19T08:17:59Z</time></trkpt><trkpt lat="43.89617120431884" lon="11.356832634579298"><ele>374.5</ele><time>2026-04-19T08:18:00Z</time></trkpt><trkpt lat="43.89630544656099" lon="11.356783946283496"><ele>372.75</ele><time>2026-04-19T08:18:01Z</time></trkpt><trkpt lat="43.89642794069862" lon="11.356736746543639"><ele>371.0</ele><time>2026-04-19T08:18:02Z</time></trkpt><trkpt lat="43.896530019498805" lon="11.356712645328816"><ele>371.0</ele><time>2026-04-19T08:18:03Z</time></trkpt><trkpt lat="43.89662881041235" lon="11.356688049210062"><ele>371.0</ele><time>2026-04-19T08:18:04Z</time></trkpt><trkpt lat="43.89673037664959" lon="11.356658898023957"><ele>371.0</ele><time>2026-04-19T08:18:05Z</time></trkpt><trkpt lat="43.896830263910914" lon="11.35662697937225"><ele>371.0</ele><time>2026-04-19T08:18:06Z</time></trkpt><trkpt lat="43.89693874232419" lon="11.356593369636876"><ele>371.0</ele><time>2026-04-19T08:18:07Z</time></trkpt><trkpt lat="43.89705604888343" lon="11.356559654266073"><ele>369.25</ele><time>2026-04-19T08:18:08Z</time></trkpt><trkpt lat="43.89717701136373" lon="11.356523963946739"><ele>367.5</ele><time>2026-04-19T08:18:09Z</time></trkpt><trkpt lat="43.89729763801786" lon="11.356485976776067"><ele>365.75</ele><time>2026-04-19T08:18:10Z</time></trkpt><trkpt lat="43.89741238518831" lon="11.356454680801141"><ele>364.0</ele><time>2026-04-19T08:18:11Z</time></trkpt><trkpt lat="43.897527223266856" lon="11.356434085629125"><ele>362.0</ele><time>2026-04-19T08:18:12Z</time></trkpt><trkpt lat="43.89764826884246" lon="11.356430724974727"><ele>360.0</ele><time>2026-04-19T08:18:13Z</time></trkpt><trkpt lat="43.89777077283845" lon="11.356451754399217"><ele>358.0</ele><time>2026-04-19T08:18:14Z</time></trkpt><trkpt lat="43.897887022895" lon="11.356505730364924"><ele>356.0</ele><time>2026-04-19T08:18:15Z</time></trkpt><trkpt lat="43.897991722684246" lon="11.356578650860149"><ele>356.0</ele><time>2026-04-19T08:18:16Z</time></trkpt><trkpt lat="43.898063480074974" lon="11.356693595068222"><ele>356.0</ele><time>2026-04-19T08:18:17Z</time></trkpt><trkpt lat="43.898139002856645" lon="11.356798947547519"><ele>356.0</ele><time>2026-04-19T08:18:18Z</time></trkpt><trkpt lat="43.8981576241732" lon="11.356958029588949"><ele>356.0</ele><time>2026-04-19T08:18:19Z</time></trkpt><trkpt lat="43.89816789859567" lon="11.357135232012514"><ele>354.75</ele><time>2026-04-19T08:18:20Z</time></trkpt><trkpt lat="43.89816417595266" lon="11.357341491573377"><ele>353.5</ele><time>2026-04-19T08:18:21Z</time></trkpt><trkpt lat="43.89816662424589" lon="11.357551973958497"><ele>352.25</ele><time>2026-04-19T08:18:22Z</time></trkpt><trkpt lat="43.89814332017475" lon="11.357746346677882"><ele>351.0</ele><time>2026-04-19T08:18:23Z</time></trkpt><trkpt lat="43.89809369065681" lon="11.357914937442366"><ele>349.75</ele><time>2026-04-19T08:18:24Z</time></trkpt><trkpt lat="43.89806079139777" lon="11.35807957343124"><ele>348.5</ele><time>2026-04-19T08:18:25Z</time></trkpt><trkpt lat="43.89798884189559" lon="11.358205415077286"><ele>347.25</ele><time>2026-04-19T08:18:26Z</time></trkpt><trkpt lat="43.897871366997826" lon="11.358306608676111"><ele>346.0</ele><time>2026-04-19T08:18:27Z</time></trkpt><trkpt lat="43.89775311889314" lon="11.35841292176062"><ele>346.0</ele><time>2026-04-19T08:18:28Z</time></trkpt><trkpt lat="43.89761537346847" lon="11.358471685811272"><ele>346.0</ele><time>2026-04-19T08:18:29Z</time></trkpt><trkpt lat="43.897484409285475" lon="11.358492337506148"><ele>346.0</ele><time>2026-04-19T08:18:30Z</time></trkpt><trkpt lat="43.897355724871026" lon="11.358480030433428"><ele>346.0</ele><time>2026-04-19T08:18:31Z</time></trkpt><trkpt lat="43.89723799194314" lon="11.358465453944536"><ele>346.66666666666663</ele><time>2026-04-19T08:18:32Z</time></trkpt><trkpt lat="43.897132168411886" lon="11.358452171895722"><ele>347.3333333333333</ele><time>2026-04-19T08:18:33Z</time></trkpt><trkpt lat="43.89703554410294" lon="11.35845301463595"><ele>348.0</ele><time>2026-04-19T08:18:34Z</time></trkpt><trkpt lat="43.8969510890346" lon="11.358447874843973"><ele>348.6666666666667</ele><time>2026-04-19T08:18:35Z</time></trkpt><trkpt lat="43.89687509931911" lon="11.358479328736218"><ele>349.33333333333337</ele><time>2026-04-19T08:18:36Z</time></trkpt><trkpt lat="43.89682238612441" lon="11.358556759109533"><ele>350.0</ele><time>2026-04-19T08:18:37Z</time></trkpt><trkpt lat="43.89681626879004" lon="11.35866506657176"><ele>350.0</ele><time>2026-04-19T08:18:38Z</time></trkpt><trkpt lat="43.8968612027149" lon="11.358782409968098"><ele>350.0</ele><time>2026-04-19T08:18:39Z</time></trkpt><trkpt lat="43.896947826968585" lon="11.358880295437697"><ele>350.0</ele><time>2026-04-19T08:18:40Z</time></trkpt><trkpt lat="43.89703492452079" lon="11.358963524231365"><ele>350.0</ele><time>2026-04-19T08:18:41Z</time></trkpt><trkpt lat="43.897127007574156" lon="11.359049114867416"><ele>350.0</ele><time>2026-04-19T08:18:42Z</time></trkpt><trkpt lat="43.897231221575645" lon="11.359146241806227"><ele>347.6666666666667</ele><time>2026-04-19T08:18:43Z</time></trkpt><trkpt lat="43.897333340676504" lon="11.359271782049758"><ele>345.3333333333333</ele><time>2026-04-19T08:18:44Z</time></trkpt><trkpt lat="43.897473852706604" lon="11.359385668970427"><ele>343.0</ele><time>2026-04-19T08:18:45Z</time></trkpt><trkpt lat="43.897610344321926" lon="11.359536263410968"><ele>341.66666666666663</ele><time>2026-04-19T08:18:46Z</time></trkpt><trkpt lat="43.89774308717694" lon="11.359659368569622"><ele>340.3333333333333</ele><time>2026-04-19T08:18:47Z</time></trkpt><trkpt lat="43.897892448045766" lon="11.359725185333751"><ele>339.0</ele><time>2026-04-19T08:18:48Z</time></trkpt><trkpt lat="43.898055971691164" lon="11.359724890588991"><ele>339.0</ele><time>2026-04-19T08:18:49Z</time></trkpt><trkpt lat="43.898221172020214" lon="11.359654579854425"><ele>339.0</ele><time>2026-04-19T08:18:50Z</time></trkpt><trkpt lat="43.89838436250435" lon="11.3595405780627"><ele>339.0</ele><time>2026-04-19T08:18:51Z</time></trkpt><trkpt lat="43.89853420131113" lon="11.359430273491004"><ele>336.25</ele><time>2026-04-19T08:18:52Z</time></trkpt><trkpt lat="43.898677781044114" lon="11.359340494308228"><ele>333.5</ele><time>2026-04-19T08:18:53Z</time></trkpt><trkpt lat="43.89880344141174" lon="11.359247341409976"><ele>330.75</ele><time>2026-04-19T08:18:54Z</time></trkpt><trkpt lat="43.89891950336193" lon="11.359132113873459"><ele>328.0</ele><time>2026-04-19T08:18:55Z</time></trkpt><trkpt lat="43.89901638469758" lon="11.358961820569306"><ele>329.66666666666663</ele><time>2026-04-19T08:18:56Z</time></trkpt><trkpt lat="43.89910537102538" lon="11.358752476591643"><ele>331.3333333333333</ele><time>2026-04-19T08:18:57Z</time></trkpt><trkpt lat="43.89919620008857" lon="11.358532339435296"><ele>333.0</ele><time>2026-04-19T08:18:58Z</time></trkpt><trkpt lat="43.8992964752644" lon="11.358304522573533"><ele>330.3333333333333</ele><time>2026-04-19T08:18:59Z</time></trkpt><trkpt lat="43.89940413004532" lon="11.358100531009047"><ele>327.66666666666663</ele><time>2026-04-19T08:19:00Z</time></trkpt><trkpt lat="43.89948796489708" lon="11.35789087920791"><ele>325.0</ele><time>2026-04-19T08:19:01Z</time></trkpt><trkpt lat="43.89959498574859" lon="11.357706557729667"><ele>325.0</ele><time>2026-04-19T08:19:02Z</time></trkpt><trkpt lat="43.899686864996056" lon="11.357516521200905"><ele>325.0</ele><time>2026-04-19T08:19:03Z</time></trkpt><trkpt lat="43.89978617738361" lon="11.357348155727038"><ele>325.0</ele><time>2026-04-19T08:19:04Z</time></trkpt><trkpt lat="43.89991000729549" lon="11.357213198477858"><ele>326.3333333333333</ele><time>2026-04-19T08:19:05Z</time></trkpt><trkpt lat="43.900071047061076" lon="11.3571239200705"><ele>327.6666666666667</ele><time>2026-04-19T08:19:06Z</time></trkpt><trkpt lat="43.90025660033618" lon="11.357060768348239"><ele>329.0</ele><time>2026-04-19T08:19:07Z</time></trkpt><trkpt lat="43.90045065568876" lon="11.356987795125997"><ele>329.0</ele><time>2026-04-19T08:19:08Z</time></trkpt><trkpt lat="43.90062886846927" lon="11.356949908598953"><ele>329.0</ele><time>2026-04-19T08:19:09Z</time></trkpt><trkpt lat="43.9007924248424" lon="11.356878618541446"><ele>329.0</ele><time>2026-04-19T08:19:10Z</time></trkpt><trkpt lat="43.90094014142967" lon="11.356751441832795"><ele>325.33333333333337</ele><time>2026-04-19T08:19:11Z</time></trkpt><trkpt lat="43.901066883679945" lon="11.35659761984592"><ele>321.6666666666667</ele><time>2026-04-19T08:19:12Z</time></trkpt><trkpt lat="43.90121407883093" lon="11.35649644191222"><ele>318.0</ele><time>2026-04-19T08:19:13Z</time></trkpt><trkpt lat="43.90137771669518" lon="11.356524809373653"><ele>318.0</ele><time>2026-04-19T08:19:14Z</time></trkpt><trkpt lat="43.90156054444634" lon="11.356518561883405"><ele>318.0</ele><time>2026-04-19T08:19:15Z</time></trkpt><trkpt lat="43.90175060077714" lon="11.356498540351614"><ele>318.0</ele><time>2026-04-19T08:19:16Z</time></trkpt><trkpt lat="43.90195805188215" lon="11.356439204342529"><ele>321.3333333333333</ele><time>2026-04-19T08:19:17Z</time></trkpt><trkpt lat="43.90215541495406" lon="11.356368619497069"><ele>324.66666666666663</ele><time>2026-04-19T08:19:18Z</time></trkpt><trkpt lat="43.90234665887884" lon="11.356311351586626"><ele>328.0</ele><time>2026-04-19T08:19:19Z</time></trkpt><trkpt lat="43.90253458942942" lon="11.356276858517896"><ele>323.0</ele><time>2026-04-19T08:19:20Z</time></trkpt><trkpt lat="43.90272253724547" lon="11.35631779261449"><ele>318.0</ele><time>2026-04-19T08:19:21Z</time></trkpt><trkpt lat="43.90291517867113" lon="11.356386222989578"><ele>313.0</ele><time>2026-04-19T08:19:22Z</time></trkpt><trkpt lat="43.90311691709102" lon="11.356465370437137"><ele>310.3333333333333</ele><time>2026-04-19T08:19:23Z</time></trkpt><trkpt lat="43.903289355253435" lon="11.356601108099037"><ele>307.6666666666667</ele><time>2026-04-19T08:19:24Z</time></trkpt><trkpt lat="43.903449178987955" lon="11.356750143002543"><ele>305.0</ele><time>2026-04-19T08:19:25Z</time></trkpt><trkpt lat="43.903612266713246" lon="11.356858769420093"><ele>303.6666666666667</ele><time>2026-04-19T08:19:26Z</time></trkpt><trkpt lat="43.90376869565369" lon="11.356918748852411"><ele>302.3333333333333</ele><time>2026-04-19T08:19:27Z</time></trkpt><trkpt lat="43.903924160102264" lon="11.356943537346693"><ele>301.0</ele><time>2026-04-19T08:19:28Z</time></trkpt><trkpt lat="43.90408574496064" lon="11.356923037650384"><ele>300.3333333333333</ele><time>2026-04-19T08:19:29Z</time></trkpt><trkpt lat="43.90425731174542" lon="11.356832653972965"><ele>299.6666666666667</ele><time>2026-04-19T08:19:30Z</time></trkpt><trkpt lat="43.904435096440935" lon="11.356694223034644"><ele>299.0</ele><time>2026-04-19T08:19:31Z</time></trkpt><trkpt lat="43.9045873359713" lon="11.356586522069426"><ele>299.0</ele><time>2026-04-19T08:19:32Z</time></trkpt><trkpt lat="43.904708755135424" lon="11.356507609543417"><ele>299.0</ele><time>2026-04-19T08:19:33Z</time></trkpt><trkpt lat="43.90483239966995" lon="11.356404028301158"><ele>299.0</ele><time>2026-04-19T08:19:34Z</time></trkpt><trkpt lat="43.90493071423316" lon="11.356250504565319"><ele>299.0</ele><time>2026-04-19T08:19:35Z</time></trkpt><trkpt lat="43.90501051685454" lon="11.356008977338538"><ele>299.0</ele><time>2026-04-19T08:19:36Z</time></trkpt><trkpt lat="43.90509713436506" lon="11.355721272208196"><ele>299.0</ele><time>2026-04-19T08:19:37Z</time></trkpt><trkpt lat="43.90519930467507" lon="11.35546086815548"><ele>299.0</ele><time>2026-04-19T08:19:38Z</time></trkpt><trkpt lat="43.90532183554558" lon="11.355162351715107"><ele>296.0</ele><time>2026-04-19T08:19:39Z</time></trkpt><trkpt lat="43.90540770132111" lon="11.354843001696954"><ele>293.0</ele><time>2026-04-19T08:19:40.001Z</time></trkpt><trkpt lat="43.90548745588217" lon="11.354553703062638"><ele>293.0</ele><time>2026-04-19T08:19:41.001Z</time></trkpt><trkpt lat="43.90558091719597" lon="11.354290727423985"><ele>293.0</ele><time>2026-04-19T08:19:42Z</time></trkpt><trkpt lat="43.90567965324063" lon="11.35404700332085"><ele>293.0</ele><time>2026-04-19T08:19:43Z</time></trkpt><trkpt lat="43.905825948329415" lon="11.353878340780375"><ele>291.0</ele><time>2026-04-19T08:19:44Z</time></trkpt><trkpt lat="43.90599220181415" lon="11.353703325187261"><ele>289.0</ele><time>2026-04-19T08:19:45Z</time></trkpt><trkpt lat="43.90619682262675" lon="11.353588605007916"><ele>287.0</ele><time>2026-04-19T08:19:46Z</time></trkpt><trkpt lat="43.90641449054076" lon="11.353509929054812"><ele>287.0</ele><time>2026-04-19T08:19:47Z</time></trkpt><trkpt lat="43.9066196205193" lon="11.353477453635394"><ele>287.0</ele><time>2026-04-19T08:19:48Z</time></trkpt><trkpt lat="43.9068350034866" lon="11.353463478146443"><ele>287.0</ele><time>2026-04-19T08:19:49Z</time></trkpt><trkpt lat="43.90706004931278" lon="11.35347062932098"><ele>287.0</ele><time>2026-04-19T08:19:50Z</time></trkpt><trkpt lat="43.90728412656233" lon="11.353472305437547"><ele>287.0</ele><time>2026-04-19T08:19:51Z</time></trkpt><trkpt lat="43.907507964467186" lon="11.353471284965128"><ele>287.0</ele><time>2026-04-19T08:19:52Z</time></trkpt><trkpt lat="43.907722275783556" lon="11.353468652072655"><ele>285.6666666666667</ele><time>2026-04-19T08:19:53Z</time></trkpt><trkpt lat="43.907929221164245" lon="11.353462478785486"><ele>284.3333333333333</ele><time>2026-04-19T08:19:54Z</time></trkpt><trkpt lat="43.908130827210606" lon="11.353460514480231"><ele>283.0</ele><time>2026-04-19T08:19:55Z</time></trkpt><trkpt lat="43.90834004135074" lon="11.353462706703821"><ele>282.66666666666663</ele><time>2026-04-19T08:19:56Z</time></trkpt><trkpt lat="43.90854063968022" lon="11.353463085425389"><ele>282.3333333333333</ele><time>2026-04-19T08:19:57Z</time></trkpt><trkpt lat="43.90874352446077" lon="11.353456487655938"><ele>282.0</ele><time>2026-04-19T08:19:58Z</time></trkpt><trkpt lat="43.90894433002315" lon="11.353451763467916"><ele>282.0</ele><time>2026-04-19T08:19:59Z</time></trkpt><trkpt lat="43.909139922478296" lon="11.353455624051625"><ele>282.0</ele><time>2026-04-19T08:20:00Z</time></trkpt><trkpt lat="43.90933524080071" lon="11.353460174670484"><ele>282.0</ele><time>2026-04-19T08:20:01Z</time></trkpt><trkpt lat="43.90953495155839" lon="11.353477818390779"><ele>283.0</ele><time>2026-04-19T08:20:02Z</time></trkpt><trkpt lat="43.909730949453916" lon="11.353529211539016"><ele>284.0</ele><time>2026-04-19T08:20:03Z</time></trkpt><trkpt lat="43.90991451445534" lon="11.353597120796966"><ele>285.0</ele><time>2026-04-19T08:20:04Z</time></trkpt><trkpt lat="43.91008812495322" lon="11.35367249519315"><ele>285.0</ele><time>2026-04-19T08:20:05Z</time></trkpt><trkpt lat="43.910250229499944" lon="11.353758033849457"><ele>285.0</ele><time>2026-04-19T08:20:06Z</time></trkpt><trkpt lat="43.91041060340443" lon="11.353843046566276"><ele>285.0</ele><time>2026-04-19T08:20:07Z</time></trkpt><trkpt lat="43.91057043031499" lon="11.353941202506256"><ele>283.0</ele><time>2026-04-19T08:20:08Z</time></trkpt><trkpt lat="43.910732120262914" lon="11.35399991630649"><ele>281.0</ele><time>2026-04-19T08:20:09Z</time></trkpt><trkpt lat="43.91087613469298" lon="11.354003090815482"><ele>279.0</ele><time>2026-04-19T08:20:10Z</time></trkpt><trkpt lat="43.910996448052366" lon="11.353987496156849"><ele>277.0</ele><time>2026-04-19T08:20:11Z</time></trkpt><trkpt lat="43.91129795889598" lon="11.35384087150112"><ele>277.0</ele><time>2026-04-19T08:20:12Z</time></trkpt><trkpt lat="43.911462791094536" lon="11.35376398748856"><ele>277.0</ele><time>2026-04-19T08:20:13Z</time></trkpt><trkpt lat="43.911618605052965" lon="11.353683276420913"><ele>277.0</ele><time>2026-04-19T08:20:14Z</time></trkpt><trkpt lat="43.911769316304564" lon="11.353609764760572"><ele>277.25</ele><time>2026-04-19T08:20:15Z</time></trkpt><trkpt lat="43.91191271049857" lon="11.353540846766581"><ele>277.5</ele><time>2026-04-19T08:20:16Z</time></trkpt><trkpt lat="43.912052142572065" lon="11.353477845000183"><ele>277.75</ele><time>2026-04-19T08:20:17Z</time></trkpt><trkpt lat="43.91218285574336" lon="11.353413123233398"><ele>278.0</ele><time>2026-04-19T08:20:18Z</time></trkpt><trkpt lat="43.9123197463696" lon="11.353347437581444"><ele>278.0</ele><time>2026-04-19T08:20:19Z</time></trkpt><trkpt lat="43.91246473643311" lon="11.35328842575323"><ele>278.0</ele><time>2026-04-19T08:20:20Z</time></trkpt><trkpt lat="43.91260454795027" lon="11.353240791228838"><ele>278.0</ele><time>2026-04-19T08:20:21Z</time></trkpt><trkpt lat="43.912767935039234" lon="11.35323915846236"><ele>276.0</ele><time>2026-04-19T08:20:22Z</time></trkpt><trkpt lat="43.91294684048833" lon="11.353250991607215"><ele>274.0</ele><time>2026-04-19T08:20:23Z</time></trkpt><trkpt lat="43.91313231706517" lon="11.35328246366445"><ele>272.0</ele><time>2026-04-19T08:20:24Z</time></trkpt><trkpt lat="43.91330632125517" lon="11.353293290568338"><ele>273.0</ele><time>2026-04-19T08:20:25Z</time></trkpt><trkpt lat="43.91345822866716" lon="11.353338925230664"><ele>274.0</ele><time>2026-04-19T08:20:26Z</time></trkpt><trkpt lat="43.91361043093624" lon="11.353352988696335"><ele>275.0</ele><time>2026-04-19T08:20:27Z</time></trkpt><trkpt lat="43.91377274057436" lon="11.353322035799076"><ele>275.0</ele><time>2026-04-19T08:20:28Z</time></trkpt><trkpt lat="43.91394705035155" lon="11.35325241922247"><ele>275.0</ele><time>2026-04-19T08:20:29Z</time></trkpt><trkpt lat="43.91410909578306" lon="11.353185925560105"><ele>275.0</ele><time>2026-04-19T08:20:30Z</time></trkpt><trkpt lat="43.91426345482031" lon="11.353186149958653"><ele>274.0</ele><time>2026-04-19T08:20:31Z</time></trkpt><trkpt lat="43.914408869150535" lon="11.353224952063504"><ele>273.0</ele><time>2026-04-19T08:20:32Z</time></trkpt><trkpt lat="43.91455351681709" lon="11.353253157657756"><ele>272.0</ele><time>2026-04-19T08:20:33Z</time></trkpt><trkpt lat="43.91470043568602" lon="11.353291527107393"><ele>271.0</ele><time>2026-04-19T08:20:34Z</time></trkpt><trkpt lat="43.914874336184106" lon="11.353237367920642"><ele>271.0</ele><time>2026-04-19T08:20:35Z</time></trkpt><trkpt lat="43.915063421801925" lon="11.353147847436821"><ele>271.0</ele><time>2026-04-19T08:20:36Z</time></trkpt><trkpt lat="43.91526061730419" lon="11.353072789998226"><ele>271.0</ele><time>2026-04-19T08:20:37Z</time></trkpt><trkpt lat="43.915461774352266" lon="11.35299239962142"><ele>271.66666666666663</ele><time>2026-04-19T08:20:38Z</time></trkpt><trkpt lat="43.91565255489138" lon="11.352914535337634"><ele>272.3333333333333</ele><time>2026-04-19T08:20:39Z</time></trkpt><trkpt lat="43.91582944867853" lon="11.3528405348348"><ele>273.0</ele><time>2026-04-19T08:20:40Z</time></trkpt><trkpt lat="43.915996260205304" lon="11.352769056109631"><ele>275.3333333333333</ele><time>2026-04-19T08:20:41Z</time></trkpt><trkpt lat="43.91615505550156" lon="11.352703127271582"><ele>277.66666666666663</ele><time>2026-04-19T08:20:42Z</time></trkpt><trkpt lat="43.91631390640126" lon="11.352664020222127"><ele>280.0</ele><time>2026-04-19T08:20:43Z</time></trkpt><trkpt lat="43.91647079226641" lon="11.352683341428156"><ele>280.0</ele><time>2026-04-19T08:20:44Z</time></trkpt><trkpt lat="43.916637771583886" lon="11.352779508314763"><ele>280.0</ele><time>2026-04-19T08:20:45Z</time></trkpt><trkpt lat="43.91681936084603" lon="11.352901276330554"><ele>280.0</ele><time>2026-04-19T08:20:46Z</time></trkpt><trkpt lat="43.916982048958225" lon="11.353063678905224"><ele>276.3333333333333</ele><time>2026-04-19T08:20:47Z</time></trkpt><trkpt lat="43.917130274473784" lon="11.353196489011166"><ele>272.6666666666667</ele><time>2026-04-19T08:20:48Z</time></trkpt><trkpt lat="43.91727722819305" lon="11.353280992193062"><ele>269.0</ele><time>2026-04-19T08:20:49Z</time></trkpt><trkpt lat="43.91744936602184" lon="11.35330741815429"><ele>267.0</ele><time>2026-04-19T08:20:50Z</time></trkpt><trkpt lat="43.91765621540558" lon="11.353308120591665"><ele>265.0</ele><time>2026-04-19T08:20:51Z</time></trkpt><trkpt lat="43.917875922900684" lon="11.353313981235166"><ele>263.0</ele><time>2026-04-19T08:20:52Z</time></trkpt><trkpt lat="43.91810709715258" lon="11.353329200692862"><ele>263.0</ele><time>2026-04-19T08:20:53Z</time></trkpt><trkpt lat="43.91832926591127" lon="11.353357771560068"><ele>263.0</ele><time>2026-04-19T08:20:54Z</time></trkpt><trkpt lat="43.91853546657217" lon="11.353376370032173"><ele>263.0</ele><time>2026-04-19T08:20:55Z</time></trkpt><trkpt lat="43.918726795705076" lon="11.353398121574093"><ele>262.6666666666667</ele><time>2026-04-19T08:20:56Z</time></trkpt><trkpt lat="43.91890775195068" lon="11.353418841709214"><ele>262.3333333333333</ele><time>2026-04-19T08:20:57Z</time></trkpt><trkpt lat="43.919082290580555" lon="11.35342806803076"><ele>262.0</ele><time>2026-04-19T08:20:58Z</time></trkpt><trkpt lat="43.9192511838718" lon="11.35341437472803"><ele>262.3333333333333</ele><time>2026-04-19T08:20:59Z</time></trkpt><trkpt lat="43.91940631294303" lon="11.353330605494602"><ele>262.6666666666667</ele><time>2026-04-19T08:21:00Z</time></trkpt><trkpt lat="43.91954324269907" lon="11.35318808728862"><ele>263.0</ele><time>2026-04-19T08:21:01Z</time></trkpt><trkpt lat="43.919673729833896" lon="11.352986013036066"><ele>263.0</ele><time>2026-04-19T08:21:02Z</time></trkpt><trkpt lat="43.919798306397944" lon="11.352745010925657"><ele>263.0</ele><time>2026-04-19T08:21:03Z</time></trkpt><trkpt lat="43.9199181236591" lon="11.352485235239959"><ele>263.0</ele><time>2026-04-19T08:21:04Z</time></trkpt><trkpt lat="43.92002541148621" lon="11.352201648163144"><ele>265.33333333333337</ele><time>2026-04-19T08:21:05Z</time></trkpt><trkpt lat="43.92011027239833" lon="11.351908445325089"><ele>267.6666666666667</ele><time>2026-04-19T08:21:06Z</time></trkpt><trkpt lat="43.92018010093785" lon="11.351638568968044"><ele>270.0</ele><time>2026-04-19T08:21:07Z</time></trkpt><trkpt lat="43.92024683667022" lon="11.351381664642721"><ele>265.0</ele><time>2026-04-19T08:21:08Z</time></trkpt><trkpt lat="43.92032883412657" lon="11.35114499104507"><ele>260.0</ele><time>2026-04-19T08:21:09Z</time></trkpt><trkpt lat="43.92040692870981" lon="11.35092086482402"><ele>255.0</ele><time>2026-04-19T08:21:10Z</time></trkpt><trkpt lat="43.92051507698724" lon="11.350732037343299"><ele>255.0</ele><time>2026-04-19T08:21:11Z</time></trkpt><trkpt lat="43.920659083745356" lon="11.350572544853435"><ele>255.0</ele><time>2026-04-19T08:21:12Z</time></trkpt><trkpt lat="43.920839749284305" lon="11.35043920071064"><ele>255.0</ele><time>2026-04-19T08:21:13Z</time></trkpt><trkpt lat="43.921036358414796" lon="11.350314302890732"><ele>254.33333333333331</ele><time>2026-04-19T08:21:14Z</time></trkpt><trkpt lat="43.92121003366761" lon="11.350201880415169"><ele>253.66666666666666</ele><time>2026-04-19T08:21:15Z</time></trkpt><trkpt lat="43.92136526871881" lon="11.350082195025793"><ele>253.0</ele><time>2026-04-19T08:21:16Z</time></trkpt><trkpt lat="43.92151608173019" lon="11.34998486553425"><ele>253.0</ele><time>2026-04-19T08:21:17Z</time></trkpt><trkpt lat="43.92166247553756" lon="11.349912334327211"><ele>253.0</ele><time>2026-04-19T08:21:18Z</time></trkpt><trkpt lat="43.921791083300405" lon="11.349812578437808"><ele>253.0</ele><time>2026-04-19T08:21:19Z</time></trkpt><trkpt lat="43.921944319244574" lon="11.349787247962189"><ele>253.0</ele><time>2026-04-19T08:21:20Z</time></trkpt><trkpt lat="43.922113734405556" lon="11.349786732723038"><ele>253.0</ele><time>2026-04-19T08:21:21Z</time></trkpt><trkpt lat="43.92228662263793" lon="11.349830608182707"><ele>253.0</ele><time>2026-04-19T08:21:22Z</time></trkpt><trkpt lat="43.922458494407785" lon="11.349881493862775"><ele>252.0</ele><time>2026-04-19T08:21:23Z</time></trkpt><trkpt lat="43.92260384257725" lon="11.349945454392612"><ele>251.0</ele><time>2026-04-19T08:21:24Z</time></trkpt><trkpt lat="43.922777802543116" lon="11.349946555909995"><ele>250.0</ele><time>2026-04-19T08:21:25Z</time></trkpt><trkpt lat="43.92296251549633" lon="11.349890142581412"><ele>250.0</ele><time>2026-04-19T08:21:26Z</time></trkpt><trkpt lat="43.92314144481327" lon="11.349791816835785"><ele>250.0</ele><time>2026-04-19T08:21:27Z</time></trkpt><trkpt lat="43.923301662460815" lon="11.349672723147776"><ele>250.0</ele><time>2026-04-19T08:21:28Z</time></trkpt><trkpt lat="43.92344618166563" lon="11.349557196160829"><ele>248.25</ele><time>2026-04-19T08:21:29Z</time></trkpt><trkpt lat="43.92356249005731" lon="11.349433347400316"><ele>246.5</ele><time>2026-04-19T08:21:30Z</time></trkpt><trkpt lat="43.92365664556439" lon="11.349307164552423"><ele>244.75</ele><time>2026-04-19T08:21:31Z</time></trkpt><trkpt lat="43.9237334421145" lon="11.349191961902951"><ele>243.0</ele><time>2026-04-19T08:21:32Z</time></trkpt><trkpt lat="43.92381283717985" lon="11.349127775544071"><ele>243.0</ele><time>2026-04-19T08:21:33Z</time></trkpt><trkpt lat="43.92388417463948" lon="11.34906850440654"><ele>243.0</ele><time>2026-04-19T08:21:34.001Z</time></trkpt><trkpt lat="43.92397668670928" lon="11.349096147099296"><ele>243.0</ele><time>2026-04-19T08:21:35.001Z</time></trkpt><trkpt lat="43.924068604709824" lon="11.349179315601072"><ele>243.0</ele><time>2026-04-19T08:21:36.001Z</time></trkpt><trkpt lat="43.92415133286925" lon="11.349319553871593"><ele>243.0</ele><time>2026-04-19T08:21:37.001Z</time></trkpt><trkpt lat="43.92424194239516" lon="11.349479762551203"><ele>243.0</ele><time>2026-04-19T08:21:38.001Z</time></trkpt><trkpt lat="43.92436114463605" lon="11.349647320788137"><ele>243.0</ele><time>2026-04-19T08:21:39.001Z</time></trkpt><trkpt lat="43.92449084820975" lon="11.349833720640362"><ele>243.0</ele><time>2026-04-19T08:21:40.001Z</time></trkpt><trkpt lat="43.92462105793891" lon="11.350030469529981"><ele>243.0</ele><time>2026-04-19T08:21:41.001Z</time></trkpt><trkpt lat="43.924761964631585" lon="11.35021983426657"><ele>243.0</ele><time>2026-04-19T08:21:42.001Z</time></trkpt><trkpt lat="43.92491871577437" lon="11.350390349476"><ele>243.0</ele><time>2026-04-19T08:21:43.001Z</time></trkpt><trkpt lat="43.925097739635994" lon="11.35055064944846"><ele>242.33333333333331</ele><time>2026-04-19T08:21:44.001Z</time></trkpt><trkpt lat="43.92527928182773" lon="11.350702295608023"><ele>241.66666666666666</ele><time>2026-04-19T08:21:45.001Z</time></trkpt><trkpt lat="43.92544395808794" lon="11.350858138262682"><ele>241.0</ele><time>2026-04-19T08:21:46.001Z</time></trkpt><trkpt lat="43.92559469605379" lon="11.351006869801282"><ele>241.0</ele><time>2026-04-19T08:21:47.001Z</time></trkpt><trkpt lat="43.92574519430095" lon="11.351136946395858"><ele>241.0</ele><time>2026-04-19T08:21:48.001Z</time></trkpt><trkpt lat="43.92590117483337" lon="11.351250263095416"><ele>241.0</ele><time>2026-04-19T08:21:49.001Z</time></trkpt><trkpt lat="43.926083248301154" lon="11.351318127072602"><ele>241.0</ele><time>2026-04-19T08:21:50.001Z</time></trkpt><trkpt lat="43.92629129802199" lon="11.35132819020936"><ele>241.0</ele><time>2026-04-19T08:21:51.001Z</time></trkpt><trkpt lat="43.92650951227674" lon="11.351315568324136"><ele>241.0</ele><time>2026-04-19T08:21:52Z</time></trkpt><trkpt lat="43.92673177547515" lon="11.351285437938353"><ele>241.0</ele><time>2026-04-19T08:21:53Z</time></trkpt><trkpt lat="43.92694235330977" lon="11.351261612294552"><ele>241.0</ele><time>2026-04-19T08:21:54Z</time></trkpt><trkpt lat="43.92713709036533" lon="11.351251804474796"><ele>241.0</ele><time>2026-04-19T08:21:55Z</time></trkpt><trkpt lat="43.9273242065269" lon="11.351245999118907"><ele>241.0</ele><time>2026-04-19T08:21:56Z</time></trkpt><trkpt lat="43.92749997532887" lon="11.351232869746473"><ele>241.0</ele><time>2026-04-19T08:21:57Z</time></trkpt><trkpt lat="43.927671565830735" lon="11.35120960631866"><ele>241.0</ele><time>2026-04-19T08:21:58Z</time></trkpt><trkpt lat="43.92785061274648" lon="11.351160082298763"><ele>240.33333333333331</ele><time>2026-04-19T08:21:59Z</time></trkpt><trkpt lat="43.92803261016025" lon="11.351075429079081"><ele>239.66666666666669</ele><time>2026-04-19T08:22:00Z</time></trkpt><trkpt lat="43.92821778444238" lon="11.350986024955704"><ele>239.0</ele><time>2026-04-19T08:22:01Z</time></trkpt><trkpt lat="43.92839937582279" lon="11.350874650758561"><ele>239.0</ele><time>2026-04-19T08:22:02Z</time></trkpt><trkpt lat="43.92857998254575" lon="11.350746763721126"><ele>239.0</ele><time>2026-04-19T08:22:03Z</time></trkpt><trkpt lat="43.928754834430904" lon="11.350622473561376"><ele>239.0</ele><time>2026-04-19T08:22:04Z</time></trkpt><trkpt lat="43.92891496840644" lon="11.350498273676545"><ele>243.66666666666669</ele><time>2026-04-19T08:22:05Z</time></trkpt><trkpt lat="43.929068336406274" lon="11.350409218891302"><ele>248.33333333333331</ele><time>2026-04-19T08:22:06Z</time></trkpt><trkpt lat="43.92923186430573" lon="11.350343163964004"><ele>253.0</ele><time>2026-04-19T08:22:07Z</time></trkpt><trkpt lat="43.929403651780284" lon="11.350328600893297"><ele>256.66666666666663</ele><time>2026-04-19T08:22:08Z</time></trkpt><trkpt lat="43.92958443640704" lon="11.350334499089836"><ele>260.3333333333333</ele><time>2026-04-19T08:22:09Z</time></trkpt><trkpt lat="43.92977742225495" lon="11.350326480598678"><ele>264.0</ele><time>2026-04-19T08:22:10Z</time></trkpt><trkpt lat="43.92996276408428" lon="11.350346559853"><ele>263.3333333333333</ele><time>2026-04-19T08:22:11Z</time></trkpt><trkpt lat="43.930128833413654" lon="11.350367178375565"><ele>262.66666666666663</ele><time>2026-04-19T08:22:12Z</time></trkpt><trkpt lat="43.93027701623856" lon="11.350429692169582"><ele>262.0</ele><time>2026-04-19T08:22:13Z</time></trkpt><trkpt lat="43.93042940403829" lon="11.350523368066817"><ele>255.33333333333331</ele><time>2026-04-19T08:22:14Z</time></trkpt><trkpt lat="43.93058036578138" lon="11.350606664859615"><ele>248.66666666666669</ele><time>2026-04-19T08:22:15Z</time></trkpt><trkpt lat="43.930737360704015" lon="11.350657945129731"><ele>242.0</ele><time>2026-04-19T08:22:16Z</time></trkpt><trkpt lat="43.930900686165266" lon="11.350687650891539"><ele>241.25</ele><time>2026-04-19T08:22:17Z</time></trkpt><trkpt lat="43.931047415729715" lon="11.350706147027216"><ele>240.5</ele><time>2026-04-19T08:22:18Z</time></trkpt><trkpt lat="43.93119137173179" lon="11.350721433281981"><ele>239.75</ele><time>2026-04-19T08:22:19Z</time></trkpt><trkpt lat="43.93132283389949" lon="11.350726957632148"><ele>239.0</ele><time>2026-04-19T08:22:20Z</time></trkpt><trkpt lat="43.931452840935684" lon="11.350723353001145"><ele>239.0</ele><time>2026-04-19T08:22:21Z</time></trkpt><trkpt lat="43.931576421596745" lon="11.350689549818238"><ele>239.0</ele><time>2026-04-19T08:22:22Z</time></trkpt><trkpt lat="43.93169675594838" lon="11.350583106367898"><ele>239.0</ele><time>2026-04-19T08:22:23Z</time></trkpt><trkpt lat="43.93182237903996" lon="11.35040519049655"><ele>239.0</ele><time>2026-04-19T08:22:24Z</time></trkpt><trkpt lat="43.93197178620626" lon="11.35020788070066"><ele>238.0</ele><time>2026-04-19T08:22:25Z</time></trkpt><trkpt lat="43.932120447012565" lon="11.350012843293577"><ele>237.0</ele><time>2026-04-19T08:22:26Z</time></trkpt><trkpt lat="43.93225462038455" lon="11.349836033961484"><ele>236.0</ele><time>2026-04-19T08:22:27Z</time></trkpt><trkpt lat="43.93237191742462" lon="11.349667666515543"><ele>236.0</ele><time>2026-04-19T08:22:28Z</time></trkpt><trkpt lat="43.932491724476336" lon="11.349504938657239"><ele>236.0</ele><time>2026-04-19T08:22:29Z</time></trkpt><trkpt lat="43.932615694659134" lon="11.34935031212409"><ele>236.0</ele><time>2026-04-19T08:22:30Z</time></trkpt><trkpt lat="43.932733234438736" lon="11.349199743395431"><ele>237.0</ele><time>2026-04-19T08:22:31Z</time></trkpt><trkpt lat="43.932846008802784" lon="11.34904513691297"><ele>238.0</ele><time>2026-04-19T08:22:32Z</time></trkpt><trkpt lat="43.93297386311133" lon="11.348926320998533"><ele>239.0</ele><time>2026-04-19T08:22:33Z</time></trkpt><trkpt lat="43.93309534137765" lon="11.348825499845397"><ele>239.0</ele><time>2026-04-19T08:22:34Z</time></trkpt><trkpt lat="43.93322041473377" lon="11.348744058037246"><ele>239.0</ele><time>2026-04-19T08:22:35Z</time></trkpt><trkpt lat="43.933348072296916" lon="11.348668553028526"><ele>239.0</ele><time>2026-04-19T08:22:36Z</time></trkpt><trkpt lat="43.9334719111061" lon="11.348617765557737"><ele>239.0</ele><time>2026-04-19T08:22:37Z</time></trkpt><trkpt lat="43.9335972077792" lon="11.34857079429973"><ele>242.66666666666669</ele><time>2026-04-19T08:22:38Z</time></trkpt><trkpt lat="43.93374453879653" lon="11.348559447727432"><ele>246.33333333333331</ele><time>2026-04-19T08:22:39Z</time></trkpt><trkpt lat="43.93389861407135" lon="11.348617091749102"><ele>250.0</ele><time>2026-04-19T08:22:40Z</time></trkpt><trkpt lat="43.934034076411486" lon="11.348680850410892"><ele>250.0</ele><time>2026-04-19T08:22:41Z</time></trkpt><trkpt lat="43.934158303490506" lon="11.34877122381236"><ele>250.0</ele><time>2026-04-19T08:22:42Z</time></trkpt><trkpt lat="43.93428849164508" lon="11.348843881821466"><ele>250.0</ele><time>2026-04-19T08:22:43Z</time></trkpt><trkpt lat="43.934399639257315" lon="11.34893894206554"><ele>250.0</ele><time>2026-04-19T08:22:44Z</time></trkpt><trkpt lat="43.93451167193988" lon="11.349012004776853"><ele>246.4</ele><time>2026-04-19T08:22:45Z</time></trkpt><trkpt lat="43.93462839694914" lon="11.349073695312264"><ele>242.8</ele><time>2026-04-19T08:22:46Z</time></trkpt><trkpt lat="43.93472749890962" lon="11.349133668324615"><ele>239.2</ele><time>2026-04-19T08:22:47Z</time></trkpt><trkpt lat="43.9348204223173" lon="11.34918716817173"><ele>235.6</ele><time>2026-04-19T08:22:48Z</time></trkpt><trkpt lat="43.93490955164542" lon="11.349230290649194"><ele>232.0</ele><time>2026-04-19T08:22:49Z</time></trkpt><trkpt lat="43.93499382536744" lon="11.34924495264677"><ele>230.99999999999997</ele><time>2026-04-19T08:22:50Z</time></trkpt><trkpt lat="43.935070127618985" lon="11.349214526699024"><ele>230.0</ele><time>2026-04-19T08:22:51Z</time></trkpt><trkpt lat="43.93514536698459" lon="11.349152674342209"><ele>229.0</ele><time>2026-04-19T08:22:52Z</time></trkpt><trkpt lat="43.93519925940897" lon="11.349061376980798"><ele>228.0</ele><time>2026-04-19T08:22:53Z</time></trkpt><trkpt lat="43.9352325656047" lon="11.3489496593652"><ele>226.99999999999997</ele><time>2026-04-19T08:22:54Z</time></trkpt><trkpt lat="43.93525058849763" lon="11.348833865280612"><ele>226.0</ele><time>2026-04-19T08:22:55Z</time></trkpt><trkpt lat="43.93528132504472" lon="11.348693287656554"><ele>226.0</ele><time>2026-04-19T08:22:56Z</time></trkpt><trkpt lat="43.935297461488815" lon="11.348534547352786"><ele>226.0</ele><time>2026-04-19T08:22:57Z</time></trkpt><trkpt lat="43.93532288135018" lon="11.348351646591388"><ele>226.0</ele><time>2026-04-19T08:22:58Z</time></trkpt><trkpt lat="43.93537400185674" lon="11.348173339542736"><ele>226.0</ele><time>2026-04-19T08:22:59Z</time></trkpt><trkpt lat="43.93541153007532" lon="11.348004419205576"><ele>226.20000000000002</ele><time>2026-04-19T08:23:00Z</time></trkpt><trkpt lat="43.93547259207197" lon="11.347880508891265"><ele>226.40000000000003</ele><time>2026-04-19T08:23:01Z</time></trkpt><trkpt lat="43.93551952988692" lon="11.34774737708098"><ele>226.6</ele><time>2026-04-19T08:23:02Z</time></trkpt><trkpt lat="43.93555150069423" lon="11.347609047645125"><ele>226.8</ele><time>2026-04-19T08:23:03Z</time></trkpt><trkpt lat="43.93556282320315" lon="11.347460154339856"><ele>227.0</ele><time>2026-04-19T08:23:04Z</time></trkpt><trkpt lat="43.93556976125601" lon="11.347310234722093"><ele>227.0</ele><time>2026-04-19T08:23:05Z</time></trkpt><trkpt lat="43.93557466292187" lon="11.347180016900845"><ele>227.0</ele><time>2026-04-19T08:23:06Z</time></trkpt><trkpt lat="43.93558090629465" lon="11.347043539624806"><ele>227.0</ele><time>2026-04-19T08:23:07Z</time></trkpt><trkpt lat="43.935588111644044" lon="11.346906257973796"><ele>227.0</ele><time>2026-04-19T08:23:08Z</time></trkpt><trkpt lat="43.93558371481744" lon="11.346750558320652"><ele>227.0</ele><time>2026-04-19T08:23:09Z</time></trkpt><trkpt lat="43.93561743246221" lon="11.346591222623278"><ele>227.0</ele><time>2026-04-19T08:23:10Z</time></trkpt><trkpt lat="43.935627244931105" lon="11.346418119042553"><ele>227.0</ele><time>2026-04-19T08:23:11Z</time></trkpt><trkpt lat="43.93566415675233" lon="11.346255025327508"><ele>227.0</ele><time>2026-04-19T08:23:12Z</time></trkpt><trkpt lat="43.93569396330749" lon="11.34610578767485"><ele>227.0</ele><time>2026-04-19T08:23:13Z</time></trkpt><trkpt lat="43.935729486086196" lon="11.345975891205278"><ele>226.8</ele><time>2026-04-19T08:23:14Z</time></trkpt><trkpt lat="43.9357679435502" lon="11.345854909336897"><ele>226.6</ele><time>2026-04-19T08:23:15Z</time></trkpt><trkpt lat="43.935816700501505" lon="11.345726100895506"><ele>226.40000000000003</ele><time>2026-04-19T08:23:16Z</time></trkpt><trkpt lat="43.935879522299174" lon="11.345583950689539"><ele>226.20000000000002</ele><time>2026-04-19T08:23:17Z</time></trkpt><trkpt lat="43.93596595006478" lon="11.34545108706558"><ele>226.0</ele><time>2026-04-19T08:23:18Z</time></trkpt><trkpt lat="43.93608718015581" lon="11.345348838895776"><ele>225.0</ele><time>2026-04-19T08:23:19Z</time></trkpt><trkpt lat="43.9362174453944" lon="11.345252713442102"><ele>224.0</ele><time>2026-04-19T08:23:20Z</time></trkpt><trkpt lat="43.93633942178596" lon="11.345176954817397"><ele>223.0</ele><time>2026-04-19T08:23:21Z</time></trkpt><trkpt lat="43.93645714987115" lon="11.345115393458942"><ele>222.0</ele><time>2026-04-19T08:23:22Z</time></trkpt><trkpt lat="43.93656089160888" lon="11.345067519156869"><ele>222.0</ele><time>2026-04-19T08:23:23Z</time></trkpt><trkpt lat="43.936655408123556" lon="11.34502613891398"><ele>222.0</ele><time>2026-04-19T08:23:24Z</time></trkpt><trkpt lat="43.93674170586352" lon="11.34500067130254"><ele>222.0</ele><time>2026-04-19T08:23:25Z</time></trkpt><trkpt lat="43.93683558921354" lon="11.344999451932184"><ele>222.0</ele><time>2026-04-19T08:23:26Z</time></trkpt><trkpt lat="43.93694230808048" lon="11.34502451993509"><ele>222.0</ele><time>2026-04-19T08:23:27Z</time></trkpt><trkpt lat="43.937104845538364" lon="11.345092542899323"><ele>223.66666666666669</ele><time>2026-04-19T08:23:28Z</time></trkpt><trkpt lat="43.93727775459204" lon="11.345163318267355"><ele>225.33333333333334</ele><time>2026-04-19T08:23:29Z</time></trkpt><trkpt lat="43.93746355478404" lon="11.345244299407051"><ele>227.0</ele><time>2026-04-19T08:23:30Z</time></trkpt><trkpt lat="43.937647154096005" lon="11.345325290756573"><ele>229.33333333333334</ele><time>2026-04-19T08:23:31Z</time></trkpt><trkpt lat="43.93781436131864" lon="11.345396604853073"><ele>231.66666666666669</ele><time>2026-04-19T08:23:32Z</time></trkpt><trkpt lat="43.93797129251769" lon="11.345448026567716"><ele>234.0</ele><time>2026-04-19T08:23:33Z</time></trkpt><trkpt lat="43.93811873003741" lon="11.345502969104995"><ele>234.0</ele><time>2026-04-19T08:23:34Z</time></trkpt><trkpt lat="43.93826573577005" lon="11.345542562905443"><ele>234.0</ele><time>2026-04-19T08:23:35Z</time></trkpt><trkpt lat="43.93840427320384" lon="11.345581800253129"><ele>234.0</ele><time>2026-04-19T08:23:36Z</time></trkpt><trkpt lat="43.938531917298775" lon="11.34565188298962"><ele>234.0</ele><time>2026-04-19T08:23:37Z</time></trkpt><trkpt lat="43.93866705959117" lon="11.345722850681163"><ele>233.0</ele><time>2026-04-19T08:23:38Z</time></trkpt><trkpt lat="43.938801082751944" lon="11.345835173726831"><ele>232.0</ele><time>2026-04-19T08:23:39Z</time></trkpt><trkpt lat="43.93893348956731" lon="11.345953200002965"><ele>231.0</ele><time>2026-04-19T08:23:40Z</time></trkpt><trkpt lat="43.93905780213023" lon="11.346046378241843"><ele>231.0</ele><time>2026-04-19T08:23:41Z</time></trkpt><trkpt lat="43.939171608193405" lon="11.346144992769089"><ele>231.0</ele><time>2026-04-19T08:23:42Z</time></trkpt><trkpt lat="43.939281077237894" lon="11.3462278376008"><ele>231.0</ele><time>2026-04-19T08:23:43Z</time></trkpt><trkpt lat="43.93938673559804" lon="11.346294870418568"><ele>231.0</ele><time>2026-04-19T08:23:44Z</time></trkpt><trkpt lat="43.93949488017822" lon="11.346365943100142"><ele>231.75</ele><time>2026-04-19T08:23:45Z</time></trkpt><trkpt lat="43.9395846270897" lon="11.346476984716872"><ele>232.5</ele><time>2026-04-19T08:23:46Z</time></trkpt><trkpt lat="43.93968552520295" lon="11.34658492312165"><ele>233.25</ele><time>2026-04-19T08:23:47Z</time></trkpt><trkpt lat="43.939755764431354" lon="11.346717670363878"><ele>234.0</ele><time>2026-04-19T08:23:48Z</time></trkpt><trkpt lat="43.93981796077482" lon="11.346873812441741"><ele>234.0</ele><time>2026-04-19T08:23:49Z</time></trkpt><trkpt lat="43.939855472136045" lon="11.347059473238014"><ele>234.0</ele><time>2026-04-19T08:23:50Z</time></trkpt><trkpt lat="43.93985229142039" lon="11.34726686434216"><ele>234.0</ele><time>2026-04-19T08:23:51Z</time></trkpt><trkpt lat="43.93986295554681" lon="11.34747675359653"><ele>234.0</ele><time>2026-04-19T08:23:52Z</time></trkpt><trkpt lat="43.93988910895713" lon="11.347706873593747"><ele>231.66666666666669</ele><time>2026-04-19T08:23:53Z</time></trkpt><trkpt lat="43.939897209208986" lon="11.347951067491344"><ele>229.33333333333334</ele><time>2026-04-19T08:23:54Z</time></trkpt><trkpt lat="43.93990485287832" lon="11.348192167679867"><ele>227.0</ele><time>2026-04-19T08:23:55Z</time></trkpt><trkpt lat="43.93992116056204" lon="11.348434923990503"><ele>226.66666666666669</ele><time>2026-04-19T08:23:56Z</time></trkpt><trkpt lat="43.93996122738705" lon="11.348675264059244"><ele>226.33333333333331</ele><time>2026-04-19T08:23:57Z</time></trkpt><trkpt lat="43.94001366229441" lon="11.348892059043504"><ele>226.0</ele><time>2026-04-19T08:23:58Z</time></trkpt><trkpt lat="43.940057047651514" lon="11.349096793335676"><ele>231.75</ele><time>2026-04-19T08:23:59Z</time></trkpt><trkpt lat="43.94009258419344" lon="11.349295449925656"><ele>237.5</ele><time>2026-04-19T08:24:00Z</time></trkpt><trkpt lat="43.94012902458692" lon="11.349497553853979"><ele>243.25</ele><time>2026-04-19T08:24:01Z</time></trkpt><trkpt lat="43.940140586779954" lon="11.349700322856458"><ele>249.0</ele><time>2026-04-19T08:24:02Z</time></trkpt><trkpt lat="43.94015240272868" lon="11.349893487749874"><ele>249.33333333333331</ele><time>2026-04-19T08:24:03Z</time></trkpt><trkpt lat="43.94015539003921" lon="11.350099976826387"><ele>249.66666666666666</ele><time>2026-04-19T08:24:04Z</time></trkpt><trkpt lat="43.94017446785323" lon="11.35033156856867"><ele>250.0</ele><time>2026-04-19T08:24:05Z</time></trkpt><trkpt lat="43.940203197445356" lon="11.350569132398341"><ele>250.0</ele><time>2026-04-19T08:24:06Z</time></trkpt><trkpt lat="43.94023358959463" lon="11.35079888522704"><ele>250.0</ele><time>2026-04-19T08:24:07Z</time></trkpt><trkpt lat="43.94026515490699" lon="11.351019524022998"><ele>250.0</ele><time>2026-04-19T08:24:08Z</time></trkpt><trkpt lat="43.94029787717709" lon="11.351237113382009"><ele>247.66666666666666</ele><time>2026-04-19T08:24:09Z</time></trkpt><trkpt lat="43.94032287041435" lon="11.351454577134703"><ele>245.33333333333331</ele><time>2026-04-19T08:24:10Z</time></trkpt><trkpt lat="43.940323067311475" lon="11.351665118159547"><ele>243.0</ele><time>2026-04-19T08:24:11Z</time></trkpt><trkpt lat="43.94029969994296" lon="11.351882390690616"><ele>243.0</ele><time>2026-04-19T08:24:12Z</time></trkpt><trkpt lat="43.94024747909014" lon="11.352086408313388"><ele>243.0</ele><time>2026-04-19T08:24:13Z</time></trkpt><trkpt lat="43.94019903055045" lon="11.352291432301824"><ele>243.0</ele><time>2026-04-19T08:24:14Z</time></trkpt><trkpt lat="43.9401524182992" lon="11.352480432891785"><ele>240.75</ele><time>2026-04-19T08:24:15Z</time></trkpt><trkpt lat="43.9401198424327" lon="11.352674206370065"><ele>238.5</ele><time>2026-04-19T08:24:16Z</time></trkpt><trkpt lat="43.94010736907793" lon="11.352875179848517"><ele>236.25</ele><time>2026-04-19T08:24:17Z</time></trkpt><trkpt lat="43.94012371134202" lon="11.35308148171156"><ele>234.0</ele><time>2026-04-19T08:24:18Z</time></trkpt><trkpt lat="43.94017208389104" lon="11.353310478012503"><ele>231.0</ele><time>2026-04-19T08:24:19Z</time></trkpt><trkpt lat="43.94023047919189" lon="11.353562573997973"><ele>228.0</ele><time>2026-04-19T08:24:20Z</time></trkpt><trkpt lat="43.940293214196586" lon="11.353838549114966"><ele>225.0</ele><time>2026-04-19T08:24:21Z</time></trkpt><trkpt lat="43.94036174003272" lon="11.354136449167536"><ele>222.5</ele><time>2026-04-19T08:24:22Z</time></trkpt><trkpt lat="43.940437609810424" lon="11.354436574050323"><ele>220.0</ele><time>2026-04-19T08:24:23Z</time></trkpt><trkpt lat="43.94050591210971" lon="11.354732992084013"><ele>218.0</ele><time>2026-04-19T08:24:24Z</time></trkpt><trkpt lat="43.94059099607788" lon="11.355026857887465"><ele>216.0</ele><time>2026-04-19T08:24:25Z</time></trkpt><trkpt lat="43.94070198275561" lon="11.35531491347917"><ele>214.0</ele><time>2026-04-19T08:24:26Z</time></trkpt><trkpt lat="43.94083625839127" lon="11.355588264728501"><ele>212.0</ele><time>2026-04-19T08:24:27Z</time></trkpt><trkpt lat="43.94098870430417" lon="11.355855819473637"><ele>212.0</ele><time>2026-04-19T08:24:28Z</time></trkpt><trkpt lat="43.94114248579332" lon="11.356112989738874"><ele>212.0</ele><time>2026-04-19T08:24:29Z</time></trkpt><trkpt lat="43.94129533499583" lon="11.356371803268225"><ele>210.0</ele><time>2026-04-19T08:24:30Z</time></trkpt><trkpt lat="43.941448962298104" lon="11.356629018373903"><ele>208.0</ele><time>2026-04-19T08:24:31Z</time></trkpt><trkpt lat="43.94160408822227" lon="11.356887796336606"><ele>208.5</ele><time>2026-04-19T08:24:32Z</time></trkpt><trkpt lat="43.94176534701181" lon="11.357143924123687"><ele>209.0</ele><time>2026-04-19T08:24:33Z</time></trkpt><trkpt lat="43.941925925904734" lon="11.357388988007507"><ele>209.0</ele><time>2026-04-19T08:24:34Z</time></trkpt><trkpt lat="43.942076646744276" lon="11.35761858316833"><ele>209.0</ele><time>2026-04-19T08:24:35Z</time></trkpt><trkpt lat="43.94221680971908" lon="11.357842240431985"><ele>209.0</ele><time>2026-04-19T08:24:36Z</time></trkpt><trkpt lat="43.942347201826244" lon="11.35805335695506"><ele>208.33333333333334</ele><time>2026-04-19T08:24:36.999Z</time></trkpt><trkpt lat="43.94247014139246" lon="11.358242816251517"><ele>207.66666666666669</ele><time>2026-04-19T08:24:37.999Z</time></trkpt><trkpt lat="43.94258861576176" lon="11.358412222925685"><ele>207.0</ele><time>2026-04-19T08:24:38.999Z</time></trkpt><trkpt lat="43.94270489819269" lon="11.35856207949266"><ele>210.33333333333331</ele><time>2026-04-19T08:24:39.999Z</time></trkpt><trkpt lat="43.94283700259727" lon="11.358702673378334"><ele>213.66666666666666</ele><time>2026-04-19T08:24:40.999Z</time></trkpt><trkpt lat="43.942982596683414" lon="11.358805939367215"><ele>217.0</ele><time>2026-04-19T08:24:41.999Z</time></trkpt><trkpt lat="43.9431277965806" lon="11.35887978972683"><ele>217.0</ele><time>2026-04-19T08:24:42.999Z</time></trkpt><trkpt lat="43.943258936576" lon="11.358965920200186"><ele>217.0</ele><time>2026-04-19T08:24:43.999Z</time></trkpt><trkpt lat="43.9433746706305" lon="11.35906075258413"><ele>217.0</ele><time>2026-04-19T08:24:44.999Z</time></trkpt><trkpt lat="43.94349577886587" lon="11.35917283443665"><ele>217.0</ele><time>2026-04-19T08:24:45.999Z</time></trkpt><trkpt lat="43.94362580377283" lon="11.35929753886154"><ele>226.0</ele><time>2026-04-19T08:24:46.999Z</time></trkpt><trkpt lat="43.94376184958134" lon="11.359433429337951"><ele>235.0</ele><time>2026-04-19T08:24:47.999Z</time></trkpt><trkpt lat="43.943887469515666" lon="11.359566060331584"><ele>244.0</ele><time>2026-04-19T08:24:48.999Z</time></trkpt><trkpt lat="43.94400443554578" lon="11.359686478195144"><ele>237.75</ele><time>2026-04-19T08:24:49.999Z</time></trkpt><trkpt lat="43.94411804990758" lon="11.35980858473525"><ele>231.5</ele><time>2026-04-19T08:24:50.999Z</time></trkpt><trkpt lat="43.94422099859429" lon="11.359926916739512"><ele>225.25</ele><time>2026-04-19T08:24:51.999Z</time></trkpt><trkpt lat="43.94431853243695" lon="11.360039532376422"><ele>219.0</ele><time>2026-04-19T08:24:52.999Z</time></trkpt><trkpt lat="43.94440224621325" lon="11.360140416448955"><ele>219.0</ele><time>2026-04-19T08:24:53.999Z</time></trkpt><trkpt lat="43.94446544844248" lon="11.360241206558714"><ele>218.99999999999997</ele><time>2026-04-19T08:24:54.999Z</time></trkpt><trkpt lat="43.94452044204759" lon="11.36032175411219"><ele>218.99999999999997</ele><time>2026-04-19T08:24:55.999Z</time></trkpt><trkpt lat="43.9445579371233" lon="11.360400404372808"><ele>219.0</ele><time>2026-04-19T08:24:56.999Z</time></trkpt><trkpt lat="43.94472957149313" lon="11.360374777847113"><ele>219.0</ele><time>2026-04-19T08:24:58.999Z</time></trkpt><trkpt lat="43.94483002826406" lon="11.360317790255436"><ele>219.0</ele><time>2026-04-19T08:24:59.999Z</time></trkpt><trkpt lat="43.94494635590435" lon="11.360246852238847"><ele>219.0</ele><time>2026-04-19T08:25:00.999Z</time></trkpt><trkpt lat="43.94507709629664" lon="11.360180529208414"><ele>219.0</ele><time>2026-04-19T08:25:01.999Z</time></trkpt><trkpt lat="43.94521485612365" lon="11.360105217476102"><ele>219.0</ele><time>2026-04-19T08:25:02.999Z</time></trkpt><trkpt lat="43.94535143964511" lon="11.360001533893572"><ele>217.5</ele><time>2026-04-19T08:25:03.999Z</time></trkpt><trkpt lat="43.94548722927215" lon="11.35986090364175"><ele>216.0</ele><time>2026-04-19T08:25:04.999Z</time></trkpt><trkpt lat="43.94559786348332" lon="11.359722813124042"><ele>214.5</ele><time>2026-04-19T08:25:05.999Z</time></trkpt><trkpt lat="43.945707864928494" lon="11.359636953011758"><ele>213.0</ele><time>2026-04-19T08:25:06.999Z</time></trkpt><trkpt lat="43.945787173456154" lon="11.35952797148355"><ele>211.4</ele><time>2026-04-19T08:25:07.999Z</time></trkpt><trkpt lat="43.94588097831961" lon="11.359457613097355"><ele>209.8</ele><time>2026-04-19T08:25:08.999Z</time></trkpt><trkpt lat="43.94598284363547" lon="11.359412637379464"><ele>208.2</ele><time>2026-04-19T08:25:09.999Z</time></trkpt><trkpt lat="43.94609317127943" lon="11.359404764976134"><ele>206.6</ele><time>2026-04-19T08:25:10.999Z</time></trkpt><trkpt lat="43.94621094629954" lon="11.359416059301719"><ele>205.0</ele><time>2026-04-19T08:25:11.999Z</time></trkpt><trkpt lat="43.946342163456066" lon="11.359459710446465"><ele>205.0</ele><time>2026-04-19T08:25:12.999Z</time></trkpt><trkpt lat="43.94646492401916" lon="11.359529956266897"><ele>205.0</ele><time>2026-04-19T08:25:13.999Z</time></trkpt><trkpt lat="43.946574074541594" lon="11.35955689063062"><ele>205.0</ele><time>2026-04-19T08:25:14.999Z</time></trkpt><trkpt lat="43.9466445044478" lon="11.359811701572543"><ele>205.0</ele><time>2026-04-19T08:25:15.999Z</time></trkpt><trkpt lat="43.94673723120488" lon="11.360031096513106"><ele>203.66666666666666</ele><time>2026-04-19T08:25:16.999Z</time></trkpt><trkpt lat="43.946843345388146" lon="11.360247260590537"><ele>202.33333333333331</ele><time>2026-04-19T08:25:17.999Z</time></trkpt><trkpt lat="43.94695428651069" lon="11.360458605017765"><ele>201.0</ele><time>2026-04-19T08:25:18.999Z</time></trkpt><trkpt lat="43.9470706958855" lon="11.360664632017052"><ele>201.0</ele><time>2026-04-19T08:25:19.999Z</time></trkpt><trkpt lat="43.947190008893855" lon="11.3608608115103"><ele>201.0</ele><time>2026-04-19T08:25:20.999Z</time></trkpt><trkpt lat="43.9473154774651" lon="11.361045020557823"><ele>201.0</ele><time>2026-04-19T08:25:21.999Z</time></trkpt><trkpt lat="43.94745126804821" lon="11.36122382711757"><ele>201.0</ele><time>2026-04-19T08:25:22.999Z</time></trkpt><trkpt lat="43.94758879078407" lon="11.361399130892089"><ele>201.0</ele><time>2026-04-19T08:25:23.999Z</time></trkpt><trkpt lat="43.94773169616902" lon="11.361567398734438"><ele>201.0</ele><time>2026-04-19T08:25:24.999Z</time></trkpt><trkpt lat="43.94788406715193" lon="11.361728159279899"><ele>201.0</ele><time>2026-04-19T08:25:25.999Z</time></trkpt><trkpt lat="43.94804336741094" lon="11.361882954675913"><ele>201.0</ele><time>2026-04-19T08:25:26.999Z</time></trkpt><trkpt lat="43.948221376777994" lon="11.362034856878568"><ele>201.0</ele><time>2026-04-19T08:25:27.999Z</time></trkpt><trkpt lat="43.94840625398023" lon="11.362178949860521"><ele>199.66666666666669</ele><time>2026-04-19T08:25:28.999Z</time></trkpt><trkpt lat="43.948597914854695" lon="11.362320652156873"><ele>198.33333333333334</ele><time>2026-04-19T08:25:29.999Z</time></trkpt><trkpt lat="43.94879191693938" lon="11.362454092541194"><ele>197.0</ele><time>2026-04-19T08:25:30.999Z</time></trkpt><trkpt lat="43.94899048860548" lon="11.362576705175453"><ele>197.0</ele><time>2026-04-19T08:25:31.999Z</time></trkpt><trkpt lat="43.94918943687711" lon="11.362696851577548"><ele>197.0</ele><time>2026-04-19T08:25:32.999Z</time></trkpt><trkpt lat="43.94938532101049" lon="11.362819242900773"><ele>197.0</ele><time>2026-04-19T08:25:33.999Z</time></trkpt><trkpt lat="43.949580172157596" lon="11.362940441765312"><ele>197.0</ele><time>2026-04-19T08:25:34.999Z</time></trkpt><trkpt lat="43.94977819910605" lon="11.363065732142976"><ele>197.0</ele><time>2026-04-19T08:25:35.999Z</time></trkpt><trkpt lat="43.949969651156664" lon="11.363192093421642"><ele>197.0</ele><time>2026-04-19T08:25:36.999Z</time></trkpt><trkpt lat="43.950163954938425" lon="11.363316946453704"><ele>198.33333333333334</ele><time>2026-04-19T08:25:37.999Z</time></trkpt><trkpt lat="43.9503614306536" lon="11.363439046854497"><ele>199.66666666666669</ele><time>2026-04-19T08:25:38.999Z</time></trkpt><trkpt lat="43.95055426410783" lon="11.363557579792564"><ele>201.0</ele><time>2026-04-19T08:25:39.999Z</time></trkpt><trkpt lat="43.950748914857535" lon="11.363678385415534"><ele>200.33333333333331</ele><time>2026-04-19T08:25:40.999Z</time></trkpt><trkpt lat="43.95094348482291" lon="11.363797803013167"><ele>199.66666666666666</ele><time>2026-04-19T08:25:41.999Z</time></trkpt><trkpt lat="43.95113891287744" lon="11.363915651488718"><ele>199.0</ele><time>2026-04-19T08:25:42.999Z</time></trkpt><trkpt lat="43.951335525497875" lon="11.364024060164434"><ele>198.66666666666666</ele><time>2026-04-19T08:25:43.999Z</time></trkpt><trkpt lat="43.951538879399976" lon="11.364114434641413"><ele>198.33333333333331</ele><time>2026-04-19T08:25:44.999Z</time></trkpt><trkpt lat="43.95175474901886" lon="11.364188114554707"><ele>198.0</ele><time>2026-04-19T08:25:45.999Z</time></trkpt><trkpt lat="43.95198288646308" lon="11.364271425226917"><ele>197.0</ele><time>2026-04-19T08:25:46.999Z</time></trkpt><trkpt lat="43.95221598745761" lon="11.364359287887456"><ele>196.0</ele><time>2026-04-19T08:25:47.999Z</time></trkpt><trkpt lat="43.95244077150189" lon="11.364443003312434"><ele>195.33333333333331</ele><time>2026-04-19T08:25:48.999Z</time></trkpt><trkpt lat="43.95265975527221" lon="11.36452422160821"><ele>194.66666666666669</ele><time>2026-04-19T08:25:49.999Z</time></trkpt><trkpt lat="43.95287107906018" lon="11.364602302347388"><ele>194.0</ele><time>2026-04-19T08:25:50.999Z</time></trkpt><trkpt lat="43.953070473580134" lon="11.364674592323247"><ele>193.66666666666669</ele><time>2026-04-19T08:25:51.999Z</time></trkpt><trkpt lat="43.9532731340789" lon="11.364745906235008"><ele>193.33333333333331</ele><time>2026-04-19T08:25:52.999Z</time></trkpt><trkpt lat="43.953479296907894" lon="11.364820429338764"><ele>193.0</ele><time>2026-04-19T08:25:53.999Z</time></trkpt><trkpt lat="43.95368935211533" lon="11.364889000156932"><ele>193.0</ele><time>2026-04-19T08:25:54.999Z</time></trkpt><trkpt lat="43.9539018182663" lon="11.364943759071886"><ele>193.0</ele><time>2026-04-19T08:25:55.999Z</time></trkpt><trkpt lat="43.954117146064995" lon="11.364982212140747"><ele>193.0</ele><time>2026-04-19T08:25:56.999Z</time></trkpt><trkpt lat="43.95433286815618" lon="11.364998637205087"><ele>193.0</ele><time>2026-04-19T08:25:57.999Z</time></trkpt><trkpt lat="43.95454798715051" lon="11.365005699981054"><ele>193.0</ele><time>2026-04-19T08:25:58.999Z</time></trkpt><trkpt lat="43.95475257277665" lon="11.365001553189023"><ele>193.0</ele><time>2026-04-19T08:25:59.999Z</time></trkpt><trkpt lat="43.95495501453175" lon="11.364985818077454"><ele>193.0</ele><time>2026-04-19T08:26:00.999Z</time></trkpt><trkpt lat="43.95516079315108" lon="11.364950558129115"><ele>193.0</ele><time>2026-04-19T08:26:01.999Z</time></trkpt><trkpt lat="43.955359414768026" lon="11.364902519928417"><ele>193.0</ele><time>2026-04-19T08:26:02.999Z</time></trkpt><trkpt lat="43.95554385496106" lon="11.364850453655007"><ele>193.0</ele><time>2026-04-19T08:26:03.999Z</time></trkpt><trkpt lat="43.95572252812731" lon="11.364787971734975"><ele>193.0</ele><time>2026-04-19T08:26:04.999Z</time></trkpt><trkpt lat="43.955894264378095" lon="11.364719962806856"><ele>193.0</ele><time>2026-04-19T08:26:05.999Z</time></trkpt><trkpt lat="43.956069252538235" lon="11.364634765554566"><ele>193.0</ele><time>2026-04-19T08:26:06.999Z</time></trkpt><trkpt lat="43.95625145244825" lon="11.364535822744507"><ele>193.0</ele><time>2026-04-19T08:26:07.999Z</time></trkpt><trkpt lat="43.95643272766283" lon="11.36442897199376"><ele>193.0</ele><time>2026-04-19T08:26:08.999Z</time></trkpt><trkpt lat="43.956612720185625" lon="11.364303506345175"><ele>193.0</ele><time>2026-04-19T08:26:09.999Z</time></trkpt><trkpt lat="43.9568030969946" lon="11.364172292400967"><ele>193.0</ele><time>2026-04-19T08:26:10.999Z</time></trkpt><trkpt lat="43.9569852505691" lon="11.364019590864118"><ele>193.0</ele><time>2026-04-19T08:26:11.999Z</time></trkpt><trkpt lat="43.95717064185287" lon="11.363857873285394"><ele>193.0</ele><time>2026-04-19T08:26:12.999Z</time></trkpt><trkpt lat="43.957340498525404" lon="11.363705663523683"><ele>193.0</ele><time>2026-04-19T08:26:13.999Z</time></trkpt><trkpt lat="43.95750499296377" lon="11.363557363332616"><ele>193.0</ele><time>2026-04-19T08:26:14.999Z</time></trkpt><trkpt lat="43.957659838091786" lon="11.363390994061136"><ele>193.33333333333331</ele><time>2026-04-19T08:26:15.999Z</time></trkpt><trkpt lat="43.95783552841555" lon="11.363260049647476"><ele>193.66666666666669</ele><time>2026-04-19T08:26:16.999Z</time></trkpt><trkpt lat="43.95800610904407" lon="11.363108596591843"><ele>194.0</ele><time>2026-04-19T08:26:17.999Z</time></trkpt><trkpt lat="43.95817546332194" lon="11.362958232331621"><ele>194.0</ele><time>2026-04-19T08:26:18.999Z</time></trkpt><trkpt lat="43.95834626018191" lon="11.362805139002077"><ele>194.0</ele><time>2026-04-19T08:26:19.999Z</time></trkpt><trkpt lat="43.95851909940732" lon="11.362648613258871"><ele>194.0</ele><time>2026-04-19T08:26:20.999Z</time></trkpt><trkpt lat="43.95869348563219" lon="11.362490662817898"><ele>194.0</ele><time>2026-04-19T08:26:21.999Z</time></trkpt><trkpt lat="43.95886570281164" lon="11.362335866062352"><ele>194.0</ele><time>2026-04-19T08:26:22.999Z</time></trkpt><trkpt lat="43.95903915440378" lon="11.362165380473805"><ele>194.0</ele><time>2026-04-19T08:26:23.999Z</time></trkpt><trkpt lat="43.959215962220135" lon="11.362020948261378"><ele>194.33333333333334</ele><time>2026-04-19T08:26:24.999Z</time></trkpt><trkpt lat="43.959394512737944" lon="11.361884358903087"><ele>194.66666666666669</ele><time>2026-04-19T08:26:25.999Z</time></trkpt><trkpt lat="43.959569827375965" lon="11.36175478716221"><ele>195.0</ele><time>2026-04-19T08:26:26.999Z</time></trkpt><trkpt lat="43.95974684582379" lon="11.361635518526981"><ele>195.0</ele><time>2026-04-19T08:26:27.999Z</time></trkpt><trkpt lat="43.95993172549542" lon="11.361529331736932"><ele>195.0</ele><time>2026-04-19T08:26:28.999Z</time></trkpt><trkpt lat="43.96012656194611" lon="11.361459597857557"><ele>195.0</ele><time>2026-04-19T08:26:29.999Z</time></trkpt><trkpt lat="43.96033857330897" lon="11.361425324834936"><ele>196.0</ele><time>2026-04-19T08:26:30.999Z</time></trkpt><trkpt lat="43.9605541058668" lon="11.361425328945254"><ele>197.0</ele><time>2026-04-19T08:26:31.999Z</time></trkpt><trkpt lat="43.960764276793924" lon="11.361373328092931"><ele>198.0</ele><time>2026-04-19T08:26:32.999Z</time></trkpt><trkpt lat="43.960986653939024" lon="11.361507673713874"><ele>199.0</ele><time>2026-04-19T08:26:33.999Z</time></trkpt><trkpt lat="43.961199995356026" lon="11.361566535407533"><ele>200.0</ele><time>2026-04-19T08:26:34.999Z</time></trkpt><trkpt lat="43.96142147533247" lon="11.361617531107436"><ele>201.0</ele><time>2026-04-19T08:26:35.999Z</time></trkpt><trkpt lat="43.96163337258849" lon="11.361681687967325"><ele>201.0</ele><time>2026-04-19T08:26:36.999Z</time></trkpt><trkpt lat="43.96183970686414" lon="11.36174218197529"><ele>201.0</ele><time>2026-04-19T08:26:37.999Z</time></trkpt><trkpt lat="43.962050464607245" lon="11.361795440979625"><ele>201.0</ele><time>2026-04-19T08:26:38.999Z</time></trkpt><trkpt lat="43.9622560893258" lon="11.36186477488695"><ele>201.0</ele><time>2026-04-19T08:26:39.999Z</time></trkpt><trkpt lat="43.96246175572126" lon="11.361962364525212"><ele>201.0</ele><time>2026-04-19T08:26:40.999Z</time></trkpt><trkpt lat="43.96265355630755" lon="11.362070391570935"><ele>201.0</ele><time>2026-04-19T08:26:41.999Z</time></trkpt><trkpt lat="43.9628429943632" lon="11.362181166628233"><ele>203.0</ele><time>2026-04-19T08:26:42.999Z</time></trkpt><trkpt lat="43.96302765932496" lon="11.362305933255424"><ele>205.0</ele><time>2026-04-19T08:26:43.999Z</time></trkpt><trkpt lat="43.96321053633915" lon="11.362443681771467"><ele>207.0</ele><time>2026-04-19T08:26:44.999Z</time></trkpt><trkpt lat="43.96339198897267" lon="11.362602503848512"><ele>207.0</ele><time>2026-04-19T08:26:45.999Z</time></trkpt><trkpt lat="43.96356617560146" lon="11.362782813761232"><ele>207.0</ele><time>2026-04-19T08:26:46.999Z</time></trkpt><trkpt lat="43.96372663943814" lon="11.362970329864899"><ele>207.0</ele><time>2026-04-19T08:26:47.999Z</time></trkpt><trkpt lat="43.96389540973547" lon="11.363148326423085"><ele>209.0</ele><time>2026-04-19T08:26:48.999Z</time></trkpt><trkpt lat="43.96406256033534" lon="11.363326935497437"><ele>211.0</ele><time>2026-04-19T08:26:49.999Z</time></trkpt><trkpt lat="43.964220882978026" lon="11.36349996910509"><ele>213.0</ele><time>2026-04-19T08:26:50.999Z</time></trkpt><trkpt lat="43.964364650541164" lon="11.363660347435141"><ele>213.0</ele><time>2026-04-19T08:26:51.999Z</time></trkpt><trkpt lat="43.96450111162662" lon="11.363808654410162"><ele>213.0</ele><time>2026-04-19T08:26:52.999Z</time></trkpt><trkpt lat="43.96463604175489" lon="11.363950871943832"><ele>213.0</ele><time>2026-04-19T08:26:53.999Z</time></trkpt><trkpt lat="43.96477087486332" lon="11.364096787301314"><ele>213.66666666666669</ele><time>2026-04-19T08:26:54.999Z</time></trkpt><trkpt lat="43.964909473030445" lon="11.364249811142011"><ele>214.33333333333334</ele><time>2026-04-19T08:26:55.999Z</time></trkpt><trkpt lat="43.96505389916405" lon="11.364410850027147"><ele>215.0</ele><time>2026-04-19T08:26:56.999Z</time></trkpt><trkpt lat="43.965202494548286" lon="11.36457243672609"><ele>216.66666666666669</ele><time>2026-04-19T08:26:57.999Z</time></trkpt><trkpt lat="43.96535755304364" lon="11.364729251117877"><ele>218.33333333333331</ele><time>2026-04-19T08:26:58.999Z</time></trkpt><trkpt lat="43.9655202403182" lon="11.364873928981686"><ele>220.0</ele><time>2026-04-19T08:26:59.999Z</time></trkpt><trkpt lat="43.96569922105576" lon="11.364994583954289"><ele>220.33333333333331</ele><time>2026-04-19T08:27:00.999Z</time></trkpt><trkpt lat="43.96587492056995" lon="11.365084254287977"><ele>220.66666666666669</ele><time>2026-04-19T08:27:01.999Z</time></trkpt><trkpt lat="43.966043881546085" lon="11.36515119273556"><ele>221.0</ele><time>2026-04-19T08:27:02.999Z</time></trkpt><trkpt lat="43.96622246170504" lon="11.365202421908647"><ele>221.0</ele><time>2026-04-19T08:27:03.999Z</time></trkpt><trkpt lat="43.96641180231666" lon="11.365216916102536"><ele>221.0</ele><time>2026-04-19T08:27:04.999Z</time></trkpt><trkpt lat="43.966604506006924" lon="11.365220538639434"><ele>221.0</ele><time>2026-04-19T08:27:05.999Z</time></trkpt><trkpt lat="43.966803357813724" lon="11.365235217115643"><ele>221.66666666666669</ele><time>2026-04-19T08:27:06.999Z</time></trkpt><trkpt lat="43.967004953175156" lon="11.365277912073173"><ele>222.33333333333331</ele><time>2026-04-19T08:27:07.999Z</time></trkpt><trkpt lat="43.967202790424054" lon="11.365350414960721"><ele>223.0</ele><time>2026-04-19T08:27:08.999Z</time></trkpt><trkpt lat="43.967401137382055" lon="11.365415729260308"><ele>222.33333333333331</ele><time>2026-04-19T08:27:09.999Z</time></trkpt><trkpt lat="43.96760362659584" lon="11.365478535419172"><ele>221.66666666666669</ele><time>2026-04-19T08:27:10.999Z</time></trkpt><trkpt lat="43.96780386280954" lon="11.365543185022688"><ele>221.0</ele><time>2026-04-19T08:27:11.999Z</time></trkpt><trkpt lat="43.968004638001624" lon="11.365604472879232"><ele>222.33333333333334</ele><time>2026-04-19T08:27:12.999Z</time></trkpt><trkpt lat="43.968207952040025" lon="11.365663509972775"><ele>223.66666666666669</ele><time>2026-04-19T08:27:13.999Z</time></trkpt><trkpt lat="43.96840640680746" lon="11.365732981800358"><ele>225.0</ele><time>2026-04-19T08:27:14.999Z</time></trkpt><trkpt lat="43.968601677061194" lon="11.36580594230748"><ele>225.66666666666669</ele><time>2026-04-19T08:27:15.999Z</time></trkpt><trkpt lat="43.9688003834683" lon="11.365874663341582"><ele>226.33333333333334</ele><time>2026-04-19T08:27:16.999Z</time></trkpt><trkpt lat="43.969000359167325" lon="11.365923609734585"><ele>227.0</ele><time>2026-04-19T08:27:17.999Z</time></trkpt><trkpt lat="43.96918047962337" lon="11.365969416625482"><ele>228.66666666666669</ele><time>2026-04-19T08:27:18.999Z</time></trkpt><trkpt lat="43.969362370854874" lon="11.365994771417348"><ele>230.33333333333331</ele><time>2026-04-19T08:27:19.999Z</time></trkpt><trkpt lat="43.96953834640406" lon="11.365983376755509"><ele>232.0</ele><time>2026-04-19T08:27:20.999Z</time></trkpt><trkpt lat="43.96972015353936" lon="11.36593335185485"><ele>232.0</ele><time>2026-04-19T08:27:21.999Z</time></trkpt><trkpt lat="43.96989792967677" lon="11.36585929839143"><ele>232.0</ele><time>2026-04-19T08:27:22.999Z</time></trkpt><trkpt lat="43.9700617494589" lon="11.365759283274988"><ele>232.0</ele><time>2026-04-19T08:27:23.999Z</time></trkpt><trkpt lat="43.970217974749254" lon="11.365659370291317"><ele>231.66666666666666</ele><time>2026-04-19T08:27:24.999Z</time></trkpt><trkpt lat="43.97036834373859" lon="11.365577100349494"><ele>231.33333333333331</ele><time>2026-04-19T08:27:25.999Z</time></trkpt><trkpt lat="43.9705353286336" lon="11.365533221749384"><ele>231.0</ele><time>2026-04-19T08:27:26.999Z</time></trkpt><trkpt lat="43.97071537651816" lon="11.365528019974207"><ele>228.66666666666669</ele><time>2026-04-19T08:27:27.999Z</time></trkpt><trkpt lat="43.9708999269031" lon="11.36555217938522"><ele>226.33333333333334</ele><time>2026-04-19T08:27:28.999Z</time></trkpt><trkpt lat="43.97106289948901" lon="11.365547359847445"><ele>224.0</ele><time>2026-04-19T08:27:29.999Z</time></trkpt><trkpt lat="43.971217471081985" lon="11.365650565770315"><ele>224.0</ele><time>2026-04-19T08:27:30.999Z</time></trkpt><trkpt lat="43.97135443745565" lon="11.36577638634235"><ele>224.0</ele><time>2026-04-19T08:27:31.999Z</time></trkpt><trkpt lat="43.971482110463526" lon="11.365921531237591"><ele>224.0</ele><time>2026-04-19T08:27:32.999Z</time></trkpt><trkpt lat="43.97160012863413" lon="11.366085989755097"><ele>224.0</ele><time>2026-04-19T08:27:33.999Z</time></trkpt><trkpt lat="43.971694779463554" lon="11.366285201302217"><ele>224.0</ele><time>2026-04-19T08:27:34.999Z</time></trkpt><trkpt lat="43.971768795260076" lon="11.36654202936638"><ele>224.0</ele><time>2026-04-19T08:27:35.999Z</time></trkpt><trkpt lat="43.971819927128315" lon="11.366781944777468"><ele>224.0</ele><time>2026-04-19T08:27:36.999Z</time></trkpt><trkpt lat="43.97187439818425" lon="11.366992860767848"><ele>224.0</ele><time>2026-04-19T08:27:37.999Z</time></trkpt><trkpt lat="43.9719617158091" lon="11.367169207327297"><ele>224.0</ele><time>2026-04-19T08:27:38.999Z</time></trkpt><trkpt lat="43.972055247271186" lon="11.367336202981061"><ele>224.75</ele><time>2026-04-19T08:27:39.999Z</time></trkpt><trkpt lat="43.972160378693694" lon="11.367472012129653"><ele>225.5</ele><time>2026-04-19T08:27:40.999Z</time></trkpt><trkpt lat="43.972264754526456" lon="11.367594485460673"><ele>226.25</ele><time>2026-04-19T08:27:41.999Z</time></trkpt><trkpt lat="43.9723665293966" lon="11.367694672145703"><ele>227.0</ele><time>2026-04-19T08:27:42.999Z</time></trkpt><trkpt lat="43.972464840313044" lon="11.367773702006929"><ele>226.8</ele><time>2026-04-19T08:27:43.999Z</time></trkpt><trkpt lat="43.9725622558764" lon="11.367844282725843"><ele>226.6</ele><time>2026-04-19T08:27:44.999Z</time></trkpt><trkpt lat="43.9726587757888" lon="11.367904876539235"><ele>226.40000000000003</ele><time>2026-04-19T08:27:45.999Z</time></trkpt><trkpt lat="43.97277355747144" lon="11.367970045130916"><ele>226.20000000000002</ele><time>2026-04-19T08:27:46.999Z</time></trkpt><trkpt lat="43.97285199783128" lon="11.368013894380114"><ele>226.0</ele><time>2026-04-19T08:27:47.999Z</time></trkpt><trkpt lat="43.97293330852975" lon="11.368055139328334"><ele>225.99999999999997</ele><time>2026-04-19T08:27:48.999Z</time></trkpt><trkpt lat="43.97302151499469" lon="11.368109033323137"><ele>226.0</ele><time>2026-04-19T08:27:49.999Z</time></trkpt><trkpt lat="43.973102070193214" lon="11.368147599373104"><ele>226.0</ele><time>2026-04-19T08:27:50.999Z</time></trkpt><trkpt lat="43.973173043463376" lon="11.368182578173396"><ele>226.0</ele><time>2026-04-19T08:27:51.999Z</time></trkpt><trkpt lat="43.973237307431255" lon="11.368212759841773"><ele>225.99999999999997</ele><time>2026-04-19T08:27:52.999Z</time></trkpt><trkpt lat="43.97331745988889" lon="11.368275339866836"><ele>226.0</ele><time>2026-04-19T08:27:54.999Z</time></trkpt><trkpt lat="43.9734063488756" lon="11.368026584329979"><ele>226.0</ele><time>2026-04-19T08:27:55.999Z</time></trkpt><trkpt lat="43.97344802395809" lon="11.367884373586618"><ele>226.0</ele><time>2026-04-19T08:27:56.999Z</time></trkpt><trkpt lat="43.973518574696435" lon="11.36777047912795"><ele>226.0</ele><time>2026-04-19T08:27:57.999Z</time></trkpt><trkpt lat="43.97359424329397" lon="11.367654439187783"><ele>226.0</ele><time>2026-04-19T08:27:58.999Z</time></trkpt><trkpt lat="43.973678306628514" lon="11.367528655212553"><ele>226.0</ele><time>2026-04-19T08:27:59.999Z</time></trkpt><trkpt lat="43.97375989469814" lon="11.367392610903416"><ele>226.0</ele><time>2026-04-19T08:28:00.999Z</time></trkpt><trkpt lat="43.97386524045515" lon="11.367297233289147"><ele>226.0</ele><time>2026-04-19T08:28:01.999Z</time></trkpt><trkpt lat="43.97396206209368" lon="11.367187719093966"><ele>226.0</ele><time>2026-04-19T08:28:02.999Z</time></trkpt><trkpt lat="43.97409242035734" lon="11.36711053273624"><ele>226.0</ele><time>2026-04-19T08:28:03.999Z</time></trkpt><trkpt lat="43.97424446785637" lon="11.36699302385533"><ele>226.0</ele><time>2026-04-19T08:28:04.999Z</time></trkpt><trkpt lat="43.97440151438201" lon="11.366834460135395"><ele>226.0</ele><time>2026-04-19T08:28:05.999Z</time></trkpt><trkpt lat="43.974535225541466" lon="11.366642526430654"><ele>226.0</ele><time>2026-04-19T08:28:06.999Z</time></trkpt><trkpt lat="43.974686190307914" lon="11.366430839722337"><ele>226.0</ele><time>2026-04-19T08:28:07.999Z</time></trkpt><trkpt lat="43.9748468003916" lon="11.36620499448755"><ele>226.0</ele><time>2026-04-19T08:28:08.999Z</time></trkpt><trkpt lat="43.975016435666205" lon="11.365975100114019"><ele>225.5</ele><time>2026-04-19T08:28:09.999Z</time></trkpt><trkpt lat="43.97518807651922" lon="11.365747542856791"><ele>225.0</ele><time>2026-04-19T08:28:10.999Z</time></trkpt><trkpt lat="43.9753622317511" lon="11.365513151781151"><ele>225.0</ele><time>2026-04-19T08:28:11.999Z</time></trkpt><trkpt lat="43.97553634839779" lon="11.36527376859975"><ele>225.0</ele><time>2026-04-19T08:28:12.999Z</time></trkpt><trkpt lat="43.9757034187787" lon="11.365049447328147"><ele>224.33333333333331</ele><time>2026-04-19T08:28:13.999Z</time></trkpt><trkpt lat="43.97587433276835" lon="11.364852819315603"><ele>223.66666666666666</ele><time>2026-04-19T08:28:14.999Z</time></trkpt><trkpt lat="43.97603378346666" lon="11.364639752809158"><ele>223.0</ele><time>2026-04-19T08:28:15.999Z</time></trkpt><trkpt lat="43.976205134688385" lon="11.364410183136993"><ele>222.0</ele><time>2026-04-19T08:28:16.999Z</time></trkpt><trkpt lat="43.97637049624504" lon="11.364159121115307"><ele>221.0</ele><time>2026-04-19T08:28:17.999Z</time></trkpt><trkpt lat="43.97654911246639" lon="11.36391868708374"><ele>219.5</ele><time>2026-04-19T08:28:18.999Z</time></trkpt><trkpt lat="43.97672543321026" lon="11.363679152544815"><ele>218.0</ele><time>2026-04-19T08:28:19.999Z</time></trkpt><trkpt lat="43.9768932273615" lon="11.363450873190988"><ele>218.0</ele><time>2026-04-19T08:28:20.999Z</time></trkpt><trkpt lat="43.977059713921314" lon="11.363223352913131"><ele>218.0</ele><time>2026-04-19T08:28:21.999Z</time></trkpt><trkpt lat="43.97724144545421" lon="11.363014304186292"><ele>218.0</ele><time>2026-04-19T08:28:22.999Z</time></trkpt><trkpt lat="43.97739810712023" lon="11.362776647960887"><ele>218.0</ele><time>2026-04-19T08:28:23.999Z</time></trkpt><trkpt lat="43.97755611838171" lon="11.362568930575469"><ele>218.0</ele><time>2026-04-19T08:28:24.999Z</time></trkpt><trkpt lat="43.977705291161556" lon="11.362379802044307"><ele>219.0</ele><time>2026-04-19T08:28:25.999Z</time></trkpt><trkpt lat="43.977840808758785" lon="11.362195303179506"><ele>220.0</ele><time>2026-04-19T08:28:26.999Z</time></trkpt><trkpt lat="43.97796934522075" lon="11.361998837290162"><ele>221.0</ele><time>2026-04-19T08:28:27.999Z</time></trkpt><trkpt lat="43.978079669324025" lon="11.361764803371532"><ele>221.0</ele><time>2026-04-19T08:28:28.999Z</time></trkpt><trkpt lat="43.97815648767266" lon="11.36147876608313"><ele>221.0</ele><time>2026-04-19T08:28:29.999Z</time></trkpt><trkpt lat="43.978205946590016" lon="11.361161489397604"><ele>220.66666666666669</ele><time>2026-04-19T08:28:30.999Z</time></trkpt><trkpt lat="43.97822695471911" lon="11.360846929116866"><ele>220.33333333333331</ele><time>2026-04-19T08:28:31.999Z</time></trkpt><trkpt lat="43.97826617588369" lon="11.360564709914211"><ele>220.0</ele><time>2026-04-19T08:28:32.999Z</time></trkpt><trkpt lat="43.978305548814504" lon="11.360306932127518"><ele>221.66666666666666</ele><time>2026-04-19T08:28:33.999Z</time></trkpt><trkpt lat="43.97837025529078" lon="11.360053537164802"><ele>223.33333333333331</ele><time>2026-04-19T08:28:34.999Z</time></trkpt><trkpt lat="43.97846964379231" lon="11.359805724942944"><ele>225.0</ele><time>2026-04-19T08:28:35.999Z</time></trkpt><trkpt lat="43.978583135103676" lon="11.359552115572193"><ele>225.0</ele><time>2026-04-19T08:28:36.999Z</time></trkpt><trkpt lat="43.97870396749196" lon="11.35929527206391"><ele>225.0</ele><time>2026-04-19T08:28:37.999Z</time></trkpt><trkpt lat="43.97882271015451" lon="11.35907036595607"><ele>225.0</ele><time>2026-04-19T08:28:38.999Z</time></trkpt><trkpt lat="43.97894876044622" lon="11.358879826956992"><ele>225.33333333333331</ele><time>2026-04-19T08:28:39.999Z</time></trkpt><trkpt lat="43.97909437157535" lon="11.358730547710902"><ele>225.66666666666666</ele><time>2026-04-19T08:28:40.999Z</time></trkpt><trkpt lat="43.97926523641706" lon="11.358627282701065"><ele>226.0</ele><time>2026-04-19T08:28:41.999Z</time></trkpt><trkpt lat="43.9794492459094" lon="11.358573186790279"><ele>226.0</ele><time>2026-04-19T08:28:42.999Z</time></trkpt><trkpt lat="43.97964552424532" lon="11.358578422422848"><ele>226.0</ele><time>2026-04-19T08:28:43.999Z</time></trkpt><trkpt lat="43.97984007497685" lon="11.358639555768688"><ele>226.0</ele><time>2026-04-19T08:28:44.999Z</time></trkpt><trkpt lat="43.980036342128486" lon="11.358754418443219"><ele>229.0</ele><time>2026-04-19T08:28:45.999Z</time></trkpt><trkpt lat="43.98023082775945" lon="11.358885689416363"><ele>232.0</ele><time>2026-04-19T08:28:46.999Z</time></trkpt><trkpt lat="43.98042761617597" lon="11.359033905112902"><ele>235.0</ele><time>2026-04-19T08:28:47.999Z</time></trkpt><trkpt lat="43.98062927190837" lon="11.35916977561176"><ele>235.0</ele><time>2026-04-19T08:28:48.999Z</time></trkpt><trkpt lat="43.9808280725587" lon="11.35930416996624"><ele>235.0</ele><time>2026-04-19T08:28:49.999Z</time></trkpt><trkpt lat="43.98102309117624" lon="11.359439805356548"><ele>235.0</ele><time>2026-04-19T08:28:50.999Z</time></trkpt><trkpt lat="43.981213416500125" lon="11.359577191371038"><ele>238.0</ele><time>2026-04-19T08:28:51.999Z</time></trkpt><trkpt lat="43.98140053616153" lon="11.359729669517229"><ele>241.0</ele><time>2026-04-19T08:28:52.999Z</time></trkpt><trkpt lat="43.98157624830675" lon="11.359888385540271"><ele>244.0</ele><time>2026-04-19T08:28:53.999Z</time></trkpt><trkpt lat="43.98174232151619" lon="11.360035823526418"><ele>244.66666666666666</ele><time>2026-04-19T08:28:54.999Z</time></trkpt><trkpt lat="43.9818881726137" lon="11.36015869860851"><ele>245.33333333333331</ele><time>2026-04-19T08:28:55.999Z</time></trkpt><trkpt lat="43.98202738434572" lon="11.360282363013809"><ele>246.0</ele><time>2026-04-19T08:28:56.999Z</time></trkpt><trkpt lat="43.98215690318383" lon="11.360395104413142"><ele>246.0</ele><time>2026-04-19T08:28:57.999Z</time></trkpt><trkpt lat="43.982279854237085" lon="11.360495440466478"><ele>246.0</ele><time>2026-04-19T08:28:58.999Z</time></trkpt><trkpt lat="43.98240668813599" lon="11.360600067013259"><ele>246.0</ele><time>2026-04-19T08:28:59.999Z</time></trkpt><trkpt lat="43.982545876847404" lon="11.360671331914592"><ele>246.0</ele><time>2026-04-19T08:29:00.999Z</time></trkpt><trkpt lat="43.98269326273547" lon="11.360684458867057"><ele>248.66666666666669</ele><time>2026-04-19T08:29:01.999Z</time></trkpt><trkpt lat="43.98284575762661" lon="11.360642609323978"><ele>251.33333333333334</ele><time>2026-04-19T08:29:02.999Z</time></trkpt><trkpt lat="43.983003744476754" lon="11.360586045003153"><ele>254.0</ele><time>2026-04-19T08:29:03.999Z</time></trkpt><trkpt lat="43.98315494188964" lon="11.360519632556288"><ele>254.66666666666669</ele><time>2026-04-19T08:29:04.999Z</time></trkpt><trkpt lat="43.9833063202237" lon="11.360466540986184"><ele>255.33333333333331</ele><time>2026-04-19T08:29:05.999Z</time></trkpt><trkpt lat="43.983457080023875" lon="11.36041705598369"><ele>256.0</ele><time>2026-04-19T08:29:06.999Z</time></trkpt><trkpt lat="43.983601436058905" lon="11.360357116277989"><ele>258.0</ele><time>2026-04-19T08:29:07.999Z</time></trkpt><trkpt lat="43.98374465198343" lon="11.360276429041118"><ele>260.0</ele><time>2026-04-19T08:29:08.999Z</time></trkpt><trkpt lat="43.98388387197396" lon="11.360181867474003"><ele>262.0</ele><time>2026-04-19T08:29:09.999Z</time></trkpt><trkpt lat="43.98402641235077" lon="11.360080759207477"><ele>262.0</ele><time>2026-04-19T08:29:10.999Z</time></trkpt><trkpt lat="43.984171857836394" lon="11.359995055765449"><ele>262.0</ele><time>2026-04-19T08:29:11.999Z</time></trkpt><trkpt lat="43.98430937352132" lon="11.359919307887393"><ele>262.0</ele><time>2026-04-19T08:29:12.999Z</time></trkpt><trkpt lat="43.98443740463163" lon="11.359859132854416"><ele>262.0</ele><time>2026-04-19T08:29:13.999Z</time></trkpt><trkpt lat="43.984554742803766" lon="11.359804360884496"><ele>262.0</ele><time>2026-04-19T08:29:14.999Z</time></trkpt><trkpt lat="43.984664450165866" lon="11.35974621630259"><ele>262.0</ele><time>2026-04-19T08:29:15.999Z</time></trkpt><trkpt lat="43.98476333107424" lon="11.359697249435742"><ele>262.0</ele><time>2026-04-19T08:29:16.999Z</time></trkpt><trkpt lat="43.98485226152254" lon="11.359649406428623"><ele>262.0</ele><time>2026-04-19T08:29:17.999Z</time></trkpt><trkpt lat="43.98493284719556" lon="11.359608157511683"><ele>262.0</ele><time>2026-04-19T08:29:18.999Z</time></trkpt><trkpt lat="43.98501969814181" lon="11.359563574602142"><ele>263.0</ele><time>2026-04-19T08:29:19.999Z</time></trkpt><trkpt lat="43.98511975823406" lon="11.359501904723642"><ele>264.0</ele><time>2026-04-19T08:29:20.999Z</time></trkpt><trkpt lat="43.985236118891" lon="11.359429096679591"><ele>265.0</ele><time>2026-04-19T08:29:21.999Z</time></trkpt><trkpt lat="43.985368424229456" lon="11.359355166124374"><ele>266.0</ele><time>2026-04-19T08:29:22.999Z</time></trkpt><trkpt lat="43.985520904188384" lon="11.359273569298965"><ele>266.0</ele><time>2026-04-19T08:29:23.999Z</time></trkpt><trkpt lat="43.98568211698595" lon="11.359184880563323"><ele>266.0</ele><time>2026-04-19T08:29:24.999Z</time></trkpt><trkpt lat="43.98584340341134" lon="11.35909297244801"><ele>266.0</ele><time>2026-04-19T08:29:25.999Z</time></trkpt><trkpt lat="43.98600451621732" lon="11.358999968417887"><ele>267.6666666666667</ele><time>2026-04-19T08:29:26.999Z</time></trkpt><trkpt lat="43.98615520449325" lon="11.358914742986464"><ele>269.3333333333333</ele><time>2026-04-19T08:29:27.999Z</time></trkpt><trkpt lat="43.98630485402556" lon="11.35883239604365"><ele>271.0</ele><time>2026-04-19T08:29:28.999Z</time></trkpt><trkpt lat="43.986460008007974" lon="11.358759868667438"><ele>271.0</ele><time>2026-04-19T08:29:29.999Z</time></trkpt><trkpt lat="43.9866271795574" lon="11.358701738154847"><ele>271.0</ele><time>2026-04-19T08:29:30.999Z</time></trkpt><trkpt lat="43.986802510529614" lon="11.358658479453608"><ele>271.0</ele><time>2026-04-19T08:29:31.999Z</time></trkpt><trkpt lat="43.98697866206296" lon="11.358621171707426"><ele>272.0</ele><time>2026-04-19T08:29:32.999Z</time></trkpt><trkpt lat="43.987148065167226" lon="11.358593017305623"><ele>273.0</ele><time>2026-04-19T08:29:33.999Z</time></trkpt><trkpt lat="43.987322420699094" lon="11.358562385414729"><ele>274.0</ele><time>2026-04-19T08:29:34.999Z</time></trkpt><trkpt lat="43.98748591277962" lon="11.358530093082559"><ele>275.0</ele><time>2026-04-19T08:29:35.999Z</time></trkpt><trkpt lat="43.98763134908115" lon="11.35850123060386"><ele>276.0</ele><time>2026-04-19T08:29:36.999Z</time></trkpt><trkpt lat="43.98776949044716" lon="11.358478755490324"><ele>277.0</ele><time>2026-04-19T08:29:37.999Z</time></trkpt><trkpt lat="43.987896688770356" lon="11.358458966833641"><ele>278.0</ele><time>2026-04-19T08:29:38.999Z</time></trkpt><trkpt lat="43.98803016023018" lon="11.358440380239038"><ele>278.0</ele><time>2026-04-19T08:29:39.999Z</time></trkpt><trkpt lat="43.98817693864205" lon="11.358433529320184"><ele>278.0</ele><time>2026-04-19T08:29:40.999Z</time></trkpt><trkpt lat="43.988331370955486" lon="11.358443580618294"><ele>278.0</ele><time>2026-04-19T08:29:41.999Z</time></trkpt><trkpt lat="43.98847105146495" lon="11.35846473730628"><ele>278.0</ele><time>2026-04-19T08:29:42.999Z</time></trkpt><trkpt lat="43.988601125403676" lon="11.358493100683113"><ele>278.6</ele><time>2026-04-19T08:29:43.999Z</time></trkpt><trkpt lat="43.9887259105905" lon="11.358526420848783"><ele>279.20000000000005</ele><time>2026-04-19T08:29:44.999Z</time></trkpt><trkpt lat="43.98883108524641" lon="11.358552101598866"><ele>279.8</ele><time>2026-04-19T08:29:45.999Z</time></trkpt><trkpt lat="43.9889228410272" lon="11.358567003102566"><ele>280.40000000000003</ele><time>2026-04-19T08:29:46.999Z</time></trkpt><trkpt lat="43.9890099766412" lon="11.358576800380735"><ele>281.0</ele><time>2026-04-19T08:29:47.999Z</time></trkpt><trkpt lat="43.98909984176681" lon="11.358565030831599"><ele>280.25</ele><time>2026-04-19T08:29:48.999Z</time></trkpt><trkpt lat="43.98922347124845" lon="11.358519521681307"><ele>279.5</ele><time>2026-04-19T08:29:49.999Z</time></trkpt><trkpt lat="43.98936820380295" lon="11.35845016062749"><ele>278.75</ele><time>2026-04-19T08:29:50.999Z</time></trkpt><trkpt lat="43.98952432949096" lon="11.358384525815564"><ele>278.0</ele><time>2026-04-19T08:29:51.999Z</time></trkpt><trkpt lat="43.98967791849923" lon="11.358325068586309"><ele>278.0</ele><time>2026-04-19T08:29:52.999Z</time></trkpt><trkpt lat="43.98981316489428" lon="11.358264809238632"><ele>278.0</ele><time>2026-04-19T08:29:53.999Z</time></trkpt><trkpt lat="43.989933543643666" lon="11.358207092007296"><ele>278.0</ele><time>2026-04-19T08:29:54.999Z</time></trkpt><trkpt lat="43.99004830471681" lon="11.358150354333818"><ele>278.0</ele><time>2026-04-19T08:29:55.999Z</time></trkpt><trkpt lat="43.990141786086525" lon="11.358064687712234"><ele>279.5</ele><time>2026-04-19T08:29:56.999Z</time></trkpt><trkpt lat="43.990207521412444" lon="11.357947047702314"><ele>281.0</ele><time>2026-04-19T08:29:57.999Z</time></trkpt><trkpt lat="43.99024784341397" lon="11.35781426655494"><ele>282.5</ele><time>2026-04-19T08:29:58.999Z</time></trkpt><trkpt lat="43.990241304987535" lon="11.35765865164182"><ele>284.0</ele><time>2026-04-19T08:29:59.999Z</time></trkpt><trkpt lat="43.990206162049674" lon="11.357486515866613"><ele>284.0</ele><time>2026-04-19T08:30:00.999Z</time></trkpt><trkpt lat="43.9901487619826" lon="11.35730354471396"><ele>284.0</ele><time>2026-04-19T08:30:01.999Z</time></trkpt><trkpt lat="43.990101789755045" lon="11.35712884328849"><ele>284.0</ele><time>2026-04-19T08:30:02.999Z</time></trkpt><trkpt lat="43.99007274264003" lon="11.356969908613253"><ele>284.0</ele><time>2026-04-19T08:30:03.999Z</time></trkpt><trkpt lat="43.99005299022984" lon="11.35681804650459"><ele>284.0</ele><time>2026-04-19T08:30:04.999Z</time></trkpt><trkpt lat="43.99005730464903" lon="11.356671298718899"><ele>284.0</ele><time>2026-04-19T08:30:05.999Z</time></trkpt><trkpt lat="43.99010856810152" lon="11.356544173294818"><ele>284.0</ele><time>2026-04-19T08:30:06.999Z</time></trkpt><trkpt lat="43.99013923280359" lon="11.35641582489873"><ele>284.0</ele><time>2026-04-19T08:30:07.999Z</time></trkpt><trkpt lat="43.99015732693477" lon="11.356276274781818"><ele>284.0</ele><time>2026-04-19T08:30:08.999Z</time></trkpt><trkpt lat="43.990188621069095" lon="11.356146786333769"><ele>283.5</ele><time>2026-04-19T08:30:09.999Z</time></trkpt><trkpt lat="43.99021812728051" lon="11.356025439298762"><ele>283.0</ele><time>2026-04-19T08:30:10.999Z</time></trkpt><trkpt lat="43.990244635811116" lon="11.35591713108057"><ele>282.5</ele><time>2026-04-19T08:30:11.999Z</time></trkpt><trkpt lat="43.99026919137947" lon="11.35580125759645"><ele>282.0</ele><time>2026-04-19T08:30:12.999Z</time></trkpt><trkpt lat="43.99029503872475" lon="11.355691900780453"><ele>281.5</ele><time>2026-04-19T08:30:13.999Z</time></trkpt><trkpt lat="43.99032181433906" lon="11.355586380775726"><ele>281.0</ele><time>2026-04-19T08:30:14.999Z</time></trkpt><trkpt lat="43.99034627588003" lon="11.355476847347626"><ele>280.40000000000003</ele><time>2026-04-19T08:30:15.999Z</time></trkpt><trkpt lat="43.99036991728017" lon="11.35536358330281"><ele>279.8</ele><time>2026-04-19T08:30:16.999Z</time></trkpt><trkpt lat="43.99039629920728" lon="11.355247524971421"><ele>279.20000000000005</ele><time>2026-04-19T08:30:17.999Z</time></trkpt><trkpt lat="43.99042434604804" lon="11.355118361255776"><ele>278.6</ele><time>2026-04-19T08:30:18.999Z</time></trkpt><trkpt lat="43.99044848071575" lon="11.354980204627138"><ele>278.0</ele><time>2026-04-19T08:30:19.999Z</time></trkpt><trkpt lat="43.990475110648994" lon="11.354855080521908"><ele>278.0</ele><time>2026-04-19T08:30:20.999Z</time></trkpt><trkpt lat="43.990504624324316" lon="11.354735254847467"><ele>278.0</ele><time>2026-04-19T08:30:21.999Z</time></trkpt><trkpt lat="43.99052996913925" lon="11.354622659142223"><ele>278.0</ele><time>2026-04-19T08:30:22.999Z</time></trkpt><trkpt lat="43.99055692676588" lon="11.354512161356798"><ele>278.0</ele><time>2026-04-19T08:30:23.999Z</time></trkpt><trkpt lat="43.990582155382995" lon="11.354398311922473"><ele>278.0</ele><time>2026-04-19T08:30:24.999Z</time></trkpt><trkpt lat="43.99060684257922" lon="11.354283445898812"><ele>278.0</ele><time>2026-04-19T08:30:25.999Z</time></trkpt><trkpt lat="43.99062882560712" lon="11.354172241073517"><ele>278.0</ele><time>2026-04-19T08:30:26.999Z</time></trkpt><trkpt lat="43.99064822263117" lon="11.354082053363081"><ele>278.0</ele><time>2026-04-19T08:30:27.999Z</time></trkpt><trkpt lat="43.99068593237495" lon="11.353942502221713"><ele>278.0</ele><time>2026-04-19T08:30:29.999Z</time></trkpt><trkpt lat="43.99071400407767" lon="11.35380185731123"><ele>278.0</ele><time>2026-04-19T08:30:31.999Z</time></trkpt><trkpt lat="43.99073534854007" lon="11.353700462372299"><ele>278.0</ele><time>2026-04-19T08:30:33.999Z</time></trkpt><trkpt lat="43.990764951567414" lon="11.353594225405564"><ele>278.0</ele><time>2026-04-19T08:30:36.999Z</time></trkpt><trkpt lat="43.9908049825614" lon="11.353507924148145"><ele>278.33333333333337</ele><time>2026-04-19T08:30:39.999Z</time></trkpt><trkpt lat="43.99091168641502" lon="11.353515062418214"><ele>278.6666666666667</ele><time>2026-04-19T08:31:01.999Z</time></trkpt><trkpt lat="43.99097507237984" lon="11.35355821995828"><ele>279.0</ele><time>2026-04-19T08:31:02.999Z</time></trkpt><trkpt lat="43.99105746620155" lon="11.353627395292929"><ele>279.3333333333333</ele><time>2026-04-19T08:31:03.999Z</time></trkpt><trkpt lat="43.99113948683865" lon="11.35367881757731"><ele>279.66666666666663</ele><time>2026-04-19T08:31:04.999Z</time></trkpt><trkpt lat="43.99121453283764" lon="11.353733048118382"><ele>280.0</ele><time>2026-04-19T08:31:05.999Z</time></trkpt><trkpt lat="43.991287971623315" lon="11.353782053199948"><ele>280.0</ele><time>2026-04-19T08:31:06.999Z</time></trkpt><trkpt lat="43.99137466723002" lon="11.353838140222255"><ele>280.0</ele><time>2026-04-19T08:31:07.999Z</time></trkpt><trkpt lat="43.99146871996728" lon="11.353887715367762"><ele>280.0</ele><time>2026-04-19T08:31:08.999Z</time></trkpt><trkpt lat="43.991559769471586" lon="11.353946617786038"><ele>280.0</ele><time>2026-04-19T08:31:09.999Z</time></trkpt><trkpt lat="43.99165432400957" lon="11.354005336071822"><ele>280.0</ele><time>2026-04-19T08:31:10.999Z</time></trkpt><trkpt lat="43.99174308025953" lon="11.354068938361207"><ele>280.5</ele><time>2026-04-19T08:31:11.999Z</time></trkpt><trkpt lat="43.99182222322264" lon="11.354123466284817"><ele>281.0</ele><time>2026-04-19T08:31:12.999Z</time></trkpt><trkpt lat="43.991891612970356" lon="11.354178084644477"><ele>281.5</ele><time>2026-04-19T08:31:13.999Z</time></trkpt><trkpt lat="43.99195702099831" lon="11.354224190564187"><ele>282.0</ele><time>2026-04-19T08:31:14.999Z</time></trkpt><trkpt lat="43.99207872004111" lon="11.354297171539159"><ele>282.5</ele><time>2026-04-19T08:31:16.999Z</time></trkpt><trkpt lat="43.99213914511635" lon="11.354328283830677"><ele>283.0</ele><time>2026-04-19T08:31:17.999Z</time></trkpt><trkpt lat="43.992233682113465" lon="11.35441009570426"><ele>283.0</ele><time>2026-04-19T08:31:19.999Z</time></trkpt><trkpt lat="43.992298477115426" lon="11.354425412453836"><ele>283.0</ele><time>2026-04-19T08:31:20.999Z</time></trkpt><trkpt lat="43.99236888222976" lon="11.35447050175661"><ele>283.0</ele><time>2026-04-19T08:31:21.999Z</time></trkpt><trkpt lat="43.99245593599015" lon="11.35452485312657"><ele>283.0</ele><time>2026-04-19T08:31:22.999Z</time></trkpt><trkpt lat="43.992546456782215" lon="11.354578719253594"><ele>283.0</ele><time>2026-04-19T08:31:23.999Z</time></trkpt><trkpt lat="43.99264167134177" lon="11.354636533144577"><ele>283.0</ele><time>2026-04-19T08:31:24.999Z</time></trkpt><trkpt lat="43.99274890151389" lon="11.354707832387039"><ele>283.8</ele><time>2026-04-19T08:31:25.999Z</time></trkpt><trkpt lat="43.992845924203365" lon="11.354799982823751"><ele>284.6</ele><time>2026-04-19T08:31:26.999Z</time></trkpt><trkpt lat="43.99294079100334" lon="11.354860865249961"><ele>285.4</ele><time>2026-04-19T08:31:27.999Z</time></trkpt><trkpt lat="43.99302956140583" lon="11.35491638981544"><ele>286.2</ele><time>2026-04-19T08:31:28.999Z</time></trkpt><trkpt lat="43.99311320266715" lon="11.354966260826053"><ele>287.0</ele><time>2026-04-19T08:31:29.999Z</time></trkpt><trkpt lat="43.993202931856764" lon="11.355012919756572"><ele>287.0</ele><time>2026-04-19T08:31:30.999Z</time></trkpt><trkpt lat="43.99329148533134" lon="11.35503548908196"><ele>287.0</ele><time>2026-04-19T08:31:31.999Z</time></trkpt><trkpt lat="43.99336258472306" lon="11.355077662684224"><ele>287.0</ele><time>2026-04-19T08:31:32.999Z</time></trkpt><trkpt lat="43.99342877149956" lon="11.355116414066185"><ele>287.0</ele><time>2026-04-19T08:31:33.999Z</time></trkpt><trkpt lat="43.99348650425382" lon="11.355154924330424"><ele>287.0</ele><time>2026-04-19T08:31:34.999Z</time></trkpt><trkpt lat="43.99357929426876" lon="11.355203544209871"><ele>287.0</ele><time>2026-04-19T08:31:36.999Z</time></trkpt><trkpt lat="43.99364172286637" lon="11.355237510451062"><ele>287.5</ele><time>2026-04-19T08:31:38.999Z</time></trkpt><trkpt lat="43.99370123287948" lon="11.355270549223997"><ele>288.0</ele><time>2026-04-19T08:31:40.999Z</time></trkpt><trkpt lat="43.99380260977109" lon="11.355317476378339"><ele>288.5</ele><time>2026-04-19T08:31:42.999Z</time></trkpt><trkpt lat="43.99385833200099" lon="11.355372334606917"><ele>289.0</ele><time>2026-04-19T08:31:43.999Z</time></trkpt><trkpt lat="43.993925574132426" lon="11.355408638514112"><ele>289.5</ele><time>2026-04-19T08:31:44.999Z</time></trkpt><trkpt lat="43.993991883863195" lon="11.355444419091649"><ele>290.0</ele><time>2026-04-19T08:31:45.999Z</time></trkpt><trkpt lat="43.99406471178868" lon="11.355483716870303"><ele>290.0</ele><time>2026-04-19T08:31:46.999Z</time></trkpt><trkpt lat="43.994147969683546" lon="11.355514737226972"><ele>290.0</ele><time>2026-04-19T08:31:47.999Z</time></trkpt><trkpt lat="43.994227891525355" lon="11.35556887187349"><ele>290.0</ele><time>2026-04-19T08:31:48.999Z</time></trkpt><trkpt lat="43.99430978099229" lon="11.355617495936894"><ele>290.0</ele><time>2026-04-19T08:31:49.999Z</time></trkpt><trkpt lat="43.99439150758552" lon="11.355659857604268"><ele>290.0</ele><time>2026-04-19T08:31:50.999Z</time></trkpt><trkpt lat="43.994473674754914" lon="11.355697767510094"><ele>290.0</ele><time>2026-04-19T08:31:51.999Z</time></trkpt><trkpt lat="43.99456306836296" lon="11.355741774270047"><ele>290.6</ele><time>2026-04-19T08:31:52.999Z</time></trkpt><trkpt lat="43.99465312154915" lon="11.35578835900889"><ele>291.2</ele><time>2026-04-19T08:31:53.999Z</time></trkpt><trkpt lat="43.99473931965363" lon="11.355835504722542"><ele>291.8</ele><time>2026-04-19T08:31:54.999Z</time></trkpt><trkpt lat="43.994826301581796" lon="11.355876665744642"><ele>292.4</ele><time>2026-04-19T08:31:55.999Z</time></trkpt><trkpt lat="43.99491454631434" lon="11.355922707856516"><ele>293.0</ele><time>2026-04-19T08:31:56.999Z</time></trkpt><trkpt lat="43.99500382898542" lon="11.355968699282261"><ele>293.33333333333337</ele><time>2026-04-19T08:31:57.999Z</time></trkpt><trkpt lat="43.995084236693074" lon="11.356009521776265"><ele>293.6666666666667</ele><time>2026-04-19T08:31:58.999Z</time></trkpt><trkpt lat="43.99516518653459" lon="11.356049009083517"><ele>294.0</ele><time>2026-04-19T08:31:59.999Z</time></trkpt><trkpt lat="43.9952426610376" lon="11.356089147161258"><ele>294.3333333333333</ele><time>2026-04-19T08:32:00.999Z</time></trkpt><trkpt lat="43.9953092656161" lon="11.356138773892189"><ele>294.66666666666663</ele><time>2026-04-19T08:32:01.999Z</time></trkpt><trkpt lat="43.995378011321165" lon="11.35618304891051"><ele>295.0</ele><time>2026-04-19T08:32:02.999Z</time></trkpt><trkpt lat="43.995454169649804" lon="11.356225718867494"><ele>295.0</ele><time>2026-04-19T08:32:03.999Z</time></trkpt><trkpt lat="43.9955418904704" lon="11.356278107178087"><ele>295.0</ele><time>2026-04-19T08:32:04.999Z</time></trkpt><trkpt lat="43.99563949108993" lon="11.356329070022621"><ele>295.0</ele><time>2026-04-19T08:32:05.999Z</time></trkpt><trkpt lat="43.995742773708116" lon="11.356386829119737"><ele>295.0</ele><time>2026-04-19T08:32:06.999Z</time></trkpt><trkpt lat="43.99584267286712" lon="11.356455744159586"><ele>295.0</ele><time>2026-04-19T08:32:07.999Z</time></trkpt><trkpt lat="43.99594233284937" lon="11.356539076939598"><ele>296.75</ele><time>2026-04-19T08:32:08.999Z</time></trkpt><trkpt lat="43.996043373699735" lon="11.356641246209776"><ele>298.5</ele><time>2026-04-19T08:32:09.999Z</time></trkpt><trkpt lat="43.99614672713384" lon="11.356754044672591"><ele>300.25</ele><time>2026-04-19T08:32:10.999Z</time></trkpt><trkpt lat="43.9962544993604" lon="11.35687269306983"><ele>302.0</ele><time>2026-04-19T08:32:11.999Z</time></trkpt><trkpt lat="43.99637922415695" lon="11.356985240994128"><ele>302.0</ele><time>2026-04-19T08:32:12.999Z</time></trkpt><trkpt lat="43.9965280286291" lon="11.357088261543604"><ele>302.0</ele><time>2026-04-19T08:32:13.999Z</time></trkpt><trkpt lat="43.99668130359272" lon="11.357189662359913"><ele>302.0</ele><time>2026-04-19T08:32:14.999Z</time></trkpt><trkpt lat="43.99684318124023" lon="11.35728785106196"><ele>301.33333333333337</ele><time>2026-04-19T08:32:15.999Z</time></trkpt><trkpt lat="43.99698030963033" lon="11.357384703240118"><ele>300.6666666666667</ele><time>2026-04-19T08:32:16.999Z</time></trkpt><trkpt lat="43.9971219010307" lon="11.357478490105246"><ele>300.0</ele><time>2026-04-19T08:32:17.999Z</time></trkpt><trkpt lat="43.99726554914468" lon="11.357575348602685"><ele>300.0</ele><time>2026-04-19T08:32:18.999Z</time></trkpt><trkpt lat="43.997408541395274" lon="11.35767202253844"><ele>300.0</ele><time>2026-04-19T08:32:19.999Z</time></trkpt><trkpt lat="43.99754997529017" lon="11.3577703268304"><ele>300.0</ele><time>2026-04-19T08:32:20.999Z</time></trkpt><trkpt lat="43.99769124216862" lon="11.357872801660871"><ele>300.3333333333333</ele><time>2026-04-19T08:32:21.999Z</time></trkpt><trkpt lat="43.99783490136102" lon="11.357973220540988"><ele>300.66666666666663</ele><time>2026-04-19T08:32:22.999Z</time></trkpt><trkpt lat="43.99798642622044" lon="11.358069514306589"><ele>301.0</ele><time>2026-04-19T08:32:23.999Z</time></trkpt><trkpt lat="43.99813804860294" lon="11.35817541333672"><ele>301.0</ele><time>2026-04-19T08:32:24.999Z</time></trkpt><trkpt lat="43.99828332621506" lon="11.358276771411074"><ele>301.0</ele><time>2026-04-19T08:32:25.999Z</time></trkpt><trkpt lat="43.99842803939771" lon="11.35837310524113"><ele>301.0</ele><time>2026-04-19T08:32:26.999Z</time></trkpt><trkpt lat="43.99857140725886" lon="11.358472965746484"><ele>302.3333333333333</ele><time>2026-04-19T08:32:27.999Z</time></trkpt><trkpt lat="43.998711550043375" lon="11.358570710636249"><ele>303.6666666666667</ele><time>2026-04-19T08:32:28.999Z</time></trkpt><trkpt lat="43.998855109186" lon="11.358668011018173"><ele>305.0</ele><time>2026-04-19T08:32:29.999Z</time></trkpt><trkpt lat="43.99898947658582" lon="11.358764524687293"><ele>305.0</ele><time>2026-04-19T08:32:30.999Z</time></trkpt><trkpt lat="43.99912022616415" lon="11.35886983682753"><ele>305.0</ele><time>2026-04-19T08:32:31.999Z</time></trkpt><trkpt lat="43.999251849337064" lon="11.358972641280232"><ele>305.0</ele><time>2026-04-19T08:32:32.999Z</time></trkpt><trkpt lat="43.999384148142425" lon="11.359062430979174"><ele>305.0</ele><time>2026-04-19T08:32:33.999Z</time></trkpt><trkpt lat="43.99951234539724" lon="11.359136234983632"><ele>305.33333333333337</ele><time>2026-04-19T08:32:34.999Z</time></trkpt><trkpt lat="43.99967216622845" lon="11.359183334927625"><ele>305.6666666666667</ele><time>2026-04-19T08:32:35.999Z</time></trkpt><trkpt lat="43.9998184424682" lon="11.35923261134537"><ele>306.0</ele><time>2026-04-19T08:32:36.999Z</time></trkpt><trkpt lat="43.999953858132514" lon="11.359260630551962"><ele>306.0</ele><time>2026-04-19T08:32:37.999Z</time></trkpt><trkpt lat="44.00008861710417" lon="11.359275159223925"><ele>306.0</ele><time>2026-04-19T08:32:38.999Z</time></trkpt><trkpt lat="44.00022534980402" lon="11.359292467219266"><ele>306.0</ele><time>2026-04-19T08:32:39.999Z</time></trkpt><trkpt lat="44.0003611460533" lon="11.359326269133335"><ele>306.0</ele><time>2026-04-19T08:32:40.999Z</time></trkpt><trkpt lat="44.000482962059344" lon="11.359364158448827"><ele>306.0</ele><time>2026-04-19T08:32:41.999Z</time></trkpt><trkpt lat="44.00059372639541" lon="11.359418853271583"><ele>306.0</ele><time>2026-04-19T08:32:42.999Z</time></trkpt><trkpt lat="44.00069822851239" lon="11.359492733409912"><ele>306.0</ele><time>2026-04-19T08:32:43.999Z</time></trkpt><trkpt lat="44.000786726883874" lon="11.359626647160884"><ele>306.0</ele><time>2026-04-19T08:32:44.999Z</time></trkpt><trkpt lat="44.000887719703556" lon="11.359744698666237"><ele>306.75</ele><time>2026-04-19T08:32:45.999Z</time></trkpt><trkpt lat="44.000993596090154" lon="11.359868458605485"><ele>307.5</ele><time>2026-04-19T08:32:46.999Z</time></trkpt><trkpt lat="44.00112009320131" lon="11.359992253182087"><ele>308.25</ele><time>2026-04-19T08:32:47.999Z</time></trkpt><trkpt lat="44.00123589227025" lon="11.36013064996887"><ele>309.0</ele><time>2026-04-19T08:32:48.999Z</time></trkpt><trkpt lat="44.00134102463002" lon="11.36025828276576"><ele>309.0</ele><time>2026-04-19T08:32:49.999Z</time></trkpt><trkpt lat="44.001449241984105" lon="11.360385559268034"><ele>309.0</ele><time>2026-04-19T08:32:50.999Z</time></trkpt><trkpt lat="44.00156523448477" lon="11.360527476455019"><ele>309.0</ele><time>2026-04-19T08:32:51.999Z</time></trkpt><trkpt lat="44.001691019322365" lon="11.360681501529337"><ele>310.0</ele><time>2026-04-19T08:32:52.999Z</time></trkpt><trkpt lat="44.00182125264046" lon="11.360837743768993"><ele>311.0</ele><time>2026-04-19T08:32:53.999Z</time></trkpt><trkpt lat="44.00195241609987" lon="11.360991013207547"><ele>312.0</ele><time>2026-04-19T08:32:54.999Z</time></trkpt><trkpt lat="44.002084862854744" lon="11.36114492988774"><ele>312.0</ele><time>2026-04-19T08:32:55.999Z</time></trkpt><trkpt lat="44.002214601531755" lon="11.361303507566106"><ele>312.0</ele><time>2026-04-19T08:32:56.999Z</time></trkpt><trkpt lat="44.002353113833436" lon="11.361444841126724"><ele>312.0</ele><time>2026-04-19T08:32:57.999Z</time></trkpt><trkpt lat="44.002475034507015" lon="11.36159002831628"><ele>311.75</ele><time>2026-04-19T08:32:58.999Z</time></trkpt><trkpt lat="44.002584367958896" lon="11.361726653333617"><ele>311.5</ele><time>2026-04-19T08:32:59.999Z</time></trkpt><trkpt lat="44.002688436861774" lon="11.361851536690326"><ele>311.25</ele><time>2026-04-19T08:33:00.999Z</time></trkpt><trkpt lat="44.00278929282226" lon="11.361968651148283"><ele>311.0</ele><time>2026-04-19T08:33:01.999Z</time></trkpt><trkpt lat="44.00288689777983" lon="11.362086458032723"><ele>311.75</ele><time>2026-04-19T08:33:02.999Z</time></trkpt><trkpt lat="44.002982396664194" lon="11.36221736749179"><ele>312.5</ele><time>2026-04-19T08:33:03.999Z</time></trkpt><trkpt lat="44.00308174184186" lon="11.362372191750486"><ele>313.25</ele><time>2026-04-19T08:33:04.999Z</time></trkpt><trkpt lat="44.00316971933395" lon="11.362554300164971"><ele>314.0</ele><time>2026-04-19T08:33:05.999Z</time></trkpt><trkpt lat="44.00325014264344" lon="11.362768029482728"><ele>314.0</ele><time>2026-04-19T08:33:06.999Z</time></trkpt><trkpt lat="44.00332930708765" lon="11.362991211792663"><ele>314.0</ele><time>2026-04-19T08:33:07.999Z</time></trkpt><trkpt lat="44.00341395074947" lon="11.36321817346403"><ele>314.0</ele><time>2026-04-19T08:33:08.999Z</time></trkpt><trkpt lat="44.00349874556159" lon="11.363443586031591"><ele>315.33333333333337</ele><time>2026-04-19T08:33:09.999Z</time></trkpt><trkpt lat="44.00358100770259" lon="11.36366883197155"><ele>316.6666666666667</ele><time>2026-04-19T08:33:10.999Z</time></trkpt><trkpt lat="44.00366560783156" lon="11.363893190729389"><ele>318.0</ele><time>2026-04-19T08:33:11.999Z</time></trkpt><trkpt lat="44.003741848843646" lon="11.364100519488975"><ele>318.0</ele><time>2026-04-19T08:33:12.999Z</time></trkpt><trkpt lat="44.00381211152552" lon="11.364294789455498"><ele>318.0</ele><time>2026-04-19T08:33:13.999Z</time></trkpt><trkpt lat="44.00387847116517" lon="11.364472270569626"><ele>318.0</ele><time>2026-04-19T08:33:14.999Z</time></trkpt><trkpt lat="44.00395776323138" lon="11.36462315070659"><ele>318.0</ele><time>2026-04-19T08:33:15.999Z</time></trkpt><trkpt lat="44.0040552839998" lon="11.364754678487282"><ele>319.6666666666667</ele><time>2026-04-19T08:33:16.999Z</time></trkpt><trkpt lat="44.004181642891915" lon="11.364873306819561"><ele>321.33333333333337</ele><time>2026-04-19T08:33:17.999Z</time></trkpt><trkpt lat="44.00433651528306" lon="11.364972587861212"><ele>323.0</ele><time>2026-04-19T08:33:18.999Z</time></trkpt><trkpt lat="44.004511029115115" lon="11.365057763960996"><ele>323.0</ele><time>2026-04-19T08:33:19.999Z</time></trkpt><trkpt lat="44.0046893805283" lon="11.3651371773648"><ele>323.0</ele><time>2026-04-19T08:33:20.999Z</time></trkpt><trkpt lat="44.00487358316142" lon="11.365226714064553"><ele>323.0</ele><time>2026-04-19T08:33:21.999Z</time></trkpt><trkpt lat="44.00506717441545" lon="11.365325076691054"><ele>323.0</ele><time>2026-04-19T08:33:22.999Z</time></trkpt><trkpt lat="44.005268730925685" lon="11.365425701795598"><ele>323.0</ele><time>2026-04-19T08:33:23.999Z</time></trkpt><trkpt lat="44.00547934342233" lon="11.365533934213435"><ele>323.0</ele><time>2026-04-19T08:33:24.999Z</time></trkpt><trkpt lat="44.00569715960039" lon="11.365648558151047"><ele>323.6666666666667</ele><time>2026-04-19T08:33:25.999Z</time></trkpt><trkpt lat="44.005894730553436" lon="11.36577496772403"><ele>324.3333333333333</ele><time>2026-04-19T08:33:26.999Z</time></trkpt><trkpt lat="44.006069019821716" lon="11.365914418155615"><ele>325.0</ele><time>2026-04-19T08:33:27.999Z</time></trkpt><trkpt lat="44.00622528895115" lon="11.366062613585674"><ele>325.0</ele><time>2026-04-19T08:33:28.999Z</time></trkpt><trkpt lat="44.00637894222492" lon="11.366200197570851"><ele>325.0</ele><time>2026-04-19T08:33:29.999Z</time></trkpt><trkpt lat="44.00652545999905" lon="11.366319901344294"><ele>325.0</ele><time>2026-04-19T08:33:30.999Z</time></trkpt><trkpt lat="44.00666097527103" lon="11.366440112648261"><ele>325.25</ele><time>2026-04-19T08:33:31.999Z</time></trkpt><trkpt lat="44.00678379785001" lon="11.366562774377442"><ele>325.5</ele><time>2026-04-19T08:33:32.999Z</time></trkpt><trkpt lat="44.00690075951414" lon="11.366679357253767"><ele>325.75</ele><time>2026-04-19T08:33:33.999Z</time></trkpt><trkpt lat="44.00700903557382" lon="11.366786588656163"><ele>326.0</ele><time>2026-04-19T08:33:34.999Z</time></trkpt><trkpt lat="44.00711511265" lon="11.366882465921044"><ele>326.0</ele><time>2026-04-19T08:33:35.999Z</time></trkpt><trkpt lat="44.007209219124945" lon="11.366957116444219"><ele>326.0</ele><time>2026-04-19T08:33:36.999Z</time></trkpt><trkpt lat="44.00729055033337" lon="11.367016290080654"><ele>326.0</ele><time>2026-04-19T08:33:37.999Z</time></trkpt><trkpt lat="44.00736387906793" lon="11.367070328406276"><ele>326.0</ele><time>2026-04-19T08:33:38.999Z</time></trkpt><trkpt lat="44.00742749003712" lon="11.367104561295971"><ele>326.0</ele><time>2026-04-19T08:33:39.999Z</time></trkpt><trkpt lat="44.007514843190656" lon="11.367159994212434"><ele>326.0</ele><time>2026-04-19T08:33:41.999Z</time></trkpt><trkpt lat="44.007589312340244" lon="11.366927770374458"><ele>326.0</ele><time>2026-04-19T08:33:42.999Z</time></trkpt><trkpt lat="44.00759969720518" lon="11.36681655271985"><ele>326.0</ele><time>2026-04-19T08:33:43.999Z</time></trkpt><trkpt lat="44.00757371850576" lon="11.366710981187259"><ele>326.0</ele><time>2026-04-19T08:33:44.999Z</time></trkpt><trkpt lat="44.00752035288651" lon="11.366636474924325"><ele>326.0</ele><time>2026-04-19T08:33:45.999Z</time></trkpt><trkpt lat="44.007436087900174" lon="11.366600040840266"><ele>326.0</ele><time>2026-04-19T08:33:47.999Z</time></trkpt><trkpt lat="44.00739743052162" lon="11.366763678290466"><ele>326.0</ele><time>2026-04-19T08:33:49.999Z</time></trkpt><trkpt lat="44.007363771924794" lon="11.366923060678177"><ele>326.0</ele><time>2026-04-19T08:33:51.999Z</time></trkpt><trkpt lat="44.00725270259162" lon="11.366924107881783"><ele>326.0</ele><time>2026-04-19T08:33:52.999Z</time></trkpt><trkpt lat="44.00717775119949" lon="11.366906118046748"><ele>326.0</ele><time>2026-04-19T08:33:53.999Z</time></trkpt><trkpt lat="44.0070988082076" lon="11.366818413022898"><ele>326.0</ele><time>2026-04-19T08:33:54.999Z</time></trkpt><trkpt lat="44.00699448519605" lon="11.36672816397616"><ele>326.0</ele><time>2026-04-19T08:33:55.999Z</time></trkpt><trkpt lat="44.00687007306951" lon="11.366597151275693"><ele>326.0</ele><time>2026-04-19T08:33:56.999Z</time></trkpt><trkpt lat="44.006728629489075" lon="11.366465435569017"><ele>326.0</ele><time>2026-04-19T08:33:57.999Z</time></trkpt><trkpt lat="44.00660074899726" lon="11.36634865237842"><ele>326.0</ele><time>2026-04-19T08:33:58.999Z</time></trkpt><trkpt lat="44.006481736196726" lon="11.36624046571029"><ele>325.8</ele><time>2026-04-19T08:33:59.999Z</time></trkpt><trkpt lat="44.00636896620806" lon="11.366146976332699"><ele>325.6</ele><time>2026-04-19T08:34:00.999Z</time></trkpt><trkpt lat="44.006270782714836" lon="11.366065224381185"><ele>325.4</ele><time>2026-04-19T08:34:01.999Z</time></trkpt><trkpt lat="44.00618809936398" lon="11.365988168104156"><ele>325.2</ele><time>2026-04-19T08:34:02.999Z</time></trkpt><trkpt lat="44.00611690504297" lon="11.365922585992864"><ele>325.0</ele><time>2026-04-19T08:34:03.999Z</time></trkpt><trkpt lat="44.00606072865833" lon="11.365872588046557"><ele>325.0</ele><time>2026-04-19T08:34:04.999Z</time></trkpt><trkpt lat="44.00599934393328" lon="11.365849857281345"><ele>325.0</ele><time>2026-04-19T08:34:05.999Z</time></trkpt><trkpt lat="44.00588895464643" lon="11.366016768940261"><ele>325.0</ele><time>2026-04-19T08:34:07.999Z</time></trkpt><trkpt lat="44.00580911711009" lon="11.366167985913135"><ele>325.0</ele><time>2026-04-19T08:34:08.999Z</time></trkpt><trkpt lat="44.00569767661861" lon="11.366324538134721"><ele>324.0</ele><time>2026-04-19T08:34:09.999Z</time></trkpt><trkpt lat="44.00560000460142" lon="11.366506884996527"><ele>323.0</ele><time>2026-04-19T08:34:10.999Z</time></trkpt><trkpt lat="44.00549395052677" lon="11.366685387926717"><ele>322.0</ele><time>2026-04-19T08:34:11.999Z</time></trkpt><trkpt lat="44.00538131834972" lon="11.366865151401145"><ele>322.0</ele><time>2026-04-19T08:34:12.999Z</time></trkpt><trkpt lat="44.00526336160497" lon="11.36705180069696"><ele>322.0</ele><time>2026-04-19T08:34:13.999Z</time></trkpt><trkpt lat="44.00514114464224" lon="11.367246912371913"><ele>322.0</ele><time>2026-04-19T08:34:14.999Z</time></trkpt><trkpt lat="44.00501113274145" lon="11.367428027106236"><ele>321.66666666666663</ele><time>2026-04-19T08:34:15.999Z</time></trkpt><trkpt lat="44.00487621617702" lon="11.367568673454079"><ele>321.3333333333333</ele><time>2026-04-19T08:34:16.999Z</time></trkpt><trkpt lat="44.00472384037315" lon="11.367681632814714"><ele>321.0</ele><time>2026-04-19T08:34:17.999Z</time></trkpt><trkpt lat="44.00456097134044" lon="11.367768774944699"><ele>321.0</ele><time>2026-04-19T08:34:18.999Z</time></trkpt><trkpt lat="44.00438099674224" lon="11.367824256217384"><ele>321.0</ele><time>2026-04-19T08:34:19.999Z</time></trkpt><trkpt lat="44.00419720777266" lon="11.367846207644257"><ele>321.0</ele><time>2026-04-19T08:34:20.999Z</time></trkpt><trkpt lat="44.00400930443708" lon="11.36784041186646"><ele>321.6666666666667</ele><time>2026-04-19T08:34:21.999Z</time></trkpt><trkpt lat="44.00382245978332" lon="11.367799128124997"><ele>322.33333333333337</ele><time>2026-04-19T08:34:22.999Z</time></trkpt><trkpt lat="44.003637089956044" lon="11.367717587981097"><ele>323.0</ele><time>2026-04-19T08:34:23.999Z</time></trkpt><trkpt lat="44.00344454365658" lon="11.367599536350546"><ele>321.0</ele><time>2026-04-19T08:34:24.999Z</time></trkpt><trkpt lat="44.00323533375548" lon="11.367466904311346"><ele>319.0</ele><time>2026-04-19T08:34:25.999Z</time></trkpt><trkpt lat="44.00300934206988" lon="11.367344245770166"><ele>319.0</ele><time>2026-04-19T08:34:26.999Z</time></trkpt><trkpt lat="44.00278484982071" lon="11.367229723299076"><ele>319.0</ele><time>2026-04-19T08:34:27.999Z</time></trkpt><trkpt lat="44.0025451389326" lon="11.367105182995507"><ele>318.5</ele><time>2026-04-19T08:34:28.999Z</time></trkpt><trkpt lat="44.00229450897437" lon="11.366968796647267"><ele>318.0</ele><time>2026-04-19T08:34:29.999Z</time></trkpt><trkpt lat="44.00202341490634" lon="11.366819824080212"><ele>318.0</ele><time>2026-04-19T08:34:30.999Z</time></trkpt><trkpt lat="44.00174890836837" lon="11.366672921936093"><ele>318.0</ele><time>2026-04-19T08:34:31.999Z</time></trkpt><trkpt lat="44.001461315428855" lon="11.366523333775548"><ele>317.0</ele><time>2026-04-19T08:34:32.999Z</time></trkpt><trkpt lat="44.00115431252211" lon="11.366362564720777"><ele>316.0</ele><time>2026-04-19T08:34:33.999Z</time></trkpt><trkpt lat="44.00083443412535" lon="11.366193635033628"><ele>315.0</ele><time>2026-04-19T08:34:34.999Z</time></trkpt><trkpt lat="44.00050817598853" lon="11.366019198768258"><ele>314.0</ele><time>2026-04-19T08:34:35.999Z</time></trkpt><trkpt lat="44.00016910657258" lon="11.365838976579916"><ele>314.0</ele><time>2026-04-19T08:34:36.999Z</time></trkpt><trkpt lat="43.999835625636514" lon="11.365661444517585"><ele>314.0</ele><time>2026-04-19T08:34:37.999Z</time></trkpt><trkpt lat="43.999501708176126" lon="11.365483254007374"><ele>311.5</ele><time>2026-04-19T08:34:38.999Z</time></trkpt><trkpt lat="43.99915192939146" lon="11.365296978884535"><ele>309.0</ele><time>2026-04-19T08:34:39.999Z</time></trkpt><trkpt lat="43.99880061628795" lon="11.365112429695758"><ele>309.0</ele><time>2026-04-19T08:34:40.999Z</time></trkpt><trkpt lat="43.998475259306076" lon="11.364941596446204"><ele>309.0</ele><time>2026-04-19T08:34:41.999Z</time></trkpt><trkpt lat="43.99817761597526" lon="11.364784964491509"><ele>304.0</ele><time>2026-04-19T08:34:42.999Z</time></trkpt><trkpt lat="43.997902990988564" lon="11.364644885546609"><ele>299.0</ele><time>2026-04-19T08:34:43.999Z</time></trkpt><trkpt lat="43.9976396689631" lon="11.364520227089708"><ele>304.0</ele><time>2026-04-19T08:34:44.999Z</time></trkpt><trkpt lat="43.99739142752208" lon="11.364409455752977"><ele>309.0</ele><time>2026-04-19T08:34:45.999Z</time></trkpt><trkpt lat="43.99715823315828" lon="11.364311683575142"><ele>309.0</ele><time>2026-04-19T08:34:46.999Z</time></trkpt><trkpt lat="43.996938919821815" lon="11.364222063490082"><ele>309.0</ele><time>2026-04-19T08:34:47.999Z</time></trkpt><trkpt lat="43.996731195614984" lon="11.364132170055687"><ele>309.0</ele><time>2026-04-19T08:34:48.999Z</time></trkpt><trkpt lat="43.9965331510786" lon="11.364042118206214"><ele>309.6666666666667</ele><time>2026-04-19T08:34:49.999Z</time></trkpt><trkpt lat="43.99633275852353" lon="11.36395293079094"><ele>310.33333333333337</ele><time>2026-04-19T08:34:50.999Z</time></trkpt><trkpt lat="43.99611964771748" lon="11.363859265326688"><ele>311.0</ele><time>2026-04-19T08:34:51.999Z</time></trkpt><trkpt lat="43.9959021514159" lon="11.363761846293428"><ele>307.33333333333337</ele><time>2026-04-19T08:34:52.999Z</time></trkpt><trkpt lat="43.99568766302397" lon="11.363666319896092"><ele>303.6666666666667</ele><time>2026-04-19T08:34:53.999Z</time></trkpt><trkpt lat="43.99548161699138" lon="11.363575519111945"><ele>300.0</ele><time>2026-04-19T08:34:54.999Z</time></trkpt><trkpt lat="43.99528174650202" lon="11.363486365834744"><ele>300.0</ele><time>2026-04-19T08:34:55.999Z</time></trkpt><trkpt lat="43.995078998957894" lon="11.36340311740457"><ele>300.0</ele><time>2026-04-19T08:34:56.999Z</time></trkpt><trkpt lat="43.99487696902861" lon="11.363335021863053"><ele>300.0</ele><time>2026-04-19T08:34:57.999Z</time></trkpt><trkpt lat="43.99467576783498" lon="11.363280164444701"><ele>299.6666666666667</ele><time>2026-04-19T08:34:58.999Z</time></trkpt><trkpt lat="43.994473786430554" lon="11.36323454130171"><ele>299.33333333333337</ele><time>2026-04-19T08:34:59.999Z</time></trkpt><trkpt lat="43.994275604112374" lon="11.363202296470972"><ele>299.0</ele><time>2026-04-19T08:35:00.999Z</time></trkpt><trkpt lat="43.994079819583284" lon="11.36318313548567"><ele>297.0</ele><time>2026-04-19T08:35:01.999Z</time></trkpt><trkpt lat="43.9938930193698" lon="11.363183765189905"><ele>295.0</ele><time>2026-04-19T08:35:02.999Z</time></trkpt><trkpt lat="43.99371206868936" lon="11.363177533753246"><ele>293.0</ele><time>2026-04-19T08:35:03.999Z</time></trkpt><trkpt lat="43.993546016538126" lon="11.363171996306287"><ele>293.0</ele><time>2026-04-19T08:35:04.999Z</time></trkpt><trkpt lat="43.99339504104272" lon="11.363169286774832"><ele>293.0</ele><time>2026-04-19T08:35:05.999Z</time></trkpt><trkpt lat="43.99325694131577" lon="11.363177011878884"><ele>293.0</ele><time>2026-04-19T08:35:06.999Z</time></trkpt><trkpt lat="43.99312908122568" lon="11.363181739542501"><ele>293.0</ele><time>2026-04-19T08:35:07.999Z</time></trkpt><trkpt lat="43.99301785990071" lon="11.363152187686543"><ele>292.0</ele><time>2026-04-19T08:35:08.999Z</time></trkpt><trkpt lat="43.992929106112115" lon="11.363055516092416"><ele>291.0</ele><time>2026-04-19T08:35:09.999Z</time></trkpt><trkpt lat="43.99285046170415" lon="11.363043251803033"><ele>290.0</ele><time>2026-04-19T08:35:10.999Z</time></trkpt><trkpt lat="43.9927740007363" lon="11.363056297357632"><ele>289.0</ele><time>2026-04-19T08:35:11.999Z</time></trkpt><trkpt lat="43.992707816577706" lon="11.363156274115907"><ele>288.0</ele><time>2026-04-19T08:35:12.999Z</time></trkpt><trkpt lat="43.99265422082229" lon="11.363279356060522"><ele>288.0</ele><time>2026-04-19T08:35:13.999Z</time></trkpt><trkpt lat="43.99260608003825" lon="11.363448848958248"><ele>288.0</ele><time>2026-04-19T08:35:14.999Z</time></trkpt><trkpt lat="43.99252810698081" lon="11.36361582717833"><ele>288.0</ele><time>2026-04-19T08:35:15.999Z</time></trkpt><trkpt lat="43.99241204754904" lon="11.363784502765839"><ele>288.0</ele><time>2026-04-19T08:35:16.999Z</time></trkpt><trkpt lat="43.992299254080706" lon="11.363970974833029"><ele>285.0</ele><time>2026-04-19T08:35:17.999Z</time></trkpt><trkpt lat="43.9921955339306" lon="11.364202864638234"><ele>282.0</ele><time>2026-04-19T08:35:18.999Z</time></trkpt><trkpt lat="43.99208842102003" lon="11.364464239258828"><ele>279.0</ele><time>2026-04-19T08:35:19.999Z</time></trkpt><trkpt lat="43.991986897578606" lon="11.364731036796783"><ele>275.6666666666667</ele><time>2026-04-19T08:35:20.999Z</time></trkpt><trkpt lat="43.99189252657094" lon="11.364998674425351"><ele>272.33333333333337</ele><time>2026-04-19T08:35:21.999Z</time></trkpt><trkpt lat="43.9917970545901" lon="11.365263337623361"><ele>269.0</ele><time>2026-04-19T08:35:22.999Z</time></trkpt><trkpt lat="43.991697302367655" lon="11.365525654835912"><ele>266.0</ele><time>2026-04-19T08:35:23.999Z</time></trkpt><trkpt lat="43.99160198211051" lon="11.365785875167118"><ele>263.0</ele><time>2026-04-19T08:35:24.999Z</time></trkpt><trkpt lat="43.99150689750032" lon="11.366048267118888"><ele>260.0</ele><time>2026-04-19T08:35:25.999Z</time></trkpt><trkpt lat="43.99141155311358" lon="11.36630889952465"><ele>257.6666666666667</ele><time>2026-04-19T08:35:26.999Z</time></trkpt><trkpt lat="43.991314652183405" lon="11.366565863538083"><ele>255.33333333333331</ele><time>2026-04-19T08:35:27.999Z</time></trkpt><trkpt lat="43.9912200600345" lon="11.36682375246341"><ele>253.0</ele><time>2026-04-19T08:35:28.999Z</time></trkpt><trkpt lat="43.99113019226117" lon="11.367079363802969"><ele>251.33333333333331</ele><time>2026-04-19T08:35:29.999Z</time></trkpt><trkpt lat="43.991048072312516" lon="11.367340661464237"><ele>249.66666666666669</ele><time>2026-04-19T08:35:30.999Z</time></trkpt><trkpt lat="43.990969139969025" lon="11.3675911378226"><ele>248.0</ele><time>2026-04-19T08:35:31.999Z</time></trkpt><trkpt lat="43.99089351489541" lon="11.367835913186848"><ele>246.0</ele><time>2026-04-19T08:35:32.999Z</time></trkpt><trkpt lat="43.99082529039507" lon="11.368060587445697"><ele>244.0</ele><time>2026-04-19T08:35:33.999Z</time></trkpt><trkpt lat="43.990764574347835" lon="11.36828144768501"><ele>242.0</ele><time>2026-04-19T08:35:34.999Z</time></trkpt><trkpt lat="43.99071036787943" lon="11.368493998702045"><ele>242.0</ele><time>2026-04-19T08:35:35.999Z</time></trkpt><trkpt lat="43.99066190629916" lon="11.36868912650749"><ele>242.0</ele><time>2026-04-19T08:35:36.999Z</time></trkpt><trkpt lat="43.99062165993778" lon="11.368867901446034"><ele>242.0</ele><time>2026-04-19T08:35:37.999Z</time></trkpt><trkpt lat="43.99058196814973" lon="11.369035597177946"><ele>242.0</ele><time>2026-04-19T08:35:38.999Z</time></trkpt><trkpt lat="43.990512710492396" lon="11.369167669361081"><ele>242.16666666666669</ele><time>2026-04-19T08:35:39.999Z</time></trkpt><trkpt lat="43.990474747989126" lon="11.369313578055046"><ele>242.33333333333334</ele><time>2026-04-19T08:35:40.999Z</time></trkpt><trkpt lat="43.99044161690383" lon="11.369446762469465"><ele>242.5</ele><time>2026-04-19T08:35:41.999Z</time></trkpt><trkpt lat="43.99041559524665" lon="11.36955596037902"><ele>242.66666666666669</ele><time>2026-04-19T08:35:42.999Z</time></trkpt><trkpt lat="43.990394743888146" lon="11.369644655807653"><ele>242.83333333333334</ele><time>2026-04-19T08:35:43.999Z</time></trkpt><trkpt lat="43.990374395966036" lon="11.369729281831676"><ele>243.0</ele><time>2026-04-19T08:35:44.999Z</time></trkpt><trkpt lat="43.99034900376874" lon="11.36982814817249"><ele>244.33333333333331</ele><time>2026-04-19T08:35:46.999Z</time></trkpt><trkpt lat="43.990535111168576" lon="11.370192304038927"><ele>245.66666666666666</ele><time>2026-04-19T08:35:50.999Z</time></trkpt><trkpt lat="43.99061425812567" lon="11.370215253278575"><ele>247.0</ele><time>2026-04-19T08:35:53.999Z</time></trkpt><trkpt lat="43.990688214001324" lon="11.370246322877838"><ele>246.99999999999997</ele><time>2026-04-19T08:35:56.999Z</time></trkpt><trkpt lat="43.99076319881513" lon="11.370151040943664"><ele>247.0</ele><time>2026-04-19T08:42:03.999Z</time></trkpt><trkpt lat="43.99069891930789" lon="11.370162855899888"><ele>247.0</ele><time>2026-04-19T08:42:28.999Z</time></trkpt><trkpt lat="43.99077361949517" lon="11.370144839001151"><ele>247.0</ele><time>2026-04-19T08:50:00.999Z</time></trkpt><trkpt lat="43.990721075620485" lon="11.370095872380169"><ele>246.99999999999997</ele><time>2026-04-19T08:50:27.999Z</time></trkpt><trkpt lat="43.990674296721934" lon="11.370035123530826"><ele>247.0</ele><time>2026-04-19T08:50:28.999Z</time></trkpt><trkpt lat="43.99060501695008" lon="11.3699351133555"><ele>246.99999999999997</ele><time>2026-04-19T08:50:30.999Z</time></trkpt><trkpt lat="43.99055485775248" lon="11.369819405328693"><ele>247.0</ele><time>2026-04-19T08:50:32.999Z</time></trkpt><trkpt lat="43.99051994042896" lon="11.369723846875974"><ele>247.0</ele><time>2026-04-19T08:50:33.999Z</time></trkpt><trkpt lat="43.99049198008961" lon="11.369619953310995"><ele>247.0</ele><time>2026-04-19T08:50:34.999Z</time></trkpt><trkpt lat="43.99048353515513" lon="11.369504507981961"><ele>246.99999999999997</ele><time>2026-04-19T08:50:35.999Z</time></trkpt><trkpt lat="43.99049962639429" lon="11.36938003478841"><ele>247.0</ele><time>2026-04-19T08:50:36.999Z</time></trkpt><trkpt lat="43.99053098312554" lon="11.369243057879727"><ele>246.0</ele><time>2026-04-19T08:50:37.999Z</time></trkpt><trkpt lat="43.99056653290704" lon="11.369099480118557"><ele>245.0</ele><time>2026-04-19T08:50:38.999Z</time></trkpt><trkpt lat="43.99061305420538" lon="11.368925978642562"><ele>244.0</ele><time>2026-04-19T08:50:39.999Z</time></trkpt><trkpt lat="43.99066091598552" lon="11.368742326640271"><ele>243.0</ele><time>2026-04-19T08:50:40.999Z</time></trkpt><trkpt lat="43.99070869277814" lon="11.368567836071792"><ele>242.75</ele><time>2026-04-19T08:50:41.999Z</time></trkpt><trkpt lat="43.99075680331498" lon="11.368400971868185"><ele>242.5</ele><time>2026-04-19T08:50:42.999Z</time></trkpt><trkpt lat="43.9908096025445" lon="11.368211501636116"><ele>242.25</ele><time>2026-04-19T08:50:43.999Z</time></trkpt><trkpt lat="43.990869808021934" lon="11.368018696538265"><ele>242.0</ele><time>2026-04-19T08:50:44.999Z</time></trkpt><trkpt lat="43.99093354608582" lon="11.367790007759103"><ele>244.0</ele><time>2026-04-19T08:50:45.999Z</time></trkpt><trkpt lat="43.991013360691014" lon="11.36753800903728"><ele>246.0</ele><time>2026-04-19T08:50:46.999Z</time></trkpt><trkpt lat="43.99109454705539" lon="11.367296992369445"><ele>248.0</ele><time>2026-04-19T08:50:47.999Z</time></trkpt><trkpt lat="43.9911809625362" lon="11.367042570411735"><ele>249.66666666666669</ele><time>2026-04-19T08:50:48.999Z</time></trkpt><trkpt lat="43.99126812326563" lon="11.366798843769546"><ele>251.33333333333331</ele><time>2026-04-19T08:50:49.999Z</time></trkpt><trkpt lat="43.991354786791405" lon="11.366567130029262"><ele>253.0</ele><time>2026-04-19T08:50:50.999Z</time></trkpt><trkpt lat="43.991438306786314" lon="11.36632791119121"><ele>255.33333333333331</ele><time>2026-04-19T08:50:51.999Z</time></trkpt><trkpt lat="43.9915231668549" lon="11.366089023047833"><ele>257.6666666666667</ele><time>2026-04-19T08:50:52.999Z</time></trkpt><trkpt lat="43.99160747822745" lon="11.365855115465079"><ele>260.0</ele><time>2026-04-19T08:50:53.999Z</time></trkpt><trkpt lat="43.99169103552899" lon="11.365627832237935"><ele>263.0</ele><time>2026-04-19T08:50:54.999Z</time></trkpt><trkpt lat="43.99177350813489" lon="11.365405269365995"><ele>266.0</ele><time>2026-04-19T08:50:55.999Z</time></trkpt><trkpt lat="43.991854866575714" lon="11.365190782843884"><ele>269.0</ele><time>2026-04-19T08:50:56.999Z</time></trkpt><trkpt lat="43.99193430305937" lon="11.364979066018398"><ele>269.0</ele><time>2026-04-19T08:50:57.999Z</time></trkpt><trkpt lat="43.99201012854506" lon="11.364759417707258"><ele>269.0</ele><time>2026-04-19T08:50:58.999Z</time></trkpt><trkpt lat="43.99208868359735" lon="11.364544629505117"><ele>269.0</ele><time>2026-04-19T08:50:59.999Z</time></trkpt><trkpt lat="43.992166886512315" lon="11.364340290212029"><ele>272.33333333333337</ele><time>2026-04-19T08:51:00.999Z</time></trkpt><trkpt lat="43.99225181476992" lon="11.36414650028017"><ele>275.6666666666667</ele><time>2026-04-19T08:51:01.999Z</time></trkpt><trkpt lat="43.9923414065165" lon="11.363967340063503"><ele>279.0</ele><time>2026-04-19T08:51:02.999Z</time></trkpt><trkpt lat="43.992431613491796" lon="11.363821178978549"><ele>281.25</ele><time>2026-04-19T08:51:03.999Z</time></trkpt><trkpt lat="43.99252533725539" lon="11.363701269446816"><ele>283.5</ele><time>2026-04-19T08:51:04.999Z</time></trkpt><trkpt lat="43.992618747798836" lon="11.363609386175257"><ele>285.75</ele><time>2026-04-19T08:51:05.999Z</time></trkpt><trkpt lat="43.99269306209896" lon="11.363514988303747"><ele>288.0</ele><time>2026-04-19T08:51:06.999Z</time></trkpt><trkpt lat="43.99280245203408" lon="11.36349444557374"><ele>288.0</ele><time>2026-04-19T08:51:07.999Z</time></trkpt><trkpt lat="43.992915831964574" lon="11.363435492335121"><ele>288.0</ele><time>2026-04-19T08:51:08.999Z</time></trkpt><trkpt lat="43.993039743594" lon="11.363355428113445"><ele>288.0</ele><time>2026-04-19T08:51:09.999Z</time></trkpt><trkpt lat="43.99316995626606" lon="11.363288645155983"><ele>288.0</ele><time>2026-04-19T08:51:10.999Z</time></trkpt><trkpt lat="43.99331879591907" lon="11.36325120148996"><ele>289.6666666666667</ele><time>2026-04-19T08:51:11.999Z</time></trkpt><trkpt lat="43.99348318612273" lon="11.363233656009871"><ele>291.33333333333337</ele><time>2026-04-19T08:51:12.999Z</time></trkpt><trkpt lat="43.99364149445229" lon="11.363240496945595"><ele>293.0</ele><time>2026-04-19T08:51:13.999Z</time></trkpt><trkpt lat="43.99380312014642" lon="11.363250140032488"><ele>293.0</ele><time>2026-04-19T08:51:14.999Z</time></trkpt><trkpt lat="43.993963607590636" lon="11.363254410489793"><ele>293.0</ele><time>2026-04-19T08:51:15.999Z</time></trkpt><trkpt lat="43.99412014079353" lon="11.363253625329673"><ele>293.0</ele><time>2026-04-19T08:51:16.999Z</time></trkpt><trkpt lat="43.994268102598305" lon="11.363235374064582"><ele>295.0</ele><time>2026-04-19T08:51:17.999Z</time></trkpt><trkpt lat="43.99443527963099" lon="11.363253627911162"><ele>297.0</ele><time>2026-04-19T08:51:18.999Z</time></trkpt><trkpt lat="43.99461614426189" lon="11.36328356514928"><ele>299.0</ele><time>2026-04-19T08:51:19.999Z</time></trkpt><trkpt lat="43.99479525607788" lon="11.363346190224409"><ele>299.0</ele><time>2026-04-19T08:51:20.999Z</time></trkpt><trkpt lat="43.99498384828378" lon="11.36340378363971"><ele>299.0</ele><time>2026-04-19T08:51:21.999Z</time></trkpt><trkpt lat="43.99517863820624" lon="11.363480992782415"><ele>299.0</ele><time>2026-04-19T08:51:22.999Z</time></trkpt><trkpt lat="43.99537433461093" lon="11.363556457544501"><ele>299.33333333333337</ele><time>2026-04-19T08:51:23.999Z</time></trkpt><trkpt lat="43.995569799539496" lon="11.36365241282008"><ele>299.6666666666667</ele><time>2026-04-19T08:51:24.999Z</time></trkpt><trkpt lat="43.99577003532081" lon="11.36374338052571"><ele>300.0</ele><time>2026-04-19T08:51:25.999Z</time></trkpt><trkpt lat="43.99597322461299" lon="11.363833683309426"><ele>303.6666666666667</ele><time>2026-04-19T08:51:26.999Z</time></trkpt><trkpt lat="43.99618223690291" lon="11.363918169228883"><ele>307.33333333333337</ele><time>2026-04-19T08:51:27.999Z</time></trkpt><trkpt lat="43.99638998152576" lon="11.364012304881847"><ele>311.0</ele><time>2026-04-19T08:51:28.999Z</time></trkpt><trkpt lat="43.99660339644679" lon="11.364111984386648"><ele>310.0</ele><time>2026-04-19T08:51:29.999Z</time></trkpt><trkpt lat="43.99682224045052" lon="11.364201596623884"><ele>309.0</ele><time>2026-04-19T08:51:30.999Z</time></trkpt><trkpt lat="43.99703954320775" lon="11.364295347484106"><ele>309.0</ele><time>2026-04-19T08:51:31.999Z</time></trkpt><trkpt lat="43.997255100805916" lon="11.364391238454406"><ele>309.0</ele><time>2026-04-19T08:51:32.999Z</time></trkpt><trkpt lat="43.99747549252736" lon="11.364484991502051"><ele>307.5</ele><time>2026-04-19T08:51:33.999Z</time></trkpt><trkpt lat="43.99770436683632" lon="11.364590623560712"><ele>306.0</ele><time>2026-04-19T08:51:35Z</time></trkpt><trkpt lat="43.997932958450875" lon="11.36469807003277"><ele>306.0</ele><time>2026-04-19T08:51:36Z</time></trkpt><trkpt lat="43.99817970128704" lon="11.364816336245072"><ele>306.0</ele><time>2026-04-19T08:51:37Z</time></trkpt><trkpt lat="43.998409325758125" lon="11.364944569636384"><ele>307.5</ele><time>2026-04-19T08:51:38Z</time></trkpt><trkpt lat="43.99863411956255" lon="11.36506763799426"><ele>309.0</ele><time>2026-04-19T08:51:39Z</time></trkpt><trkpt lat="43.99885765014297" lon="11.365195086686793"><ele>309.0</ele><time>2026-04-19T08:51:40Z</time></trkpt><trkpt lat="43.99908345985735" lon="11.365315180820435"><ele>309.0</ele><time>2026-04-19T08:51:41Z</time></trkpt><trkpt lat="43.999306509484754" lon="11.36542951282447"><ele>311.5</ele><time>2026-04-19T08:51:42Z</time></trkpt><trkpt lat="43.99952355574422" lon="11.365553832564853"><ele>314.0</ele><time>2026-04-19T08:51:43Z</time></trkpt><trkpt lat="43.99974253654776" lon="11.365669337863835"><ele>314.0</ele><time>2026-04-19T08:51:44Z</time></trkpt><trkpt lat="43.9999579280106" lon="11.36578545332646"><ele>314.0</ele><time>2026-04-19T08:51:45Z</time></trkpt><trkpt lat="44.0001728487796" lon="11.365901330451264"><ele>314.0</ele><time>2026-04-19T08:51:46Z</time></trkpt><trkpt lat="44.00038714854134" lon="11.366011594596452"><ele>314.0</ele><time>2026-04-19T08:51:47Z</time></trkpt><trkpt lat="44.00060097135448" lon="11.366118207948478"><ele>314.0</ele><time>2026-04-19T08:51:48Z</time></trkpt><trkpt lat="44.00081412023472" lon="11.366233057578972"><ele>314.0</ele><time>2026-04-19T08:51:49Z</time></trkpt><trkpt lat="44.00102200179266" lon="11.366351955419677"><ele>314.6666666666667</ele><time>2026-04-19T08:51:50Z</time></trkpt><trkpt lat="44.001230644435815" lon="11.366463678366438"><ele>315.3333333333333</ele><time>2026-04-19T08:51:51Z</time></trkpt><trkpt lat="44.00144112928667" lon="11.36657318877111"><ele>316.0</ele><time>2026-04-19T08:51:52Z</time></trkpt><trkpt lat="44.00164838693823" lon="11.366678867463657"><ele>316.66666666666663</ele><time>2026-04-19T08:51:53Z</time></trkpt><trkpt lat="44.00185713388232" lon="11.366788041523769"><ele>317.3333333333333</ele><time>2026-04-19T08:51:54Z</time></trkpt><trkpt lat="44.002061898576386" lon="11.366895037945717"><ele>318.0</ele><time>2026-04-19T08:51:55Z</time></trkpt><trkpt lat="44.002270353602114" lon="11.367008141144018"><ele>318.0</ele><time>2026-04-19T08:51:56Z</time></trkpt><trkpt lat="44.00248360944986" lon="11.367125046675854"><ele>318.0</ele><time>2026-04-19T08:51:57Z</time></trkpt><trkpt lat="44.00269164147512" lon="11.36723925173331"><ele>318.3333333333333</ele><time>2026-04-19T08:51:58Z</time></trkpt><trkpt lat="44.00288311829313" lon="11.367330752638303"><ele>318.66666666666663</ele><time>2026-04-19T08:51:59Z</time></trkpt><trkpt lat="44.00307195072459" lon="11.3674358477826"><ele>319.0</ele><time>2026-04-19T08:52:00Z</time></trkpt><trkpt lat="44.00326295131875" lon="11.367538339228988"><ele>320.3333333333333</ele><time>2026-04-19T08:52:01Z</time></trkpt><trkpt lat="44.00344499653316" lon="11.36763479545154"><ele>321.6666666666667</ele><time>2026-04-19T08:52:02Z</time></trkpt><trkpt lat="44.003611829814176" lon="11.367722411855436"><ele>323.0</ele><time>2026-04-19T08:52:03Z</time></trkpt><trkpt lat="44.00377072317208" lon="11.36780252558922"><ele>323.0</ele><time>2026-04-19T08:52:04Z</time></trkpt><trkpt lat="44.00392802585089" lon="11.367868677644468"><ele>323.0</ele><time>2026-04-19T08:52:05Z</time></trkpt><trkpt lat="44.00408493151258" lon="11.36791373966508"><ele>323.0</ele><time>2026-04-19T08:52:06Z</time></trkpt><trkpt lat="44.00425461388187" lon="11.367913346274582"><ele>322.33333333333337</ele><time>2026-04-19T08:52:07Z</time></trkpt><trkpt lat="44.004426788031076" lon="11.367886539872377"><ele>321.6666666666667</ele><time>2026-04-19T08:52:08Z</time></trkpt><trkpt lat="44.00459516536276" lon="11.367834918127471"><ele>321.0</ele><time>2026-04-19T08:52:09Z</time></trkpt><trkpt lat="44.004754720119564" lon="11.367747650026965"><ele>321.0</ele><time>2026-04-19T08:52:10Z</time></trkpt><trkpt lat="44.00490661259274" lon="11.367620969657809"><ele>321.0</ele><time>2026-04-19T08:52:11Z</time></trkpt><trkpt lat="44.00505369834453" lon="11.36745811359426"><ele>321.0</ele><time>2026-04-19T08:52:12Z</time></trkpt><trkpt lat="44.00519310470477" lon="11.367272138385728"><ele>321.3333333333333</ele><time>2026-04-19T08:52:13Z</time></trkpt><trkpt lat="44.00531418263455" lon="11.36708171018565"><ele>321.66666666666663</ele><time>2026-04-19T08:52:14Z</time></trkpt><trkpt lat="44.005424231659426" lon="11.36689742957112"><ele>322.0</ele><time>2026-04-19T08:52:15Z</time></trkpt><trkpt lat="44.005523381734356" lon="11.366724311736496"><ele>322.0</ele><time>2026-04-19T08:52:16Z</time></trkpt><trkpt lat="44.00561757280974" lon="11.366568822053264"><ele>322.0</ele><time>2026-04-19T08:52:17Z</time></trkpt><trkpt lat="44.005711103048846" lon="11.366424157962866"><ele>322.0</ele><time>2026-04-19T08:52:18Z</time></trkpt><trkpt lat="44.00579813733774" lon="11.366296679656877"><ele>322.0</ele><time>2026-04-19T08:52:19Z</time></trkpt><trkpt lat="44.005877340996584" lon="11.366189566444417"><ele>322.6</ele><time>2026-04-19T08:52:20Z</time></trkpt><trkpt lat="44.00593577958321" lon="11.36608946794356"><ele>323.20000000000005</ele><time>2026-04-19T08:52:21Z</time></trkpt><trkpt lat="44.005978484074646" lon="11.366003473940665"><ele>323.8</ele><time>2026-04-19T08:52:22Z</time></trkpt><trkpt lat="44.006107960424785" lon="11.366038049350403"><ele>324.4</ele><time>2026-04-19T08:52:23Z</time></trkpt><trkpt lat="44.006186620879745" lon="11.366050210581484"><ele>325.0</ele><time>2026-04-19T08:52:24Z</time></trkpt><trkpt lat="44.00625440113458" lon="11.36609964869772"><ele>325.0</ele><time>2026-04-19T08:52:25Z</time></trkpt><trkpt lat="44.006318710509696" lon="11.366133271604118"><ele>325.0</ele><time>2026-04-19T08:52:26Z</time></trkpt><trkpt lat="44.00638754208525" lon="11.36620461255139"><ele>325.0</ele><time>2026-04-19T08:52:27Z</time></trkpt><trkpt lat="44.0064638211078" lon="11.366264022595256"><ele>325.0</ele><time>2026-04-19T08:52:28Z</time></trkpt><trkpt lat="44.006563122995864" lon="11.366355407134687"><ele>325.0</ele><time>2026-04-19T08:52:29Z</time></trkpt><trkpt lat="44.00667640305937" lon="11.366472271555635"><ele>325.3333333333333</ele><time>2026-04-19T08:52:30Z</time></trkpt><trkpt lat="44.00680456999702" lon="11.366592216788499"><ele>325.6666666666667</ele><time>2026-04-19T08:52:31Z</time></trkpt><trkpt lat="44.00694033383418" lon="11.366720446321136"><ele>326.0</ele><time>2026-04-19T08:52:32Z</time></trkpt><trkpt lat="44.0070732101595" lon="11.366851260698954"><ele>326.0</ele><time>2026-04-19T08:52:33Z</time></trkpt><trkpt lat="44.00719752815406" lon="11.366964229676453"><ele>326.0</ele><time>2026-04-19T08:52:34Z</time></trkpt><trkpt lat="44.00732095375064" lon="11.367058861824944"><ele>326.0</ele><time>2026-04-19T08:52:35Z</time></trkpt><trkpt lat="44.0074391514206" lon="11.367128479255651"><ele>326.0</ele><time>2026-04-19T08:52:36Z</time></trkpt><trkpt lat="44.007558898031355" lon="11.367169728222352"><ele>326.0</ele><time>2026-04-19T08:52:37Z</time></trkpt><trkpt lat="44.007670403839185" lon="11.367179706994293"><ele>326.0</ele><time>2026-04-19T08:52:38Z</time></trkpt><trkpt lat="44.00777381197061" lon="11.367181549858076"><ele>326.0</ele><time>2026-04-19T08:52:39Z</time></trkpt><trkpt lat="44.007881293997634" lon="11.367181012032749"><ele>326.0</ele><time>2026-04-19T08:52:40Z</time></trkpt><trkpt lat="44.00798268359032" lon="11.367187078388032"><ele>326.0</ele><time>2026-04-19T08:52:41Z</time></trkpt><trkpt lat="44.00808273083824" lon="11.36719073751602"><ele>326.0</ele><time>2026-04-19T08:52:42Z</time></trkpt><trkpt lat="44.00820295221084" lon="11.367189148143662"><ele>326.0</ele><time>2026-04-19T08:52:43Z</time></trkpt><trkpt lat="44.0083458148755" lon="11.367202675738342"><ele>326.0</ele><time>2026-04-19T08:52:44Z</time></trkpt><trkpt lat="44.00849767515196" lon="11.367228931768379"><ele>326.0</ele><time>2026-04-19T08:52:45Z</time></trkpt><trkpt lat="44.00865846481392" lon="11.367274608981967"><ele>327.33333333333337</ele><time>2026-04-19T08:52:46Z</time></trkpt><trkpt lat="44.00883645003442" lon="11.367358857242232"><ele>328.6666666666667</ele><time>2026-04-19T08:52:47Z</time></trkpt><trkpt lat="44.009023136049706" lon="11.367461862753082"><ele>330.0</ele><time>2026-04-19T08:52:48Z</time></trkpt><trkpt lat="44.009220281125884" lon="11.367554733957851"><ele>332.5</ele><time>2026-04-19T08:52:49Z</time></trkpt><trkpt lat="44.00943116221202" lon="11.367657239552708"><ele>335.0</ele><time>2026-04-19T08:52:50Z</time></trkpt><trkpt lat="44.00964536250303" lon="11.367763293960756"><ele>335.0</ele><time>2026-04-19T08:52:51Z</time></trkpt><trkpt lat="44.009848578309516" lon="11.367859625465064"><ele>335.0</ele><time>2026-04-19T08:52:52Z</time></trkpt><trkpt lat="44.01004023711956" lon="11.36795532427892"><ele>335.0</ele><time>2026-04-19T08:52:53Z</time></trkpt><trkpt lat="44.01022502620028" lon="11.36804951445402"><ele>336.33333333333337</ele><time>2026-04-19T08:52:54Z</time></trkpt><trkpt lat="44.01041166322874" lon="11.368150661198722"><ele>337.6666666666667</ele><time>2026-04-19T08:52:55Z</time></trkpt><trkpt lat="44.01060463009561" lon="11.368261814166726"><ele>339.0</ele><time>2026-04-19T08:52:56Z</time></trkpt><trkpt lat="44.01079334922073" lon="11.368367588749566"><ele>341.6666666666667</ele><time>2026-04-19T08:52:57Z</time></trkpt><trkpt lat="44.01096730249412" lon="11.368453812367466"><ele>344.33333333333337</ele><time>2026-04-19T08:52:58Z</time></trkpt><trkpt lat="44.011138547031614" lon="11.36851103673825"><ele>347.0</ele><time>2026-04-19T08:52:59Z</time></trkpt><trkpt lat="44.01132506865798" lon="11.368508076302057"><ele>347.0</ele><time>2026-04-19T08:53:00Z</time></trkpt><trkpt lat="44.011520367078084" lon="11.368473808833539"><ele>347.0</ele><time>2026-04-19T08:53:01Z</time></trkpt><trkpt lat="44.01171064859578" lon="11.368430325546171"><ele>347.0</ele><time>2026-04-19T08:53:02Z</time></trkpt><trkpt lat="44.01189469185031" lon="11.368389408719352"><ele>348.5</ele><time>2026-04-19T08:53:03Z</time></trkpt><trkpt lat="44.0120580720453" lon="11.368368589835908"><ele>350.0</ele><time>2026-04-19T08:53:04Z</time></trkpt><trkpt lat="44.012198061876774" lon="11.368354567464133"><ele>351.5</ele><time>2026-04-19T08:53:05Z</time></trkpt><trkpt lat="44.012305115028084" lon="11.368377529897884"><ele>353.0</ele><time>2026-04-19T08:53:06Z</time></trkpt><trkpt lat="44.012425515590664" lon="11.368453227621439"><ele>352.6666666666667</ele><time>2026-04-19T08:53:07Z</time></trkpt><trkpt lat="44.01255383916042" lon="11.368611919586563"><ele>352.3333333333333</ele><time>2026-04-19T08:53:08Z</time></trkpt><trkpt lat="44.012694299286736" lon="11.368763274418273"><ele>352.0</ele><time>2026-04-19T08:53:09Z</time></trkpt><trkpt lat="44.012824925969014" lon="11.368919838128498"><ele>352.66666666666663</ele><time>2026-04-19T08:53:10Z</time></trkpt><trkpt lat="44.012951056926816" lon="11.369059009059164"><ele>353.3333333333333</ele><time>2026-04-19T08:53:11Z</time></trkpt><trkpt lat="44.01307468277122" lon="11.369198648794516"><ele>354.0</ele><time>2026-04-19T08:53:12Z</time></trkpt><trkpt lat="44.013194836919915" lon="11.369383991723241"><ele>354.0</ele><time>2026-04-19T08:53:13Z</time></trkpt><trkpt lat="44.01329721054997" lon="11.369625072394644"><ele>354.0</ele><time>2026-04-19T08:53:14Z</time></trkpt><trkpt lat="44.0133883978903" lon="11.369898367569716"><ele>354.0</ele><time>2026-04-19T08:53:15Z</time></trkpt><trkpt lat="44.013476654350946" lon="11.370168185573014"><ele>358.0</ele><time>2026-04-19T08:53:16Z</time></trkpt><trkpt lat="44.01357292285895" lon="11.37040352131408"><ele>362.0</ele><time>2026-04-19T08:53:17Z</time></trkpt><trkpt lat="44.01368846348292" lon="11.3705913635349"><ele>366.0</ele><time>2026-04-19T08:53:18Z</time></trkpt><trkpt lat="44.01383867138508" lon="11.370732865060658"><ele>366.3333333333333</ele><time>2026-04-19T08:53:19Z</time></trkpt><trkpt lat="44.01402463201602" lon="11.37082746943677"><ele>366.66666666666663</ele><time>2026-04-19T08:53:20Z</time></trkpt><trkpt lat="44.01422732380377" lon="11.370919038039888"><ele>367.0</ele><time>2026-04-19T08:53:21Z</time></trkpt><trkpt lat="44.014416016625816" lon="11.371043223256114"><ele>368.3333333333333</ele><time>2026-04-19T08:53:22Z</time></trkpt><trkpt lat="44.01459628868198" lon="11.371169840047775"><ele>369.6666666666667</ele><time>2026-04-19T08:53:23Z</time></trkpt><trkpt lat="44.014790857621335" lon="11.37123848898121"><ele>371.0</ele><time>2026-04-19T08:53:24Z</time></trkpt><trkpt lat="44.014972103272214" lon="11.371280155987973"><ele>374.6666666666667</ele><time>2026-04-19T08:53:25Z</time></trkpt><trkpt lat="44.01512632256159" lon="11.371311102582741"><ele>378.3333333333333</ele><time>2026-04-19T08:53:26Z</time></trkpt><trkpt lat="44.01526939204535" lon="11.371297114020647"><ele>382.0</ele><time>2026-04-19T08:53:27Z</time></trkpt><trkpt lat="44.01541859709664" lon="11.371222876306993"><ele>382.0</ele><time>2026-04-19T08:53:28Z</time></trkpt><trkpt lat="44.01556334009178" lon="11.371104680604631"><ele>382.0</ele><time>2026-04-19T08:53:29Z</time></trkpt><trkpt lat="44.01570492454317" lon="11.371070363124275"><ele>382.0</ele><time>2026-04-19T08:53:30Z</time></trkpt><trkpt lat="44.015841634622" lon="11.371105490877378"><ele>383.5</ele><time>2026-04-19T08:53:31Z</time></trkpt><trkpt lat="44.01599619058271" lon="11.371184688863977"><ele>385.0</ele><time>2026-04-19T08:53:32Z</time></trkpt><trkpt lat="44.01612591814296" lon="11.371290728142158"><ele>386.5</ele><time>2026-04-19T08:53:33Z</time></trkpt><trkpt lat="44.01624327058691" lon="11.371294299865255"><ele>388.0</ele><time>2026-04-19T08:53:34Z</time></trkpt><trkpt lat="44.01635034480948" lon="11.371201447925433"><ele>388.0</ele><time>2026-04-19T08:53:35Z</time></trkpt><trkpt lat="44.016442812191826" lon="11.371015895405959"><ele>388.0</ele><time>2026-04-19T08:53:36Z</time></trkpt><trkpt lat="44.01651903517486" lon="11.370797577077733"><ele>388.0</ele><time>2026-04-19T08:53:37Z</time></trkpt><trkpt lat="44.01664911145176" lon="11.37067200389597"><ele>387.33333333333337</ele><time>2026-04-19T08:53:38Z</time></trkpt><trkpt lat="44.01680346559234" lon="11.370565676562888"><ele>386.66666666666663</ele><time>2026-04-19T08:53:39Z</time></trkpt><trkpt lat="44.01698201026605" lon="11.370460384927883"><ele>386.0</ele><time>2026-04-19T08:53:40Z</time></trkpt><trkpt lat="44.01712735295666" lon="11.370377415068551"><ele>385.75</ele><time>2026-04-19T08:53:41Z</time></trkpt><trkpt lat="44.01725033791221" lon="11.370326978261016"><ele>385.5</ele><time>2026-04-19T08:53:42Z</time></trkpt><trkpt lat="44.01737052644314" lon="11.370295169784638"><ele>385.25</ele><time>2026-04-19T08:53:43Z</time></trkpt><trkpt lat="44.01750760055688" lon="11.370375314393112"><ele>385.0</ele><time>2026-04-19T08:53:44Z</time></trkpt><trkpt lat="44.01764720060787" lon="11.370521351059415"><ele>384.33333333333337</ele><time>2026-04-19T08:53:45Z</time></trkpt><trkpt lat="44.01779372516369" lon="11.370669590239947"><ele>383.6666666666667</ele><time>2026-04-19T08:53:46Z</time></trkpt><trkpt lat="44.017943259193295" lon="11.370808132099693"><ele>383.0</ele><time>2026-04-19T08:53:47Z</time></trkpt><trkpt lat="44.018077503847394" lon="11.37092725600294"><ele>383.0</ele><time>2026-04-19T08:53:48Z</time></trkpt><trkpt lat="44.01820948205166" lon="11.371017030048973"><ele>383.0</ele><time>2026-04-19T08:53:49Z</time></trkpt><trkpt lat="44.018352983473235" lon="11.371056950682327"><ele>383.0</ele><time>2026-04-19T08:53:50Z</time></trkpt><trkpt lat="44.01849722118568" lon="11.371008979773466"><ele>383.0</ele><time>2026-04-19T08:53:51Z</time></trkpt><trkpt lat="44.01863839487663" lon="11.370894545888715"><ele>386.0</ele><time>2026-04-19T08:53:52Z</time></trkpt><trkpt lat="44.018771776652294" lon="11.370743918191117"><ele>389.0</ele><time>2026-04-19T08:53:53Z</time></trkpt><trkpt lat="44.0189472021575" lon="11.370651897842485"><ele>392.0</ele><time>2026-04-19T08:53:54Z</time></trkpt><trkpt lat="44.01911483783047" lon="11.37050189116639"><ele>391.66666666666663</ele><time>2026-04-19T08:53:55Z</time></trkpt><trkpt lat="44.01925610619145" lon="11.370359349800424"><ele>391.33333333333337</ele><time>2026-04-19T08:53:56Z</time></trkpt><trkpt lat="44.019388237691956" lon="11.370245251171443"><ele>391.0</ele><time>2026-04-19T08:53:57Z</time></trkpt><trkpt lat="44.019532307128124" lon="11.370170732925734"><ele>391.0</ele><time>2026-04-19T08:53:58Z</time></trkpt><trkpt lat="44.01966860313611" lon="11.370150726615822"><ele>391.0</ele><time>2026-04-19T08:53:59Z</time></trkpt><trkpt lat="44.01978907755003" lon="11.370105866622502"><ele>391.0</ele><time>2026-04-19T08:54:00Z</time></trkpt><trkpt lat="44.019897655951496" lon="11.370093372081756"><ele>391.0</ele><time>2026-04-19T08:54:01Z</time></trkpt><trkpt lat="44.019988433814355" lon="11.370078187882383"><ele>392.6666666666667</ele><time>2026-04-19T08:54:02Z</time></trkpt><trkpt lat="44.0200519654916" lon="11.370070164618898"><ele>394.33333333333337</ele><time>2026-04-19T08:54:03Z</time></trkpt><trkpt lat="44.02014232378548" lon="11.370057089619113"><ele>396.0</ele><time>2026-04-19T08:54:05Z</time></trkpt><trkpt lat="44.02020695268223" lon="11.370054034920594"><ele>397.66666666666663</ele><time>2026-04-19T08:54:07Z</time></trkpt><trkpt lat="44.020277294387654" lon="11.370046018961919"><ele>399.3333333333333</ele><time>2026-04-19T08:54:10Z</time></trkpt><trkpt lat="44.020396796903775" lon="11.37000132481158"><ele>401.0</ele><time>2026-04-19T08:55:17.001Z</time></trkpt><trkpt lat="44.020503232301685" lon="11.369997360876118"><ele>401.0</ele><time>2026-04-19T08:55:18.001Z</time></trkpt><trkpt lat="44.02059146796651" lon="11.37000548663077"><ele>401.0</ele><time>2026-04-19T08:55:19.001Z</time></trkpt><trkpt lat="44.0206814685549" lon="11.370083459410246"><ele>401.0</ele><time>2026-04-19T08:55:20.001Z</time></trkpt><trkpt lat="44.02076496718389" lon="11.370208371125978"><ele>401.0</ele><time>2026-04-19T08:55:21.001Z</time></trkpt><trkpt lat="44.02085606604028" lon="11.3703460832891"><ele>403.3333333333333</ele><time>2026-04-19T08:55:22.001Z</time></trkpt><trkpt lat="44.02098146633129" lon="11.370464499572867"><ele>405.66666666666663</ele><time>2026-04-19T08:55:23.001Z</time></trkpt><trkpt lat="44.0211235569058" lon="11.370555179916327"><ele>408.0</ele><time>2026-04-19T08:55:24.001Z</time></trkpt><trkpt lat="44.021272085574545" lon="11.37062276409695"><ele>408.0</ele><time>2026-04-19T08:55:25.001Z</time></trkpt><trkpt lat="44.0214195433834" lon="11.37067605875049"><ele>408.0</ele><time>2026-04-19T08:55:26Z</time></trkpt><trkpt lat="44.0215564606859" lon="11.370674241150114"><ele>408.0</ele><time>2026-04-19T08:55:27Z</time></trkpt><trkpt lat="44.02168651352223" lon="11.370621259004059"><ele>408.0</ele><time>2026-04-19T08:55:28Z</time></trkpt><trkpt lat="44.02181875881272" lon="11.370543028351138"><ele>412.5</ele><time>2026-04-19T08:55:29Z</time></trkpt><trkpt lat="44.02195592510187" lon="11.3704641922543"><ele>417.0</ele><time>2026-04-19T08:55:30Z</time></trkpt><trkpt lat="44.022100036922744" lon="11.37044499307586"><ele>421.5</ele><time>2026-04-19T08:55:31Z</time></trkpt><trkpt lat="44.02222639474716" lon="11.370458693084538"><ele>426.0</ele><time>2026-04-19T08:55:32Z</time></trkpt><trkpt lat="44.022369714386116" lon="11.370513099556554"><ele>426.66666666666663</ele><time>2026-04-19T08:55:33Z</time></trkpt><trkpt lat="44.022509281168965" lon="11.370605360590886"><ele>427.3333333333333</ele><time>2026-04-19T08:55:34Z</time></trkpt><trkpt lat="44.02266367130411" lon="11.370640952155123"><ele>428.0</ele><time>2026-04-19T08:55:35Z</time></trkpt><trkpt lat="44.02284093345227" lon="11.370599118665302"><ele>428.0</ele><time>2026-04-19T08:55:36Z</time></trkpt><trkpt lat="44.0230388738687" lon="11.37053440989298"><ele>428.0</ele><time>2026-04-19T08:55:37Z</time></trkpt><trkpt lat="44.02323722020857" lon="11.370481497306434"><ele>428.0</ele><time>2026-04-19T08:55:38Z</time></trkpt><trkpt lat="44.023442996843485" lon="11.370429965192054"><ele>433.66666666666663</ele><time>2026-04-19T08:55:39Z</time></trkpt><trkpt lat="44.02363692654967" lon="11.370371095313827"><ele>439.33333333333337</ele><time>2026-04-19T08:55:40Z</time></trkpt><trkpt lat="44.023797078590654" lon="11.370274419702803"><ele>445.0</ele><time>2026-04-19T08:55:41Z</time></trkpt><trkpt lat="44.0239238141579" lon="11.370131189401318"><ele>445.0</ele><time>2026-04-19T08:55:42Z</time></trkpt><trkpt lat="44.024030365458884" lon="11.369961060249183"><ele>445.0</ele><time>2026-04-19T08:55:43Z</time></trkpt><trkpt lat="44.024123976044294" lon="11.36980482140082"><ele>445.0</ele><time>2026-04-19T08:55:44Z</time></trkpt><trkpt lat="44.02425188215714" lon="11.369706275368717"><ele>445.33333333333337</ele><time>2026-04-19T08:55:45Z</time></trkpt><trkpt lat="44.0244169520126" lon="11.369691242202906"><ele>445.66666666666663</ele><time>2026-04-19T08:55:46Z</time></trkpt><trkpt lat="44.02458949174862" lon="11.369718705276842"><ele>446.0</ele><time>2026-04-19T08:55:47Z</time></trkpt><trkpt lat="44.02479260945318" lon="11.369759230202867"><ele>450.0</ele><time>2026-04-19T08:55:48Z</time></trkpt><trkpt lat="44.024996320990084" lon="11.36980625877753"><ele>454.0</ele><time>2026-04-19T08:55:49Z</time></trkpt><trkpt lat="44.02518459110585" lon="11.369846332900243"><ele>458.0</ele><time>2026-04-19T08:55:50Z</time></trkpt><trkpt lat="44.02534835439015" lon="11.36990389771404"><ele>458.0</ele><time>2026-04-19T08:55:51Z</time></trkpt><trkpt lat="44.02549660037569" lon="11.369984165984185"><ele>458.0</ele><time>2026-04-19T08:55:52Z</time></trkpt><trkpt lat="44.02564000902638" lon="11.370086368511691"><ele>458.0</ele><time>2026-04-19T08:55:53Z</time></trkpt><trkpt lat="44.025784116400764" lon="11.370209599065234"><ele>461.0</ele><time>2026-04-19T08:55:54Z</time></trkpt><trkpt lat="44.025942857322576" lon="11.370343339432607"><ele>464.0</ele><time>2026-04-19T08:55:55Z</time></trkpt><trkpt lat="44.02610508287042" lon="11.37047813083624"><ele>467.0</ele><time>2026-04-19T08:55:56Z</time></trkpt><trkpt lat="44.02627241370838" lon="11.370617654411891"><ele>469.0</ele><time>2026-04-19T08:55:57Z</time></trkpt><trkpt lat="44.026426190617826" lon="11.370739062926607"><ele>471.0</ele><time>2026-04-19T08:55:58Z</time></trkpt><trkpt lat="44.02657993902656" lon="11.37081529202975"><ele>473.0</ele><time>2026-04-19T08:55:59Z</time></trkpt><trkpt lat="44.02674994188764" lon="11.37082913838356"><ele>474.66666666666663</ele><time>2026-04-19T08:56:00Z</time></trkpt><trkpt lat="44.02694669754447" lon="11.370784226316225"><ele>476.33333333333337</ele><time>2026-04-19T08:56:01Z</time></trkpt><trkpt lat="44.0271613125194" lon="11.370753349093038"><ele>478.0</ele><time>2026-04-19T08:56:02Z</time></trkpt><trkpt lat="44.02737344615521" lon="11.370738775492233"><ele>481.0</ele><time>2026-04-19T08:56:03Z</time></trkpt><trkpt lat="44.027559556100755" lon="11.370727972345174"><ele>484.0</ele><time>2026-04-19T08:56:04Z</time></trkpt><trkpt lat="44.02773671239316" lon="11.370694904433673"><ele>487.0</ele><time>2026-04-19T08:56:05Z</time></trkpt><trkpt lat="44.027911067941965" lon="11.37063082728067"><ele>487.0</ele><time>2026-04-19T08:56:06Z</time></trkpt><trkpt lat="44.02806133375388" lon="11.37055303182056"><ele>487.0</ele><time>2026-04-19T08:56:07Z</time></trkpt><trkpt lat="44.02818761107713" lon="11.370539498115727"><ele>487.0</ele><time>2026-04-19T08:56:08Z</time></trkpt><trkpt lat="44.028333334549494" lon="11.370538040337205"><ele>487.0</ele><time>2026-04-19T08:56:09Z</time></trkpt><trkpt lat="44.02849843245277" lon="11.370522277254182"><ele>489.6</ele><time>2026-04-19T08:56:10Z</time></trkpt><trkpt lat="44.0286369593375" lon="11.370525068740026"><ele>492.20000000000005</ele><time>2026-04-19T08:56:11Z</time></trkpt><trkpt lat="44.028751849103365" lon="11.370524647196799"><ele>494.8</ele><time>2026-04-19T08:56:12Z</time></trkpt><trkpt lat="44.028845238652266" lon="11.370529535653134"><ele>497.4</ele><time>2026-04-19T08:56:13Z</time></trkpt><trkpt lat="44.02892364464107" lon="11.370574875370528"><ele>500.0</ele><time>2026-04-19T08:56:14Z</time></trkpt><trkpt lat="44.028955242122244" lon="11.370663094772144"><ele>499.99999999999994</ele><time>2026-04-19T08:56:15Z</time></trkpt><trkpt lat="44.028934474985526" lon="11.370751907299638"><ele>500.0</ele><time>2026-04-19T08:56:16Z</time></trkpt><trkpt lat="44.028875260276145" lon="11.370799398359983"><ele>500.0</ele><time>2026-04-19T08:56:17Z</time></trkpt><trkpt lat="44.028796129538506" lon="11.370799922783673"><ele>500.0</ele><time>2026-04-19T08:56:18Z</time></trkpt><trkpt lat="44.0286995574377" lon="11.370772021776423"><ele>499.99999999999994</ele><time>2026-04-19T08:56:19Z</time></trkpt><trkpt lat="44.028569938301935" lon="11.37076460033068"><ele>500.0</ele><time>2026-04-19T08:56:20Z</time></trkpt><trkpt lat="44.02842440924913" lon="11.370785493005569"><ele>495.66666666666663</ele><time>2026-04-19T08:56:21Z</time></trkpt><trkpt lat="44.02827693731267" lon="11.370827220231057"><ele>491.33333333333337</ele><time>2026-04-19T08:56:22Z</time></trkpt><trkpt lat="44.028125490815384" lon="11.370912999343101"><ele>487.0</ele><time>2026-04-19T08:56:23Z</time></trkpt><trkpt lat="44.02796620212993" lon="11.371032164132687"><ele>487.0</ele><time>2026-04-19T08:56:24Z</time></trkpt><trkpt lat="44.0278074674104" lon="11.371175460824603"><ele>487.0</ele><time>2026-04-19T08:56:25Z</time></trkpt><trkpt lat="44.02765800242918" lon="11.371301419631877"><ele>487.0</ele><time>2026-04-19T08:56:26Z</time></trkpt><trkpt lat="44.02752289025003" lon="11.371403342556496"><ele>489.0</ele><time>2026-04-19T08:56:27Z</time></trkpt><trkpt lat="44.02742537012049" lon="11.371488472685048"><ele>491.00000000000006</ele><time>2026-04-19T08:56:28Z</time></trkpt><trkpt lat="44.0273489670031" lon="11.37158676259025"><ele>493.00000000000006</ele><time>2026-04-19T08:56:29Z</time></trkpt><trkpt lat="44.02732007920247" lon="11.371722657124742"><ele>495.0</ele><time>2026-04-19T08:56:30Z</time></trkpt><trkpt lat="44.02733339008477" lon="11.371896146206156"><ele>497.0</ele><time>2026-04-19T08:56:31Z</time></trkpt><trkpt lat="44.02734199588597" lon="11.372060648897417"><ele>497.0</ele><time>2026-04-19T08:56:32Z</time></trkpt><trkpt lat="44.02729266229831" lon="11.372176164750922"><ele>497.0</ele><time>2026-04-19T08:56:33Z</time></trkpt><trkpt lat="44.027180622147" lon="11.372211742694496"><ele>497.0</ele><time>2026-04-19T08:56:34Z</time></trkpt><trkpt lat="44.02706439134638" lon="11.372289533136021"><ele>497.0</ele><time>2026-04-19T08:56:35Z</time></trkpt><trkpt lat="44.0269400891694" lon="11.372379640924795"><ele>498.5</ele><time>2026-04-19T08:56:36Z</time></trkpt><trkpt lat="44.026858421930726" lon="11.372549009975785"><ele>500.0</ele><time>2026-04-19T08:56:37Z</time></trkpt><trkpt lat="44.02680889081933" lon="11.372717754824537"><ele>501.5</ele><time>2026-04-19T08:56:38Z</time></trkpt><trkpt lat="44.02671759962419" lon="11.372839547833594"><ele>503.0</ele><time>2026-04-19T08:56:39Z</time></trkpt><trkpt lat="44.02657316656577" lon="11.372867565554007"><ele>503.0</ele><time>2026-04-19T08:56:40Z</time></trkpt><trkpt lat="44.02645109409363" lon="11.372894764753044"><ele>503.0</ele><time>2026-04-19T08:56:41Z</time></trkpt><trkpt lat="44.02633142323153" lon="11.372910014864654"><ele>503.0</ele><time>2026-04-19T08:56:42Z</time></trkpt><trkpt lat="44.0262267840691" lon="11.372960118403103"><ele>503.0</ele><time>2026-04-19T08:56:43Z</time></trkpt><trkpt lat="44.02611547974863" lon="11.373200291110436"><ele>509.3333333333333</ele><time>2026-04-19T08:56:44Z</time></trkpt><trkpt lat="44.02600705749051" lon="11.373401722879242"><ele>515.6666666666666</ele><time>2026-04-19T08:56:45Z</time></trkpt><trkpt lat="44.025932822005366" lon="11.373582603248385"><ele>522.0</ele><time>2026-04-19T08:56:46Z</time></trkpt><trkpt lat="44.02589508923562" lon="11.373741869579696"><ele>523.5</ele><time>2026-04-19T08:56:47Z</time></trkpt><trkpt lat="44.02589364337742" lon="11.37390779618416"><ele>525.0</ele><time>2026-04-19T08:56:48Z</time></trkpt><trkpt lat="44.02594479015985" lon="11.374102953473653"><ele>526.5</ele><time>2026-04-19T08:56:49Z</time></trkpt><trkpt lat="44.026026642437806" lon="11.374290992212643"><ele>528.0</ele><time>2026-04-19T08:56:50Z</time></trkpt><trkpt lat="44.02615317147199" lon="11.374471195510472"><ele>528.0</ele><time>2026-04-19T08:56:51Z</time></trkpt><trkpt lat="44.02629400106392" lon="11.374632722048668"><ele>528.0</ele><time>2026-04-19T08:56:52Z</time></trkpt><trkpt lat="44.02645069450429" lon="11.374776324723253"><ele>528.0</ele><time>2026-04-19T08:56:53Z</time></trkpt><trkpt lat="44.02661761991169" lon="11.374908550389888"><ele>533.3333333333334</ele><time>2026-04-19T08:56:54Z</time></trkpt><trkpt lat="44.02675330011382" lon="11.375056098360535"><ele>538.6666666666667</ele><time>2026-04-19T08:56:55Z</time></trkpt><trkpt lat="44.02692343049647" lon="11.375179719293381"><ele>544.0</ele><time>2026-04-19T08:56:56Z</time></trkpt><trkpt lat="44.027095210634116" lon="11.375298512401745"><ele>544.0</ele><time>2026-04-19T08:56:57Z</time></trkpt><trkpt lat="44.027258359657765" lon="11.37540410364454"><ele>544.0</ele><time>2026-04-19T08:56:58Z</time></trkpt><trkpt lat="44.02739663582891" lon="11.37548814750652"><ele>544.0</ele><time>2026-04-19T08:56:59Z</time></trkpt><trkpt lat="44.027512442070275" lon="11.375582936401202"><ele>547.25</ele><time>2026-04-19T08:57:00Z</time></trkpt><trkpt lat="44.02759533040593" lon="11.37570928429403"><ele>550.5</ele><time>2026-04-19T08:57:01Z</time></trkpt><trkpt lat="44.027661370067655" lon="11.375876007968694"><ele>553.75</ele><time>2026-04-19T08:57:02Z</time></trkpt><trkpt lat="44.02771148796139" lon="11.376051617462831"><ele>557.0</ele><time>2026-04-19T08:57:03Z</time></trkpt><trkpt lat="44.02778283457155" lon="11.376207862110597"><ele>557.0</ele><time>2026-04-19T08:57:04Z</time></trkpt><trkpt lat="44.02790728156701" lon="11.376345911743396"><ele>557.0</ele><time>2026-04-19T08:57:05Z</time></trkpt><trkpt lat="44.02803907869475" lon="11.37648722372811"><ele>557.0</ele><time>2026-04-19T08:57:06Z</time></trkpt><trkpt lat="44.02819922083799" lon="11.376616640950248"><ele>559.3333333333333</ele><time>2026-04-19T08:57:07Z</time></trkpt><trkpt lat="44.028373145474184" lon="11.376753765526766"><ele>561.6666666666666</ele><time>2026-04-19T08:57:08Z</time></trkpt><trkpt lat="44.028525758647945" lon="11.376872222473963"><ele>564.0</ele><time>2026-04-19T08:57:09Z</time></trkpt><trkpt lat="44.02868049445209" lon="11.376965790000424"><ele>564.0</ele><time>2026-04-19T08:57:10Z</time></trkpt><trkpt lat="44.02885229549525" lon="11.377020898708878"><ele>564.0</ele><time>2026-04-19T08:57:11Z</time></trkpt><trkpt lat="44.02901430343332" lon="11.377034819236924"><ele>564.0</ele><time>2026-04-19T08:57:12Z</time></trkpt><trkpt lat="44.029142520948994" lon="11.37708195547779"><ele>565.0</ele><time>2026-04-19T08:57:13Z</time></trkpt><trkpt lat="44.02920964688705" lon="11.377211519286112"><ele>566.0</ele><time>2026-04-19T08:57:14.001Z</time></trkpt><trkpt lat="44.02922412924414" lon="11.37735288229182"><ele>567.0</ele><time>2026-04-19T08:57:15.001Z</time></trkpt><trkpt lat="44.02918719047437" lon="11.3775188885988"><ele>568.0</ele><time>2026-04-19T08:57:16.001Z</time></trkpt><trkpt lat="44.02916862080573" lon="11.37773081387805"><ele>568.0</ele><time>2026-04-19T08:57:17.001Z</time></trkpt><trkpt lat="44.02920016542407" lon="11.377906947654303"><ele>568.0</ele><time>2026-04-19T08:57:18.001Z</time></trkpt><trkpt lat="44.0292710958733" lon="11.378072634204507"><ele>568.0</ele><time>2026-04-19T08:57:19.001Z</time></trkpt><trkpt lat="44.02940340379026" lon="11.37821736052748"><ele>568.0</ele><time>2026-04-19T08:57:20.001Z</time></trkpt><trkpt lat="44.029557241439186" lon="11.378341722747129"><ele>566.75</ele><time>2026-04-19T08:57:21.001Z</time></trkpt><trkpt lat="44.02970930066555" lon="11.37842666316259"><ele>565.5</ele><time>2026-04-19T08:57:22.001Z</time></trkpt><trkpt lat="44.02984579065848" lon="11.378461483600953"><ele>564.25</ele><time>2026-04-19T08:57:23.001Z</time></trkpt><trkpt lat="44.02998196425379" lon="11.378430169606094"><ele>563.0</ele><time>2026-04-19T08:57:24.001Z</time></trkpt><trkpt lat="44.03011610811161" lon="11.378327175646872"><ele>565.5</ele><time>2026-04-19T08:57:25.001Z</time></trkpt><trkpt lat="44.03020878779435" lon="11.378177772026657"><ele>568.0</ele><time>2026-04-19T08:57:26.001Z</time></trkpt><trkpt lat="44.03026188481044" lon="11.377995087836272"><ele>570.5</ele><time>2026-04-19T08:57:27.001Z</time></trkpt><trkpt lat="44.03031404816639" lon="11.37780400139264"><ele>573.0</ele><time>2026-04-19T08:57:28.001Z</time></trkpt><trkpt lat="44.03041893780202" lon="11.377727698912746"><ele>575.5</ele><time>2026-04-19T08:57:29.001Z</time></trkpt><trkpt lat="44.03053859941478" lon="11.377681339689717"><ele>578.0</ele><time>2026-04-19T08:57:30.001Z</time></trkpt><trkpt lat="44.030631500122645" lon="11.377595604285546"><ele>580.5</ele><time>2026-04-19T08:57:31.001Z</time></trkpt><trkpt lat="44.03069394875935" lon="11.377475235663061"><ele>583.0</ele><time>2026-04-19T08:57:32.001Z</time></trkpt><trkpt lat="44.03071750920415" lon="11.37731636309905"><ele>585.1999999999999</ele><time>2026-04-19T08:57:33.001Z</time></trkpt><trkpt lat="44.03071311693738" lon="11.377150834170981"><ele>587.4</ele><time>2026-04-19T08:57:34.001Z</time></trkpt><trkpt lat="44.030749495087754" lon="11.377010779904491"><ele>589.5999999999999</ele><time>2026-04-19T08:57:35.001Z</time></trkpt><trkpt lat="44.03080681513609" lon="11.37691926329465"><ele>591.8</ele><time>2026-04-19T08:57:36.001Z</time></trkpt><trkpt lat="44.03093202442142" lon="11.376910743612628"><ele>594.0</ele><time>2026-04-19T08:57:37.001Z</time></trkpt><trkpt lat="44.031075156116174" lon="11.376901985447585"><ele>594.0</ele><time>2026-04-19T08:57:38.001Z</time></trkpt><trkpt lat="44.03120136072544" lon="11.376919920140846"><ele>594.0</ele><time>2026-04-19T08:57:39.001Z</time></trkpt><trkpt lat="44.0313411327753" lon="11.376922485966999"><ele>594.0</ele><time>2026-04-19T08:57:40.001Z</time></trkpt><trkpt lat="44.0314962948087" lon="11.376928664115052"><ele>594.0</ele><time>2026-04-19T08:57:41.001Z</time></trkpt><trkpt lat="44.03165717057031" lon="11.376941632001326"><ele>593.6666666666666</ele><time>2026-04-19T08:57:42Z</time></trkpt><trkpt lat="44.03182504306886" lon="11.376957905236678"><ele>593.3333333333333</ele><time>2026-04-19T08:57:43Z</time></trkpt><trkpt lat="44.03201112227328" lon="11.376948649784962"><ele>593.0</ele><time>2026-04-19T08:57:44Z</time></trkpt><trkpt lat="44.03220741608257" lon="11.376924652453077"><ele>593.0</ele><time>2026-04-19T08:57:45Z</time></trkpt><trkpt lat="44.03237597310604" lon="11.376898468563605"><ele>593.0</ele><time>2026-04-19T08:57:46Z</time></trkpt><trkpt lat="44.03252387202434" lon="11.376866227004172"><ele>593.0</ele><time>2026-04-19T08:57:47Z</time></trkpt><trkpt lat="44.03265537499205" lon="11.37680001910402"><ele>594.6666666666666</ele><time>2026-04-19T08:57:48Z</time></trkpt><trkpt lat="44.03276850047896" lon="11.376673932282483"><ele>596.3333333333334</ele><time>2026-04-19T08:57:49Z</time></trkpt><trkpt lat="44.0328553767063" lon="11.376499036373984"><ele>598.0</ele><time>2026-04-19T08:57:50Z</time></trkpt><trkpt lat="44.03290118577672" lon="11.376293642573188"><ele>601.25</ele><time>2026-04-19T08:57:51Z</time></trkpt><trkpt lat="44.032932771924216" lon="11.376078451450724"><ele>604.5</ele><time>2026-04-19T08:57:52Z</time></trkpt><trkpt lat="44.033017913352786" lon="11.37592745438495"><ele>607.75</ele><time>2026-04-19T08:57:53Z</time></trkpt><trkpt lat="44.03312381600859" lon="11.375801124863584"><ele>611.0</ele><time>2026-04-19T08:57:54Z</time></trkpt><trkpt lat="44.03326139661643" lon="11.375698305349925"><ele>609.6666666666666</ele><time>2026-04-19T08:57:55Z</time></trkpt><trkpt lat="44.03341630488498" lon="11.375632026215225"><ele>608.3333333333334</ele><time>2026-04-19T08:57:56Z</time></trkpt><trkpt lat="44.0335595638763" lon="11.375618708034718"><ele>607.0</ele><time>2026-04-19T08:57:57Z</time></trkpt><trkpt lat="44.033720523174054" lon="11.375680365377544"><ele>607.0</ele><time>2026-04-19T08:57:58Z</time></trkpt><trkpt lat="44.033902737152374" lon="11.375772255513372"><ele>607.0</ele><time>2026-04-19T08:57:59Z</time></trkpt><trkpt lat="44.03406998068019" lon="11.375833236952136"><ele>607.0</ele><time>2026-04-19T08:58:00Z</time></trkpt><trkpt lat="44.03422071756733" lon="11.375846932502931"><ele>609.0</ele><time>2026-04-19T08:58:01Z</time></trkpt><trkpt lat="44.03437523799587" lon="11.375796206499778"><ele>611.0</ele><time>2026-04-19T08:58:02Z</time></trkpt><trkpt lat="44.03451931150796" lon="11.375674835465396"><ele>613.0</ele><time>2026-04-19T08:58:03Z</time></trkpt><trkpt lat="44.034665363725594" lon="11.375496237233062"><ele>616.0</ele><time>2026-04-19T08:58:04Z</time></trkpt><trkpt lat="44.03481982914634" lon="11.375300221939938"><ele>619.0</ele><time>2026-04-19T08:58:05Z</time></trkpt><trkpt lat="44.03496820892583" lon="11.375114586223454"><ele>622.0</ele><time>2026-04-19T08:58:06Z</time></trkpt><trkpt lat="44.03510314194538" lon="11.374962592475313"><ele>622.5</ele><time>2026-04-19T08:58:07Z</time></trkpt><trkpt lat="44.03522589832375" lon="11.374829630765598"><ele>623.0</ele><time>2026-04-19T08:58:08Z</time></trkpt><trkpt lat="44.03532713620451" lon="11.374699316696756"><ele>623.5</ele><time>2026-04-19T08:58:09Z</time></trkpt><trkpt lat="44.03540519150119" lon="11.374522831862382"><ele>624.0</ele><time>2026-04-19T08:58:10Z</time></trkpt><trkpt lat="44.03546802970106" lon="11.374323371296734"><ele>624.4</ele><time>2026-04-19T08:58:11Z</time></trkpt><trkpt lat="44.03553804414327" lon="11.374176274329706"><ele>624.8</ele><time>2026-04-19T08:58:12Z</time></trkpt><trkpt lat="44.03563402424047" lon="11.37411398915538"><ele>625.2</ele><time>2026-04-19T08:58:13Z</time></trkpt><trkpt lat="44.035724416601326" lon="11.374091686018078"><ele>625.6</ele><time>2026-04-19T08:58:14Z</time></trkpt><trkpt lat="44.035822573320274" lon="11.374149227769426"><ele>626.0</ele><time>2026-04-19T08:58:15Z</time></trkpt><trkpt lat="44.03591434069808" lon="11.374224701615033"><ele>626.0</ele><time>2026-04-19T08:58:16Z</time></trkpt><trkpt lat="44.035972192305714" lon="11.374336127148645"><ele>626.0</ele><time>2026-04-19T08:58:17Z</time></trkpt><trkpt lat="44.035984393046384" lon="11.374493873702551"><ele>626.0</ele><time>2026-04-19T08:58:18Z</time></trkpt><trkpt lat="44.03598809734034" lon="11.374707237006186"><ele>626.0</ele><time>2026-04-19T08:58:19Z</time></trkpt><trkpt lat="44.03601116615306" lon="11.374920683479887"><ele>625.0</ele><time>2026-04-19T08:58:20Z</time></trkpt><trkpt lat="44.036063871907906" lon="11.375104123676353"><ele>624.0</ele><time>2026-04-19T08:58:21Z</time></trkpt><trkpt lat="44.03617334949079" lon="11.37526375899714"><ele>623.0</ele><time>2026-04-19T08:58:22Z</time></trkpt><trkpt lat="44.03632256233098" lon="11.375383993167567"><ele>623.0</ele><time>2026-04-19T08:58:23Z</time></trkpt><trkpt lat="44.03649144494352" lon="11.37548685869801"><ele>623.0</ele><time>2026-04-19T08:58:24Z</time></trkpt><trkpt lat="44.03660948352159" lon="11.375600990402825"><ele>623.0</ele><time>2026-04-19T08:58:25Z</time></trkpt><trkpt lat="44.03668973684391" lon="11.375679540129688"><ele>623.0</ele><time>2026-04-19T08:58:26Z</time></trkpt><trkpt lat="44.036739832719256" lon="11.37579390690937"><ele>627.0</ele><time>2026-04-19T08:58:27Z</time></trkpt><trkpt lat="44.03677733171129" lon="11.375919781351381"><ele>631.0</ele><time>2026-04-19T08:58:28Z</time></trkpt><trkpt lat="44.0367221233878" lon="11.37609074545352"><ele>635.0</ele><time>2026-04-19T08:58:29Z</time></trkpt><trkpt lat="44.036698078914625" lon="11.37629070866289"><ele>639.0</ele><time>2026-04-19T08:58:30Z</time></trkpt><trkpt lat="44.03666021285352" lon="11.376475781893474"><ele>639.0</ele><time>2026-04-19T08:58:31Z</time></trkpt><trkpt lat="44.036635685311786" lon="11.376636011575233"><ele>639.0</ele><time>2026-04-19T08:58:32Z</time></trkpt><trkpt lat="44.036635728768225" lon="11.37675626149945"><ele>639.0</ele><time>2026-04-19T08:58:33Z</time></trkpt><trkpt lat="44.0366716467125" lon="11.376843539363206"><ele>639.0</ele><time>2026-04-19T08:58:34Z</time></trkpt><trkpt lat="44.03673185201386" lon="11.376913397419152"><ele>639.0</ele><time>2026-04-19T08:58:35Z</time></trkpt><trkpt lat="44.03683100951539" lon="11.376910946563243"><ele>639.0</ele><time>2026-04-19T08:58:36Z</time></trkpt><trkpt lat="44.03691194825208" lon="11.37680669538387"><ele>639.0</ele><time>2026-04-19T08:58:37Z</time></trkpt><trkpt lat="44.03693775920827" lon="11.37661966073312"><ele>639.0</ele><time>2026-04-19T08:58:38Z</time></trkpt><trkpt lat="44.036956688547065" lon="11.376406059245435"><ele>639.0</ele><time>2026-04-19T08:58:39Z</time></trkpt><trkpt lat="44.03698673115572" lon="11.376183616367445"><ele>640.0</ele><time>2026-04-19T08:58:40Z</time></trkpt><trkpt lat="44.037034278708546" lon="11.37599723081475"><ele>641.0</ele><time>2026-04-19T08:58:41Z</time></trkpt><trkpt lat="44.03707590981295" lon="11.375831346143093"><ele>642.0</ele><time>2026-04-19T08:58:42Z</time></trkpt><trkpt lat="44.03709687581756" lon="11.375669210812962"><ele>643.0</ele><time>2026-04-19T08:58:43Z</time></trkpt><trkpt lat="44.037079685627106" lon="11.375506324558721"><ele>646.25</ele><time>2026-04-19T08:58:44Z</time></trkpt><trkpt lat="44.03701268632204" lon="11.37537179997514"><ele>649.5</ele><time>2026-04-19T08:58:45Z</time></trkpt><trkpt lat="44.03689426456342" lon="11.375269022773653"><ele>652.75</ele><time>2026-04-19T08:58:46Z</time></trkpt><trkpt lat="44.03677466967682" lon="11.3751713349648"><ele>656.0</ele><time>2026-04-19T08:58:47Z</time></trkpt><trkpt lat="44.03670392418867" lon="11.375036986951432"><ele>656.0</ele><time>2026-04-19T08:58:48Z</time></trkpt><trkpt lat="44.03664722273683" lon="11.374877231862252"><ele>656.0</ele><time>2026-04-19T08:58:49Z</time></trkpt><trkpt lat="44.036618246887954" lon="11.374724118781185"><ele>656.0</ele><time>2026-04-19T08:58:50Z</time></trkpt><trkpt lat="44.03662793540854" lon="11.374589801509185"><ele>656.0</ele><time>2026-04-19T08:58:51Z</time></trkpt><trkpt lat="44.03668115616178" lon="11.374472615599707"><ele>656.0</ele><time>2026-04-19T08:58:52Z</time></trkpt><trkpt lat="44.036780559984294" lon="11.374364118000138"><ele>653.3333333333333</ele><time>2026-04-19T08:58:53Z</time></trkpt><trkpt lat="44.03692675189367" lon="11.37432961191023"><ele>650.6666666666666</ele><time>2026-04-19T08:58:54Z</time></trkpt><trkpt lat="44.03709322987373" lon="11.374258763045791"><ele>648.0</ele><time>2026-04-19T08:58:55Z</time></trkpt><trkpt lat="44.0372305701234" lon="11.37418238328254"><ele>648.0</ele><time>2026-04-19T08:58:56Z</time></trkpt><trkpt lat="44.03734753691889" lon="11.374141653855627"><ele>648.0</ele><time>2026-04-19T08:58:57Z</time></trkpt><trkpt lat="44.03744877982091" lon="11.37410652834051"><ele>648.0</ele><time>2026-04-19T08:58:58Z</time></trkpt><trkpt lat="44.037535026548966" lon="11.37408945609541"><ele>648.0</ele><time>2026-04-19T08:58:59Z</time></trkpt><trkpt lat="44.037610962327086" lon="11.374118120345463"><ele>648.0</ele><time>2026-04-19T08:59:00Z</time></trkpt><trkpt lat="44.03766747459328" lon="11.374211118663448"><ele>648.0</ele><time>2026-04-19T08:59:01Z</time></trkpt><trkpt lat="44.03767183803287" lon="11.374341152876013"><ele>648.0</ele><time>2026-04-19T08:59:02Z</time></trkpt><trkpt lat="44.037625669741935" lon="11.374453616464587"><ele>648.0</ele><time>2026-04-19T08:59:03Z</time></trkpt><trkpt lat="44.03753957197746" lon="11.37449151626357"><ele>648.0</ele><time>2026-04-19T08:59:04Z</time></trkpt><trkpt lat="44.03744719653439" lon="11.374409324250191"><ele>648.0</ele><time>2026-04-19T08:59:05Z</time></trkpt><trkpt lat="44.0373345679258" lon="11.374382735482737"><ele>648.0</ele><time>2026-04-19T08:59:06Z</time></trkpt><trkpt lat="44.03723486805045" lon="11.374353172383147"><ele>648.0</ele><time>2026-04-19T08:59:07Z</time></trkpt><trkpt lat="44.03714893995084" lon="11.374414933791167"><ele>648.0</ele><time>2026-04-19T08:59:08Z</time></trkpt><trkpt lat="44.03709464824824" lon="11.374541082810202"><ele>648.0</ele><time>2026-04-19T08:59:09Z</time></trkpt><trkpt lat="44.0370762075349" lon="11.3746539352962"><ele>648.0</ele><time>2026-04-19T08:59:10Z</time></trkpt><trkpt lat="44.037160677795256" lon="11.374764698125103"><ele>650.0</ele><time>2026-04-19T08:59:11Z</time></trkpt><trkpt lat="44.03726958218858" lon="11.374845136836818"><ele>652.0</ele><time>2026-04-19T08:59:12Z</time></trkpt><trkpt lat="44.03739274019518" lon="11.374951512429186"><ele>654.0</ele><time>2026-04-19T08:59:13Z</time></trkpt><trkpt lat="44.03744101240684" lon="11.37514041405079"><ele>656.0</ele><time>2026-04-19T08:59:14Z</time></trkpt><trkpt lat="44.037529409282655" lon="11.375348037434469"><ele>663.0</ele><time>2026-04-19T08:59:15Z</time></trkpt><trkpt lat="44.037601210932976" lon="11.375589499303322"><ele>670.0</ele><time>2026-04-19T08:59:16Z</time></trkpt><trkpt lat="44.037680428969885" lon="11.375806561301532"><ele>677.0</ele><time>2026-04-19T08:59:17Z</time></trkpt><trkpt lat="44.03774497666281" lon="11.375991227881288"><ele>677.0</ele><time>2026-04-19T08:59:18Z</time></trkpt><trkpt lat="44.03781640189452" lon="11.376151323122727"><ele>677.0</ele><time>2026-04-19T08:59:19Z</time></trkpt><trkpt lat="44.03791635974203" lon="11.376283679681784"><ele>677.0</ele><time>2026-04-19T08:59:20.001Z</time></trkpt><trkpt lat="44.03802283505122" lon="11.376367842415297"><ele>677.0</ele><time>2026-04-19T08:59:21.001Z</time></trkpt><trkpt lat="44.038141761332994" lon="11.376383610849263"><ele>677.0</ele><time>2026-04-19T08:59:22.001Z</time></trkpt><trkpt lat="44.03826238114473" lon="11.37632795693256"><ele>677.0</ele><time>2026-04-19T08:59:23.001Z</time></trkpt><trkpt lat="44.0383648332384" lon="11.37620495730879"><ele>677.0</ele><time>2026-04-19T08:59:24.001Z</time></trkpt><trkpt lat="44.03847099882428" lon="11.376052550761738"><ele>677.0</ele><time>2026-04-19T08:59:25.001Z</time></trkpt><trkpt lat="44.038597206941766" lon="11.375945114584036"><ele>682.0</ele><time>2026-04-19T08:59:26.001Z</time></trkpt><trkpt lat="44.03871820956638" lon="11.37583659610506"><ele>687.0</ele><time>2026-04-19T08:59:27.001Z</time></trkpt><trkpt lat="44.03884975940242" lon="11.375728895345988"><ele>692.0</ele><time>2026-04-19T08:59:28.001Z</time></trkpt><trkpt lat="44.03898226382331" lon="11.375636200228707"><ele>697.0</ele><time>2026-04-19T08:59:29.001Z</time></trkpt><trkpt lat="44.039108123197714" lon="11.375568163689989"><ele>698.6666666666667</ele><time>2026-04-19T08:59:30.001Z</time></trkpt><trkpt lat="44.03924934279029" lon="11.375519330378461"><ele>700.3333333333334</ele><time>2026-04-19T08:59:31.001Z</time></trkpt><trkpt lat="44.039412685740174" lon="11.375474980242254"><ele>702.0</ele><time>2026-04-19T08:59:32.001Z</time></trkpt><trkpt lat="44.0395864980252" lon="11.375413770986922"><ele>702.0</ele><time>2026-04-19T08:59:33.001Z</time></trkpt><trkpt lat="44.039763317164905" lon="11.37536614275511"><ele>702.0</ele><time>2026-04-19T08:59:34.001Z</time></trkpt><trkpt lat="44.03991631294258" lon="11.375339124738044"><ele>702.0</ele><time>2026-04-19T08:59:35.001Z</time></trkpt><trkpt lat="44.040059683588055" lon="11.375304612391831"><ele>705.5</ele><time>2026-04-19T08:59:36.001Z</time></trkpt><trkpt lat="44.040207475316386" lon="11.375311935939134"><ele>709.0</ele><time>2026-04-19T08:59:37.001Z</time></trkpt><trkpt lat="44.040340261677265" lon="11.375398317000494"><ele>712.5</ele><time>2026-04-19T08:59:38.001Z</time></trkpt><trkpt lat="44.040463832444296" lon="11.375420417719555"><ele>716.0</ele><time>2026-04-19T08:59:39.001Z</time></trkpt><trkpt lat="44.0405725467964" lon="11.375365098802117"><ele>716.0</ele><time>2026-04-19T08:59:40.001Z</time></trkpt><trkpt lat="44.04066632038683" lon="11.375350300751178"><ele>716.0</ele><time>2026-04-19T08:59:41.001Z</time></trkpt><trkpt lat="44.040743433088664" lon="11.375382448600345"><ele>716.0</ele><time>2026-04-19T08:59:42.001Z</time></trkpt><trkpt lat="44.04080069859461" lon="11.375502417077255"><ele>716.0</ele><time>2026-04-19T08:59:43.001Z</time></trkpt><trkpt lat="44.04078107436593" lon="11.375667076744143"><ele>716.0</ele><time>2026-04-19T08:59:44.001Z</time></trkpt><trkpt lat="44.040782704112225" lon="11.375881856374544"><ele>717.5</ele><time>2026-04-19T08:59:45Z</time></trkpt><trkpt lat="44.04078159476972" lon="11.376123010928046"><ele>719.0</ele><time>2026-04-19T08:59:46Z</time></trkpt><trkpt lat="44.04078386106503" lon="11.376328237680259"><ele>720.5</ele><time>2026-04-19T08:59:47Z</time></trkpt><trkpt lat="44.04079441126896" lon="11.376490826524023"><ele>722.0</ele><time>2026-04-19T08:59:48Z</time></trkpt><trkpt lat="44.040834634228034" lon="11.376618007579346"><ele>722.0</ele><time>2026-04-19T08:59:49Z</time></trkpt><trkpt lat="44.0409142139004" lon="11.376698501244315"><ele>722.0</ele><time>2026-04-19T08:59:50Z</time></trkpt><trkpt lat="44.04102805428493" lon="11.37673528904986"><ele>722.0</ele><time>2026-04-19T08:59:51Z</time></trkpt><trkpt lat="44.0411104733756" lon="11.376795621174514"><ele>722.0</ele><time>2026-04-19T08:59:52Z</time></trkpt><trkpt lat="44.04118539232406" lon="11.37686319372419"><ele>722.0</ele><time>2026-04-19T08:59:53Z</time></trkpt><trkpt lat="44.041212810701914" lon="11.377014208319654"><ele>722.0</ele><time>2026-04-19T08:59:54Z</time></trkpt><trkpt lat="44.041187858021104" lon="11.377165687620376"><ele>722.0</ele><time>2026-04-19T08:59:55Z</time></trkpt><trkpt lat="44.04112619486158" lon="11.377319814272111"><ele>722.0</ele><time>2026-04-19T08:59:56Z</time></trkpt><trkpt lat="44.04094914563921" lon="11.377397097323541"><ele>722.0</ele><time>2026-04-19T08:59:58Z</time></trkpt><trkpt lat="44.04084125702673" lon="11.377519872012606"><ele>715.25</ele><time>2026-04-19T08:59:59Z</time></trkpt><trkpt lat="44.04074794993366" lon="11.377621567971177"><ele>708.5</ele><time>2026-04-19T09:00:00Z</time></trkpt><trkpt lat="44.0406802387151" lon="11.377749310844834"><ele>701.75</ele><time>2026-04-19T09:00:01Z</time></trkpt><trkpt lat="44.04063665051849" lon="11.37791170893684"><ele>695.0</ele><time>2026-04-19T09:00:02Z</time></trkpt><trkpt lat="44.04063422689831" lon="11.378049174037665"><ele>695.0</ele><time>2026-04-19T09:00:03Z</time></trkpt><trkpt lat="44.0406602693292" lon="11.378179842133209"><ele>695.0</ele><time>2026-04-19T09:00:04Z</time></trkpt><trkpt lat="44.04074326959344" lon="11.378306728265917"><ele>695.0</ele><time>2026-04-19T09:00:05Z</time></trkpt><trkpt lat="44.040863154027875" lon="11.378407420080574"><ele>695.0</ele><time>2026-04-19T09:00:06Z</time></trkpt><trkpt lat="44.040989376933716" lon="11.378483843280641"><ele>702.2</ele><time>2026-04-19T09:00:07Z</time></trkpt><trkpt lat="44.04108593941875" lon="11.378541391145601"><ele>709.4</ele><time>2026-04-19T09:00:08Z</time></trkpt><trkpt lat="44.041152986695735" lon="11.37858747917747"><ele>716.5999999999999</ele><time>2026-04-19T09:00:09Z</time></trkpt><trkpt lat="44.04123376413566" lon="11.37864992356682"><ele>723.8</ele><time>2026-04-19T09:00:10Z</time></trkpt><trkpt lat="44.04130549188729" lon="11.37875701262512"><ele>731.0</ele><time>2026-04-19T09:00:11Z</time></trkpt><trkpt lat="44.04136505308101" lon="11.378871421334058"><ele>731.0</ele><time>2026-04-19T09:00:12Z</time></trkpt><trkpt lat="44.04137760105567" lon="11.378991148896507"><ele>731.0</ele><time>2026-04-19T09:00:13Z</time></trkpt><trkpt lat="44.04135781818665" lon="11.37911453752915"><ele>731.0</ele><time>2026-04-19T09:00:14Z</time></trkpt><trkpt lat="44.041296859325925" lon="11.379223521435867"><ele>731.0</ele><time>2026-04-19T09:00:15Z</time></trkpt><trkpt lat="44.04122480424425" lon="11.379359306142462"><ele>731.0</ele><time>2026-04-19T09:00:16Z</time></trkpt><trkpt lat="44.041154717342955" lon="11.379483862893197"><ele>731.0</ele><time>2026-04-19T09:00:17Z</time></trkpt><trkpt lat="44.041106136867214" lon="11.379607617845197"><ele>731.0</ele><time>2026-04-19T09:00:18Z</time></trkpt><trkpt lat="44.041069702788285" lon="11.379718602928593"><ele>731.0</ele><time>2026-04-19T09:00:19Z</time></trkpt><trkpt lat="44.041082546835746" lon="11.379839831844818"><ele>731.0</ele><time>2026-04-19T09:00:20Z</time></trkpt><trkpt lat="44.041140468467255" lon="11.379958127946482"><ele>731.0</ele><time>2026-04-19T09:00:21Z</time></trkpt><trkpt lat="44.04123297906401" lon="11.380060722119778"><ele>729.8</ele><time>2026-04-19T09:00:22Z</time></trkpt><trkpt lat="44.041324674982455" lon="11.380159395768718"><ele>728.5999999999999</ele><time>2026-04-19T09:00:23Z</time></trkpt><trkpt lat="44.0413936360177" lon="11.380250322013334"><ele>727.4</ele><time>2026-04-19T09:00:24Z</time></trkpt><trkpt lat="44.041454932888186" lon="11.380339639842482"><ele>726.2</ele><time>2026-04-19T09:00:25Z</time></trkpt><trkpt lat="44.041521158470026" lon="11.38041634235669"><ele>725.0</ele><time>2026-04-19T09:00:26Z</time></trkpt><trkpt lat="44.041607168850305" lon="11.380432336577904"><ele>732.75</ele><time>2026-04-19T09:00:27Z</time></trkpt><trkpt lat="44.041701537053946" lon="11.380382190279942"><ele>740.5</ele><time>2026-04-19T09:00:28Z</time></trkpt><trkpt lat="44.04178397014539" lon="11.380272877447608"><ele>748.25</ele><time>2026-04-19T09:00:29Z</time></trkpt><trkpt lat="44.04184956745722" lon="11.380117122268022"><ele>756.0</ele><time>2026-04-19T09:00:30Z</time></trkpt><trkpt lat="44.04191860044515" lon="11.379957036729223"><ele>756.0</ele><time>2026-04-19T09:00:31Z</time></trkpt><trkpt lat="44.04199400183637" lon="11.379814961416546"><ele>756.0</ele><time>2026-04-19T09:00:32Z</time></trkpt><trkpt lat="44.04206207774801" lon="11.379678688428587"><ele>756.0</ele><time>2026-04-19T09:00:33Z</time></trkpt><trkpt lat="44.042143386909125" lon="11.379576842242155"><ele>756.0</ele><time>2026-04-19T09:00:34Z</time></trkpt><trkpt lat="44.042226001592795" lon="11.379488755020002"><ele>759.0</ele><time>2026-04-19T09:00:35Z</time></trkpt><trkpt lat="44.04232719474016" lon="11.379426749317725"><ele>762.0</ele><time>2026-04-19T09:00:36Z</time></trkpt><trkpt lat="44.0424491298522" lon="11.379397159761607"><ele>765.0</ele><time>2026-04-19T09:00:37Z</time></trkpt><trkpt lat="44.04256872049372" lon="11.379374807416736"><ele>768.0</ele><time>2026-04-19T09:00:38Z</time></trkpt><trkpt lat="44.04266737440238" lon="11.379353679657163"><ele>769.2</ele><time>2026-04-19T09:00:39Z</time></trkpt><trkpt lat="44.04275697300499" lon="11.379314210408975"><ele>770.4</ele><time>2026-04-19T09:00:40Z</time></trkpt><trkpt lat="44.04284983001095" lon="11.379287644602927"><ele>771.6</ele><time>2026-04-19T09:00:41Z</time></trkpt><trkpt lat="44.04294745653514" lon="11.37925790043327"><ele>772.8000000000001</ele><time>2026-04-19T09:00:42Z</time></trkpt><trkpt lat="44.04304433920459" lon="11.37922735205064"><ele>774.0</ele><time>2026-04-19T09:00:43Z</time></trkpt><trkpt lat="44.04313782386246" lon="11.379222029917752"><ele>774.0</ele><time>2026-04-19T09:00:44Z</time></trkpt><trkpt lat="44.043224061084516" lon="11.379276648406055"><ele>774.0</ele><time>2026-04-19T09:00:45Z</time></trkpt><trkpt lat="44.04329235193453" lon="11.379396608709952"><ele>774.0</ele><time>2026-04-19T09:00:46Z</time></trkpt><trkpt lat="44.0433211647569" lon="11.379585661862984"><ele>774.0</ele><time>2026-04-19T09:00:47Z</time></trkpt><trkpt lat="44.04337333238926" lon="11.379772990144975"><ele>770.5</ele><time>2026-04-19T09:00:48Z</time></trkpt><trkpt lat="44.04338963596167" lon="11.37995974144841"><ele>767.0</ele><time>2026-04-19T09:00:49Z</time></trkpt><trkpt lat="44.043411920667964" lon="11.3801225414115"><ele>763.5</ele><time>2026-04-19T09:00:50Z</time></trkpt><trkpt lat="44.04342977054674" lon="11.380283071859761"><ele>760.0</ele><time>2026-04-19T09:00:51Z</time></trkpt><trkpt lat="44.04343290516417" lon="11.380445128674333"><ele>758.6</ele><time>2026-04-19T09:00:52Z</time></trkpt><trkpt lat="44.043437236806724" lon="11.3805986873817"><ele>757.2</ele><time>2026-04-19T09:00:53Z</time></trkpt><trkpt lat="44.04347355531527" lon="11.38073624081079"><ele>755.8</ele><time>2026-04-19T09:00:54Z</time></trkpt><trkpt lat="44.043557007938034" lon="11.380831168016423"><ele>754.4</ele><time>2026-04-19T09:00:55Z</time></trkpt><trkpt lat="44.04365770062917" lon="11.380894120994846"><ele>753.0</ele><time>2026-04-19T09:00:56Z</time></trkpt><trkpt lat="44.04379420119262" lon="11.380963188049986"><ele>753.0</ele><time>2026-04-19T09:00:57Z</time></trkpt><trkpt lat="44.04393694412348" lon="11.381018321167923"><ele>753.0</ele><time>2026-04-19T09:00:58Z</time></trkpt><trkpt lat="44.044037987475825" lon="11.381069181964913"><ele>753.0</ele><time>2026-04-19T09:00:59Z</time></trkpt><trkpt lat="44.04410966281995" lon="11.381132365040381"><ele>753.0</ele><time>2026-04-19T09:01:00Z</time></trkpt><trkpt lat="44.044171786194774" lon="11.381229431495127"><ele>753.0</ele><time>2026-04-19T09:01:01Z</time></trkpt><trkpt lat="44.0442065255153" lon="11.381374260267467"><ele>757.25</ele><time>2026-04-19T09:01:02Z</time></trkpt><trkpt lat="44.04418979453897" lon="11.381554403622756"><ele>761.5</ele><time>2026-04-19T09:01:03Z</time></trkpt><trkpt lat="44.04418079375171" lon="11.381771520240173"><ele>765.75</ele><time>2026-04-19T09:01:04Z</time></trkpt><trkpt lat="44.04417190627831" lon="11.381981468516862"><ele>770.0</ele><time>2026-04-19T09:01:05Z</time></trkpt><trkpt lat="44.04415893478048" lon="11.382213022528898"><ele>772.6666666666667</ele><time>2026-04-19T09:01:06Z</time></trkpt><trkpt lat="44.04413151508443" lon="11.382466521749325"><ele>775.3333333333333</ele><time>2026-04-19T09:01:07Z</time></trkpt><trkpt lat="44.04408819599983" lon="11.382713406739454"><ele>778.0</ele><time>2026-04-19T09:01:08Z</time></trkpt><trkpt lat="44.044041026747514" lon="11.382938851812588"><ele>772.25</ele><time>2026-04-19T09:01:09Z</time></trkpt><trkpt lat="44.04399210812343" lon="11.38313652181785"><ele>766.5</ele><time>2026-04-19T09:01:10Z</time></trkpt><trkpt lat="44.04393347519122" lon="11.38332028602545"><ele>760.75</ele><time>2026-04-19T09:01:11Z</time></trkpt><trkpt lat="44.04385060252297" lon="11.383493044930118"><ele>755.0</ele><time>2026-04-19T09:01:12Z</time></trkpt><trkpt lat="44.04374785296294" lon="11.383661874405195"><ele>759.6666666666666</ele><time>2026-04-19T09:01:13Z</time></trkpt><trkpt lat="44.043654348657235" lon="11.383858012373826"><ele>764.3333333333333</ele><time>2026-04-19T09:01:14Z</time></trkpt><trkpt lat="44.04355476944351" lon="11.384078533070351"><ele>769.0</ele><time>2026-04-19T09:01:15Z</time></trkpt><trkpt lat="44.04344511247416" lon="11.384316639722789"><ele>769.0</ele><time>2026-04-19T09:01:16Z</time></trkpt><trkpt lat="44.04334627611967" lon="11.384520477401903"><ele>769.0</ele><time>2026-04-19T09:01:17Z</time></trkpt><trkpt lat="44.04325767237275" lon="11.384699564414802"><ele>769.0</ele><time>2026-04-19T09:01:18Z</time></trkpt><trkpt lat="44.04318340897905" lon="11.384854787730882"><ele>767.1666666666666</ele><time>2026-04-19T09:01:19Z</time></trkpt><trkpt lat="44.043126319932924" lon="11.384968757867599"><ele>765.3333333333333</ele><time>2026-04-19T09:01:20Z</time></trkpt><trkpt lat="44.04308985558623" lon="11.38506780983755"><ele>763.5</ele><time>2026-04-19T09:01:21Z</time></trkpt><trkpt lat="44.04309994988025" lon="11.385157936654986"><ele>761.6666666666666</ele><time>2026-04-19T09:01:22Z</time></trkpt><trkpt lat="44.04312914139668" lon="11.38524017183025"><ele>759.8333333333333</ele><time>2026-04-19T09:01:23Z</time></trkpt><trkpt lat="44.04322187006725" lon="11.385283954557137"><ele>758.0</ele><time>2026-04-19T09:01:24Z</time></trkpt><trkpt lat="44.04331737889076" lon="11.385180398477782"><ele>760.75</ele><time>2026-04-19T09:01:25.001Z</time></trkpt><trkpt lat="44.043383970165266" lon="11.38505034354483"><ele>763.5</ele><time>2026-04-19T09:01:26.001Z</time></trkpt><trkpt lat="44.04344234105711" lon="11.384866114446776"><ele>766.25</ele><time>2026-04-19T09:01:27.001Z</time></trkpt><trkpt lat="44.04353492122202" lon="11.384687017739854"><ele>769.0</ele><time>2026-04-19T09:01:28.001Z</time></trkpt><trkpt lat="44.0436422476308" lon="11.384510031360474"><ele>769.0</ele><time>2026-04-19T09:01:29.001Z</time></trkpt><trkpt lat="44.043758834894184" lon="11.384336552744232"><ele>769.0</ele><time>2026-04-19T09:01:30.001Z</time></trkpt><trkpt lat="44.04386739113598" lon="11.38419091736397"><ele>769.0</ele><time>2026-04-19T09:01:31.001Z</time></trkpt><trkpt lat="44.043960907506865" lon="11.384086757212007"><ele>769.0</ele><time>2026-04-19T09:01:32.001Z</time></trkpt><trkpt lat="44.044040460654514" lon="11.38401520161075"><ele>769.0</ele><time>2026-04-19T09:01:33.001Z</time></trkpt><trkpt lat="44.04411307530393" lon="11.383961232192023"><ele>769.0</ele><time>2026-04-19T09:01:34.001Z</time></trkpt><trkpt lat="44.044182847361824" lon="11.38392853545871"><ele>769.0</ele><time>2026-04-19T09:01:35.001Z</time></trkpt><trkpt lat="44.04425603418694" lon="11.384062450059615"><ele>769.0</ele><time>2026-04-19T09:01:37.001Z</time></trkpt><trkpt lat="44.044209745183004" lon="11.384188339716276"><ele>769.0</ele><time>2026-04-19T09:01:38.001Z</time></trkpt><trkpt lat="44.044108029293874" lon="11.384278029296226"><ele>769.0</ele><time>2026-04-19T09:01:39.001Z</time></trkpt><trkpt lat="44.044017124700424" lon="11.384418855782718"><ele>769.0</ele><time>2026-04-19T09:01:40.001Z</time></trkpt><trkpt lat="44.0439147282743" lon="11.384580309688785"><ele>769.0</ele><time>2026-04-19T09:01:41Z</time></trkpt><trkpt lat="44.043838844415376" lon="11.384781993236299"><ele>775.0</ele><time>2026-04-19T09:01:42Z</time></trkpt><trkpt lat="44.04377183150087" lon="11.38501795611628"><ele>781.0</ele><time>2026-04-19T09:01:43Z</time></trkpt><trkpt lat="44.04370854259036" lon="11.385271019262547"><ele>787.0</ele><time>2026-04-19T09:01:44Z</time></trkpt><trkpt lat="44.04363275739987" lon="11.38551669980202"><ele>792.6666666666666</ele><time>2026-04-19T09:01:45Z</time></trkpt><trkpt lat="44.04354702470811" lon="11.385721977626838"><ele>798.3333333333333</ele><time>2026-04-19T09:01:46Z</time></trkpt><trkpt lat="44.04343951897512" lon="11.38593310949594"><ele>804.0</ele><time>2026-04-19T09:01:47Z</time></trkpt><trkpt lat="44.04331259046383" lon="11.386121223428667"><ele>803.25</ele><time>2026-04-19T09:01:48Z</time></trkpt><trkpt lat="44.04319327469197" lon="11.386277125048057"><ele>802.5</ele><time>2026-04-19T09:01:49Z</time></trkpt><trkpt lat="44.043099828327826" lon="11.386404124211637"><ele>801.75</ele><time>2026-04-19T09:01:50Z</time></trkpt><trkpt lat="44.04302287105067" lon="11.386502794062647"><ele>801.0</ele><time>2026-04-19T09:01:51Z</time></trkpt><trkpt lat="44.04297103865456" lon="11.386587555667102"><ele>801.0</ele><time>2026-04-19T09:01:52Z</time></trkpt><trkpt lat="44.04295434424081" lon="11.386674432885394"><ele>801.0</ele><time>2026-04-19T09:01:53Z</time></trkpt><trkpt lat="44.042989557573" lon="11.386748601088494"><ele>801.0</ele><time>2026-04-19T09:01:54Z</time></trkpt><trkpt lat="44.04305446144411" lon="11.386791561707179"><ele>801.0</ele><time>2026-04-19T09:01:55Z</time></trkpt><trkpt lat="44.04314416389295" lon="11.386765124522167"><ele>801.0</ele><time>2026-04-19T09:01:56Z</time></trkpt><trkpt lat="44.0432246818977" lon="11.386658914953683"><ele>801.0</ele><time>2026-04-19T09:01:57Z</time></trkpt><trkpt lat="44.04333228751908" lon="11.386512371534252"><ele>802.0</ele><time>2026-04-19T09:01:58Z</time></trkpt><trkpt lat="44.04344348951484" lon="11.386379373502646"><ele>803.0</ele><time>2026-04-19T09:01:59Z</time></trkpt><trkpt lat="44.043562205972464" lon="11.386233994758225"><ele>804.0</ele><time>2026-04-19T09:02:00Z</time></trkpt><trkpt lat="44.04368152497557" lon="11.386113613371313"><ele>804.0</ele><time>2026-04-19T09:02:01Z</time></trkpt><trkpt lat="44.04379199695717" lon="11.38604045056128"><ele>804.0</ele><time>2026-04-19T09:02:02Z</time></trkpt><trkpt lat="44.04390921230238" lon="11.385971888501134"><ele>804.0</ele><time>2026-04-19T09:02:03Z</time></trkpt><trkpt lat="44.044058038971315" lon="11.385926943148396"><ele>804.0</ele><time>2026-04-19T09:02:04Z</time></trkpt><trkpt lat="44.044188168037216" lon="11.385901649778608"><ele>811.25</ele><time>2026-04-19T09:02:05Z</time></trkpt><trkpt lat="44.04429094242511" lon="11.385874001746252"><ele>818.5</ele><time>2026-04-19T09:02:06Z</time></trkpt><trkpt lat="44.04441025809931" lon="11.385803340426762"><ele>825.75</ele><time>2026-04-19T09:02:07Z</time></trkpt><trkpt lat="44.04449823611946" lon="11.385641025904157"><ele>833.0</ele><time>2026-04-19T09:02:08Z</time></trkpt><trkpt lat="44.04460866032589" lon="11.385525924146606"><ele>832.8</ele><time>2026-04-19T09:02:09Z</time></trkpt><trkpt lat="44.04469985059567" lon="11.385423896676082"><ele>832.5999999999999</ele><time>2026-04-19T09:02:10Z</time></trkpt><trkpt lat="44.04475898989877" lon="11.385359085727478"><ele>832.4000000000001</ele><time>2026-04-19T09:02:11Z</time></trkpt><trkpt lat="44.0448845916465" lon="11.385333459517756"><ele>832.2</ele><time>2026-04-19T09:02:12Z</time></trkpt><trkpt lat="44.04500187320055" lon="11.385400590235802"><ele>832.0</ele><time>2026-04-19T09:02:13Z</time></trkpt><trkpt lat="44.04513368619305" lon="11.385486662197662"><ele>831.9999999999999</ele><time>2026-04-19T09:02:14Z</time></trkpt><trkpt lat="44.04525209796608" lon="11.385486066916062"><ele>832.0</ele><time>2026-04-19T09:02:15Z</time></trkpt><trkpt lat="44.04533525724785" lon="11.385461305179321"><ele>832.0</ele><time>2026-04-19T09:02:16Z</time></trkpt><trkpt lat="44.04542056924144" lon="11.385474279692373"><ele>832.0</ele><time>2026-04-19T09:02:17Z</time></trkpt><trkpt lat="44.04546035555051" lon="11.385579361058056"><ele>831.9999999999999</ele><time>2026-04-19T09:02:19Z</time></trkpt><trkpt lat="44.04543361517617" lon="11.385671618233532"><ele>832.0</ele><time>2026-04-19T09:02:20Z</time></trkpt><trkpt lat="44.04536190520007" lon="11.385775707571614"><ele>835.5</ele><time>2026-04-19T09:02:21Z</time></trkpt><trkpt lat="44.045238121041265" lon="11.385847256325741"><ele>839.0</ele><time>2026-04-19T09:02:22Z</time></trkpt><trkpt lat="44.045129049221245" lon="11.385972622098238"><ele>842.5</ele><time>2026-04-19T09:02:23Z</time></trkpt><trkpt lat="44.04505395149266" lon="11.386118016910359"><ele>846.0</ele><time>2026-04-19T09:02:24Z</time></trkpt><trkpt lat="44.045016532824654" lon="11.386269348884374"><ele>847.0</ele><time>2026-04-19T09:02:25Z</time></trkpt><trkpt lat="44.044933813592365" lon="11.386379987084155"><ele>848.0</ele><time>2026-04-19T09:02:26Z</time></trkpt><trkpt lat="44.04479889779966" lon="11.38644096793739"><ele>849.0</ele><time>2026-04-19T09:02:27Z</time></trkpt><trkpt lat="44.04464823841182" lon="11.386494106460942"><ele>850.0</ele><time>2026-04-19T09:02:28Z</time></trkpt><trkpt lat="44.04453038325027" lon="11.386590487039513"><ele>850.0</ele><time>2026-04-19T09:02:29Z</time></trkpt><trkpt lat="44.04445796173992" lon="11.386721550374721"><ele>850.0</ele><time>2026-04-19T09:02:30Z</time></trkpt><trkpt lat="44.04442308176259" lon="11.386873348124443"><ele>850.0</ele><time>2026-04-19T09:02:31Z</time></trkpt><trkpt lat="44.044427844529686" lon="11.387067662805741"><ele>850.0</ele><time>2026-04-19T09:02:32Z</time></trkpt><trkpt lat="44.044450494172004" lon="11.38725668530788"><ele>853.2</ele><time>2026-04-19T09:02:33Z</time></trkpt><trkpt lat="44.04443854945421" lon="11.387431599453407"><ele>856.4</ele><time>2026-04-19T09:02:34Z</time></trkpt><trkpt lat="44.044410251747074" lon="11.387565423616966"><ele>859.5999999999999</ele><time>2026-04-19T09:02:35Z</time></trkpt><trkpt lat="44.04441312268684" lon="11.387676400269033"><ele>862.8</ele><time>2026-04-19T09:02:36Z</time></trkpt><trkpt lat="44.044454196359375" lon="11.387793023755489"><ele>866.0</ele><time>2026-04-19T09:02:37Z</time></trkpt><trkpt lat="44.044577277477494" lon="11.387844529169126"><ele>866.0</ele><time>2026-04-19T09:02:38Z</time></trkpt><trkpt lat="44.04470000857021" lon="11.387780006308647"><ele>866.0</ele><time>2026-04-19T09:02:39Z</time></trkpt><trkpt lat="44.0448087321014" lon="11.387709053432273"><ele>866.0</ele><time>2026-04-19T09:02:40Z</time></trkpt><trkpt lat="44.044947035788134" lon="11.387614049103021"><ele>866.0</ele><time>2026-04-19T09:02:41Z</time></trkpt><trkpt lat="44.04501165292446" lon="11.387627146602034"><ele>867.6666666666667</ele><time>2026-04-19T09:02:42Z</time></trkpt><trkpt lat="44.0451541593369" lon="11.387531757375477"><ele>869.3333333333333</ele><time>2026-04-19T09:02:43Z</time></trkpt><trkpt lat="44.04533169992387" lon="11.387450957281187"><ele>871.0</ele><time>2026-04-19T09:02:44Z</time></trkpt><trkpt lat="44.04552314336004" lon="11.387392741359298"><ele>871.0</ele><time>2026-04-19T09:02:45Z</time></trkpt><trkpt lat="44.04567565268515" lon="11.387351275989744"><ele>871.0</ele><time>2026-04-19T09:02:46Z</time></trkpt><trkpt lat="44.045816328934706" lon="11.387360879377233"><ele>871.0</ele><time>2026-04-19T09:02:47Z</time></trkpt><trkpt lat="44.045918820478796" lon="11.387413230435211"><ele>871.0</ele><time>2026-04-19T09:02:48Z</time></trkpt><trkpt lat="44.04603023832072" lon="11.387522777289952"><ele>872.25</ele><time>2026-04-19T09:02:49Z</time></trkpt><trkpt lat="44.046148608730675" lon="11.387622314854264"><ele>873.5</ele><time>2026-04-19T09:02:50Z</time></trkpt><trkpt lat="44.0462846228204" lon="11.387727627629472"><ele>874.75</ele><time>2026-04-19T09:02:51Z</time></trkpt><trkpt lat="44.046406244078135" lon="11.387786132992348"><ele>876.0</ele><time>2026-04-19T09:02:52Z</time></trkpt><trkpt lat="44.046490375174166" lon="11.38786736426207"><ele>876.0</ele><time>2026-04-19T09:02:53Z</time></trkpt><trkpt lat="44.04657062893299" lon="11.387898650870282"><ele>876.0</ele><time>2026-04-19T09:02:54Z</time></trkpt><trkpt lat="44.04664074332702" lon="11.387938094987298"><ele>876.0</ele><time>2026-04-19T09:02:55Z</time></trkpt><trkpt lat="44.046707761387594" lon="11.387976799958196"><ele>876.0</ele><time>2026-04-19T09:02:56Z</time></trkpt><trkpt lat="44.046785785867165" lon="11.388023175844626"><ele>876.0</ele><time>2026-04-19T09:02:57Z</time></trkpt><trkpt lat="44.04684809334183" lon="11.38808646080106"><ele>876.0</ele><time>2026-04-19T09:02:58Z</time></trkpt><trkpt lat="44.04693915729204" lon="11.388148355935229"><ele>876.8333333333334</ele><time>2026-04-19T09:03:00Z</time></trkpt><trkpt lat="44.04700199541179" lon="11.388199078098602"><ele>877.6666666666667</ele><time>2026-04-19T09:03:02Z</time></trkpt><trkpt lat="44.04704395562178" lon="11.388290866194467"><ele>878.5</ele><time>2026-04-19T09:03:05Z</time></trkpt><trkpt lat="44.04701546447649" lon="11.388212339568625"><ele>879.3333333333334</ele><time>2026-04-19T09:03:16Z</time></trkpt><trkpt lat="44.046962256184315" lon="11.388142587886087"><ele>880.1666666666667</ele><time>2026-04-19T09:03:17Z</time></trkpt><trkpt lat="44.046885692651315" lon="11.388045826436768"><ele>881.0</ele><time>2026-04-19T09:03:19Z</time></trkpt><trkpt lat="44.04683439241624" lon="11.387991219599062"><ele>881.0</ele><time>2026-04-19T09:03:21Z</time></trkpt><trkpt lat="44.046821516392605" lon="11.387897150149048"><ele>881.0</ele><time>2026-04-19T09:03:23.999Z</time></trkpt><trkpt lat="44.0468633462742" lon="11.387981992200746"><ele>881.0</ele><time>2026-04-19T09:13:42.999Z</time></trkpt><trkpt lat="44.04691382377819" lon="11.388051513786555"><ele>881.0</ele><time>2026-04-19T09:13:50.999Z</time></trkpt><trkpt lat="44.04696846048118" lon="11.387994374683007"><ele>881.0</ele><time>2026-04-19T09:14:09Z</time></trkpt><trkpt lat="44.04700724173183" lon="11.38792010469772"><ele>881.0</ele><time>2026-04-19T09:16:15.015Z</time></trkpt><trkpt lat="44.04695243700387" lon="11.388010722308461"><ele>881.0</ele><time>2026-04-19T09:16:53.014Z</time></trkpt><trkpt lat="44.046905311881815" lon="11.3880912953699"><ele>881.0</ele><time>2026-04-19T09:17:15Z</time></trkpt><trkpt lat="44.046891835910095" lon="11.388183811307858"><ele>881.0</ele><time>2026-04-19T09:17:22Z</time></trkpt><trkpt lat="44.04683439552835" lon="11.388228359180868"><ele>881.0</ele><time>2026-04-19T09:32:10Z</time></trkpt><trkpt lat="44.046790742028335" lon="11.388164471806109"><ele>881.0</ele><time>2026-04-19T09:32:30.999Z</time></trkpt><trkpt lat="44.046773217979585" lon="11.38806956201836"><ele>881.0</ele><time>2026-04-19T09:32:40.999Z</time></trkpt><trkpt lat="44.046772204210384" lon="11.387975241777104"><ele>881.0</ele><time>2026-04-19T09:32:49.999Z</time></trkpt><trkpt lat="44.046829235477304" lon="11.388038627382997"><ele>881.0</ele><time>2026-04-19T09:36:10.999Z</time></trkpt><trkpt lat="44.046890655555295" lon="11.388079468180285"><ele>881.0000000000001</ele><time>2026-04-19T09:36:12.999Z</time></trkpt><trkpt lat="44.04694991474108" lon="11.388127748329744"><ele>881.0</ele><time>2026-04-19T09:36:13.999Z</time></trkpt><trkpt lat="44.04704785712771" lon="11.388257183427466"><ele>881.0</ele><time>2026-04-19T09:36:15.999Z</time></trkpt><trkpt lat="44.04707424091094" lon="11.388355154029297"><ele>881.0</ele><time>2026-04-19T09:36:16.999Z</time></trkpt><trkpt lat="44.04708081985079" lon="11.38845091914236"><ele>881.0000000000001</ele><time>2026-04-19T09:36:17.999Z</time></trkpt><trkpt lat="44.04708207212138" lon="11.388541199219775"><ele>881.0</ele><time>2026-04-19T09:36:18.999Z</time></trkpt><trkpt lat="44.047059405866676" lon="11.388711973094987"><ele>881.0</ele><time>2026-04-19T09:36:20.999Z</time></trkpt><trkpt lat="44.04704479493366" lon="11.388810956682844"><ele>880.9999999999999</ele><time>2026-04-19T09:36:21.999Z</time></trkpt><trkpt lat="44.04703568496952" lon="11.388934146216114"><ele>880.9999999999999</ele><time>2026-04-19T09:36:22.999Z</time></trkpt><trkpt lat="44.047040230044686" lon="11.389074242516395"><ele>881.0</ele><time>2026-04-19T09:36:23.999Z</time></trkpt><trkpt lat="44.04708129235081" lon="11.389259180677758"><ele>881.0</ele><time>2026-04-19T09:36:24.999Z</time></trkpt><trkpt lat="44.0471225000748" lon="11.389424756794439"><ele>878.25</ele><time>2026-04-19T09:36:25.999Z</time></trkpt><trkpt lat="44.04715541875044" lon="11.389599345198308"><ele>875.5</ele><time>2026-04-19T09:36:26.999Z</time></trkpt><trkpt lat="44.04716463026685" lon="11.38977806893987"><ele>872.75</ele><time>2026-04-19T09:36:27.999Z</time></trkpt><trkpt lat="44.047160450259774" lon="11.38997234193317"><ele>870.0</ele><time>2026-04-19T09:36:28.999Z</time></trkpt><trkpt lat="44.0471665081622" lon="11.390144921257122"><ele>867.2</ele><time>2026-04-19T09:36:29.999Z</time></trkpt><trkpt lat="44.047169033471604" lon="11.39029980673193"><ele>864.4</ele><time>2026-04-19T09:36:30.999Z</time></trkpt><trkpt lat="44.04716824950857" lon="11.390441634368342"><ele>861.5999999999999</ele><time>2026-04-19T09:36:31.999Z</time></trkpt><trkpt lat="44.04720343152034" lon="11.39055639273581"><ele>858.8</ele><time>2026-04-19T09:36:32.999Z</time></trkpt><trkpt lat="44.04726566670639" lon="11.390628026265171"><ele>856.0</ele><time>2026-04-19T09:36:33.999Z</time></trkpt><trkpt lat="44.047356640962725" lon="11.390626204959071"><ele>854.5</ele><time>2026-04-19T09:36:34.999Z</time></trkpt><trkpt lat="44.047456896215905" lon="11.390560474191572"><ele>853.0</ele><time>2026-04-19T09:36:35.999Z</time></trkpt><trkpt lat="44.04756486077234" lon="11.390452105092793"><ele>851.5</ele><time>2026-04-19T09:36:36.999Z</time></trkpt><trkpt lat="44.04768466510213" lon="11.390347490402434"><ele>850.0</ele><time>2026-04-19T09:36:37.999Z</time></trkpt><trkpt lat="44.047800313035935" lon="11.390306022606337"><ele>850.75</ele><time>2026-04-19T09:36:38.999Z</time></trkpt><trkpt lat="44.04790982291224" lon="11.390309200091533"><ele>851.5</ele><time>2026-04-19T09:36:39.999Z</time></trkpt><trkpt lat="44.04800734617042" lon="11.390375784673639"><ele>852.25</ele><time>2026-04-19T09:36:40.999Z</time></trkpt><trkpt lat="44.04809342268167" lon="11.390482072704067"><ele>853.0</ele><time>2026-04-19T09:36:41.999Z</time></trkpt><trkpt lat="44.04816087581635" lon="11.390656244512734"><ele>853.0</ele><time>2026-04-19T09:36:42.999Z</time></trkpt><trkpt lat="44.04823803085648" lon="11.39084824943068"><ele>853.0</ele><time>2026-04-19T09:36:43.999Z</time></trkpt><trkpt lat="44.04832883358235" lon="11.39103234538299"><ele>853.0</ele><time>2026-04-19T09:36:44.999Z</time></trkpt><trkpt lat="44.04836593706166" lon="11.391228773190539"><ele>851.0</ele><time>2026-04-19T09:36:45.999Z</time></trkpt><trkpt lat="44.04838176635946" lon="11.391418097443573"><ele>849.0</ele><time>2026-04-19T09:36:46.999Z</time></trkpt><trkpt lat="44.04840491317465" lon="11.391607769308681"><ele>847.0</ele><time>2026-04-19T09:36:47.999Z</time></trkpt><trkpt lat="44.04839962541775" lon="11.391737246644295"><ele>845.0</ele><time>2026-04-19T09:36:48.999Z</time></trkpt><trkpt lat="44.04851203542896" lon="11.391800038238184"><ele>845.0</ele><time>2026-04-19T09:36:50.999Z</time></trkpt><trkpt lat="44.048589902253624" lon="11.391726460927803"><ele>845.0</ele><time>2026-04-19T09:36:51.999Z</time></trkpt><trkpt lat="44.04865175632836" lon="11.391581505796028"><ele>845.0</ele><time>2026-04-19T09:36:52.999Z</time></trkpt><trkpt lat="44.048689555144094" lon="11.391389717137722"><ele>845.0</ele><time>2026-04-19T09:36:53.999Z</time></trkpt><trkpt lat="44.04874533085969" lon="11.391151893146468"><ele>846.3333333333334</ele><time>2026-04-19T09:36:54.999Z</time></trkpt><trkpt lat="44.04882413534771" lon="11.390955742687883"><ele>847.6666666666667</ele><time>2026-04-19T09:36:55.999Z</time></trkpt><trkpt lat="44.04891763250558" lon="11.390751067304885"><ele>849.0</ele><time>2026-04-19T09:36:56.999Z</time></trkpt><trkpt lat="44.04899339758167" lon="11.390556605411579"><ele>847.75</ele><time>2026-04-19T09:36:57.999Z</time></trkpt><trkpt lat="44.049004402399326" lon="11.390350589100562"><ele>846.5</ele><time>2026-04-19T09:36:58.999Z</time></trkpt><trkpt lat="44.04904827671749" lon="11.390187300059981"><ele>845.25</ele><time>2026-04-19T09:36:59.999Z</time></trkpt><trkpt lat="44.049122922361356" lon="11.390058009549456"><ele>844.0</ele><time>2026-04-19T09:37:00.999Z</time></trkpt><trkpt lat="44.049249726269956" lon="11.38996067520071"><ele>844.0</ele><time>2026-04-19T09:37:01.999Z</time></trkpt><trkpt lat="44.04941021679561" lon="11.389843391275473"><ele>844.0</ele><time>2026-04-19T09:37:02.999Z</time></trkpt><trkpt lat="44.04956424087149" lon="11.389748487609882"><ele>844.0</ele><time>2026-04-19T09:37:03.999Z</time></trkpt><trkpt lat="44.04971428517078" lon="11.389681626054848"><ele>845.3333333333333</ele><time>2026-04-19T09:37:04.999Z</time></trkpt><trkpt lat="44.049863546491196" lon="11.389635849800364"><ele>846.6666666666667</ele><time>2026-04-19T09:37:05.999Z</time></trkpt><trkpt lat="44.05003360308301" lon="11.389652375310868"><ele>848.0</ele><time>2026-04-19T09:37:06.999Z</time></trkpt><trkpt lat="44.050221617254905" lon="11.38968408875402"><ele>841.6666666666667</ele><time>2026-04-19T09:37:07.999Z</time></trkpt><trkpt lat="44.0504118244544" lon="11.38974253263018"><ele>835.3333333333333</ele><time>2026-04-19T09:37:08.999Z</time></trkpt><trkpt lat="44.050598318160525" lon="11.389842393120746"><ele>829.0</ele><time>2026-04-19T09:37:09.999Z</time></trkpt><trkpt lat="44.050763348237" lon="11.389967041917828"><ele>826.0</ele><time>2026-04-19T09:37:10.999Z</time></trkpt><trkpt lat="44.050918102237105" lon="11.39007777834691"><ele>823.0</ele><time>2026-04-19T09:37:11.999Z</time></trkpt><trkpt lat="44.05107519709978" lon="11.390160850576702"><ele>820.0</ele><time>2026-04-19T09:37:12.999Z</time></trkpt><trkpt lat="44.051253847820185" lon="11.390180297702548"><ele>820.0</ele><time>2026-04-19T09:37:13.999Z</time></trkpt><trkpt lat="44.05145685135297" lon="11.39013360636609"><ele>820.0</ele><time>2026-04-19T09:37:14.999Z</time></trkpt><trkpt lat="44.05165170097364" lon="11.390135382899752"><ele>820.0</ele><time>2026-04-19T09:37:15.999Z</time></trkpt><trkpt lat="44.0518406769959" lon="11.390212502055812"><ele>819.3333333333333</ele><time>2026-04-19T09:37:16.999Z</time></trkpt><trkpt lat="44.05204601494421" lon="11.390308113531255"><ele>818.6666666666667</ele><time>2026-04-19T09:37:17.999Z</time></trkpt><trkpt lat="44.052237716121965" lon="11.390387868116845"><ele>818.0</ele><time>2026-04-19T09:37:18.999Z</time></trkpt><trkpt lat="44.05240937805162" lon="11.390469703397969"><ele>813.6666666666667</ele><time>2026-04-19T09:37:19.999Z</time></trkpt><trkpt lat="44.05255788166826" lon="11.390551073347233"><ele>809.3333333333333</ele><time>2026-04-19T09:37:20.999Z</time></trkpt><trkpt lat="44.05269901011247" lon="11.390605462465361"><ele>805.0</ele><time>2026-04-19T09:37:21.999Z</time></trkpt><trkpt lat="44.05284816735534" lon="11.39061099082953"><ele>805.0</ele><time>2026-04-19T09:37:22.999Z</time></trkpt><trkpt lat="44.05300921905017" lon="11.390549525001084"><ele>805.0</ele><time>2026-04-19T09:37:23.999Z</time></trkpt><trkpt lat="44.05317133368104" lon="11.39044527693953"><ele>805.0</ele><time>2026-04-19T09:37:24.999Z</time></trkpt><trkpt lat="44.05334264434286" lon="11.39043778341284"><ele>813.3333333333333</ele><time>2026-04-19T09:37:25.999Z</time></trkpt><trkpt lat="44.05354100760727" lon="11.390439264912244"><ele>821.6666666666667</ele><time>2026-04-19T09:37:26.999Z</time></trkpt><trkpt lat="44.05374648143139" lon="11.390449484076298"><ele>830.0</ele><time>2026-04-19T09:37:27.999Z</time></trkpt><trkpt lat="44.05394484104219" lon="11.390505726230517"><ele>820.0</ele><time>2026-04-19T09:37:28.999Z</time></trkpt><trkpt lat="44.054145398112965" lon="11.39058119247574"><ele>810.0</ele><time>2026-04-19T09:37:29.999Z</time></trkpt><trkpt lat="44.054330207956525" lon="11.390639411495615"><ele>800.0</ele><time>2026-04-19T09:37:30.999Z</time></trkpt><trkpt lat="44.05448018636943" lon="11.39069080663035"><ele>800.0</ele><time>2026-04-19T09:37:31.999Z</time></trkpt><trkpt lat="44.054616178182606" lon="11.390716885657753"><ele>800.0</ele><time>2026-04-19T09:37:32.999Z</time></trkpt><trkpt lat="44.054729611911114" lon="11.390687922552265"><ele>800.0</ele><time>2026-04-19T09:37:33.999Z</time></trkpt><trkpt lat="44.0548289292047" lon="11.390616558367668"><ele>800.0</ele><time>2026-04-19T09:37:34.999Z</time></trkpt><trkpt lat="44.05491033167194" lon="11.390492390449252"><ele>801.8</ele><time>2026-04-19T09:37:35.999Z</time></trkpt><trkpt lat="44.05496830636168" lon="11.390324781790694"><ele>803.6</ele><time>2026-04-19T09:37:36.999Z</time></trkpt><trkpt lat="44.05503206960818" lon="11.390214620767715"><ele>805.4000000000001</ele><time>2026-04-19T09:37:37.999Z</time></trkpt><trkpt lat="44.05508736099253" lon="11.3901199237678"><ele>807.2</ele><time>2026-04-19T09:37:38.999Z</time></trkpt><trkpt lat="44.055142535959824" lon="11.390039176992575"><ele>809.0</ele><time>2026-04-19T09:37:39.999Z</time></trkpt><trkpt lat="44.05521394146988" lon="11.39005996874799"><ele>809.0</ele><time>2026-04-19T09:37:40.999Z</time></trkpt><trkpt lat="44.0552688994362" lon="11.39016284343017"><ele>809.0</ele><time>2026-04-19T09:37:41.999Z</time></trkpt><trkpt lat="44.05528832330252" lon="11.390311237597329"><ele>809.0</ele><time>2026-04-19T09:37:42.999Z</time></trkpt><trkpt lat="44.05529499090063" lon="11.390522869059255"><ele>809.0</ele><time>2026-04-19T09:37:43.999Z</time></trkpt><trkpt lat="44.055303833793246" lon="11.390756639015864"><ele>804.3333333333334</ele><time>2026-04-19T09:37:44.999Z</time></trkpt><trkpt lat="44.0553001423451" lon="11.390991047207121"><ele>799.6666666666667</ele><time>2026-04-19T09:37:45.999Z</time></trkpt><trkpt lat="44.055275558582686" lon="11.39120298519006"><ele>795.0</ele><time>2026-04-19T09:37:46.999Z</time></trkpt><trkpt lat="44.05526846549531" lon="11.391399154672232"><ele>791.6666666666667</ele><time>2026-04-19T09:37:47.999Z</time></trkpt><trkpt lat="44.05532305345805" lon="11.391601790535397"><ele>788.3333333333334</ele><time>2026-04-19T09:37:48.999Z</time></trkpt><trkpt lat="44.0554165609443" lon="11.391822887919188"><ele>785.0</ele><time>2026-04-19T09:37:49.999Z</time></trkpt><trkpt lat="44.05552867089651" lon="11.39205992897341"><ele>786.6666666666667</ele><time>2026-04-19T09:37:50.999Z</time></trkpt><trkpt lat="44.05563847212006" lon="11.392316190877834"><ele>788.3333333333333</ele><time>2026-04-19T09:37:51.999Z</time></trkpt><trkpt lat="44.05574607264525" lon="11.392585921395856"><ele>790.0</ele><time>2026-04-19T09:37:52.999Z</time></trkpt><trkpt lat="44.055844033883666" lon="11.392831580588478"><ele>783.5</ele><time>2026-04-19T09:37:53.999Z</time></trkpt><trkpt lat="44.055926596451805" lon="11.393032424835988"><ele>777.0</ele><time>2026-04-19T09:37:54.999Z</time></trkpt><trkpt lat="44.0559933767926" lon="11.3931984723376"><ele>770.5</ele><time>2026-04-19T09:37:55.999Z</time></trkpt><trkpt lat="44.05605980990451" lon="11.393313932593038"><ele>764.0</ele><time>2026-04-19T09:37:56.999Z</time></trkpt><trkpt lat="44.05615922247441" lon="11.393375114672983"><ele>764.0</ele><time>2026-04-19T09:37:57.999Z</time></trkpt><trkpt lat="44.056271473615766" lon="11.393363075226816"><ele>764.0</ele><time>2026-04-19T09:37:58.999Z</time></trkpt><trkpt lat="44.05638371288039" lon="11.393292412333864"><ele>764.0</ele><time>2026-04-19T09:37:59.999Z</time></trkpt><trkpt lat="44.056490855494474" lon="11.393161965408362"><ele>764.0</ele><time>2026-04-19T09:38:00.999Z</time></trkpt><trkpt lat="44.05657849818808" lon="11.39307191104814"><ele>766.5</ele><time>2026-04-19T09:38:01.999Z</time></trkpt><trkpt lat="44.056640185294256" lon="11.39301657876183"><ele>769.0</ele><time>2026-04-19T09:38:02.999Z</time></trkpt><trkpt lat="44.05670641780992" lon="11.393004775281945"><ele>771.5</ele><time>2026-04-19T09:38:03.999Z</time></trkpt><trkpt lat="44.05677252772341" lon="11.393075622232237"><ele>774.0</ele><time>2026-04-19T09:38:04.999Z</time></trkpt><trkpt lat="44.056801402725604" lon="11.393201147274334"><ele>776.5000000000001</ele><time>2026-04-19T09:38:05.999Z</time></trkpt><trkpt lat="44.05679859274926" lon="11.393380869131732"><ele>779.0</ele><time>2026-04-19T09:38:06.999Z</time></trkpt><trkpt lat="44.05675912044762" lon="11.393570852865995"><ele>779.0</ele><time>2026-04-19T09:38:07.999Z</time></trkpt><trkpt lat="44.056730106394845" lon="11.393726153004307"><ele>779.0</ele><time>2026-04-19T09:38:08.999Z</time></trkpt><trkpt lat="44.05674544024321" lon="11.393853870106588"><ele>779.0</ele><time>2026-04-19T09:38:09.999Z</time></trkpt><trkpt lat="44.05681992736414" lon="11.393941097682367"><ele>779.0</ele><time>2026-04-19T09:38:10.999Z</time></trkpt><trkpt lat="44.05694637937902" lon="11.393998172212848"><ele>779.0</ele><time>2026-04-19T09:38:11.999Z</time></trkpt><trkpt lat="44.05708214603237" lon="11.394059631971011"><ele>778.0</ele><time>2026-04-19T09:38:12.999Z</time></trkpt><trkpt lat="44.057209121895326" lon="11.394150117455114"><ele>777.0</ele><time>2026-04-19T09:38:13.999Z</time></trkpt><trkpt lat="44.05732568127437" lon="11.394284522370999"><ele>776.0</ele><time>2026-04-19T09:38:14.999Z</time></trkpt><trkpt lat="44.057435976659846" lon="11.39439340678904"><ele>775.0</ele><time>2026-04-19T09:38:15.999Z</time></trkpt><trkpt lat="44.05751974401169" lon="11.394478112545382"><ele>775.0</ele><time>2026-04-19T09:38:16.999Z</time></trkpt><trkpt lat="44.05758726079533" lon="11.394549056874771"><ele>775.0</ele><time>2026-04-19T09:38:17.999Z</time></trkpt><trkpt lat="44.0576426293708" lon="11.394616406585056"><ele>775.0</ele><time>2026-04-19T09:38:18.999Z</time></trkpt><trkpt lat="44.057630919397894" lon="11.394736474571367"><ele>775.0</ele><time>2026-04-19T09:38:19.999Z</time></trkpt><trkpt lat="44.05761172941136" lon="11.394822862641089"><ele>775.0</ele><time>2026-04-19T09:38:20.999Z</time></trkpt><trkpt lat="44.057460910547135" lon="11.394895623305116"><ele>767.2</ele><time>2026-04-19T09:38:21.999Z</time></trkpt><trkpt lat="44.05734456323224" lon="11.394940276997092"><ele>759.4</ele><time>2026-04-19T09:38:22.999Z</time></trkpt><trkpt lat="44.05726532037398" lon="11.39501567548973"><ele>751.5999999999999</ele><time>2026-04-19T09:38:23.999Z</time></trkpt><trkpt lat="44.05723547351127" lon="11.39514602051068"><ele>743.8</ele><time>2026-04-19T09:38:24.999Z</time></trkpt><trkpt lat="44.05725255126419" lon="11.395322940912774"><ele>736.0</ele><time>2026-04-19T09:38:25.999Z</time></trkpt><trkpt lat="44.05730739378612" lon="11.395505511202673"><ele>734.3333333333334</ele><time>2026-04-19T09:38:26.999Z</time></trkpt><trkpt lat="44.057388618944614" lon="11.395698845427148"><ele>732.6666666666666</ele><time>2026-04-19T09:38:27.999Z</time></trkpt><trkpt lat="44.057450058769746" lon="11.395910734291665"><ele>731.0</ele><time>2026-04-19T09:38:28.999Z</time></trkpt><trkpt lat="44.057526971496635" lon="11.396114422563944"><ele>737.0</ele><time>2026-04-19T09:38:29.999Z</time></trkpt><trkpt lat="44.05759608499915" lon="11.396300561315734"><ele>743.0</ele><time>2026-04-19T09:38:30.999Z</time></trkpt><trkpt lat="44.057659412491255" lon="11.396500592724164"><ele>749.0</ele><time>2026-04-19T09:38:31.999Z</time></trkpt><trkpt lat="44.057695482728676" lon="11.396715415501939"><ele>749.0</ele><time>2026-04-19T09:38:32.999Z</time></trkpt><trkpt lat="44.057676793144196" lon="11.396918423238546"><ele>749.0</ele><time>2026-04-19T09:38:33.999Z</time></trkpt><trkpt lat="44.057685228226994" lon="11.397103333356622"><ele>749.0</ele><time>2026-04-19T09:38:34.999Z</time></trkpt><trkpt lat="44.057703771224766" lon="11.397269684876383"><ele>749.0</ele><time>2026-04-19T09:38:35.999Z</time></trkpt><trkpt lat="44.05776134344395" lon="11.39741461010484"><ele>746.0</ele><time>2026-04-19T09:38:36.999Z</time></trkpt><trkpt lat="44.057855335343405" lon="11.397531896934384"><ele>743.0</ele><time>2026-04-19T09:38:37.999Z</time></trkpt><trkpt lat="44.0579482681234" lon="11.397664603421669"><ele>740.0</ele><time>2026-04-19T09:38:38.999Z</time></trkpt><trkpt lat="44.05804628056623" lon="11.397751817039607"><ele>737.0</ele><time>2026-04-19T09:38:39.999Z</time></trkpt><trkpt lat="44.058163527393695" lon="11.397815331052717"><ele>741.25</ele><time>2026-04-19T09:38:40.999Z</time></trkpt><trkpt lat="44.05828782997747" lon="11.397866214814103"><ele>745.5</ele><time>2026-04-19T09:38:41.999Z</time></trkpt><trkpt lat="44.0584036784634" lon="11.39792849418254"><ele>749.75</ele><time>2026-04-19T09:38:42.999Z</time></trkpt><trkpt lat="44.05852738892265" lon="11.397949620710312"><ele>754.0</ele><time>2026-04-19T09:38:43.999Z</time></trkpt><trkpt lat="44.05865170822744" lon="11.397951699366077"><ele>754.0</ele><time>2026-04-19T09:38:44.999Z</time></trkpt><trkpt lat="44.058792612147684" lon="11.397914230998001"><ele>754.0</ele><time>2026-04-19T09:38:45.999Z</time></trkpt><trkpt lat="44.05893847752876" lon="11.397829910542798"><ele>754.0</ele><time>2026-04-19T09:38:46.999Z</time></trkpt><trkpt lat="44.05908779460857" lon="11.397798364166508"><ele>754.6666666666667</ele><time>2026-04-19T09:38:47.999Z</time></trkpt><trkpt lat="44.05923525122778" lon="11.39780159080905"><ele>755.3333333333334</ele><time>2026-04-19T09:38:48.999Z</time></trkpt><trkpt lat="44.0593882114712" lon="11.397859896342977"><ele>756.0</ele><time>2026-04-19T09:38:49.999Z</time></trkpt><trkpt lat="44.0595237047205" lon="11.397968366668886"><ele>750.25</ele><time>2026-04-19T09:38:50.999Z</time></trkpt><trkpt lat="44.059646115745714" lon="11.398054359683078"><ele>744.5</ele><time>2026-04-19T09:38:51.999Z</time></trkpt><trkpt lat="44.059747226517246" lon="11.398130484155502"><ele>738.75</ele><time>2026-04-19T09:38:52.999Z</time></trkpt><trkpt lat="44.059858701814676" lon="11.398162714234218"><ele>733.0</ele><time>2026-04-19T09:38:53.999Z</time></trkpt><trkpt lat="44.05996343629279" lon="11.398146231188012"><ele>732.25</ele><time>2026-04-19T09:38:54.999Z</time></trkpt><trkpt lat="44.060055222910975" lon="11.398062712047022"><ele>731.5</ele><time>2026-04-19T09:38:55.999Z</time></trkpt><trkpt lat="44.060110769915305" lon="11.39790282848011"><ele>730.75</ele><time>2026-04-19T09:38:56.999Z</time></trkpt><trkpt lat="44.06011877510563" lon="11.397693850676914"><ele>730.0</ele><time>2026-04-19T09:38:57.999Z</time></trkpt><trkpt lat="44.06015031456646" lon="11.397509576241053"><ele>733.0</ele><time>2026-04-19T09:38:58.999Z</time></trkpt><trkpt lat="44.06021950041463" lon="11.397372745077387"><ele>736.0</ele><time>2026-04-19T09:38:59.999Z</time></trkpt><trkpt lat="44.06032320586706" lon="11.397248045494672"><ele>739.0</ele><time>2026-04-19T09:39:00.999Z</time></trkpt><trkpt lat="44.06043979470219" lon="11.397134366838827"><ele>742.0</ele><time>2026-04-19T09:39:01.999Z</time></trkpt><trkpt lat="44.06056147272626" lon="11.39708797742219"><ele>737.5</ele><time>2026-04-19T09:39:02.999Z</time></trkpt><trkpt lat="44.06067821868659" lon="11.397116708531657"><ele>733.0</ele><time>2026-04-19T09:39:03.999Z</time></trkpt><trkpt lat="44.06079992691523" lon="11.397204892604929"><ele>728.5</ele><time>2026-04-19T09:39:04.999Z</time></trkpt><trkpt lat="44.06089185022457" lon="11.397278899673402"><ele>724.0</ele><time>2026-04-19T09:39:05.999Z</time></trkpt><trkpt lat="44.06098353954661" lon="11.397305344651631"><ele>724.0</ele><time>2026-04-19T09:39:06.999Z</time></trkpt><trkpt lat="44.061074537184346" lon="11.39729424040133"><ele>724.0</ele><time>2026-04-19T09:39:07.999Z</time></trkpt><trkpt lat="44.06117591997472" lon="11.397191650000524"><ele>724.0</ele><time>2026-04-19T09:39:08.999Z</time></trkpt><trkpt lat="44.06124025179705" lon="11.396979430658652"><ele>724.0</ele><time>2026-04-19T09:39:09.999Z</time></trkpt><trkpt lat="44.06131474155961" lon="11.396800152597233"><ele>724.5</ele><time>2026-04-19T09:39:10.999Z</time></trkpt><trkpt lat="44.06141904836378" lon="11.396662612059977"><ele>725.0</ele><time>2026-04-19T09:39:11.999Z</time></trkpt><trkpt lat="44.061537614173474" lon="11.396564665543018"><ele>725.5</ele><time>2026-04-19T09:39:12.999Z</time></trkpt><trkpt lat="44.06165300710714" lon="11.396452103095926"><ele>726.0</ele><time>2026-04-19T09:39:13.999Z</time></trkpt><trkpt lat="44.06172724642662" lon="11.396309707519539"><ele>726.0</ele><time>2026-04-19T09:39:14.999Z</time></trkpt><trkpt lat="44.061779696879526" lon="11.39617696252653"><ele>726.0</ele><time>2026-04-19T09:39:15.999Z</time></trkpt><trkpt lat="44.061787515012334" lon="11.396043881446447"><ele>726.0</ele><time>2026-04-19T09:39:16.999Z</time></trkpt><trkpt lat="44.0617523172915" lon="11.395923756710369"><ele>726.0</ele><time>2026-04-19T09:39:17.999Z</time></trkpt><trkpt lat="44.06169968121008" lon="11.395821821718606"><ele>726.0</ele><time>2026-04-19T09:39:18.999Z</time></trkpt><trkpt lat="44.06170139724585" lon="11.395715476989187"><ele>726.0</ele><time>2026-04-19T09:39:19.999Z</time></trkpt><trkpt lat="44.061738422323565" lon="11.395596073909795"><ele>726.0</ele><time>2026-04-19T09:39:20.999Z</time></trkpt><trkpt lat="44.06181752503007" lon="11.395498865930955"><ele>726.0</ele><time>2026-04-19T09:39:21.999Z</time></trkpt><trkpt lat="44.06192611878107" lon="11.395404218037513"><ele>726.0</ele><time>2026-04-19T09:39:22.999Z</time></trkpt><trkpt lat="44.06206435764584" lon="11.395295719138025"><ele>723.6666666666666</ele><time>2026-04-19T09:39:23.999Z</time></trkpt><trkpt lat="44.062232406191335" lon="11.395215216184393"><ele>721.3333333333333</ele><time>2026-04-19T09:39:24.999Z</time></trkpt><trkpt lat="44.06241871485212" lon="11.395113872203371"><ele>719.0</ele><time>2026-04-19T09:39:25.999Z</time></trkpt><trkpt lat="44.06259149716541" lon="11.395047340188292"><ele>719.0</ele><time>2026-04-19T09:39:26.999Z</time></trkpt><trkpt lat="44.06273379218063" lon="11.39495290721153"><ele>719.0</ele><time>2026-04-19T09:39:27.999Z</time></trkpt><trkpt lat="44.062844185747046" lon="11.39485004730687"><ele>719.0</ele><time>2026-04-19T09:39:28.999Z</time></trkpt><trkpt lat="44.062932172431424" lon="11.394754020530648"><ele>719.0</ele><time>2026-04-19T09:39:29.999Z</time></trkpt><trkpt lat="44.06298056650088" lon="11.394601837806217"><ele>726.0</ele><time>2026-04-19T09:39:30.999Z</time></trkpt><trkpt lat="44.062982312140605" lon="11.394398892346851"><ele>733.0</ele><time>2026-04-19T09:39:31.999Z</time></trkpt><trkpt lat="44.062949889582214" lon="11.39414566857404"><ele>740.0</ele><time>2026-04-19T09:39:32.999Z</time></trkpt><trkpt lat="44.06293484942327" lon="11.393869997946945"><ele>743.6666666666666</ele><time>2026-04-19T09:39:33.999Z</time></trkpt><trkpt lat="44.06299114911424" lon="11.393591742604693"><ele>747.3333333333334</ele><time>2026-04-19T09:39:34.999Z</time></trkpt><trkpt lat="44.063032839372916" lon="11.39330953153031"><ele>751.0</ele><time>2026-04-19T09:39:35.999Z</time></trkpt><trkpt lat="44.06304921980961" lon="11.393046134916402"><ele>749.6666666666667</ele><time>2026-04-19T09:39:36.999Z</time></trkpt><trkpt lat="44.06310968978598" lon="11.39282371331924"><ele>748.3333333333334</ele><time>2026-04-19T09:39:37.999Z</time></trkpt><trkpt lat="44.06312820763054" lon="11.39261227139176"><ele>747.0</ele><time>2026-04-19T09:39:38.999Z</time></trkpt><trkpt lat="44.0631438643025" lon="11.392399077043962"><ele>740.5</ele><time>2026-04-19T09:39:39.999Z</time></trkpt><trkpt lat="44.0631094682755" lon="11.392168488362877"><ele>734.0</ele><time>2026-04-19T09:39:40.999Z</time></trkpt><trkpt lat="44.063066300430044" lon="11.39197681981486"><ele>727.5</ele><time>2026-04-19T09:39:41.999Z</time></trkpt><trkpt lat="44.06303898736488" lon="11.39181869969641"><ele>721.0</ele><time>2026-04-19T09:39:42.999Z</time></trkpt><trkpt lat="44.063007676757714" lon="11.391694576543774"><ele>721.0</ele><time>2026-04-19T09:39:43.999Z</time></trkpt><trkpt lat="44.06300493946785" lon="11.39159787117836"><ele>721.0</ele><time>2026-04-19T09:39:44.999Z</time></trkpt><trkpt lat="44.06302908697992" lon="11.391510817399606"><ele>721.0</ele><time>2026-04-19T09:39:45.999Z</time></trkpt><trkpt lat="44.06308600328059" lon="11.391446796538377"><ele>721.0</ele><time>2026-04-19T09:39:46.999Z</time></trkpt><trkpt lat="44.063237742912364" lon="11.391458575352297"><ele>721.0</ele><time>2026-04-19T09:39:47.999Z</time></trkpt><trkpt lat="44.06333408221039" lon="11.391576444484764"><ele>718.75</ele><time>2026-04-19T09:39:48.999Z</time></trkpt><trkpt lat="44.06343807819376" lon="11.391699743136941"><ele>716.5</ele><time>2026-04-19T09:39:49.999Z</time></trkpt><trkpt lat="44.06352144818326" lon="11.391862816335397"><ele>714.25</ele><time>2026-04-19T09:39:50.999Z</time></trkpt><trkpt lat="44.06363832586853" lon="11.392001080825052"><ele>712.0</ele><time>2026-04-19T09:39:51.999Z</time></trkpt><trkpt lat="44.06379728973082" lon="11.392166146644641"><ele>711.3333333333334</ele><time>2026-04-19T09:39:52.999Z</time></trkpt><trkpt lat="44.06395404922813" lon="11.39229483982307"><ele>710.6666666666666</ele><time>2026-04-19T09:39:53.999Z</time></trkpt><trkpt lat="44.064071403793804" lon="11.392463958320562"><ele>710.0</ele><time>2026-04-19T09:39:54.999Z</time></trkpt><trkpt lat="44.06413219701523" lon="11.392645623967196"><ele>710.0</ele><time>2026-04-19T09:39:55.999Z</time></trkpt><trkpt lat="44.06416584044034" lon="11.392794551841208"><ele>710.0</ele><time>2026-04-19T09:39:56.999Z</time></trkpt><trkpt lat="44.06422220127005" lon="11.392868099012464"><ele>710.0</ele><time>2026-04-19T09:39:57.999Z</time></trkpt><trkpt lat="44.06431622553618" lon="11.392897190507906"><ele>710.0</ele><time>2026-04-19T09:39:58.999Z</time></trkpt><trkpt lat="44.06443556035333" lon="11.392851943250404"><ele>710.0</ele><time>2026-04-19T09:39:59.999Z</time></trkpt><trkpt lat="44.064565688840524" lon="11.39273999341245"><ele>710.0</ele><time>2026-04-19T09:40:00.999Z</time></trkpt><trkpt lat="44.06470821992106" lon="11.39264312473495"><ele>710.0</ele><time>2026-04-19T09:40:01.999Z</time></trkpt><trkpt lat="44.06483676483644" lon="11.392471204996378"><ele>710.0</ele><time>2026-04-19T09:40:02.999Z</time></trkpt><trkpt lat="44.06497122765054" lon="11.392280736275668"><ele>717.6666666666666</ele><time>2026-04-19T09:40:03.999Z</time></trkpt><trkpt lat="44.065115584608904" lon="11.392090625787725"><ele>725.3333333333334</ele><time>2026-04-19T09:40:04.999Z</time></trkpt><trkpt lat="44.06520262531884" lon="11.391922779613331"><ele>733.0</ele><time>2026-04-19T09:40:05.999Z</time></trkpt><trkpt lat="44.06526703756316" lon="11.391785252873653"><ele>733.0</ele><time>2026-04-19T09:40:06.999Z</time></trkpt><trkpt lat="44.065309124858906" lon="11.391570645724313"><ele>733.0</ele><time>2026-04-19T09:40:07.999Z</time></trkpt><trkpt lat="44.06535735207798" lon="11.391341792873344"><ele>733.0</ele><time>2026-04-19T09:40:08.999Z</time></trkpt><trkpt lat="44.065395423312346" lon="11.39114876131185"><ele>735.75</ele><time>2026-04-19T09:40:09.999Z</time></trkpt><trkpt lat="44.06543052335922" lon="11.390975317377203"><ele>738.5</ele><time>2026-04-19T09:40:10.999Z</time></trkpt><trkpt lat="44.065468258360085" lon="11.390813036966884"><ele>741.25</ele><time>2026-04-19T09:40:11.999Z</time></trkpt><trkpt lat="44.06550224169232" lon="11.39064607764008"><ele>744.0</ele><time>2026-04-19T09:40:12.999Z</time></trkpt><trkpt lat="44.06559515132422" lon="11.390526388207808"><ele>743.2</ele><time>2026-04-19T09:40:13.999Z</time></trkpt><trkpt lat="44.06567367625157" lon="11.390415426385061"><ele>742.4000000000001</ele><time>2026-04-19T09:40:14.999Z</time></trkpt><trkpt lat="44.065743641375306" lon="11.390296182978576"><ele>741.6</ele><time>2026-04-19T09:40:15.999Z</time></trkpt><trkpt lat="44.065808384837005" lon="11.390173742442622"><ele>740.8</ele><time>2026-04-19T09:40:17Z</time></trkpt><trkpt lat="44.065828813800344" lon="11.390027193605896"><ele>740.0</ele><time>2026-04-19T09:40:18Z</time></trkpt><trkpt lat="44.06585228360528" lon="11.389883035414313"><ele>736.4</ele><time>2026-04-19T09:40:19Z</time></trkpt><trkpt lat="44.06590086799496" lon="11.38976515501615"><ele>732.8</ele><time>2026-04-19T09:40:20Z</time></trkpt><trkpt lat="44.06596685048075" lon="11.389655485754973"><ele>729.2</ele><time>2026-04-19T09:40:21Z</time></trkpt><trkpt lat="44.06607018522478" lon="11.389613352875557"><ele>725.6</ele><time>2026-04-19T09:40:22Z</time></trkpt><trkpt lat="44.06619567190756" lon="11.38956686023094"><ele>722.0</ele><time>2026-04-19T09:40:23Z</time></trkpt><trkpt lat="44.06633949969963" lon="11.38950805277657"><ele>722.0</ele><time>2026-04-19T09:40:24Z</time></trkpt><trkpt lat="44.066469054052696" lon="11.3893897703022"><ele>722.0</ele><time>2026-04-19T09:40:25Z</time></trkpt><trkpt lat="44.06658193394157" lon="11.389226288300003"><ele>722.0</ele><time>2026-04-19T09:40:26Z</time></trkpt><trkpt lat="44.06668581260795" lon="11.389071342617532"><ele>717.0</ele><time>2026-04-19T09:40:27Z</time></trkpt><trkpt lat="44.066802397982165" lon="11.388945214478262"><ele>712.0</ele><time>2026-04-19T09:40:28Z</time></trkpt><trkpt lat="44.0668951551342" lon="11.388777377576801"><ele>707.0</ele><time>2026-04-19T09:40:29Z</time></trkpt><trkpt lat="44.06700321197733" lon="11.388592573393863"><ele>707.0</ele><time>2026-04-19T09:40:30Z</time></trkpt><trkpt lat="44.0670969730871" lon="11.388375496884786"><ele>707.0</ele><time>2026-04-19T09:40:31Z</time></trkpt><trkpt lat="44.06718320850549" lon="11.388123275399522"><ele>707.0</ele><time>2026-04-19T09:40:32Z</time></trkpt><trkpt lat="44.0672568638419" lon="11.387871169927717"><ele>710.3333333333333</ele><time>2026-04-19T09:40:33Z</time></trkpt><trkpt lat="44.067311197753256" lon="11.387635484723237"><ele>713.6666666666666</ele><time>2026-04-19T09:40:34Z</time></trkpt><trkpt lat="44.067355808438535" lon="11.387415081210657"><ele>717.0</ele><time>2026-04-19T09:40:35Z</time></trkpt><trkpt lat="44.06737577167223" lon="11.38721818252713"><ele>718.25</ele><time>2026-04-19T09:40:36Z</time></trkpt><trkpt lat="44.06738443997329" lon="11.387066955849424"><ele>719.5</ele><time>2026-04-19T09:40:37Z</time></trkpt><trkpt lat="44.06744950113505" lon="11.38695443611964"><ele>720.75</ele><time>2026-04-19T09:40:38Z</time></trkpt><trkpt lat="44.06756727802003" lon="11.386915233583597"><ele>722.0</ele><time>2026-04-19T09:40:39Z</time></trkpt><trkpt lat="44.067706710648544" lon="11.386854525600421"><ele>717.0</ele><time>2026-04-19T09:40:40Z</time></trkpt><trkpt lat="44.06785674644747" lon="11.386780185718878"><ele>712.0</ele><time>2026-04-19T09:40:41Z</time></trkpt><trkpt lat="44.06798184126077" lon="11.386736557904285"><ele>707.0</ele><time>2026-04-19T09:40:42Z</time></trkpt><trkpt lat="44.06808940879877" lon="11.386681868287072"><ele>702.0</ele><time>2026-04-19T09:40:43Z</time></trkpt><trkpt lat="44.068170062437574" lon="11.386567309365622"><ele>702.0</ele><time>2026-04-19T09:40:44Z</time></trkpt><trkpt lat="44.06822827760351" lon="11.386367474058984"><ele>702.0</ele><time>2026-04-19T09:40:45Z</time></trkpt><trkpt lat="44.06827050289559" lon="11.386119083947642"><ele>702.0</ele><time>2026-04-19T09:40:46Z</time></trkpt><trkpt lat="44.0683087392494" lon="11.385848828760505"><ele>697.6666666666666</ele><time>2026-04-19T09:40:47Z</time></trkpt><trkpt lat="44.06836868360554" lon="11.385568143957933"><ele>693.3333333333333</ele><time>2026-04-19T09:40:48Z</time></trkpt><trkpt lat="44.06844720088869" lon="11.385287688193051"><ele>689.0</ele><time>2026-04-19T09:40:48.999Z</time></trkpt><trkpt lat="44.06851894331794" lon="11.385030522007796"><ele>689.0</ele><time>2026-04-19T09:40:49.999Z</time></trkpt><trkpt lat="44.068577514694795" lon="11.384777771531445"><ele>689.0</ele><time>2026-04-19T09:40:50.999Z</time></trkpt><trkpt lat="44.06860540230125" lon="11.384507534117837"><ele>689.0</ele><time>2026-04-19T09:40:51.999Z</time></trkpt><trkpt lat="44.068634367185425" lon="11.384228224766032"><ele>690.0</ele><time>2026-04-19T09:40:52.999Z</time></trkpt><trkpt lat="44.06866020672691" lon="11.383988482067053"><ele>691.0</ele><time>2026-04-19T09:40:53.999Z</time></trkpt><trkpt lat="44.068670324978704" lon="11.383784030021092"><ele>692.0</ele><time>2026-04-19T09:40:54.999Z</time></trkpt><trkpt lat="44.06866715091544" lon="11.38359655902193"><ele>692.0</ele><time>2026-04-19T09:40:55.999Z</time></trkpt><trkpt lat="44.06869323873964" lon="11.38344794514275"><ele>692.0</ele><time>2026-04-19T09:40:56.999Z</time></trkpt><trkpt lat="44.06872697604937" lon="11.383322129006583"><ele>692.0</ele><time>2026-04-19T09:40:57.999Z</time></trkpt><trkpt lat="44.06879886733441" lon="11.38321544523999"><ele>692.0</ele><time>2026-04-19T09:40:58.999Z</time></trkpt><trkpt lat="44.068887698251174" lon="11.383111081110597"><ele>692.0</ele><time>2026-04-19T09:40:59.999Z</time></trkpt><trkpt lat="44.06900326587855" lon="11.383102106722163"><ele>692.6666666666666</ele><time>2026-04-19T09:41:00.999Z</time></trkpt><trkpt lat="44.06911281489104" lon="11.383195456944426"><ele>693.3333333333334</ele><time>2026-04-19T09:41:01.999Z</time></trkpt><trkpt lat="44.06925757514526" lon="11.383303994079988"><ele>694.0</ele><time>2026-04-19T09:41:02.999Z</time></trkpt><trkpt lat="44.06941834952295" lon="11.383429229339749"><ele>694.0</ele><time>2026-04-19T09:41:03.999Z</time></trkpt><trkpt lat="44.06957884582169" lon="11.38352050943502"><ele>694.0</ele><time>2026-04-19T09:41:04.999Z</time></trkpt><trkpt lat="44.06971894783662" lon="11.383572132090613"><ele>694.0</ele><time>2026-04-19T09:41:05.999Z</time></trkpt><trkpt lat="44.06984068517087" lon="11.383616162237045"><ele>694.0</ele><time>2026-04-19T09:41:06.999Z</time></trkpt><trkpt lat="44.069955531003046" lon="11.383700117636511"><ele>694.6666666666667</ele><time>2026-04-19T09:41:07.999Z</time></trkpt><trkpt lat="44.070048813111164" lon="11.383865369179118"><ele>695.3333333333334</ele><time>2026-04-19T09:41:08.999Z</time></trkpt><trkpt lat="44.07012379345679" lon="11.384091893661479"><ele>696.0</ele><time>2026-04-19T09:41:09.999Z</time></trkpt><trkpt lat="44.07017617918619" lon="11.38435556503127"><ele>696.0</ele><time>2026-04-19T09:41:10.999Z</time></trkpt><trkpt lat="44.070228919302565" lon="11.384615515200679"><ele>696.0</ele><time>2026-04-19T09:41:11.999Z</time></trkpt><trkpt lat="44.07031738643879" lon="11.384872471590866"><ele>696.0</ele><time>2026-04-19T09:41:12.999Z</time></trkpt><trkpt lat="44.07041026119649" lon="11.385142910231586"><ele>694.3333333333334</ele><time>2026-04-19T09:41:13.999Z</time></trkpt><trkpt lat="44.07048447660196" lon="11.385381643192574"><ele>692.6666666666667</ele><time>2026-04-19T09:41:14.999Z</time></trkpt><trkpt lat="44.070579000366244" lon="11.385606222833934"><ele>691.0</ele><time>2026-04-19T09:41:15.999Z</time></trkpt><trkpt lat="44.070718317433325" lon="11.385821892759981"><ele>697.0</ele><time>2026-04-19T09:41:16.999Z</time></trkpt><trkpt lat="44.07087292967387" lon="11.386028621354727"><ele>703.0</ele><time>2026-04-19T09:41:17.999Z</time></trkpt><trkpt lat="44.07102141031341" lon="11.38619536259836"><ele>709.0</ele><time>2026-04-19T09:41:18.999Z</time></trkpt><trkpt lat="44.07116402566035" lon="11.386329387143315"><ele>707.5</ele><time>2026-04-19T09:41:19.999Z</time></trkpt><trkpt lat="44.0712898966776" lon="11.386434784163198"><ele>706.0</ele><time>2026-04-19T09:41:20.999Z</time></trkpt><trkpt lat="44.07139861908194" lon="11.386502443343396"><ele>704.5</ele><time>2026-04-19T09:41:21.999Z</time></trkpt><trkpt lat="44.07152390660051" lon="11.386518288605252"><ele>703.0</ele><time>2026-04-19T09:41:22.999Z</time></trkpt><trkpt lat="44.07166004631168" lon="11.386452162849281"><ele>709.6666666666667</ele><time>2026-04-19T09:41:23.999Z</time></trkpt><trkpt lat="44.071788138914336" lon="11.386326386608824"><ele>716.3333333333334</ele><time>2026-04-19T09:41:24.999Z</time></trkpt><trkpt lat="44.07190031996926" lon="11.386109563612017"><ele>723.0</ele><time>2026-04-19T09:41:25.999Z</time></trkpt><trkpt lat="44.072009985660614" lon="11.385990603896301"><ele>723.0</ele><time>2026-04-19T09:41:26.999Z</time></trkpt><trkpt lat="44.07209742788461" lon="11.385916481058814"><ele>723.0</ele><time>2026-04-19T09:41:27.999Z</time></trkpt><trkpt lat="44.072195532932156" lon="11.385933833454343"><ele>723.0</ele><time>2026-04-19T09:41:28.999Z</time></trkpt><trkpt lat="44.072301622195894" lon="11.386015519470762"><ele>723.0</ele><time>2026-04-19T09:41:29.999Z</time></trkpt><trkpt lat="44.07241292689147" lon="11.386170556642906"><ele>722.0</ele><time>2026-04-19T09:41:30.999Z</time></trkpt><trkpt lat="44.07254725976162" lon="11.386343937353308"><ele>721.0</ele><time>2026-04-19T09:41:31.999Z</time></trkpt><trkpt lat="44.0727121734018" lon="11.386484185411492"><ele>720.0</ele><time>2026-04-19T09:41:32.999Z</time></trkpt><trkpt lat="44.07286349226593" lon="11.38660657303766"><ele>720.0</ele><time>2026-04-19T09:41:33.999Z</time></trkpt><trkpt lat="44.0729912618903" lon="11.386709610859159"><ele>720.0</ele><time>2026-04-19T09:41:34.999Z</time></trkpt><trkpt lat="44.07309627177697" lon="11.386805025470617"><ele>720.0</ele><time>2026-04-19T09:41:35.999Z</time></trkpt><trkpt lat="44.07318953380523" lon="11.386882569022733"><ele>720.0</ele><time>2026-04-19T09:41:36.999Z</time></trkpt><trkpt lat="44.073278756800384" lon="11.386899547325742"><ele>716.25</ele><time>2026-04-19T09:41:37.999Z</time></trkpt><trkpt lat="44.07335533139581" lon="11.386831979823777"><ele>712.5</ele><time>2026-04-19T09:41:38.999Z</time></trkpt><trkpt lat="44.0733916269432" lon="11.386700985624904"><ele>708.75</ele><time>2026-04-19T09:41:39.999Z</time></trkpt><trkpt lat="44.07337747377842" lon="11.386538349958784"><ele>705.0</ele><time>2026-04-19T09:41:40.999Z</time></trkpt><trkpt lat="44.0733137108314" lon="11.386359785563345"><ele>703.6666666666666</ele><time>2026-04-19T09:41:41.999Z</time></trkpt><trkpt lat="44.073268082687754" lon="11.386158335220097"><ele>702.3333333333333</ele><time>2026-04-19T09:41:42.999Z</time></trkpt><trkpt lat="44.07325660809915" lon="11.385968909708952"><ele>701.0</ele><time>2026-04-19T09:41:43.999Z</time></trkpt><trkpt lat="44.07333011707975" lon="11.385753882116282"><ele>701.0</ele><time>2026-04-19T09:41:44.999Z</time></trkpt><trkpt lat="44.07338367662549" lon="11.385525442072941"><ele>701.0</ele><time>2026-04-19T09:41:45.999Z</time></trkpt><trkpt lat="44.07342907004615" lon="11.385357288389525"><ele>701.0</ele><time>2026-04-19T09:41:46.999Z</time></trkpt><trkpt lat="44.07350552503849" lon="11.385232055620255"><ele>701.0</ele><time>2026-04-19T09:41:47.999Z</time></trkpt><trkpt lat="44.07360137496078" lon="11.385160322449595"><ele>703.5</ele><time>2026-04-19T09:41:48.999Z</time></trkpt><trkpt lat="44.07371413493814" lon="11.385159706005252"><ele>706.0</ele><time>2026-04-19T09:41:49.999Z</time></trkpt><trkpt lat="44.07383579227158" lon="11.385235252671336"><ele>708.5</ele><time>2026-04-19T09:41:50.999Z</time></trkpt><trkpt lat="44.07395008000304" lon="11.38533711561515"><ele>711.0</ele><time>2026-04-19T09:41:51.999Z</time></trkpt><trkpt lat="44.07404208618648" lon="11.38539554528692"><ele>706.25</ele><time>2026-04-19T09:41:52.999Z</time></trkpt><trkpt lat="44.074118474591" lon="11.385433638684047"><ele>701.5</ele><time>2026-04-19T09:41:53.999Z</time></trkpt><trkpt lat="44.074257304821316" lon="11.38531387892434"><ele>696.75</ele><time>2026-04-19T09:41:54.999Z</time></trkpt><trkpt lat="44.0743071702599" lon="11.385182658931072"><ele>692.0</ele><time>2026-04-19T09:41:55.999Z</time></trkpt><trkpt lat="44.07434362225292" lon="11.385010125793558"><ele>692.0</ele><time>2026-04-19T09:41:56.999Z</time></trkpt><trkpt lat="44.07433867886196" lon="11.384816958982384"><ele>692.0</ele><time>2026-04-19T09:41:57.999Z</time></trkpt><trkpt lat="44.07432526077931" lon="11.384640695906278"><ele>692.0</ele><time>2026-04-19T09:41:58.999Z</time></trkpt><trkpt lat="44.074389888321456" lon="11.38451337351536"><ele>692.0</ele><time>2026-04-19T09:41:59.999Z</time></trkpt><trkpt lat="44.07450338286621" lon="11.384376262260977"><ele>696.6666666666666</ele><time>2026-04-19T09:42:00.999Z</time></trkpt><trkpt lat="44.07464703669733" lon="11.384182184374648"><ele>701.3333333333334</ele><time>2026-04-19T09:42:01.999Z</time></trkpt><trkpt lat="44.07476816171535" lon="11.384021556804058"><ele>706.0</ele><time>2026-04-19T09:42:02.999Z</time></trkpt><trkpt lat="44.07487089455425" lon="11.383934040978646"><ele>699.5</ele><time>2026-04-19T09:42:03.999Z</time></trkpt><trkpt lat="44.07497034548577" lon="11.38395033298879"><ele>693.0</ele><time>2026-04-19T09:42:04.999Z</time></trkpt><trkpt lat="44.075126295198075" lon="11.383972331285669"><ele>686.5</ele><time>2026-04-19T09:42:05.999Z</time></trkpt><trkpt lat="44.07530387043835" lon="11.383967089317206"><ele>680.0</ele><time>2026-04-19T09:42:06.999Z</time></trkpt><trkpt lat="44.07545352814299" lon="11.383901979523403"><ele>681.3333333333333</ele><time>2026-04-19T09:42:07.999Z</time></trkpt><trkpt lat="44.07558840290251" lon="11.383836494364186"><ele>682.6666666666666</ele><time>2026-04-19T09:42:08.999Z</time></trkpt><trkpt lat="44.07576068076972" lon="11.38363143785747"><ele>684.0</ele><time>2026-04-19T09:42:09.999Z</time></trkpt><trkpt lat="44.075881343332576" lon="11.3835133172636"><ele>684.0</ele><time>2026-04-19T09:42:10.999Z</time></trkpt><trkpt lat="44.075961970414646" lon="11.383405131447876"><ele>684.0</ele><time>2026-04-19T09:42:11.999Z</time></trkpt><trkpt lat="44.07604487982161" lon="11.383369337679799"><ele>684.0</ele><time>2026-04-19T09:42:12.999Z</time></trkpt><trkpt lat="44.076144192541825" lon="11.383400449199346"><ele>684.0</ele><time>2026-04-19T09:42:13.999Z</time></trkpt><trkpt lat="44.07628376051577" lon="11.383480849563112"><ele>684.0</ele><time>2026-04-19T09:42:14.999Z</time></trkpt><trkpt lat="44.076458161478236" lon="11.38358504144723"><ele>684.0</ele><time>2026-04-19T09:42:15.999Z</time></trkpt><trkpt lat="44.07661855840842" lon="11.383658099374724"><ele>684.0</ele><time>2026-04-19T09:42:16.999Z</time></trkpt><trkpt lat="44.07677598848044" lon="11.383710950593544"><ele>684.25</ele><time>2026-04-19T09:42:17.999Z</time></trkpt><trkpt lat="44.07692413763931" lon="11.383736906933365"><ele>684.5</ele><time>2026-04-19T09:42:18.999Z</time></trkpt><trkpt lat="44.077042048098754" lon="11.383680508035143"><ele>684.75</ele><time>2026-04-19T09:42:19.999Z</time></trkpt><trkpt lat="44.07717558302714" lon="11.383565270580998"><ele>685.0</ele><time>2026-04-19T09:42:20.999Z</time></trkpt><trkpt lat="44.07730264430131" lon="11.383443985349466"><ele>682.75</ele><time>2026-04-19T09:42:22Z</time></trkpt><trkpt lat="44.07745921953542" lon="11.383326900756808"><ele>680.5</ele><time>2026-04-19T09:42:23Z</time></trkpt><trkpt lat="44.07758019293946" lon="11.383241341253404"><ele>678.25</ele><time>2026-04-19T09:42:24Z</time></trkpt><trkpt lat="44.07767528221149" lon="11.383115387701206"><ele>676.0</ele><time>2026-04-19T09:42:25Z</time></trkpt><trkpt lat="44.07773836642841" lon="11.382971263452657"><ele>676.0</ele><time>2026-04-19T09:42:26Z</time></trkpt><trkpt lat="44.07770950360402" lon="11.382726999896644"><ele>676.0</ele><time>2026-04-19T09:42:27Z</time></trkpt><trkpt lat="44.077735285171336" lon="11.382442951871536"><ele>676.0</ele><time>2026-04-19T09:42:28Z</time></trkpt><trkpt lat="44.07779648550204" lon="11.382212585628809"><ele>680.6666666666667</ele><time>2026-04-19T09:42:29Z</time></trkpt><trkpt lat="44.07788561939864" lon="11.382032561386383"><ele>685.3333333333334</ele><time>2026-04-19T09:42:30Z</time></trkpt><trkpt lat="44.07798716295864" lon="11.381829056009803"><ele>690.0</ele><time>2026-04-19T09:42:31Z</time></trkpt><trkpt lat="44.07811743565099" lon="11.381647909070857"><ele>690.0</ele><time>2026-04-19T09:42:32Z</time></trkpt><trkpt lat="44.07822823710293" lon="11.381433047557357"><ele>690.0</ele><time>2026-04-19T09:42:33Z</time></trkpt><trkpt lat="44.07834296950199" lon="11.381247884346532"><ele>690.0</ele><time>2026-04-19T09:42:34Z</time></trkpt><trkpt lat="44.078463572642185" lon="11.381080449416565"><ele>681.6666666666666</ele><time>2026-04-19T09:42:35Z</time></trkpt><trkpt lat="44.07857345416309" lon="11.380904100205607"><ele>673.3333333333333</ele><time>2026-04-19T09:42:36Z</time></trkpt><trkpt lat="44.078679122545715" lon="11.380749070307004"><ele>665.0</ele><time>2026-04-19T09:42:37Z</time></trkpt><trkpt lat="44.07880166570089" lon="11.380614415750614"><ele>665.0</ele><time>2026-04-19T09:42:38Z</time></trkpt><trkpt lat="44.078950352657394" lon="11.380535728353967"><ele>665.0</ele><time>2026-04-19T09:42:39Z</time></trkpt><trkpt lat="44.079109709476285" lon="11.380482781562423"><ele>665.0</ele><time>2026-04-19T09:42:40Z</time></trkpt><trkpt lat="44.07926886438012" lon="11.380431949738004"><ele>663.6666666666666</ele><time>2026-04-19T09:42:41Z</time></trkpt><trkpt lat="44.07941045805745" lon="11.380344604922483"><ele>662.3333333333334</ele><time>2026-04-19T09:42:42Z</time></trkpt><trkpt lat="44.07954304158837" lon="11.380243323298489"><ele>661.0</ele><time>2026-04-19T09:42:43Z</time></trkpt><trkpt lat="44.079672789198575" lon="11.380083482033614"><ele>661.0</ele><time>2026-04-19T09:42:44Z</time></trkpt><trkpt lat="44.079790222298755" lon="11.379926740512099"><ele>661.0</ele><time>2026-04-19T09:42:45Z</time></trkpt><trkpt lat="44.07992837817187" lon="11.379735268818157"><ele>661.0</ele><time>2026-04-19T09:42:46Z</time></trkpt><trkpt lat="44.08003575274114" lon="11.37956703758279"><ele>657.0</ele><time>2026-04-19T09:42:47Z</time></trkpt><trkpt lat="44.08012789979057" lon="11.379401145957692"><ele>653.0</ele><time>2026-04-19T09:42:48Z</time></trkpt><trkpt lat="44.08020539720922" lon="11.379264554871803"><ele>649.0</ele><time>2026-04-19T09:42:49Z</time></trkpt><trkpt lat="44.08026164745616" lon="11.379143770988115"><ele>645.0</ele><time>2026-04-19T09:42:50Z</time></trkpt><trkpt lat="44.080335068112" lon="11.379094932944962"><ele>645.0</ele><time>2026-04-19T09:42:51Z</time></trkpt><trkpt lat="44.08039446791221" lon="11.379048754428956"><ele>645.0</ele><time>2026-04-19T09:42:52Z</time></trkpt><trkpt lat="44.08046482348978" lon="11.379147946984707"><ele>645.0</ele><time>2026-04-19T09:42:53Z</time></trkpt><trkpt lat="44.08049857744342" lon="11.37927672458285"><ele>645.0</ele><time>2026-04-19T09:42:54Z</time></trkpt><trkpt lat="44.0804821520527" lon="11.379425715975556"><ele>645.0</ele><time>2026-04-19T09:42:55Z</time></trkpt><trkpt lat="44.08040542341524" lon="11.379531362426103"><ele>643.75</ele><time>2026-04-19T09:42:56Z</time></trkpt><trkpt lat="44.08031095324407" lon="11.379709349162745"><ele>642.5</ele><time>2026-04-19T09:42:57Z</time></trkpt><trkpt lat="44.08026275141742" lon="11.37988380543329"><ele>641.25</ele><time>2026-04-19T09:42:58Z</time></trkpt><trkpt lat="44.08023865437668" lon="11.380058925677783"><ele>640.0</ele><time>2026-04-19T09:42:59Z</time></trkpt><trkpt lat="44.080271706220316" lon="11.380219215404694"><ele>640.0</ele><time>2026-04-19T09:43:00Z</time></trkpt><trkpt lat="44.080358077179184" lon="11.380368873852388"><ele>640.0</ele><time>2026-04-19T09:43:01Z</time></trkpt><trkpt lat="44.08049315500745" lon="11.380521759048015"><ele>640.0</ele><time>2026-04-19T09:43:02Z</time></trkpt><trkpt lat="44.08063375847516" lon="11.380684636128699"><ele>639.25</ele><time>2026-04-19T09:43:03Z</time></trkpt><trkpt lat="44.08075264925945" lon="11.380824282702322"><ele>638.5</ele><time>2026-04-19T09:43:04Z</time></trkpt><trkpt lat="44.08085001022229" lon="11.380966740207805"><ele>637.75</ele><time>2026-04-19T09:43:05Z</time></trkpt><trkpt lat="44.08089440156269" lon="11.381157219173858"><ele>637.0</ele><time>2026-04-19T09:43:06Z</time></trkpt><trkpt lat="44.08090451050982" lon="11.381349539495718"><ele>631.6666666666667</ele><time>2026-04-19T09:43:07Z</time></trkpt><trkpt lat="44.08090217537963" lon="11.381585666498072"><ele>626.3333333333334</ele><time>2026-04-19T09:43:08Z</time></trkpt><trkpt lat="44.08087774244467" lon="11.381852427348543"><ele>621.0</ele><time>2026-04-19T09:43:09Z</time></trkpt><trkpt lat="44.08082725172824" lon="11.38211899648254"><ele>620.3333333333334</ele><time>2026-04-19T09:43:10Z</time></trkpt><trkpt lat="44.080757437639775" lon="11.382348855020602"><ele>619.6666666666667</ele><time>2026-04-19T09:43:10.999Z</time></trkpt><trkpt lat="44.080667000099645" lon="11.38255810446051"><ele>619.0</ele><time>2026-04-19T09:43:11.999Z</time></trkpt><trkpt lat="44.08060701429485" lon="11.382725871531985"><ele>619.0</ele><time>2026-04-19T09:43:12.999Z</time></trkpt><trkpt lat="44.08056414846965" lon="11.382898059912671"><ele>619.0</ele><time>2026-04-19T09:43:13.999Z</time></trkpt><trkpt lat="44.08057597842278" lon="11.38309917319389"><ele>619.0</ele><time>2026-04-19T09:43:14.999Z</time></trkpt><trkpt lat="44.08063158257681" lon="11.383305972990941"><ele>619.0</ele><time>2026-04-19T09:43:15.999Z</time></trkpt><trkpt lat="44.080738585871586" lon="11.38347032110346"><ele>616.25</ele><time>2026-04-19T09:43:16.999Z</time></trkpt><trkpt lat="44.08083321344401" lon="11.383595749798994"><ele>613.5</ele><time>2026-04-19T09:43:17.999Z</time></trkpt><trkpt lat="44.08096056609048" lon="11.38364693887359"><ele>610.75</ele><time>2026-04-19T09:43:18.999Z</time></trkpt><trkpt lat="44.081115082205024" lon="11.383642159172217"><ele>608.0</ele><time>2026-04-19T09:43:19.999Z</time></trkpt><trkpt lat="44.08129195543577" lon="11.383578122601444"><ele>608.0</ele><time>2026-04-19T09:43:20.999Z</time></trkpt><trkpt lat="44.081446009371966" lon="11.383466919882451"><ele>608.0</ele><time>2026-04-19T09:43:21.999Z</time></trkpt><trkpt lat="44.08155345263124" lon="11.383323628729332"><ele>608.0</ele><time>2026-04-19T09:43:22.999Z</time></trkpt><trkpt lat="44.08166663008402" lon="11.383249520661533"><ele>608.0</ele><time>2026-04-19T09:43:23.999Z</time></trkpt><trkpt lat="44.08177898299983" lon="11.383224437767467"><ele>607.0</ele><time>2026-04-19T09:43:24.999Z</time></trkpt><trkpt lat="44.081892047773636" lon="11.383272230390157"><ele>606.0</ele><time>2026-04-19T09:43:25.999Z</time></trkpt><trkpt lat="44.08199097621562" lon="11.3833997407149"><ele>605.0</ele><time>2026-04-19T09:43:26.999Z</time></trkpt><trkpt lat="44.08209689639232" lon="11.383559088562755"><ele>604.0</ele><time>2026-04-19T09:43:27.999Z</time></trkpt><trkpt lat="44.082199726350204" lon="11.383692379820307"><ele>604.0</ele><time>2026-04-19T09:43:28.999Z</time></trkpt><trkpt lat="44.08233120345926" lon="11.383756212251392"><ele>604.0</ele><time>2026-04-19T09:43:29.999Z</time></trkpt><trkpt lat="44.082471857251925" lon="11.383733486918754"><ele>604.0</ele><time>2026-04-19T09:43:30.999Z</time></trkpt><trkpt lat="44.08260071529764" lon="11.383649690669019"><ele>604.0</ele><time>2026-04-19T09:43:31.999Z</time></trkpt><trkpt lat="44.08270804307764" lon="11.383494158470477"><ele>601.3333333333334</ele><time>2026-04-19T09:43:32.999Z</time></trkpt><trkpt lat="44.08277539940369" lon="11.383286998189805"><ele>598.6666666666666</ele><time>2026-04-19T09:43:33.999Z</time></trkpt><trkpt lat="44.082791119690604" lon="11.383057032962174"><ele>596.0</ele><time>2026-04-19T09:43:34.999Z</time></trkpt><trkpt lat="44.08280005536357" lon="11.382835433141901"><ele>594.0</ele><time>2026-04-19T09:43:35.999Z</time></trkpt><trkpt lat="44.08276121093171" lon="11.382639525739698"><ele>592.0</ele><time>2026-04-19T09:43:36.999Z</time></trkpt><trkpt lat="44.08266426329709" lon="11.382413477872582"><ele>590.0</ele><time>2026-04-19T09:43:37.999Z</time></trkpt><trkpt lat="44.08253486727423" lon="11.382229163216175"><ele>592.25</ele><time>2026-04-19T09:43:38.999Z</time></trkpt><trkpt lat="44.08240005958574" lon="11.382095210304106"><ele>594.5</ele><time>2026-04-19T09:43:39.999Z</time></trkpt><trkpt lat="44.082326851944636" lon="11.381928594503474"><ele>596.75</ele><time>2026-04-19T09:43:40.999Z</time></trkpt><trkpt lat="44.08226579746584" lon="11.381759089324508"><ele>599.0</ele><time>2026-04-19T09:43:41.999Z</time></trkpt><trkpt lat="44.08223734745995" lon="11.381555503335393"><ele>599.0</ele><time>2026-04-19T09:43:42.999Z</time></trkpt><trkpt lat="44.08226078408684" lon="11.38133162943919"><ele>599.0</ele><time>2026-04-19T09:43:43.999Z</time></trkpt><trkpt lat="44.08229729255504" lon="11.38106447696508"><ele>599.0</ele><time>2026-04-19T09:43:44.999Z</time></trkpt><trkpt lat="44.08233362615842" lon="11.38081623819565"><ele>599.0</ele><time>2026-04-19T09:43:45.999Z</time></trkpt><trkpt lat="44.08235437616329" lon="11.38059255354885"><ele>599.0</ele><time>2026-04-19T09:43:46.999Z</time></trkpt><trkpt lat="44.08240900307152" lon="11.380390619111488"><ele>599.0</ele><time>2026-04-19T09:43:47.999Z</time></trkpt><trkpt lat="44.08246684630786" lon="11.380188329388075"><ele>593.6666666666666</ele><time>2026-04-19T09:43:48.999Z</time></trkpt><trkpt lat="44.082564388670434" lon="11.38000770300006"><ele>588.3333333333334</ele><time>2026-04-19T09:43:49.999Z</time></trkpt><trkpt lat="44.08267967222769" lon="11.37984893343686"><ele>583.0</ele><time>2026-04-19T09:43:50.999Z</time></trkpt><trkpt lat="44.08281035908258" lon="11.379724428949425"><ele>584.0</ele><time>2026-04-19T09:43:51.999Z</time></trkpt><trkpt lat="44.08294639417954" lon="11.379637057618341"><ele>585.0</ele><time>2026-04-19T09:43:52.999Z</time></trkpt><trkpt lat="44.08308518325474" lon="11.379580241477571"><ele>586.0</ele><time>2026-04-19T09:43:53.999Z</time></trkpt><trkpt lat="44.08322404918784" lon="11.379602928424536"><ele>587.0</ele><time>2026-04-19T09:43:54.999Z</time></trkpt><trkpt lat="44.083362005590466" lon="11.379668872778112"><ele>581.6666666666666</ele><time>2026-04-19T09:43:55.999Z</time></trkpt><trkpt lat="44.083509615862525" lon="11.379761019534582"><ele>576.3333333333334</ele><time>2026-04-19T09:43:56.999Z</time></trkpt><trkpt lat="44.08364663641703" lon="11.379908521592249"><ele>571.0</ele><time>2026-04-19T09:43:57.999Z</time></trkpt><trkpt lat="44.083772246841114" lon="11.380040392300065"><ele>571.0</ele><time>2026-04-19T09:43:58.999Z</time></trkpt><trkpt lat="44.08388641779041" lon="11.3801439342705"><ele>571.0</ele><time>2026-04-19T09:43:59.999Z</time></trkpt><trkpt lat="44.08400069315183" lon="11.380201862658195"><ele>571.0</ele><time>2026-04-19T09:44:00.999Z</time></trkpt><trkpt lat="44.084134088056544" lon="11.380188358400469"><ele>571.0</ele><time>2026-04-19T09:44:01.999Z</time></trkpt><trkpt lat="44.08426875690003" lon="11.380085516015034"><ele>570.6666666666667</ele><time>2026-04-19T09:44:02.999Z</time></trkpt><trkpt lat="44.08440272419071" lon="11.379941956585165"><ele>570.3333333333334</ele><time>2026-04-19T09:44:03.999Z</time></trkpt><trkpt lat="44.08453295203799" lon="11.37977032920677"><ele>570.0</ele><time>2026-04-19T09:44:04.999Z</time></trkpt><trkpt lat="44.08464250768756" lon="11.379542935141668"><ele>570.0</ele><time>2026-04-19T09:44:05.999Z</time></trkpt><trkpt lat="44.084782073108535" lon="11.37933475979636"><ele>570.0</ele><time>2026-04-19T09:44:06.999Z</time></trkpt><trkpt lat="44.08490317411195" lon="11.379132903787449"><ele>570.0</ele><time>2026-04-19T09:44:07.999Z</time></trkpt><trkpt lat="44.085031194373194" lon="11.378949997130723"><ele>567.6666666666666</ele><time>2026-04-19T09:44:08.999Z</time></trkpt><trkpt lat="44.0851788542144" lon="11.378808938166255"><ele>565.3333333333333</ele><time>2026-04-19T09:44:09.999Z</time></trkpt><trkpt lat="44.0853606477029" lon="11.378706895908076"><ele>563.0</ele><time>2026-04-19T09:44:10.999Z</time></trkpt><trkpt lat="44.08557017104153" lon="11.37862419273428"><ele>559.6666666666666</ele><time>2026-04-19T09:44:11.999Z</time></trkpt><trkpt lat="44.08579186492332" lon="11.378545396969892"><ele>556.3333333333334</ele><time>2026-04-19T09:44:12.999Z</time></trkpt><trkpt lat="44.08599829286961" lon="11.378472022073078"><ele>553.0</ele><time>2026-04-19T09:44:13.999Z</time></trkpt><trkpt lat="44.086185499182065" lon="11.378384857983653"><ele>553.0</ele><time>2026-04-19T09:44:14.999Z</time></trkpt><trkpt lat="44.086372442963054" lon="11.378348447433886"><ele>553.0</ele><time>2026-04-19T09:44:15.999Z</time></trkpt><trkpt lat="44.0865542531147" lon="11.37832468627252"><ele>553.0</ele><time>2026-04-19T09:44:16.999Z</time></trkpt><trkpt lat="44.08673719952619" lon="11.378356397162415"><ele>551.6666666666667</ele><time>2026-04-19T09:44:17.999Z</time></trkpt><trkpt lat="44.0869269012672" lon="11.378440186768717"><ele>550.3333333333334</ele><time>2026-04-19T09:44:18.999Z</time></trkpt><trkpt lat="44.087137796216254" lon="11.378530147837738"><ele>549.0</ele><time>2026-04-19T09:44:19.999Z</time></trkpt><trkpt lat="44.08734648307277" lon="11.378667013695651"><ele>547.0</ele><time>2026-04-19T09:44:20.999Z</time></trkpt><trkpt lat="44.087533760107775" lon="11.378791942785284"><ele>545.0</ele><time>2026-04-19T09:44:21.999Z</time></trkpt><trkpt lat="44.087698438273115" lon="11.378902539455275"><ele>543.0</ele><time>2026-04-19T09:44:22.999Z</time></trkpt><trkpt lat="44.08785481431796" lon="11.37897779501096"><ele>541.0</ele><time>2026-04-19T09:44:23.999Z</time></trkpt><trkpt lat="44.088022683913515" lon="11.37900137414603"><ele>539.0</ele><time>2026-04-19T09:44:24.999Z</time></trkpt><trkpt lat="44.08820343942714" lon="11.378975699459511"><ele>537.0</ele><time>2026-04-19T09:44:25.999Z</time></trkpt><trkpt lat="44.08840417442529" lon="11.378882754773818"><ele>538.6666666666666</ele><time>2026-04-19T09:44:26.999Z</time></trkpt><trkpt lat="44.08859435794352" lon="11.378761567457522"><ele>540.3333333333333</ele><time>2026-04-19T09:44:28Z</time></trkpt><trkpt lat="44.08877108427025" lon="11.378705596956863"><ele>542.0</ele><time>2026-04-19T09:44:29Z</time></trkpt><trkpt lat="44.088911943452494" lon="11.378650765505629"><ele>542.0</ele><time>2026-04-19T09:44:30Z</time></trkpt><trkpt lat="44.08902434669024" lon="11.378623222517556"><ele>542.0</ele><time>2026-04-19T09:44:31Z</time></trkpt><trkpt lat="44.089123723527" lon="11.378656086792963"><ele>542.0</ele><time>2026-04-19T09:44:32Z</time></trkpt><trkpt lat="44.089229134292374" lon="11.378795877031816"><ele>542.0</ele><time>2026-04-19T09:44:33Z</time></trkpt><trkpt lat="44.08932785064384" lon="11.379026771137351"><ele>537.6666666666666</ele><time>2026-04-19T09:44:34Z</time></trkpt><trkpt lat="44.08941847308893" lon="11.379251529441602"><ele>533.3333333333334</ele><time>2026-04-19T09:44:35Z</time></trkpt><trkpt lat="44.08952492909598" lon="11.379418916664324"><ele>529.0</ele><time>2026-04-19T09:44:36Z</time></trkpt><trkpt lat="44.08968644180117" lon="11.379498197622611"><ele>529.0</ele><time>2026-04-19T09:44:37Z</time></trkpt><trkpt lat="44.08988032874071" lon="11.37955870228549"><ele>529.0</ele><time>2026-04-19T09:44:38Z</time></trkpt><trkpt lat="44.0900388366948" lon="11.379639286184414"><ele>529.0</ele><time>2026-04-19T09:44:39Z</time></trkpt><trkpt lat="44.09016170579778" lon="11.379734131747995"><ele>526.0</ele><time>2026-04-19T09:44:40Z</time></trkpt><trkpt lat="44.09023362084873" lon="11.379895033143242"><ele>523.0</ele><time>2026-04-19T09:44:41Z</time></trkpt><trkpt lat="44.090286845460895" lon="11.380105305866826"><ele>520.0</ele><time>2026-04-19T09:44:42Z</time></trkpt><trkpt lat="44.09036743117139" lon="11.380349260579482"><ele>516.6666666666667</ele><time>2026-04-19T09:44:43Z</time></trkpt><trkpt lat="44.09047893844826" lon="11.380612245993666"><ele>513.3333333333334</ele><time>2026-04-19T09:44:44Z</time></trkpt><trkpt lat="44.09060775787067" lon="11.380834193044894"><ele>510.0</ele><time>2026-04-19T09:44:45Z</time></trkpt><trkpt lat="44.09072907907207" lon="11.381023154088032"><ele>508.66666666666663</ele><time>2026-04-19T09:44:46Z</time></trkpt><trkpt lat="44.09083611428717" lon="11.38119628772427"><ele>507.3333333333333</ele><time>2026-04-19T09:44:47Z</time></trkpt><trkpt lat="44.09093598682683" lon="11.381355334049958"><ele>506.0</ele><time>2026-04-19T09:44:48Z</time></trkpt><trkpt lat="44.091046902784846" lon="11.38148475949031"><ele>506.0</ele><time>2026-04-19T09:44:49Z</time></trkpt><trkpt lat="44.09115911706157" lon="11.381583068258676"><ele>506.0</ele><time>2026-04-19T09:44:50Z</time></trkpt><trkpt lat="44.09128004651577" lon="11.381646495813056"><ele>506.0</ele><time>2026-04-19T09:44:51Z</time></trkpt><trkpt lat="44.09140335017173" lon="11.381664348653828"><ele>506.0</ele><time>2026-04-19T09:44:52Z</time></trkpt><trkpt lat="44.091524675504445" lon="11.381670684075836"><ele>507.25</ele><time>2026-04-19T09:44:53Z</time></trkpt><trkpt lat="44.09164298955808" lon="11.381690592289926"><ele>508.5</ele><time>2026-04-19T09:44:54Z</time></trkpt><trkpt lat="44.09175455311043" lon="11.381731404086661"><ele>509.75</ele><time>2026-04-19T09:44:55Z</time></trkpt><trkpt lat="44.091857209464905" lon="11.381804147521391"><ele>511.0</ele><time>2026-04-19T09:44:56Z</time></trkpt><trkpt lat="44.091947838616" lon="11.38189943223959"><ele>511.0</ele><time>2026-04-19T09:44:57Z</time></trkpt><trkpt lat="44.0920187757635" lon="11.382021055150272"><ele>511.0</ele><time>2026-04-19T09:44:58Z</time></trkpt><trkpt lat="44.09204862953793" lon="11.382147601782357"><ele>511.0</ele><time>2026-04-19T09:44:59Z</time></trkpt><trkpt lat="44.09204330751287" lon="11.382270688374563"><ele>511.0</ele><time>2026-04-19T09:45:00Z</time></trkpt><trkpt lat="44.09201519723342" lon="11.382392642971187"><ele>511.0</ele><time>2026-04-19T09:45:01Z</time></trkpt><trkpt lat="44.09200036191845" lon="11.382512976321301"><ele>509.4</ele><time>2026-04-19T09:45:02Z</time></trkpt><trkpt lat="44.09200769744482" lon="11.38262793728713"><ele>507.8</ele><time>2026-04-19T09:45:03Z</time></trkpt><trkpt lat="44.09203708529818" lon="11.38273295242615"><ele>506.19999999999993</ele><time>2026-04-19T09:45:04Z</time></trkpt><trkpt lat="44.092095603285124" lon="11.382820931569245"><ele>504.59999999999997</ele><time>2026-04-19T09:45:05Z</time></trkpt><trkpt lat="44.09218970485454" lon="11.382890381648325"><ele>503.0</ele><time>2026-04-19T09:45:06Z</time></trkpt><trkpt lat="44.092301585673844" lon="11.38289720332374"><ele>503.0</ele><time>2026-04-19T09:45:07Z</time></trkpt><trkpt lat="44.09240277678527" lon="11.38286147476648"><ele>502.99999999999994</ele><time>2026-04-19T09:45:08Z</time></trkpt><trkpt lat="44.09249944680119" lon="11.382851371336589"><ele>502.99999999999994</ele><time>2026-04-19T09:45:09Z</time></trkpt><trkpt lat="44.092613793494316" lon="11.38292360608933"><ele>503.0</ele><time>2026-04-19T09:45:10Z</time></trkpt><trkpt lat="44.09268577919518" lon="11.383024836517846"><ele>503.0</ele><time>2026-04-19T09:45:11Z</time></trkpt><trkpt lat="44.09272804665724" lon="11.383171181002718"><ele>502.0</ele><time>2026-04-19T09:45:12Z</time></trkpt><trkpt lat="44.09277372115791" lon="11.383296647142215"><ele>500.99999999999994</ele><time>2026-04-19T09:45:13Z</time></trkpt><trkpt lat="44.09283919554375" lon="11.383375027777968"><ele>499.99999999999994</ele><time>2026-04-19T09:45:14Z</time></trkpt><trkpt lat="44.09293062445313" lon="11.383415238457028"><ele>499.0</ele><time>2026-04-19T09:45:15Z</time></trkpt><trkpt lat="44.0930277257802" lon="11.383409470078044"><ele>498.0</ele><time>2026-04-19T09:45:16Z</time></trkpt><trkpt lat="44.093118138658575" lon="11.383373408506392"><ele>498.0</ele><time>2026-04-19T09:45:17Z</time></trkpt><trkpt lat="44.09320067663583" lon="11.383309462887548"><ele>498.0</ele><time>2026-04-19T09:45:18Z</time></trkpt><trkpt lat="44.093291058293204" lon="11.38322889028858"><ele>498.0</ele><time>2026-04-19T09:45:19Z</time></trkpt><trkpt lat="44.0934065774225" lon="11.383145427704164"><ele>498.0</ele><time>2026-04-19T09:45:20Z</time></trkpt><trkpt lat="44.09353172608903" lon="11.383055937987262"><ele>500.0</ele><time>2026-04-19T09:45:21Z</time></trkpt><trkpt lat="44.093655190613035" lon="11.382919296213124"><ele>502.0</ele><time>2026-04-19T09:45:22Z</time></trkpt><trkpt lat="44.093752262981305" lon="11.382729822869791"><ele>504.0</ele><time>2026-04-19T09:45:23Z</time></trkpt><trkpt lat="44.093821375553155" lon="11.382540528526697"><ele>504.0</ele><time>2026-04-19T09:45:24Z</time></trkpt><trkpt lat="44.09388618255296" lon="11.382357314350479"><ele>504.0</ele><time>2026-04-19T09:45:25Z</time></trkpt><trkpt lat="44.093954217710674" lon="11.38219908330636"><ele>504.0</ele><time>2026-04-19T09:45:25.999Z</time></trkpt><trkpt lat="44.094046759587584" lon="11.382068548871512"><ele>504.0</ele><time>2026-04-19T09:45:26.999Z</time></trkpt><trkpt lat="44.09414946113752" lon="11.3819672898345"><ele>502.5</ele><time>2026-04-19T09:45:27.999Z</time></trkpt><trkpt lat="44.0942661484592" lon="11.381962485177676"><ele>501.0</ele><time>2026-04-19T09:45:28.999Z</time></trkpt><trkpt lat="44.09436793570538" lon="11.382044614532193"><ele>499.5</ele><time>2026-04-19T09:45:29.999Z</time></trkpt><trkpt lat="44.09447921684495" lon="11.382194768407889"><ele>498.0</ele><time>2026-04-19T09:45:30.999Z</time></trkpt><trkpt lat="44.09462210520644" lon="11.382286466093971"><ele>494.0</ele><time>2026-04-19T09:45:31.999Z</time></trkpt><trkpt lat="44.09479307495614" lon="11.382390093205718"><ele>490.0</ele><time>2026-04-19T09:45:32.999Z</time></trkpt><trkpt lat="44.09495789484697" lon="11.382467726593562"><ele>486.0</ele><time>2026-04-19T09:45:33.999Z</time></trkpt><trkpt lat="44.09511468070972" lon="11.382534374536176"><ele>484.25</ele><time>2026-04-19T09:45:34.999Z</time></trkpt><trkpt lat="44.0952616959162" lon="11.382557114866636"><ele>482.5</ele><time>2026-04-19T09:45:35.999Z</time></trkpt><trkpt lat="44.09538520401417" lon="11.382545380996199"><ele>480.75</ele><time>2026-04-19T09:45:36.999Z</time></trkpt><trkpt lat="44.09549247255787" lon="11.382471579947676"><ele>479.0</ele><time>2026-04-19T09:45:37.999Z</time></trkpt><trkpt lat="44.095591208116716" lon="11.382337689040643"><ele>478.0</ele><time>2026-04-19T09:45:38.999Z</time></trkpt><trkpt lat="44.095655730171856" lon="11.382120791890005"><ele>477.0</ele><time>2026-04-19T09:45:39.999Z</time></trkpt><trkpt lat="44.09571962984001" lon="11.381912404544547"><ele>476.0</ele><time>2026-04-19T09:45:40.999Z</time></trkpt><trkpt lat="44.09577263783228" lon="11.381781731523036"><ele>475.0</ele><time>2026-04-19T09:45:41.999Z</time></trkpt><trkpt lat="44.095872170386436" lon="11.381619994352109"><ele>475.0</ele><time>2026-04-19T09:45:42.999Z</time></trkpt><trkpt lat="44.09599572644242" lon="11.381481134401607"><ele>475.0</ele><time>2026-04-19T09:45:43.999Z</time></trkpt><trkpt lat="44.09615738859017" lon="11.381374999029136"><ele>475.0</ele><time>2026-04-19T09:45:44.999Z</time></trkpt><trkpt lat="44.09635200345126" lon="11.381245610028813"><ele>472.33333333333337</ele><time>2026-04-19T09:45:45.999Z</time></trkpt><trkpt lat="44.096528610014154" lon="11.381126039835253"><ele>469.66666666666663</ele><time>2026-04-19T09:45:46.999Z</time></trkpt><trkpt lat="44.0966932316385" lon="11.381013894024338"><ele>467.0</ele><time>2026-04-19T09:45:47.999Z</time></trkpt><trkpt lat="44.09684100906796" lon="11.380913223209133"><ele>467.0</ele><time>2026-04-19T09:45:48.999Z</time></trkpt><trkpt lat="44.096986457845105" lon="11.380827845560384"><ele>467.0</ele><time>2026-04-19T09:45:49.999Z</time></trkpt><trkpt lat="44.09714018877746" lon="11.380801131869438"><ele>467.0</ele><time>2026-04-19T09:45:50.999Z</time></trkpt><trkpt lat="44.09732500240294" lon="11.380820686349933"><ele>463.66666666666663</ele><time>2026-04-19T09:45:51.999Z</time></trkpt><trkpt lat="44.09751359035278" lon="11.380857687372337"><ele>460.33333333333337</ele><time>2026-04-19T09:45:52.999Z</time></trkpt><trkpt lat="44.09769322190362" lon="11.38088198906567"><ele>457.0</ele><time>2026-04-19T09:45:53.999Z</time></trkpt><trkpt lat="44.097862403607124" lon="11.380907905095528"><ele>457.0</ele><time>2026-04-19T09:45:54.999Z</time></trkpt><trkpt lat="44.09802828935528" lon="11.380881765711617"><ele>457.0</ele><time>2026-04-19T09:45:55.999Z</time></trkpt><trkpt lat="44.09820111042798" lon="11.380815282740397"><ele>457.0</ele><time>2026-04-19T09:45:56.999Z</time></trkpt><trkpt lat="44.098382934618044" lon="11.380713863264688"><ele>458.0</ele><time>2026-04-19T09:45:57.999Z</time></trkpt><trkpt lat="44.098569741091495" lon="11.38059625984977"><ele>459.0</ele><time>2026-04-19T09:45:58.999Z</time></trkpt><trkpt lat="44.09875762390045" lon="11.380479620075441"><ele>460.0</ele><time>2026-04-19T09:45:59.999Z</time></trkpt><trkpt lat="44.09895206286878" lon="11.380362637059113"><ele>455.6666666666667</ele><time>2026-04-19T09:46:00.999Z</time></trkpt><trkpt lat="44.09914689787018" lon="11.380237847786002"><ele>451.33333333333337</ele><time>2026-04-19T09:46:01.999Z</time></trkpt><trkpt lat="44.09934664261416" lon="11.38010549568169"><ele>447.0</ele><time>2026-04-19T09:46:02.999Z</time></trkpt><trkpt lat="44.099543965372696" lon="11.379976396918746"><ele>447.0</ele><time>2026-04-19T09:46:03.999Z</time></trkpt><trkpt lat="44.09973479549998" lon="11.379846741183648"><ele>447.0</ele><time>2026-04-19T09:46:04.999Z</time></trkpt><trkpt lat="44.09992167346485" lon="11.37972234446619"><ele>447.0</ele><time>2026-04-19T09:46:05.999Z</time></trkpt><trkpt lat="44.10011194827835" lon="11.379593946048736"><ele>448.0</ele><time>2026-04-19T09:46:06.999Z</time></trkpt><trkpt lat="44.1002831715516" lon="11.37948503832621"><ele>449.0</ele><time>2026-04-19T09:46:07.999Z</time></trkpt><trkpt lat="44.10047691030074" lon="11.37932664299514"><ele>450.0</ele><time>2026-04-19T09:46:08.999Z</time></trkpt><trkpt lat="44.10065974781945" lon="11.379208251162215"><ele>447.66666666666663</ele><time>2026-04-19T09:46:09.999Z</time></trkpt><trkpt lat="44.10083360840222" lon="11.379084444639597"><ele>445.3333333333333</ele><time>2026-04-19T09:46:10.999Z</time></trkpt><trkpt lat="44.10099838630272" lon="11.378964746049158"><ele>443.0</ele><time>2026-04-19T09:46:11.999Z</time></trkpt><trkpt lat="44.101159241636815" lon="11.378852477078397"><ele>442.3333333333333</ele><time>2026-04-19T09:46:12.999Z</time></trkpt><trkpt lat="44.10134614149178" lon="11.37873936286362"><ele>441.66666666666663</ele><time>2026-04-19T09:46:13.999Z</time></trkpt><trkpt lat="44.101485426823025" lon="11.378629732936036"><ele>441.0</ele><time>2026-04-19T09:46:14.999Z</time></trkpt><trkpt lat="44.101644359522865" lon="11.37851636968694"><ele>441.0</ele><time>2026-04-19T09:46:15.999Z</time></trkpt><trkpt lat="44.101808783880614" lon="11.37840677011992"><ele>441.0</ele><time>2026-04-19T09:46:16.999Z</time></trkpt><trkpt lat="44.10197117997567" lon="11.378304703950702"><ele>441.0</ele><time>2026-04-19T09:46:17.999Z</time></trkpt><trkpt lat="44.10212453147124" lon="11.378210495712075"><ele>441.0</ele><time>2026-04-19T09:46:18.999Z</time></trkpt><trkpt lat="44.10228215938585" lon="11.378163814080263"><ele>441.0</ele><time>2026-04-19T09:46:19.999Z</time></trkpt><trkpt lat="44.10244906469486" lon="11.378096832076148"><ele>441.0</ele><time>2026-04-19T09:46:20.999Z</time></trkpt><trkpt lat="44.102623159381416" lon="11.37807638729109"><ele>440.66666666666663</ele><time>2026-04-19T09:46:21.999Z</time></trkpt><trkpt lat="44.10279151868918" lon="11.378069110825587"><ele>440.3333333333333</ele><time>2026-04-19T09:46:22.999Z</time></trkpt><trkpt lat="44.10296231406243" lon="11.378070611865123"><ele>440.0</ele><time>2026-04-19T09:46:23.999Z</time></trkpt><trkpt lat="44.10314227113906" lon="11.378094301581827"><ele>439.66666666666663</ele><time>2026-04-19T09:46:24.999Z</time></trkpt><trkpt lat="44.10332897706177" lon="11.378129430238184"><ele>439.33333333333337</ele><time>2026-04-19T09:46:25.999Z</time></trkpt><trkpt lat="44.10352592089776" lon="11.378153164238048"><ele>439.0</ele><time>2026-04-19T09:46:26.999Z</time></trkpt><trkpt lat="44.10372282988624" lon="11.378175867176232"><ele>439.0</ele><time>2026-04-19T09:46:27.999Z</time></trkpt><trkpt lat="44.10393188118833" lon="11.378200303272491"><ele>439.0</ele><time>2026-04-19T09:46:28.999Z</time></trkpt><trkpt lat="44.10416121589839" lon="11.378254526946945"><ele>439.0</ele><time>2026-04-19T09:46:29.999Z</time></trkpt><trkpt lat="44.1044003135294" lon="11.37829064938326"><ele>439.0</ele><time>2026-04-19T09:46:30.999Z</time></trkpt><trkpt lat="44.104640882681736" lon="11.378325391951133"><ele>439.0</ele><time>2026-04-19T09:46:31.999Z</time></trkpt><trkpt lat="44.10487534982119" lon="11.37834545037925"><ele>438.6666666666667</ele><time>2026-04-19T09:46:32.999Z</time></trkpt><trkpt lat="44.10509475583584" lon="11.378389729428736"><ele>438.33333333333337</ele><time>2026-04-19T09:46:34Z</time></trkpt><trkpt lat="44.105303285739716" lon="11.378413182631842"><ele>438.0</ele><time>2026-04-19T09:46:35Z</time></trkpt><trkpt lat="44.105508512527535" lon="11.378438967947172"><ele>438.0</ele><time>2026-04-19T09:46:36Z</time></trkpt><trkpt lat="44.10571430790234" lon="11.378469820188338"><ele>438.0</ele><time>2026-04-19T09:46:37Z</time></trkpt><trkpt lat="44.105922525453515" lon="11.378502938955005"><ele>438.0</ele><time>2026-04-19T09:46:38Z</time></trkpt><trkpt lat="44.1061348550195" lon="11.378537060365467"><ele>437.33333333333337</ele><time>2026-04-19T09:46:39Z</time></trkpt><trkpt lat="44.106348827681934" lon="11.378579025345875"><ele>436.6666666666667</ele><time>2026-04-19T09:46:40Z</time></trkpt><trkpt lat="44.10656827696828" lon="11.37864398899048"><ele>436.0</ele><time>2026-04-19T09:46:41Z</time></trkpt><trkpt lat="44.1067918104916" lon="11.378729422343284"><ele>436.0</ele><time>2026-04-19T09:46:42Z</time></trkpt><trkpt lat="44.10701745784351" lon="11.378819115046367"><ele>436.0</ele><time>2026-04-19T09:46:43Z</time></trkpt><trkpt lat="44.107242311940404" lon="11.378921796924233"><ele>434.0</ele><time>2026-04-19T09:46:44Z</time></trkpt><trkpt lat="44.10745367650369" lon="11.379036016489817"><ele>432.0</ele><time>2026-04-19T09:46:45Z</time></trkpt><trkpt lat="44.107658837967115" lon="11.379137771861732"><ele>430.0</ele><time>2026-04-19T09:46:46Z</time></trkpt><trkpt lat="44.10785038063197" lon="11.379231189137926"><ele>430.0</ele><time>2026-04-19T09:46:47Z</time></trkpt><trkpt lat="44.10803683612274" lon="11.37932201433121"><ele>430.0</ele><time>2026-04-19T09:46:48Z</time></trkpt><trkpt lat="44.10822709816349" lon="11.379410883354982"><ele>430.0</ele><time>2026-04-19T09:46:49Z</time></trkpt><trkpt lat="44.10842373993295" lon="11.379502302117219"><ele>429.0</ele><time>2026-04-19T09:46:50Z</time></trkpt><trkpt lat="44.10862608591469" lon="11.379595937091826"><ele>428.0</ele><time>2026-04-19T09:46:51Z</time></trkpt><trkpt lat="44.108816319832385" lon="11.379689140167791"><ele>427.0</ele><time>2026-04-19T09:46:52Z</time></trkpt><trkpt lat="44.10899468677349" lon="11.379776474373799"><ele>427.6666666666667</ele><time>2026-04-19T09:46:53Z</time></trkpt><trkpt lat="44.10916535741011" lon="11.37985761349164"><ele>428.33333333333337</ele><time>2026-04-19T09:46:54Z</time></trkpt><trkpt lat="44.10933130024901" lon="11.379939077027652"><ele>429.0</ele><time>2026-04-19T09:46:55Z</time></trkpt><trkpt lat="44.109490191177116" lon="11.380020120905245"><ele>429.0</ele><time>2026-04-19T09:46:56Z</time></trkpt><trkpt lat="44.10964311578057" lon="11.380088030190649"><ele>429.0</ele><time>2026-04-19T09:46:57Z</time></trkpt><trkpt lat="44.10980242226963" lon="11.380130879950183"><ele>429.0</ele><time>2026-04-19T09:46:58Z</time></trkpt><trkpt lat="44.10998048292432" lon="11.380125684191269"><ele>430.0</ele><time>2026-04-19T09:46:59Z</time></trkpt><trkpt lat="44.11017900110047" lon="11.380062085921674"><ele>431.0</ele><time>2026-04-19T09:47:00Z</time></trkpt><trkpt lat="44.110380137810445" lon="11.379983608123336"><ele>432.0</ele><time>2026-04-19T09:47:01Z</time></trkpt><trkpt lat="44.11057298814387" lon="11.37989688574376"><ele>430.66666666666663</ele><time>2026-04-19T09:47:02Z</time></trkpt><trkpt lat="44.11076127888414" lon="11.379858078925922"><ele>429.3333333333333</ele><time>2026-04-19T09:47:03Z</time></trkpt><trkpt lat="44.110932555345315" lon="11.37977868815348"><ele>428.0</ele><time>2026-04-19T09:47:04Z</time></trkpt><trkpt lat="44.11110210881787" lon="11.379725994892034"><ele>428.0</ele><time>2026-04-19T09:47:05Z</time></trkpt><trkpt lat="44.111270982949755" lon="11.379691916222443"><ele>428.0</ele><time>2026-04-19T09:47:06Z</time></trkpt><trkpt lat="44.11141983157325" lon="11.379621749976064"><ele>428.0</ele><time>2026-04-19T09:47:07Z</time></trkpt><trkpt lat="44.1115768919832" lon="11.379611387620708"><ele>427.3333333333333</ele><time>2026-04-19T09:47:08Z</time></trkpt><trkpt lat="44.1117436318891" lon="11.379643063280591"><ele>426.66666666666663</ele><time>2026-04-19T09:47:09Z</time></trkpt><trkpt lat="44.11192505041218" lon="11.379720778452853"><ele>426.0</ele><time>2026-04-19T09:47:10Z</time></trkpt><trkpt lat="44.11211265708573" lon="11.379844137484564"><ele>426.0</ele><time>2026-04-19T09:47:11Z</time></trkpt><trkpt lat="44.112296845124334" lon="11.379965410524585"><ele>426.0</ele><time>2026-04-19T09:47:12Z</time></trkpt><trkpt lat="44.112475919111645" lon="11.380065667039927"><ele>426.0</ele><time>2026-04-19T09:47:13Z</time></trkpt><trkpt lat="44.11265019657393" lon="11.380162081069171"><ele>426.66666666666663</ele><time>2026-04-19T09:47:14Z</time></trkpt><trkpt lat="44.112814514281645" lon="11.380250524568003"><ele>427.3333333333333</ele><time>2026-04-19T09:47:15Z</time></trkpt><trkpt lat="44.11297622678973" lon="11.380333627663022"><ele>428.0</ele><time>2026-04-19T09:47:16Z</time></trkpt><trkpt lat="44.11314585390497" lon="11.38042286456759"><ele>426.3333333333333</ele><time>2026-04-19T09:47:17Z</time></trkpt><trkpt lat="44.1133112825194" lon="11.38052288789424"><ele>424.66666666666663</ele><time>2026-04-19T09:47:18Z</time></trkpt><trkpt lat="44.113475508543566" lon="11.380622174375992"><ele>423.0</ele><time>2026-04-19T09:47:19Z</time></trkpt><trkpt lat="44.1136338765898" lon="11.380711525843022"><ele>423.0</ele><time>2026-04-19T09:47:20Z</time></trkpt><trkpt lat="44.11378328884084" lon="11.380809398326596"><ele>423.0</ele><time>2026-04-19T09:47:21Z</time></trkpt><trkpt lat="44.113940199350886" lon="11.38089166349825"><ele>423.0</ele><time>2026-04-19T09:47:22Z</time></trkpt><trkpt lat="44.114089401077074" lon="11.380935129717894"><ele>424.33333333333337</ele><time>2026-04-19T09:47:23Z</time></trkpt><trkpt lat="44.114249997547134" lon="11.380929987980775"><ele>425.6666666666667</ele><time>2026-04-19T09:47:24Z</time></trkpt><trkpt lat="44.11441231094136" lon="11.380855142337122"><ele>427.0</ele><time>2026-04-19T09:47:24.999Z</time></trkpt><trkpt lat="44.11457870737971" lon="11.380739675119003"><ele>427.0</ele><time>2026-04-19T09:47:25.999Z</time></trkpt><trkpt lat="44.11473399942706" lon="11.38057333820597"><ele>427.0</ele><time>2026-04-19T09:47:26.999Z</time></trkpt><trkpt lat="44.1148787940602" lon="11.38040621014443"><ele>427.0</ele><time>2026-04-19T09:47:27.999Z</time></trkpt><trkpt lat="44.115019889196184" lon="11.38028321605009"><ele>426.5</ele><time>2026-04-19T09:47:28.999Z</time></trkpt><trkpt lat="44.11515353023008" lon="11.380197334945098"><ele>426.0</ele><time>2026-04-19T09:47:29.999Z</time></trkpt><trkpt lat="44.11528249598549" lon="11.380147376770017"><ele>425.5</ele><time>2026-04-19T09:47:30.999Z</time></trkpt><trkpt lat="44.115406099472374" lon="11.380140554874226"><ele>425.0</ele><time>2026-04-19T09:47:31.999Z</time></trkpt><trkpt lat="44.11552521666154" lon="11.380175549231254"><ele>425.0</ele><time>2026-04-19T09:47:32.999Z</time></trkpt><trkpt lat="44.11563821870134" lon="11.380210486560694"><ele>425.0</ele><time>2026-04-19T09:47:33.999Z</time></trkpt><trkpt lat="44.11576496221958" lon="11.380232616562177"><ele>425.0</ele><time>2026-04-19T09:47:34.999Z</time></trkpt><trkpt lat="44.115911598864486" lon="11.38021354317394"><ele>425.0</ele><time>2026-04-19T09:47:35.999Z</time></trkpt><trkpt lat="44.11607155038934" lon="11.380150692346241"><ele>423.5</ele><time>2026-04-19T09:47:36.999Z</time></trkpt><trkpt lat="44.1162267005849" lon="11.380081740821115"><ele>422.0</ele><time>2026-04-19T09:47:37.999Z</time></trkpt><trkpt lat="44.116365098243335" lon="11.38002986792728"><ele>420.5</ele><time>2026-04-19T09:47:38.999Z</time></trkpt><trkpt lat="44.11649157053207" lon="11.379986074271507"><ele>419.0</ele><time>2026-04-19T09:47:39.999Z</time></trkpt><trkpt lat="44.11660858232839" lon="11.379948519680362"><ele>418.79999999999995</ele><time>2026-04-19T09:47:40.999Z</time></trkpt><trkpt lat="44.116718280945115" lon="11.379908106618048"><ele>418.59999999999997</ele><time>2026-04-19T09:47:41.999Z</time></trkpt><trkpt lat="44.1168136356961" lon="11.379874980090005"><ele>418.4</ele><time>2026-04-19T09:47:42.999Z</time></trkpt><trkpt lat="44.11691354811634" lon="11.379841477283742"><ele>418.2</ele><time>2026-04-19T09:47:43.999Z</time></trkpt><trkpt lat="44.11700944416997" lon="11.379813627553053"><ele>418.0</ele><time>2026-04-19T09:47:44.999Z</time></trkpt><trkpt lat="44.11708759170489" lon="11.379794795863157"><ele>418.0</ele><time>2026-04-19T09:47:45.999Z</time></trkpt><trkpt lat="44.11718891504027" lon="11.379756362862842"><ele>418.0</ele><time>2026-04-19T09:47:47.999Z</time></trkpt><trkpt lat="44.11726663782788" lon="11.379721626176929"><ele>418.0</ele><time>2026-04-19T09:47:49.999Z</time></trkpt><trkpt lat="44.117339755297856" lon="11.37965612068464"><ele>418.0</ele><time>2026-04-19T09:47:51.999Z</time></trkpt><trkpt lat="44.11738811216723" lon="11.379556884905504"><ele>418.0</ele><time>2026-04-19T09:47:53.999Z</time></trkpt><trkpt lat="44.117391137037544" lon="11.379405067359532"><ele>418.00000000000006</ele><time>2026-04-19T09:47:55.999Z</time></trkpt><trkpt lat="44.1173825988983" lon="11.379317428374222"><ele>418.0</ele><time>2026-04-19T09:47:56.999Z</time></trkpt><trkpt lat="44.117370572674545" lon="11.379225931066964"><ele>418.0</ele><time>2026-04-19T09:47:57.999Z</time></trkpt><trkpt lat="44.11735600916944" lon="11.379134625245374"><ele>418.0</ele><time>2026-04-19T09:47:58.999Z</time></trkpt><trkpt lat="44.11734387378049" lon="11.37904287487348"><ele>418.00000000000006</ele><time>2026-04-19T09:47:59.999Z</time></trkpt><trkpt lat="44.11731726903065" lon="11.378874082532011"><ele>418.0</ele><time>2026-04-19T09:48:01.999Z</time></trkpt><trkpt lat="44.117305272737674" lon="11.378779857729763"><ele>418.59999999999997</ele><time>2026-04-19T09:48:02.999Z</time></trkpt><trkpt lat="44.11728575840699" lon="11.378627543294831"><ele>419.2</ele><time>2026-04-19T09:48:04.999Z</time></trkpt><trkpt lat="44.11726964591981" lon="11.378507282353217"><ele>419.8</ele><time>2026-04-19T09:48:06.999Z</time></trkpt><trkpt lat="44.117260035828465" lon="11.378375435565493"><ele>420.4</ele><time>2026-04-19T09:48:08.999Z</time></trkpt><trkpt lat="44.117260647316904" lon="11.378242590554494"><ele>421.0</ele><time>2026-04-19T09:48:10.999Z</time></trkpt><trkpt lat="44.11727852011136" lon="11.378123080114076"><ele>421.0</ele><time>2026-04-19T09:48:12.999Z</time></trkpt><trkpt lat="44.11728688853222" lon="11.377985366166168"><ele>421.0</ele><time>2026-04-19T09:48:14.999Z</time></trkpt><trkpt lat="44.11727598386765" lon="11.377881083719426"><ele>421.0</ele><time>2026-04-19T09:48:17.999Z</time></trkpt><trkpt lat="44.117246482936" lon="11.377742594686639"><ele>421.0</ele><time>2026-04-19T09:48:56Z</time></trkpt><trkpt lat="44.11722619236536" lon="11.377640802471806"><ele>421.0</ele><time>2026-04-19T09:48:57Z</time></trkpt><trkpt lat="44.117200176111986" lon="11.377510904929801"><ele>421.0</ele><time>2026-04-19T09:48:58Z</time></trkpt><trkpt lat="44.11717653647352" lon="11.377370560818083"><ele>421.0</ele><time>2026-04-19T09:48:59Z</time></trkpt><trkpt lat="44.11716788095381" lon="11.377222173664403"><ele>421.0</ele><time>2026-04-19T09:49:00Z</time></trkpt><trkpt lat="44.11716416763105" lon="11.377070176871989"><ele>421.0</ele><time>2026-04-19T09:49:01Z</time></trkpt><trkpt lat="44.11711989560875" lon="11.37692623551684"><ele>421.0</ele><time>2026-04-19T09:49:02Z</time></trkpt><trkpt lat="44.11714115714521" lon="11.376745780049681"><ele>421.0</ele><time>2026-04-19T09:49:03Z</time></trkpt><trkpt lat="44.11719746430689" lon="11.376553082777336"><ele>421.0</ele><time>2026-04-19T09:49:04Z</time></trkpt><trkpt lat="44.11723837443777" lon="11.376377950908493"><ele>421.0</ele><time>2026-04-19T09:49:05Z</time></trkpt><trkpt lat="44.11727061663075" lon="11.376215767547354"><ele>421.0</ele><time>2026-04-19T09:49:06Z</time></trkpt><trkpt lat="44.11729862585518" lon="11.376061488042973"><ele>421.0</ele><time>2026-04-19T09:49:07Z</time></trkpt><trkpt lat="44.117322518787354" lon="11.375898303499088"><ele>421.0</ele><time>2026-04-19T09:49:08Z</time></trkpt><trkpt lat="44.117309767742825" lon="11.375718374712786"><ele>421.0</ele><time>2026-04-19T09:49:09Z</time></trkpt><trkpt lat="44.1172617628368" lon="11.375537246008573"><ele>421.0</ele><time>2026-04-19T09:49:10Z</time></trkpt><trkpt lat="44.117170307504914" lon="11.375365301867744"><ele>420.6666666666667</ele><time>2026-04-19T09:49:11Z</time></trkpt><trkpt lat="44.11704884220291" lon="11.375190892591272"><ele>420.33333333333337</ele><time>2026-04-19T09:49:12Z</time></trkpt><trkpt lat="44.11692693689587" lon="11.374992724730678"><ele>420.0</ele><time>2026-04-19T09:49:13Z</time></trkpt><trkpt lat="44.11682390224217" lon="11.374767312752088"><ele>420.33333333333337</ele><time>2026-04-19T09:49:14Z</time></trkpt><trkpt lat="44.11674535149834" lon="11.374528240157455"><ele>420.6666666666667</ele><time>2026-04-19T09:49:15Z</time></trkpt><trkpt lat="44.116702228645615" lon="11.374270449812117"><ele>421.0</ele><time>2026-04-19T09:49:16Z</time></trkpt><trkpt lat="44.11666700047206" lon="11.373998407015755"><ele>421.0</ele><time>2026-04-19T09:49:17Z</time></trkpt><trkpt lat="44.116655784900914" lon="11.37371783810327"><ele>421.0</ele><time>2026-04-19T09:49:18Z</time></trkpt><trkpt lat="44.116666319057984" lon="11.373432863772257"><ele>421.0</ele><time>2026-04-19T09:49:19Z</time></trkpt><trkpt lat="44.11669640821439" lon="11.37314287560203"><ele>421.33333333333337</ele><time>2026-04-19T09:49:20Z</time></trkpt><trkpt lat="44.116732152618255" lon="11.37285332192262"><ele>421.66666666666663</ele><time>2026-04-19T09:49:20.999Z</time></trkpt><trkpt lat="44.11676283485914" lon="11.372561439793321"><ele>422.0</ele><time>2026-04-19T09:49:21.999Z</time></trkpt><trkpt lat="44.116801811675835" lon="11.372273623708235"><ele>421.66666666666663</ele><time>2026-04-19T09:49:22.999Z</time></trkpt><trkpt lat="44.11683262998001" lon="11.371986619335985"><ele>421.33333333333337</ele><time>2026-04-19T09:49:23.999Z</time></trkpt><trkpt lat="44.116854502523964" lon="11.371693509779776"><ele>421.0</ele><time>2026-04-19T09:49:24.999Z</time></trkpt><trkpt lat="44.11685599783476" lon="11.371391497236676"><ele>421.33333333333337</ele><time>2026-04-19T09:49:25.999Z</time></trkpt><trkpt lat="44.11682885250755" lon="11.371089957609513"><ele>421.66666666666663</ele><time>2026-04-19T09:49:26.999Z</time></trkpt><trkpt lat="44.11679384736143" lon="11.370794300245889"><ele>422.0</ele><time>2026-04-19T09:49:27.999Z</time></trkpt><trkpt lat="44.11675674563543" lon="11.370498273317185"><ele>422.66666666666663</ele><time>2026-04-19T09:49:28.999Z</time></trkpt><trkpt lat="44.116713962134675" lon="11.370207972865124"><ele>423.33333333333337</ele><time>2026-04-19T09:49:29.999Z</time></trkpt><trkpt lat="44.116673912820374" lon="11.369928435188669"><ele>424.0</ele><time>2026-04-19T09:49:30.999Z</time></trkpt><trkpt lat="44.116640638568235" lon="11.369669095982964"><ele>424.0</ele><time>2026-04-19T09:49:31.999Z</time></trkpt><trkpt lat="44.116609188179744" lon="11.369392096530209"><ele>424.0</ele><time>2026-04-19T09:49:32.999Z</time></trkpt><trkpt lat="44.11657636397427" lon="11.369143530579588"><ele>424.0</ele><time>2026-04-19T09:49:33.999Z</time></trkpt><trkpt lat="44.116540990874874" lon="11.368901811026584"><ele>425.0</ele><time>2026-04-19T09:49:34.999Z</time></trkpt><trkpt lat="44.11650560663255" lon="11.368657149162583"><ele>426.0</ele><time>2026-04-19T09:49:35.999Z</time></trkpt><trkpt lat="44.11649872868395" lon="11.36840964596865"><ele>427.0</ele><time>2026-04-19T09:49:36.999Z</time></trkpt><trkpt lat="44.11647433665865" lon="11.368175382106074"><ele>427.0</ele><time>2026-04-19T09:49:37.999Z</time></trkpt><trkpt lat="44.116475246225754" lon="11.367950449172433"><ele>427.0</ele><time>2026-04-19T09:49:38.999Z</time></trkpt><trkpt lat="44.11648932256143" lon="11.36772749790381"><ele>427.0</ele><time>2026-04-19T09:49:39.999Z</time></trkpt><trkpt lat="44.11651177655222" lon="11.367484573023143"><ele>427.0</ele><time>2026-04-19T09:49:40.999Z</time></trkpt><trkpt lat="44.11654571146872" lon="11.367224651780004"><ele>427.0</ele><time>2026-04-19T09:49:41.999Z</time></trkpt><trkpt lat="44.11660941939293" lon="11.366973361243991"><ele>427.0</ele><time>2026-04-19T09:49:42.999Z</time></trkpt><trkpt lat="44.11666971947889" lon="11.36672537702641"><ele>427.0</ele><time>2026-04-19T09:49:43.999Z</time></trkpt><trkpt lat="44.1167179715944" lon="11.366482190169009"><ele>427.0</ele><time>2026-04-19T09:49:44.999Z</time></trkpt><trkpt lat="44.116778157962024" lon="11.366262199587231"><ele>427.0</ele><time>2026-04-19T09:49:45.999Z</time></trkpt><trkpt lat="44.116835678303815" lon="11.366044460583858"><ele>427.33333333333337</ele><time>2026-04-19T09:49:46.999Z</time></trkpt><trkpt lat="44.116889166616566" lon="11.365824061483506"><ele>427.66666666666663</ele><time>2026-04-19T09:49:47.999Z</time></trkpt><trkpt lat="44.116944496811186" lon="11.36559294271378"><ele>428.0</ele><time>2026-04-19T09:49:48.999Z</time></trkpt><trkpt lat="44.116994167456106" lon="11.365359939251048"><ele>428.3333333333333</ele><time>2026-04-19T09:49:49.999Z</time></trkpt><trkpt lat="44.11703119649676" lon="11.365120653153777"><ele>428.66666666666663</ele><time>2026-04-19T09:49:50.999Z</time></trkpt><trkpt lat="44.117063387726255" lon="11.364888137336173"><ele>429.0</ele><time>2026-04-19T09:49:51.999Z</time></trkpt><trkpt lat="44.11707536283799" lon="11.364644469354586"><ele>429.33333333333337</ele><time>2026-04-19T09:49:52.999Z</time></trkpt><trkpt lat="44.117073548038825" lon="11.36441140355615"><ele>429.6666666666667</ele><time>2026-04-19T09:49:53.999Z</time></trkpt><trkpt lat="44.1170719354886" lon="11.3641916225732"><ele>430.0</ele><time>2026-04-19T09:49:54.999Z</time></trkpt><trkpt lat="44.117075036656956" lon="11.363984667731799"><ele>430.0</ele><time>2026-04-19T09:49:55.999Z</time></trkpt><trkpt lat="44.11707877176853" lon="11.36379365607914"><ele>430.0</ele><time>2026-04-19T09:49:56.999Z</time></trkpt><trkpt lat="44.1170864800997" lon="11.363614858805514"><ele>430.0</ele><time>2026-04-19T09:49:57.999Z</time></trkpt><trkpt lat="44.11708060540143" lon="11.363449080428925"><ele>430.0</ele><time>2026-04-19T09:49:58.999Z</time></trkpt><trkpt lat="44.11707978694336" lon="11.363290293908074"><ele>430.0</ele><time>2026-04-19T09:49:59.999Z</time></trkpt><trkpt lat="44.11709459068587" lon="11.363134383298261"><ele>430.0</ele><time>2026-04-19T09:50:00.999Z</time></trkpt><trkpt lat="44.11714341597733" lon="11.362989208927553"><ele>430.0</ele><time>2026-04-19T09:50:01.999Z</time></trkpt><trkpt lat="44.11721224817086" lon="11.36287098670305"><ele>430.0</ele><time>2026-04-19T09:50:02.999Z</time></trkpt><trkpt lat="44.11730293599347" lon="11.362786104808722"><ele>430.0</ele><time>2026-04-19T09:50:03.999Z</time></trkpt><trkpt lat="44.1174196504519" lon="11.362726703249466"><ele>430.5</ele><time>2026-04-19T09:50:04.999Z</time></trkpt><trkpt lat="44.117543465849344" lon="11.362731288491444"><ele>431.0</ele><time>2026-04-19T09:50:05.999Z</time></trkpt><trkpt lat="44.11766902298306" lon="11.362689225306834"><ele>431.5</ele><time>2026-04-19T09:50:06.999Z</time></trkpt><trkpt lat="44.11781188772522" lon="11.362687089439001"><ele>432.0</ele><time>2026-04-19T09:50:07.999Z</time></trkpt><trkpt lat="44.11794636016363" lon="11.362656086356658"><ele>432.0</ele><time>2026-04-19T09:50:08.999Z</time></trkpt><trkpt lat="44.11806490717722" lon="11.362633670938182"><ele>432.00000000000006</ele><time>2026-04-19T09:50:09.999Z</time></trkpt><trkpt lat="44.11817084026307" lon="11.362634157809715"><ele>432.00000000000006</ele><time>2026-04-19T09:50:10.999Z</time></trkpt><trkpt lat="44.11826468897211" lon="11.362669585137526"><ele>432.0</ele><time>2026-04-19T09:50:11.999Z</time></trkpt><trkpt lat="44.11834563494361" lon="11.362678219690146"><ele>432.0</ele><time>2026-04-19T09:50:12.999Z</time></trkpt><trkpt lat="44.118410646481465" lon="11.362679218974536"><ele>432.25</ele><time>2026-04-19T09:50:13.999Z</time></trkpt><trkpt lat="44.11845795739776" lon="11.362584141190903"><ele>432.5</ele><time>2026-04-19T09:50:15.999Z</time></trkpt><trkpt lat="44.118412743188244" lon="11.362362754606666"><ele>432.75</ele><time>2026-04-19T09:50:17.999Z</time></trkpt><trkpt lat="44.11837194751387" lon="11.36224339968577"><ele>433.0</ele><time>2026-04-19T09:50:18.999Z</time></trkpt><trkpt lat="44.118306569613495" lon="11.36209403444106"><ele>434.5</ele><time>2026-04-19T09:50:19.999Z</time></trkpt><trkpt lat="44.11823139995485" lon="11.361907437464824"><ele>436.0</ele><time>2026-04-19T09:50:20.999Z</time></trkpt><trkpt lat="44.118156577381846" lon="11.361742625127762"><ele>437.5</ele><time>2026-04-19T09:50:21.999Z</time></trkpt><trkpt lat="44.11810520176749" lon="11.361606330340605"><ele>439.0</ele><time>2026-04-19T09:50:22.999Z</time></trkpt><trkpt lat="44.11808782940167" lon="11.361488785756189"><ele>440.0</ele><time>2026-04-19T09:50:23.999Z</time></trkpt><trkpt lat="44.11809884682657" lon="11.361360030762599"><ele>441.0</ele><time>2026-04-19T09:50:24.999Z</time></trkpt><trkpt lat="44.1182058472425" lon="11.361247930728505"><ele>442.0</ele><time>2026-04-19T09:50:25.999Z</time></trkpt><trkpt lat="44.11834123235189" lon="11.361076836030115"><ele>443.0</ele><time>2026-04-19T09:50:26.999Z</time></trkpt><trkpt lat="44.11848898084961" lon="11.36086474486731"><ele>443.0</ele><time>2026-04-19T09:50:27.999Z</time></trkpt><trkpt lat="44.11865190669098" lon="11.36065298856322"><ele>443.0</ele><time>2026-04-19T09:50:28.999Z</time></trkpt><trkpt lat="44.11881756256263" lon="11.360441806579534"><ele>443.0</ele><time>2026-04-19T09:50:29.999Z</time></trkpt><trkpt lat="44.11896295643061" lon="11.36027160964647"><ele>445.2</ele><time>2026-04-19T09:50:30.999Z</time></trkpt><trkpt lat="44.11906929917576" lon="11.360154903723235"><ele>447.4</ele><time>2026-04-19T09:50:31.999Z</time></trkpt><trkpt lat="44.119137324353964" lon="11.360063919264494"><ele>449.59999999999997</ele><time>2026-04-19T09:50:32.999Z</time></trkpt><trkpt lat="44.119163744930155" lon="11.359969446224776"><ele>451.79999999999995</ele><time>2026-04-19T09:50:33.999Z</time></trkpt><trkpt lat="44.11912762983158" lon="11.35986583446356"><ele>454.0</ele><time>2026-04-19T09:50:34.999Z</time></trkpt><trkpt lat="44.11905290768691" lon="11.359780882542823"><ele>456.0</ele><time>2026-04-19T09:50:35.999Z</time></trkpt><trkpt lat="44.11894401950274" lon="11.359771421410763"><ele>458.0</ele><time>2026-04-19T09:50:36.999Z</time></trkpt><trkpt lat="44.11879809875579" lon="11.359833089346594"><ele>460.0</ele><time>2026-04-19T09:50:37.999Z</time></trkpt><trkpt lat="44.118625903494234" lon="11.359883684191953"><ele>462.0</ele><time>2026-04-19T09:50:38.999Z</time></trkpt><trkpt lat="44.11843561660414" lon="11.359864002728418"><ele>462.0</ele><time>2026-04-19T09:50:39.999Z</time></trkpt><trkpt lat="44.118229402180944" lon="11.359816635468517"><ele>462.0</ele><time>2026-04-19T09:50:40.999Z</time></trkpt><trkpt lat="44.11799295240436" lon="11.359750872197758"><ele>469.5</ele><time>2026-04-19T09:50:41.999Z</time></trkpt><trkpt lat="44.117757863508714" lon="11.35966684203886"><ele>477.0</ele><time>2026-04-19T09:50:42.999Z</time></trkpt><trkpt lat="44.11751218686039" lon="11.35956948093551"><ele>474.0</ele><time>2026-04-19T09:50:43.999Z</time></trkpt><trkpt lat="44.117288007291094" lon="11.359478521451656"><ele>471.0</ele><time>2026-04-19T09:50:44.999Z</time></trkpt><trkpt lat="44.11710157897947" lon="11.35941108810847"><ele>468.0</ele><time>2026-04-19T09:50:46Z</time></trkpt><trkpt lat="44.116982478360335" lon="11.359305235481017"><ele>468.0</ele><time>2026-04-19T09:50:47Z</time></trkpt><trkpt lat="44.11690727752755" lon="11.359183023890301"><ele>468.0</ele><time>2026-04-19T09:50:48Z</time></trkpt><trkpt lat="44.116850168063856" lon="11.359002184806466"><ele>468.0</ele><time>2026-04-19T09:50:49Z</time></trkpt><trkpt lat="44.116759675169384" lon="11.358744456285033"><ele>472.0</ele><time>2026-04-19T09:50:50Z</time></trkpt><trkpt lat="44.116682205027175" lon="11.358450164481027"><ele>476.0</ele><time>2026-04-19T09:50:51Z</time></trkpt><trkpt lat="44.11661665530886" lon="11.35816231848846"><ele>480.0</ele><time>2026-04-19T09:50:52Z</time></trkpt><trkpt lat="44.11658254989862" lon="11.357849412665537"><ele>480.33333333333337</ele><time>2026-04-19T09:50:53Z</time></trkpt><trkpt lat="44.11653044952983" lon="11.357569022326144"><ele>480.6666666666667</ele><time>2026-04-19T09:50:54Z</time></trkpt><trkpt lat="44.116512493501425" lon="11.357273370176673"><ele>481.0</ele><time>2026-04-19T09:50:55Z</time></trkpt><trkpt lat="44.1165026351968" lon="11.356989723129974"><ele>481.0</ele><time>2026-04-19T09:50:56Z</time></trkpt><trkpt lat="44.11649076427959" lon="11.356766536344981"><ele>481.0</ele><time>2026-04-19T09:50:57Z</time></trkpt><trkpt lat="44.116552104634735" lon="11.356601390826894"><ele>481.0</ele><time>2026-04-19T09:50:58Z</time></trkpt><trkpt lat="44.116626204171695" lon="11.35645265048328"><ele>481.0</ele><time>2026-04-19T09:50:59Z</time></trkpt><trkpt lat="44.116647494636155" lon="11.356289035203403"><ele>483.6666666666667</ele><time>2026-04-19T09:51:00Z</time></trkpt><trkpt lat="44.116607428895385" lon="11.356097778509046"><ele>486.33333333333337</ele><time>2026-04-19T09:51:01Z</time></trkpt><trkpt lat="44.116495684255455" lon="11.35589901271916"><ele>489.0</ele><time>2026-04-19T09:51:02Z</time></trkpt><trkpt lat="44.116406477000474" lon="11.355668000637108"><ele>490.5</ele><time>2026-04-19T09:51:03Z</time></trkpt><trkpt lat="44.116369955422144" lon="11.355433331086227"><ele>492.0</ele><time>2026-04-19T09:51:04Z</time></trkpt><trkpt lat="44.116349024487015" lon="11.355242610316752"><ele>493.5</ele><time>2026-04-19T09:51:05Z</time></trkpt><trkpt lat="44.116358795319066" lon="11.355087944139413"><ele>495.0</ele><time>2026-04-19T09:51:06Z</time></trkpt><trkpt lat="44.11643658521475" lon="11.354920996866348"><ele>495.0</ele><time>2026-04-19T09:51:07Z</time></trkpt><trkpt lat="44.11654927280101" lon="11.354728547641587"><ele>495.0</ele><time>2026-04-19T09:51:08Z</time></trkpt><trkpt lat="44.11661159278999" lon="11.354489599542823"><ele>495.0</ele><time>2026-04-19T09:51:09Z</time></trkpt><trkpt lat="44.11664729834392" lon="11.354218211164175"><ele>499.5</ele><time>2026-04-19T09:51:09.999Z</time></trkpt><trkpt lat="44.11668671050738" lon="11.353999540758892"><ele>504.0</ele><time>2026-04-19T09:51:10.999Z</time></trkpt><trkpt lat="44.11674672790684" lon="11.353871005590861"><ele>508.5</ele><time>2026-04-19T09:51:11.999Z</time></trkpt><trkpt lat="44.11683830709339" lon="11.353822359165257"><ele>513.0</ele><time>2026-04-19T09:51:12.999Z</time></trkpt><trkpt lat="44.11692476496745" lon="11.353874729111647"><ele>513.0</ele><time>2026-04-19T09:51:13.999Z</time></trkpt><trkpt lat="44.117036024007824" lon="11.353899112657068"><ele>513.0</ele><time>2026-04-19T09:51:14.999Z</time></trkpt><trkpt lat="44.11717019864329" lon="11.353861579877172"><ele>513.0</ele><time>2026-04-19T09:51:15.999Z</time></trkpt><trkpt lat="44.11730776775667" lon="11.353810924861829"><ele>513.0</ele><time>2026-04-19T09:51:16.999Z</time></trkpt><trkpt lat="44.117432622654015" lon="11.35367490726773"><ele>516.0</ele><time>2026-04-19T09:51:17.999Z</time></trkpt><trkpt lat="44.117529614668854" lon="11.353489779192968"><ele>519.0</ele><time>2026-04-19T09:51:18.999Z</time></trkpt><trkpt lat="44.11760727668833" lon="11.35322662824404"><ele>522.0</ele><time>2026-04-19T09:51:19.999Z</time></trkpt><trkpt lat="44.11767140306107" lon="11.352932626682154"><ele>524.0</ele><time>2026-04-19T09:51:20.999Z</time></trkpt><trkpt lat="44.117705064009826" lon="11.352632139544763"><ele>526.0</ele><time>2026-04-19T09:51:21.999Z</time></trkpt><trkpt lat="44.11772780264896" lon="11.352380830664769"><ele>528.0</ele><time>2026-04-19T09:51:22.999Z</time></trkpt><trkpt lat="44.11772618870453" lon="11.352175954447375"><ele>529.8</ele><time>2026-04-19T09:51:23.999Z</time></trkpt><trkpt lat="44.11766440854233" lon="11.352021266910704"><ele>531.5999999999999</ele><time>2026-04-19T09:51:24.999Z</time></trkpt><trkpt lat="44.117563325011304" lon="11.351908104051356"><ele>533.4000000000001</ele><time>2026-04-19T09:51:25.999Z</time></trkpt><trkpt lat="44.11748348939315" lon="11.351809417259961"><ele>535.2</ele><time>2026-04-19T09:51:26.999Z</time></trkpt><trkpt lat="44.11745272369439" lon="11.351700532826662"><ele>537.0</ele><time>2026-04-19T09:51:27.999Z</time></trkpt><trkpt lat="44.117492827843655" lon="11.351556200762165"><ele>538.6666666666666</ele><time>2026-04-19T09:51:28.999Z</time></trkpt><trkpt lat="44.117546843791445" lon="11.351359183780094"><ele>540.3333333333333</ele><time>2026-04-19T09:51:29.999Z</time></trkpt><trkpt lat="44.117554704121844" lon="11.351138353159303"><ele>542.0</ele><time>2026-04-19T09:51:30.999Z</time></trkpt><trkpt lat="44.11752565521756" lon="11.350909998473076"><ele>542.0</ele><time>2026-04-19T09:51:31.999Z</time></trkpt><trkpt lat="44.1174387311862" lon="11.350630571998789"><ele>542.0</ele><time>2026-04-19T09:51:32.999Z</time></trkpt><trkpt lat="44.11737044955041" lon="11.350334420984948"><ele>542.0</ele><time>2026-04-19T09:51:33.999Z</time></trkpt><trkpt lat="44.11735498366852" lon="11.35002348256402"><ele>541.0</ele><time>2026-04-19T09:51:34.999Z</time></trkpt><trkpt lat="44.11735282677709" lon="11.349724961734248"><ele>540.0</ele><time>2026-04-19T09:51:35.999Z</time></trkpt><trkpt lat="44.117378694016104" lon="11.349437401669432"><ele>539.0</ele><time>2026-04-19T09:51:36.999Z</time></trkpt><trkpt lat="44.11739967501857" lon="11.349131679358415"><ele>539.0</ele><time>2026-04-19T09:51:37.999Z</time></trkpt><trkpt lat="44.1173991994013" lon="11.348839505928837"><ele>539.0</ele><time>2026-04-19T09:51:38.999Z</time></trkpt><trkpt lat="44.117386516353186" lon="11.348562980811527"><ele>539.0</ele><time>2026-04-19T09:51:39.999Z</time></trkpt><trkpt lat="44.11736966324259" lon="11.34830725776745"><ele>541.3333333333333</ele><time>2026-04-19T09:51:40.999Z</time></trkpt><trkpt lat="44.11735490357536" lon="11.348037308509488"><ele>543.6666666666666</ele><time>2026-04-19T09:51:41.999Z</time></trkpt><trkpt lat="44.11731940513881" lon="11.347746506931061"><ele>546.0</ele><time>2026-04-19T09:51:42.999Z</time></trkpt><trkpt lat="44.11723059682244" lon="11.347458681018681"><ele>549.0</ele><time>2026-04-19T09:51:43.999Z</time></trkpt><trkpt lat="44.11709104512194" lon="11.347209525427667"><ele>552.0</ele><time>2026-04-19T09:51:44.999Z</time></trkpt><trkpt lat="44.116981671859946" lon="11.346973309943184"><ele>555.0</ele><time>2026-04-19T09:51:45.999Z</time></trkpt><trkpt lat="44.116946300207196" lon="11.346729812574088"><ele>555.0</ele><time>2026-04-19T09:51:46.999Z</time></trkpt><trkpt lat="44.116935259945265" lon="11.346488703206505"><ele>555.0</ele><time>2026-04-19T09:51:47.999Z</time></trkpt><trkpt lat="44.11695246030392" lon="11.346247775635783"><ele>555.0</ele><time>2026-04-19T09:51:48.999Z</time></trkpt><trkpt lat="44.11700564564895" lon="11.345971065617157"><ele>556.0</ele><time>2026-04-19T09:51:49.999Z</time></trkpt><trkpt lat="44.11709542325158" lon="11.3456729049887"><ele>557.0</ele><time>2026-04-19T09:51:50.999Z</time></trkpt><trkpt lat="44.11717317337634" lon="11.345369817292877"><ele>559.0</ele><time>2026-04-19T09:51:51.999Z</time></trkpt><trkpt lat="44.117242803956614" lon="11.345098759082838"><ele>561.0</ele><time>2026-04-19T09:51:52.999Z</time></trkpt><trkpt lat="44.11727971439019" lon="11.344843515006394"><ele>563.0</ele><time>2026-04-19T09:51:53.999Z</time></trkpt><trkpt lat="44.117278468583656" lon="11.344611373468908"><ele>566.6666666666666</ele><time>2026-04-19T09:51:54.999Z</time></trkpt><trkpt lat="44.11723614805176" lon="11.34436847348306"><ele>570.3333333333334</ele><time>2026-04-19T09:51:55.999Z</time></trkpt><trkpt lat="44.117140254412085" lon="11.344152082364005"><ele>574.0</ele><time>2026-04-19T09:51:56.999Z</time></trkpt><trkpt lat="44.11702999275864" lon="11.343996328961923"><ele>576.0</ele><time>2026-04-19T09:51:57.999Z</time></trkpt><trkpt lat="44.11699776046485" lon="11.34380690217677"><ele>578.0</ele><time>2026-04-19T09:51:58.999Z</time></trkpt><trkpt lat="44.11701520225864" lon="11.34360988044259"><ele>580.0</ele><time>2026-04-19T09:51:59.999Z</time></trkpt><trkpt lat="44.11707094001741" lon="11.343380098338681"><ele>580.0</ele><time>2026-04-19T09:52:00.999Z</time></trkpt><trkpt lat="44.11716116229383" lon="11.343133838809292"><ele>580.0</ele><time>2026-04-19T09:52:01.999Z</time></trkpt><trkpt lat="44.11726710184186" lon="11.342893478388417"><ele>580.0</ele><time>2026-04-19T09:52:02.999Z</time></trkpt><trkpt lat="44.117364316430994" lon="11.34269085228928"><ele>582.0</ele><time>2026-04-19T09:52:03.999Z</time></trkpt><trkpt lat="44.11745659977248" lon="11.342500074528887"><ele>584.0</ele><time>2026-04-19T09:52:04.999Z</time></trkpt><trkpt lat="44.11760714171143" lon="11.342346331994984"><ele>586.0</ele><time>2026-04-19T09:52:05.999Z</time></trkpt><trkpt lat="44.117789239687944" lon="11.342179049493323"><ele>586.0</ele><time>2026-04-19T09:52:06.999Z</time></trkpt><trkpt lat="44.11796455253008" lon="11.342004643748831"><ele>586.0</ele><time>2026-04-19T09:52:07.999Z</time></trkpt><trkpt lat="44.11813079503252" lon="11.341861589635258"><ele>586.0</ele><time>2026-04-19T09:52:08.999Z</time></trkpt><trkpt lat="44.118277390664524" lon="11.34171228864969"><ele>586.6666666666667</ele><time>2026-04-19T09:52:09.999Z</time></trkpt><trkpt lat="44.11841234939257" lon="11.34153331009458"><ele>587.3333333333334</ele><time>2026-04-19T09:52:10.999Z</time></trkpt><trkpt lat="44.118552268926884" lon="11.341296331409556"><ele>588.0</ele><time>2026-04-19T09:52:11.999Z</time></trkpt><trkpt lat="44.118696536262604" lon="11.34101613198462"><ele>588.0</ele><time>2026-04-19T09:52:12.999Z</time></trkpt><trkpt lat="44.1188559528491" lon="11.340765057714968"><ele>588.0</ele><time>2026-04-19T09:52:13.999Z</time></trkpt><trkpt lat="44.119000160379166" lon="11.34053563024867"><ele>586.0</ele><time>2026-04-19T09:52:14.999Z</time></trkpt><trkpt lat="44.11912492938382" lon="11.340331524444235"><ele>584.0</ele><time>2026-04-19T09:52:15.999Z</time></trkpt><trkpt lat="44.11923357144169" lon="11.34015587090937"><ele>582.0</ele><time>2026-04-19T09:52:16.999Z</time></trkpt><trkpt lat="44.1193496204492" lon="11.340010050342828"><ele>582.0</ele><time>2026-04-19T09:52:17.999Z</time></trkpt><trkpt lat="44.11949310206434" lon="11.339939459524759"><ele>582.0</ele><time>2026-04-19T09:52:18.999Z</time></trkpt><trkpt lat="44.11967314618757" lon="11.339918868725265"><ele>582.0</ele><time>2026-04-19T09:52:19.999Z</time></trkpt><trkpt lat="44.119882622930504" lon="11.339913227827209"><ele>580.6666666666666</ele><time>2026-04-19T09:52:20.999Z</time></trkpt><trkpt lat="44.120104038781584" lon="11.339934245070753"><ele>579.3333333333333</ele><time>2026-04-19T09:52:21.999Z</time></trkpt><trkpt lat="44.120324401363405" lon="11.339950534835191"><ele>578.0</ele><time>2026-04-19T09:52:22.999Z</time></trkpt><trkpt lat="44.120560235112514" lon="11.339956990922317"><ele>577.5</ele><time>2026-04-19T09:52:23.999Z</time></trkpt><trkpt lat="44.12080619387317" lon="11.339920323261605"><ele>577.0</ele><time>2026-04-19T09:52:24.999Z</time></trkpt><trkpt lat="44.12106152234407" lon="11.339828803554473"><ele>574.0</ele><time>2026-04-19T09:52:25.999Z</time></trkpt><trkpt lat="44.121312028522226" lon="11.339712236328092"><ele>571.0</ele><time>2026-04-19T09:52:26.999Z</time></trkpt><trkpt lat="44.121527787442105" lon="11.339631928834871"><ele>573.0</ele><time>2026-04-19T09:52:27.999Z</time></trkpt><trkpt lat="44.121744710758875" lon="11.339573880077998"><ele>575.0</ele><time>2026-04-19T09:52:28.999Z</time></trkpt><trkpt lat="44.12194367374138" lon="11.339413087609982"><ele>575.0</ele><time>2026-04-19T09:52:29.999Z</time></trkpt><trkpt lat="44.122142576283586" lon="11.339239577568966"><ele>575.0</ele><time>2026-04-19T09:52:30.999Z</time></trkpt><trkpt lat="44.12232988389141" lon="11.339104746245544"><ele>575.0</ele><time>2026-04-19T09:52:31.999Z</time></trkpt><trkpt lat="44.122536416317885" lon="11.339020129113564"><ele>576.3333333333333</ele><time>2026-04-19T09:52:32.999Z</time></trkpt><trkpt lat="44.122758158372335" lon="11.338970469305245"><ele>577.6666666666666</ele><time>2026-04-19T09:52:33.999Z</time></trkpt><trkpt lat="44.12297269044396" lon="11.338967049094041"><ele>579.0</ele><time>2026-04-19T09:52:34.999Z</time></trkpt><trkpt lat="44.12316682826109" lon="11.338994945514164"><ele>584.0</ele><time>2026-04-19T09:52:35.999Z</time></trkpt><trkpt lat="44.123345141754996" lon="11.339041238915492"><ele>589.0</ele><time>2026-04-19T09:52:36.999Z</time></trkpt><trkpt lat="44.12352907302287" lon="11.33900750175662"><ele>594.0</ele><time>2026-04-19T09:52:37.999Z</time></trkpt><trkpt lat="44.12373011815913" lon="11.338912907822046"><ele>592.0</ele><time>2026-04-19T09:52:38.999Z</time></trkpt><trkpt lat="44.123944036437145" lon="11.338791101769713"><ele>590.0</ele><time>2026-04-19T09:52:39.999Z</time></trkpt><trkpt lat="44.12413909275052" lon="11.338677520562568"><ele>588.0</ele><time>2026-04-19T09:52:40.999Z</time></trkpt><trkpt lat="44.124307485934146" lon="11.338552590598079"><ele>591.6666666666666</ele><time>2026-04-19T09:52:41.999Z</time></trkpt><trkpt lat="44.124460790849234" lon="11.338351556909409"><ele>595.3333333333333</ele><time>2026-04-19T09:52:42.999Z</time></trkpt><trkpt lat="44.12458668950999" lon="11.338098130612222"><ele>599.0</ele><time>2026-04-19T09:52:43.999Z</time></trkpt><trkpt lat="44.124728635254556" lon="11.33789535321565"><ele>599.0</ele><time>2026-04-19T09:52:44.999Z</time></trkpt><trkpt lat="44.124862356503726" lon="11.337792823159175"><ele>599.0</ele><time>2026-04-19T09:52:45.999Z</time></trkpt><trkpt lat="44.125027073578764" lon="11.337741961057912"><ele>599.0</ele><time>2026-04-19T09:52:46.999Z</time></trkpt><trkpt lat="44.12522132846507" lon="11.3377450234081"><ele>602.3333333333333</ele><time>2026-04-19T09:52:47.999Z</time></trkpt><trkpt lat="44.12543897970901" lon="11.337762015400862"><ele>605.6666666666666</ele><time>2026-04-19T09:52:48.999Z</time></trkpt><trkpt lat="44.12566264499371" lon="11.337769249932261"><ele>609.0</ele><time>2026-04-19T09:52:49.999Z</time></trkpt><trkpt lat="44.125894135280475" lon="11.337784187435181"><ele>613.0</ele><time>2026-04-19T09:52:50.999Z</time></trkpt><trkpt lat="44.12613956548225" lon="11.337803931792864"><ele>617.0</ele><time>2026-04-19T09:52:51.999Z</time></trkpt><trkpt lat="44.12636225434368" lon="11.337831364757358"><ele>617.0</ele><time>2026-04-19T09:52:52.999Z</time></trkpt><trkpt lat="44.12655620049106" lon="11.337842510494703"><ele>617.0</ele><time>2026-04-19T09:52:53.999Z</time></trkpt><trkpt lat="44.12673168707144" lon="11.337804154067452"><ele>617.0</ele><time>2026-04-19T09:52:54.999Z</time></trkpt><trkpt lat="44.12690253276651" lon="11.337701377623569"><ele>619.3333333333333</ele><time>2026-04-19T09:52:55.999Z</time></trkpt><trkpt lat="44.12706094558942" lon="11.337517793344652"><ele>621.6666666666666</ele><time>2026-04-19T09:52:56.999Z</time></trkpt><trkpt lat="44.12719986775983" lon="11.337371322614075"><ele>624.0</ele><time>2026-04-19T09:52:57.999Z</time></trkpt><trkpt lat="44.127365134007555" lon="11.33729451832255"><ele>624.6666666666666</ele><time>2026-04-19T09:52:58.999Z</time></trkpt><trkpt lat="44.127543547716435" lon="11.337300416620483"><ele>625.3333333333333</ele><time>2026-04-19T09:52:59.999Z</time></trkpt><trkpt lat="44.1277191823579" lon="11.337396724976381"><ele>626.0</ele><time>2026-04-19T09:53:00.999Z</time></trkpt><trkpt lat="44.12788142750713" lon="11.337546584192175"><ele>626.0</ele><time>2026-04-19T09:53:01.999Z</time></trkpt><trkpt lat="44.12801707311949" lon="11.33763683060848"><ele>626.0</ele><time>2026-04-19T09:53:02.999Z</time></trkpt><trkpt lat="44.12815587952248" lon="11.337673249905421"><ele>626.0</ele><time>2026-04-19T09:53:04Z</time></trkpt><trkpt lat="44.12828164329364" lon="11.337619419884637"><ele>626.0</ele><time>2026-04-19T09:53:05Z</time></trkpt><trkpt lat="44.128395710163545" lon="11.337487410193855"><ele>629.0</ele><time>2026-04-19T09:53:06Z</time></trkpt><trkpt lat="44.12848397568599" lon="11.337297057984001"><ele>632.0</ele><time>2026-04-19T09:53:07Z</time></trkpt><trkpt lat="44.12858067130977" lon="11.337084458709382"><ele>635.0</ele><time>2026-04-19T09:53:07.999Z</time></trkpt><trkpt lat="44.12871598579079" lon="11.33688764558351"><ele>635.0</ele><time>2026-04-19T09:53:08.999Z</time></trkpt><trkpt lat="44.12887017603119" lon="11.336716055005132"><ele>635.0</ele><time>2026-04-19T09:53:09.999Z</time></trkpt><trkpt lat="44.128989489411865" lon="11.336610070269876"><ele>635.0</ele><time>2026-04-19T09:53:10.999Z</time></trkpt><trkpt lat="44.12909957610875" lon="11.336571060277649"><ele>640.3333333333333</ele><time>2026-04-19T09:53:11.999Z</time></trkpt><trkpt lat="44.12924833296668" lon="11.336601620350839"><ele>645.6666666666666</ele><time>2026-04-19T09:53:12.999Z</time></trkpt><trkpt lat="44.12940457981672" lon="11.336613439597091"><ele>651.0</ele><time>2026-04-19T09:53:13.999Z</time></trkpt><trkpt lat="44.12956430551209" lon="11.336517290175939"><ele>651.0</ele><time>2026-04-19T09:53:14.999Z</time></trkpt><trkpt lat="44.129725703622256" lon="11.33638817660019"><ele>651.0</ele><time>2026-04-19T09:53:15.999Z</time></trkpt><trkpt lat="44.12989180763879" lon="11.336321620164595"><ele>651.0</ele><time>2026-04-19T09:53:16.999Z</time></trkpt><trkpt lat="44.13007150900434" lon="11.336327903618951"><ele>653.25</ele><time>2026-04-19T09:53:17.999Z</time></trkpt><trkpt lat="44.13021836995233" lon="11.33633175065116"><ele>655.5</ele><time>2026-04-19T09:53:18.999Z</time></trkpt><trkpt lat="44.130328802047416" lon="11.336252876701753"><ele>657.75</ele><time>2026-04-19T09:53:19.999Z</time></trkpt><trkpt lat="44.13042108048582" lon="11.336084954752652"><ele>660.0</ele><time>2026-04-19T09:53:20.999Z</time></trkpt><trkpt lat="44.13048829578068" lon="11.335835869304622"><ele>660.0</ele><time>2026-04-19T09:53:21.999Z</time></trkpt><trkpt lat="44.13053532934915" lon="11.335561961155422"><ele>660.0</ele><time>2026-04-19T09:53:22.999Z</time></trkpt><trkpt lat="44.1305859376484" lon="11.335349658313568"><ele>660.0</ele><time>2026-04-19T09:53:23.999Z</time></trkpt><trkpt lat="44.130678776081815" lon="11.335161241986873"><ele>663.3333333333334</ele><time>2026-04-19T09:53:24.999Z</time></trkpt><trkpt lat="44.13082890962757" lon="11.33502883035052"><ele>666.6666666666667</ele><time>2026-04-19T09:53:25.999Z</time></trkpt><trkpt lat="44.13100196192018" lon="11.334953686859139"><ele>670.0</ele><time>2026-04-19T09:53:26.999Z</time></trkpt><trkpt lat="44.131135764925446" lon="11.334861957098685"><ele>671.0</ele><time>2026-04-19T09:53:27.999Z</time></trkpt><trkpt lat="44.131226279596945" lon="11.334691494476486"><ele>672.0</ele><time>2026-04-19T09:53:28.999Z</time></trkpt><trkpt lat="44.13127511159309" lon="11.334495819660363"><ele>673.0</ele><time>2026-04-19T09:53:29.999Z</time></trkpt><trkpt lat="44.13132282318096" lon="11.334351609235581"><ele>674.0</ele><time>2026-04-19T09:53:30.999Z</time></trkpt><trkpt lat="44.13143131658333" lon="11.334273600856006"><ele>678.0</ele><time>2026-04-19T09:53:31.999Z</time></trkpt><trkpt lat="44.1315702084809" lon="11.334265207064353"><ele>682.0</ele><time>2026-04-19T09:53:32.999Z</time></trkpt><trkpt lat="44.13173986580712" lon="11.334334254194284"><ele>686.0</ele><time>2026-04-19T09:53:33.999Z</time></trkpt><trkpt lat="44.131919088080664" lon="11.334395020296443"><ele>686.0</ele><time>2026-04-19T09:53:34.999Z</time></trkpt><trkpt lat="44.132128274235136" lon="11.334389154256884"><ele>686.0</ele><time>2026-04-19T09:53:35.999Z</time></trkpt><trkpt lat="44.13233334366171" lon="11.334347368749738"><ele>686.0</ele><time>2026-04-19T09:53:36.999Z</time></trkpt><trkpt lat="44.132552698213104" lon="11.334242031678126"><ele>690.6666666666666</ele><time>2026-04-19T09:53:37.999Z</time></trkpt><trkpt lat="44.13274869590354" lon="11.334130237795728"><ele>695.3333333333334</ele><time>2026-04-19T09:53:38.999Z</time></trkpt><trkpt lat="44.13290263144412" lon="11.334069332241654"><ele>700.0</ele><time>2026-04-19T09:53:39.999Z</time></trkpt><trkpt lat="44.13302763468246" lon="11.334046196956598"><ele>700.0</ele><time>2026-04-19T09:53:40.999Z</time></trkpt><trkpt lat="44.133113875844806" lon="11.334006990586632"><ele>700.0</ele><time>2026-04-19T09:53:41.999Z</time></trkpt><trkpt lat="44.13316535829555" lon="11.33390553912501"><ele>700.0</ele><time>2026-04-19T09:53:42.999Z</time></trkpt><trkpt lat="44.13315184466577" lon="11.333745907053833"><ele>700.0</ele><time>2026-04-19T09:53:43.999Z</time></trkpt><trkpt lat="44.13307614966497" lon="11.33358473370503"><ele>700.0</ele><time>2026-04-19T09:53:44.999Z</time></trkpt><trkpt lat="44.132999134662505" lon="11.333471196904487"><ele>700.4</ele><time>2026-04-19T09:53:45.999Z</time></trkpt><trkpt lat="44.132971176019446" lon="11.333363757364609"><ele>700.8</ele><time>2026-04-19T09:53:46.999Z</time></trkpt><trkpt lat="44.13301334479996" lon="11.333256092935327"><ele>701.2</ele><time>2026-04-19T09:53:47.999Z</time></trkpt><trkpt lat="44.13310713759397" lon="11.333198291263752"><ele>701.6</ele><time>2026-04-19T09:53:48.999Z</time></trkpt><trkpt lat="44.13325205176967" lon="11.333173538742912"><ele>702.0</ele><time>2026-04-19T09:53:49.999Z</time></trkpt><trkpt lat="44.13342196805444" lon="11.333140003663448"><ele>706.6666666666666</ele><time>2026-04-19T09:53:50.999Z</time></trkpt><trkpt lat="44.13358471232367" lon="11.33304789362743"><ele>711.3333333333333</ele><time>2026-04-19T09:53:51.999Z</time></trkpt><trkpt lat="44.13376366002608" lon="11.332931670514382"><ele>716.0</ele><time>2026-04-19T09:53:52.999Z</time></trkpt><trkpt lat="44.13395444264744" lon="11.332815830070814"><ele>721.0</ele><time>2026-04-19T09:53:53.999Z</time></trkpt><trkpt lat="44.13412340601891" lon="11.332750921933044"><ele>726.0</ele><time>2026-04-19T09:53:54.999Z</time></trkpt><trkpt lat="44.13426540294091" lon="11.332705615402645"><ele>731.0</ele><time>2026-04-19T09:53:55.999Z</time></trkpt><trkpt lat="44.13439273288793" lon="11.332653514310923"><ele>731.0</ele><time>2026-04-19T09:53:56.999Z</time></trkpt><trkpt lat="44.13451337393256" lon="11.332594382036214"><ele>731.0</ele><time>2026-04-19T09:53:57.999Z</time></trkpt><trkpt lat="44.13461663226324" lon="11.332551872488233"><ele>731.0</ele><time>2026-04-19T09:53:58.999Z</time></trkpt><trkpt lat="44.134700187359435" lon="11.332498300692722"><ele>731.0</ele><time>2026-04-19T09:53:59.999Z</time></trkpt><trkpt lat="44.134765232850526" lon="11.332369699223554"><ele>731.0</ele><time>2026-04-19T09:54:00.999Z</time></trkpt><trkpt lat="44.13483221873515" lon="11.332174883551506"><ele>732.6666666666666</ele><time>2026-04-19T09:54:01.999Z</time></trkpt><trkpt lat="44.134917953272875" lon="11.33195729622798"><ele>734.3333333333334</ele><time>2026-04-19T09:54:02.999Z</time></trkpt><trkpt lat="44.135022103013995" lon="11.331720046275302"><ele>736.0</ele><time>2026-04-19T09:54:03.999Z</time></trkpt><trkpt lat="44.13512166120526" lon="11.331468125552837"><ele>736.3333333333334</ele><time>2026-04-19T09:54:04.999Z</time></trkpt><trkpt lat="44.13520325243338" lon="11.331192206061152"><ele>736.6666666666666</ele><time>2026-04-19T09:54:05.999Z</time></trkpt><trkpt lat="44.13525273331667" lon="11.330883419639807"><ele>737.0</ele><time>2026-04-19T09:54:06.999Z</time></trkpt><trkpt lat="44.13526876873652" lon="11.33059472961667"><ele>737.6666666666666</ele><time>2026-04-19T09:54:07.999Z</time></trkpt><trkpt lat="44.13533242863396" lon="11.330328294343383"><ele>738.3333333333334</ele><time>2026-04-19T09:54:08.999Z</time></trkpt><trkpt lat="44.135410753427635" lon="11.330063314728276"><ele>739.0</ele><time>2026-04-19T09:54:09.999Z</time></trkpt><trkpt lat="44.13550770212625" lon="11.329800213962189"><ele>738.0</ele><time>2026-04-19T09:54:10.999Z</time></trkpt><trkpt lat="44.1356513761553" lon="11.329545447396601"><ele>737.0</ele><time>2026-04-19T09:54:11.999Z</time></trkpt><trkpt lat="44.13582072523413" lon="11.329287120991907"><ele>743.5</ele><time>2026-04-19T09:54:12.999Z</time></trkpt><trkpt lat="44.13597829205954" lon="11.329021354911161"><ele>750.0</ele><time>2026-04-19T09:54:13.999Z</time></trkpt><trkpt lat="44.13611527086972" lon="11.328787370385689"><ele>750.0</ele><time>2026-04-19T09:54:14.999Z</time></trkpt><trkpt lat="44.136231603886976" lon="11.328571710544185"><ele>750.0</ele><time>2026-04-19T09:54:15.999Z</time></trkpt><trkpt lat="44.1363308768784" lon="11.328359811121906"><ele>750.0</ele><time>2026-04-19T09:54:16.999Z</time></trkpt><trkpt lat="44.13640429327217" lon="11.328127662300984"><ele>749.6666666666666</ele><time>2026-04-19T09:54:17.999Z</time></trkpt><trkpt lat="44.13643190402297" lon="11.327870915877458"><ele>749.3333333333333</ele><time>2026-04-19T09:54:18.999Z</time></trkpt><trkpt lat="44.13642293586794" lon="11.327572474743807"><ele>749.0</ele><time>2026-04-19T09:54:19.999Z</time></trkpt><trkpt lat="44.136387994739074" lon="11.327246636915124"><ele>751.0</ele><time>2026-04-19T09:54:20.999Z</time></trkpt><trkpt lat="44.136401616714885" lon="11.326909342880958"><ele>753.0</ele><time>2026-04-19T09:54:21.999Z</time></trkpt><trkpt lat="44.13642843280274" lon="11.326609328787058"><ele>754.6666666666666</ele><time>2026-04-19T09:54:22.999Z</time></trkpt><trkpt lat="44.13642092317683" lon="11.326354437001127"><ele>756.3333333333333</ele><time>2026-04-19T09:54:23.999Z</time></trkpt><trkpt lat="44.13643861714749" lon="11.326158792710114"><ele>758.0</ele><time>2026-04-19T09:54:24.999Z</time></trkpt><trkpt lat="44.136461236284326" lon="11.325958091796203"><ele>758.0</ele><time>2026-04-19T09:54:25.999Z</time></trkpt><trkpt lat="44.136540525071446" lon="11.325757773539603"><ele>758.0</ele><time>2026-04-19T09:54:26.999Z</time></trkpt><trkpt lat="44.136686875939105" lon="11.325569353321285"><ele>758.0</ele><time>2026-04-19T09:54:27.999Z</time></trkpt><trkpt lat="44.136798465499275" lon="11.325369215670014"><ele>762.6666666666666</ele><time>2026-04-19T09:54:28.999Z</time></trkpt><trkpt lat="44.13686182721804" lon="11.325179882931646"><ele>767.3333333333333</ele><time>2026-04-19T09:54:29.999Z</time></trkpt><trkpt lat="44.13686529167208" lon="11.324958257909525"><ele>772.0</ele><time>2026-04-19T09:54:30.999Z</time></trkpt><trkpt lat="44.136796983215405" lon="11.324707950950437"><ele>773.6666666666666</ele><time>2026-04-19T09:54:31.999Z</time></trkpt><trkpt lat="44.136720684024894" lon="11.324431049158889"><ele>775.3333333333333</ele><time>2026-04-19T09:54:32.999Z</time></trkpt><trkpt lat="44.136709235958726" lon="11.32416404309201"><ele>777.0</ele><time>2026-04-19T09:54:33.999Z</time></trkpt><trkpt lat="44.13671278326704" lon="11.32393125210472"><ele>777.6666666666667</ele><time>2026-04-19T09:54:34.999Z</time></trkpt><trkpt lat="44.13675106585958" lon="11.323735925716331"><ele>778.3333333333334</ele><time>2026-04-19T09:54:35.999Z</time></trkpt><trkpt lat="44.136818738521214" lon="11.323544036974566"><ele>779.0</ele><time>2026-04-19T09:54:36.999Z</time></trkpt><trkpt lat="44.13695760311027" lon="11.3234317155559"><ele>779.0</ele><time>2026-04-19T09:54:37.999Z</time></trkpt><trkpt lat="44.13711917798236" lon="11.323318363100185"><ele>779.0</ele><time>2026-04-19T09:54:38.999Z</time></trkpt><trkpt lat="44.13730106336511" lon="11.323177707359061"><ele>779.0</ele><time>2026-04-19T09:54:39.999Z</time></trkpt><trkpt lat="44.13750156543808" lon="11.323062420527238"><ele>782.6666666666667</ele><time>2026-04-19T09:54:40.999Z</time></trkpt><trkpt lat="44.13771669312078" lon="11.322955427655415"><ele>786.3333333333333</ele><time>2026-04-19T09:54:41.999Z</time></trkpt><trkpt lat="44.13791176457625" lon="11.322853300223048"><ele>790.0</ele><time>2026-04-19T09:54:42.999Z</time></trkpt><trkpt lat="44.13808105528529" lon="11.322758847853558"><ele>794.3333333333333</ele><time>2026-04-19T09:54:43.999Z</time></trkpt><trkpt lat="44.13822598120277" lon="11.32266085145255"><ele>798.6666666666667</ele><time>2026-04-19T09:54:44.999Z</time></trkpt><trkpt lat="44.13834651359228" lon="11.322510327471502"><ele>803.0</ele><time>2026-04-19T09:54:45.999Z</time></trkpt><trkpt lat="44.138446618473" lon="11.322324587613414"><ele>803.3333333333334</ele><time>2026-04-19T09:54:46.999Z</time></trkpt><trkpt lat="44.13850159598129" lon="11.32207598601686"><ele>803.6666666666667</ele><time>2026-04-19T09:54:47.999Z</time></trkpt><trkpt lat="44.13849174464168" lon="11.321805830537604"><ele>804.0</ele><time>2026-04-19T09:54:48.999Z</time></trkpt><trkpt lat="44.138454180488196" lon="11.321552251826002"><ele>805.3333333333333</ele><time>2026-04-19T09:54:49.999Z</time></trkpt><trkpt lat="44.13836834582958" lon="11.32128074962577"><ele>806.6666666666666</ele><time>2026-04-19T09:54:50.999Z</time></trkpt><trkpt lat="44.138232174767275" lon="11.321033742157057"><ele>808.0</ele><time>2026-04-19T09:54:51.999Z</time></trkpt><trkpt lat="44.138123645572584" lon="11.320813315026818"><ele>808.0</ele><time>2026-04-19T09:54:52.999Z</time></trkpt><trkpt lat="44.138002085042935" lon="11.320665444002348"><ele>808.0</ele><time>2026-04-19T09:54:53.999Z</time></trkpt><trkpt lat="44.137876286824024" lon="11.320582409419046"><ele>808.0</ele><time>2026-04-19T09:54:54.999Z</time></trkpt><trkpt lat="44.13775646998536" lon="11.320523610360159"><ele>808.0</ele><time>2026-04-19T09:54:55.999Z</time></trkpt><trkpt lat="44.137669174813055" lon="11.320478275253219"><ele>808.5999999999999</ele><time>2026-04-19T09:54:57Z</time></trkpt><trkpt lat="44.13760964851873" lon="11.320421925336444"><ele>809.1999999999999</ele><time>2026-04-19T09:54:58Z</time></trkpt><trkpt lat="44.137641506936724" lon="11.320257890669094"><ele>809.8</ele><time>2026-04-19T09:55:00Z</time></trkpt><trkpt lat="44.13772763894439" lon="11.320210319399896"><ele>810.4</ele><time>2026-04-19T09:55:01Z</time></trkpt><trkpt lat="44.13785503927031" lon="11.320220710798589"><ele>811.0</ele><time>2026-04-19T09:55:02Z</time></trkpt><trkpt lat="44.13800028662406" lon="11.32022706366612"><ele>811.0</ele><time>2026-04-19T09:55:03Z</time></trkpt><trkpt lat="44.13815630318337" lon="11.320220974286839"><ele>811.0</ele><time>2026-04-19T09:55:04Z</time></trkpt><trkpt lat="44.138290216775" lon="11.320216223022525"><ele>811.0</ele><time>2026-04-19T09:55:05Z</time></trkpt><trkpt lat="44.13840544322546" lon="11.320230517476876"><ele>811.0</ele><time>2026-04-19T09:55:06Z</time></trkpt><trkpt lat="44.13850296416527" lon="11.320229533883351"><ele>812.9999999999999</ele><time>2026-04-19T09:55:07Z</time></trkpt><trkpt lat="44.13859601803836" lon="11.3202291148787"><ele>815.0</ele><time>2026-04-19T09:55:08Z</time></trkpt><trkpt lat="44.1386586333803" lon="11.320269710518724"><ele>817.0</ele><time>2026-04-19T09:55:09Z</time></trkpt><trkpt lat="44.13871782437617" lon="11.320357419404582"><ele>819.0</ele><time>2026-04-19T09:55:11Z</time></trkpt><trkpt lat="44.13876166972959" lon="11.320431697232795"><ele>820.9999999999999</ele><time>2026-04-19T09:55:13Z</time></trkpt><trkpt lat="44.13880698597843" lon="11.320503489413115"><ele>823.0</ele><time>2026-04-19T09:55:15Z</time></trkpt><trkpt lat="44.138885686222885" lon="11.32055874450732"><ele>824.4</ele><time>2026-04-19T09:56:07.999Z</time></trkpt><trkpt lat="44.13894165903305" lon="11.320600656744343"><ele>825.8</ele><time>2026-04-19T09:56:08.999Z</time></trkpt><trkpt lat="44.13901367908685" lon="11.320647812939788"><ele>827.2</ele><time>2026-04-19T09:56:10.999Z</time></trkpt><trkpt lat="44.139101343308276" lon="11.32070334166345"><ele>828.6</ele><time>2026-04-19T09:56:12.999Z</time></trkpt><trkpt lat="44.13922524982388" lon="11.320810969259227"><ele>830.0</ele><time>2026-04-19T09:56:14.999Z</time></trkpt><trkpt lat="44.139288695339125" lon="11.32089341544353"><ele>830.0</ele><time>2026-04-19T09:56:15.999Z</time></trkpt><trkpt lat="44.13935512154541" lon="11.32098115013591"><ele>830.0</ele><time>2026-04-19T09:56:16.999Z</time></trkpt><trkpt lat="44.13944846064767" lon="11.321107491876317"><ele>830.0</ele><time>2026-04-19T09:56:17.999Z</time></trkpt><trkpt lat="44.13954111381644" lon="11.321235451234935"><ele>830.0</ele><time>2026-04-19T09:56:18.999Z</time></trkpt><trkpt lat="44.13963808605248" lon="11.32136502353902"><ele>832.0</ele><time>2026-04-19T09:56:19.999Z</time></trkpt><trkpt lat="44.139734237790506" lon="11.32149388428492"><ele>834.0</ele><time>2026-04-19T09:56:20.999Z</time></trkpt><trkpt lat="44.13984131647314" lon="11.321610909400057"><ele>836.0</ele><time>2026-04-19T09:56:21.999Z</time></trkpt><trkpt lat="44.13997359718083" lon="11.321690356668382"><ele>838.0</ele><time>2026-04-19T09:56:22.999Z</time></trkpt><trkpt lat="44.140126607557356" lon="11.321726285818704"><ele>838.0</ele><time>2026-04-19T09:56:23.999Z</time></trkpt><trkpt lat="44.14028697656281" lon="11.321732653208251"><ele>838.0</ele><time>2026-04-19T09:56:24.999Z</time></trkpt><trkpt lat="44.1404281824355" lon="11.321747101375431"><ele>838.0</ele><time>2026-04-19T09:56:25.999Z</time></trkpt><trkpt lat="44.140546310076644" lon="11.321823643733884"><ele>838.0</ele><time>2026-04-19T09:56:26.999Z</time></trkpt><trkpt lat="44.14060694218391" lon="11.321985209649007"><ele>838.0</ele><time>2026-04-19T09:56:27.999Z</time></trkpt><trkpt lat="44.14068293045337" lon="11.322176833602095"><ele>838.0</ele><time>2026-04-19T09:56:28.999Z</time></trkpt><trkpt lat="44.14075347353277" lon="11.322400979803199"><ele>838.0</ele><time>2026-04-19T09:56:29.999Z</time></trkpt><trkpt lat="44.1408408536842" lon="11.322647213180431"><ele>839.0</ele><time>2026-04-19T09:56:30.999Z</time></trkpt><trkpt lat="44.14093741332584" lon="11.322888171785355"><ele>840.0</ele><time>2026-04-19T09:56:31.999Z</time></trkpt><trkpt lat="44.14103912650294" lon="11.323135724076117"><ele>841.0</ele><time>2026-04-19T09:56:32.999Z</time></trkpt><trkpt lat="44.141128722717504" lon="11.323369734276206"><ele>841.0</ele><time>2026-04-19T09:56:33.999Z</time></trkpt><trkpt lat="44.14120470324363" lon="11.32359201900818"><ele>841.0</ele><time>2026-04-19T09:56:34.999Z</time></trkpt><trkpt lat="44.14122908968465" lon="11.323815554120916"><ele>841.0</ele><time>2026-04-19T09:56:35.999Z</time></trkpt><trkpt lat="44.14122729025342" lon="11.324060034184535"><ele>841.0</ele><time>2026-04-19T09:56:36.999Z</time></trkpt><trkpt lat="44.141222043144126" lon="11.324344205833953"><ele>841.0</ele><time>2026-04-19T09:56:37.999Z</time></trkpt><trkpt lat="44.1411761879293" lon="11.32461386901712"><ele>841.0</ele><time>2026-04-19T09:56:38.999Z</time></trkpt><trkpt lat="44.14112026531054" lon="11.324857309976354"><ele>842.0</ele><time>2026-04-19T09:56:39.999Z</time></trkpt><trkpt lat="44.14106754627768" lon="11.32508235166656"><ele>843.0</ele><time>2026-04-19T09:56:40.999Z</time></trkpt><trkpt lat="44.141014124944334" lon="11.3252811362477"><ele>844.0</ele><time>2026-04-19T09:56:41.999Z</time></trkpt><trkpt lat="44.140983308992986" lon="11.325465021475212"><ele>844.6666666666666</ele><time>2026-04-19T09:56:42.999Z</time></trkpt><trkpt lat="44.14101745125132" lon="11.325651300698581"><ele>845.3333333333333</ele><time>2026-04-19T09:56:43.999Z</time></trkpt><trkpt lat="44.14109112613806" lon="11.325845240799962"><ele>846.0</ele><time>2026-04-19T09:56:44.999Z</time></trkpt><trkpt lat="44.14117847959381" lon="11.326045010937438"><ele>846.0</ele><time>2026-04-19T09:56:45.999Z</time></trkpt><trkpt lat="44.141248121172" lon="11.326260943416354"><ele>846.0</ele><time>2026-04-19T09:56:46.999Z</time></trkpt><trkpt lat="44.14129175479626" lon="11.326472896380384"><ele>846.0</ele><time>2026-04-19T09:56:47.999Z</time></trkpt><trkpt lat="44.1412786571405" lon="11.326686367310181"><ele>846.0</ele><time>2026-04-19T09:56:48.999Z</time></trkpt><trkpt lat="44.14121536599542" lon="11.326875321333125"><ele>846.0</ele><time>2026-04-19T09:56:49.999Z</time></trkpt><trkpt lat="44.14109558772518" lon="11.32702916889637"><ele>846.0</ele><time>2026-04-19T09:56:50.999Z</time></trkpt><trkpt lat="44.140934927385146" lon="11.3271614994843"><ele>845.3333333333333</ele><time>2026-04-19T09:56:51.999Z</time></trkpt><trkpt lat="44.14078014784533" lon="11.327296844528579"><ele>844.6666666666666</ele><time>2026-04-19T09:56:52.999Z</time></trkpt><trkpt lat="44.140654822665596" lon="11.327406785689854"><ele>844.0</ele><time>2026-04-19T09:56:53.999Z</time></trkpt><trkpt lat="44.14054934380064" lon="11.327521932570217"><ele>844.0</ele><time>2026-04-19T09:56:54.999Z</time></trkpt><trkpt lat="44.14046814871414" lon="11.327650802596166"><ele>844.0</ele><time>2026-04-19T09:56:55.999Z</time></trkpt><trkpt lat="44.14043149764178" lon="11.327809881437373"><ele>844.0</ele><time>2026-04-19T09:56:56.999Z</time></trkpt><trkpt lat="44.14043666674488" lon="11.328007143326653"><ele>844.0</ele><time>2026-04-19T09:56:57.999Z</time></trkpt><trkpt lat="44.140470854471204" lon="11.328220430330457"><ele>844.0</ele><time>2026-04-19T09:56:58.999Z</time></trkpt><trkpt lat="44.14052519419839" lon="11.328415913930158"><ele>844.0</ele><time>2026-04-19T09:56:59.999Z</time></trkpt><trkpt lat="44.14059644731113" lon="11.328546709578351"><ele>844.0</ele><time>2026-04-19T09:57:00.999Z</time></trkpt><trkpt lat="44.14070265608003" lon="11.328625534595261"><ele>844.0</ele><time>2026-04-19T09:57:01.999Z</time></trkpt><trkpt lat="44.140830116264" lon="11.328635740484241"><ele>849.0</ele><time>2026-04-19T09:57:02.999Z</time></trkpt><trkpt lat="44.1409596066747" lon="11.328567391367631"><ele>854.0</ele><time>2026-04-19T09:57:03.999Z</time></trkpt><trkpt lat="44.14109585972464" lon="11.328443017494843"><ele>859.0</ele><time>2026-04-19T09:57:04.999Z</time></trkpt><trkpt lat="44.141241722111424" lon="11.32829391977961"><ele>859.0</ele><time>2026-04-19T09:57:05.999Z</time></trkpt><trkpt lat="44.14140567362777" lon="11.328160967059645"><ele>859.0</ele><time>2026-04-19T09:57:06.999Z</time></trkpt><trkpt lat="44.141571384310744" lon="11.32802771788185"><ele>859.0</ele><time>2026-04-19T09:57:07.999Z</time></trkpt><trkpt lat="44.141733401945864" lon="11.327897498962683"><ele>861.0</ele><time>2026-04-19T09:57:08.999Z</time></trkpt><trkpt lat="44.14189709571221" lon="11.327765019487504"><ele>863.0</ele><time>2026-04-19T09:57:09.999Z</time></trkpt><trkpt lat="44.14205752793136" lon="11.327634570751956"><ele>865.0</ele><time>2026-04-19T09:57:10.999Z</time></trkpt><trkpt lat="44.14222426555792" lon="11.327500747707157"><ele>865.0</ele><time>2026-04-19T09:57:11.999Z</time></trkpt><trkpt lat="44.142397958261256" lon="11.32737779794344"><ele>865.0</ele><time>2026-04-19T09:57:12.999Z</time></trkpt><trkpt lat="44.142585922680816" lon="11.327274733145579"><ele>865.0</ele><time>2026-04-19T09:57:13.999Z</time></trkpt><trkpt lat="44.14278737296794" lon="11.32723617641241"><ele>867.3333333333333</ele><time>2026-04-19T09:57:14.999Z</time></trkpt><trkpt lat="44.142999971781734" lon="11.327195217966159"><ele>869.6666666666667</ele><time>2026-04-19T09:57:15.999Z</time></trkpt><trkpt lat="44.143214772814694" lon="11.32717333950868"><ele>872.0</ele><time>2026-04-19T09:57:16.999Z</time></trkpt><trkpt lat="44.14341311195852" lon="11.327155289629646"><ele>870.0</ele><time>2026-04-19T09:57:17.999Z</time></trkpt><trkpt lat="44.14360772112153" lon="11.327193072126839"><ele>868.0</ele><time>2026-04-19T09:57:18.999Z</time></trkpt><trkpt lat="44.143794525291995" lon="11.327277755501955"><ele>866.0</ele><time>2026-04-19T09:57:19.999Z</time></trkpt><trkpt lat="44.14395856914792" lon="11.32738969277191"><ele>867.6666666666667</ele><time>2026-04-19T09:57:20.999Z</time></trkpt><trkpt lat="44.14410876798035" lon="11.327487736743079"><ele>869.3333333333333</ele><time>2026-04-19T09:57:21.999Z</time></trkpt><trkpt lat="44.14425231706019" lon="11.327566361551906"><ele>871.0</ele><time>2026-04-19T09:57:22.999Z</time></trkpt><trkpt lat="44.14439677654244" lon="11.327601273365536"><ele>871.0</ele><time>2026-04-19T09:57:23.999Z</time></trkpt><trkpt lat="44.14453168224971" lon="11.327566743066368"><ele>871.0</ele><time>2026-04-19T09:57:24.999Z</time></trkpt><trkpt lat="44.14466010231268" lon="11.327459881984579"><ele>871.0</ele><time>2026-04-19T09:57:25.999Z</time></trkpt><trkpt lat="44.14477198051024" lon="11.327268143974452"><ele>874.3333333333333</ele><time>2026-04-19T09:57:26.999Z</time></trkpt><trkpt lat="44.14486688894202" lon="11.327020577207401"><ele>877.6666666666667</ele><time>2026-04-19T09:57:27.999Z</time></trkpt><trkpt lat="44.14497931983999" lon="11.326822704533143"><ele>881.0</ele><time>2026-04-19T09:57:28.999Z</time></trkpt><trkpt lat="44.14514478185455" lon="11.326714390246453"><ele>881.0</ele><time>2026-04-19T09:57:29.999Z</time></trkpt><trkpt lat="44.145331818232805" lon="11.32664428461448"><ele>881.0</ele><time>2026-04-19T09:57:30.999Z</time></trkpt><trkpt lat="44.14554854754664" lon="11.326615804413168"><ele>881.0</ele><time>2026-04-19T09:57:31.999Z</time></trkpt><trkpt lat="44.14576841936613" lon="11.326653589718637"><ele>880.0</ele><time>2026-04-19T09:57:32.999Z</time></trkpt><trkpt lat="44.145990983695285" lon="11.326768955609888"><ele>879.0</ele><time>2026-04-19T09:57:33.999Z</time></trkpt><trkpt lat="44.14621899799945" lon="11.326914918264013"><ele>879.0</ele><time>2026-04-19T09:57:34.999Z</time></trkpt><trkpt lat="44.14641172083592" lon="11.327062796734877"><ele>879.0</ele><time>2026-04-19T09:57:35.999Z</time></trkpt><trkpt lat="44.1465988626486" lon="11.327181572105003"><ele>879.0</ele><time>2026-04-19T09:57:36.999Z</time></trkpt><trkpt lat="44.146790348116866" lon="11.32725780804143"><ele>878.0</ele><time>2026-04-19T09:57:37.999Z</time></trkpt><trkpt lat="44.14699747243161" lon="11.32724736096188"><ele>877.0</ele><time>2026-04-19T09:57:38.999Z</time></trkpt><trkpt lat="44.147215190055604" lon="11.327206636706585"><ele>876.0</ele><time>2026-04-19T09:57:39.999Z</time></trkpt><trkpt lat="44.1474302469633" lon="11.32718711607146"><ele>879.3333333333333</ele><time>2026-04-19T09:57:40.999Z</time></trkpt><trkpt lat="44.1476222788322" lon="11.327279063082877"><ele>882.6666666666666</ele><time>2026-04-19T09:57:41.999Z</time></trkpt><trkpt lat="44.147798971227715" lon="11.32737963438518"><ele>886.0</ele><time>2026-04-19T09:57:42.999Z</time></trkpt><trkpt lat="44.1479312020095" lon="11.327496040465322"><ele>886.0</ele><time>2026-04-19T09:57:43.999Z</time></trkpt><trkpt lat="44.14804447086234" lon="11.327553711663771"><ele>886.0</ele><time>2026-04-19T09:57:44.999Z</time></trkpt><trkpt lat="44.14817732075202" lon="11.32754744642302"><ele>886.0</ele><time>2026-04-19T09:57:45.999Z</time></trkpt><trkpt lat="44.14832114023104" lon="11.327458786794775"><ele>886.0</ele><time>2026-04-19T09:57:46.999Z</time></trkpt><trkpt lat="44.148460633728604" lon="11.327293398422446"><ele>892.3333333333333</ele><time>2026-04-19T09:57:47.999Z</time></trkpt><trkpt lat="44.14859547416137" lon="11.327118967396824"><ele>898.6666666666667</ele><time>2026-04-19T09:57:48.999Z</time></trkpt><trkpt lat="44.14871130046325" lon="11.326933212053149"><ele>905.0</ele><time>2026-04-19T09:57:49.999Z</time></trkpt><trkpt lat="44.1488267348315" lon="11.32674274446101"><ele>905.0</ele><time>2026-04-19T09:57:50.999Z</time></trkpt><trkpt lat="44.148954835234115" lon="11.326565799484547"><ele>905.0</ele><time>2026-04-19T09:57:51.999Z</time></trkpt><trkpt lat="44.14908181336786" lon="11.326411312752294"><ele>905.0</ele><time>2026-04-19T09:57:52.999Z</time></trkpt><trkpt lat="44.149217586289545" lon="11.32627248909316"><ele>906.0</ele><time>2026-04-19T09:57:53.999Z</time></trkpt><trkpt lat="44.14934208458238" lon="11.32613874726273"><ele>907.0</ele><time>2026-04-19T09:57:54.999Z</time></trkpt><trkpt lat="44.149467570980356" lon="11.326010663918709"><ele>908.0</ele><time>2026-04-19T09:57:55.999Z</time></trkpt><trkpt lat="44.14960909105798" lon="11.325909076262962"><ele>908.0</ele><time>2026-04-19T09:57:56.999Z</time></trkpt><trkpt lat="44.14979092413469" lon="11.325889825089753"><ele>908.0</ele><time>2026-04-19T09:57:57.999Z</time></trkpt><trkpt lat="44.14998458183108" lon="11.32587213008651"><ele>908.0</ele><time>2026-04-19T09:57:58.999Z</time></trkpt><trkpt lat="44.15016599537361" lon="11.325901801170259"><ele>904.0</ele><time>2026-04-19T09:57:59.999Z</time></trkpt><trkpt lat="44.15033220076387" lon="11.325915968645381"><ele>900.0</ele><time>2026-04-19T09:58:00.999Z</time></trkpt><trkpt lat="44.15049505718548" lon="11.325917074698769"><ele>896.0</ele><time>2026-04-19T09:58:01.999Z</time></trkpt><trkpt lat="44.15064800744387" lon="11.325911818283657"><ele>893.0</ele><time>2026-04-19T09:58:02.999Z</time></trkpt><trkpt lat="44.150798601069596" lon="11.32591069959382"><ele>890.0</ele><time>2026-04-19T09:58:03.999Z</time></trkpt><trkpt lat="44.15095476334568" lon="11.325902838484867"><ele>887.0</ele><time>2026-04-19T09:58:04.999Z</time></trkpt><trkpt lat="44.15110385985744" lon="11.325869561349549"><ele>887.0</ele><time>2026-04-19T09:58:05.999Z</time></trkpt><trkpt lat="44.151267129599276" lon="11.325799180140427"><ele>887.0</ele><time>2026-04-19T09:58:06.999Z</time></trkpt><trkpt lat="44.1514259561186" lon="11.325687919186219"><ele>887.0</ele><time>2026-04-19T09:58:07.999Z</time></trkpt><trkpt lat="44.151584886206585" lon="11.325546607600362"><ele>891.0</ele><time>2026-04-19T09:58:08.999Z</time></trkpt><trkpt lat="44.15174021427666" lon="11.325396317671832"><ele>895.0</ele><time>2026-04-19T09:58:09.999Z</time></trkpt><trkpt lat="44.15190519667527" lon="11.325245221403451"><ele>899.0</ele><time>2026-04-19T09:58:10.999Z</time></trkpt><trkpt lat="44.15207053564349" lon="11.32509528019172"><ele>899.0</ele><time>2026-04-19T09:58:11.999Z</time></trkpt><trkpt lat="44.1522324506748" lon="11.32496423997729"><ele>899.0</ele><time>2026-04-19T09:58:12.999Z</time></trkpt><trkpt lat="44.15238550378968" lon="11.324840439237374"><ele>899.0</ele><time>2026-04-19T09:58:13.999Z</time></trkpt><trkpt lat="44.152527931579705" lon="11.324716996214812"><ele>900.6666666666667</ele><time>2026-04-19T09:58:14.999Z</time></trkpt><trkpt lat="44.15266515466843" lon="11.3245997663393"><ele>902.3333333333333</ele><time>2026-04-19T09:58:15.999Z</time></trkpt><trkpt lat="44.152797164995526" lon="11.324490363178905"><ele>904.0</ele><time>2026-04-19T09:58:16.999Z</time></trkpt><trkpt lat="44.152941844870675" lon="11.324442319478148"><ele>904.0</ele><time>2026-04-19T09:58:17.999Z</time></trkpt><trkpt lat="44.15309364299751" lon="11.32446256101831"><ele>904.0</ele><time>2026-04-19T09:58:18.999Z</time></trkpt><trkpt lat="44.1532487285369" lon="11.324527638293889"><ele>904.0</ele><time>2026-04-19T09:58:19.999Z</time></trkpt><trkpt lat="44.15340524264116" lon="11.324632889636616"><ele>897.6666666666666</ele><time>2026-04-19T09:58:20.999Z</time></trkpt><trkpt lat="44.15356125784616" lon="11.324763410319262"><ele>891.3333333333333</ele><time>2026-04-19T09:58:21.999Z</time></trkpt><trkpt lat="44.153705490800014" lon="11.324893922663659"><ele>885.0</ele><time>2026-04-19T09:58:22.999Z</time></trkpt><trkpt lat="44.15384477688114" lon="11.325004153866749"><ele>885.0</ele><time>2026-04-19T09:58:23.999Z</time></trkpt><trkpt lat="44.153999090489" lon="11.325111513335827"><ele>885.0</ele><time>2026-04-19T09:58:24.999Z</time></trkpt><trkpt lat="44.154163198525595" lon="11.325189871388146"><ele>885.0</ele><time>2026-04-19T09:58:25.999Z</time></trkpt><trkpt lat="44.154328740500176" lon="11.325233364293968"><ele>887.0</ele><time>2026-04-19T09:58:26.999Z</time></trkpt><trkpt lat="44.15448673389841" lon="11.325251505343058"><ele>889.0</ele><time>2026-04-19T09:58:27.999Z</time></trkpt><trkpt lat="44.1546330286931" lon="11.325200298161631"><ele>891.0</ele><time>2026-04-19T09:58:28.999Z</time></trkpt><trkpt lat="44.15475226424929" lon="11.325065936834783"><ele>891.0</ele><time>2026-04-19T09:58:29.999Z</time></trkpt><trkpt lat="44.15484165818008" lon="11.324867767090705"><ele>891.0</ele><time>2026-04-19T09:58:30.999Z</time></trkpt><trkpt lat="44.15491365869115" lon="11.324638015910535"><ele>891.0</ele><time>2026-04-19T09:58:31.999Z</time></trkpt><trkpt lat="44.155013139948366" lon="11.324431260415682"><ele>892.3333333333333</ele><time>2026-04-19T09:58:32.999Z</time></trkpt><trkpt lat="44.15516261849562" lon="11.324282810572527"><ele>893.6666666666666</ele><time>2026-04-19T09:58:33.999Z</time></trkpt><trkpt lat="44.155317392915634" lon="11.324141241151322"><ele>895.0</ele><time>2026-04-19T09:58:34.999Z</time></trkpt><trkpt lat="44.155464535427726" lon="11.323969668937048"><ele>896.3333333333333</ele><time>2026-04-19T09:58:35.999Z</time></trkpt><trkpt lat="44.15559806065215" lon="11.323766393387894"><ele>897.6666666666667</ele><time>2026-04-19T09:58:36.999Z</time></trkpt><trkpt lat="44.15568787659235" lon="11.323535688775895"><ele>899.0</ele><time>2026-04-19T09:58:37.999Z</time></trkpt><trkpt lat="44.15581491071912" lon="11.32338033673952"><ele>899.0</ele><time>2026-04-19T09:58:38.999Z</time></trkpt><trkpt lat="44.15594985488507" lon="11.323269154460045"><ele>899.0</ele><time>2026-04-19T09:58:39.999Z</time></trkpt><trkpt lat="44.15610705048275" lon="11.32319884662322"><ele>899.0</ele><time>2026-04-19T09:58:40.999Z</time></trkpt><trkpt lat="44.15627309578783" lon="11.323192022182527"><ele>899.0</ele><time>2026-04-19T09:58:41.999Z</time></trkpt><trkpt lat="44.156439372001095" lon="11.323237791772046"><ele>899.0</ele><time>2026-04-19T09:58:42.999Z</time></trkpt><trkpt lat="44.156609740464525" lon="11.323314740970087"><ele>899.0</ele><time>2026-04-19T09:58:43.999Z</time></trkpt><trkpt lat="44.156784789977195" lon="11.323390187879543"><ele>899.6666666666667</ele><time>2026-04-19T09:58:44.999Z</time></trkpt><trkpt lat="44.15693961459704" lon="11.323457952743576"><ele>900.3333333333333</ele><time>2026-04-19T09:58:45.999Z</time></trkpt><trkpt lat="44.157098593977125" lon="11.323475292539753"><ele>901.0</ele><time>2026-04-19T09:58:46.999Z</time></trkpt><trkpt lat="44.1572805459087" lon="11.323378903752264"><ele>901.0</ele><time>2026-04-19T09:58:47.999Z</time></trkpt><trkpt lat="44.1574468489275" lon="11.32325695757962"><ele>901.0</ele><time>2026-04-19T09:58:48.999Z</time></trkpt><trkpt lat="44.15758008472068" lon="11.323122392860732"><ele>901.0</ele><time>2026-04-19T09:58:49.999Z</time></trkpt><trkpt lat="44.15769398867323" lon="11.322974194232001"><ele>902.6666666666666</ele><time>2026-04-19T09:58:50.999Z</time></trkpt><trkpt lat="44.15780987417086" lon="11.322826929814902"><ele>904.3333333333333</ele><time>2026-04-19T09:58:51.999Z</time></trkpt><trkpt lat="44.15794264676738" lon="11.322716587314993"><ele>906.0</ele><time>2026-04-19T09:58:52.999Z</time></trkpt><trkpt lat="44.158098476660044" lon="11.32266852148146"><ele>905.6666666666667</ele><time>2026-04-19T09:58:53.999Z</time></trkpt><trkpt lat="44.15825210766059" lon="11.322676517014504"><ele>905.3333333333334</ele><time>2026-04-19T09:58:54.999Z</time></trkpt><trkpt lat="44.15841867549089" lon="11.322763027830163"><ele>905.0</ele><time>2026-04-19T09:58:55.999Z</time></trkpt><trkpt lat="44.158582493076814" lon="11.322858050606058"><ele>905.0</ele><time>2026-04-19T09:58:56.999Z</time></trkpt><trkpt lat="44.15873770913384" lon="11.323007300109074"><ele>905.0</ele><time>2026-04-19T09:58:57.999Z</time></trkpt><trkpt lat="44.158875473825184" lon="11.32319051613384"><ele>905.0</ele><time>2026-04-19T09:58:58.999Z</time></trkpt><trkpt lat="44.159001470525546" lon="11.323363179446703"><ele>903.0</ele><time>2026-04-19T09:58:59.999Z</time></trkpt><trkpt lat="44.15915328625641" lon="11.323494069956848"><ele>901.0</ele><time>2026-04-19T09:59:00.999Z</time></trkpt><trkpt lat="44.159331644836676" lon="11.32359624071812"><ele>899.0</ele><time>2026-04-19T09:59:01.999Z</time></trkpt><trkpt lat="44.159499838631504" lon="11.323690768273712"><ele>899.0</ele><time>2026-04-19T09:59:02.999Z</time></trkpt><trkpt lat="44.15965123027597" lon="11.323807156616883"><ele>899.0</ele><time>2026-04-19T09:59:03.999Z</time></trkpt><trkpt lat="44.15978864517068" lon="11.323956240905131"><ele>899.0</ele><time>2026-04-19T09:59:04.999Z</time></trkpt><trkpt lat="44.15990620281288" lon="11.32415619922157"><ele>899.0</ele><time>2026-04-19T09:59:05.999Z</time></trkpt><trkpt lat="44.15997043241178" lon="11.324425299681716"><ele>899.0</ele><time>2026-04-19T09:59:06.999Z</time></trkpt><trkpt lat="44.16003036958865" lon="11.324692900281121"><ele>899.0</ele><time>2026-04-19T09:59:07.999Z</time></trkpt><trkpt lat="44.160096480520274" lon="11.324987905761173"><ele>896.0</ele><time>2026-04-19T09:59:08.999Z</time></trkpt><trkpt lat="44.16017542908382" lon="11.325261882972265"><ele>893.0</ele><time>2026-04-19T09:59:09.999Z</time></trkpt><trkpt lat="44.160261903097364" lon="11.325534678382134"><ele>890.0</ele><time>2026-04-19T09:59:10.999Z</time></trkpt><trkpt lat="44.16035041207988" lon="11.325802509942365"><ele>887.3333333333334</ele><time>2026-04-19T09:59:11.999Z</time></trkpt><trkpt lat="44.1604408078671" lon="11.326072266144996"><ele>884.6666666666667</ele><time>2026-04-19T09:59:12.999Z</time></trkpt><trkpt lat="44.16053544661496" lon="11.326343602358838"><ele>882.0</ele><time>2026-04-19T09:59:13.999Z</time></trkpt><trkpt lat="44.160635049322735" lon="11.32661159508236"><ele>882.3333333333333</ele><time>2026-04-19T09:59:14.999Z</time></trkpt><trkpt lat="44.16073454455222" lon="11.326862708370934"><ele>882.6666666666666</ele><time>2026-04-19T09:59:15.999Z</time></trkpt><trkpt lat="44.16084081740234" lon="11.327106846056685"><ele>883.0</ele><time>2026-04-19T09:59:16.999Z</time></trkpt><trkpt lat="44.160951870394655" lon="11.327340026654145"><ele>883.0</ele><time>2026-04-19T09:59:17.999Z</time></trkpt><trkpt lat="44.16104940775744" lon="11.327579188632717"><ele>883.0</ele><time>2026-04-19T09:59:18.999Z</time></trkpt><trkpt lat="44.161121007442546" lon="11.327819127178959"><ele>883.0</ele><time>2026-04-19T09:59:19.999Z</time></trkpt><trkpt lat="44.16117459312861" lon="11.328072464443771"><ele>882.6666666666666</ele><time>2026-04-19T09:59:20.999Z</time></trkpt><trkpt lat="44.16121398582273" lon="11.328321016163953"><ele>882.3333333333333</ele><time>2026-04-19T09:59:21.999Z</time></trkpt><trkpt lat="44.16124393871252" lon="11.32856091261719"><ele>882.0</ele><time>2026-04-19T09:59:22.999Z</time></trkpt><trkpt lat="44.16126655176935" lon="11.328792576254044"><ele>881.75</ele><time>2026-04-19T09:59:23.999Z</time></trkpt><trkpt lat="44.16129984153349" lon="11.329008670003645"><ele>881.5</ele><time>2026-04-19T09:59:24.999Z</time></trkpt><trkpt lat="44.16134305941549" lon="11.32919084994307"><ele>881.25</ele><time>2026-04-19T09:59:25.999Z</time></trkpt><trkpt lat="44.16142445333815" lon="11.329343571874322"><ele>881.0</ele><time>2026-04-19T09:59:26.999Z</time></trkpt><trkpt lat="44.16153680166584" lon="11.32947646486544"><ele>881.0</ele><time>2026-04-19T09:59:27.999Z</time></trkpt><trkpt lat="44.16167639575896" lon="11.329583190234857"><ele>881.0</ele><time>2026-04-19T09:59:28.999Z</time></trkpt><trkpt lat="44.161839375700616" lon="11.329648517943829"><ele>881.0</ele><time>2026-04-19T09:59:29.999Z</time></trkpt><trkpt lat="44.16199494024353" lon="11.329695310342675"><ele>881.0</ele><time>2026-04-19T09:59:30.999Z</time></trkpt><trkpt lat="44.162144550646005" lon="11.329713447534017"><ele>881.0</ele><time>2026-04-19T09:59:31.999Z</time></trkpt><trkpt lat="44.162291176901235" lon="11.329710548890452"><ele>881.0</ele><time>2026-04-19T09:59:32.999Z</time></trkpt><trkpt lat="44.1624306365393" lon="11.329713604705868"><ele>881.0</ele><time>2026-04-19T09:59:33.999Z</time></trkpt><trkpt lat="44.16257126231828" lon="11.329762439462446"><ele>877.0</ele><time>2026-04-19T09:59:34.999Z</time></trkpt><trkpt lat="44.162691032941936" lon="11.329880116636433"><ele>873.0</ele><time>2026-04-19T09:59:35.999Z</time></trkpt><trkpt lat="44.16277980509992" lon="11.330045185506728"><ele>869.0</ele><time>2026-04-19T09:59:36.999Z</time></trkpt><trkpt lat="44.16284557499009" lon="11.330225285786845"><ele>865.0</ele><time>2026-04-19T09:59:37.999Z</time></trkpt><trkpt lat="44.16287218383615" lon="11.33041504339989"><ele>862.25</ele><time>2026-04-19T09:59:38.999Z</time></trkpt><trkpt lat="44.16285181995978" lon="11.330610838243164"><ele>859.5</ele><time>2026-04-19T09:59:39.999Z</time></trkpt><trkpt lat="44.162811473934646" lon="11.330798407188441"><ele>856.75</ele><time>2026-04-19T09:59:40.999Z</time></trkpt><trkpt lat="44.162787974873616" lon="11.330976607982786"><ele>854.0</ele><time>2026-04-19T09:59:41.999Z</time></trkpt><trkpt lat="44.16279583740049" lon="11.331145025010931"><ele>854.0</ele><time>2026-04-19T09:59:42.999Z</time></trkpt><trkpt lat="44.16285010340802" lon="11.331283474700891"><ele>854.0</ele><time>2026-04-19T09:59:43.999Z</time></trkpt><trkpt lat="44.16295292544821" lon="11.331384495034419"><ele>854.0</ele><time>2026-04-19T09:59:44.999Z</time></trkpt><trkpt lat="44.16308716345292" lon="11.33146780282068"><ele>854.0</ele><time>2026-04-19T09:59:45.999Z</time></trkpt><trkpt lat="44.16323096827046" lon="11.331560771427679"><ele>853.25</ele><time>2026-04-19T09:59:46.999Z</time></trkpt><trkpt lat="44.163371934612094" lon="11.33165801094961"><ele>852.5</ele><time>2026-04-19T09:59:47.999Z</time></trkpt><trkpt lat="44.16349625487945" lon="11.331754104283347"><ele>851.75</ele><time>2026-04-19T09:59:48.999Z</time></trkpt><trkpt lat="44.16361386714684" lon="11.331858209975612"><ele>851.0</ele><time>2026-04-19T09:59:49.999Z</time></trkpt><trkpt lat="44.16372807124842" lon="11.33196842566408"><ele>851.0</ele><time>2026-04-19T09:59:50.999Z</time></trkpt><trkpt lat="44.163829463684166" lon="11.332102368306264"><ele>851.0</ele><time>2026-04-19T09:59:51.999Z</time></trkpt><trkpt lat="44.16392556118898" lon="11.33227194943692"><ele>851.0</ele><time>2026-04-19T09:59:52.999Z</time></trkpt><trkpt lat="44.1640175985436" lon="11.332463803815992"><ele>851.5</ele><time>2026-04-19T09:59:53.999Z</time></trkpt><trkpt lat="44.16410525364923" lon="11.332636444219185"><ele>852.0</ele><time>2026-04-19T09:59:54.999Z</time></trkpt><trkpt lat="44.1641986383536" lon="11.332777169151186"><ele>852.5</ele><time>2026-04-19T09:59:55.999Z</time></trkpt><trkpt lat="44.16429880261044" lon="11.332881229150026"><ele>853.0</ele><time>2026-04-19T09:59:56.999Z</time></trkpt><trkpt lat="44.16437817293135" lon="11.332997459897175"><ele>851.5</ele><time>2026-04-19T09:59:57.999Z</time></trkpt><trkpt lat="44.16444537907309" lon="11.333122840434067"><ele>850.0</ele><time>2026-04-19T09:59:58.999Z</time></trkpt><trkpt lat="44.16447562303104" lon="11.333273562993934"><ele>848.5</ele><time>2026-04-19T09:59:59.999Z</time></trkpt><trkpt lat="44.16450914426253" lon="11.33344691341146"><ele>847.0</ele><time>2026-04-19T10:00:00.999Z</time></trkpt><trkpt lat="44.16453280423824" lon="11.333624829122053"><ele>847.0</ele><time>2026-04-19T10:00:01.999Z</time></trkpt><trkpt lat="44.16456837842494" lon="11.333765213897271"><ele>847.0</ele><time>2026-04-19T10:00:02.999Z</time></trkpt><trkpt lat="44.16461047628085" lon="11.333883752245885"><ele>847.0</ele><time>2026-04-19T10:00:03.999Z</time></trkpt><trkpt lat="44.16466187356688" lon="11.333999572960021"><ele>847.0</ele><time>2026-04-19T10:00:04.999Z</time></trkpt><trkpt lat="44.1647228578738" lon="11.334121287146043"><ele>847.0</ele><time>2026-04-19T10:00:05.999Z</time></trkpt><trkpt lat="44.16479897685834" lon="11.334237258997222"><ele>848.0</ele><time>2026-04-19T10:00:06.999Z</time></trkpt><trkpt lat="44.16488167801082" lon="11.334348307755718"><ele>849.0</ele><time>2026-04-19T10:00:07.999Z</time></trkpt><trkpt lat="44.16496014935688" lon="11.334473567340481"><ele>850.0</ele><time>2026-04-19T10:00:08.999Z</time></trkpt><trkpt lat="44.165042756717426" lon="11.334602073999603"><ele>851.0</ele><time>2026-04-19T10:00:09.999Z</time></trkpt><trkpt lat="44.165127966848715" lon="11.334726718446355"><ele>851.0</ele><time>2026-04-19T10:00:10.999Z</time></trkpt><trkpt lat="44.16521715741727" lon="11.33485593505111"><ele>851.0</ele><time>2026-04-19T10:00:11.999Z</time></trkpt><trkpt lat="44.16530009407173" lon="11.334997974169276"><ele>851.0</ele><time>2026-04-19T10:00:12.999Z</time></trkpt><trkpt lat="44.16534791248341" lon="11.33516815160521"><ele>851.0</ele><time>2026-04-19T10:00:13.999Z</time></trkpt><trkpt lat="44.16538872285706" lon="11.335364705933182"><ele>851.1999999999999</ele><time>2026-04-19T10:00:14.999Z</time></trkpt><trkpt lat="44.165397612752926" lon="11.335554024889861"><ele>851.4</ele><time>2026-04-19T10:00:15.999Z</time></trkpt><trkpt lat="44.165408598437566" lon="11.33570993533166"><ele>851.6</ele><time>2026-04-19T10:00:16.999Z</time></trkpt><trkpt lat="44.16541870782417" lon="11.335846164896516"><ele>851.8</ele><time>2026-04-19T10:00:17.999Z</time></trkpt><trkpt lat="44.16543300643798" lon="11.335972059649258"><ele>852.0</ele><time>2026-04-19T10:00:18.999Z</time></trkpt><trkpt lat="44.165446576249366" lon="11.33608211783084"><ele>852.0</ele><time>2026-04-19T10:00:19.999Z</time></trkpt><trkpt lat="44.16548629214617" lon="11.336155979308009"><ele>852.0</ele><time>2026-04-19T10:00:20.999Z</time></trkpt><trkpt lat="44.16555713044865" lon="11.336209053541104"><ele>852.0</ele><time>2026-04-19T10:00:21.999Z</time></trkpt><trkpt lat="44.165653015951555" lon="11.336233662435179"><ele>852.0</ele><time>2026-04-19T10:00:22.999Z</time></trkpt><trkpt lat="44.16577810582168" lon="11.336203821492441"><ele>852.0</ele><time>2026-04-19T10:00:23.999Z</time></trkpt><trkpt lat="44.16591604897083" lon="11.336145707936032"><ele>855.3333333333333</ele><time>2026-04-19T10:00:24.999Z</time></trkpt><trkpt lat="44.16605295244806" lon="11.336049455049762"><ele>858.6666666666666</ele><time>2026-04-19T10:00:25.999Z</time></trkpt><trkpt lat="44.16619758414861" lon="11.335937254989632"><ele>862.0</ele><time>2026-04-19T10:00:26.999Z</time></trkpt><trkpt lat="44.16634316180686" lon="11.335812269357959"><ele>862.0</ele><time>2026-04-19T10:00:27.999Z</time></trkpt><trkpt lat="44.16649872729128" lon="11.335671184160153"><ele>862.0</ele><time>2026-04-19T10:00:28.999Z</time></trkpt><trkpt lat="44.166646947168324" lon="11.335529113167814"><ele>862.0</ele><time>2026-04-19T10:00:29.999Z</time></trkpt><trkpt lat="44.16679768575442" lon="11.335386652107507"><ele>864.0</ele><time>2026-04-19T10:00:30.999Z</time></trkpt><trkpt lat="44.16695118704337" lon="11.335250685207601"><ele>866.0</ele><time>2026-04-19T10:00:31.999Z</time></trkpt><trkpt lat="44.167091042925684" lon="11.335135725857956"><ele>868.0</ele><time>2026-04-19T10:00:32.999Z</time></trkpt><trkpt lat="44.16721815833478" lon="11.335035981693752"><ele>868.0</ele><time>2026-04-19T10:00:33.999Z</time></trkpt><trkpt lat="44.167327938090054" lon="11.334947060224497"><ele>868.0</ele><time>2026-04-19T10:00:34.999Z</time></trkpt><trkpt lat="44.16742117943221" lon="11.334868689985473"><ele>868.0</ele><time>2026-04-19T10:00:35.999Z</time></trkpt><trkpt lat="44.167496507918955" lon="11.33477291118826"><ele>868.0</ele><time>2026-04-19T10:00:36.999Z</time></trkpt><trkpt lat="44.167542237906865" lon="11.33464049191747"><ele>868.0</ele><time>2026-04-19T10:00:37.999Z</time></trkpt><trkpt lat="44.16756025878527" lon="11.334482623567544"><ele>869.3333333333333</ele><time>2026-04-19T10:00:38.999Z</time></trkpt><trkpt lat="44.167478561289485" lon="11.33429801383818"><ele>870.6666666666667</ele><time>2026-04-19T10:00:39.999Z</time></trkpt><trkpt lat="44.16736805048825" lon="11.334122704662507"><ele>872.0</ele><time>2026-04-19T10:00:40.999Z</time></trkpt><trkpt lat="44.16728699405101" lon="11.333922195396003"><ele>874.25</ele><time>2026-04-19T10:00:41.999Z</time></trkpt><trkpt lat="44.1672104932726" lon="11.33374745728498"><ele>876.5</ele><time>2026-04-19T10:00:42.999Z</time></trkpt><trkpt lat="44.167167318414336" lon="11.333589959210439"><ele>878.75</ele><time>2026-04-19T10:00:43.999Z</time></trkpt><trkpt lat="44.167150444412144" lon="11.333436175081795"><ele>881.0</ele><time>2026-04-19T10:00:44.999Z</time></trkpt><trkpt lat="44.167234451061454" lon="11.333279646997745"><ele>881.0</ele><time>2026-04-19T10:00:45.999Z</time></trkpt><trkpt lat="44.167352317331094" lon="11.333140972519935"><ele>881.0</ele><time>2026-04-19T10:00:46.999Z</time></trkpt><trkpt lat="44.167455758464364" lon="11.332980205598384"><ele>881.0</ele><time>2026-04-19T10:00:47.999Z</time></trkpt><trkpt lat="44.16755929792832" lon="11.332833559485914"><ele>883.5</ele><time>2026-04-19T10:00:48.999Z</time></trkpt><trkpt lat="44.16764826689617" lon="11.332667623500836"><ele>886.0</ele><time>2026-04-19T10:00:49.999Z</time></trkpt><trkpt lat="44.16773118113277" lon="11.332540267967735"><ele>888.5</ele><time>2026-04-19T10:00:50.999Z</time></trkpt><trkpt lat="44.16784655821546" lon="11.332490526928835"><ele>891.0</ele><time>2026-04-19T10:00:51.999Z</time></trkpt><trkpt lat="44.167976535061456" lon="11.332553702601768"><ele>891.0</ele><time>2026-04-19T10:00:52.999Z</time></trkpt><trkpt lat="44.168129525618276" lon="11.332618169640158"><ele>891.0</ele><time>2026-04-19T10:00:53.999Z</time></trkpt><trkpt lat="44.168293897224146" lon="11.33268261009302"><ele>891.0</ele><time>2026-04-19T10:00:54.999Z</time></trkpt><trkpt lat="44.16846390582752" lon="11.332732835349626"><ele>896.3333333333333</ele><time>2026-04-19T10:00:55.999Z</time></trkpt><trkpt lat="44.16864480449527" lon="11.332784805576962"><ele>901.6666666666666</ele><time>2026-04-19T10:00:56.999Z</time></trkpt><trkpt lat="44.16883071011132" lon="11.332849651197598"><ele>907.0</ele><time>2026-04-19T10:00:57.999Z</time></trkpt><trkpt lat="44.169006280304096" lon="11.332910373947726"><ele>910.6666666666666</ele><time>2026-04-19T10:00:58.999Z</time></trkpt><trkpt lat="44.16917548710787" lon="11.332951415923608"><ele>914.3333333333333</ele><time>2026-04-19T10:00:59.999Z</time></trkpt><trkpt lat="44.16934763447489" lon="11.332949225033174"><ele>918.0</ele><time>2026-04-19T10:01:00.999Z</time></trkpt><trkpt lat="44.169537986475795" lon="11.332882997605878"><ele>918.0</ele><time>2026-04-19T10:01:01.999Z</time></trkpt><trkpt lat="44.16973735132551" lon="11.332783444750705"><ele>918.0</ele><time>2026-04-19T10:01:02.999Z</time></trkpt><trkpt lat="44.16992814445276" lon="11.332678492351963"><ele>918.0</ele><time>2026-04-19T10:01:03.999Z</time></trkpt><trkpt lat="44.17011026561776" lon="11.332618842304422"><ele>919.75</ele><time>2026-04-19T10:01:04.999Z</time></trkpt><trkpt lat="44.17027022894912" lon="11.332572112312528"><ele>921.5</ele><time>2026-04-19T10:01:05.999Z</time></trkpt><trkpt lat="44.17041927167676" lon="11.332546375022101"><ele>923.25</ele><time>2026-04-19T10:01:06.999Z</time></trkpt><trkpt lat="44.17054777409795" lon="11.332544720846816"><ele>925.0</ele><time>2026-04-19T10:01:07.999Z</time></trkpt><trkpt lat="44.17065728376119" lon="11.332644213746475"><ele>925.3333333333333</ele><time>2026-04-19T10:01:08.999Z</time></trkpt><trkpt lat="44.1707091986691" lon="11.332838267331946"><ele>925.6666666666667</ele><time>2026-04-19T10:01:09.999Z</time></trkpt><trkpt lat="44.17077082056427" lon="11.33305662013647"><ele>926.0</ele><time>2026-04-19T10:01:10.999Z</time></trkpt><trkpt lat="44.1708351744035" lon="11.333303677808912"><ele>926.0</ele><time>2026-04-19T10:01:11.999Z</time></trkpt><trkpt lat="44.1708663574738" lon="11.33358077439013"><ele>926.0</ele><time>2026-04-19T10:01:12.999Z</time></trkpt><trkpt lat="44.17089862588498" lon="11.33385045792408"><ele>926.0</ele><time>2026-04-19T10:01:13.999Z</time></trkpt><trkpt lat="44.17096136077517" lon="11.334100605644238"><ele>925.6666666666667</ele><time>2026-04-19T10:01:14.999Z</time></trkpt><trkpt lat="44.17106751156105" lon="11.334324965037457"><ele>925.3333333333333</ele><time>2026-04-19T10:01:15.999Z</time></trkpt><trkpt lat="44.17120657475818" lon="11.334542166815828"><ele>925.0</ele><time>2026-04-19T10:01:16.999Z</time></trkpt><trkpt lat="44.17136160670713" lon="11.334762524862636"><ele>924.3333333333333</ele><time>2026-04-19T10:01:17.999Z</time></trkpt><trkpt lat="44.171506973229555" lon="11.335006919965858"><ele>923.6666666666667</ele><time>2026-04-19T10:01:18.999Z</time></trkpt><trkpt lat="44.17163189119319" lon="11.335255868889135"><ele>923.0</ele><time>2026-04-19T10:01:19.999Z</time></trkpt><trkpt lat="44.17175067381207" lon="11.335511631157317"><ele>928.6666666666667</ele><time>2026-04-19T10:01:20.999Z</time></trkpt><trkpt lat="44.17186197617017" lon="11.3357781400966"><ele>934.3333333333333</ele><time>2026-04-19T10:01:21.999Z</time></trkpt><trkpt lat="44.17196373188268" lon="11.336029265643809"><ele>940.0</ele><time>2026-04-19T10:01:22.999Z</time></trkpt><trkpt lat="44.17205783591442" lon="11.336250691268654"><ele>939.3333333333333</ele><time>2026-04-19T10:01:23.999Z</time></trkpt><trkpt lat="44.172145823514" lon="11.336462655994804"><ele>938.6666666666667</ele><time>2026-04-19T10:01:24.999Z</time></trkpt><trkpt lat="44.17221048272442" lon="11.336690575397595"><ele>938.0</ele><time>2026-04-19T10:01:25.999Z</time></trkpt><trkpt lat="44.172236469063655" lon="11.336927740427672"><ele>938.0</ele><time>2026-04-19T10:01:26.999Z</time></trkpt><trkpt lat="44.172237193447714" lon="11.337159108682112"><ele>938.0</ele><time>2026-04-19T10:01:27.999Z</time></trkpt><trkpt lat="44.17226170511912" lon="11.337366390109514"><ele>938.0</ele><time>2026-04-19T10:01:28.999Z</time></trkpt><trkpt lat="44.172323621073296" lon="11.337578687774363"><ele>943.75</ele><time>2026-04-19T10:01:29.999Z</time></trkpt><trkpt lat="44.17241331033472" lon="11.337757105315957"><ele>949.5</ele><time>2026-04-19T10:01:30.999Z</time></trkpt><trkpt lat="44.17248382495698" lon="11.337909947320217"><ele>955.25</ele><time>2026-04-19T10:01:31.999Z</time></trkpt><trkpt lat="44.17253933687094" lon="11.338048509719462"><ele>961.0</ele><time>2026-04-19T10:01:32.999Z</time></trkpt><trkpt lat="44.17259197043069" lon="11.338173202004528"><ele>960.9999999999999</ele><time>2026-04-19T10:01:33.999Z</time></trkpt><trkpt lat="44.17264230124686" lon="11.338269113625323"><ele>961.0</ele><time>2026-04-19T10:01:34.999Z</time></trkpt><trkpt lat="44.17268514331856" lon="11.33835664141429"><ele>961.0</ele><time>2026-04-19T10:01:35.999Z</time></trkpt><trkpt lat="44.172740879924426" lon="11.338466911479053"><ele>961.0</ele><time>2026-04-19T10:01:37.999Z</time></trkpt><trkpt lat="44.17278664869189" lon="11.338527578129051"><ele>960.9999999999999</ele><time>2026-04-19T10:01:40.999Z</time></trkpt><trkpt lat="44.17283473894639" lon="11.338622329241996"><ele>961.0</ele><time>2026-04-19T10:01:43.999Z</time></trkpt><trkpt lat="44.1728774469752" lon="11.338713653629126"><ele>960.9999999999999</ele><time>2026-04-19T10:01:46.999Z</time></trkpt><trkpt lat="44.17291216922498" lon="11.338791715313793"><ele>961.0</ele><time>2026-04-19T10:01:49.999Z</time></trkpt><trkpt lat="44.17300354240708" lon="11.338657269582448"><ele>961.0</ele><time>2026-04-19T10:01:54.999Z</time></trkpt><trkpt lat="44.173034085460394" lon="11.338552100610098"><ele>961.0</ele><time>2026-04-19T10:01:58.999Z</time></trkpt><trkpt lat="44.17307527944451" lon="11.338481657646192"><ele>960.9999999999999</ele><time>2026-04-19T10:02:11.999Z</time></trkpt><trkpt lat="44.173044608763114" lon="11.3385611458054"><ele>961.0</ele><time>2026-04-19T10:02:53.999Z</time></trkpt><trkpt lat="44.17301721555058" lon="11.338640210198704"><ele>961.0</ele><time>2026-04-19T10:02:55.999Z</time></trkpt><trkpt lat="44.17299814187128" lon="11.338736407993578"><ele>960.9999999999999</ele><time>2026-04-19T10:04:37.999Z</time></trkpt><trkpt lat="44.172852324316196" lon="11.338764077463999"><ele>960.9999999999999</ele><time>2026-04-19T10:04:46.999Z</time></trkpt><trkpt lat="44.172804022280246" lon="11.338825982220987"><ele>961.0</ele><time>2026-04-19T10:05:04.999Z</time></trkpt><trkpt lat="44.17275888598653" lon="11.338926221701522"><ele>961.0</ele><time>2026-04-19T10:05:21.999Z</time></trkpt><trkpt lat="44.172844096553945" lon="11.338826136964338"><ele>961.0</ele><time>2026-04-19T10:05:54.524Z</time></trkpt><trkpt lat="44.172748931779225" lon="11.339087873984731"><ele>961.0</ele><time>2026-04-19T10:08:48.009Z</time></trkpt><trkpt lat="44.17265551854664" lon="11.339110790127874"><ele>961.0</ele><time>2026-04-19T10:08:50.011Z</time></trkpt><trkpt lat="44.17283504440279" lon="11.338807030324306"><ele>962.3333333333333</ele><time>2026-04-19T10:09:10.515Z</time></trkpt><trkpt lat="44.172658182314834" lon="11.33918350805729"><ele>963.6666666666667</ele><time>2026-04-19T10:12:49.998Z</time></trkpt><trkpt lat="44.17266909183362" lon="11.339071916978336"><ele>965.0</ele><time>2026-04-19T10:13:19Z</time></trkpt><trkpt lat="44.172659095867495" lon="11.338960677231332"><ele>965.0</ele><time>2026-04-19T10:50:19.999Z</time></trkpt><trkpt lat="44.172735705935196" lon="11.338901135044358"><ele>965.0</ele><time>2026-04-19T10:50:34.999Z</time></trkpt><trkpt lat="44.17279821407353" lon="11.338922733155892"><ele>965.0</ele><time>2026-04-19T10:50:42Z</time></trkpt><trkpt lat="44.17285583593245" lon="11.338960657723595"><ele>965.0</ele><time>2026-04-19T10:50:49Z</time></trkpt><trkpt lat="44.17285930824594" lon="11.338859904898946"><ele>965.0</ele><time>2026-04-19T10:51:48.999Z</time></trkpt><trkpt lat="44.172912364684244" lon="11.338812553454144"><ele>965.0</ele><time>2026-04-19T10:52:54.999Z</time></trkpt><trkpt lat="44.172907659508624" lon="11.338717431696978"><ele>965.0</ele><time>2026-04-19T10:53:04.999Z</time></trkpt><trkpt lat="44.17285303739483" lon="11.3386342353939"><ele>964.3333333333334</ele><time>2026-04-19T10:57:15.999Z</time></trkpt><trkpt lat="44.172812127547445" lon="11.33854002941255"><ele>963.6666666666667</ele><time>2026-04-19T10:57:18.999Z</time></trkpt><trkpt lat="44.172766250603466" lon="11.338450646838726"><ele>963.0</ele><time>2026-04-19T10:57:21.999Z</time></trkpt><trkpt lat="44.172740916619105" lon="11.338367448551839"><ele>962.3333333333333</ele><time>2026-04-19T10:57:24.999Z</time></trkpt><trkpt lat="44.17270477008864" lon="11.338283670905346"><ele>961.6666666666666</ele><time>2026-04-19T10:57:26.999Z</time></trkpt><trkpt lat="44.17266241647104" lon="11.338218475228562"><ele>961.0</ele><time>2026-04-19T10:57:27.999Z</time></trkpt><trkpt lat="44.17259589684135" lon="11.338109175672665"><ele>961.0</ele><time>2026-04-19T10:57:28.999Z</time></trkpt><trkpt lat="44.172540718397855" lon="11.337980543284592"><ele>960.9999999999999</ele><time>2026-04-19T10:57:29.999Z</time></trkpt><trkpt lat="44.17249377609001" lon="11.337847938022334"><ele>960.9999999999999</ele><time>2026-04-19T10:57:30.999Z</time></trkpt><trkpt lat="44.17244557605625" lon="11.337719109506558"><ele>961.0</ele><time>2026-04-19T10:57:31.999Z</time></trkpt><trkpt lat="44.17239419268119" lon="11.337600640689486"><ele>961.0</ele><time>2026-04-19T10:57:32.999Z</time></trkpt><trkpt lat="44.17233960603253" lon="11.337487672039856"><ele>956.4</ele><time>2026-04-19T10:57:33.999Z</time></trkpt><trkpt lat="44.172295288177786" lon="11.337370981181325"><ele>951.8</ele><time>2026-04-19T10:57:34.999Z</time></trkpt><trkpt lat="44.172262841724425" lon="11.337248977547864"><ele>947.1999999999999</ele><time>2026-04-19T10:57:35.999Z</time></trkpt><trkpt lat="44.17226380317875" lon="11.33711975654809"><ele>942.5999999999999</ele><time>2026-04-19T10:57:36.999Z</time></trkpt><trkpt lat="44.17226339171557" lon="11.337005268288333"><ele>938.0</ele><time>2026-04-19T10:57:37.999Z</time></trkpt><trkpt lat="44.1722407250173" lon="11.336856235375388"><ele>938.0</ele><time>2026-04-19T10:57:38.999Z</time></trkpt><trkpt lat="44.172233810055175" lon="11.336681018764946"><ele>938.0</ele><time>2026-04-19T10:57:39.999Z</time></trkpt><trkpt lat="44.17219540671901" lon="11.336536488327772"><ele>938.0</ele><time>2026-04-19T10:57:40.999Z</time></trkpt><trkpt lat="44.17216075097124" lon="11.336408897404192"><ele>938.0</ele><time>2026-04-19T10:57:41.999Z</time></trkpt><trkpt lat="44.17211613855082" lon="11.336292743585831"><ele>938.0</ele><time>2026-04-19T10:57:42.999Z</time></trkpt><trkpt lat="44.17206483138463" lon="11.336188339468846"><ele>938.3333333333334</ele><time>2026-04-19T10:57:43.999Z</time></trkpt><trkpt lat="44.172018202572914" lon="11.336088055866893"><ele>938.6666666666667</ele><time>2026-04-19T10:57:44.999Z</time></trkpt><trkpt lat="44.171969533150474" lon="11.335990284909284"><ele>939.0</ele><time>2026-04-19T10:57:45.999Z</time></trkpt><trkpt lat="44.1719297779409" lon="11.335889242727209"><ele>939.3333333333333</ele><time>2026-04-19T10:57:46.999Z</time></trkpt><trkpt lat="44.1718883873313" lon="11.335791875768752"><ele>939.6666666666666</ele><time>2026-04-19T10:57:47.999Z</time></trkpt><trkpt lat="44.17184723135581" lon="11.335694619030217"><ele>940.0</ele><time>2026-04-19T10:57:48.999Z</time></trkpt><trkpt lat="44.171805940520045" lon="11.335597496010623"><ele>940.25</ele><time>2026-04-19T10:57:49.999Z</time></trkpt><trkpt lat="44.17175946727937" lon="11.335485602777885"><ele>940.5</ele><time>2026-04-19T10:57:50.999Z</time></trkpt><trkpt lat="44.171695971499744" lon="11.335344382488781"><ele>940.75</ele><time>2026-04-19T10:57:51.999Z</time></trkpt><trkpt lat="44.171626515998206" lon="11.335180939116338"><ele>941.0</ele><time>2026-04-19T10:57:52.999Z</time></trkpt><trkpt lat="44.17153159601674" lon="11.334997078529293"><ele>935.6666666666667</ele><time>2026-04-19T10:57:53.999Z</time></trkpt><trkpt lat="44.171417425655726" lon="11.334795998415759"><ele>930.3333333333333</ele><time>2026-04-19T10:57:54.999Z</time></trkpt><trkpt lat="44.171307956071985" lon="11.334608665114894"><ele>925.0</ele><time>2026-04-19T10:57:55.999Z</time></trkpt><trkpt lat="44.171197684611705" lon="11.334441903856211"><ele>925.0</ele><time>2026-04-19T10:57:56.999Z</time></trkpt><trkpt lat="44.171091771005564" lon="11.334279891534175"><ele>925.0</ele><time>2026-04-19T10:57:57.999Z</time></trkpt><trkpt lat="44.17100731436957" lon="11.334100647349386"><ele>925.0</ele><time>2026-04-19T10:57:58.999Z</time></trkpt><trkpt lat="44.170930082583055" lon="11.333928568107686"><ele>925.3333333333333</ele><time>2026-04-19T10:57:59.999Z</time></trkpt><trkpt lat="44.17091137439009" lon="11.333711447558324"><ele>925.6666666666667</ele><time>2026-04-19T10:58:00.999Z</time></trkpt><trkpt lat="44.17087602629121" lon="11.333506358203413"><ele>926.0</ele><time>2026-04-19T10:58:01.999Z</time></trkpt><trkpt lat="44.17086589110006" lon="11.333303386972679"><ele>926.0</ele><time>2026-04-19T10:58:02.999Z</time></trkpt><trkpt lat="44.17082616861461" lon="11.333111844916917"><ele>926.0</ele><time>2026-04-19T10:58:03.999Z</time></trkpt><trkpt lat="44.17078177059272" lon="11.332937862908741"><ele>926.0</ele><time>2026-04-19T10:58:04.999Z</time></trkpt><trkpt lat="44.17073372892597" lon="11.332780281143974"><ele>926.0</ele><time>2026-04-19T10:58:05.999Z</time></trkpt><trkpt lat="44.17067029198013" lon="11.332636721026656"><ele>925.75</ele><time>2026-04-19T10:58:06.999Z</time></trkpt><trkpt lat="44.17057935107641" lon="11.332537784015399"><ele>925.5</ele><time>2026-04-19T10:58:07.999Z</time></trkpt><trkpt lat="44.17046243888921" lon="11.332491493955699"><ele>925.25</ele><time>2026-04-19T10:58:08.999Z</time></trkpt><trkpt lat="44.17032249645729" lon="11.332501536936453"><ele>925.0</ele><time>2026-04-19T10:58:09.999Z</time></trkpt><trkpt lat="44.17016070367435" lon="11.332558928364751"><ele>925.0</ele><time>2026-04-19T10:58:10.999Z</time></trkpt><trkpt lat="44.16999616308217" lon="11.332628603910269"><ele>925.0</ele><time>2026-04-19T10:58:11.999Z</time></trkpt><trkpt lat="44.16983512030972" lon="11.332707905318397"><ele>925.0</ele><time>2026-04-19T10:58:12.999Z</time></trkpt><trkpt lat="44.169683172307366" lon="11.332772607140583"><ele>923.25</ele><time>2026-04-19T10:58:13.999Z</time></trkpt><trkpt lat="44.16953979053053" lon="11.33283651194859"><ele>921.5</ele><time>2026-04-19T10:58:14.999Z</time></trkpt><trkpt lat="44.16939320558907" lon="11.33286830284164"><ele>919.75</ele><time>2026-04-19T10:58:15.999Z</time></trkpt><trkpt lat="44.16924441315848" lon="11.3328936928184"><ele>918.0</ele><time>2026-04-19T10:58:16.999Z</time></trkpt><trkpt lat="44.16907650999312" lon="11.332870842651252"><ele>914.3333333333333</ele><time>2026-04-19T10:58:17.999Z</time></trkpt><trkpt lat="44.16889482153579" lon="11.332820357538822"><ele>910.6666666666666</ele><time>2026-04-19T10:58:18.999Z</time></trkpt><trkpt lat="44.16870546579203" lon="11.332759105278846"><ele>907.0</ele><time>2026-04-19T10:58:19.999Z</time></trkpt><trkpt lat="44.1685269568171" lon="11.332700612452479"><ele>907.0</ele><time>2026-04-19T10:58:20.999Z</time></trkpt><trkpt lat="44.16835864064337" lon="11.332643684042612"><ele>907.0</ele><time>2026-04-19T10:58:21.999Z</time></trkpt><trkpt lat="44.168196521638755" lon="11.332603247581325"><ele>907.0</ele><time>2026-04-19T10:58:22.999Z</time></trkpt><trkpt lat="44.168052439580215" lon="11.332541084484957"><ele>903.0</ele><time>2026-04-19T10:58:23.999Z</time></trkpt><trkpt lat="44.167925383297515" lon="11.332492807681268"><ele>899.0</ele><time>2026-04-19T10:58:24.999Z</time></trkpt><trkpt lat="44.16781736612233" lon="11.332470985736377"><ele>895.0</ele><time>2026-04-19T10:58:25.999Z</time></trkpt><trkpt lat="44.16771538113647" lon="11.33249966471929"><ele>891.0</ele><time>2026-04-19T10:58:26.999Z</time></trkpt><trkpt lat="44.16762033551742" lon="11.332609763546294"><ele>891.0</ele><time>2026-04-19T10:58:27.999Z</time></trkpt><trkpt lat="44.16753128511966" lon="11.332769827933658"><ele>891.0</ele><time>2026-04-19T10:58:28.999Z</time></trkpt><trkpt lat="44.16743827316816" lon="11.332966890358808"><ele>891.0</ele><time>2026-04-19T10:58:29.999Z</time></trkpt><trkpt lat="44.167311023798085" lon="11.333134435477708"><ele>888.5</ele><time>2026-04-19T10:58:30.999Z</time></trkpt><trkpt lat="44.167213336095436" lon="11.33327740623133"><ele>886.0</ele><time>2026-04-19T10:58:31.999Z</time></trkpt><trkpt lat="44.16715383830678" lon="11.333393002760491"><ele>883.5</ele><time>2026-04-19T10:58:32.999Z</time></trkpt><trkpt lat="44.167115779463956" lon="11.333579284186374"><ele>881.0</ele><time>2026-04-19T10:58:33.999Z</time></trkpt><trkpt lat="44.16713143307126" lon="11.333737043560154"><ele>881.0</ele><time>2026-04-19T10:58:34.999Z</time></trkpt><trkpt lat="44.16720351070197" lon="11.333883487075877"><ele>881.0</ele><time>2026-04-19T10:58:35.999Z</time></trkpt><trkpt lat="44.16730724525776" lon="11.33402034922658"><ele>881.0</ele><time>2026-04-19T10:58:36.999Z</time></trkpt><trkpt lat="44.16739355675177" lon="11.334205292308026"><ele>881.0</ele><time>2026-04-19T10:58:37.999Z</time></trkpt><trkpt lat="44.16744146378211" lon="11.334344205113878"><ele>880.8</ele><time>2026-04-19T10:58:38.999Z</time></trkpt><trkpt lat="44.16749911056785" lon="11.334447470961907"><ele>880.5999999999999</ele><time>2026-04-19T10:58:39.999Z</time></trkpt><trkpt lat="44.167520873526925" lon="11.334571527168608"><ele>880.4</ele><time>2026-04-19T10:58:40.999Z</time></trkpt><trkpt lat="44.1674959307576" lon="11.334706902594425"><ele>880.2</ele><time>2026-04-19T10:58:41.999Z</time></trkpt><trkpt lat="44.16739943474171" lon="11.334814243953309"><ele>880.0</ele><time>2026-04-19T10:58:42.999Z</time></trkpt><trkpt lat="44.167271585613356" lon="11.334925770279185"><ele>876.0</ele><time>2026-04-19T10:58:43.999Z</time></trkpt><trkpt lat="44.16712640631001" lon="11.33505118229186"><ele>872.0</ele><time>2026-04-19T10:58:44.999Z</time></trkpt><trkpt lat="44.16697276120181" lon="11.335183901711849"><ele>868.0</ele><time>2026-04-19T10:58:45.999Z</time></trkpt><trkpt lat="44.16682468343236" lon="11.33534060883322"><ele>868.0</ele><time>2026-04-19T10:58:46.999Z</time></trkpt><trkpt lat="44.16665749436542" lon="11.3354772244569"><ele>868.0</ele><time>2026-04-19T10:58:47.999Z</time></trkpt><trkpt lat="44.16649045986304" lon="11.335619789210705"><ele>868.0</ele><time>2026-04-19T10:58:48.999Z</time></trkpt><trkpt lat="44.16633829281074" lon="11.335760394285982"><ele>866.5</ele><time>2026-04-19T10:58:49.999Z</time></trkpt><trkpt lat="44.166203822896755" lon="11.335884634051492"><ele>865.0</ele><time>2026-04-19T10:58:50.999Z</time></trkpt><trkpt lat="44.166084449288306" lon="11.335985701045692"><ele>863.5</ele><time>2026-04-19T10:58:51.999Z</time></trkpt><trkpt lat="44.165970567076435" lon="11.33607026845787"><ele>862.0</ele><time>2026-04-19T10:58:52.999Z</time></trkpt><trkpt lat="44.165863152997225" lon="11.336135933886412"><ele>861.9999999999999</ele><time>2026-04-19T10:58:53.999Z</time></trkpt><trkpt lat="44.1657460028364" lon="11.33615916060065"><ele>862.0</ele><time>2026-04-19T10:58:54.999Z</time></trkpt><trkpt lat="44.16565674130314" lon="11.336176080972947"><ele>862.0</ele><time>2026-04-19T10:58:55.999Z</time></trkpt><trkpt lat="44.165580882715105" lon="11.33617477203556"><ele>862.0</ele><time>2026-04-19T10:58:56.999Z</time></trkpt><trkpt lat="44.165514521272996" lon="11.336137540033285"><ele>861.9999999999999</ele><time>2026-04-19T10:58:57.999Z</time></trkpt><trkpt lat="44.165458175803984" lon="11.336081836052397"><ele>862.0</ele><time>2026-04-19T10:58:58.999Z</time></trkpt><trkpt lat="44.16543467758522" lon="11.335963029180789"><ele>859.5</ele><time>2026-04-19T10:58:59.999Z</time></trkpt><trkpt lat="44.16545088674525" lon="11.335809395343688"><ele>857.0</ele><time>2026-04-19T10:59:00.999Z</time></trkpt><trkpt lat="44.16543250510547" lon="11.335638231323667"><ele>854.5</ele><time>2026-04-19T10:59:01.999Z</time></trkpt><trkpt lat="44.16541563445055" lon="11.335454993970712"><ele>852.0</ele><time>2026-04-19T10:59:02.999Z</time></trkpt><trkpt lat="44.165392887195715" lon="11.335283892865982"><ele>851.75</ele><time>2026-04-19T10:59:03.999Z</time></trkpt><trkpt lat="44.16536284830813" lon="11.335126932941957"><ele>851.5</ele><time>2026-04-19T10:59:04.999Z</time></trkpt><trkpt lat="44.16530743814049" lon="11.334972807548414"><ele>851.25</ele><time>2026-04-19T10:59:05.999Z</time></trkpt><trkpt lat="44.16522332149105" lon="11.334817628532296"><ele>851.0</ele><time>2026-04-19T10:59:06.999Z</time></trkpt><trkpt lat="44.16514063158109" lon="11.334694309075184"><ele>850.5999999999999</ele><time>2026-04-19T10:59:07.999Z</time></trkpt><trkpt lat="44.16506428757282" lon="11.334580223515971"><ele>850.2</ele><time>2026-04-19T10:59:08.999Z</time></trkpt><trkpt lat="44.16499578637005" lon="11.334482904188999"><ele>849.8</ele><time>2026-04-19T10:59:09.999Z</time></trkpt><trkpt lat="44.164931194182486" lon="11.334387854795715"><ele>849.4000000000001</ele><time>2026-04-19T10:59:10.999Z</time></trkpt><trkpt lat="44.16487018272947" lon="11.334295832192737"><ele>849.0</ele><time>2026-04-19T10:59:11.999Z</time></trkpt><trkpt lat="44.16480850716336" lon="11.334196247025329"><ele>849.0</ele><time>2026-04-19T10:59:12.999Z</time></trkpt><trkpt lat="44.16474470764423" lon="11.33409221416344"><ele>849.0</ele><time>2026-04-19T10:59:13.999Z</time></trkpt><trkpt lat="44.164676770932836" lon="11.33398371703686"><ele>849.0</ele><time>2026-04-19T10:59:14.999Z</time></trkpt><trkpt lat="44.16462344190349" lon="11.333826045752206"><ele>849.0</ele><time>2026-04-19T10:59:15.999Z</time></trkpt><trkpt lat="44.164550700405805" lon="11.333659918128287"><ele>848.5</ele><time>2026-04-19T10:59:16.999Z</time></trkpt><trkpt lat="44.16453734823196" lon="11.333450794497573"><ele>848.0</ele><time>2026-04-19T10:59:17.999Z</time></trkpt><trkpt lat="44.16449872020773" lon="11.333262492703453"><ele>847.5</ele><time>2026-04-19T10:59:18.999Z</time></trkpt><trkpt lat="44.16445336790428" lon="11.33308971495593"><ele>847.0</ele><time>2026-04-19T10:59:19.999Z</time></trkpt><trkpt lat="44.16437124778744" lon="11.33293502302831"><ele>847.0</ele><time>2026-04-19T10:59:20.999Z</time></trkpt><trkpt lat="44.16424703488565" lon="11.332788741084455"><ele>847.0</ele><time>2026-04-19T10:59:21.999Z</time></trkpt><trkpt lat="44.16413022445097" lon="11.332611026660187"><ele>847.0</ele><time>2026-04-19T10:59:22.999Z</time></trkpt><trkpt lat="44.16402068470859" lon="11.33240728889631"><ele>848.3333333333333</ele><time>2026-04-19T10:59:23.999Z</time></trkpt><trkpt lat="44.16389988981739" lon="11.332214788237447"><ele>849.6666666666667</ele><time>2026-04-19T10:59:24.999Z</time></trkpt><trkpt lat="44.16378284711276" lon="11.332005814175238"><ele>851.0</ele><time>2026-04-19T10:59:25.999Z</time></trkpt><trkpt lat="44.16363469435442" lon="11.331823965035246"><ele>851.0</ele><time>2026-04-19T10:59:26.999Z</time></trkpt><trkpt lat="44.16346568018695" lon="11.331688230900017"><ele>851.0</ele><time>2026-04-19T10:59:27.999Z</time></trkpt><trkpt lat="44.163283213404945" lon="11.33156988812032"><ele>851.0</ele><time>2026-04-19T10:59:28.999Z</time></trkpt><trkpt lat="44.163124758289285" lon="11.331457734821623"><ele>851.75</ele><time>2026-04-19T10:59:29.999Z</time></trkpt><trkpt lat="44.16298342655021" lon="11.331352017005923"><ele>852.5</ele><time>2026-04-19T10:59:30.999Z</time></trkpt><trkpt lat="44.16288160547104" lon="11.33121618526498"><ele>853.25</ele><time>2026-04-19T10:59:31.999Z</time></trkpt><trkpt lat="44.16279591768917" lon="11.331111354792391"><ele>854.0</ele><time>2026-04-19T10:59:32.999Z</time></trkpt><trkpt lat="44.162788597562034" lon="11.330954754987568"><ele>854.0</ele><time>2026-04-19T10:59:33.999Z</time></trkpt><trkpt lat="44.16281492971133" lon="11.330781451250079"><ele>854.0</ele><time>2026-04-19T10:59:34.999Z</time></trkpt><trkpt lat="44.16286529597136" lon="11.330585225442567"><ele>854.0</ele><time>2026-04-19T10:59:35.999Z</time></trkpt><trkpt lat="44.162885647588254" lon="11.330373632011705"><ele>854.0</ele><time>2026-04-19T10:59:36.999Z</time></trkpt><trkpt lat="44.16286324176048" lon="11.330179032302127"><ele>857.6666666666667</ele><time>2026-04-19T10:59:37.999Z</time></trkpt><trkpt lat="44.162783819448315" lon="11.329990668228897"><ele>861.3333333333333</ele><time>2026-04-19T10:59:39Z</time></trkpt><trkpt lat="44.1626701703132" lon="11.329831118033857"><ele>865.0</ele><time>2026-04-19T10:59:40Z</time></trkpt><trkpt lat="44.1625321093603" lon="11.329705203188482"><ele>870.3333333333333</ele><time>2026-04-19T10:59:41Z</time></trkpt><trkpt lat="44.162383190235076" lon="11.329646374371883"><ele>875.6666666666667</ele><time>2026-04-19T10:59:42Z</time></trkpt><trkpt lat="44.16221486943186" lon="11.329658404979023"><ele>881.0</ele><time>2026-04-19T10:59:43Z</time></trkpt><trkpt lat="44.162028639606" lon="11.329639116435295"><ele>881.0</ele><time>2026-04-19T10:59:44Z</time></trkpt><trkpt lat="44.16185120826011" lon="11.329583765096233"><ele>881.0</ele><time>2026-04-19T10:59:45Z</time></trkpt><trkpt lat="44.16169369781586" lon="11.329498865711685"><ele>881.0</ele><time>2026-04-19T10:59:46Z</time></trkpt><trkpt lat="44.1615682131087" lon="11.32940818541024"><ele>881.25</ele><time>2026-04-19T10:59:47Z</time></trkpt><trkpt lat="44.16146822286403" lon="11.329304545400861"><ele>881.5</ele><time>2026-04-19T10:59:48Z</time></trkpt><trkpt lat="44.16139058843128" lon="11.329170903979154"><ele>881.75</ele><time>2026-04-19T10:59:49Z</time></trkpt><trkpt lat="44.16134289360134" lon="11.328997137169207"><ele>882.0</ele><time>2026-04-19T10:59:50Z</time></trkpt><trkpt lat="44.161311954048976" lon="11.32879555298241"><ele>882.0</ele><time>2026-04-19T10:59:51Z</time></trkpt><trkpt lat="44.1612596922821" lon="11.328555480872229"><ele>882.0</ele><time>2026-04-19T10:59:52Z</time></trkpt><trkpt lat="44.16122627618844" lon="11.328294102911705"><ele>882.0</ele><time>2026-04-19T10:59:53Z</time></trkpt><trkpt lat="44.161177388471984" lon="11.328024934477433"><ele>882.3333333333333</ele><time>2026-04-19T10:59:54Z</time></trkpt><trkpt lat="44.16111218045896" lon="11.327761794769273"><ele>882.6666666666666</ele><time>2026-04-19T10:59:55Z</time></trkpt><trkpt lat="44.16102669596394" lon="11.327491431864145"><ele>883.0</ele><time>2026-04-19T10:59:56Z</time></trkpt><trkpt lat="44.16092069175735" lon="11.32721636735698"><ele>885.5</ele><time>2026-04-19T10:59:57Z</time></trkpt><trkpt lat="44.160800027407646" lon="11.326943215878819"><ele>888.0</ele><time>2026-04-19T10:59:58Z</time></trkpt><trkpt lat="44.160682142929254" lon="11.326676094443382"><ele>885.0</ele><time>2026-04-19T10:59:59Z</time></trkpt><trkpt lat="44.16058397590577" lon="11.326374036781425"><ele>882.0</ele><time>2026-04-19T11:00:00Z</time></trkpt><trkpt lat="44.1604797336881" lon="11.326079123460213"><ele>882.0</ele><time>2026-04-19T11:00:01Z</time></trkpt><trkpt lat="44.16038203432201" lon="11.325780946410383"><ele>882.0</ele><time>2026-04-19T11:00:02Z</time></trkpt><trkpt lat="44.160289580850424" lon="11.325481894834507"><ele>886.0</ele><time>2026-04-19T11:00:03Z</time></trkpt><trkpt lat="44.16018920250026" lon="11.325191091094714"><ele>890.0</ele><time>2026-04-19T11:00:04Z</time></trkpt><trkpt lat="44.16010941909033" lon="11.324903616985335"><ele>893.0</ele><time>2026-04-19T11:00:05Z</time></trkpt><trkpt lat="44.16003760384833" lon="11.324637477569407"><ele>896.0</ele><time>2026-04-19T11:00:06Z</time></trkpt><trkpt lat="44.159976248636" lon="11.324387570060349"><ele>899.0</ele><time>2026-04-19T11:00:07Z</time></trkpt><trkpt lat="44.1599065162235" lon="11.324155307346786"><ele>899.0</ele><time>2026-04-19T11:00:08Z</time></trkpt><trkpt lat="44.15982183149373" lon="11.323931495187495"><ele>899.0</ele><time>2026-04-19T11:00:09Z</time></trkpt><trkpt lat="44.15966941706146" lon="11.323789110690969"><ele>899.0</ele><time>2026-04-19T11:00:10Z</time></trkpt><trkpt lat="44.15950283947375" lon="11.323663717095982"><ele>899.0</ele><time>2026-04-19T11:00:11Z</time></trkpt><trkpt lat="44.159333685892086" lon="11.323549694405914"><ele>899.0</ele><time>2026-04-19T11:00:12Z</time></trkpt><trkpt lat="44.15918231942761" lon="11.323451656535818"><ele>899.0</ele><time>2026-04-19T11:00:13Z</time></trkpt><trkpt lat="44.15904271414206" lon="11.323330710741324"><ele>898.0</ele><time>2026-04-19T11:00:14Z</time></trkpt><trkpt lat="44.15891382021218" lon="11.323183133159283"><ele>897.0</ele><time>2026-04-19T11:00:15Z</time></trkpt><trkpt lat="44.15878575798937" lon="11.323013887710076"><ele>896.0</ele><time>2026-04-19T11:00:16Z</time></trkpt><trkpt lat="44.15863944361343" lon="11.32288132095293"><ele>899.0</ele><time>2026-04-19T11:00:17Z</time></trkpt><trkpt lat="44.15849263007403" lon="11.322741837864289"><ele>902.0</ele><time>2026-04-19T11:00:18Z</time></trkpt><trkpt lat="44.15830113776346" lon="11.32263105803243"><ele>905.0</ele><time>2026-04-19T11:00:19Z</time></trkpt><trkpt lat="44.15813673952203" lon="11.3225750743811"><ele>905.3333333333334</ele><time>2026-04-19T11:00:20Z</time></trkpt><trkpt lat="44.1579733976104" lon="11.322605015843173"><ele>905.6666666666667</ele><time>2026-04-19T11:00:21Z</time></trkpt><trkpt lat="44.15780109730267" lon="11.322708447124612"><ele>906.0</ele><time>2026-04-19T11:00:22Z</time></trkpt><trkpt lat="44.15763534098238" lon="11.322889865070177"><ele>904.3333333333333</ele><time>2026-04-19T11:00:23Z</time></trkpt><trkpt lat="44.157507789843045" lon="11.323092451418201"><ele>902.6666666666666</ele><time>2026-04-19T11:00:24Z</time></trkpt><trkpt lat="44.15739095913019" lon="11.323252113993789"><ele>901.0</ele><time>2026-04-19T11:00:25Z</time></trkpt><trkpt lat="44.1572402023278" lon="11.32332382708301"><ele>901.0</ele><time>2026-04-19T11:00:26Z</time></trkpt><trkpt lat="44.15707174919749" lon="11.323389703719947"><ele>901.0</ele><time>2026-04-19T11:00:27Z</time></trkpt><trkpt lat="44.15690097829129" lon="11.323437156857862"><ele>901.0</ele><time>2026-04-19T11:00:28Z</time></trkpt><trkpt lat="44.156758988529646" lon="11.323335318179856"><ele>901.0</ele><time>2026-04-19T11:00:29Z</time></trkpt><trkpt lat="44.15657895718425" lon="11.323251674135028"><ele>901.0</ele><time>2026-04-19T11:00:30Z</time></trkpt><trkpt lat="44.156402560952536" lon="11.323176727526167"><ele>901.0</ele><time>2026-04-19T11:00:31Z</time></trkpt><trkpt lat="44.15623653837656" lon="11.323137723946525"><ele>900.3333333333333</ele><time>2026-04-19T11:00:32Z</time></trkpt><trkpt lat="44.15606110435399" lon="11.323123949356104"><ele>899.6666666666667</ele><time>2026-04-19T11:00:33Z</time></trkpt><trkpt lat="44.15590850491854" lon="11.323188813934514"><ele>899.0</ele><time>2026-04-19T11:00:34Z</time></trkpt><trkpt lat="44.15574462357794" lon="11.323309258036511"><ele>897.6666666666667</ele><time>2026-04-19T11:00:35Z</time></trkpt><trkpt lat="44.155599563359246" lon="11.323511528583422"><ele>896.3333333333333</ele><time>2026-04-19T11:00:36Z</time></trkpt><trkpt lat="44.1554755886899" lon="11.32374861646739"><ele>895.0</ele><time>2026-04-19T11:00:37Z</time></trkpt><trkpt lat="44.15536570473758" lon="11.323998822005892"><ele>895.0</ele><time>2026-04-19T11:00:38Z</time></trkpt><trkpt lat="44.155229114500436" lon="11.324209572576164"><ele>895.0</ele><time>2026-04-19T11:00:39Z</time></trkpt><trkpt lat="44.155058794284294" lon="11.32435358219695"><ele>895.0</ele><time>2026-04-19T11:00:40Z</time></trkpt><trkpt lat="44.15490876720926" lon="11.32452387231518"><ele>893.6666666666666</ele><time>2026-04-19T11:00:41Z</time></trkpt><trkpt lat="44.15479816926935" lon="11.324716596497428"><ele>892.3333333333333</ele><time>2026-04-19T11:00:42Z</time></trkpt><trkpt lat="44.15472360432442" lon="11.324919722626563"><ele>891.0</ele><time>2026-04-19T11:00:43Z</time></trkpt><trkpt lat="44.15464164345522" lon="11.325079836269017"><ele>891.0</ele><time>2026-04-19T11:00:44Z</time></trkpt><trkpt lat="44.15453330240603" lon="11.325185450098521"><ele>891.0</ele><time>2026-04-19T11:00:45Z</time></trkpt><trkpt lat="44.154388673267725" lon="11.325173636346467"><ele>891.0</ele><time>2026-04-19T11:00:46Z</time></trkpt><trkpt lat="44.15423194759333" lon="11.32514086720604"><ele>891.0</ele><time>2026-04-19T11:00:47Z</time></trkpt><trkpt lat="44.15406101450085" lon="11.32508444448933"><ele>892.6666666666667</ele><time>2026-04-19T11:00:48Z</time></trkpt><trkpt lat="44.15388259199764" lon="11.324986205602753"><ele>894.3333333333334</ele><time>2026-04-19T11:00:49Z</time></trkpt><trkpt lat="44.15371969357313" lon="11.324851582132462"><ele>896.0</ele><time>2026-04-19T11:00:50Z</time></trkpt><trkpt lat="44.153537900581" lon="11.32471194911603"><ele>896.0</ele><time>2026-04-19T11:00:51Z</time></trkpt><trkpt lat="44.15337113405908" lon="11.324552370338294"><ele>896.0</ele><time>2026-04-19T11:00:52Z</time></trkpt><trkpt lat="44.153203167453846" lon="11.32444462751912"><ele>896.0</ele><time>2026-04-19T11:00:53Z</time></trkpt><trkpt lat="44.15303129499357" lon="11.324388811560649"><ele>898.6666666666667</ele><time>2026-04-19T11:00:54Z</time></trkpt><trkpt lat="44.15285516601836" lon="11.324391612233798"><ele>901.3333333333333</ele><time>2026-04-19T11:00:55Z</time></trkpt><trkpt lat="44.152681710333745" lon="11.324478802667974"><ele>904.0</ele><time>2026-04-19T11:00:56Z</time></trkpt><trkpt lat="44.15252513331847" lon="11.324656999607145"><ele>902.3333333333333</ele><time>2026-04-19T11:00:57Z</time></trkpt><trkpt lat="44.15235744734153" lon="11.32482275894426"><ele>900.6666666666667</ele><time>2026-04-19T11:00:58Z</time></trkpt><trkpt lat="44.15219109514485" lon="11.324973468115072"><ele>899.0</ele><time>2026-04-19T11:00:59Z</time></trkpt><trkpt lat="44.1520031018056" lon="11.325124886821976"><ele>899.0</ele><time>2026-04-19T11:01:00Z</time></trkpt><trkpt lat="44.151809900976815" lon="11.325281154094986"><ele>899.0</ele><time>2026-04-19T11:01:01Z</time></trkpt><trkpt lat="44.151634369579256" lon="11.325427289600944"><ele>899.0</ele><time>2026-04-19T11:01:02Z</time></trkpt><trkpt lat="44.151469847254965" lon="11.325557904870537"><ele>895.0</ele><time>2026-04-19T11:01:03Z</time></trkpt><trkpt lat="44.15131682119936" lon="11.325681431931818"><ele>891.0</ele><time>2026-04-19T11:01:04Z</time></trkpt><trkpt lat="44.15116143606912" lon="11.325762731137399"><ele>887.0</ele><time>2026-04-19T11:01:05Z</time></trkpt><trkpt lat="44.151008139228274" lon="11.325846591473745"><ele>887.0</ele><time>2026-04-19T11:01:06Z</time></trkpt><trkpt lat="44.15082582267131" lon="11.325854466130695"><ele>887.0</ele><time>2026-04-19T11:01:07Z</time></trkpt><trkpt lat="44.15062947373847" lon="11.325858857396282"><ele>887.0</ele><time>2026-04-19T11:01:08Z</time></trkpt><trkpt lat="44.1504271070464" lon="11.325872509708278"><ele>890.0</ele><time>2026-04-19T11:01:09Z</time></trkpt><trkpt lat="44.15023830078579" lon="11.325862065351544"><ele>893.0</ele><time>2026-04-19T11:01:10Z</time></trkpt><trkpt lat="44.1500638107344" lon="11.325856753896643"><ele>896.0</ele><time>2026-04-19T11:01:11Z</time></trkpt><trkpt lat="44.14989667877984" lon="11.32584797750823"><ele>900.0</ele><time>2026-04-19T11:01:12Z</time></trkpt><trkpt lat="44.14972332536051" lon="11.325849333673945"><ele>904.0</ele><time>2026-04-19T11:01:13Z</time></trkpt><trkpt lat="44.14955725309178" lon="11.325883975703128"><ele>908.0</ele><time>2026-04-19T11:01:14Z</time></trkpt><trkpt lat="44.14940670156354" lon="11.325986972226547"><ele>908.0</ele><time>2026-04-19T11:01:15Z</time></trkpt><trkpt lat="44.14926514456926" lon="11.326146335420741"><ele>908.0</ele><time>2026-04-19T11:01:16Z</time></trkpt><trkpt lat="44.149123508804124" lon="11.326320897240915"><ele>908.0</ele><time>2026-04-19T11:01:17Z</time></trkpt><trkpt lat="44.1489810374722" lon="11.326498289152171"><ele>907.0</ele><time>2026-04-19T11:01:18Z</time></trkpt><trkpt lat="44.14883330327176" lon="11.326684796710948"><ele>906.0</ele><time>2026-04-19T11:01:19Z</time></trkpt><trkpt lat="44.14869703465274" lon="11.3268865461609"><ele>905.0</ele><time>2026-04-19T11:01:20Z</time></trkpt><trkpt lat="44.14858124378022" lon="11.327069387578526"><ele>898.6666666666667</ele><time>2026-04-19T11:01:21Z</time></trkpt><trkpt lat="44.14846100135865" lon="11.327227912093027"><ele>892.3333333333333</ele><time>2026-04-19T11:01:22Z</time></trkpt><trkpt lat="44.14833547819944" lon="11.327364677141704"><ele>886.0</ele><time>2026-04-19T11:01:23Z</time></trkpt><trkpt lat="44.1482131163275" lon="11.327472090265024"><ele>886.0</ele><time>2026-04-19T11:01:24Z</time></trkpt><trkpt lat="44.14808373436012" lon="11.327491356903575"><ele>886.0</ele><time>2026-04-19T11:01:25Z</time></trkpt><trkpt lat="44.14796730076151" lon="11.327461954048243"><ele>886.0</ele><time>2026-04-19T11:01:26Z</time></trkpt><trkpt lat="44.14784167701347" lon="11.32737289535025"><ele>886.0</ele><time>2026-04-19T11:01:27Z</time></trkpt><trkpt lat="44.14768962160331" lon="11.327276498207604"><ele>887.6666666666666</ele><time>2026-04-19T11:01:28Z</time></trkpt><trkpt lat="44.14753155488409" lon="11.32719118576694"><ele>889.3333333333333</ele><time>2026-04-19T11:01:29Z</time></trkpt><trkpt lat="44.14734832514615" lon="11.327147954742989"><ele>891.0</ele><time>2026-04-19T11:01:30Z</time></trkpt><trkpt lat="44.14715837384538" lon="11.32714837569695"><ele>891.0</ele><time>2026-04-19T11:01:31Z</time></trkpt><trkpt lat="44.14697902191951" lon="11.327182143790694"><ele>891.0</ele><time>2026-04-19T11:01:32Z</time></trkpt><trkpt lat="44.14681168926285" lon="11.32717463716707"><ele>891.0</ele><time>2026-04-19T11:01:33Z</time></trkpt><trkpt lat="44.14664351585593" lon="11.32712843837226"><ele>887.0</ele><time>2026-04-19T11:01:34Z</time></trkpt><trkpt lat="44.14647310065022" lon="11.327033554932829"><ele>883.0</ele><time>2026-04-19T11:01:35Z</time></trkpt><trkpt lat="44.14629542116338" lon="11.32691543141141"><ele>879.0</ele><time>2026-04-19T11:01:36Z</time></trkpt><trkpt lat="44.146122689816885" lon="11.326801800311918"><ele>879.0</ele><time>2026-04-19T11:01:37Z</time></trkpt><trkpt lat="44.14595758119987" lon="11.326715543632941"><ele>879.0</ele><time>2026-04-19T11:01:38Z</time></trkpt><trkpt lat="44.14580035272052" lon="11.326626058591536"><ele>879.0</ele><time>2026-04-19T11:01:39Z</time></trkpt><trkpt lat="44.145638172618604" lon="11.32657359952438"><ele>879.6666666666667</ele><time>2026-04-19T11:01:40Z</time></trkpt><trkpt lat="44.1454709607544" lon="11.32655524016572"><ele>880.3333333333334</ele><time>2026-04-19T11:01:41Z</time></trkpt><trkpt lat="44.14530133364372" lon="11.32658331732335"><ele>881.0</ele><time>2026-04-19T11:01:42Z</time></trkpt><trkpt lat="44.14514443148932" lon="11.326638091282112"><ele>881.0</ele><time>2026-04-19T11:01:43Z</time></trkpt><trkpt lat="44.14499477772388" lon="11.32673992858886"><ele>881.0</ele><time>2026-04-19T11:01:44Z</time></trkpt><trkpt lat="44.144865654371934" lon="11.326896057884843"><ele>881.0</ele><time>2026-04-19T11:01:45Z</time></trkpt><trkpt lat="44.14477064504208" lon="11.327082951919474"><ele>878.5</ele><time>2026-04-19T11:01:46Z</time></trkpt><trkpt lat="44.14470378589631" lon="11.327264170005554"><ele>876.0</ele><time>2026-04-19T11:01:47Z</time></trkpt><trkpt lat="44.1446361743716" lon="11.327408034669586"><ele>873.5</ele><time>2026-04-19T11:01:48Z</time></trkpt><trkpt lat="44.144533807219005" lon="11.327497701716373"><ele>871.0</ele><time>2026-04-19T11:01:49Z</time></trkpt><trkpt lat="44.1444097335609" lon="11.327533269933449"><ele>871.0</ele><time>2026-04-19T11:01:50Z</time></trkpt><trkpt lat="44.14428448332858" lon="11.327494395150252"><ele>871.0</ele><time>2026-04-19T11:01:51Z</time></trkpt><trkpt lat="44.14413342773228" lon="11.32742649484664"><ele>871.0</ele><time>2026-04-19T11:01:52Z</time></trkpt><trkpt lat="44.14397164973984" lon="11.32733780347622"><ele>869.3333333333333</ele><time>2026-04-19T11:01:53Z</time></trkpt><trkpt lat="44.14379578760023" lon="11.32724884280216"><ele>867.6666666666667</ele><time>2026-04-19T11:01:54Z</time></trkpt><trkpt lat="44.14361847289295" lon="11.327172360360873"><ele>866.0</ele><time>2026-04-19T11:01:55Z</time></trkpt><trkpt lat="44.143428645222116" lon="11.32712129581354"><ele>868.0</ele><time>2026-04-19T11:01:56Z</time></trkpt><trkpt lat="44.14322678636285" lon="11.32710956630223"><ele>870.0</ele><time>2026-04-19T11:01:57Z</time></trkpt><trkpt lat="44.14303663261472" lon="11.327135423012063"><ele>872.0</ele><time>2026-04-19T11:01:58Z</time></trkpt><trkpt lat="44.14283871223756" lon="11.32716697846051"><ele>872.0</ele><time>2026-04-19T11:01:59Z</time></trkpt><trkpt lat="44.14264437638765" lon="11.327214143695215"><ele>872.0</ele><time>2026-04-19T11:02:00Z</time></trkpt><trkpt lat="44.14244615566145" lon="11.327291923645742"><ele>872.0</ele><time>2026-04-19T11:02:01Z</time></trkpt><trkpt lat="44.14225356943612" lon="11.327410099044931"><ele>869.6666666666667</ele><time>2026-04-19T11:02:02Z</time></trkpt><trkpt lat="44.14206950096894" lon="11.32756034295458"><ele>867.3333333333333</ele><time>2026-04-19T11:02:03Z</time></trkpt><trkpt lat="44.14189255893751" lon="11.32772603412357"><ele>865.0</ele><time>2026-04-19T11:02:04Z</time></trkpt><trkpt lat="44.141721187954175" lon="11.327872194007602"><ele>865.0</ele><time>2026-04-19T11:02:05Z</time></trkpt><trkpt lat="44.14155653177345" lon="11.32800342353944"><ele>865.0</ele><time>2026-04-19T11:02:06Z</time></trkpt><trkpt lat="44.14139680092698" lon="11.328129710421456"><ele>865.0</ele><time>2026-04-19T11:02:07Z</time></trkpt><trkpt lat="44.14124401172821" lon="11.328250667902735"><ele>863.5</ele><time>2026-04-19T11:02:08Z</time></trkpt><trkpt lat="44.141106305487405" lon="11.328368670708304"><ele>862.0</ele><time>2026-04-19T11:02:09Z</time></trkpt><trkpt lat="44.14098309199367" lon="11.328471276575945"><ele>860.5</ele><time>2026-04-19T11:02:10Z</time></trkpt><trkpt lat="44.14088151648455" lon="11.328554406870664"><ele>859.0</ele><time>2026-04-19T11:02:11Z</time></trkpt><trkpt lat="44.14078110715329" lon="11.32860140316605"><ele>855.25</ele><time>2026-04-19T11:02:12Z</time></trkpt><trkpt lat="44.14067162351485" lon="11.328541934310863"><ele>851.5</ele><time>2026-04-19T11:02:13Z</time></trkpt><trkpt lat="44.14057247668415" lon="11.328445446999634"><ele>847.75</ele><time>2026-04-19T11:02:14Z</time></trkpt><trkpt lat="44.14051873025276" lon="11.328274754042884"><ele>844.0</ele><time>2026-04-19T11:02:15Z</time></trkpt><trkpt lat="44.14049003058285" lon="11.328053612071345"><ele>844.0</ele><time>2026-04-19T11:02:16Z</time></trkpt><trkpt lat="44.140472957484384" lon="11.327845627663025"><ele>844.0</ele><time>2026-04-19T11:02:17Z</time></trkpt><trkpt lat="44.140507846181215" lon="11.327693491035813"><ele>844.0</ele><time>2026-04-19T11:02:18Z</time></trkpt><trkpt lat="44.14059431387988" lon="11.327529877706093"><ele>844.0</ele><time>2026-04-19T11:02:19Z</time></trkpt><trkpt lat="44.140725303228294" lon="11.327401389948607"><ele>844.6666666666666</ele><time>2026-04-19T11:02:20Z</time></trkpt><trkpt lat="44.14087685378596" lon="11.32726730534719"><ele>845.3333333333333</ele><time>2026-04-19T11:02:21Z</time></trkpt><trkpt lat="44.1410100749162" lon="11.32715207854232"><ele>846.0</ele><time>2026-04-19T11:02:22Z</time></trkpt><trkpt lat="44.141135919515975" lon="11.327037838529138"><ele>846.0</ele><time>2026-04-19T11:02:23Z</time></trkpt><trkpt lat="44.14123739309315" lon="11.326909388558366"><ele>846.0</ele><time>2026-04-19T11:02:24Z</time></trkpt><trkpt lat="44.14130744277048" lon="11.326732036711935"><ele>846.0</ele><time>2026-04-19T11:02:25Z</time></trkpt><trkpt lat="44.1413292415185" lon="11.326497359792892"><ele>846.0</ele><time>2026-04-19T11:02:26Z</time></trkpt><trkpt lat="44.141277759963636" lon="11.326243857630672"><ele>846.0</ele><time>2026-04-19T11:02:27Z</time></trkpt><trkpt lat="44.14118639398712" lon="11.32599372566712"><ele>846.0</ele><time>2026-04-19T11:02:28Z</time></trkpt><trkpt lat="44.1411192758362" lon="11.325760983482434"><ele>846.0</ele><time>2026-04-19T11:02:29Z</time></trkpt><trkpt lat="44.141065870308196" lon="11.325569526222521"><ele>846.0</ele><time>2026-04-19T11:02:30Z</time></trkpt><trkpt lat="44.14103165070847" lon="11.325401394733811"><ele>846.0</ele><time>2026-04-19T11:02:31Z</time></trkpt><trkpt lat="44.14106224087701" lon="11.325211673140121"><ele>846.0</ele><time>2026-04-19T11:02:32Z</time></trkpt><trkpt lat="44.14113076866412" lon="11.32497589222417"><ele>844.3333333333333</ele><time>2026-04-19T11:02:33Z</time></trkpt><trkpt lat="44.141176851068074" lon="11.32470418491925"><ele>842.6666666666666</ele><time>2026-04-19T11:02:34Z</time></trkpt><trkpt lat="44.14122348080438" lon="11.324446750137637"><ele>841.0</ele><time>2026-04-19T11:02:35Z</time></trkpt><trkpt lat="44.141252811766556" lon="11.324176604451884"><ele>841.0</ele><time>2026-04-19T11:02:36Z</time></trkpt><trkpt lat="44.141259919446185" lon="11.323909748962825"><ele>841.0</ele><time>2026-04-19T11:02:37Z</time></trkpt><trkpt lat="44.1412428395775" lon="11.3236590224478"><ele>841.0</ele><time>2026-04-19T11:02:38Z</time></trkpt><trkpt lat="44.141176742944566" lon="11.323397122596019"><ele>841.0</ele><time>2026-04-19T11:02:39Z</time></trkpt><trkpt lat="44.14106902990577" lon="11.323142021546637"><ele>841.0</ele><time>2026-04-19T11:02:40Z</time></trkpt><trkpt lat="44.14097001876534" lon="11.322868414233909"><ele>841.0</ele><time>2026-04-19T11:02:41Z</time></trkpt><trkpt lat="44.140865474488386" lon="11.322586244330385"><ele>840.0</ele><time>2026-04-19T11:02:42Z</time></trkpt><trkpt lat="44.14075903546917" lon="11.322329592213885"><ele>839.0</ele><time>2026-04-19T11:02:43Z</time></trkpt><trkpt lat="44.14068142898018" lon="11.32210468399247"><ele>838.0</ele><time>2026-04-19T11:02:44Z</time></trkpt><trkpt lat="44.14061244865203" lon="11.321915519941406"><ele>838.0</ele><time>2026-04-19T11:02:45Z</time></trkpt><trkpt lat="44.14054107122319" lon="11.32177570130134"><ele>838.0</ele><time>2026-04-19T11:02:46Z</time></trkpt><trkpt lat="44.140437046629785" lon="11.321687746464569"><ele>838.0</ele><time>2026-04-19T11:02:47Z</time></trkpt><trkpt lat="44.140294222851075" lon="11.321657269502332"><ele>838.0</ele><time>2026-04-19T11:02:48Z</time></trkpt><trkpt lat="44.1401350409176" lon="11.321650599891761"><ele>838.0</ele><time>2026-04-19T11:02:49Z</time></trkpt><trkpt lat="44.13998162319694" lon="11.32164087705355"><ele>838.0</ele><time>2026-04-19T11:02:50Z</time></trkpt><trkpt lat="44.139849819041984" lon="11.32156716926684"><ele>838.0</ele><time>2026-04-19T11:02:51Z</time></trkpt><trkpt lat="44.139739435019735" lon="11.321419740466864"><ele>838.0</ele><time>2026-04-19T11:02:52Z</time></trkpt><trkpt lat="44.1396189326772" lon="11.321257039424989"><ele>835.3333333333333</ele><time>2026-04-19T11:02:53Z</time></trkpt><trkpt lat="44.139483098324966" lon="11.321095860102195"><ele>832.6666666666667</ele><time>2026-04-19T11:02:54Z</time></trkpt><trkpt lat="44.139365638032146" lon="11.320939998303913"><ele>830.0</ele><time>2026-04-19T11:02:55Z</time></trkpt><trkpt lat="44.13924637423888" lon="11.32079215851691"><ele>830.0</ele><time>2026-04-19T11:02:56Z</time></trkpt><trkpt lat="44.13912495269635" lon="11.320671395649432"><ele>830.0</ele><time>2026-04-19T11:02:57Z</time></trkpt><trkpt lat="44.13899528628945" lon="11.320576385093801"><ele>830.0</ele><time>2026-04-19T11:02:58Z</time></trkpt><trkpt lat="44.138875200132816" lon="11.320490171463618"><ele>830.0</ele><time>2026-04-19T11:02:59Z</time></trkpt><trkpt lat="44.13877775210911" lon="11.320379100121391"><ele>828.25</ele><time>2026-04-19T11:03:00Z</time></trkpt><trkpt lat="44.13871863171897" lon="11.320238634298967"><ele>826.5</ele><time>2026-04-19T11:03:01Z</time></trkpt><trkpt lat="44.1387091632682" lon="11.320075283909418"><ele>824.75</ele><time>2026-04-19T11:03:02Z</time></trkpt><trkpt lat="44.138739787817755" lon="11.319887062682271"><ele>823.0</ele><time>2026-04-19T11:03:03Z</time></trkpt><trkpt lat="44.13877885567928" lon="11.319669248478426"><ele>821.3333333333333</ele><time>2026-04-19T11:03:04Z</time></trkpt><trkpt lat="44.13883021135923" lon="11.319438084427233"><ele>819.6666666666667</ele><time>2026-04-19T11:03:05Z</time></trkpt><trkpt lat="44.13880244162013" lon="11.319251511165797"><ele>818.0</ele><time>2026-04-19T11:03:06Z</time></trkpt><trkpt lat="44.13880628020721" lon="11.318973368113227"><ele>818.0</ele><time>2026-04-19T11:03:07Z</time></trkpt><trkpt lat="44.13881579651883" lon="11.318685286856251"><ele>818.0</ele><time>2026-04-19T11:03:08Z</time></trkpt><trkpt lat="44.13881122220842" lon="11.31839400540362"><ele>818.0</ele><time>2026-04-19T11:03:09Z</time></trkpt><trkpt lat="44.13883651237575" lon="11.318134433321736"><ele>819.3333333333334</ele><time>2026-04-19T11:03:10Z</time></trkpt><trkpt lat="44.13885835509104" lon="11.317885339884453"><ele>820.6666666666667</ele><time>2026-04-19T11:03:11Z</time></trkpt><trkpt lat="44.1388577872812" lon="11.31763998918965"><ele>822.0</ele><time>2026-04-19T11:03:12Z</time></trkpt><trkpt lat="44.13882095977953" lon="11.31741264577334"><ele>825.3333333333333</ele><time>2026-04-19T11:03:13Z</time></trkpt><trkpt lat="44.13873891231105" lon="11.317177005479365"><ele>828.6666666666666</ele><time>2026-04-19T11:03:14Z</time></trkpt><trkpt lat="44.13864171589697" lon="11.31692891240906"><ele>832.0</ele><time>2026-04-19T11:03:15.001Z</time></trkpt><trkpt lat="44.13857327002676" lon="11.316658819890693"><ele>832.0</ele><time>2026-04-19T11:03:16.001Z</time></trkpt><trkpt lat="44.138513473979486" lon="11.316425233289435"><ele>832.0</ele><time>2026-04-19T11:03:17.001Z</time></trkpt><trkpt lat="44.138478377378156" lon="11.316195716764375"><ele>832.0</ele><time>2026-04-19T11:03:18.001Z</time></trkpt><trkpt lat="44.138450070391436" lon="11.315940966317935"><ele>832.6666666666666</ele><time>2026-04-19T11:03:19.001Z</time></trkpt><trkpt lat="44.13842563002661" lon="11.315671923367084"><ele>833.3333333333333</ele><time>2026-04-19T11:03:20.001Z</time></trkpt><trkpt lat="44.13840782983292" lon="11.315393542590117"><ele>834.0</ele><time>2026-04-19T11:03:21.001Z</time></trkpt><trkpt lat="44.13839288218022" lon="11.315123980455697"><ele>834.6666666666667</ele><time>2026-04-19T11:03:22.001Z</time></trkpt><trkpt lat="44.13838425458918" lon="11.314821643682624"><ele>835.3333333333334</ele><time>2026-04-19T11:03:23.001Z</time></trkpt><trkpt lat="44.13837427589736" lon="11.314541130691957"><ele>836.0</ele><time>2026-04-19T11:03:24.001Z</time></trkpt><trkpt lat="44.138368547234805" lon="11.314286409361046"><ele>836.0</ele><time>2026-04-19T11:03:25.001Z</time></trkpt><trkpt lat="44.138386166514486" lon="11.314034813444053"><ele>836.0</ele><time>2026-04-19T11:03:26.001Z</time></trkpt><trkpt lat="44.13841278967423" lon="11.31376457791058"><ele>836.0</ele><time>2026-04-19T11:03:27.001Z</time></trkpt><trkpt lat="44.13844642143204" lon="11.313502265398085"><ele>836.0</ele><time>2026-04-19T11:03:28.001Z</time></trkpt><trkpt lat="44.13846581936377" lon="11.313269338063636"><ele>836.0</ele><time>2026-04-19T11:03:29.001Z</time></trkpt><trkpt lat="44.13849761479612" lon="11.313056445946598"><ele>836.0</ele><time>2026-04-19T11:03:30.001Z</time></trkpt><trkpt lat="44.138509645873086" lon="11.312848776035471"><ele>837.3333333333334</ele><time>2026-04-19T11:03:31.001Z</time></trkpt><trkpt lat="44.138466047609654" lon="11.312661880836346"><ele>838.6666666666667</ele><time>2026-04-19T11:03:32.001Z</time></trkpt><trkpt lat="44.138369930284234" lon="11.312491346966352"><ele>840.0</ele><time>2026-04-19T11:03:33.001Z</time></trkpt><trkpt lat="44.1382431089186" lon="11.31234581853615"><ele>842.25</ele><time>2026-04-19T11:03:34.001Z</time></trkpt><trkpt lat="44.13816668286794" lon="11.312185614117768"><ele>844.5</ele><time>2026-04-19T11:03:35.001Z</time></trkpt><trkpt lat="44.13815713418139" lon="11.312023563158691"><ele>846.75</ele><time>2026-04-19T11:03:36.001Z</time></trkpt><trkpt lat="44.13821359754905" lon="11.311839875609689"><ele>849.0</ele><time>2026-04-19T11:03:37.001Z</time></trkpt><trkpt lat="44.138249132878514" lon="11.311619931907495"><ele>849.25</ele><time>2026-04-19T11:03:38.001Z</time></trkpt><trkpt lat="44.13830523061502" lon="11.311426344964852"><ele>849.5</ele><time>2026-04-19T11:03:39.001Z</time></trkpt><trkpt lat="44.13832900030041" lon="11.31124001383824"><ele>849.75</ele><time>2026-04-19T11:03:40.001Z</time></trkpt><trkpt lat="44.13830075908384" lon="11.31103303364266"><ele>850.0</ele><time>2026-04-19T11:03:41.001Z</time></trkpt><trkpt lat="44.13821717259602" lon="11.310811044970961"><ele>850.0</ele><time>2026-04-19T11:03:42.001Z</time></trkpt><trkpt lat="44.13815575445369" lon="11.31058246992921"><ele>850.0</ele><time>2026-04-19T11:03:43.001Z</time></trkpt><trkpt lat="44.13808584952639" lon="11.310355155030216"><ele>850.0</ele><time>2026-04-19T11:03:44.001Z</time></trkpt><trkpt lat="44.13802418407017" lon="11.310121816095553"><ele>850.3333333333333</ele><time>2026-04-19T11:03:45.001Z</time></trkpt><trkpt lat="44.137976118743055" lon="11.309883532664129"><ele>850.6666666666667</ele><time>2026-04-19T11:03:46.001Z</time></trkpt><trkpt lat="44.137925568078764" lon="11.309664412257286"><ele>851.0</ele><time>2026-04-19T11:03:47.001Z</time></trkpt><trkpt lat="44.13788128384386" lon="11.3094653750594"><ele>852.3333333333334</ele><time>2026-04-19T11:03:48.001Z</time></trkpt><trkpt lat="44.13782938311035" lon="11.309274388180777"><ele>853.6666666666667</ele><time>2026-04-19T11:03:49.001Z</time></trkpt><trkpt lat="44.13774882088868" lon="11.309109492402968"><ele>855.0</ele><time>2026-04-19T11:03:50.001Z</time></trkpt><trkpt lat="44.13760830032904" lon="11.308980085174527"><ele>856.3333333333333</ele><time>2026-04-19T11:03:51.001Z</time></trkpt><trkpt lat="44.13743091163778" lon="11.308875372330366"><ele>857.6666666666666</ele><time>2026-04-19T11:03:52.001Z</time></trkpt><trkpt lat="44.137257616210334" lon="11.308752017485387"><ele>859.0</ele><time>2026-04-19T11:03:53.001Z</time></trkpt><trkpt lat="44.13708716548927" lon="11.308633090904834"><ele>859.0</ele><time>2026-04-19T11:03:54.001Z</time></trkpt><trkpt lat="44.13693323237666" lon="11.30852643349183"><ele>859.0</ele><time>2026-04-19T11:03:55Z</time></trkpt><trkpt lat="44.13679935432556" lon="11.308431813287807"><ele>859.0</ele><time>2026-04-19T11:03:56Z</time></trkpt><trkpt lat="44.13668190409907" lon="11.308332242804886"><ele>859.0</ele><time>2026-04-19T11:03:57Z</time></trkpt><trkpt lat="44.13659233958687" lon="11.308217640422907"><ele>859.0</ele><time>2026-04-19T11:03:58Z</time></trkpt><trkpt lat="44.13652542980648" lon="11.308081955113042"><ele>859.0</ele><time>2026-04-19T11:03:59Z</time></trkpt><trkpt lat="44.136454592723304" lon="11.307935776466495"><ele>859.0</ele><time>2026-04-19T11:04:00Z</time></trkpt><trkpt lat="44.13638382557379" lon="11.3077840716973"><ele>858.25</ele><time>2026-04-19T11:04:01Z</time></trkpt><trkpt lat="44.136318365989666" lon="11.307616858850402"><ele>857.5</ele><time>2026-04-19T11:04:02Z</time></trkpt><trkpt lat="44.136257308789965" lon="11.307438939289638"><ele>856.75</ele><time>2026-04-19T11:04:03Z</time></trkpt><trkpt lat="44.136211658971256" lon="11.307242770580931"><ele>856.0</ele><time>2026-04-19T11:04:04Z</time></trkpt><trkpt lat="44.136167095628835" lon="11.307048473650852"><ele>858.3333333333333</ele><time>2026-04-19T11:04:05Z</time></trkpt><trkpt lat="44.136100544170816" lon="11.306859380160509"><ele>860.6666666666667</ele><time>2026-04-19T11:04:06Z</time></trkpt><trkpt lat="44.13598416273197" lon="11.306706415626879"><ele>863.0</ele><time>2026-04-19T11:04:07Z</time></trkpt><trkpt lat="44.135877597757435" lon="11.306541210384047"><ele>867.25</ele><time>2026-04-19T11:04:08Z</time></trkpt><trkpt lat="44.13578153878987" lon="11.3063977852936"><ele>871.5</ele><time>2026-04-19T11:04:09Z</time></trkpt><trkpt lat="44.135661246229255" lon="11.306293274130303"><ele>875.75</ele><time>2026-04-19T11:04:10Z</time></trkpt><trkpt lat="44.135514222069524" lon="11.306233748968268"><ele>880.0</ele><time>2026-04-19T11:04:11Z</time></trkpt><trkpt lat="44.13536048320227" lon="11.3062028285601"><ele>881.0</ele><time>2026-04-19T11:04:12Z</time></trkpt><trkpt lat="44.135204239628045" lon="11.306158694138725"><ele>882.0</ele><time>2026-04-19T11:04:13Z</time></trkpt><trkpt lat="44.135041965937795" lon="11.306118951196911"><ele>883.0</ele><time>2026-04-19T11:04:14Z</time></trkpt><trkpt lat="44.13487664306796" lon="11.306080500374623"><ele>879.0</ele><time>2026-04-19T11:04:15Z</time></trkpt><trkpt lat="44.13471090683177" lon="11.306041833799966"><ele>875.0</ele><time>2026-04-19T11:04:16Z</time></trkpt><trkpt lat="44.134557291120785" lon="11.306000186664976"><ele>871.0</ele><time>2026-04-19T11:04:17Z</time></trkpt><trkpt lat="44.13442559399092" lon="11.305939249207704"><ele>871.0</ele><time>2026-04-19T11:04:18Z</time></trkpt><trkpt lat="44.13429959923997" lon="11.305854496932737"><ele>871.0</ele><time>2026-04-19T11:04:19Z</time></trkpt><trkpt lat="44.134157930824806" lon="11.30577056066341"><ele>871.0</ele><time>2026-04-19T11:04:20Z</time></trkpt><trkpt lat="44.13406651766395" lon="11.305614020721581"><ele>871.0</ele><time>2026-04-19T11:04:21Z</time></trkpt><trkpt lat="44.133969161949615" lon="11.305504439209306"><ele>875.25</ele><time>2026-04-19T11:04:22Z</time></trkpt><trkpt lat="44.13388562251856" lon="11.305403215199226"><ele>879.5</ele><time>2026-04-19T11:04:23Z</time></trkpt><trkpt lat="44.1338780256904" lon="11.305233990816435"><ele>883.75</ele><time>2026-04-19T11:04:24Z</time></trkpt><trkpt lat="44.13386161569493" lon="11.305046240753727"><ele>888.0</ele><time>2026-04-19T11:04:25Z</time></trkpt><trkpt lat="44.13382835942175" lon="11.304864871637337"><ele>895.75</ele><time>2026-04-19T11:04:26Z</time></trkpt><trkpt lat="44.1337621600274" lon="11.3047265333373"><ele>903.5</ele><time>2026-04-19T11:04:27Z</time></trkpt><trkpt lat="44.13366383874296" lon="11.304638741654818"><ele>911.25</ele><time>2026-04-19T11:04:28Z</time></trkpt><trkpt lat="44.13353993333202" lon="11.304645262414004"><ele>919.0</ele><time>2026-04-19T11:04:29Z</time></trkpt><trkpt lat="44.13341755737881" lon="11.304729325140547"><ele>911.0</ele><time>2026-04-19T11:04:30Z</time></trkpt><trkpt lat="44.13329558013792" lon="11.304856117684215"><ele>903.0</ele><time>2026-04-19T11:04:31Z</time></trkpt><trkpt lat="44.13314699909249" lon="11.304924082556262"><ele>895.0</ele><time>2026-04-19T11:04:32Z</time></trkpt><trkpt lat="44.132975171966784" lon="11.304975723171163"><ele>895.0</ele><time>2026-04-19T11:04:33Z</time></trkpt><trkpt lat="44.13278953980948" lon="11.30501459925687"><ele>895.0</ele><time>2026-04-19T11:04:34Z</time></trkpt><trkpt lat="44.13260889761037" lon="11.3050342564022"><ele>895.0</ele><time>2026-04-19T11:04:35Z</time></trkpt><trkpt lat="44.13246117566999" lon="11.305048294325797"><ele>892.3333333333333</ele><time>2026-04-19T11:04:36Z</time></trkpt><trkpt lat="44.132309435909335" lon="11.305030844641056"><ele>889.6666666666667</ele><time>2026-04-19T11:04:37Z</time></trkpt><trkpt lat="44.13215500348486" lon="11.304939897326506"><ele>887.0</ele><time>2026-04-19T11:04:38Z</time></trkpt><trkpt lat="44.1319797618728" lon="11.304815124596633"><ele>892.0</ele><time>2026-04-19T11:04:39Z</time></trkpt><trkpt lat="44.13179782841255" lon="11.304682026685825"><ele>897.0</ele><time>2026-04-19T11:04:40Z</time></trkpt><trkpt lat="44.13163566930475" lon="11.304509229219644"><ele>902.0</ele><time>2026-04-19T11:04:41Z</time></trkpt><trkpt lat="44.131435659130716" lon="11.30440342246916"><ele>902.0</ele><time>2026-04-19T11:04:42Z</time></trkpt><trkpt lat="44.1312154919416" lon="11.3043030778731"><ele>902.0</ele><time>2026-04-19T11:04:43Z</time></trkpt><trkpt lat="44.13098337986076" lon="11.304239011205311"><ele>902.0</ele><time>2026-04-19T11:04:44Z</time></trkpt><trkpt lat="44.13075092119536" lon="11.304159205814338"><ele>902.0</ele><time>2026-04-19T11:04:45Z</time></trkpt><trkpt lat="44.130510616933385" lon="11.30408867828203"><ele>899.0</ele><time>2026-04-19T11:04:46Z</time></trkpt><trkpt lat="44.13026995776108" lon="11.30399443593269"><ele>896.0</ele><time>2026-04-19T11:04:47Z</time></trkpt><trkpt lat="44.13001967894532" lon="11.303895831998767"><ele>907.0</ele><time>2026-04-19T11:04:48Z</time></trkpt><trkpt lat="44.129787555732236" lon="11.30377545382818"><ele>918.0</ele><time>2026-04-19T11:04:49Z</time></trkpt><trkpt lat="44.12958595824344" lon="11.303680423435955"><ele>918.0</ele><time>2026-04-19T11:04:50Z</time></trkpt><trkpt lat="44.12942020890344" lon="11.303641388595382"><ele>918.0</ele><time>2026-04-19T11:04:51Z</time></trkpt><trkpt lat="44.12927455374824" lon="11.303647390847331"><ele>918.0</ele><time>2026-04-19T11:04:52Z</time></trkpt><trkpt lat="44.12915370818803" lon="11.303645464838572"><ele>918.0</ele><time>2026-04-19T11:04:53Z</time></trkpt><trkpt lat="44.129070344897386" lon="11.303551463678316"><ele>919.75</ele><time>2026-04-19T11:04:54Z</time></trkpt><trkpt lat="44.12901194298458" lon="11.303407802725086"><ele>921.5</ele><time>2026-04-19T11:04:55Z</time></trkpt><trkpt lat="44.12896169010774" lon="11.303202456624827"><ele>923.25</ele><time>2026-04-19T11:04:56Z</time></trkpt><trkpt lat="44.12888733281637" lon="11.302989184722936"><ele>925.0</ele><time>2026-04-19T11:04:57Z</time></trkpt><trkpt lat="44.12877755991716" lon="11.302782829520545"><ele>925.0</ele><time>2026-04-19T11:04:58Z</time></trkpt><trkpt lat="44.128632201223866" lon="11.302604139080515"><ele>925.0</ele><time>2026-04-19T11:04:59Z</time></trkpt><trkpt lat="44.12846486991558" lon="11.302468015352956"><ele>925.0</ele><time>2026-04-19T11:05:00Z</time></trkpt><trkpt lat="44.12827364892631" lon="11.302377773246503"><ele>926.6666666666666</ele><time>2026-04-19T11:05:01Z</time></trkpt><trkpt lat="44.12810105720045" lon="11.302289250649892"><ele>928.3333333333333</ele><time>2026-04-19T11:05:02Z</time></trkpt><trkpt lat="44.12793548463068" lon="11.302170384779377"><ele>930.0</ele><time>2026-04-19T11:05:03Z</time></trkpt><trkpt lat="44.127769029091425" lon="11.30206693089591"><ele>930.0</ele><time>2026-04-19T11:05:04Z</time></trkpt><trkpt lat="44.12760986757518" lon="11.30193927631878"><ele>930.0</ele><time>2026-04-19T11:05:05Z</time></trkpt><trkpt lat="44.127454187911454" lon="11.301771536781551"><ele>930.0</ele><time>2026-04-19T11:05:06Z</time></trkpt><trkpt lat="44.12729396687051" lon="11.301591044572023"><ele>930.6666666666667</ele><time>2026-04-19T11:05:07Z</time></trkpt><trkpt lat="44.12712438230004" lon="11.301422720940808"><ele>931.3333333333334</ele><time>2026-04-19T11:05:08Z</time></trkpt><trkpt lat="44.126975952359196" lon="11.30123022830683"><ele>932.0</ele><time>2026-04-19T11:05:09Z</time></trkpt><trkpt lat="44.1267987390337" lon="11.301084007525901"><ele>932.0</ele><time>2026-04-19T11:05:10Z</time></trkpt><trkpt lat="44.12661845655529" lon="11.300938121500533"><ele>932.0</ele><time>2026-04-19T11:05:11Z</time></trkpt><trkpt lat="44.12642434234486" lon="11.300799639154768"><ele>932.0</ele><time>2026-04-19T11:05:12Z</time></trkpt><trkpt lat="44.126213102886815" lon="11.300698972637226"><ele>926.0</ele><time>2026-04-19T11:05:13Z</time></trkpt><trkpt lat="44.12597946573838" lon="11.300648290873657"><ele>920.0</ele><time>2026-04-19T11:05:14Z</time></trkpt><trkpt lat="44.12572899851546" lon="11.300638237881374"><ele>916.0</ele><time>2026-04-19T11:05:15Z</time></trkpt><trkpt lat="44.125483637542914" lon="11.300622561702685"><ele>912.0</ele><time>2026-04-19T11:05:16Z</time></trkpt><trkpt lat="44.12525640892889" lon="11.300595264087848"><ele>919.0</ele><time>2026-04-19T11:05:17Z</time></trkpt><trkpt lat="44.12503838359769" lon="11.300569848098558"><ele>926.0</ele><time>2026-04-19T11:05:18Z</time></trkpt><trkpt lat="44.12482526633559" lon="11.300551385249326"><ele>933.0</ele><time>2026-04-19T11:05:19Z</time></trkpt><trkpt lat="44.12461298909426" lon="11.300569649771093"><ele>926.6666666666667</ele><time>2026-04-19T11:05:20Z</time></trkpt><trkpt lat="44.124412712157735" lon="11.300640045476712"><ele>920.3333333333334</ele><time>2026-04-19T11:05:21.001Z</time></trkpt><trkpt lat="44.124223740127796" lon="11.300736165995254"><ele>914.0</ele><time>2026-04-19T11:05:22.001Z</time></trkpt><trkpt lat="44.1240414372635" lon="11.30079060936103"><ele>914.0</ele><time>2026-04-19T11:05:23.001Z</time></trkpt><trkpt lat="44.123862585495935" lon="11.300814988785989"><ele>914.0</ele><time>2026-04-19T11:05:24.001Z</time></trkpt><trkpt lat="44.123675756574194" lon="11.30078499409096"><ele>914.0</ele><time>2026-04-19T11:05:25.001Z</time></trkpt><trkpt lat="44.12348710242624" lon="11.300752116922474"><ele>914.0</ele><time>2026-04-19T11:05:26.001Z</time></trkpt><trkpt lat="44.123310190568574" lon="11.300739200547438"><ele>914.0</ele><time>2026-04-19T11:05:27.001Z</time></trkpt><trkpt lat="44.12315937111253" lon="11.300691788932596"><ele>914.0</ele><time>2026-04-19T11:05:28.001Z</time></trkpt><trkpt lat="44.12301043354355" lon="11.300681231570557"><ele>909.0</ele><time>2026-04-19T11:05:29.001Z</time></trkpt><trkpt lat="44.12286208914486" lon="11.300577534898538"><ele>904.0</ele><time>2026-04-19T11:05:30.001Z</time></trkpt><trkpt lat="44.12272750827779" lon="11.300401126240413"><ele>899.0</ele><time>2026-04-19T11:05:31.001Z</time></trkpt><trkpt lat="44.12261843012031" lon="11.30015481478105"><ele>899.0</ele><time>2026-04-19T11:05:32.001Z</time></trkpt><trkpt lat="44.122531598799945" lon="11.299854819112419"><ele>899.0</ele><time>2026-04-19T11:05:33.001Z</time></trkpt><trkpt lat="44.122414960153975" lon="11.299574834886274"><ele>894.3333333333334</ele><time>2026-04-19T11:05:34.001Z</time></trkpt><trkpt lat="44.12230034682642" lon="11.299298681711624"><ele>889.6666666666667</ele><time>2026-04-19T11:05:35.001Z</time></trkpt><trkpt lat="44.12219530259166" lon="11.299039333105679"><ele>885.0</ele><time>2026-04-19T11:05:36.001Z</time></trkpt><trkpt lat="44.12209811172206" lon="11.298788398903818"><ele>885.0</ele><time>2026-04-19T11:05:37.001Z</time></trkpt><trkpt lat="44.12202405943236" lon="11.298542552478054"><ele>885.0</ele><time>2026-04-19T11:05:38.001Z</time></trkpt><trkpt lat="44.121983229340856" lon="11.298269188279157"><ele>885.0</ele><time>2026-04-19T11:05:39.001Z</time></trkpt><trkpt lat="44.121978254779506" lon="11.297981436412089"><ele>885.5</ele><time>2026-04-19T11:05:40.001Z</time></trkpt><trkpt lat="44.1219898122154" lon="11.29764922170629"><ele>886.0</ele><time>2026-04-19T11:05:41.001Z</time></trkpt><trkpt lat="44.12199995374322" lon="11.297340199503246"><ele>885.0</ele><time>2026-04-19T11:05:42.001Z</time></trkpt><trkpt lat="44.122011493037576" lon="11.297061956738341"><ele>884.0</ele><time>2026-04-19T11:05:43.001Z</time></trkpt><trkpt lat="44.12202188709534" lon="11.296807665931421"><ele>883.0</ele><time>2026-04-19T11:05:44.001Z</time></trkpt><trkpt lat="44.12203231742063" lon="11.296560307257849"><ele>884.0</ele><time>2026-04-19T11:05:45.001Z</time></trkpt><trkpt lat="44.12204361244181" lon="11.296334342452527"><ele>885.0</ele><time>2026-04-19T11:05:46.001Z</time></trkpt><trkpt lat="44.12199267587318" lon="11.296110931847181"><ele>886.0</ele><time>2026-04-19T11:05:47.001Z</time></trkpt><trkpt lat="44.12188607944558" lon="11.295951840927666"><ele>886.0</ele><time>2026-04-19T11:05:48.001Z</time></trkpt><trkpt lat="44.12176251555777" lon="11.295830019271008"><ele>886.0</ele><time>2026-04-19T11:05:49.001Z</time></trkpt><trkpt lat="44.121620069948584" lon="11.29575664460468"><ele>886.0</ele><time>2026-04-19T11:05:50.001Z</time></trkpt><trkpt lat="44.12150660398453" lon="11.2956425147143"><ele>886.0</ele><time>2026-04-19T11:05:51.001Z</time></trkpt><trkpt lat="44.1213874475214" lon="11.295485928750564"><ele>879.3333333333333</ele><time>2026-04-19T11:05:52.001Z</time></trkpt><trkpt lat="44.12128357760971" lon="11.295274987340761"><ele>872.6666666666667</ele><time>2026-04-19T11:05:53.001Z</time></trkpt><trkpt lat="44.12115210759782" lon="11.295077807653003"><ele>866.0</ele><time>2026-04-19T11:05:54.001Z</time></trkpt><trkpt lat="44.121023723825616" lon="11.294835787303033"><ele>867.6666666666667</ele><time>2026-04-19T11:05:55.001Z</time></trkpt><trkpt lat="44.12090117604561" lon="11.294590935431223"><ele>869.3333333333333</ele><time>2026-04-19T11:05:56.001Z</time></trkpt><trkpt lat="44.1208170791868" lon="11.294300527920509"><ele>871.0</ele><time>2026-04-19T11:05:57.001Z</time></trkpt><trkpt lat="44.120700771192425" lon="11.294039804029794"><ele>866.0</ele><time>2026-04-19T11:05:58.001Z</time></trkpt><trkpt lat="44.12057983067794" lon="11.293782689894522"><ele>861.0</ele><time>2026-04-19T11:05:59.001Z</time></trkpt><trkpt lat="44.12041895256544" lon="11.293549194625994"><ele>861.0</ele><time>2026-04-19T11:06:00.001Z</time></trkpt><trkpt lat="44.12023403502088" lon="11.29334070544336"><ele>861.0</ele><time>2026-04-19T11:06:01.001Z</time></trkpt><trkpt lat="44.120047503494064" lon="11.293151300963071"><ele>860.6666666666667</ele><time>2026-04-19T11:06:02.001Z</time></trkpt><trkpt lat="44.11988018500621" lon="11.292976283955142"><ele>860.3333333333334</ele><time>2026-04-19T11:06:03.001Z</time></trkpt><trkpt lat="44.1197268670446" lon="11.292799503169144"><ele>860.0</ele><time>2026-04-19T11:06:04.001Z</time></trkpt><trkpt lat="44.11958344797828" lon="11.292638808192008"><ele>860.0</ele><time>2026-04-19T11:06:05.001Z</time></trkpt><trkpt lat="44.119462426847115" lon="11.292441133707984"><ele>860.0</ele><time>2026-04-19T11:06:06.001Z</time></trkpt><trkpt lat="44.11935332038876" lon="11.292240060464072"><ele>860.0</ele><time>2026-04-19T11:06:07.001Z</time></trkpt><trkpt lat="44.119279301720034" lon="11.292026018876347"><ele>860.6666666666667</ele><time>2026-04-19T11:06:08.001Z</time></trkpt><trkpt lat="44.119230111747996" lon="11.29179263093512"><ele>861.3333333333333</ele><time>2026-04-19T11:06:09Z</time></trkpt><trkpt lat="44.11921332052057" lon="11.291546195160741"><ele>862.0</ele><time>2026-04-19T11:06:10Z</time></trkpt><trkpt lat="44.11921046532793" lon="11.291270226014506"><ele>862.6666666666666</ele><time>2026-04-19T11:06:11Z</time></trkpt><trkpt lat="44.11920792055471" lon="11.290983123395401"><ele>863.3333333333333</ele><time>2026-04-19T11:06:12Z</time></trkpt><trkpt lat="44.11919135821454" lon="11.290681582417193"><ele>864.0</ele><time>2026-04-19T11:06:13Z</time></trkpt><trkpt lat="44.11918796208652" lon="11.2903909632685"><ele>866.0</ele><time>2026-04-19T11:06:14Z</time></trkpt><trkpt lat="44.11918950023387" lon="11.290120163591354"><ele>868.0</ele><time>2026-04-19T11:06:15Z</time></trkpt><trkpt lat="44.119186340287975" lon="11.289876830351515"><ele>870.0</ele><time>2026-04-19T11:06:16Z</time></trkpt><trkpt lat="44.11917637873985" lon="11.289650533398827"><ele>869.6666666666667</ele><time>2026-04-19T11:06:17Z</time></trkpt><trkpt lat="44.11911717921049" lon="11.28944957645352"><ele>869.3333333333334</ele><time>2026-04-19T11:06:18Z</time></trkpt><trkpt lat="44.11900482102629" lon="11.289271647653171"><ele>869.0</ele><time>2026-04-19T11:06:19Z</time></trkpt><trkpt lat="44.118843032105666" lon="11.289128777437439"><ele>869.0</ele><time>2026-04-19T11:06:20Z</time></trkpt><trkpt lat="44.11864514935321" lon="11.28900732759063"><ele>869.0</ele><time>2026-04-19T11:06:21Z</time></trkpt><trkpt lat="44.11844458911638" lon="11.288866580223326"><ele>869.0</ele><time>2026-04-19T11:06:22Z</time></trkpt><trkpt lat="44.11825786650446" lon="11.288711801858755"><ele>865.6666666666667</ele><time>2026-04-19T11:06:23Z</time></trkpt><trkpt lat="44.11808838746516" lon="11.288568627316764"><ele>862.3333333333333</ele><time>2026-04-19T11:06:24Z</time></trkpt><trkpt lat="44.1179392808067" lon="11.288412692419248"><ele>859.0</ele><time>2026-04-19T11:06:25Z</time></trkpt><trkpt lat="44.11781194593598" lon="11.288256842189575"><ele>859.3333333333333</ele><time>2026-04-19T11:06:26Z</time></trkpt><trkpt lat="44.11771146118378" lon="11.288078846750548"><ele>859.6666666666667</ele><time>2026-04-19T11:06:27Z</time></trkpt><trkpt lat="44.11764132545337" lon="11.28785862210714"><ele>860.0</ele><time>2026-04-19T11:06:28Z</time></trkpt><trkpt lat="44.117611175290065" lon="11.287614676793735"><ele>860.0</ele><time>2026-04-19T11:06:29Z</time></trkpt><trkpt lat="44.11757928569032" lon="11.287372048331864"><ele>860.0</ele><time>2026-04-19T11:06:30Z</time></trkpt><trkpt lat="44.11753096031484" lon="11.287157546670409"><ele>860.0</ele><time>2026-04-19T11:06:31Z</time></trkpt><trkpt lat="44.11749126267111" lon="11.286948287420714"><ele>861.25</ele><time>2026-04-19T11:06:32Z</time></trkpt><trkpt lat="44.117432586008555" lon="11.286773748146674"><ele>862.5</ele><time>2026-04-19T11:06:33Z</time></trkpt><trkpt lat="44.117340054207716" lon="11.286655323793477"><ele>863.75</ele><time>2026-04-19T11:06:34Z</time></trkpt><trkpt lat="44.11721851499993" lon="11.286586943822664"><ele>865.0</ele><time>2026-04-19T11:06:35Z</time></trkpt><trkpt lat="44.11707744290893" lon="11.286590620717313"><ele>869.3333333333333</ele><time>2026-04-19T11:06:36Z</time></trkpt><trkpt lat="44.116933920652556" lon="11.2866795018283"><ele>873.6666666666667</ele><time>2026-04-19T11:06:37Z</time></trkpt><trkpt lat="44.11682093393529" lon="11.28683271690898"><ele>878.0</ele><time>2026-04-19T11:06:38Z</time></trkpt><trkpt lat="44.11673911396708" lon="11.28707976813678"><ele>874.3333333333334</ele><time>2026-04-19T11:06:39Z</time></trkpt><trkpt lat="44.11667502465322" lon="11.28734281430032"><ele>870.6666666666667</ele><time>2026-04-19T11:06:40Z</time></trkpt><trkpt lat="44.11659388855454" lon="11.287613463836282"><ele>867.0</ele><time>2026-04-19T11:06:41Z</time></trkpt><trkpt lat="44.116529068168695" lon="11.287847969774056"><ele>867.0</ele><time>2026-04-19T11:06:42Z</time></trkpt><trkpt lat="44.116470289098125" lon="11.288041887175357"><ele>867.0</ele><time>2026-04-19T11:06:43Z</time></trkpt><trkpt lat="44.116398424059234" lon="11.288212576354308"><ele>867.0</ele><time>2026-04-19T11:06:44Z</time></trkpt><trkpt lat="44.11628442501081" lon="11.288312993447843"><ele>867.0</ele><time>2026-04-19T11:06:45Z</time></trkpt><trkpt lat="44.11617533301626" lon="11.28837041004326"><ele>865.75</ele><time>2026-04-19T11:06:46Z</time></trkpt><trkpt lat="44.11604939790706" lon="11.288369364483458"><ele>864.5</ele><time>2026-04-19T11:06:47Z</time></trkpt><trkpt lat="44.11591059333152" lon="11.288305199637948"><ele>863.25</ele><time>2026-04-19T11:06:48Z</time></trkpt><trkpt lat="44.115752372653795" lon="11.288194436059603"><ele>862.0</ele><time>2026-04-19T11:06:49Z</time></trkpt><trkpt lat="44.115650447461505" lon="11.288044713976072"><ele>859.6666666666666</ele><time>2026-04-19T11:06:50Z</time></trkpt><trkpt lat="44.11556980297733" lon="11.287843045449799"><ele>857.3333333333333</ele><time>2026-04-19T11:06:51Z</time></trkpt><trkpt lat="44.115491148667395" lon="11.287579956666757"><ele>855.0</ele><time>2026-04-19T11:06:52Z</time></trkpt><trkpt lat="44.115413884741066" lon="11.287302938742025"><ele>858.5</ele><time>2026-04-19T11:06:53Z</time></trkpt><trkpt lat="44.11531587674853" lon="11.287049911340286"><ele>862.0</ele><time>2026-04-19T11:06:54Z</time></trkpt><trkpt lat="44.115221017293365" lon="11.28672873482971"><ele>862.0</ele><time>2026-04-19T11:06:55Z</time></trkpt><trkpt lat="44.11509129791842" lon="11.286609027554691"><ele>862.0</ele><time>2026-04-19T11:06:56Z</time></trkpt><trkpt lat="44.11493071217224" lon="11.286468936547413"><ele>862.0</ele><time>2026-04-19T11:06:57Z</time></trkpt><trkpt lat="44.11472675850111" lon="11.28636986894395"><ele>862.0</ele><time>2026-04-19T11:06:58Z</time></trkpt><trkpt lat="44.11448961861601" lon="11.286305503082907"><ele>862.0</ele><time>2026-04-19T11:06:59Z</time></trkpt><trkpt lat="44.11423800649979" lon="11.286261589828175"><ele>856.5</ele><time>2026-04-19T11:07:00Z</time></trkpt><trkpt lat="44.114011164418585" lon="11.286208440987316"><ele>851.0</ele><time>2026-04-19T11:07:01Z</time></trkpt><trkpt lat="44.11380551957518" lon="11.286070942078576"><ele>851.0</ele><time>2026-04-19T11:07:02Z</time></trkpt><trkpt lat="44.11358514009178" lon="11.285916978893619"><ele>851.0</ele><time>2026-04-19T11:07:03Z</time></trkpt><trkpt lat="44.11336234770504" lon="11.28575730469957"><ele>850.5</ele><time>2026-04-19T11:07:04Z</time></trkpt><trkpt lat="44.11313335923352" lon="11.285597041380855"><ele>850.0</ele><time>2026-04-19T11:07:05Z</time></trkpt><trkpt lat="44.11289954427324" lon="11.285451603342398"><ele>852.5</ele><time>2026-04-19T11:07:06Z</time></trkpt><trkpt lat="44.112694531753185" lon="11.285299921826253"><ele>855.0</ele><time>2026-04-19T11:07:07Z</time></trkpt><trkpt lat="44.112497728104714" lon="11.285165408196209"><ele>854.0</ele><time>2026-04-19T11:07:08Z</time></trkpt><trkpt lat="44.11229614347972" lon="11.285067589990145"><ele>853.0</ele><time>2026-04-19T11:07:09Z</time></trkpt><trkpt lat="44.11208391144497" lon="11.285034084471098"><ele>852.0</ele><time>2026-04-19T11:07:10Z</time></trkpt><trkpt lat="44.111884942652196" lon="11.285034894283791"><ele>852.0</ele><time>2026-04-19T11:07:11Z</time></trkpt><trkpt lat="44.111714320156686" lon="11.285040649129796"><ele>852.0</ele><time>2026-04-19T11:07:12Z</time></trkpt><trkpt lat="44.11156872395765" lon="11.285010447210022"><ele>852.0</ele><time>2026-04-19T11:07:13Z</time></trkpt><trkpt lat="44.11143479314695" lon="11.28498006567902"><ele>852.25</ele><time>2026-04-19T11:07:14Z</time></trkpt><trkpt lat="44.11131061227305" lon="11.284914598931437"><ele>852.5</ele><time>2026-04-19T11:07:15Z</time></trkpt><trkpt lat="44.11119171279769" lon="11.284819585009926"><ele>852.75</ele><time>2026-04-19T11:07:16Z</time></trkpt><trkpt lat="44.11107705994133" lon="11.284730876029665"><ele>853.0</ele><time>2026-04-19T11:07:17Z</time></trkpt><trkpt lat="44.11096614542749" lon="11.284639281873291"><ele>853.0</ele><time>2026-04-19T11:07:18Z</time></trkpt><trkpt lat="44.110860999511644" lon="11.28455301259775"><ele>853.0</ele><time>2026-04-19T11:07:19Z</time></trkpt><trkpt lat="44.110764194313596" lon="11.284474473417713"><ele>853.0</ele><time>2026-04-19T11:07:20Z</time></trkpt><trkpt lat="44.11066680383793" lon="11.284395512801519"><ele>853.0</ele><time>2026-04-19T11:07:21Z</time></trkpt><trkpt lat="44.11057026935257" lon="11.284317704755441"><ele>852.5999999999999</ele><time>2026-04-19T11:07:22Z</time></trkpt><trkpt lat="44.11047453000924" lon="11.284239540516342"><ele>852.1999999999999</ele><time>2026-04-19T11:07:23Z</time></trkpt><trkpt lat="44.11037991121681" lon="11.28416261664292"><ele>851.8</ele><time>2026-04-19T11:07:24Z</time></trkpt><trkpt lat="44.110288695340415" lon="11.284091812367457"><ele>851.4</ele><time>2026-04-19T11:07:25Z</time></trkpt><trkpt lat="44.11019940229468" lon="11.284022500630217"><ele>851.0</ele><time>2026-04-19T11:07:26Z</time></trkpt><trkpt lat="44.110109377608154" lon="11.283976632718533"><ele>852.8</ele><time>2026-04-19T11:07:27.001Z</time></trkpt><trkpt lat="44.110032225602026" lon="11.283911968797089"><ele>854.5999999999999</ele><time>2026-04-19T11:07:28.001Z</time></trkpt><trkpt lat="44.109959596577035" lon="11.283828676009549"><ele>856.4</ele><time>2026-04-19T11:07:29.001Z</time></trkpt><trkpt lat="44.10987191144079" lon="11.283758361973618"><ele>858.2</ele><time>2026-04-19T11:07:30.001Z</time></trkpt><trkpt lat="44.10978472542165" lon="11.283695857533083"><ele>860.0</ele><time>2026-04-19T11:07:31.001Z</time></trkpt><trkpt lat="44.1096962891983" lon="11.283644555928058"><ele>860.0</ele><time>2026-04-19T11:07:32.001Z</time></trkpt><trkpt lat="44.109599497283966" lon="11.283602192319067"><ele>860.0</ele><time>2026-04-19T11:07:33.001Z</time></trkpt><trkpt lat="44.10950333584578" lon="11.283592366973052"><ele>860.0</ele><time>2026-04-19T11:07:34.001Z</time></trkpt><trkpt lat="44.10940795988512" lon="11.283572122360663"><ele>860.0</ele><time>2026-04-19T11:07:35.001Z</time></trkpt><trkpt lat="44.10929258608505" lon="11.283526739742125"><ele>860.0</ele><time>2026-04-19T11:07:36.001Z</time></trkpt><trkpt lat="44.10916207348404" lon="11.28351938789491"><ele>861.0</ele><time>2026-04-19T11:07:37.001Z</time></trkpt><trkpt lat="44.10902924956418" lon="11.283493661265686"><ele>862.0</ele><time>2026-04-19T11:07:38.001Z</time></trkpt><trkpt lat="44.10889471139782" lon="11.28347337474041"><ele>863.0</ele><time>2026-04-19T11:07:39.001Z</time></trkpt><trkpt lat="44.10876184832829" lon="11.283456315222951"><ele>864.0</ele><time>2026-04-19T11:07:40.001Z</time></trkpt><trkpt lat="44.10865686577001" lon="11.283469570473988"><ele>864.0</ele><time>2026-04-19T11:07:41.001Z</time></trkpt><trkpt lat="44.10855716833315" lon="11.283514823817365"><ele>864.0000000000001</ele><time>2026-04-19T11:07:42.001Z</time></trkpt><trkpt lat="44.1084627290362" lon="11.283543636714263"><ele>864.0000000000001</ele><time>2026-04-19T11:07:43.001Z</time></trkpt><trkpt lat="44.108359405994214" lon="11.283596275484783"><ele>864.0</ele><time>2026-04-19T11:07:44.001Z</time></trkpt><trkpt lat="44.108243504034" lon="11.283669317191928"><ele>864.0</ele><time>2026-04-19T11:07:45.001Z</time></trkpt><trkpt lat="44.10812704745698" lon="11.283725446002101"><ele>866.75</ele><time>2026-04-19T11:07:46.001Z</time></trkpt><trkpt lat="44.108021035519954" lon="11.283761355717216"><ele>869.5</ele><time>2026-04-19T11:07:47.001Z</time></trkpt><trkpt lat="44.10790055210457" lon="11.283787769622794"><ele>872.25</ele><time>2026-04-19T11:07:48.001Z</time></trkpt><trkpt lat="44.10777065309897" lon="11.28380059751783"><ele>875.0</ele><time>2026-04-19T11:07:49.001Z</time></trkpt><trkpt lat="44.10762813554199" lon="11.283804305719201"><ele>875.0</ele><time>2026-04-19T11:07:50.001Z</time></trkpt><trkpt lat="44.107476006521864" lon="11.283815095741955"><ele>875.0</ele><time>2026-04-19T11:07:51.001Z</time></trkpt><trkpt lat="44.10731307802008" lon="11.283801118977472"><ele>875.0</ele><time>2026-04-19T11:07:52.001Z</time></trkpt><trkpt lat="44.10714116148385" lon="11.283808781464828"><ele>875.0</ele><time>2026-04-19T11:07:53.001Z</time></trkpt><trkpt lat="44.10699400882592" lon="11.283805104614125"><ele>875.0</ele><time>2026-04-19T11:07:54.001Z</time></trkpt><trkpt lat="44.10684463190656" lon="11.283784874708246"><ele>875.0</ele><time>2026-04-19T11:07:55.001Z</time></trkpt><trkpt lat="44.10668382731733" lon="11.28371770690807"><ele>873.0</ele><time>2026-04-19T11:07:56.001Z</time></trkpt><trkpt lat="44.106537278871535" lon="11.283619025403556"><ele>871.0</ele><time>2026-04-19T11:07:57.001Z</time></trkpt><trkpt lat="44.10640140916791" lon="11.283485653892864"><ele>869.0</ele><time>2026-04-19T11:07:58.001Z</time></trkpt><trkpt lat="44.1062745268165" lon="11.283313157889665"><ele>869.0</ele><time>2026-04-19T11:07:59.001Z</time></trkpt><trkpt lat="44.106154339187746" lon="11.283104123806742"><ele>869.0</ele><time>2026-04-19T11:08:00.001Z</time></trkpt><trkpt lat="44.10603285703853" lon="11.282887442323887"><ele>869.0</ele><time>2026-04-19T11:08:01.001Z</time></trkpt><trkpt lat="44.10590386697925" lon="11.282669131536263"><ele>874.0</ele><time>2026-04-19T11:08:02.001Z</time></trkpt><trkpt lat="44.105754303833386" lon="11.282436044151742"><ele>879.0</ele><time>2026-04-19T11:08:03.001Z</time></trkpt><trkpt lat="44.105593732003186" lon="11.282197384458417"><ele>879.5</ele><time>2026-04-19T11:08:04.001Z</time></trkpt><trkpt lat="44.10543175197387" lon="11.281961400748843"><ele>880.0</ele><time>2026-04-19T11:08:05.001Z</time></trkpt><trkpt lat="44.10525835268796" lon="11.28172813296088"><ele>880.0</ele><time>2026-04-19T11:08:06Z</time></trkpt><trkpt lat="44.10508979318392" lon="11.28149130952213"><ele>880.0</ele><time>2026-04-19T11:08:07Z</time></trkpt><trkpt lat="44.10491894473015" lon="11.281258500826693"><ele>879.3333333333333</ele><time>2026-04-19T11:08:08Z</time></trkpt><trkpt lat="44.104755266303314" lon="11.28104351639256"><ele>878.6666666666667</ele><time>2026-04-19T11:08:09Z</time></trkpt><trkpt lat="44.104590871119896" lon="11.280833241419087"><ele>878.0</ele><time>2026-04-19T11:08:10Z</time></trkpt><trkpt lat="44.10441547860907" lon="11.280608959922398"><ele>875.5</ele><time>2026-04-19T11:08:11Z</time></trkpt><trkpt lat="44.104235668877955" lon="11.280380076678705"><ele>873.0</ele><time>2026-04-19T11:08:12Z</time></trkpt><trkpt lat="44.104057592346635" lon="11.28015162356245"><ele>873.0</ele><time>2026-04-19T11:08:13Z</time></trkpt><trkpt lat="44.103878630606204" lon="11.279919428946489"><ele>873.0</ele><time>2026-04-19T11:08:14Z</time></trkpt><trkpt lat="44.103713178687045" lon="11.279690065824877"><ele>877.5</ele><time>2026-04-19T11:08:15Z</time></trkpt><trkpt lat="44.10356623024694" lon="11.279453881423656"><ele>882.0</ele><time>2026-04-19T11:08:16Z</time></trkpt><trkpt lat="44.103421351135076" lon="11.27920886120325"><ele>882.0</ele><time>2026-04-19T11:08:17Z</time></trkpt><trkpt lat="44.10326890156661" lon="11.27897270561436"><ele>882.0</ele><time>2026-04-19T11:08:18Z</time></trkpt><trkpt lat="44.10309425833854" lon="11.278757666976288"><ele>882.5</ele><time>2026-04-19T11:08:19Z</time></trkpt><trkpt lat="44.102899172560655" lon="11.278570277970564"><ele>883.0</ele><time>2026-04-19T11:08:20Z</time></trkpt><trkpt lat="44.102720327299515" lon="11.278400045208603"><ele>883.0</ele><time>2026-04-19T11:08:21Z</time></trkpt><trkpt lat="44.10255831132683" lon="11.278250360911041"><ele>883.0</ele><time>2026-04-19T11:08:22Z</time></trkpt><trkpt lat="44.102418513622084" lon="11.278113350205187"><ele>883.0</ele><time>2026-04-19T11:08:23Z</time></trkpt><trkpt lat="44.10232591372787" lon="11.277966846560307"><ele>880.6666666666666</ele><time>2026-04-19T11:08:24Z</time></trkpt><trkpt lat="44.10227616944323" lon="11.27778485172405"><ele>878.3333333333333</ele><time>2026-04-19T11:08:25Z</time></trkpt><trkpt lat="44.102267578882454" lon="11.277569868837215"><ele>876.0</ele><time>2026-04-19T11:08:26Z</time></trkpt><trkpt lat="44.10226167844349" lon="11.277297844022447"><ele>879.6666666666667</ele><time>2026-04-19T11:08:27Z</time></trkpt><trkpt lat="44.10222542569361" lon="11.277021009607447"><ele>883.3333333333334</ele><time>2026-04-19T11:08:28Z</time></trkpt><trkpt lat="44.10216373973901" lon="11.276733543873318"><ele>887.0</ele><time>2026-04-19T11:08:29Z</time></trkpt><trkpt lat="44.102078507752644" lon="11.276468529233416"><ele>890.3333333333334</ele><time>2026-04-19T11:08:30Z</time></trkpt><trkpt lat="44.10198521576689" lon="11.276258660889287"><ele>893.6666666666667</ele><time>2026-04-19T11:08:31Z</time></trkpt><trkpt lat="44.10187447254516" lon="11.27609732227152"><ele>897.0</ele><time>2026-04-19T11:08:32Z</time></trkpt><trkpt lat="44.10174947522389" lon="11.275974475195758"><ele>897.0</ele><time>2026-04-19T11:08:33Z</time></trkpt><trkpt lat="44.10160532287674" lon="11.27591378529647"><ele>897.0</ele><time>2026-04-19T11:08:34Z</time></trkpt><trkpt lat="44.10145107284427" lon="11.275945696304486"><ele>897.0</ele><time>2026-04-19T11:08:35Z</time></trkpt><trkpt lat="44.10129713989514" lon="11.276032366914965"><ele>896.3333333333333</ele><time>2026-04-19T11:08:36Z</time></trkpt><trkpt lat="44.10113956823703" lon="11.27608151707844"><ele>895.6666666666666</ele><time>2026-04-19T11:08:37Z</time></trkpt><trkpt lat="44.100997627109734" lon="11.276044294677543"><ele>895.0</ele><time>2026-04-19T11:08:38Z</time></trkpt><trkpt lat="44.100859644179565" lon="11.275964472002284"><ele>896.6666666666666</ele><time>2026-04-19T11:08:39Z</time></trkpt><trkpt lat="44.10071480984949" lon="11.275875905540412"><ele>898.3333333333333</ele><time>2026-04-19T11:08:40Z</time></trkpt><trkpt lat="44.100608023162536" lon="11.275702955811173"><ele>900.0</ele><time>2026-04-19T11:08:41Z</time></trkpt><trkpt lat="44.1004813832955" lon="11.27550819630851"><ele>900.0</ele><time>2026-04-19T11:08:42Z</time></trkpt><trkpt lat="44.100334797863425" lon="11.275301448765335"><ele>900.0</ele><time>2026-04-19T11:08:43Z</time></trkpt><trkpt lat="44.10018522485437" lon="11.275146378533218"><ele>900.0</ele><time>2026-04-19T11:08:44Z</time></trkpt><trkpt lat="44.100011508035465" lon="11.275053841069672"><ele>901.3333333333333</ele><time>2026-04-19T11:08:45Z</time></trkpt><trkpt lat="44.099839813190286" lon="11.275000605412583"><ele>902.6666666666666</ele><time>2026-04-19T11:08:46Z</time></trkpt><trkpt lat="44.099672808689085" lon="11.274921257791133"><ele>904.0</ele><time>2026-04-19T11:08:47Z</time></trkpt><trkpt lat="44.09946893221049" lon="11.275105222029357"><ele>904.0</ele><time>2026-04-19T11:08:48Z</time></trkpt><trkpt lat="44.09927392246323" lon="11.27510679226812"><ele>904.0</ele><time>2026-04-19T11:08:49Z</time></trkpt><trkpt lat="44.099038514674426" lon="11.275050517624122"><ele>904.0</ele><time>2026-04-19T11:08:50Z</time></trkpt><trkpt lat="44.09886917044289" lon="11.275055531867874"><ele>906.0</ele><time>2026-04-19T11:08:51Z</time></trkpt><trkpt lat="44.09871419505785" lon="11.275136418835746"><ele>908.0</ele><time>2026-04-19T11:08:52Z</time></trkpt><trkpt lat="44.09858006282409" lon="11.275228118130796"><ele>910.0</ele><time>2026-04-19T11:08:53Z</time></trkpt><trkpt lat="44.098474742669715" lon="11.275323608046609"><ele>912.0</ele><time>2026-04-19T11:08:54Z</time></trkpt><trkpt lat="44.09834041559816" lon="11.275364447353274"><ele>912.6666666666667</ele><time>2026-04-19T11:08:55Z</time></trkpt><trkpt lat="44.09816884644879" lon="11.27534240185642"><ele>913.3333333333334</ele><time>2026-04-19T11:08:56Z</time></trkpt><trkpt lat="44.09796558189764" lon="11.275224934995588"><ele>914.0</ele><time>2026-04-19T11:08:57Z</time></trkpt><trkpt lat="44.097769758382654" lon="11.275126148582608"><ele>914.0</ele><time>2026-04-19T11:08:58Z</time></trkpt><trkpt lat="44.09757246302249" lon="11.27508141645498"><ele>914.0</ele><time>2026-04-19T11:08:59Z</time></trkpt><trkpt lat="44.09740113677227" lon="11.275025334322292"><ele>914.0</ele><time>2026-04-19T11:09:00Z</time></trkpt><trkpt lat="44.09722559686766" lon="11.274974129393602"><ele>916.3333333333334</ele><time>2026-04-19T11:09:01Z</time></trkpt><trkpt lat="44.097032467243125" lon="11.274946209122"><ele>918.6666666666667</ele><time>2026-04-19T11:09:02Z</time></trkpt><trkpt lat="44.09683983834284" lon="11.27500012116523"><ele>921.0</ele><time>2026-04-19T11:09:03Z</time></trkpt><trkpt lat="44.096660683136776" lon="11.275101477251932"><ele>920.3333333333333</ele><time>2026-04-19T11:09:04Z</time></trkpt><trkpt lat="44.09649558829113" lon="11.275191208150389"><ele>919.6666666666666</ele><time>2026-04-19T11:09:05Z</time></trkpt><trkpt lat="44.096340880658296" lon="11.275244790303772"><ele>919.0</ele><time>2026-04-19T11:09:06Z</time></trkpt><trkpt lat="44.096190529542" lon="11.275284257520877"><ele>919.0</ele><time>2026-04-19T11:09:07Z</time></trkpt><trkpt lat="44.09605820821857" lon="11.275320476941639"><ele>919.0000000000001</ele><time>2026-04-19T11:09:08Z</time></trkpt><trkpt lat="44.095947783826105" lon="11.275346291058701"><ele>919.0000000000001</ele><time>2026-04-19T11:09:09Z</time></trkpt><trkpt lat="44.09585864506697" lon="11.275358488125283"><ele>919.0</ele><time>2026-04-19T11:09:10Z</time></trkpt><trkpt lat="44.09577702261015" lon="11.275349098260682"><ele>919.0</ele><time>2026-04-19T11:09:11Z</time></trkpt><trkpt lat="44.095706196655534" lon="11.275321824805445"><ele>918.2</ele><time>2026-04-19T11:09:12Z</time></trkpt><trkpt lat="44.095626345307736" lon="11.275317605232345"><ele>917.4000000000001</ele><time>2026-04-19T11:09:13Z</time></trkpt><trkpt lat="44.0955281689799" lon="11.275322689261243"><ele>916.6</ele><time>2026-04-19T11:09:14Z</time></trkpt><trkpt lat="44.09540873715171" lon="11.275317124594672"><ele>915.8</ele><time>2026-04-19T11:09:15Z</time></trkpt><trkpt lat="44.09527883747133" lon="11.275320076958108"><ele>915.0</ele><time>2026-04-19T11:09:16Z</time></trkpt><trkpt lat="44.09514661939455" lon="11.275343487829707"><ele>915.0</ele><time>2026-04-19T11:09:17Z</time></trkpt><trkpt lat="44.09501693917894" lon="11.275395125725666"><ele>915.0</ele><time>2026-04-19T11:09:18Z</time></trkpt><trkpt lat="44.09489599416305" lon="11.275450893672652"><ele>915.0</ele><time>2026-04-19T11:09:19Z</time></trkpt><trkpt lat="44.094776560245094" lon="11.275525128610902"><ele>915.0</ele><time>2026-04-19T11:09:20Z</time></trkpt><trkpt lat="44.09466638706211" lon="11.275654793383614"><ele>912.25</ele><time>2026-04-19T11:09:21Z</time></trkpt><trkpt lat="44.094574163336574" lon="11.27580235641756"><ele>909.5</ele><time>2026-04-19T11:09:22Z</time></trkpt><trkpt lat="44.09450514029691" lon="11.27595099816306"><ele>906.75</ele><time>2026-04-19T11:09:23Z</time></trkpt><trkpt lat="44.094458810069284" lon="11.276098543552841"><ele>904.0</ele><time>2026-04-19T11:09:24Z</time></trkpt><trkpt lat="44.09440107647617" lon="11.276216703929604"><ele>903.9999999999999</ele><time>2026-04-19T11:09:25Z</time></trkpt><trkpt lat="44.094328981278395" lon="11.276296333855502"><ele>904.0</ele><time>2026-04-19T11:09:26Z</time></trkpt><trkpt lat="44.09423884858471" lon="11.276319688103591"><ele>904.0</ele><time>2026-04-19T11:09:27Z</time></trkpt><trkpt lat="44.094155038990706" lon="11.276297233817148"><ele>904.0</ele><time>2026-04-19T11:09:28Z</time></trkpt><trkpt lat="44.09408615599556" lon="11.276268255201945"><ele>903.9999999999999</ele><time>2026-04-19T11:09:29Z</time></trkpt><trkpt lat="44.09401947707056" lon="11.276312757247679"><ele>904.0</ele><time>2026-04-19T11:09:30Z</time></trkpt><trkpt lat="44.09397990412876" lon="11.276419974428435"><ele>904.0</ele><time>2026-04-19T11:09:31Z</time></trkpt><trkpt lat="44.093978466525705" lon="11.276551077709405"><ele>904.0000000000001</ele><time>2026-04-19T11:09:32.001Z</time></trkpt><trkpt lat="44.09401749218252" lon="11.276679164987167"><ele>904.0000000000001</ele><time>2026-04-19T11:09:33.001Z</time></trkpt><trkpt lat="44.09407545780062" lon="11.27680457649437"><ele>904.0</ele><time>2026-04-19T11:09:34.001Z</time></trkpt><trkpt lat="44.09409084504919" lon="11.276942627139487"><ele>904.0</ele><time>2026-04-19T11:09:35.001Z</time></trkpt><trkpt lat="44.09405453960248" lon="11.277100442673138"><ele>901.6666666666666</ele><time>2026-04-19T11:09:36.001Z</time></trkpt><trkpt lat="44.093981796078175" lon="11.277262469732584"><ele>899.3333333333333</ele><time>2026-04-19T11:09:37.001Z</time></trkpt><trkpt lat="44.09389309685693" lon="11.277437447008118"><ele>897.0</ele><time>2026-04-19T11:09:38.001Z</time></trkpt><trkpt lat="44.09381206171034" lon="11.277631499877552"><ele>897.0</ele><time>2026-04-19T11:09:39.001Z</time></trkpt><trkpt lat="44.0937262485104" lon="11.277827417186352"><ele>897.0</ele><time>2026-04-19T11:09:40.001Z</time></trkpt><trkpt lat="44.0936271690782" lon="11.27800782206616"><ele>897.0</ele><time>2026-04-19T11:09:41.001Z</time></trkpt><trkpt lat="44.093500429182704" lon="11.278166938525853"><ele>898.6666666666667</ele><time>2026-04-19T11:09:42.001Z</time></trkpt><trkpt lat="44.09334873519676" lon="11.278282405359791"><ele>900.3333333333334</ele><time>2026-04-19T11:09:43.001Z</time></trkpt><trkpt lat="44.09317767905766" lon="11.278345300924107"><ele>902.0</ele><time>2026-04-19T11:09:44.001Z</time></trkpt><trkpt lat="44.09300086326689" lon="11.278361786510235"><ele>898.3333333333334</ele><time>2026-04-19T11:09:45.001Z</time></trkpt><trkpt lat="44.09284604736672" lon="11.27839401227009"><ele>894.6666666666667</ele><time>2026-04-19T11:09:46.001Z</time></trkpt><trkpt lat="44.09271432341717" lon="11.278483072219304"><ele>891.0</ele><time>2026-04-19T11:09:47.001Z</time></trkpt><trkpt lat="44.092610920863144" lon="11.278645551953673"><ele>891.0</ele><time>2026-04-19T11:09:48.001Z</time></trkpt><trkpt lat="44.09254854101852" lon="11.278828720454579"><ele>891.0</ele><time>2026-04-19T11:09:49.001Z</time></trkpt><trkpt lat="44.092509801449516" lon="11.279070237619251"><ele>891.0</ele><time>2026-04-19T11:09:50.001Z</time></trkpt><trkpt lat="44.09247317409912" lon="11.27932106998808"><ele>889.3333333333333</ele><time>2026-04-19T11:09:51.001Z</time></trkpt><trkpt lat="44.09240971829444" lon="11.279524233260382"><ele>887.6666666666666</ele><time>2026-04-19T11:09:52.001Z</time></trkpt><trkpt lat="44.09235070622489" lon="11.279725848977764"><ele>886.0</ele><time>2026-04-19T11:09:53.001Z</time></trkpt><trkpt lat="44.09227570412126" lon="11.279895879194969"><ele>886.0</ele><time>2026-04-19T11:09:54.001Z</time></trkpt><trkpt lat="44.09217334073827" lon="11.280025420219943"><ele>886.0</ele><time>2026-04-19T11:09:55.001Z</time></trkpt><trkpt lat="44.09203607527065" lon="11.280101029937482"><ele>886.0</ele><time>2026-04-19T11:09:56.001Z</time></trkpt><trkpt lat="44.09187798568379" lon="11.280182291408222"><ele>886.0</ele><time>2026-04-19T11:09:57.001Z</time></trkpt><trkpt lat="44.09169810711931" lon="11.280287324307364"><ele>886.0</ele><time>2026-04-19T11:09:58.001Z</time></trkpt><trkpt lat="44.09151325399292" lon="11.280416106173782"><ele>886.0</ele><time>2026-04-19T11:09:59.001Z</time></trkpt><trkpt lat="44.09134097390208" lon="11.28050464676284"><ele>889.3333333333333</ele><time>2026-04-19T11:10:00.001Z</time></trkpt><trkpt lat="44.09117542610156" lon="11.280617218079296"><ele>892.6666666666667</ele><time>2026-04-19T11:10:01Z</time></trkpt><trkpt lat="44.091009136149545" lon="11.28077472819802"><ele>896.0</ele><time>2026-04-19T11:10:02Z</time></trkpt><trkpt lat="44.09085315648266" lon="11.280963590774398"><ele>895.3333333333334</ele><time>2026-04-19T11:10:03Z</time></trkpt><trkpt lat="44.09072022911302" lon="11.281115199128761"><ele>894.6666666666667</ele><time>2026-04-19T11:10:04Z</time></trkpt><trkpt lat="44.09057085705134" lon="11.281194377033204"><ele>894.0</ele><time>2026-04-19T11:10:05Z</time></trkpt><trkpt lat="44.09042229902716" lon="11.281138553914667"><ele>894.0</ele><time>2026-04-19T11:10:06Z</time></trkpt><trkpt lat="44.09026902422595" lon="11.281096303588017"><ele>894.0</ele><time>2026-04-19T11:10:07Z</time></trkpt><trkpt lat="44.090104361610706" lon="11.28106759505382"><ele>894.0</ele><time>2026-04-19T11:10:08Z</time></trkpt><trkpt lat="44.089913999355105" lon="11.281096835598948"><ele>893.0</ele><time>2026-04-19T11:10:09Z</time></trkpt><trkpt lat="44.08971450204945" lon="11.281186206720413"><ele>892.0</ele><time>2026-04-19T11:10:10Z</time></trkpt><trkpt lat="44.089541643898414" lon="11.281298017939694"><ele>891.0</ele><time>2026-04-19T11:10:11Z</time></trkpt><trkpt lat="44.08938863404469" lon="11.281416102165794"><ele>888.6666666666667</ele><time>2026-04-19T11:10:12Z</time></trkpt><trkpt lat="44.0892267064592" lon="11.281441290992056"><ele>886.3333333333334</ele><time>2026-04-19T11:10:13Z</time></trkpt><trkpt lat="44.08901840217116" lon="11.28143312153188"><ele>884.0</ele><time>2026-04-19T11:10:14Z</time></trkpt><trkpt lat="44.08881312873799" lon="11.281377378884908"><ele>884.0</ele><time>2026-04-19T11:10:15Z</time></trkpt><trkpt lat="44.088627779471274" lon="11.28133574247963"><ele>884.0</ele><time>2026-04-19T11:10:16Z</time></trkpt><trkpt lat="44.08845654092736" lon="11.281336600546368"><ele>884.0</ele><time>2026-04-19T11:10:17Z</time></trkpt><trkpt lat="44.08828393628518" lon="11.28135009253721"><ele>886.5</ele><time>2026-04-19T11:10:18Z</time></trkpt><trkpt lat="44.088130464527254" lon="11.281306071696328"><ele>889.0</ele><time>2026-04-19T11:10:19Z</time></trkpt><trkpt lat="44.08799438769625" lon="11.281228087352927"><ele>891.5</ele><time>2026-04-19T11:10:20Z</time></trkpt><trkpt lat="44.08790269242703" lon="11.281072398634823"><ele>894.0</ele><time>2026-04-19T11:10:21Z</time></trkpt><trkpt lat="44.08778780338038" lon="11.280873102704874"><ele>894.0</ele><time>2026-04-19T11:10:22Z</time></trkpt><trkpt lat="44.08765412519513" lon="11.280713425185366"><ele>894.0</ele><time>2026-04-19T11:10:23Z</time></trkpt><trkpt lat="44.087545359689095" lon="11.28058919956556"><ele>894.0</ele><time>2026-04-19T11:10:24Z</time></trkpt><trkpt lat="44.08744334251398" lon="11.280488865550018"><ele>894.0</ele><time>2026-04-19T11:10:25Z</time></trkpt><trkpt lat="44.08735825411401" lon="11.280460739313728"><ele>891.0</ele><time>2026-04-19T11:10:26Z</time></trkpt><trkpt lat="44.08724818636383" lon="11.280469981697145"><ele>888.0</ele><time>2026-04-19T11:10:27Z</time></trkpt><trkpt lat="44.08715328877304" lon="11.280567612159077"><ele>885.0</ele><time>2026-04-19T11:10:28Z</time></trkpt><trkpt lat="44.08704849388818" lon="11.280711095685637"><ele>882.0</ele><time>2026-04-19T11:10:29Z</time></trkpt><trkpt lat="44.086950418112096" lon="11.280861019043511"><ele>882.0</ele><time>2026-04-19T11:10:30Z</time></trkpt><trkpt lat="44.08688484906612" lon="11.281010904185305"><ele>882.0</ele><time>2026-04-19T11:10:31Z</time></trkpt><trkpt lat="44.086868989784165" lon="11.281185265014171"><ele>882.0</ele><time>2026-04-19T11:10:32Z</time></trkpt><trkpt lat="44.0868858338269" lon="11.281360024944654"><ele>882.0</ele><time>2026-04-19T11:10:33Z</time></trkpt><trkpt lat="44.08691843802062" lon="11.281511584342109"><ele>883.0</ele><time>2026-04-19T11:10:34Z</time></trkpt><trkpt lat="44.08691223698551" lon="11.28163960580949"><ele>884.0</ele><time>2026-04-19T11:10:35Z</time></trkpt><trkpt lat="44.08686948785729" lon="11.28173734748006"><ele>885.0</ele><time>2026-04-19T11:10:36Z</time></trkpt><trkpt lat="44.086792894372046" lon="11.281803423174566"><ele>886.0</ele><time>2026-04-19T11:10:37Z</time></trkpt><trkpt lat="44.08670070399124" lon="11.281837514605241"><ele>887.0</ele><time>2026-04-19T11:10:38Z</time></trkpt><trkpt lat="44.086592132458186" lon="11.281775167575478"><ele>884.2</ele><time>2026-04-19T11:10:39Z</time></trkpt><trkpt lat="44.086534512290136" lon="11.281611910344523"><ele>881.4000000000001</ele><time>2026-04-19T11:10:40Z</time></trkpt><trkpt lat="44.08645716606848" lon="11.281528745125494"><ele>878.5999999999999</ele><time>2026-04-19T11:10:41Z</time></trkpt><trkpt lat="44.08637795051016" lon="11.281498915453213"><ele>875.8</ele><time>2026-04-19T11:10:42Z</time></trkpt><trkpt lat="44.08628744488126" lon="11.281560204865537"><ele>873.0</ele><time>2026-04-19T11:10:43Z</time></trkpt><trkpt lat="44.086216878189894" lon="11.281667735814032"><ele>873.0</ele><time>2026-04-19T11:10:44Z</time></trkpt><trkpt lat="44.086174190638644" lon="11.281769239241203"><ele>873.0</ele><time>2026-04-19T11:10:45Z</time></trkpt><trkpt lat="44.08616687100492" lon="11.281919726903697"><ele>873.0</ele><time>2026-04-19T11:10:46Z</time></trkpt><trkpt lat="44.08616845885739" lon="11.282047279576208"><ele>873.0</ele><time>2026-04-19T11:10:47Z</time></trkpt><trkpt lat="44.086076728605065" lon="11.282081675283841"><ele>873.0</ele><time>2026-04-19T11:10:48Z</time></trkpt><trkpt lat="44.086005648854886" lon="11.282013886261042"><ele>873.0</ele><time>2026-04-19T11:10:49Z</time></trkpt><trkpt lat="44.085962066924935" lon="11.281897551350507"><ele>873.0</ele><time>2026-04-19T11:10:50Z</time></trkpt><trkpt lat="44.08587804433608" lon="11.2817618124079"><ele>873.0</ele><time>2026-04-19T11:10:51Z</time></trkpt><trkpt lat="44.0857344328758" lon="11.28159540773509"><ele>873.0</ele><time>2026-04-19T11:10:52Z</time></trkpt><trkpt lat="44.08554523109778" lon="11.28152848752481"><ele>871.5</ele><time>2026-04-19T11:10:53Z</time></trkpt><trkpt lat="44.08537570755719" lon="11.281501983302691"><ele>870.0</ele><time>2026-04-19T11:10:54Z</time></trkpt><trkpt lat="44.0852322548342" lon="11.281461427316454"><ele>868.5</ele><time>2026-04-19T11:10:55Z</time></trkpt><trkpt lat="44.08512076406787" lon="11.28139150738738"><ele>867.0</ele><time>2026-04-19T11:10:56Z</time></trkpt><trkpt lat="44.08510005405078" lon="11.281230298349724"><ele>863.6</ele><time>2026-04-19T11:10:57Z</time></trkpt><trkpt lat="44.08502680686731" lon="11.281120133555739"><ele>860.2</ele><time>2026-04-19T11:10:58Z</time></trkpt><trkpt lat="44.08496630430695" lon="11.281038018879832"><ele>856.8</ele><time>2026-04-19T11:10:59Z</time></trkpt><trkpt lat="44.08487789531583" lon="11.281047222860163"><ele>853.4</ele><time>2026-04-19T11:11:00Z</time></trkpt><trkpt lat="44.084786086427066" lon="11.281118812619631"><ele>850.0</ele><time>2026-04-19T11:11:01Z</time></trkpt><trkpt lat="44.08463555633177" lon="11.281220319090915"><ele>851.0</ele><time>2026-04-19T11:11:02Z</time></trkpt><trkpt lat="44.084525631120506" lon="11.281288734122782"><ele>852.0</ele><time>2026-04-19T11:11:03Z</time></trkpt><trkpt lat="44.08446345319746" lon="11.281405944604204"><ele>853.0</ele><time>2026-04-19T11:11:04Z</time></trkpt><trkpt lat="44.08444315629973" lon="11.281493936499265"><ele>854.0</ele><time>2026-04-19T11:11:05Z</time></trkpt><trkpt lat="44.08446723009552" lon="11.281633100048372"><ele>855.0</ele><time>2026-04-19T11:11:06Z</time></trkpt><trkpt lat="44.08446320481208" lon="11.2817602550436"><ele>855.0</ele><time>2026-04-19T11:11:07Z</time></trkpt><trkpt lat="44.084387747472775" lon="11.281837444446616"><ele>855.0</ele><time>2026-04-19T11:11:08Z</time></trkpt><trkpt lat="44.08428698395245" lon="11.281782483210884"><ele>855.0</ele><time>2026-04-19T11:11:09Z</time></trkpt><trkpt lat="44.084203510715255" lon="11.28168613839513"><ele>855.0</ele><time>2026-04-19T11:11:10Z</time></trkpt><trkpt lat="44.08411721006506" lon="11.281524066629041"><ele>847.3333333333333</ele><time>2026-04-19T11:11:11Z</time></trkpt><trkpt lat="44.08398926937791" lon="11.281374015161923"><ele>839.6666666666666</ele><time>2026-04-19T11:11:12Z</time></trkpt><trkpt lat="44.083837045175" lon="11.28124738216581"><ele>832.0</ele><time>2026-04-19T11:11:13Z</time></trkpt><trkpt lat="44.08362819284243" lon="11.28118513441808"><ele>832.0</ele><time>2026-04-19T11:11:14Z</time></trkpt><trkpt lat="44.08346653546724" lon="11.281105454941613"><ele>832.0</ele><time>2026-04-19T11:11:15Z</time></trkpt><trkpt lat="44.083345591420745" lon="11.28103630397073"><ele>832.0</ele><time>2026-04-19T11:11:16Z</time></trkpt><trkpt lat="44.08324903245521" lon="11.281010662255838"><ele>832.0</ele><time>2026-04-19T11:11:17Z</time></trkpt><trkpt lat="44.08315866418746" lon="11.281040960655973"><ele>829.0</ele><time>2026-04-19T11:11:18Z</time></trkpt><trkpt lat="44.083089875663696" lon="11.28115310782899"><ele>826.0</ele><time>2026-04-19T11:11:19Z</time></trkpt><trkpt lat="44.08305946796624" lon="11.281308719476039"><ele>823.0</ele><time>2026-04-19T11:11:20Z</time></trkpt><trkpt lat="44.08306592293721" lon="11.281480998110013"><ele>820.0</ele><time>2026-04-19T11:11:21Z</time></trkpt><trkpt lat="44.08301846007186" lon="11.281643558553087"><ele>820.0</ele><time>2026-04-19T11:11:22Z</time></trkpt><trkpt lat="44.082838744389505" lon="11.281641989947081"><ele>820.0</ele><time>2026-04-19T11:11:23Z</time></trkpt><trkpt lat="44.0827867489947" lon="11.281706928655485"><ele>820.0</ele><time>2026-04-19T11:11:24Z</time></trkpt><trkpt lat="44.08272000117835" lon="11.28181040424201"><ele>820.0</ele><time>2026-04-19T11:11:25Z</time></trkpt><trkpt lat="44.082712539309426" lon="11.28197463263389"><ele>820.0</ele><time>2026-04-19T11:11:26Z</time></trkpt><trkpt lat="44.08273269720472" lon="11.282184807582563"><ele>820.0</ele><time>2026-04-19T11:11:27Z</time></trkpt><trkpt lat="44.08276571353548" lon="11.282413170773955"><ele>820.0</ele><time>2026-04-19T11:11:28Z</time></trkpt><trkpt lat="44.082820441469224" lon="11.282659321957354"><ele>820.25</ele><time>2026-04-19T11:11:29Z</time></trkpt><trkpt lat="44.082886646549596" lon="11.28288184428422"><ele>820.5</ele><time>2026-04-19T11:11:30Z</time></trkpt><trkpt lat="44.08295300017508" lon="11.283047696726088"><ele>820.75</ele><time>2026-04-19T11:11:31Z</time></trkpt><trkpt lat="44.08299349653138" lon="11.283175203594265"><ele>821.0</ele><time>2026-04-19T11:11:32Z</time></trkpt><trkpt lat="44.08301825821077" lon="11.283281806606848"><ele>821.0</ele><time>2026-04-19T11:11:33Z</time></trkpt><trkpt lat="44.082921281384934" lon="11.28338418405674"><ele>821.0</ele><time>2026-04-19T11:11:35Z</time></trkpt><trkpt lat="44.08283172795728" lon="11.283323182894081"><ele>821.0</ele><time>2026-04-19T11:11:36Z</time></trkpt><trkpt lat="44.08279563775488" lon="11.283165019080682"><ele>821.0</ele><time>2026-04-19T11:11:37Z</time></trkpt><trkpt lat="44.08271244118772" lon="11.282985974890037"><ele>821.0</ele><time>2026-04-19T11:11:38.001Z</time></trkpt><trkpt lat="44.082608968011144" lon="11.282798566564104"><ele>821.0</ele><time>2026-04-19T11:11:39.001Z</time></trkpt><trkpt lat="44.08251680479278" lon="11.282581416982325"><ele>821.0</ele><time>2026-04-19T11:11:40.001Z</time></trkpt><trkpt lat="44.08245783096281" lon="11.282358660567757"><ele>820.6666666666667</ele><time>2026-04-19T11:11:41.001Z</time></trkpt><trkpt lat="44.082441752976756" lon="11.282132576879395"><ele>820.3333333333333</ele><time>2026-04-19T11:11:42.001Z</time></trkpt><trkpt lat="44.08244254206648" lon="11.281894798414536"><ele>820.0</ele><time>2026-04-19T11:11:43.001Z</time></trkpt><trkpt lat="44.08243770409095" lon="11.281669128612231"><ele>820.0</ele><time>2026-04-19T11:11:44.001Z</time></trkpt><trkpt lat="44.082438405226284" lon="11.281457139184326"><ele>820.0</ele><time>2026-04-19T11:11:45.001Z</time></trkpt><trkpt lat="44.082424169680905" lon="11.28126539309947"><ele>820.0</ele><time>2026-04-19T11:11:46.001Z</time></trkpt><trkpt lat="44.08236652747411" lon="11.281096948827821"><ele>820.0</ele><time>2026-04-19T11:11:47.001Z</time></trkpt><trkpt lat="44.082261059382866" lon="11.280956408569772"><ele>821.25</ele><time>2026-04-19T11:11:48.001Z</time></trkpt><trkpt lat="44.082126972985265" lon="11.28087255733338"><ele>822.5</ele><time>2026-04-19T11:11:49.001Z</time></trkpt><trkpt lat="44.081986542626815" lon="11.280852144685518"><ele>823.75</ele><time>2026-04-19T11:11:50.001Z</time></trkpt><trkpt lat="44.08185582933172" lon="11.2809103968584"><ele>825.0</ele><time>2026-04-19T11:11:51.001Z</time></trkpt><trkpt lat="44.081725714855445" lon="11.281040751816832"><ele>825.0</ele><time>2026-04-19T11:11:52.001Z</time></trkpt><trkpt lat="44.08161059283551" lon="11.281228226313797"><ele>825.0</ele><time>2026-04-19T11:11:53.001Z</time></trkpt><trkpt lat="44.08147880451656" lon="11.28138764477982"><ele>825.0</ele><time>2026-04-19T11:11:54Z</time></trkpt><trkpt lat="44.08136750317078" lon="11.281553667079047"><ele>819.6666666666667</ele><time>2026-04-19T11:11:55Z</time></trkpt><trkpt lat="44.08122738357479" lon="11.28165059425455"><ele>814.3333333333334</ele><time>2026-04-19T11:11:56Z</time></trkpt><trkpt lat="44.08107668836958" lon="11.281711261398753"><ele>809.0</ele><time>2026-04-19T11:11:57Z</time></trkpt><trkpt lat="44.08091895936344" lon="11.28177713620818"><ele>808.0</ele><time>2026-04-19T11:11:58Z</time></trkpt><trkpt lat="44.08076579982498" lon="11.28185937105076"><ele>807.0</ele><time>2026-04-19T11:11:59Z</time></trkpt><trkpt lat="44.08061045356191" lon="11.28188857981841"><ele>806.0</ele><time>2026-04-19T11:12:00Z</time></trkpt><trkpt lat="44.08044335088931" lon="11.281906824702277"><ele>806.0</ele><time>2026-04-19T11:12:01Z</time></trkpt><trkpt lat="44.080253648158475" lon="11.281936690944798"><ele>806.0</ele><time>2026-04-19T11:12:02Z</time></trkpt><trkpt lat="44.080055846967404" lon="11.28194846762853"><ele>806.0</ele><time>2026-04-19T11:12:03Z</time></trkpt><trkpt lat="44.07987027284622" lon="11.281969027174279"><ele>801.3333333333334</ele><time>2026-04-19T11:12:04Z</time></trkpt><trkpt lat="44.07969187473756" lon="11.281991349202"><ele>796.6666666666667</ele><time>2026-04-19T11:12:05Z</time></trkpt><trkpt lat="44.07951188800588" lon="11.28201514721518"><ele>792.0</ele><time>2026-04-19T11:12:06Z</time></trkpt><trkpt lat="44.07933672456389" lon="11.282041007406882"><ele>792.0</ele><time>2026-04-19T11:12:07Z</time></trkpt><trkpt lat="44.07916297869478" lon="11.282037669217571"><ele>792.0</ele><time>2026-04-19T11:12:08Z</time></trkpt><trkpt lat="44.0789939101005" lon="11.282068065329295"><ele>792.0</ele><time>2026-04-19T11:12:09Z</time></trkpt><trkpt lat="44.078822788350195" lon="11.28205864077963"><ele>786.0</ele><time>2026-04-19T11:12:10Z</time></trkpt><trkpt lat="44.07864618664483" lon="11.281990340540622"><ele>780.0</ele><time>2026-04-19T11:12:11Z</time></trkpt><trkpt lat="44.078470104823246" lon="11.281918075196982"><ele>774.0</ele><time>2026-04-19T11:12:12Z</time></trkpt><trkpt lat="44.07829883758063" lon="11.281853100668814"><ele>770.6666666666666</ele><time>2026-04-19T11:12:13Z</time></trkpt><trkpt lat="44.078139499643086" lon="11.281766516659234"><ele>767.3333333333333</ele><time>2026-04-19T11:12:14Z</time></trkpt><trkpt lat="44.077981157965716" lon="11.281690759583476"><ele>764.0</ele><time>2026-04-19T11:12:15Z</time></trkpt><trkpt lat="44.07782967976811" lon="11.281617789044851"><ele>764.0</ele><time>2026-04-19T11:12:16Z</time></trkpt><trkpt lat="44.07767722232846" lon="11.28154352718737"><ele>764.0</ele><time>2026-04-19T11:12:17Z</time></trkpt><trkpt lat="44.07752716761945" lon="11.281477757643149"><ele>764.0</ele><time>2026-04-19T11:12:18Z</time></trkpt><trkpt lat="44.077380495515264" lon="11.281410324813985"><ele>764.3333333333333</ele><time>2026-04-19T11:12:19Z</time></trkpt><trkpt lat="44.07723405082066" lon="11.281339073579895"><ele>764.6666666666666</ele><time>2026-04-19T11:12:20Z</time></trkpt><trkpt lat="44.07710189716814" lon="11.281232814402708"><ele>765.0</ele><time>2026-04-19T11:12:21Z</time></trkpt><trkpt lat="44.07696809037418" lon="11.281105498188015"><ele>765.0</ele><time>2026-04-19T11:12:22Z</time></trkpt><trkpt lat="44.076821207185525" lon="11.280964886032201"><ele>765.0</ele><time>2026-04-19T11:12:23Z</time></trkpt><trkpt lat="44.07668274201471" lon="11.280813185556317"><ele>765.0</ele><time>2026-04-19T11:12:24Z</time></trkpt><trkpt lat="44.076536293869815" lon="11.280718059364842"><ele>765.0</ele><time>2026-04-19T11:12:25Z</time></trkpt><trkpt lat="44.076372334281004" lon="11.280692280418943"><ele>765.0</ele><time>2026-04-19T11:12:26Z</time></trkpt><trkpt lat="44.07622493474785" lon="11.280666744052082"><ele>765.0</ele><time>2026-04-19T11:12:27Z</time></trkpt><trkpt lat="44.076093472970896" lon="11.28062330230743"><ele>765.0</ele><time>2026-04-19T11:12:28Z</time></trkpt><trkpt lat="44.075983986182656" lon="11.280506223041618"><ele>765.0</ele><time>2026-04-19T11:12:29Z</time></trkpt><trkpt lat="44.07587742433968" lon="11.280358603418831"><ele>765.0</ele><time>2026-04-19T11:12:30Z</time></trkpt><trkpt lat="44.07581329696471" lon="11.280189115950671"><ele>765.0</ele><time>2026-04-19T11:12:31Z</time></trkpt><trkpt lat="44.07581634223465" lon="11.280013367856478"><ele>765.0</ele><time>2026-04-19T11:12:32Z</time></trkpt><trkpt lat="44.07582544714972" lon="11.279779000848738"><ele>765.3333333333334</ele><time>2026-04-19T11:12:33Z</time></trkpt><trkpt lat="44.07584128385699" lon="11.27950664102393"><ele>765.6666666666667</ele><time>2026-04-19T11:12:34Z</time></trkpt><trkpt lat="44.07586217043309" lon="11.279214358151416"><ele>766.0</ele><time>2026-04-19T11:12:35Z</time></trkpt><trkpt lat="44.075871281950086" lon="11.278914669996228"><ele>766.3333333333334</ele><time>2026-04-19T11:12:36Z</time></trkpt><trkpt lat="44.075894325553236" lon="11.278634767017158"><ele>766.6666666666666</ele><time>2026-04-19T11:12:37Z</time></trkpt><trkpt lat="44.07590774498653" lon="11.278375055607492"><ele>767.0</ele><time>2026-04-19T11:12:38Z</time></trkpt><trkpt lat="44.07588878752021" lon="11.27812515307811"><ele>767.3333333333333</ele><time>2026-04-19T11:12:39Z</time></trkpt><trkpt lat="44.07583284827472" lon="11.277894299965421"><ele>767.6666666666666</ele><time>2026-04-19T11:12:40Z</time></trkpt><trkpt lat="44.07579425805793" lon="11.27767282805079"><ele>768.0</ele><time>2026-04-19T11:12:41Z</time></trkpt><trkpt lat="44.07579738244452" lon="11.277477895834394"><ele>768.0</ele><time>2026-04-19T11:12:42Z</time></trkpt><trkpt lat="44.07584110795746" lon="11.277317666417796"><ele>768.0</ele><time>2026-04-19T11:12:43Z</time></trkpt><trkpt lat="44.07587500720426" lon="11.277146973456004"><ele>768.0</ele><time>2026-04-19T11:12:44Z</time></trkpt><trkpt lat="44.07591367725711" lon="11.276991605010073"><ele>768.0</ele><time>2026-04-19T11:12:45Z</time></trkpt><trkpt lat="44.07586590437434" lon="11.276814519746184"><ele>760.3333333333334</ele><time>2026-04-19T11:12:46Z</time></trkpt><trkpt lat="44.07575579328801" lon="11.27664342286476"><ele>752.6666666666667</ele><time>2026-04-19T11:12:47Z</time></trkpt><trkpt lat="44.07561396778845" lon="11.276475828499976"><ele>745.0</ele><time>2026-04-19T11:12:48Z</time></trkpt><trkpt lat="44.07548953859832" lon="11.276284534320455"><ele>745.0</ele><time>2026-04-19T11:12:49Z</time></trkpt><trkpt lat="44.075383083764955" lon="11.27611830747558"><ele>745.0</ele><time>2026-04-19T11:12:50Z</time></trkpt><trkpt lat="44.07527876783095" lon="11.275949859618516"><ele>745.0</ele><time>2026-04-19T11:12:51Z</time></trkpt><trkpt lat="44.075214116274616" lon="11.275734028508273"><ele>747.0</ele><time>2026-04-19T11:12:52Z</time></trkpt><trkpt lat="44.0751626294625" lon="11.275511637421207"><ele>749.0</ele><time>2026-04-19T11:12:53Z</time></trkpt><trkpt lat="44.07508066156926" lon="11.275325007432086"><ele>751.0</ele><time>2026-04-19T11:12:54Z</time></trkpt><trkpt lat="44.07494284384111" lon="11.275194784264562"><ele>745.0</ele><time>2026-04-19T11:12:55Z</time></trkpt><trkpt lat="44.07477195944925" lon="11.27510639560184"><ele>739.0</ele><time>2026-04-19T11:12:56Z</time></trkpt><trkpt lat="44.07460257283672" lon="11.27500432937354"><ele>733.0</ele><time>2026-04-19T11:12:57Z</time></trkpt><trkpt lat="44.07446203639825" lon="11.274863760083777"><ele>734.3333333333334</ele><time>2026-04-19T11:12:58Z</time></trkpt><trkpt lat="44.07432549621969" lon="11.274671959765646"><ele>735.6666666666666</ele><time>2026-04-19T11:12:59Z</time></trkpt><trkpt lat="44.07419392733726" lon="11.274468571099872"><ele>737.0</ele><time>2026-04-19T11:13:00Z</time></trkpt><trkpt lat="44.07408171204609" lon="11.274296741857539"><ele>732.5</ele><time>2026-04-19T11:13:01Z</time></trkpt><trkpt lat="44.073994631153795" lon="11.274161029756248"><ele>728.0</ele><time>2026-04-19T11:13:02Z</time></trkpt><trkpt lat="44.07394046682824" lon="11.274035683183952"><ele>723.5</ele><time>2026-04-19T11:13:03Z</time></trkpt><trkpt lat="44.07392145152171" lon="11.273887454195817"><ele>719.0</ele><time>2026-04-19T11:13:04Z</time></trkpt><trkpt lat="44.07394755824162" lon="11.273720828061737"><ele>717.6666666666666</ele><time>2026-04-19T11:13:05Z</time></trkpt><trkpt lat="44.074013740850226" lon="11.273520013611964"><ele>716.3333333333334</ele><time>2026-04-19T11:13:06Z</time></trkpt><trkpt lat="44.07409074792105" lon="11.273279740263947"><ele>715.0</ele><time>2026-04-19T11:13:07Z</time></trkpt><trkpt lat="44.07416176742054" lon="11.273036428184634"><ele>718.0</ele><time>2026-04-19T11:13:08Z</time></trkpt><trkpt lat="44.07418242777136" lon="11.272761946951276"><ele>721.0</ele><time>2026-04-19T11:13:09Z</time></trkpt><trkpt lat="44.074152856650926" lon="11.272469299430142"><ele>724.0</ele><time>2026-04-19T11:13:10Z</time></trkpt><trkpt lat="44.074113096671" lon="11.27219919846503"><ele>717.3333333333334</ele><time>2026-04-19T11:13:11Z</time></trkpt><trkpt lat="44.07408906855164" lon="11.271937814934196"><ele>710.6666666666666</ele><time>2026-04-19T11:13:12Z</time></trkpt><trkpt lat="44.07407132157651" lon="11.271680382455898"><ele>704.0</ele><time>2026-04-19T11:13:12.999Z</time></trkpt><trkpt lat="44.07404821775241" lon="11.271428985016781"><ele>704.0</ele><time>2026-04-19T11:13:13.999Z</time></trkpt><trkpt lat="44.074008078691" lon="11.27118056441617"><ele>704.0</ele><time>2026-04-19T11:13:14.999Z</time></trkpt><trkpt lat="44.073938021174385" lon="11.270941991229774"><ele>704.0</ele><time>2026-04-19T11:13:15.999Z</time></trkpt><trkpt lat="44.07384320696476" lon="11.270711017511811"><ele>703.6666666666666</ele><time>2026-04-19T11:13:16.999Z</time></trkpt><trkpt lat="44.073734538249795" lon="11.270506660677405"><ele>703.3333333333334</ele><time>2026-04-19T11:13:17.999Z</time></trkpt><trkpt lat="44.07359789215341" lon="11.270345440724238"><ele>703.0</ele><time>2026-04-19T11:13:18.999Z</time></trkpt><trkpt lat="44.07345898913877" lon="11.270223324259838"><ele>703.0</ele><time>2026-04-19T11:13:19.999Z</time></trkpt><trkpt lat="44.073331317120044" lon="11.270113480501937"><ele>703.0</ele><time>2026-04-19T11:13:20.999Z</time></trkpt><trkpt lat="44.07321797181406" lon="11.270030686367333"><ele>703.0</ele><time>2026-04-19T11:13:21.999Z</time></trkpt><trkpt lat="44.07310989772833" lon="11.269999393154459"><ele>703.0</ele><time>2026-04-19T11:13:22.999Z</time></trkpt><trkpt lat="44.07299619394451" lon="11.27001405236003"><ele>702.4</ele><time>2026-04-19T11:13:23.999Z</time></trkpt><trkpt lat="44.072890635682505" lon="11.270057171220857"><ele>701.8</ele><time>2026-04-19T11:13:24.999Z</time></trkpt><trkpt lat="44.072803139965956" lon="11.270134482908588"><ele>701.2</ele><time>2026-04-19T11:13:25.999Z</time></trkpt><trkpt lat="44.072750993677936" lon="11.2702591309482"><ele>700.6</ele><time>2026-04-19T11:13:26.999Z</time></trkpt><trkpt lat="44.07274322332298" lon="11.27043754564253"><ele>700.0</ele><time>2026-04-19T11:13:27.999Z</time></trkpt><trkpt lat="44.07276694816643" lon="11.27064289596933"><ele>700.0</ele><time>2026-04-19T11:13:28.999Z</time></trkpt><trkpt lat="44.072785428048945" lon="11.270863558437648"><ele>700.0</ele><time>2026-04-19T11:13:29.999Z</time></trkpt><trkpt lat="44.07279183396708" lon="11.27107575074526"><ele>700.0</ele><time>2026-04-19T11:13:30.999Z</time></trkpt><trkpt lat="44.07279815761064" lon="11.271251930811827"><ele>700.0</ele><time>2026-04-19T11:13:31.999Z</time></trkpt><trkpt lat="44.072796355338134" lon="11.271397924262967"><ele>698.2</ele><time>2026-04-19T11:13:32.999Z</time></trkpt><trkpt lat="44.07275879018134" lon="11.2715225038963"><ele>696.4</ele><time>2026-04-19T11:13:33.999Z</time></trkpt><trkpt lat="44.072714719631975" lon="11.271636436374873"><ele>694.5999999999999</ele><time>2026-04-19T11:13:34.999Z</time></trkpt><trkpt lat="44.07262325899011" lon="11.271692490415337"><ele>692.8</ele><time>2026-04-19T11:13:35.999Z</time></trkpt><trkpt lat="44.07254798779112" lon="11.27171782748926"><ele>691.0</ele><time>2026-04-19T11:13:36.999Z</time></trkpt><trkpt lat="44.0724650600643" lon="11.271701867494869"><ele>689.75</ele><time>2026-04-19T11:13:37.999Z</time></trkpt><trkpt lat="44.07238162703581" lon="11.271653577890744"><ele>688.5</ele><time>2026-04-19T11:13:38.999Z</time></trkpt><trkpt lat="44.07228786534346" lon="11.27157084896377"><ele>687.25</ele><time>2026-04-19T11:13:39.999Z</time></trkpt><trkpt lat="44.07218758076426" lon="11.271468594718524"><ele>686.0</ele><time>2026-04-19T11:13:40.999Z</time></trkpt><trkpt lat="44.07206181434289" lon="11.271361504944755"><ele>686.0</ele><time>2026-04-19T11:13:41.999Z</time></trkpt><trkpt lat="44.07192999069232" lon="11.271257590610027"><ele>686.0</ele><time>2026-04-19T11:13:42.999Z</time></trkpt><trkpt lat="44.07180170119402" lon="11.271119602865902"><ele>686.0</ele><time>2026-04-19T11:13:44Z</time></trkpt><trkpt lat="44.07165891873824" lon="11.270970052855127"><ele>682.0</ele><time>2026-04-19T11:13:45Z</time></trkpt><trkpt lat="44.07154543206678" lon="11.270763718886611"><ele>678.0</ele><time>2026-04-19T11:13:46Z</time></trkpt><trkpt lat="44.071426906525744" lon="11.270552337479034"><ele>674.0</ele><time>2026-04-19T11:13:47Z</time></trkpt><trkpt lat="44.07129757508092" lon="11.270350301658997"><ele>674.0</ele><time>2026-04-19T11:13:48Z</time></trkpt><trkpt lat="44.07111197086989" lon="11.270215310107577"><ele>674.0</ele><time>2026-04-19T11:13:49Z</time></trkpt><trkpt lat="44.070923713783614" lon="11.270090716597156"><ele>674.0</ele><time>2026-04-19T11:13:50Z</time></trkpt><trkpt lat="44.070759955235445" lon="11.269971761417423"><ele>672.0</ele><time>2026-04-19T11:13:51Z</time></trkpt><trkpt lat="44.07060772557526" lon="11.269874833460529"><ele>670.0</ele><time>2026-04-19T11:13:52Z</time></trkpt><trkpt lat="44.070438319585996" lon="11.269829242822484"><ele>668.0</ele><time>2026-04-19T11:13:53Z</time></trkpt><trkpt lat="44.07024455448867" lon="11.269861093764959"><ele>668.0</ele><time>2026-04-19T11:13:54Z</time></trkpt><trkpt lat="44.07003831341106" lon="11.269947039741794"><ele>668.0</ele><time>2026-04-19T11:13:55Z</time></trkpt><trkpt lat="44.069825144346254" lon="11.270003263604677"><ele>668.0</ele><time>2026-04-19T11:13:56Z</time></trkpt><trkpt lat="44.06962107546312" lon="11.270056071032476"><ele>666.0</ele><time>2026-04-19T11:13:57Z</time></trkpt><trkpt lat="44.06941997681207" lon="11.270103031189137"><ele>664.0</ele><time>2026-04-19T11:13:58Z</time></trkpt><trkpt lat="44.06922356117406" lon="11.270139904513355"><ele>662.0</ele><time>2026-04-19T11:13:59Z</time></trkpt><trkpt lat="44.0690386961482" lon="11.2701655088084"><ele>657.6666666666666</ele><time>2026-04-19T11:14:00Z</time></trkpt><trkpt lat="44.068857760430085" lon="11.270158396336944"><ele>653.3333333333334</ele><time>2026-04-19T11:14:01Z</time></trkpt><trkpt lat="44.0686831908507" lon="11.27014618576909"><ele>649.0</ele><time>2026-04-19T11:14:02Z</time></trkpt><trkpt lat="44.06851903972533" lon="11.270078424080154"><ele>649.0</ele><time>2026-04-19T11:14:03Z</time></trkpt><trkpt lat="44.068360404575" lon="11.269952837306473"><ele>649.0</ele><time>2026-04-19T11:14:04Z</time></trkpt><trkpt lat="44.06821234452187" lon="11.2698190402163"><ele>649.0</ele><time>2026-04-19T11:14:05Z</time></trkpt><trkpt lat="44.068101791179394" lon="11.269660119007932"><ele>645.3333333333334</ele><time>2026-04-19T11:14:06Z</time></trkpt><trkpt lat="44.06802988922281" lon="11.269465177713984"><ele>641.6666666666666</ele><time>2026-04-19T11:14:07Z</time></trkpt><trkpt lat="44.067949405985445" lon="11.269219243513943"><ele>638.0</ele><time>2026-04-19T11:14:08Z</time></trkpt><trkpt lat="44.06788099161041" lon="11.26893308975377"><ele>638.0</ele><time>2026-04-19T11:14:09Z</time></trkpt><trkpt lat="44.06782627783705" lon="11.26865994581467"><ele>638.0</ele><time>2026-04-19T11:14:10Z</time></trkpt><trkpt lat="44.067742189334616" lon="11.268435936787984"><ele>638.0</ele><time>2026-04-19T11:14:11Z</time></trkpt><trkpt lat="44.06766249272038" lon="11.268250937402527"><ele>637.0</ele><time>2026-04-19T11:14:12Z</time></trkpt><trkpt lat="44.06751528612545" lon="11.268087457593587"><ele>636.0</ele><time>2026-04-19T11:14:13Z</time></trkpt><trkpt lat="44.06735678797865" lon="11.268058154371277"><ele>635.0</ele><time>2026-04-19T11:14:14Z</time></trkpt><trkpt lat="44.067150029410946" lon="11.26805224973205"><ele>633.6666666666666</ele><time>2026-04-19T11:14:15Z</time></trkpt><trkpt lat="44.066989262045965" lon="11.26798841378407"><ele>632.3333333333334</ele><time>2026-04-19T11:14:16Z</time></trkpt><trkpt lat="44.06684334245638" lon="11.267831543558648"><ele>631.0</ele><time>2026-04-19T11:14:17Z</time></trkpt><trkpt lat="44.06667820431191" lon="11.267629640025"><ele>630.0</ele><time>2026-04-19T11:14:18Z</time></trkpt><trkpt lat="44.066515229082675" lon="11.267454215402328"><ele>629.0</ele><time>2026-04-19T11:14:19Z</time></trkpt><trkpt lat="44.06632313389392" lon="11.267335889627608"><ele>628.0</ele><time>2026-04-19T11:14:20Z</time></trkpt><trkpt lat="44.06609225271257" lon="11.267275083307165"><ele>628.0</ele><time>2026-04-19T11:14:21Z</time></trkpt><trkpt lat="44.06584407318288" lon="11.267245467746893"><ele>628.0</ele><time>2026-04-19T11:14:22Z</time></trkpt><trkpt lat="44.06558323870293" lon="11.267170783083321"><ele>627.0</ele><time>2026-04-19T11:14:23Z</time></trkpt><trkpt lat="44.06532008438859" lon="11.267056663366835"><ele>626.0</ele><time>2026-04-19T11:14:24Z</time></trkpt><trkpt lat="44.065091580271144" lon="11.26695836535493"><ele>622.6666666666666</ele><time>2026-04-19T11:14:25Z</time></trkpt><trkpt lat="44.06489276265551" lon="11.266902686498767"><ele>619.3333333333334</ele><time>2026-04-19T11:14:26Z</time></trkpt><trkpt lat="44.064716265242296" lon="11.266919505746193"><ele>616.0</ele><time>2026-04-19T11:14:27Z</time></trkpt><trkpt lat="44.06456718958279" lon="11.266941559479907"><ele>616.0</ele><time>2026-04-19T11:14:28Z</time></trkpt><trkpt lat="44.06443088281698" lon="11.266916328055068"><ele>616.0</ele><time>2026-04-19T11:14:29Z</time></trkpt><trkpt lat="44.0643162717682" lon="11.266857194212152"><ele>616.0</ele><time>2026-04-19T11:14:30Z</time></trkpt><trkpt lat="44.06422550920227" lon="11.266724071591883"><ele>616.0</ele><time>2026-04-19T11:14:31Z</time></trkpt><trkpt lat="44.06410102717847" lon="11.266537002063716"><ele>611.0</ele><time>2026-04-19T11:14:32Z</time></trkpt><trkpt lat="44.06395322791196" lon="11.266332777191034"><ele>606.0</ele><time>2026-04-19T11:14:33Z</time></trkpt><trkpt lat="44.06380207713669" lon="11.26611235871276"><ele>601.0</ele><time>2026-04-19T11:14:34Z</time></trkpt><trkpt lat="44.06367383350683" lon="11.26587544007441"><ele>601.0</ele><time>2026-04-19T11:14:35Z</time></trkpt><trkpt lat="44.06354878201454" lon="11.265654552458592"><ele>601.0</ele><time>2026-04-19T11:14:36Z</time></trkpt><trkpt lat="44.063444474535736" lon="11.26540443302758"><ele>601.0</ele><time>2026-04-19T11:14:37Z</time></trkpt><trkpt lat="44.063333537140615" lon="11.265139548742145"><ele>597.0</ele><time>2026-04-19T11:14:38Z</time></trkpt><trkpt lat="44.06323620793311" lon="11.264872613717795"><ele>593.0</ele><time>2026-04-19T11:14:39Z</time></trkpt><trkpt lat="44.063122190824856" lon="11.264626250939155"><ele>589.0</ele><time>2026-04-19T11:14:40Z</time></trkpt><trkpt lat="44.06297141876675" lon="11.2644106627641"><ele>589.0</ele><time>2026-04-19T11:14:41Z</time></trkpt><trkpt lat="44.062775562613574" lon="11.264251832802367"><ele>589.0</ele><time>2026-04-19T11:14:42Z</time></trkpt><trkpt lat="44.0625718772875" lon="11.264131481735676"><ele>589.0</ele><time>2026-04-19T11:14:43Z</time></trkpt><trkpt lat="44.06235959317091" lon="11.263990389185377"><ele>585.0</ele><time>2026-04-19T11:14:44Z</time></trkpt><trkpt lat="44.062161435002444" lon="11.263873897537517"><ele>581.0</ele><time>2026-04-19T11:14:45Z</time></trkpt><trkpt lat="44.061969849088456" lon="11.2637583822699"><ele>577.0</ele><time>2026-04-19T11:14:46Z</time></trkpt><trkpt lat="44.06177722044061" lon="11.263629050314819"><ele>575.3333333333334</ele><time>2026-04-19T11:14:47Z</time></trkpt><trkpt lat="44.06158774979389" lon="11.263501076081859"><ele>573.6666666666666</ele><time>2026-04-19T11:14:48Z</time></trkpt><trkpt lat="44.06140170778269" lon="11.263380099889162"><ele>572.0</ele><time>2026-04-19T11:14:49Z</time></trkpt><trkpt lat="44.06121333369948" lon="11.263254315673436"><ele>572.0</ele><time>2026-04-19T11:14:50Z</time></trkpt><trkpt lat="44.06101539960494" lon="11.26313414837507"><ele>572.0</ele><time>2026-04-19T11:14:51Z</time></trkpt><trkpt lat="44.060805756087" lon="11.263038394507198"><ele>572.0</ele><time>2026-04-19T11:14:52Z</time></trkpt><trkpt lat="44.06058664078353" lon="11.262983582664003"><ele>573.0</ele><time>2026-04-19T11:14:53Z</time></trkpt><trkpt lat="44.06036310908441" lon="11.262972649469416"><ele>574.0</ele><time>2026-04-19T11:14:54Z</time></trkpt><trkpt lat="44.060147869283405" lon="11.262986079767895"><ele>575.0</ele><time>2026-04-19T11:14:55Z</time></trkpt><trkpt lat="44.059942104529505" lon="11.262999546688013"><ele>571.3333333333333</ele><time>2026-04-19T11:14:56Z</time></trkpt><trkpt lat="44.05972983065352" lon="11.263011860033858"><ele>567.6666666666666</ele><time>2026-04-19T11:14:57Z</time></trkpt><trkpt lat="44.05951578786971" lon="11.263011714057653"><ele>564.0</ele><time>2026-04-19T11:14:58Z</time></trkpt><trkpt lat="44.05930248876958" lon="11.263007582714637"><ele>562.0</ele><time>2026-04-19T11:14:58.999Z</time></trkpt><trkpt lat="44.05909417348675" lon="11.263011990394082"><ele>560.0</ele><time>2026-04-19T11:14:59.999Z</time></trkpt><trkpt lat="44.058898567369326" lon="11.263021965124082"><ele>558.0</ele><time>2026-04-19T11:15:00.999Z</time></trkpt><trkpt lat="44.058714375276715" lon="11.263039723638302"><ele>558.0</ele><time>2026-04-19T11:15:01.999Z</time></trkpt><trkpt lat="44.05854174643629" lon="11.263050468816784"><ele>558.0</ele><time>2026-04-19T11:15:02.999Z</time></trkpt><trkpt lat="44.05837228804674" lon="11.263029203840688"><ele>558.0</ele><time>2026-04-19T11:15:03.999Z</time></trkpt><trkpt lat="44.058221081273665" lon="11.262949299012499"><ele>557.0</ele><time>2026-04-19T11:15:04.999Z</time></trkpt><trkpt lat="44.05808433230922" lon="11.262830869146269"><ele>556.0</ele><time>2026-04-19T11:15:05.999Z</time></trkpt><trkpt lat="44.05793228949746" lon="11.262708893926042"><ele>555.0</ele><time>2026-04-19T11:15:06.999Z</time></trkpt><trkpt lat="44.05777506007887" lon="11.2625977336982"><ele>555.0</ele><time>2026-04-19T11:15:07.999Z</time></trkpt><trkpt lat="44.0576217982672" lon="11.262492140358379"><ele>555.0</ele><time>2026-04-19T11:15:08.999Z</time></trkpt><trkpt lat="44.0574629542307" lon="11.262423904812763"><ele>555.0</ele><time>2026-04-19T11:15:09.999Z</time></trkpt><trkpt lat="44.05730978457908" lon="11.262380991855984"><ele>552.6666666666666</ele><time>2026-04-19T11:15:10.999Z</time></trkpt><trkpt lat="44.05715645405451" lon="11.262406175880104"><ele>550.3333333333333</ele><time>2026-04-19T11:15:11.999Z</time></trkpt><trkpt lat="44.05701025665445" lon="11.262510344444063"><ele>548.0</ele><time>2026-04-19T11:15:12.999Z</time></trkpt><trkpt lat="44.056875261827145" lon="11.262660242269101"><ele>548.0</ele><time>2026-04-19T11:15:13.999Z</time></trkpt><trkpt lat="44.05673030593027" lon="11.262749471606503"><ele>548.0</ele><time>2026-04-19T11:15:14.999Z</time></trkpt><trkpt lat="44.05660044565847" lon="11.262808922267974"><ele>548.0</ele><time>2026-04-19T11:15:15.999Z</time></trkpt><trkpt lat="44.056464221764834" lon="11.262761104432109"><ele>548.0</ele><time>2026-04-19T11:15:16.999Z</time></trkpt><trkpt lat="44.05634775376006" lon="11.262640345698475"><ele>545.0</ele><time>2026-04-19T11:15:17.999Z</time></trkpt><trkpt lat="44.05620314645134" lon="11.262469695318448"><ele>542.0</ele><time>2026-04-19T11:15:18.999Z</time></trkpt><trkpt lat="44.05600395629351" lon="11.262350348891136"><ele>539.0</ele><time>2026-04-19T11:15:19.999Z</time></trkpt><trkpt lat="44.05578258517397" lon="11.262259023002237"><ele>534.5</ele><time>2026-04-19T11:15:20.999Z</time></trkpt><trkpt lat="44.05554378648398" lon="11.262139563765126"><ele>530.0</ele><time>2026-04-19T11:15:21.999Z</time></trkpt><trkpt lat="44.05527022852146" lon="11.262090293631386"><ele>530.0</ele><time>2026-04-19T11:15:22.999Z</time></trkpt><trkpt lat="44.05500662496094" lon="11.26198817783699"><ele>530.0</ele><time>2026-04-19T11:15:23.999Z</time></trkpt><trkpt lat="44.05476474747327" lon="11.2618918353664"><ele>531.3333333333333</ele><time>2026-04-19T11:15:24.999Z</time></trkpt><trkpt lat="44.054546520186776" lon="11.261805061749754"><ele>532.6666666666666</ele><time>2026-04-19T11:15:25.999Z</time></trkpt><trkpt lat="44.05434264533818" lon="11.261723450486464"><ele>534.0</ele><time>2026-04-19T11:15:26.999Z</time></trkpt><trkpt lat="44.054153413670896" lon="11.26163851976916"><ele>535.6666666666666</ele><time>2026-04-19T11:15:27.999Z</time></trkpt><trkpt lat="44.0539654855798" lon="11.261557911380576"><ele>537.3333333333333</ele><time>2026-04-19T11:15:28.999Z</time></trkpt><trkpt lat="44.05378915099905" lon="11.26149791421667"><ele>539.0</ele><time>2026-04-19T11:15:29.999Z</time></trkpt><trkpt lat="44.05362016789253" lon="11.261413588946287"><ele>535.3333333333333</ele><time>2026-04-19T11:15:30.999Z</time></trkpt><trkpt lat="44.05347272340911" lon="11.261292175549515"><ele>531.6666666666666</ele><time>2026-04-19T11:15:31.999Z</time></trkpt><trkpt lat="44.05333900301943" lon="11.261176174957019"><ele>528.0</ele><time>2026-04-19T11:15:32.999Z</time></trkpt><trkpt lat="44.053208842626276" lon="11.261064394575852"><ele>528.0</ele><time>2026-04-19T11:15:33.999Z</time></trkpt><trkpt lat="44.05308705411779" lon="11.260930116231181"><ele>528.0</ele><time>2026-04-19T11:15:34.999Z</time></trkpt><trkpt lat="44.05296759301909" lon="11.260807048830177"><ele>528.0</ele><time>2026-04-19T11:15:35.999Z</time></trkpt><trkpt lat="44.052846098013354" lon="11.260706477160324"><ele>528.0</ele><time>2026-04-19T11:15:36.999Z</time></trkpt><trkpt lat="44.05271879427193" lon="11.260629343949462"><ele>526.25</ele><time>2026-04-19T11:15:37.999Z</time></trkpt><trkpt lat="44.05258408489533" lon="11.260590648376851"><ele>524.5</ele><time>2026-04-19T11:15:38.999Z</time></trkpt><trkpt lat="44.052443949410865" lon="11.26058529503982"><ele>522.75</ele><time>2026-04-19T11:15:39.999Z</time></trkpt><trkpt lat="44.052301520304695" lon="11.260615013084939"><ele>521.0</ele><time>2026-04-19T11:15:40.999Z</time></trkpt><trkpt lat="44.05216305035634" lon="11.260648098375727"><ele>521.0</ele><time>2026-04-19T11:15:41.999Z</time></trkpt><trkpt lat="44.052035071336554" lon="11.26068282423389"><ele>521.0</ele><time>2026-04-19T11:15:42.999Z</time></trkpt><trkpt lat="44.051914917417676" lon="11.260722402156004"><ele>521.0</ele><time>2026-04-19T11:15:43.999Z</time></trkpt><trkpt lat="44.05179731523404" lon="11.260773329003033"><ele>521.0</ele><time>2026-04-19T11:15:44.999Z</time></trkpt><trkpt lat="44.05168936058545" lon="11.26081628550134"><ele>520.4</ele><time>2026-04-19T11:15:45.999Z</time></trkpt><trkpt lat="44.05158387943555" lon="11.26085175382202"><ele>519.8</ele><time>2026-04-19T11:15:46.999Z</time></trkpt><trkpt lat="44.051482422796774" lon="11.260891513503246"><ele>519.1999999999999</ele><time>2026-04-19T11:15:47.999Z</time></trkpt><trkpt lat="44.051378746958875" lon="11.260931596387257"><ele>518.6</ele><time>2026-04-19T11:15:48.999Z</time></trkpt><trkpt lat="44.05128033179829" lon="11.260967294461615"><ele>518.0</ele><time>2026-04-19T11:15:50Z</time></trkpt><trkpt lat="44.05117333932983" lon="11.261013132064864"><ele>518.0</ele><time>2026-04-19T11:15:51Z</time></trkpt><trkpt lat="44.05105611037803" lon="11.2610523723125"><ele>518.0</ele><time>2026-04-19T11:15:52Z</time></trkpt><trkpt lat="44.05093051773019" lon="11.261102851519041"><ele>518.0</ele><time>2026-04-19T11:15:53Z</time></trkpt><trkpt lat="44.05079097987888" lon="11.26115378447765"><ele>518.0</ele><time>2026-04-19T11:15:54Z</time></trkpt><trkpt lat="44.05064460547987" lon="11.26120693992056"><ele>517.3333333333333</ele><time>2026-04-19T11:15:55Z</time></trkpt><trkpt lat="44.05048770064386" lon="11.261254571863605"><ele>516.6666666666666</ele><time>2026-04-19T11:15:56Z</time></trkpt><trkpt lat="44.050326058354365" lon="11.261287563551317"><ele>516.0</ele><time>2026-04-19T11:15:57Z</time></trkpt><trkpt lat="44.050160735994865" lon="11.261305217599054"><ele>516.0</ele><time>2026-04-19T11:15:58Z</time></trkpt><trkpt lat="44.04999484026955" lon="11.261314243212963"><ele>516.0</ele><time>2026-04-19T11:15:59Z</time></trkpt><trkpt lat="44.04983659281138" lon="11.261305137353885"><ele>516.0</ele><time>2026-04-19T11:16:00Z</time></trkpt><trkpt lat="44.04968113381479" lon="11.261284959694885"><ele>515.3333333333334</ele><time>2026-04-19T11:16:01Z</time></trkpt><trkpt lat="44.04952460959539" lon="11.26125400744812"><ele>514.6666666666667</ele><time>2026-04-19T11:16:02Z</time></trkpt><trkpt lat="44.04936147416552" lon="11.261213654757263"><ele>514.0</ele><time>2026-04-19T11:16:03Z</time></trkpt><trkpt lat="44.04919636403273" lon="11.261159170710561"><ele>515.3333333333334</ele><time>2026-04-19T11:16:04Z</time></trkpt><trkpt lat="44.04904307164549" lon="11.261105039319029"><ele>516.6666666666666</ele><time>2026-04-19T11:16:05Z</time></trkpt><trkpt lat="44.048891078549886" lon="11.261046941349013"><ele>518.0</ele><time>2026-04-19T11:16:06Z</time></trkpt><trkpt lat="44.04873952910601" lon="11.260961178393368"><ele>518.0</ele><time>2026-04-19T11:16:07Z</time></trkpt><trkpt lat="44.04860047292753" lon="11.260831011542251"><ele>518.0</ele><time>2026-04-19T11:16:08Z</time></trkpt><trkpt lat="44.0484641104791" lon="11.260676339655909"><ele>518.0</ele><time>2026-04-19T11:16:09Z</time></trkpt><trkpt lat="44.0483283971881" lon="11.260510832627634"><ele>515.6666666666666</ele><time>2026-04-19T11:16:10Z</time></trkpt><trkpt lat="44.04819691209654" lon="11.260346259887049"><ele>513.3333333333334</ele><time>2026-04-19T11:16:11Z</time></trkpt><trkpt lat="44.04806987826176" lon="11.260173901574259"><ele>511.0</ele><time>2026-04-19T11:16:12Z</time></trkpt><trkpt lat="44.047945811704274" lon="11.259994178001552"><ele>511.0</ele><time>2026-04-19T11:16:13Z</time></trkpt><trkpt lat="44.04782446688399" lon="11.259804899906854"><ele>511.0</ele><time>2026-04-19T11:16:14Z</time></trkpt><trkpt lat="44.04768140309549" lon="11.259650637267388"><ele>511.0</ele><time>2026-04-19T11:16:15Z</time></trkpt><trkpt lat="44.04751900275308" lon="11.259512057012525"><ele>513.6666666666667</ele><time>2026-04-19T11:16:16Z</time></trkpt><trkpt lat="44.04735798221083" lon="11.259365877121471"><ele>516.3333333333334</ele><time>2026-04-19T11:16:17Z</time></trkpt><trkpt lat="44.04720995074587" lon="11.259200476139014"><ele>519.0</ele><time>2026-04-19T11:16:18Z</time></trkpt><trkpt lat="44.04705810155212" lon="11.25904848985216"><ele>514.3333333333334</ele><time>2026-04-19T11:16:19Z</time></trkpt><trkpt lat="44.046921892075176" lon="11.258902630363414"><ele>509.6666666666667</ele><time>2026-04-19T11:16:20Z</time></trkpt><trkpt lat="44.046791099825185" lon="11.258756137120871"><ele>505.0</ele><time>2026-04-19T11:16:21Z</time></trkpt><trkpt lat="44.046673080359696" lon="11.258620152659319"><ele>506.25</ele><time>2026-04-19T11:16:22Z</time></trkpt><trkpt lat="44.046566062804274" lon="11.258487439133958"><ele>507.5</ele><time>2026-04-19T11:16:23Z</time></trkpt><trkpt lat="44.046464529472736" lon="11.258376015202215"><ele>508.75</ele><time>2026-04-19T11:16:24Z</time></trkpt><trkpt lat="44.0463640528009" lon="11.258234766821712"><ele>510.0</ele><time>2026-04-19T11:16:25Z</time></trkpt><trkpt lat="44.04625066255404" lon="11.258117677616571"><ele>507.66666666666663</ele><time>2026-04-19T11:16:26Z</time></trkpt><trkpt lat="44.04611708039937" lon="11.258060182216395"><ele>505.3333333333333</ele><time>2026-04-19T11:16:27Z</time></trkpt><trkpt lat="44.04595592687679" lon="11.258062899181992"><ele>503.0</ele><time>2026-04-19T11:16:28Z</time></trkpt><trkpt lat="44.04579025533204" lon="11.25814419229407"><ele>503.0</ele><time>2026-04-19T11:16:29Z</time></trkpt><trkpt lat="44.04562407166185" lon="11.258266106434997"><ele>503.0</ele><time>2026-04-19T11:16:30Z</time></trkpt><trkpt lat="44.04544398607322" lon="11.258386138459539"><ele>503.0</ele><time>2026-04-19T11:16:31Z</time></trkpt><trkpt lat="44.0452615117235" lon="11.258442867142293"><ele>503.0</ele><time>2026-04-19T11:16:32Z</time></trkpt><trkpt lat="44.04507003986081" lon="11.258488973958492"><ele>503.0</ele><time>2026-04-19T11:16:33Z</time></trkpt><trkpt lat="44.04488868774171" lon="11.25856071960808"><ele>503.0</ele><time>2026-04-19T11:16:34Z</time></trkpt><trkpt lat="44.04469358848734" lon="11.258622405315979"><ele>499.3333333333333</ele><time>2026-04-19T11:16:35Z</time></trkpt><trkpt lat="44.044494484206105" lon="11.258661270236303"><ele>495.66666666666663</ele><time>2026-04-19T11:16:36Z</time></trkpt><trkpt lat="44.0443058467986" lon="11.25871881299838"><ele>492.0</ele><time>2026-04-19T11:16:37Z</time></trkpt><trkpt lat="44.04412326936054" lon="11.2587762117858"><ele>490.33333333333337</ele><time>2026-04-19T11:16:38Z</time></trkpt><trkpt lat="44.043942546703185" lon="11.258851265317928"><ele>488.6666666666667</ele><time>2026-04-19T11:16:39Z</time></trkpt><trkpt lat="44.043762505409916" lon="11.258891501881529"><ele>487.0</ele><time>2026-04-19T11:16:40Z</time></trkpt><trkpt lat="44.04358189300427" lon="11.258914620525053"><ele>487.0</ele><time>2026-04-19T11:16:41Z</time></trkpt><trkpt lat="44.04340212032711" lon="11.258928635986061"><ele>487.0</ele><time>2026-04-19T11:16:42Z</time></trkpt><trkpt lat="44.04322619568248" lon="11.258939967421414"><ele>487.0</ele><time>2026-04-19T11:16:43Z</time></trkpt><trkpt lat="44.043054445556336" lon="11.25895351194773"><ele>488.5</ele><time>2026-04-19T11:16:44Z</time></trkpt><trkpt lat="44.042896810394126" lon="11.25897334056815"><ele>490.0</ele><time>2026-04-19T11:16:45Z</time></trkpt><trkpt lat="44.04275195718964" lon="11.259006051169438"><ele>491.5</ele><time>2026-04-19T11:16:46Z</time></trkpt><trkpt lat="44.04261159645357" lon="11.259047750469955"><ele>493.0</ele><time>2026-04-19T11:16:47Z</time></trkpt><trkpt lat="44.042471912967095" lon="11.259044616721559"><ele>493.0</ele><time>2026-04-19T11:16:48Z</time></trkpt><trkpt lat="44.04233144811125" lon="11.258980296110535"><ele>493.0</ele><time>2026-04-19T11:16:49Z</time></trkpt><trkpt lat="44.042172233803754" lon="11.258937445886945"><ele>493.0</ele><time>2026-04-19T11:16:50Z</time></trkpt><trkpt lat="44.04200448949118" lon="11.258874255825534"><ele>491.6666666666667</ele><time>2026-04-19T11:16:50.999Z</time></trkpt><trkpt lat="44.041831040797" lon="11.258799403864279"><ele>490.33333333333337</ele><time>2026-04-19T11:16:51.999Z</time></trkpt><trkpt lat="44.041655470492884" lon="11.258737906741251"><ele>489.0</ele><time>2026-04-19T11:16:52.999Z</time></trkpt><trkpt lat="44.04149507410379" lon="11.258591373944776"><ele>489.0</ele><time>2026-04-19T11:16:53.999Z</time></trkpt><trkpt lat="44.0413296880752" lon="11.258518872277183"><ele>489.0</ele><time>2026-04-19T11:16:54.999Z</time></trkpt><trkpt lat="44.041172626223066" lon="11.2584486634784"><ele>489.0</ele><time>2026-04-19T11:16:55.999Z</time></trkpt><trkpt lat="44.04101105906132" lon="11.258364209126256"><ele>489.0</ele><time>2026-04-19T11:16:56.999Z</time></trkpt><trkpt lat="44.040874209251314" lon="11.258210817943613"><ele>489.0</ele><time>2026-04-19T11:16:57.999Z</time></trkpt><trkpt lat="44.040746720832125" lon="11.258070718460534"><ele>489.0</ele><time>2026-04-19T11:16:58.999Z</time></trkpt><trkpt lat="44.04064083689389" lon="11.257918068326271"><ele>489.25</ele><time>2026-04-19T11:16:59.999Z</time></trkpt><trkpt lat="44.04056614366445" lon="11.257757790891047"><ele>489.5</ele><time>2026-04-19T11:17:00.999Z</time></trkpt><trkpt lat="44.04053606693269" lon="11.257561836242894"><ele>489.75</ele><time>2026-04-19T11:17:01.999Z</time></trkpt><trkpt lat="44.04053264849777" lon="11.257331302243639"><ele>490.0</ele><time>2026-04-19T11:17:02.999Z</time></trkpt><trkpt lat="44.04052728389465" lon="11.257100631034016"><ele>490.0</ele><time>2026-04-19T11:17:03.999Z</time></trkpt><trkpt lat="44.04051695574225" lon="11.25688756024455"><ele>490.0</ele><time>2026-04-19T11:17:04.999Z</time></trkpt><trkpt lat="44.040466499129295" lon="11.25669219141051"><ele>490.0</ele><time>2026-04-19T11:17:05.999Z</time></trkpt><trkpt lat="44.040380967342024" lon="11.256535324860753"><ele>490.0</ele><time>2026-04-19T11:17:06.999Z</time></trkpt><trkpt lat="44.040334890572666" lon="11.256350606817376"><ele>488.5</ele><time>2026-04-19T11:17:07.999Z</time></trkpt><trkpt lat="44.040333748462594" lon="11.25617115426926"><ele>487.0</ele><time>2026-04-19T11:17:08.999Z</time></trkpt><trkpt lat="44.04038751991595" lon="11.255993816443395"><ele>485.5</ele><time>2026-04-19T11:17:09.999Z</time></trkpt><trkpt lat="44.04048278079404" lon="11.255799983988718"><ele>484.0</ele><time>2026-04-19T11:17:10.999Z</time></trkpt><trkpt lat="44.04060356529773" lon="11.255574809685786"><ele>478.33333333333337</ele><time>2026-04-19T11:17:11.999Z</time></trkpt><trkpt lat="44.04071090623151" lon="11.255348448024586"><ele>472.66666666666663</ele><time>2026-04-19T11:17:12.999Z</time></trkpt><trkpt lat="44.04081704288553" lon="11.255164975380037"><ele>467.0</ele><time>2026-04-19T11:17:13.999Z</time></trkpt><trkpt lat="44.0409011397111" lon="11.255014399195773"><ele>467.0</ele><time>2026-04-19T11:17:14.999Z</time></trkpt><trkpt lat="44.040964616995076" lon="11.254908505614932"><ele>467.00000000000006</ele><time>2026-04-19T11:17:15.999Z</time></trkpt><trkpt lat="44.040992819361996" lon="11.254764116266076"><ele>467.00000000000006</ele><time>2026-04-19T11:17:16.999Z</time></trkpt><trkpt lat="44.04095989575723" lon="11.254621955083477"><ele>467.0</ele><time>2026-04-19T11:17:17.999Z</time></trkpt><trkpt lat="44.04083946472311" lon="11.254542923446072"><ele>467.0</ele><time>2026-04-19T11:17:18.999Z</time></trkpt><trkpt lat="44.04072381878566" lon="11.254553008517501"><ele>467.0</ele><time>2026-04-19T11:17:19.999Z</time></trkpt><trkpt lat="44.04059608769078" lon="11.254655801683928"><ele>467.0</ele><time>2026-04-19T11:17:20.999Z</time></trkpt><trkpt lat="44.04047441289415" lon="11.254801445695545"><ele>467.0</ele><time>2026-04-19T11:17:21.999Z</time></trkpt><trkpt lat="44.04034675044775" lon="11.254968572210004"><ele>467.0</ele><time>2026-04-19T11:17:22.999Z</time></trkpt><trkpt lat="44.0402295576662" lon="11.25507826772256"><ele>467.0</ele><time>2026-04-19T11:17:23.999Z</time></trkpt><trkpt lat="44.0401061108554" lon="11.255120519716211"><ele>467.0</ele><time>2026-04-19T11:17:24.999Z</time></trkpt><trkpt lat="44.039991097176305" lon="11.255102525773404"><ele>467.0</ele><time>2026-04-19T11:17:25.999Z</time></trkpt><trkpt lat="44.03988621913734" lon="11.25501364884222"><ele>463.5</ele><time>2026-04-19T11:17:26.999Z</time></trkpt><trkpt lat="44.0397641119997" lon="11.254897293042422"><ele>460.0</ele><time>2026-04-19T11:17:27.999Z</time></trkpt><trkpt lat="44.03964411421647" lon="11.25480432163614"><ele>456.5</ele><time>2026-04-19T11:17:28.999Z</time></trkpt><trkpt lat="44.039520431967894" lon="11.254748883229958"><ele>453.0</ele><time>2026-04-19T11:17:29.999Z</time></trkpt><trkpt lat="44.03938624561695" lon="11.254754036740332"><ele>453.0</ele><time>2026-04-19T11:17:30.999Z</time></trkpt><trkpt lat="44.03926610894357" lon="11.25485564002974"><ele>453.0</ele><time>2026-04-19T11:17:31.999Z</time></trkpt><trkpt lat="44.0391576280548" lon="11.255030826132822"><ele>453.0</ele><time>2026-04-19T11:17:32.999Z</time></trkpt><trkpt lat="44.039052063308155" lon="11.255227404014263"><ele>456.0</ele><time>2026-04-19T11:17:33.999Z</time></trkpt><trkpt lat="44.03893824901242" lon="11.255402960925519"><ele>459.0</ele><time>2026-04-19T11:17:34.999Z</time></trkpt><trkpt lat="44.038834899798175" lon="11.255564085588142"><ele>462.0</ele><time>2026-04-19T11:17:35.999Z</time></trkpt><trkpt lat="44.0387312198542" lon="11.255709802401933"><ele>462.0</ele><time>2026-04-19T11:17:36.999Z</time></trkpt><trkpt lat="44.03860186382951" lon="11.255804129629002"><ele>462.0</ele><time>2026-04-19T11:17:37.999Z</time></trkpt><trkpt lat="44.03847013320877" lon="11.255866195142524"><ele>462.0</ele><time>2026-04-19T11:17:38.999Z</time></trkpt><trkpt lat="44.03833635014421" lon="11.255876594156899"><ele>462.0</ele><time>2026-04-19T11:17:39.999Z</time></trkpt><trkpt lat="44.03819343420992" lon="11.255835477716563"><ele>461.0</ele><time>2026-04-19T11:17:40.999Z</time></trkpt><trkpt lat="44.03804545502063" lon="11.255749356792899"><ele>460.0</ele><time>2026-04-19T11:17:41.999Z</time></trkpt><trkpt lat="44.037901122600964" lon="11.255628478754208"><ele>459.0</ele><time>2026-04-19T11:17:42.999Z</time></trkpt><trkpt lat="44.03777972100779" lon="11.255473695619441"><ele>459.0</ele><time>2026-04-19T11:17:43.999Z</time></trkpt><trkpt lat="44.03768651337706" lon="11.255277361539655"><ele>459.0</ele><time>2026-04-19T11:17:44.999Z</time></trkpt><trkpt lat="44.03761376741572" lon="11.255083741415776"><ele>459.0</ele><time>2026-04-19T11:17:45.999Z</time></trkpt><trkpt lat="44.037597950330436" lon="11.254898723491682"><ele>456.25</ele><time>2026-04-19T11:17:46.999Z</time></trkpt><trkpt lat="44.03761899950486" lon="11.254697857016845"><ele>453.5</ele><time>2026-04-19T11:17:47.999Z</time></trkpt><trkpt lat="44.037620193723654" lon="11.254487882346407"><ele>450.75</ele><time>2026-04-19T11:17:48.999Z</time></trkpt><trkpt lat="44.037601051413034" lon="11.254295121818938"><ele>448.0</ele><time>2026-04-19T11:17:49.999Z</time></trkpt><trkpt lat="44.03753807145897" lon="11.25412099643791"><ele>450.25</ele><time>2026-04-19T11:17:50.999Z</time></trkpt><trkpt lat="44.037428971014656" lon="11.253987477218896"><ele>452.5</ele><time>2026-04-19T11:17:51.999Z</time></trkpt><trkpt lat="44.03738658678818" lon="11.253827356300867"><ele>454.75</ele><time>2026-04-19T11:17:52.999Z</time></trkpt><trkpt lat="44.037385308443014" lon="11.253643324597943"><ele>457.0</ele><time>2026-04-19T11:17:53.999Z</time></trkpt><trkpt lat="44.03736523862464" lon="11.253384007286009"><ele>457.33333333333337</ele><time>2026-04-19T11:17:54.999Z</time></trkpt><trkpt lat="44.03732027311854" lon="11.253123944195764"><ele>457.66666666666663</ele><time>2026-04-19T11:17:56Z</time></trkpt><trkpt lat="44.03730400119094" lon="11.252864293454184"><ele>458.0</ele><time>2026-04-19T11:17:57Z</time></trkpt><trkpt lat="44.03728223173115" lon="11.25263046581384"><ele>460.3333333333333</ele><time>2026-04-19T11:17:58Z</time></trkpt><trkpt lat="44.03730145054378" lon="11.252412357028456"><ele>462.66666666666663</ele><time>2026-04-19T11:17:59Z</time></trkpt><trkpt lat="44.03734976836072" lon="11.252210913649629"><ele>465.0</ele><time>2026-04-19T11:18:00Z</time></trkpt><trkpt lat="44.03742728940305" lon="11.251989001161228"><ele>458.0</ele><time>2026-04-19T11:18:01Z</time></trkpt><trkpt lat="44.03749985568237" lon="11.251731649366638"><ele>451.0</ele><time>2026-04-19T11:18:02Z</time></trkpt><trkpt lat="44.03759905907977" lon="11.251511368551085"><ele>444.0</ele><time>2026-04-19T11:18:03Z</time></trkpt><trkpt lat="44.03767945573264" lon="11.251298025748712"><ele>442.5</ele><time>2026-04-19T11:18:04Z</time></trkpt><trkpt lat="44.037753864948314" lon="11.251094842930845"><ele>441.0</ele><time>2026-04-19T11:18:05Z</time></trkpt><trkpt lat="44.037807217906725" lon="11.250900330054758"><ele>439.5</ele><time>2026-04-19T11:18:06Z</time></trkpt><trkpt lat="44.03786074588543" lon="11.250739372061446"><ele>438.0</ele><time>2026-04-19T11:18:07Z</time></trkpt><trkpt lat="44.03788004039105" lon="11.250595632844151"><ele>434.75</ele><time>2026-04-19T11:18:08Z</time></trkpt><trkpt lat="44.037832824307685" lon="11.25047928182838"><ele>431.5</ele><time>2026-04-19T11:18:09Z</time></trkpt><trkpt lat="44.037738122322025" lon="11.250411019198541"><ele>428.25</ele><time>2026-04-19T11:18:10Z</time></trkpt><trkpt lat="44.037611547820596" lon="11.250414952118554"><ele>425.0</ele><time>2026-04-19T11:18:11Z</time></trkpt><trkpt lat="44.03746161112125" lon="11.250492262441567"><ele>425.0</ele><time>2026-04-19T11:18:12Z</time></trkpt><trkpt lat="44.037283705945036" lon="11.25060458455163"><ele>425.0</ele><time>2026-04-19T11:18:13Z</time></trkpt><trkpt lat="44.03708302894229" lon="11.250625848889946"><ele>425.0</ele><time>2026-04-19T11:18:14Z</time></trkpt><trkpt lat="44.03690446944837" lon="11.250627029590149"><ele>425.0</ele><time>2026-04-19T11:18:15Z</time></trkpt><trkpt lat="44.03675420997973" lon="11.250610779777807"><ele>425.0</ele><time>2026-04-19T11:18:16Z</time></trkpt><trkpt lat="44.03662605438222" lon="11.250564079811996"><ele>425.0</ele><time>2026-04-19T11:18:17Z</time></trkpt><trkpt lat="44.03651538148452" lon="11.250478714071061"><ele>425.0</ele><time>2026-04-19T11:18:18Z</time></trkpt><trkpt lat="44.03642653695982" lon="11.250340800753191"><ele>429.0</ele><time>2026-04-19T11:18:19Z</time></trkpt><trkpt lat="44.03638827708754" lon="11.250157539002767"><ele>433.0</ele><time>2026-04-19T11:18:20Z</time></trkpt><trkpt lat="44.036356843536915" lon="11.249943014460689"><ele>437.0</ele><time>2026-04-19T11:18:21Z</time></trkpt><trkpt lat="44.036345748610614" lon="11.249687065182043"><ele>437.0</ele><time>2026-04-19T11:18:22Z</time></trkpt><trkpt lat="44.03635401091486" lon="11.2494332056248"><ele>437.0</ele><time>2026-04-19T11:18:23Z</time></trkpt><trkpt lat="44.03635382768385" lon="11.249218118506686"><ele>437.0</ele><time>2026-04-19T11:18:24Z</time></trkpt><trkpt lat="44.03634716598372" lon="11.249039858162277"><ele>430.66666666666663</ele><time>2026-04-19T11:18:25Z</time></trkpt><trkpt lat="44.03629127936519" lon="11.248866475286873"><ele>424.33333333333337</ele><time>2026-04-19T11:18:26Z</time></trkpt><trkpt lat="44.0361910016502" lon="11.248692946946738"><ele>418.0</ele><time>2026-04-19T11:18:27Z</time></trkpt><trkpt lat="44.03607341884922" lon="11.248549998604416"><ele>418.0</ele><time>2026-04-19T11:18:28Z</time></trkpt><trkpt lat="44.03593891594328" lon="11.248435881055846"><ele>418.0</ele><time>2026-04-19T11:18:29Z</time></trkpt><trkpt lat="44.03576272300813" lon="11.248348103321144"><ele>418.0</ele><time>2026-04-19T11:18:30Z</time></trkpt><trkpt lat="44.03557947862937" lon="11.248291370498693"><ele>419.6666666666667</ele><time>2026-04-19T11:18:31Z</time></trkpt><trkpt lat="44.035432677212185" lon="11.248261809828822"><ele>421.33333333333337</ele><time>2026-04-19T11:18:32Z</time></trkpt><trkpt lat="44.035278865384875" lon="11.248292327401154"><ele>423.0</ele><time>2026-04-19T11:18:33Z</time></trkpt><trkpt lat="44.03513385316944" lon="11.24835575820716"><ele>423.0</ele><time>2026-04-19T11:18:34Z</time></trkpt><trkpt lat="44.03499257088711" lon="11.248381400031679"><ele>423.0</ele><time>2026-04-19T11:18:35Z</time></trkpt><trkpt lat="44.03486943341396" lon="11.24829130667712"><ele>423.0</ele><time>2026-04-19T11:18:36Z</time></trkpt><trkpt lat="44.03475570072439" lon="11.248184150666573"><ele>423.0</ele><time>2026-04-19T11:18:37Z</time></trkpt><trkpt lat="44.03466179303571" lon="11.248033113430663"><ele>422.66666666666663</ele><time>2026-04-19T11:18:38Z</time></trkpt><trkpt lat="44.034605741215046" lon="11.247822349859923"><ele>422.3333333333333</ele><time>2026-04-19T11:18:39Z</time></trkpt><trkpt lat="44.03453619550087" lon="11.247606868774726"><ele>422.0</ele><time>2026-04-19T11:18:40Z</time></trkpt><trkpt lat="44.03448506079765" lon="11.247425260522407"><ele>422.0</ele><time>2026-04-19T11:18:41Z</time></trkpt><trkpt lat="44.03438245639273" lon="11.24729898126344"><ele>422.0</ele><time>2026-04-19T11:18:42Z</time></trkpt><trkpt lat="44.03424043240065" lon="11.247215458146085"><ele>422.0</ele><time>2026-04-19T11:18:43Z</time></trkpt><trkpt lat="44.03405013967485" lon="11.247172310027644"><ele>419.0</ele><time>2026-04-19T11:18:44Z</time></trkpt><trkpt lat="44.03390237330497" lon="11.24706807959291"><ele>416.0</ele><time>2026-04-19T11:18:45Z</time></trkpt><trkpt lat="44.03374910614101" lon="11.24692798017988"><ele>413.0</ele><time>2026-04-19T11:18:46Z</time></trkpt><trkpt lat="44.0335990894238" lon="11.246796701317017"><ele>413.0</ele><time>2026-04-19T11:18:47Z</time></trkpt><trkpt lat="44.0334611076818" lon="11.246698624086328"><ele>413.0</ele><time>2026-04-19T11:18:48Z</time></trkpt><trkpt lat="44.03335933045761" lon="11.246587044553772"><ele>413.0</ele><time>2026-04-19T11:18:48.999Z</time></trkpt><trkpt lat="44.03331188262552" lon="11.246420389064356"><ele>413.0</ele><time>2026-04-19T11:18:49.999Z</time></trkpt><trkpt lat="44.03330586691806" lon="11.246228722444425"><ele>414.75</ele><time>2026-04-19T11:18:50.999Z</time></trkpt><trkpt lat="44.03326740435821" lon="11.246076786035365"><ele>416.5</ele><time>2026-04-19T11:18:51.999Z</time></trkpt><trkpt lat="44.033201880703054" lon="11.245971593092099"><ele>418.25</ele><time>2026-04-19T11:18:52.999Z</time></trkpt><trkpt lat="44.033082392448925" lon="11.245925141997397"><ele>420.0</ele><time>2026-04-19T11:18:53.999Z</time></trkpt><trkpt lat="44.03293429112292" lon="11.245919272009296"><ele>420.0</ele><time>2026-04-19T11:18:54.999Z</time></trkpt><trkpt lat="44.03279941661035" lon="11.24586115499773"><ele>420.0</ele><time>2026-04-19T11:18:55.999Z</time></trkpt><trkpt lat="44.032705876371914" lon="11.245724670775866"><ele>420.0</ele><time>2026-04-19T11:18:56.999Z</time></trkpt><trkpt lat="44.03259053434881" lon="11.245538212461211"><ele>414.33333333333337</ele><time>2026-04-19T11:18:57.999Z</time></trkpt><trkpt lat="44.03246504257353" lon="11.245338378080543"><ele>408.6666666666667</ele><time>2026-04-19T11:18:58.999Z</time></trkpt><trkpt lat="44.032353721789974" lon="11.245147324521248"><ele>403.0</ele><time>2026-04-19T11:18:59.999Z</time></trkpt><trkpt lat="44.03223299531601" lon="11.244991539995603"><ele>403.0</ele><time>2026-04-19T11:19:00.999Z</time></trkpt><trkpt lat="44.03210427994094" lon="11.244894250007768"><ele>403.0</ele><time>2026-04-19T11:19:01.999Z</time></trkpt><trkpt lat="44.03198009849973" lon="11.244853457362844"><ele>403.0</ele><time>2026-04-19T11:19:02.999Z</time></trkpt><trkpt lat="44.03186451214314" lon="11.244865575143951"><ele>403.0</ele><time>2026-04-19T11:19:03.999Z</time></trkpt><trkpt lat="44.03173984244506" lon="11.244969588921435"><ele>406.2</ele><time>2026-04-19T11:19:04.999Z</time></trkpt><trkpt lat="44.031617970093095" lon="11.245109089935287"><ele>409.4</ele><time>2026-04-19T11:19:05.999Z</time></trkpt><trkpt lat="44.03151132954357" lon="11.24517285227167"><ele>412.59999999999997</ele><time>2026-04-19T11:19:06.999Z</time></trkpt><trkpt lat="44.0314298033192" lon="11.245180862569612"><ele>415.79999999999995</ele><time>2026-04-19T11:19:07.999Z</time></trkpt><trkpt lat="44.03134955671688" lon="11.24514283684646"><ele>419.0</ele><time>2026-04-19T11:19:08.999Z</time></trkpt><trkpt lat="44.03131270952002" lon="11.245018125673182"><ele>419.0</ele><time>2026-04-19T11:19:09.999Z</time></trkpt><trkpt lat="44.031240699210926" lon="11.244867813915757"><ele>419.0</ele><time>2026-04-19T11:19:10.999Z</time></trkpt><trkpt lat="44.03116230134612" lon="11.24469759865789"><ele>419.0</ele><time>2026-04-19T11:19:11.999Z</time></trkpt><trkpt lat="44.03101116993226" lon="11.244559360612525"><ele>412.66666666666663</ele><time>2026-04-19T11:19:12.999Z</time></trkpt><trkpt lat="44.0308173855572" lon="11.244473365376237"><ele>406.33333333333337</ele><time>2026-04-19T11:19:13.999Z</time></trkpt><trkpt lat="44.030649892324526" lon="11.244402153979026"><ele>400.0</ele><time>2026-04-19T11:19:14.999Z</time></trkpt><trkpt lat="44.030491791886725" lon="11.244303963819782"><ele>400.0</ele><time>2026-04-19T11:19:15.999Z</time></trkpt><trkpt lat="44.03036447219147" lon="11.244163551168674"><ele>400.0</ele><time>2026-04-19T11:19:16.999Z</time></trkpt><trkpt lat="44.03025163335492" lon="11.244012451937481"><ele>400.0</ele><time>2026-04-19T11:19:17.999Z</time></trkpt><trkpt lat="44.0301377940013" lon="11.243885639954414"><ele>395.0</ele><time>2026-04-19T11:19:18.999Z</time></trkpt><trkpt lat="44.03001928649334" lon="11.24380699387959"><ele>390.0</ele><time>2026-04-19T11:19:19.999Z</time></trkpt><trkpt lat="44.029898213409595" lon="11.243789355918013"><ele>385.0</ele><time>2026-04-19T11:19:20.999Z</time></trkpt><trkpt lat="44.02977340758839" lon="11.243848072796006"><ele>380.0</ele><time>2026-04-19T11:19:21.999Z</time></trkpt><trkpt lat="44.029652904149415" lon="11.243982451787684"><ele>380.0</ele><time>2026-04-19T11:19:22.999Z</time></trkpt><trkpt lat="44.02953885265834" lon="11.244165998739248"><ele>380.0</ele><time>2026-04-19T11:19:23.999Z</time></trkpt><trkpt lat="44.02942107261566" lon="11.24437718261854"><ele>380.0</ele><time>2026-04-19T11:19:24.999Z</time></trkpt><trkpt lat="44.02933047894436" lon="11.24458060476636"><ele>380.0</ele><time>2026-04-19T11:19:25.999Z</time></trkpt><trkpt lat="44.02923992037922" lon="11.244741524377783"><ele>380.0</ele><time>2026-04-19T11:19:26.999Z</time></trkpt><trkpt lat="44.02917732737649" lon="11.24486767426391"><ele>380.0</ele><time>2026-04-19T11:19:27.999Z</time></trkpt><trkpt lat="44.02911221649898" lon="11.244963322411587"><ele>380.0</ele><time>2026-04-19T11:19:28.999Z</time></trkpt><trkpt lat="44.02903464833333" lon="11.245049271342292"><ele>384.75</ele><time>2026-04-19T11:19:29.999Z</time></trkpt><trkpt lat="44.02890709517303" lon="11.245002553875528"><ele>389.5</ele><time>2026-04-19T11:19:30.999Z</time></trkpt><trkpt lat="44.028789633208184" lon="11.244938067897825"><ele>394.25</ele><time>2026-04-19T11:19:31.999Z</time></trkpt><trkpt lat="44.02871199170322" lon="11.244778216011609"><ele>399.0</ele><time>2026-04-19T11:19:32.999Z</time></trkpt><trkpt lat="44.02866427984385" lon="11.244574452511635"><ele>399.0</ele><time>2026-04-19T11:19:33.999Z</time></trkpt><trkpt lat="44.02862132376851" lon="11.244344072624068"><ele>399.0</ele><time>2026-04-19T11:19:34.999Z</time></trkpt><trkpt lat="44.02857741871724" lon="11.244091889412049"><ele>399.0</ele><time>2026-04-19T11:19:35.999Z</time></trkpt><trkpt lat="44.02854807186792" lon="11.243852623052954"><ele>400.5</ele><time>2026-04-19T11:19:36.999Z</time></trkpt><trkpt lat="44.028503919449214" lon="11.243646667495948"><ele>402.0</ele><time>2026-04-19T11:19:37.999Z</time></trkpt><trkpt lat="44.028456784050974" lon="11.243452986093006"><ele>403.5</ele><time>2026-04-19T11:19:38.999Z</time></trkpt><trkpt lat="44.02838043936158" lon="11.24329048895101"><ele>405.0</ele><time>2026-04-19T11:19:39.999Z</time></trkpt><trkpt lat="44.02825703870209" lon="11.243191948015449"><ele>405.0</ele><time>2026-04-19T11:19:40.999Z</time></trkpt><trkpt lat="44.02811932583738" lon="11.243169448672594"><ele>405.0</ele><time>2026-04-19T11:19:41.999Z</time></trkpt><trkpt lat="44.02799323475962" lon="11.24313680770631"><ele>405.0</ele><time>2026-04-19T11:19:42.999Z</time></trkpt><trkpt lat="44.02793047934121" lon="11.243104088511565"><ele>405.0</ele><time>2026-04-19T11:19:43.999Z</time></trkpt><trkpt lat="44.02785122468725" lon="11.24301044850471"><ele>405.0</ele><time>2026-04-19T11:19:44.999Z</time></trkpt><trkpt lat="44.02784540199874" lon="11.24287664061252"><ele>399.75</ele><time>2026-04-19T11:19:45.999Z</time></trkpt><trkpt lat="44.0278184149191" lon="11.242712796372132"><ele>394.5</ele><time>2026-04-19T11:19:46.999Z</time></trkpt><trkpt lat="44.02776611482645" lon="11.242546323321086"><ele>389.25</ele><time>2026-04-19T11:19:47.999Z</time></trkpt><trkpt lat="44.02768873768263" lon="11.2423220795823"><ele>384.0</ele><time>2026-04-19T11:19:48.999Z</time></trkpt><trkpt lat="44.02756513918605" lon="11.242087103032215"><ele>386.33333333333337</ele><time>2026-04-19T11:19:49.999Z</time></trkpt><trkpt lat="44.02743583578603" lon="11.241849979911201"><ele>388.6666666666667</ele><time>2026-04-19T11:19:50.999Z</time></trkpt><trkpt lat="44.02734927373173" lon="11.241621462484515"><ele>391.0</ele><time>2026-04-19T11:19:51.999Z</time></trkpt><trkpt lat="44.02726835262251" lon="11.241403265202749"><ele>381.6666666666667</ele><time>2026-04-19T11:19:52.999Z</time></trkpt><trkpt lat="44.02717550164961" lon="11.241219013445692"><ele>372.33333333333337</ele><time>2026-04-19T11:19:53.999Z</time></trkpt><trkpt lat="44.02708494209583" lon="11.24104594055057"><ele>363.0</ele><time>2026-04-19T11:19:54.999Z</time></trkpt><trkpt lat="44.02694914673749" lon="11.240909159641763"><ele>363.0</ele><time>2026-04-19T11:19:55.999Z</time></trkpt><trkpt lat="44.02679795064005" lon="11.240801628905336"><ele>363.0</ele><time>2026-04-19T11:19:56.999Z</time></trkpt><trkpt lat="44.02663261406532" lon="11.24074648747349"><ele>363.0</ele><time>2026-04-19T11:19:57.999Z</time></trkpt><trkpt lat="44.02644700072959" lon="11.240731027910345"><ele>362.6666666666667</ele><time>2026-04-19T11:19:58.999Z</time></trkpt><trkpt lat="44.02625000872145" lon="11.24072573655939"><ele>362.33333333333337</ele><time>2026-04-19T11:19:59.999Z</time></trkpt><trkpt lat="44.026066490671504" lon="11.240673069473887"><ele>362.0</ele><time>2026-04-19T11:20:00.999Z</time></trkpt><trkpt lat="44.02593232004959" lon="11.240614436006926"><ele>359.0</ele><time>2026-04-19T11:20:02Z</time></trkpt><trkpt lat="44.02580690349537" lon="11.240617271501232"><ele>356.0</ele><time>2026-04-19T11:20:03Z</time></trkpt><trkpt lat="44.025688354900616" lon="11.240687553035132"><ele>353.0</ele><time>2026-04-19T11:20:04Z</time></trkpt><trkpt lat="44.0256071899944" lon="11.240824962873074"><ele>350.0</ele><time>2026-04-19T11:20:05Z</time></trkpt><trkpt lat="44.02556606757841" lon="11.241006259298878"><ele>355.8</ele><time>2026-04-19T11:20:06Z</time></trkpt><trkpt lat="44.025527841694114" lon="11.241131558453352"><ele>361.6</ele><time>2026-04-19T11:20:07Z</time></trkpt><trkpt lat="44.02544336012606" lon="11.241163943725576"><ele>367.4</ele><time>2026-04-19T11:20:08Z</time></trkpt><trkpt lat="44.02534560473327" lon="11.241143324729837"><ele>373.2</ele><time>2026-04-19T11:20:09Z</time></trkpt><trkpt lat="44.0252566849933" lon="11.24106173061302"><ele>379.0</ele><time>2026-04-19T11:20:10Z</time></trkpt><trkpt lat="44.025217806975974" lon="11.240876569405692"><ele>379.0</ele><time>2026-04-19T11:20:11Z</time></trkpt><trkpt lat="44.02515690075418" lon="11.240666951295543"><ele>379.0</ele><time>2026-04-19T11:20:12Z</time></trkpt><trkpt lat="44.025081183908355" lon="11.24044489369346"><ele>379.0</ele><time>2026-04-19T11:20:13Z</time></trkpt><trkpt lat="44.02499315518614" lon="11.240256523254038"><ele>375.66666666666663</ele><time>2026-04-19T11:20:14Z</time></trkpt><trkpt lat="44.02489385456235" lon="11.240104851707164"><ele>372.3333333333333</ele><time>2026-04-19T11:20:15Z</time></trkpt><trkpt lat="44.02477008770579" lon="11.239983390137406"><ele>369.0</ele><time>2026-04-19T11:20:16Z</time></trkpt><trkpt lat="44.0246048372867" lon="11.239896132168568"><ele>359.3333333333333</ele><time>2026-04-19T11:20:17Z</time></trkpt><trkpt lat="44.02443670350385" lon="11.239797214751304"><ele>349.66666666666663</ele><time>2026-04-19T11:20:18Z</time></trkpt><trkpt lat="44.0243042441006" lon="11.239689962604531"><ele>340.0</ele><time>2026-04-19T11:20:19Z</time></trkpt><trkpt lat="44.02418519125598" lon="11.23954569166629"><ele>343.25</ele><time>2026-04-19T11:20:20Z</time></trkpt><trkpt lat="44.024080672580354" lon="11.23940632302764"><ele>346.5</ele><time>2026-04-19T11:20:21Z</time></trkpt><trkpt lat="44.02396688216058" lon="11.239306879655379"><ele>349.75</ele><time>2026-04-19T11:20:22Z</time></trkpt><trkpt lat="44.02383211606762" lon="11.239282281709103"><ele>353.0</ele><time>2026-04-19T11:20:23Z</time></trkpt><trkpt lat="44.023700261195046" lon="11.23931493543298"><ele>353.0</ele><time>2026-04-19T11:20:24Z</time></trkpt><trkpt lat="44.023585524803075" lon="11.239297616762315"><ele>353.0</ele><time>2026-04-19T11:20:25Z</time></trkpt><trkpt lat="44.02349734214222" lon="11.239223959417078"><ele>353.0</ele><time>2026-04-19T11:20:26Z</time></trkpt><trkpt lat="44.02342896527783" lon="11.239087563128225"><ele>353.0</ele><time>2026-04-19T11:20:27Z</time></trkpt><trkpt lat="44.023372900817684" lon="11.238911274483852"><ele>348.6666666666667</ele><time>2026-04-19T11:20:28Z</time></trkpt><trkpt lat="44.02328206862845" lon="11.238758854611733"><ele>344.3333333333333</ele><time>2026-04-19T11:20:29Z</time></trkpt><trkpt lat="44.02312279780794" lon="11.238645861332618"><ele>340.0</ele><time>2026-04-19T11:20:30Z</time></trkpt><trkpt lat="44.0229326587683" lon="11.238561852810136"><ele>340.0</ele><time>2026-04-19T11:20:31Z</time></trkpt><trkpt lat="44.02279168888033" lon="11.238440158842367"><ele>340.0</ele><time>2026-04-19T11:20:32Z</time></trkpt><trkpt lat="44.02266147496948" lon="11.238365169263322"><ele>340.0</ele><time>2026-04-19T11:20:33Z</time></trkpt><trkpt lat="44.022563199984965" lon="11.238310887860145"><ele>340.0</ele><time>2026-04-19T11:20:34Z</time></trkpt><trkpt lat="44.02243098378331" lon="11.23834534166687"><ele>340.0</ele><time>2026-04-19T11:20:35Z</time></trkpt><trkpt lat="44.02230138360739" lon="11.238465944071102"><ele>340.0</ele><time>2026-04-19T11:20:36Z</time></trkpt><trkpt lat="44.022167014093014" lon="11.238568091732024"><ele>340.0</ele><time>2026-04-19T11:20:37Z</time></trkpt><trkpt lat="44.02205054758338" lon="11.238627178332887"><ele>340.0</ele><time>2026-04-19T11:20:38Z</time></trkpt><trkpt lat="44.0219375044287" lon="11.23859937849948"><ele>340.0</ele><time>2026-04-19T11:20:39Z</time></trkpt><trkpt lat="44.02183569168391" lon="11.238501026901853"><ele>340.0</ele><time>2026-04-19T11:20:40Z</time></trkpt><trkpt lat="44.02172416770476" lon="11.238399119575032"><ele>340.0</ele><time>2026-04-19T11:20:41Z</time></trkpt><trkpt lat="44.0216083508663" lon="11.23838781302201"><ele>340.0</ele><time>2026-04-19T11:20:42Z</time></trkpt><trkpt lat="44.02146665205978" lon="11.238434269747614"><ele>339.75</ele><time>2026-04-19T11:20:43Z</time></trkpt><trkpt lat="44.021338765320046" lon="11.238463114856046"><ele>339.5</ele><time>2026-04-19T11:20:44Z</time></trkpt><trkpt lat="44.0212127753171" lon="11.238422391181457"><ele>339.25</ele><time>2026-04-19T11:20:45Z</time></trkpt><trkpt lat="44.02110931674053" lon="11.2383079544944"><ele>339.0</ele><time>2026-04-19T11:20:46Z</time></trkpt><trkpt lat="44.02103264865513" lon="11.238147213511937"><ele>334.75</ele><time>2026-04-19T11:20:47Z</time></trkpt><trkpt lat="44.020943326500415" lon="11.237972744481333"><ele>330.5</ele><time>2026-04-19T11:20:48Z</time></trkpt><trkpt lat="44.02086776302854" lon="11.237854517451089"><ele>326.25</ele><time>2026-04-19T11:20:49Z</time></trkpt><trkpt lat="44.02073883167841" lon="11.237832519501923"><ele>322.0</ele><time>2026-04-19T11:20:49.999Z</time></trkpt><trkpt lat="44.02060320936928" lon="11.237891005431818"><ele>323.66666666666663</ele><time>2026-04-19T11:20:50.999Z</time></trkpt><trkpt lat="44.02047056916769" lon="11.23801852357009"><ele>325.3333333333333</ele><time>2026-04-19T11:20:51.999Z</time></trkpt><trkpt lat="44.020323436524386" lon="11.238141935297442"><ele>327.0</ele><time>2026-04-19T11:20:52.999Z</time></trkpt><trkpt lat="44.02019651292344" lon="11.238254439573762"><ele>327.0</ele><time>2026-04-19T11:20:53.999Z</time></trkpt><trkpt lat="44.020071387365256" lon="11.238344002323446"><ele>327.0</ele><time>2026-04-19T11:20:54.999Z</time></trkpt><trkpt lat="44.01992201399262" lon="11.23838240787494"><ele>327.0</ele><time>2026-04-19T11:20:55.999Z</time></trkpt><trkpt lat="44.01975737716083" lon="11.238361526432156"><ele>324.25</ele><time>2026-04-19T11:20:56.999Z</time></trkpt><trkpt lat="44.01960549550351" lon="11.238385678050824"><ele>321.5</ele><time>2026-04-19T11:20:57.999Z</time></trkpt><trkpt lat="44.01948385927613" lon="11.238434196743874"><ele>318.75</ele><time>2026-04-19T11:20:58.999Z</time></trkpt><trkpt lat="44.01936524929366" lon="11.238563964476256"><ele>316.0</ele><time>2026-04-19T11:20:59.999Z</time></trkpt><trkpt lat="44.01927893028465" lon="11.238777538587993"><ele>316.0</ele><time>2026-04-19T11:21:00.999Z</time></trkpt><trkpt lat="44.01919155431079" lon="11.238949504117514"><ele>316.0</ele><time>2026-04-19T11:21:01.999Z</time></trkpt><trkpt lat="44.01911918537186" lon="11.23908530399222"><ele>316.0</ele><time>2026-04-19T11:21:02.999Z</time></trkpt><trkpt lat="44.01904900599339" lon="11.239186772997732"><ele>316.0</ele><time>2026-04-19T11:21:03.999Z</time></trkpt><trkpt lat="44.01894421553316" lon="11.239260060191505"><ele>318.66666666666663</ele><time>2026-04-19T11:21:04.999Z</time></trkpt><trkpt lat="44.018807469454224" lon="11.23920914418065"><ele>321.3333333333333</ele><time>2026-04-19T11:21:05.999Z</time></trkpt><trkpt lat="44.01866611293733" lon="11.23913429122585"><ele>324.0</ele><time>2026-04-19T11:21:06.999Z</time></trkpt><trkpt lat="44.018492047085765" lon="11.239029544958381"><ele>326.25</ele><time>2026-04-19T11:21:07.999Z</time></trkpt><trkpt lat="44.01833748485165" lon="11.238928653048044"><ele>328.5</ele><time>2026-04-19T11:21:08.999Z</time></trkpt><trkpt lat="44.01821123385284" lon="11.238833631966266"><ele>330.75</ele><time>2026-04-19T11:21:09.999Z</time></trkpt><trkpt lat="44.018114834081175" lon="11.238712488402381"><ele>333.0</ele><time>2026-04-19T11:21:10.999Z</time></trkpt><trkpt lat="44.01806650932348" lon="11.238553116714336"><ele>333.0</ele><time>2026-04-19T11:21:11.999Z</time></trkpt><trkpt lat="44.0180263672558" lon="11.238383913403926"><ele>333.0</ele><time>2026-04-19T11:21:12.999Z</time></trkpt><trkpt lat="44.01808496934232" lon="11.23818072406422"><ele>333.0</ele><time>2026-04-19T11:21:13.999Z</time></trkpt><trkpt lat="44.01811197718326" lon="11.23795399094735"><ele>329.5</ele><time>2026-04-19T11:21:14.999Z</time></trkpt><trkpt lat="44.01812641140036" lon="11.237761781429107"><ele>326.0</ele><time>2026-04-19T11:21:15.999Z</time></trkpt><trkpt lat="44.01809026745571" lon="11.237613905191772"><ele>322.5</ele><time>2026-04-19T11:21:16.999Z</time></trkpt><trkpt lat="44.01799398810654" lon="11.237510387615599"><ele>319.0</ele><time>2026-04-19T11:21:17.999Z</time></trkpt><trkpt lat="44.01785409105942" lon="11.237433134210285"><ele>319.0</ele><time>2026-04-19T11:21:18.999Z</time></trkpt><trkpt lat="44.01768487058069" lon="11.237380184417669"><ele>319.0</ele><time>2026-04-19T11:21:19.999Z</time></trkpt><trkpt lat="44.01751418884349" lon="11.237283784936105"><ele>319.0</ele><time>2026-04-19T11:21:20.999Z</time></trkpt><trkpt lat="44.017331686897975" lon="11.237188467822094"><ele>313.0</ele><time>2026-04-19T11:21:21.999Z</time></trkpt><trkpt lat="44.01714067603845" lon="11.237114546438653"><ele>307.0</ele><time>2026-04-19T11:21:22.999Z</time></trkpt><trkpt lat="44.016950535421614" lon="11.237037100496307"><ele>301.0</ele><time>2026-04-19T11:21:23.999Z</time></trkpt><trkpt lat="44.01677789345684" lon="11.236939311500537"><ele>305.3333333333333</ele><time>2026-04-19T11:21:24.999Z</time></trkpt><trkpt lat="44.01661394595495" lon="11.236865874992473"><ele>309.6666666666667</ele><time>2026-04-19T11:21:25.999Z</time></trkpt><trkpt lat="44.016461585275934" lon="11.236784856959167"><ele>314.0</ele><time>2026-04-19T11:21:26.999Z</time></trkpt><trkpt lat="44.0163278230725" lon="11.23667458597059"><ele>314.0</ele><time>2026-04-19T11:21:27.999Z</time></trkpt><trkpt lat="44.0162047370706" lon="11.236520397066279"><ele>314.0</ele><time>2026-04-19T11:21:28.999Z</time></trkpt><trkpt lat="44.01614003607465" lon="11.236334328778767"><ele>314.0</ele><time>2026-04-19T11:21:29.999Z</time></trkpt><trkpt lat="44.016052095940964" lon="11.236177661188032"><ele>308.0</ele><time>2026-04-19T11:21:30.999Z</time></trkpt><trkpt lat="44.01594247044704" lon="11.236082890403852"><ele>302.0</ele><time>2026-04-19T11:21:31.999Z</time></trkpt><trkpt lat="44.01576258137027" lon="11.236033637226676"><ele>296.0</ele><time>2026-04-19T11:21:32.999Z</time></trkpt><trkpt lat="44.01556326699629" lon="11.236019070026352"><ele>296.0</ele><time>2026-04-19T11:21:33.999Z</time></trkpt><trkpt lat="44.0153638436414" lon="11.235986242558313"><ele>296.0</ele><time>2026-04-19T11:21:34.999Z</time></trkpt><trkpt lat="44.01515679349879" lon="11.235964407391544"><ele>296.0</ele><time>2026-04-19T11:21:35.999Z</time></trkpt><trkpt lat="44.014958557025146" lon="11.23596387913236"><ele>293.6666666666667</ele><time>2026-04-19T11:21:36.999Z</time></trkpt><trkpt lat="44.014734479664554" lon="11.236003179113219"><ele>291.3333333333333</ele><time>2026-04-19T11:21:37.999Z</time></trkpt><trkpt lat="44.014524618561175" lon="11.236039086109304"><ele>289.0</ele><time>2026-04-19T11:21:38.999Z</time></trkpt><trkpt lat="44.01432784678128" lon="11.236080382876077"><ele>288.0</ele><time>2026-04-19T11:21:39.999Z</time></trkpt><trkpt lat="44.014142466865536" lon="11.236108279968574"><ele>287.0</ele><time>2026-04-19T11:21:40.999Z</time></trkpt><trkpt lat="44.013971385705005" lon="11.236134480681422"><ele>286.0</ele><time>2026-04-19T11:21:41.999Z</time></trkpt><trkpt lat="44.01380390839983" lon="11.236184859939096"><ele>286.0</ele><time>2026-04-19T11:21:42.999Z</time></trkpt><trkpt lat="44.01363546745652" lon="11.23628507049385"><ele>286.0</ele><time>2026-04-19T11:21:43.999Z</time></trkpt><trkpt lat="44.013479987636806" lon="11.236441039438555"><ele>286.0</ele><time>2026-04-19T11:21:44.999Z</time></trkpt><trkpt lat="44.013300358776526" lon="11.236574276510867"><ele>286.0</ele><time>2026-04-19T11:21:45.999Z</time></trkpt><trkpt lat="44.01312280472126" lon="11.23664577467637"><ele>286.0</ele><time>2026-04-19T11:21:46.999Z</time></trkpt><trkpt lat="44.012953190478825" lon="11.236744163357004"><ele>286.0</ele><time>2026-04-19T11:21:47.999Z</time></trkpt><trkpt lat="44.01278498344384" lon="11.236814970456074"><ele>286.0</ele><time>2026-04-19T11:21:48.999Z</time></trkpt><trkpt lat="44.012631438443954" lon="11.236895070639582"><ele>286.0</ele><time>2026-04-19T11:21:49.999Z</time></trkpt><trkpt lat="44.01248579574656" lon="11.236965879561994"><ele>286.0</ele><time>2026-04-19T11:21:50.999Z</time></trkpt><trkpt lat="44.01234842554522" lon="11.237036850921443"><ele>285.5</ele><time>2026-04-19T11:21:51.999Z</time></trkpt><trkpt lat="44.01221986774211" lon="11.237108207866772"><ele>285.0</ele><time>2026-04-19T11:21:52.999Z</time></trkpt><trkpt lat="44.01210824148918" lon="11.237190092899834"><ele>284.5</ele><time>2026-04-19T11:21:53.999Z</time></trkpt><trkpt lat="44.012008990783826" lon="11.237261891030803"><ele>284.0</ele><time>2026-04-19T11:21:54.999Z</time></trkpt><trkpt lat="44.01191568121404" lon="11.237303825637188"><ele>284.0</ele><time>2026-04-19T11:21:55.999Z</time></trkpt><trkpt lat="44.011826858793576" lon="11.23729473886778"><ele>284.0</ele><time>2026-04-19T11:21:56.999Z</time></trkpt><trkpt lat="44.011747982308165" lon="11.237232250618762"><ele>284.0</ele><time>2026-04-19T11:21:57.999Z</time></trkpt><trkpt lat="44.01168758831695" lon="11.237140893330377"><ele>284.0</ele><time>2026-04-19T11:21:58.999Z</time></trkpt><trkpt lat="44.01162622841299" lon="11.237041563378652"><ele>284.0</ele><time>2026-04-19T11:21:59.999Z</time></trkpt><trkpt lat="44.01154583940973" lon="11.236997556008752"><ele>283.8</ele><time>2026-04-19T11:22:00.999Z</time></trkpt><trkpt lat="44.01145491176868" lon="11.237035766975652"><ele>283.59999999999997</ele><time>2026-04-19T11:22:01.999Z</time></trkpt><trkpt lat="44.01137463830544" lon="11.237124833807306"><ele>283.4</ele><time>2026-04-19T11:22:02.999Z</time></trkpt><trkpt lat="44.01133531797136" lon="11.237253336814572"><ele>283.2</ele><time>2026-04-19T11:22:03.999Z</time></trkpt><trkpt lat="44.01133760599525" lon="11.237403182483137"><ele>283.0</ele><time>2026-04-19T11:22:04.999Z</time></trkpt><trkpt lat="44.0113726838015" lon="11.237547715673037"><ele>283.0</ele><time>2026-04-19T11:22:05.999Z</time></trkpt><trkpt lat="44.01138344529102" lon="11.23767114061056"><ele>283.0</ele><time>2026-04-19T11:22:06.999Z</time></trkpt><trkpt lat="44.011266581203145" lon="11.237852679377779"><ele>283.0</ele><time>2026-04-19T11:22:09Z</time></trkpt><trkpt lat="44.011151291871414" lon="11.237930909107924"><ele>283.0</ele><time>2026-04-19T11:22:10Z</time></trkpt><trkpt lat="44.011026929787974" lon="11.23802665294778"><ele>282.66666666666663</ele><time>2026-04-19T11:22:11Z</time></trkpt><trkpt lat="44.01088758647059" lon="11.238158234659585"><ele>282.3333333333333</ele><time>2026-04-19T11:22:12Z</time></trkpt><trkpt lat="44.01074904602395" lon="11.238300248495808"><ele>282.0</ele><time>2026-04-19T11:22:13Z</time></trkpt><trkpt lat="44.01060721032885" lon="11.238442405639159"><ele>281.3333333333333</ele><time>2026-04-19T11:22:14Z</time></trkpt><trkpt lat="44.01046662411534" lon="11.23859968156301"><ele>280.66666666666663</ele><time>2026-04-19T11:22:15Z</time></trkpt><trkpt lat="44.01032656719417" lon="11.23876347096816"><ele>280.0</ele><time>2026-04-19T11:22:16Z</time></trkpt><trkpt lat="44.01018751903986" lon="11.238928684392976"><ele>280.0</ele><time>2026-04-19T11:22:17Z</time></trkpt><trkpt lat="44.010052354047176" lon="11.239087993106331"><ele>280.0</ele><time>2026-04-19T11:22:18Z</time></trkpt><trkpt lat="44.00991259851215" lon="11.23924905872853"><ele>280.0</ele><time>2026-04-19T11:22:19Z</time></trkpt><trkpt lat="44.009768653715" lon="11.239409875637959"><ele>280.0</ele><time>2026-04-19T11:22:20Z</time></trkpt><trkpt lat="44.009628709568574" lon="11.239564512331158"><ele>280.0</ele><time>2026-04-19T11:22:21Z</time></trkpt><trkpt lat="44.00949797043314" lon="11.239712215733576"><ele>280.0</ele><time>2026-04-19T11:22:22Z</time></trkpt><trkpt lat="44.009358719464515" lon="11.2398448994335"><ele>280.3333333333333</ele><time>2026-04-19T11:22:23Z</time></trkpt><trkpt lat="44.0092273088498" lon="11.239956161525704"><ele>280.6666666666667</ele><time>2026-04-19T11:22:24Z</time></trkpt><trkpt lat="44.00909060332335" lon="11.240054926491753"><ele>281.0</ele><time>2026-04-19T11:22:25Z</time></trkpt><trkpt lat="44.00894128355881" lon="11.240147637501574"><ele>280.33333333333337</ele><time>2026-04-19T11:22:26Z</time></trkpt><trkpt lat="44.00878090630046" lon="11.240229032972874"><ele>279.6666666666667</ele><time>2026-04-19T11:22:27Z</time></trkpt><trkpt lat="44.008612652048406" lon="11.240310493451334"><ele>279.0</ele><time>2026-04-19T11:22:28Z</time></trkpt><trkpt lat="44.00843543514111" lon="11.240375422971432"><ele>279.0</ele><time>2026-04-19T11:22:29Z</time></trkpt><trkpt lat="44.0082493824666" lon="11.240421947183105"><ele>279.0</ele><time>2026-04-19T11:22:30Z</time></trkpt><trkpt lat="44.00805762136724" lon="11.24045321835536"><ele>279.0</ele><time>2026-04-19T11:22:31Z</time></trkpt><trkpt lat="44.00786710105664" lon="11.240478810191428"><ele>279.0</ele><time>2026-04-19T11:22:32Z</time></trkpt><trkpt lat="44.007669948914966" lon="11.240484163657015"><ele>279.0</ele><time>2026-04-19T11:22:33Z</time></trkpt><trkpt lat="44.007468866231314" lon="11.240440023650017"><ele>279.0</ele><time>2026-04-19T11:22:34Z</time></trkpt><trkpt lat="44.00726016182632" lon="11.240399469097428"><ele>279.3333333333333</ele><time>2026-04-19T11:22:35Z</time></trkpt><trkpt lat="44.007041367585295" lon="11.240369081602939"><ele>279.66666666666663</ele><time>2026-04-19T11:22:36Z</time></trkpt><trkpt lat="44.00682581813708" lon="11.240308960984901"><ele>280.0</ele><time>2026-04-19T11:22:37Z</time></trkpt><trkpt lat="44.0066111149179" lon="11.24026652711564"><ele>280.0</ele><time>2026-04-19T11:22:38Z</time></trkpt><trkpt lat="44.00640758211849" lon="11.240221062224126"><ele>280.0</ele><time>2026-04-19T11:22:39Z</time></trkpt><trkpt lat="44.00621633868755" lon="11.240175986417695"><ele>280.0</ele><time>2026-04-19T11:22:40Z</time></trkpt><trkpt lat="44.00602248857927" lon="11.240130126779313"><ele>279.3333333333333</ele><time>2026-04-19T11:22:41Z</time></trkpt><trkpt lat="44.005827244316734" lon="11.24008496753552"><ele>278.6666666666667</ele><time>2026-04-19T11:22:42Z</time></trkpt><trkpt lat="44.0056334548511" lon="11.2400460586899"><ele>278.0</ele><time>2026-04-19T11:22:43Z</time></trkpt><trkpt lat="44.005450261174104" lon="11.240018154203817"><ele>278.0</ele><time>2026-04-19T11:22:44Z</time></trkpt><trkpt lat="44.005270716542114" lon="11.240009908456065"><ele>278.0</ele><time>2026-04-19T11:22:45Z</time></trkpt><trkpt lat="44.00508639347273" lon="11.24005005897603"><ele>278.0</ele><time>2026-04-19T11:22:46Z</time></trkpt><trkpt lat="44.00489959392845" lon="11.240128480589126"><ele>277.0</ele><time>2026-04-19T11:22:47Z</time></trkpt><trkpt lat="44.00471030634415" lon="11.240218140300925"><ele>276.0</ele><time>2026-04-19T11:22:48Z</time></trkpt><trkpt lat="44.004573715736605" lon="11.240283347861245"><ele>275.0</ele><time>2026-04-19T11:22:49Z</time></trkpt><trkpt lat="44.004419177586186" lon="11.240414293489227"><ele>275.0</ele><time>2026-04-19T11:22:50Z</time></trkpt><trkpt lat="44.00427266808835" lon="11.240568356468776"><ele>275.0</ele><time>2026-04-19T11:22:51Z</time></trkpt><trkpt lat="44.00414145531966" lon="11.240744378370481"><ele>275.0</ele><time>2026-04-19T11:22:52Z</time></trkpt><trkpt lat="44.00402370721278" lon="11.24094610969733"><ele>275.0</ele><time>2026-04-19T11:22:53Z</time></trkpt><trkpt lat="44.00391548121129" lon="11.241153360440254"><ele>275.0</ele><time>2026-04-19T11:22:54Z</time></trkpt><trkpt lat="44.00379828982153" lon="11.241355627164554"><ele>275.0</ele><time>2026-04-19T11:22:54.999Z</time></trkpt><trkpt lat="44.00368057130305" lon="11.241562733853456"><ele>275.0</ele><time>2026-04-19T11:22:55.999Z</time></trkpt><trkpt lat="44.00356744909158" lon="11.24176831122638"><ele>275.0</ele><time>2026-04-19T11:22:56.999Z</time></trkpt><trkpt lat="44.00343525726428" lon="11.241966072274492"><ele>275.0</ele><time>2026-04-19T11:22:57.999Z</time></trkpt><trkpt lat="44.00327115850178" lon="11.242113986782725"><ele>275.0</ele><time>2026-04-19T11:22:58.999Z</time></trkpt><trkpt lat="44.003105141365346" lon="11.242257631937704"><ele>275.0</ele><time>2026-04-19T11:22:59.999Z</time></trkpt><trkpt lat="44.002943411177355" lon="11.242370914858286"><ele>275.0</ele><time>2026-04-19T11:23:00.999Z</time></trkpt><trkpt lat="44.00277469794007" lon="11.242482777159891"><ele>275.0</ele><time>2026-04-19T11:23:01.999Z</time></trkpt><trkpt lat="44.00259955577427" lon="11.242607173928576"><ele>275.0</ele><time>2026-04-19T11:23:02.999Z</time></trkpt><trkpt lat="44.00241690186962" lon="11.242720849721099"><ele>275.0</ele><time>2026-04-19T11:23:03.999Z</time></trkpt><trkpt lat="44.00223519265637" lon="11.242837586515137"><ele>276.6666666666667</ele><time>2026-04-19T11:23:04.999Z</time></trkpt><trkpt lat="44.00205488745235" lon="11.242950714293602"><ele>278.3333333333333</ele><time>2026-04-19T11:23:05.999Z</time></trkpt><trkpt lat="44.00187909150294" lon="11.243058765654549"><ele>280.0</ele><time>2026-04-19T11:23:06.999Z</time></trkpt><trkpt lat="44.0017166198625" lon="11.243164812186661"><ele>277.3333333333333</ele><time>2026-04-19T11:23:07.999Z</time></trkpt><trkpt lat="44.001561781003" lon="11.243271362050574"><ele>274.6666666666667</ele><time>2026-04-19T11:23:08.999Z</time></trkpt><trkpt lat="44.001411455731244" lon="11.243381583106354"><ele>272.0</ele><time>2026-04-19T11:23:09.999Z</time></trkpt><trkpt lat="44.001264252529204" lon="11.243468614372732"><ele>272.0</ele><time>2026-04-19T11:23:10.999Z</time></trkpt><trkpt lat="44.001101265995246" lon="11.243544718470966"><ele>272.0</ele><time>2026-04-19T11:23:11.999Z</time></trkpt><trkpt lat="44.00093523509052" lon="11.243588872595447"><ele>272.0</ele><time>2026-04-19T11:23:12.999Z</time></trkpt><trkpt lat="44.00076489746037" lon="11.243577734245417"><ele>271.0</ele><time>2026-04-19T11:23:13.999Z</time></trkpt><trkpt lat="44.00058909174526" lon="11.243559290598128"><ele>270.0</ele><time>2026-04-19T11:23:14.999Z</time></trkpt><trkpt lat="44.00041912059734" lon="11.243512348629228"><ele>269.0</ele><time>2026-04-19T11:23:15.999Z</time></trkpt><trkpt lat="44.000278399254505" lon="11.243471633785115"><ele>269.0</ele><time>2026-04-19T11:23:16.999Z</time></trkpt><trkpt lat="44.0001543885463" lon="11.243403384442434"><ele>269.0</ele><time>2026-04-19T11:23:17.999Z</time></trkpt><trkpt lat="44.00005537262838" lon="11.24331970692156"><ele>269.0</ele><time>2026-04-19T11:23:18.999Z</time></trkpt><trkpt lat="43.99999235690759" lon="11.243200669378584"><ele>269.0</ele><time>2026-04-19T11:23:19.999Z</time></trkpt><trkpt lat="43.999932494968306" lon="11.243082833110506"><ele>268.8</ele><time>2026-04-19T11:23:20.999Z</time></trkpt><trkpt lat="43.99985452884186" lon="11.243009728088099"><ele>268.59999999999997</ele><time>2026-04-19T11:23:21.999Z</time></trkpt><trkpt lat="43.99976590085979" lon="11.242980134738264"><ele>268.4</ele><time>2026-04-19T11:23:22.999Z</time></trkpt><trkpt lat="43.99965659947286" lon="11.243018585532257"><ele>268.2</ele><time>2026-04-19T11:23:23.999Z</time></trkpt><trkpt lat="43.99956816236516" lon="11.243115049532662"><ele>268.0</ele><time>2026-04-19T11:23:24.999Z</time></trkpt><trkpt lat="43.99947029676482" lon="11.243063845667354"><ele>268.0</ele><time>2026-04-19T11:23:25.999Z</time></trkpt><trkpt lat="43.99937756378371" lon="11.243023113192882"><ele>268.0</ele><time>2026-04-19T11:23:26.999Z</time></trkpt><trkpt lat="43.99926117614979" lon="11.242970753136403"><ele>268.0</ele><time>2026-04-19T11:23:27.999Z</time></trkpt><trkpt lat="43.999127419421505" lon="11.2429330745728"><ele>268.0</ele><time>2026-04-19T11:23:28.999Z</time></trkpt><trkpt lat="43.99898724034732" lon="11.24285869189152"><ele>268.0</ele><time>2026-04-19T11:23:29.999Z</time></trkpt><trkpt lat="43.998837456561056" lon="11.242791434215833"><ele>268.0</ele><time>2026-04-19T11:23:30.999Z</time></trkpt><trkpt lat="43.99868657176258" lon="11.242716604883972"><ele>268.0</ele><time>2026-04-19T11:23:31.999Z</time></trkpt><trkpt lat="43.998527361644356" lon="11.242644231878051"><ele>268.0</ele><time>2026-04-19T11:23:32.999Z</time></trkpt><trkpt lat="43.99837571511972" lon="11.242583496336625"><ele>268.0</ele><time>2026-04-19T11:23:33.999Z</time></trkpt><trkpt lat="43.99823320774875" lon="11.242521413264077"><ele>268.0</ele><time>2026-04-19T11:23:34.999Z</time></trkpt><trkpt lat="43.998091659767766" lon="11.242452837048836"><ele>266.66666666666663</ele><time>2026-04-19T11:23:35.999Z</time></trkpt><trkpt lat="43.99794068788555" lon="11.24238853663686"><ele>265.3333333333333</ele><time>2026-04-19T11:23:36.999Z</time></trkpt><trkpt lat="43.997791688559445" lon="11.242320769194722"><ele>264.0</ele><time>2026-04-19T11:23:37.999Z</time></trkpt><trkpt lat="43.99764066649653" lon="11.242250202864064"><ele>264.0</ele><time>2026-04-19T11:23:38.999Z</time></trkpt><trkpt lat="43.997494509289375" lon="11.242185005092153"><ele>264.0</ele><time>2026-04-19T11:23:39.999Z</time></trkpt><trkpt lat="43.997358212292404" lon="11.242122772195344"><ele>264.0</ele><time>2026-04-19T11:23:40.999Z</time></trkpt><trkpt lat="43.997227977745" lon="11.242067216760555"><ele>264.0</ele><time>2026-04-19T11:23:41.999Z</time></trkpt><trkpt lat="43.997096949472315" lon="11.242009915362399"><ele>264.0</ele><time>2026-04-19T11:23:42.999Z</time></trkpt><trkpt lat="43.99696646150852" lon="11.241955425266523"><ele>264.0</ele><time>2026-04-19T11:23:43.999Z</time></trkpt><trkpt lat="43.99683698740506" lon="11.241881986869004"><ele>264.0</ele><time>2026-04-19T11:23:44.999Z</time></trkpt><trkpt lat="43.996704671016715" lon="11.241838462085498"><ele>264.0</ele><time>2026-04-19T11:23:45.999Z</time></trkpt><trkpt lat="43.99658590054285" lon="11.241745173924233"><ele>263.25</ele><time>2026-04-19T11:23:46.999Z</time></trkpt><trkpt lat="43.99650222328225" lon="11.241597489962077"><ele>262.5</ele><time>2026-04-19T11:23:47.999Z</time></trkpt><trkpt lat="43.99644205196196" lon="11.241434131251186"><ele>261.75</ele><time>2026-04-19T11:23:48.999Z</time></trkpt><trkpt lat="43.996397095075494" lon="11.241264723801613"><ele>261.0</ele><time>2026-04-19T11:23:49.999Z</time></trkpt><trkpt lat="43.99635414891489" lon="11.24110988551606"><ele>261.0</ele><time>2026-04-19T11:23:50.999Z</time></trkpt><trkpt lat="43.99631659914215" lon="11.240976195994076"><ele>261.0</ele><time>2026-04-19T11:23:51.999Z</time></trkpt><trkpt lat="43.996281960638115" lon="11.24085108003124"><ele>261.0</ele><time>2026-04-19T11:23:52.999Z</time></trkpt><trkpt lat="43.996247591853155" lon="11.240728075515543"><ele>261.0</ele><time>2026-04-19T11:23:53.999Z</time></trkpt><trkpt lat="43.99621183923551" lon="11.240597418034762"><ele>261.0</ele><time>2026-04-19T11:23:54.999Z</time></trkpt><trkpt lat="43.99617597776113" lon="11.240468330387003"><ele>261.6</ele><time>2026-04-19T11:23:55.999Z</time></trkpt><trkpt lat="43.99614510521382" lon="11.24035989280554"><ele>262.20000000000005</ele><time>2026-04-19T11:23:56.999Z</time></trkpt><trkpt lat="43.99611285302788" lon="11.240258047108776"><ele>262.79999999999995</ele><time>2026-04-19T11:23:57.999Z</time></trkpt><trkpt lat="43.99605022081853" lon="11.240159149025185"><ele>263.4</ele><time>2026-04-19T11:23:58.999Z</time></trkpt><trkpt lat="43.99602473067868" lon="11.24006629156567"><ele>264.0</ele><time>2026-04-19T11:23:59.999Z</time></trkpt><trkpt lat="43.99588626845388" lon="11.240094276594457"><ele>264.25</ele><time>2026-04-19T11:24:00.999Z</time></trkpt><trkpt lat="43.99576378514215" lon="11.240114029349321"><ele>264.5</ele><time>2026-04-19T11:24:01.999Z</time></trkpt><trkpt lat="43.99561642557697" lon="11.240158321051203"><ele>264.75</ele><time>2026-04-19T11:24:02.999Z</time></trkpt><trkpt lat="43.99545625031469" lon="11.24019843587484"><ele>265.0</ele><time>2026-04-19T11:24:03.999Z</time></trkpt><trkpt lat="43.99528830441233" lon="11.240218229881393"><ele>265.0</ele><time>2026-04-19T11:24:04.999Z</time></trkpt><trkpt lat="43.99510823503949" lon="11.240218213845704"><ele>265.0</ele><time>2026-04-19T11:24:05.999Z</time></trkpt><trkpt lat="43.99493378255689" lon="11.24022690065699"><ele>265.0</ele><time>2026-04-19T11:24:06.999Z</time></trkpt><trkpt lat="43.994769489229284" lon="11.24024514360897"><ele>265.0</ele><time>2026-04-19T11:24:07.999Z</time></trkpt><trkpt lat="43.99461062508757" lon="11.240270940635243"><ele>265.0</ele><time>2026-04-19T11:24:08.999Z</time></trkpt><trkpt lat="43.99444731128127" lon="11.24028133592873"><ele>265.0</ele><time>2026-04-19T11:24:09.999Z</time></trkpt><trkpt lat="43.99429187031398" lon="11.24029858608468"><ele>264.5</ele><time>2026-04-19T11:24:10.999Z</time></trkpt><trkpt lat="43.99414435820137" lon="11.24031745167069"><ele>264.0</ele><time>2026-04-19T11:24:11.999Z</time></trkpt><trkpt lat="43.99400869321812" lon="11.240334491199466"><ele>263.5</ele><time>2026-04-19T11:24:12.999Z</time></trkpt><trkpt lat="43.993879641042156" lon="11.240353342603454"><ele>263.0</ele><time>2026-04-19T11:24:14Z</time></trkpt><trkpt lat="43.99375115528316" lon="11.240368660976932"><ele>263.0</ele><time>2026-04-19T11:24:15Z</time></trkpt><trkpt lat="43.99362833080619" lon="11.24037270845836"><ele>263.0</ele><time>2026-04-19T11:24:16Z</time></trkpt><trkpt lat="43.99350439133593" lon="11.240339718440637"><ele>263.0</ele><time>2026-04-19T11:24:17Z</time></trkpt><trkpt lat="43.99338221003603" lon="11.240258539388345"><ele>263.0</ele><time>2026-04-19T11:24:18Z</time></trkpt><trkpt lat="43.99326587164758" lon="11.24014433491113"><ele>263.0</ele><time>2026-04-19T11:24:19Z</time></trkpt><trkpt lat="43.99315180561697" lon="11.240025250141597"><ele>263.0</ele><time>2026-04-19T11:24:20Z</time></trkpt><trkpt lat="43.9930534288566" lon="11.239895846671144"><ele>263.0</ele><time>2026-04-19T11:24:21Z</time></trkpt><trkpt lat="43.99298858635222" lon="11.23972304707091"><ele>263.0</ele><time>2026-04-19T11:24:22Z</time></trkpt><trkpt lat="43.99291941286681" lon="11.239535422162936"><ele>263.0</ele><time>2026-04-19T11:24:23Z</time></trkpt><trkpt lat="43.99283907066183" lon="11.239344310075372"><ele>263.0</ele><time>2026-04-19T11:24:24Z</time></trkpt><trkpt lat="43.992771154755246" lon="11.239133489957506"><ele>263.0</ele><time>2026-04-19T11:24:25Z</time></trkpt><trkpt lat="43.99269616041531" lon="11.238922880801743"><ele>263.0</ele><time>2026-04-19T11:24:26Z</time></trkpt><trkpt lat="43.99262397759506" lon="11.23870408066883"><ele>263.0</ele><time>2026-04-19T11:24:27Z</time></trkpt><trkpt lat="43.992548992499266" lon="11.23849239900542"><ele>263.0</ele><time>2026-04-19T11:24:28Z</time></trkpt><trkpt lat="43.992479641133485" lon="11.238290185689637"><ele>263.0</ele><time>2026-04-19T11:24:29Z</time></trkpt><trkpt lat="43.99241165288268" lon="11.238093390369695"><ele>263.0</ele><time>2026-04-19T11:24:30Z</time></trkpt><trkpt lat="43.99234516562211" lon="11.237885132475993"><ele>263.0</ele><time>2026-04-19T11:24:31Z</time></trkpt><trkpt lat="43.99227301064511" lon="11.237672322538282"><ele>263.0</ele><time>2026-04-19T11:24:32Z</time></trkpt><trkpt lat="43.99219797341023" lon="11.237455972586572"><ele>263.0</ele><time>2026-04-19T11:24:33Z</time></trkpt><trkpt lat="43.99212411252938" lon="11.237241601435539"><ele>263.0</ele><time>2026-04-19T11:24:34Z</time></trkpt><trkpt lat="43.992049770541165" lon="11.237031313545723"><ele>263.0</ele><time>2026-04-19T11:24:35Z</time></trkpt><trkpt lat="43.99197863609316" lon="11.236831070203943"><ele>263.0</ele><time>2026-04-19T11:24:36Z</time></trkpt><trkpt lat="43.9919138105917" lon="11.236638864201998"><ele>263.0</ele><time>2026-04-19T11:24:37Z</time></trkpt><trkpt lat="43.99185018130159" lon="11.236455517569626"><ele>263.4</ele><time>2026-04-19T11:24:38Z</time></trkpt><trkpt lat="43.99179469498292" lon="11.236290526139856"><ele>263.8</ele><time>2026-04-19T11:24:39Z</time></trkpt><trkpt lat="43.991754888493595" lon="11.236149006775518"><ele>264.2</ele><time>2026-04-19T11:24:40Z</time></trkpt><trkpt lat="43.99173771244966" lon="11.23603235251157"><ele>264.6</ele><time>2026-04-19T11:24:41Z</time></trkpt><trkpt lat="43.991776274277676" lon="11.23591957716333"><ele>265.0</ele><time>2026-04-19T11:24:42Z</time></trkpt><trkpt lat="43.99177212352983" lon="11.235810121798707"><ele>265.0</ele><time>2026-04-19T11:24:43Z</time></trkpt><trkpt lat="43.991769849879766" lon="11.235689734595052"><ele>265.0</ele><time>2026-04-19T11:24:44Z</time></trkpt><trkpt lat="43.99171230576302" lon="11.235585816786669"><ele>265.0</ele><time>2026-04-19T11:24:45Z</time></trkpt><trkpt lat="43.99160197235771" lon="11.235549183506972"><ele>265.0</ele><time>2026-04-19T11:24:46Z</time></trkpt><trkpt lat="43.99148507371435" lon="11.235549668956477"><ele>265.0</ele><time>2026-04-19T11:24:47Z</time></trkpt><trkpt lat="43.99135725153477" lon="11.235464894840666"><ele>264.75</ele><time>2026-04-19T11:24:48Z</time></trkpt><trkpt lat="43.99123797101455" lon="11.23536807224511"><ele>264.5</ele><time>2026-04-19T11:24:49Z</time></trkpt><trkpt lat="43.991109963927634" lon="11.235252241901016"><ele>264.25</ele><time>2026-04-19T11:24:50Z</time></trkpt><trkpt lat="43.990987262671155" lon="11.235151775665885"><ele>264.0</ele><time>2026-04-19T11:24:51Z</time></trkpt><trkpt lat="43.990876683346166" lon="11.23506607741936"><ele>263.59999999999997</ele><time>2026-04-19T11:24:52Z</time></trkpt><trkpt lat="43.99078184818109" lon="11.23497729846457"><ele>263.2</ele><time>2026-04-19T11:24:53Z</time></trkpt><trkpt lat="43.990707768741245" lon="11.234875692859392"><ele>262.79999999999995</ele><time>2026-04-19T11:24:54Z</time></trkpt><trkpt lat="43.99065627306433" lon="11.2347588884651"><ele>262.4</ele><time>2026-04-19T11:24:55Z</time></trkpt><trkpt lat="43.99062503915673" lon="11.234632454453203"><ele>262.0</ele><time>2026-04-19T11:24:56Z</time></trkpt><trkpt lat="43.99061342723749" lon="11.234504178137087"><ele>262.0</ele><time>2026-04-19T11:24:57Z</time></trkpt><trkpt lat="43.990702727204315" lon="11.234356520011213"><ele>262.0</ele><time>2026-04-19T11:24:58Z</time></trkpt><trkpt lat="43.99074103787403" lon="11.23418209015903"><ele>262.0</ele><time>2026-04-19T11:24:59Z</time></trkpt><trkpt lat="43.99073426909463" lon="11.23400654810326"><ele>262.0</ele><time>2026-04-19T11:25:00Z</time></trkpt><trkpt lat="43.99071017625334" lon="11.233828639114313"><ele>262.0</ele><time>2026-04-19T11:25:01Z</time></trkpt><trkpt lat="43.99064750690337" lon="11.233665433955448"><ele>262.0</ele><time>2026-04-19T11:25:02Z</time></trkpt><trkpt lat="43.99055344879053" lon="11.23352547258357"><ele>262.0</ele><time>2026-04-19T11:25:03Z</time></trkpt><trkpt lat="43.990446569234074" lon="11.233423811805038"><ele>262.0</ele><time>2026-04-19T11:25:03.999Z</time></trkpt><trkpt lat="43.99036159506061" lon="11.233317629084635"><ele>262.0</ele><time>2026-04-19T11:25:04.999Z</time></trkpt><trkpt lat="43.990305670078634" lon="11.233172357970135"><ele>262.0</ele><time>2026-04-19T11:25:05.999Z</time></trkpt><trkpt lat="43.9902762461115" lon="11.233020764647824"><ele>262.0</ele><time>2026-04-19T11:25:06.999Z</time></trkpt><trkpt lat="43.990293679578635" lon="11.232885334925943"><ele>262.0</ele><time>2026-04-19T11:25:07.999Z</time></trkpt><trkpt lat="43.99030364644703" lon="11.232754913602092"><ele>262.0</ele><time>2026-04-19T11:25:08.999Z</time></trkpt><trkpt lat="43.99034477597549" lon="11.23263345832995"><ele>261.75</ele><time>2026-04-19T11:25:09.999Z</time></trkpt><trkpt lat="43.99038415047925" lon="11.232513410644396"><ele>261.5</ele><time>2026-04-19T11:25:10.999Z</time></trkpt><trkpt lat="43.99039119289205" lon="11.232376326899166"><ele>261.25</ele><time>2026-04-19T11:25:11.999Z</time></trkpt><trkpt lat="43.99043593714667" lon="11.232199956043535"><ele>261.0</ele><time>2026-04-19T11:25:12.999Z</time></trkpt><trkpt lat="43.99048049010637" lon="11.231987655131787"><ele>260.6666666666667</ele><time>2026-04-19T11:25:13.999Z</time></trkpt><trkpt lat="43.990526499536294" lon="11.231747488439268"><ele>260.33333333333337</ele><time>2026-04-19T11:25:14.999Z</time></trkpt><trkpt lat="43.990555062378995" lon="11.231496965074465"><ele>260.0</ele><time>2026-04-19T11:25:15.999Z</time></trkpt><trkpt lat="43.99057194755406" lon="11.231230544393807"><ele>260.33333333333337</ele><time>2026-04-19T11:25:16.999Z</time></trkpt><trkpt lat="43.990573805044924" lon="11.23094476093413"><ele>260.6666666666667</ele><time>2026-04-19T11:25:17.999Z</time></trkpt><trkpt lat="43.99056491473576" lon="11.230665080498209"><ele>261.0</ele><time>2026-04-19T11:25:18.999Z</time></trkpt><trkpt lat="43.990539840653284" lon="11.230402467044371"><ele>261.0</ele><time>2026-04-19T11:25:19.999Z</time></trkpt><trkpt lat="43.99050014676286" lon="11.230128536663349"><ele>261.0</ele><time>2026-04-19T11:25:20.999Z</time></trkpt><trkpt lat="43.99044196488441" lon="11.229867549964174"><ele>261.0</ele><time>2026-04-19T11:25:21.999Z</time></trkpt><trkpt lat="43.990372563381285" lon="11.229608434865566"><ele>261.3333333333333</ele><time>2026-04-19T11:25:22.999Z</time></trkpt><trkpt lat="43.990292830392185" lon="11.229354894986454"><ele>261.66666666666663</ele><time>2026-04-19T11:25:23.999Z</time></trkpt><trkpt lat="43.99019702136558" lon="11.229107564865654"><ele>262.0</ele><time>2026-04-19T11:25:24.999Z</time></trkpt><trkpt lat="43.99009268925114" lon="11.228879411872276"><ele>264.3333333333333</ele><time>2026-04-19T11:25:25.999Z</time></trkpt><trkpt lat="43.989982287232294" lon="11.22865908739713"><ele>266.6666666666667</ele><time>2026-04-19T11:25:26.999Z</time></trkpt><trkpt lat="43.989861907988185" lon="11.22845569290337"><ele>269.0</ele><time>2026-04-19T11:25:27.999Z</time></trkpt><trkpt lat="43.989730774837" lon="11.22827425775778"><ele>270.0</ele><time>2026-04-19T11:25:28.999Z</time></trkpt><trkpt lat="43.98959118077962" lon="11.228111897266038"><ele>271.0</ele><time>2026-04-19T11:25:29.999Z</time></trkpt><trkpt lat="43.98944637523468" lon="11.227964536168718"><ele>272.0</ele><time>2026-04-19T11:25:30.999Z</time></trkpt><trkpt lat="43.98929759596682" lon="11.227827892407497"><ele>272.6666666666667</ele><time>2026-04-19T11:25:31.999Z</time></trkpt><trkpt lat="43.98914452045493" lon="11.227702765971383"><ele>273.3333333333333</ele><time>2026-04-19T11:25:32.999Z</time></trkpt><trkpt lat="43.98898817295648" lon="11.227592844807223"><ele>274.0</ele><time>2026-04-19T11:25:33.999Z</time></trkpt><trkpt lat="43.98882445171373" lon="11.227493781349441"><ele>274.0</ele><time>2026-04-19T11:25:34.999Z</time></trkpt><trkpt lat="43.988658563967206" lon="11.227400554112524"><ele>274.0</ele><time>2026-04-19T11:25:35.999Z</time></trkpt><trkpt lat="43.98848842286268" lon="11.227302860638206"><ele>274.0</ele><time>2026-04-19T11:25:36.999Z</time></trkpt><trkpt lat="43.98831511000809" lon="11.227204094085788"><ele>276.3333333333333</ele><time>2026-04-19T11:25:37.999Z</time></trkpt><trkpt lat="43.98814025358505" lon="11.227095538547674"><ele>278.6666666666667</ele><time>2026-04-19T11:25:38.999Z</time></trkpt><trkpt lat="43.98795818746421" lon="11.226987197406794"><ele>281.0</ele><time>2026-04-19T11:25:39.999Z</time></trkpt><trkpt lat="43.9877772489882" lon="11.22687436581386"><ele>281.0</ele><time>2026-04-19T11:25:40.999Z</time></trkpt><trkpt lat="43.987607464486615" lon="11.22672817947787"><ele>281.0</ele><time>2026-04-19T11:25:41.999Z</time></trkpt><trkpt lat="43.98743914919285" lon="11.22657651970084"><ele>281.0</ele><time>2026-04-19T11:25:42.999Z</time></trkpt><trkpt lat="43.98727862608351" lon="11.226403322096306"><ele>282.6666666666667</ele><time>2026-04-19T11:25:43.999Z</time></trkpt><trkpt lat="43.987120629088025" lon="11.226209641808422"><ele>284.3333333333333</ele><time>2026-04-19T11:25:44.999Z</time></trkpt><trkpt lat="43.986963235743744" lon="11.22601025363038"><ele>286.0</ele><time>2026-04-19T11:25:45.999Z</time></trkpt><trkpt lat="43.986827474482126" lon="11.22579886358512"><ele>285.66666666666663</ele><time>2026-04-19T11:25:46.999Z</time></trkpt><trkpt lat="43.986700034405594" lon="11.22559941144222"><ele>285.3333333333333</ele><time>2026-04-19T11:25:47.999Z</time></trkpt><trkpt lat="43.98657766140606" lon="11.225393906623136"><ele>285.0</ele><time>2026-04-19T11:25:48.999Z</time></trkpt><trkpt lat="43.986456672546836" lon="11.225186032793317"><ele>285.0</ele><time>2026-04-19T11:25:49.999Z</time></trkpt><trkpt lat="43.98633720608265" lon="11.224975724493403"><ele>285.0</ele><time>2026-04-19T11:25:50.999Z</time></trkpt><trkpt lat="43.98622411478681" lon="11.224778677914728"><ele>285.0</ele><time>2026-04-19T11:25:51.999Z</time></trkpt><trkpt lat="43.986114595192824" lon="11.224588123163857"><ele>284.0</ele><time>2026-04-19T11:25:52.999Z</time></trkpt><trkpt lat="43.98601044169535" lon="11.224399676523975"><ele>283.0</ele><time>2026-04-19T11:25:53.999Z</time></trkpt><trkpt lat="43.98591336831053" lon="11.224218486529479"><ele>282.0</ele><time>2026-04-19T11:25:54.999Z</time></trkpt><trkpt lat="43.985813994273016" lon="11.22404788184573"><ele>280.5</ele><time>2026-04-19T11:25:55.999Z</time></trkpt><trkpt lat="43.985722891632875" lon="11.223886942398186"><ele>279.0</ele><time>2026-04-19T11:25:56.999Z</time></trkpt><trkpt lat="43.98564171091854" lon="11.223732258405233"><ele>277.5</ele><time>2026-04-19T11:25:57.999Z</time></trkpt><trkpt lat="43.98557333626325" lon="11.223586511184632"><ele>276.0</ele><time>2026-04-19T11:25:58.999Z</time></trkpt><trkpt lat="43.98552168402908" lon="11.223430010447688"><ele>276.0</ele><time>2026-04-19T11:25:59.999Z</time></trkpt><trkpt lat="43.985498433871605" lon="11.2232655338539"><ele>276.0</ele><time>2026-04-19T11:26:00.999Z</time></trkpt><trkpt lat="43.98550054469406" lon="11.22310573593706"><ele>276.0</ele><time>2026-04-19T11:26:01.999Z</time></trkpt><trkpt lat="43.98553057232555" lon="11.222957747240164"><ele>276.0</ele><time>2026-04-19T11:26:02.999Z</time></trkpt><trkpt lat="43.98557223921778" lon="11.222823209423487"><ele>275.6</ele><time>2026-04-19T11:26:03.999Z</time></trkpt><trkpt lat="43.98560292030458" lon="11.22270011877279"><ele>275.20000000000005</ele><time>2026-04-19T11:26:04.999Z</time></trkpt><trkpt lat="43.985624946761384" lon="11.222593889603392"><ele>274.79999999999995</ele><time>2026-04-19T11:26:05.999Z</time></trkpt><trkpt lat="43.9856848895902" lon="11.222462609195428"><ele>274.4</ele><time>2026-04-19T11:26:07.999Z</time></trkpt><trkpt lat="43.98574260991421" lon="11.22234822500082"><ele>274.0</ele><time>2026-04-19T11:26:09.999Z</time></trkpt><trkpt lat="43.98576823297635" lon="11.22222356121845"><ele>273.5</ele><time>2026-04-19T11:26:11.999Z</time></trkpt><trkpt lat="43.98574693635883" lon="11.222098194501042"><ele>273.0</ele><time>2026-04-19T11:26:13.999Z</time></trkpt><trkpt lat="43.98572038172606" lon="11.222015191601038"><ele>272.5</ele><time>2026-04-19T11:26:14.999Z</time></trkpt><trkpt lat="43.98566709941127" lon="11.22193933010597"><ele>272.0</ele><time>2026-04-19T11:26:15.999Z</time></trkpt><trkpt lat="43.98556301677798" lon="11.221942815006877"><ele>271.5</ele><time>2026-04-19T11:26:16.999Z</time></trkpt><trkpt lat="43.98548783833592" lon="11.222002695245848"><ele>271.0</ele><time>2026-04-19T11:26:17.999Z</time></trkpt><trkpt lat="43.98543158886282" lon="11.222074223401247"><ele>271.0</ele><time>2026-04-19T11:26:18.999Z</time></trkpt><trkpt lat="43.985386246895516" lon="11.222192395829634"><ele>271.0</ele><time>2026-04-19T11:26:20Z</time></trkpt><trkpt lat="43.9853568023954" lon="11.222344543953282"><ele>271.0</ele><time>2026-04-19T11:26:21Z</time></trkpt><trkpt lat="43.985300175497166" lon="11.222500364397412"><ele>271.0</ele><time>2026-04-19T11:26:22Z</time></trkpt><trkpt lat="43.985210431491616" lon="11.222632039321454"><ele>271.25</ele><time>2026-04-19T11:26:23Z</time></trkpt><trkpt lat="43.985103259811254" lon="11.222762563406956"><ele>271.5</ele><time>2026-04-19T11:26:24Z</time></trkpt><trkpt lat="43.98501015622673" lon="11.222877363836789"><ele>271.75</ele><time>2026-04-19T11:26:25Z</time></trkpt><trkpt lat="43.98492673105" lon="11.222995390710746"><ele>272.0</ele><time>2026-04-19T11:26:26Z</time></trkpt><trkpt lat="43.984851988582236" lon="11.223121287644657"><ele>272.0</ele><time>2026-04-19T11:26:27Z</time></trkpt><trkpt lat="43.98475468933384" lon="11.223180187020416"><ele>272.0</ele><time>2026-04-19T11:26:28Z</time></trkpt><trkpt lat="43.98466122875098" lon="11.22324475816516"><ele>272.0</ele><time>2026-04-19T11:26:29Z</time></trkpt><trkpt lat="43.98453883713901" lon="11.223240095105353"><ele>272.0</ele><time>2026-04-19T11:26:30Z</time></trkpt><trkpt lat="43.984425453825764" lon="11.223208813181811"><ele>272.0</ele><time>2026-04-19T11:26:31Z</time></trkpt><trkpt lat="43.98431799222839" lon="11.223084345588559"><ele>272.0</ele><time>2026-04-19T11:26:32Z</time></trkpt><trkpt lat="43.98418173991891" lon="11.223048472849444"><ele>272.0</ele><time>2026-04-19T11:26:33Z</time></trkpt><trkpt lat="43.98404129730637" lon="11.223006640536607"><ele>272.0</ele><time>2026-04-19T11:26:34Z</time></trkpt><trkpt lat="43.983878632001954" lon="11.222992050649319"><ele>272.0</ele><time>2026-04-19T11:26:35Z</time></trkpt><trkpt lat="43.983709777966986" lon="11.223004061372844"><ele>272.0</ele><time>2026-04-19T11:26:36Z</time></trkpt><trkpt lat="43.98353573515942" lon="11.223011229099022"><ele>272.0</ele><time>2026-04-19T11:26:37Z</time></trkpt><trkpt lat="43.983371231149334" lon="11.223028545468148"><ele>272.0</ele><time>2026-04-19T11:26:38Z</time></trkpt><trkpt lat="43.983212737938366" lon="11.223068410944437"><ele>272.0</ele><time>2026-04-19T11:26:39Z</time></trkpt><trkpt lat="43.98306193873169" lon="11.22313454503179"><ele>272.0</ele><time>2026-04-19T11:26:40Z</time></trkpt><trkpt lat="43.98290380384751" lon="11.223209615816176"><ele>272.0</ele><time>2026-04-19T11:26:41Z</time></trkpt><trkpt lat="43.98275170559539" lon="11.223292403559528"><ele>272.0</ele><time>2026-04-19T11:26:42Z</time></trkpt><trkpt lat="43.98260380537073" lon="11.223394500893448"><ele>272.0</ele><time>2026-04-19T11:26:43Z</time></trkpt><trkpt lat="43.982453292913554" lon="11.223499046365916"><ele>272.0</ele><time>2026-04-19T11:26:44Z</time></trkpt><trkpt lat="43.98230196595517" lon="11.223606806120282"><ele>272.6666666666667</ele><time>2026-04-19T11:26:45Z</time></trkpt><trkpt lat="43.98215603600002" lon="11.22371108595921"><ele>273.3333333333333</ele><time>2026-04-19T11:26:46Z</time></trkpt><trkpt lat="43.98202554921769" lon="11.223811836523721"><ele>274.0</ele><time>2026-04-19T11:26:47Z</time></trkpt><trkpt lat="43.98190574694031" lon="11.223905517779501"><ele>274.0</ele><time>2026-04-19T11:26:48Z</time></trkpt><trkpt lat="43.981783995740855" lon="11.223982416700933"><ele>274.0</ele><time>2026-04-19T11:26:49Z</time></trkpt><trkpt lat="43.98166914172196" lon="11.224010617093029"><ele>274.0</ele><time>2026-04-19T11:26:50Z</time></trkpt><trkpt lat="43.98155557278937" lon="11.224037907008416"><ele>274.0</ele><time>2026-04-19T11:26:51Z</time></trkpt><trkpt lat="43.981449348878925" lon="11.224040699859437"><ele>272.59999999999997</ele><time>2026-04-19T11:26:52Z</time></trkpt><trkpt lat="43.98135996708982" lon="11.224036774239257"><ele>271.2</ele><time>2026-04-19T11:26:53Z</time></trkpt><trkpt lat="43.98128594652685" lon="11.224019279251124"><ele>269.79999999999995</ele><time>2026-04-19T11:26:54Z</time></trkpt><trkpt lat="43.98121110842107" lon="11.224187013083927"><ele>268.4</ele><time>2026-04-19T11:26:55Z</time></trkpt><trkpt lat="43.98115848371709" lon="11.224278946499094"><ele>267.0</ele><time>2026-04-19T11:26:56Z</time></trkpt><trkpt lat="43.98111658177445" lon="11.224408656876722"><ele>267.0</ele><time>2026-04-19T11:26:57Z</time></trkpt><trkpt lat="43.981093329809546" lon="11.224573413095909"><ele>267.0</ele><time>2026-04-19T11:26:58Z</time></trkpt><trkpt lat="43.98107792601267" lon="11.224757427234357"><ele>267.0</ele><time>2026-04-19T11:26:59Z</time></trkpt><trkpt lat="43.98103604434439" lon="11.224955464822745"><ele>267.0</ele><time>2026-04-19T11:27:00Z</time></trkpt><trkpt lat="43.98097494802676" lon="11.225165671725014"><ele>267.5</ele><time>2026-04-19T11:27:01Z</time></trkpt><trkpt lat="43.980916655649715" lon="11.225355941593921"><ele>268.0</ele><time>2026-04-19T11:27:02Z</time></trkpt><trkpt lat="43.98086622220185" lon="11.225529717458553"><ele>268.5</ele><time>2026-04-19T11:27:03Z</time></trkpt><trkpt lat="43.98080574540515" lon="11.225677609283265"><ele>269.0</ele><time>2026-04-19T11:27:04Z</time></trkpt><trkpt lat="43.98072208425741" lon="11.225800145808751"><ele>266.75</ele><time>2026-04-19T11:27:05Z</time></trkpt><trkpt lat="43.98060970083582" lon="11.22589593611262"><ele>264.5</ele><time>2026-04-19T11:27:06Z</time></trkpt><trkpt lat="43.980483035401775" lon="11.225966525351533"><ele>262.25</ele><time>2026-04-19T11:27:07Z</time></trkpt><trkpt lat="43.98034423212801" lon="11.225997329511262"><ele>260.0</ele><time>2026-04-19T11:27:08Z</time></trkpt><trkpt lat="43.98019334893802" lon="11.225983953848049"><ele>260.0</ele><time>2026-04-19T11:27:09Z</time></trkpt><trkpt lat="43.98002530139863" lon="11.225920992746206"><ele>260.0</ele><time>2026-04-19T11:27:10Z</time></trkpt><trkpt lat="43.97984986575382" lon="11.225773793744784"><ele>260.0</ele><time>2026-04-19T11:27:11Z</time></trkpt><trkpt lat="43.979634011592445" lon="11.225660052411152"><ele>260.0</ele><time>2026-04-19T11:27:12Z</time></trkpt><trkpt lat="43.97942483320567" lon="11.22553799344005"><ele>260.0</ele><time>2026-04-19T11:27:13Z</time></trkpt><trkpt lat="43.97920325239888" lon="11.225392605300796"><ele>261.0</ele><time>2026-04-19T11:27:14Z</time></trkpt><trkpt lat="43.97894970963348" lon="11.225279946821146"><ele>262.0</ele><time>2026-04-19T11:27:14.999Z</time></trkpt><trkpt lat="43.97869016125977" lon="11.225139709294227"><ele>262.0</ele><time>2026-04-19T11:27:15.999Z</time></trkpt><trkpt lat="43.978431474455085" lon="11.225019582257945"><ele>262.0</ele><time>2026-04-19T11:27:16.999Z</time></trkpt><trkpt lat="43.97816093332003" lon="11.224903724825896"><ele>267.0</ele><time>2026-04-19T11:27:17.999Z</time></trkpt><trkpt lat="43.97787995047875" lon="11.22478359170727"><ele>272.0</ele><time>2026-04-19T11:27:18.999Z</time></trkpt><trkpt lat="43.9775941495127" lon="11.224663448347199"><ele>275.5</ele><time>2026-04-19T11:27:19.999Z</time></trkpt><trkpt lat="43.97733001588083" lon="11.224552993188977"><ele>279.0</ele><time>2026-04-19T11:27:20.999Z</time></trkpt><trkpt lat="43.97709417760833" lon="11.224454356329515"><ele>279.0</ele><time>2026-04-19T11:27:21.999Z</time></trkpt><trkpt lat="43.976880144650025" lon="11.224365085397272"><ele>279.0</ele><time>2026-04-19T11:27:22.999Z</time></trkpt><trkpt lat="43.97669168943526" lon="11.224259568480399"><ele>279.0</ele><time>2026-04-19T11:27:23.999Z</time></trkpt><trkpt lat="43.97651558288918" lon="11.224180038734115"><ele>279.0</ele><time>2026-04-19T11:27:24.999Z</time></trkpt><trkpt lat="43.97637036076542" lon="11.22410688230146"><ele>279.0</ele><time>2026-04-19T11:27:25.999Z</time></trkpt><trkpt lat="43.97624555273164" lon="11.224001245638506"><ele>279.0</ele><time>2026-04-19T11:27:26.999Z</time></trkpt><trkpt lat="43.97613586117367" lon="11.223845491940487"><ele>283.0</ele><time>2026-04-19T11:27:27.999Z</time></trkpt><trkpt lat="43.976092900525444" lon="11.223647691683313"><ele>287.0</ele><time>2026-04-19T11:27:28.999Z</time></trkpt><trkpt lat="43.97608913448828" lon="11.223443911295828"><ele>291.0</ele><time>2026-04-19T11:27:29.999Z</time></trkpt><trkpt lat="43.97609934240873" lon="11.223199631994564"><ele>292.6666666666667</ele><time>2026-04-19T11:27:30.999Z</time></trkpt><trkpt lat="43.97610954829109" lon="11.22291945502539"><ele>294.33333333333337</ele><time>2026-04-19T11:27:31.999Z</time></trkpt><trkpt lat="43.976125429883" lon="11.222628072644275"><ele>296.0</ele><time>2026-04-19T11:27:32.999Z</time></trkpt><trkpt lat="43.9761327519127" lon="11.22233882072627"><ele>296.0</ele><time>2026-04-19T11:27:33.999Z</time></trkpt><trkpt lat="43.97616416517537" lon="11.222044198193313"><ele>296.0</ele><time>2026-04-19T11:27:34.999Z</time></trkpt><trkpt lat="43.97617977945399" lon="11.221750115695125"><ele>296.0</ele><time>2026-04-19T11:27:35.999Z</time></trkpt><trkpt lat="43.97618380713423" lon="11.221450135013884"><ele>296.33333333333337</ele><time>2026-04-19T11:27:36.999Z</time></trkpt><trkpt lat="43.97619144928198" lon="11.221164813131903"><ele>296.6666666666667</ele><time>2026-04-19T11:27:37.999Z</time></trkpt><trkpt lat="43.97616134128905" lon="11.220905124799286"><ele>297.0</ele><time>2026-04-19T11:27:38.999Z</time></trkpt><trkpt lat="43.97607870635004" lon="11.220650585010109"><ele>300.5</ele><time>2026-04-19T11:27:39.999Z</time></trkpt><trkpt lat="43.975954700679615" lon="11.220387670977932"><ele>304.0</ele><time>2026-04-19T11:27:40.999Z</time></trkpt><trkpt lat="43.9758030748627" lon="11.220121805484776"><ele>301.0</ele><time>2026-04-19T11:27:41.999Z</time></trkpt><trkpt lat="43.97567809635876" lon="11.219839771678684"><ele>298.0</ele><time>2026-04-19T11:27:42.999Z</time></trkpt><trkpt lat="43.97554298001333" lon="11.219574043178634"><ele>298.0</ele><time>2026-04-19T11:27:43.999Z</time></trkpt><trkpt lat="43.97541237797142" lon="11.219317193526404"><ele>298.0</ele><time>2026-04-19T11:27:44.999Z</time></trkpt><trkpt lat="43.9752780418552" lon="11.219096318125077"><ele>298.0</ele><time>2026-04-19T11:27:45.999Z</time></trkpt><trkpt lat="43.97514925599409" lon="11.218890567413126"><ele>299.0</ele><time>2026-04-19T11:27:46.999Z</time></trkpt><trkpt lat="43.974997122570336" lon="11.218715068822524"><ele>300.0</ele><time>2026-04-19T11:27:47.999Z</time></trkpt><trkpt lat="43.974813752438315" lon="11.21856885428065"><ele>301.0</ele><time>2026-04-19T11:27:48.999Z</time></trkpt><trkpt lat="43.97462549515481" lon="11.218432993865173"><ele>301.0</ele><time>2026-04-19T11:27:49.999Z</time></trkpt><trkpt lat="43.97444637213874" lon="11.218324342121026"><ele>301.0</ele><time>2026-04-19T11:27:50.999Z</time></trkpt><trkpt lat="43.97426655677731" lon="11.218242630550046"><ele>301.0</ele><time>2026-04-19T11:27:51.999Z</time></trkpt><trkpt lat="43.97412510081037" lon="11.218114905447672"><ele>303.66666666666663</ele><time>2026-04-19T11:27:52.999Z</time></trkpt><trkpt lat="43.97399584662561" lon="11.217983335006343"><ele>306.3333333333333</ele><time>2026-04-19T11:27:53.999Z</time></trkpt><trkpt lat="43.97387377166073" lon="11.217853581066002"><ele>309.0</ele><time>2026-04-19T11:27:54.999Z</time></trkpt><trkpt lat="43.97375930553675" lon="11.217729852487148"><ele>309.0</ele><time>2026-04-19T11:27:55.999Z</time></trkpt><trkpt lat="43.973651297142766" lon="11.217613104114783"><ele>309.0</ele><time>2026-04-19T11:27:56.999Z</time></trkpt><trkpt lat="43.97354031180685" lon="11.217496950445604"><ele>309.0</ele><time>2026-04-19T11:27:57.999Z</time></trkpt><trkpt lat="43.97340962132635" lon="11.21737019367433"><ele>309.0</ele><time>2026-04-19T11:27:58.999Z</time></trkpt><trkpt lat="43.97326131590279" lon="11.21722882496592"><ele>308.3333333333333</ele><time>2026-04-19T11:27:59.999Z</time></trkpt><trkpt lat="43.973104889814664" lon="11.217079715424394"><ele>307.66666666666663</ele><time>2026-04-19T11:28:00.999Z</time></trkpt><trkpt lat="43.97294035874088" lon="11.21692832998409"><ele>307.0</ele><time>2026-04-19T11:28:01.999Z</time></trkpt><trkpt lat="43.9727255387865" lon="11.216873490848819"><ele>307.0</ele><time>2026-04-19T11:28:02.999Z</time></trkpt><trkpt lat="43.97255403458789" lon="11.216776640522166"><ele>307.0</ele><time>2026-04-19T11:28:03.999Z</time></trkpt><trkpt lat="43.972360777774206" lon="11.21674701941292"><ele>307.0</ele><time>2026-04-19T11:28:04.999Z</time></trkpt><trkpt lat="43.97213743615093" lon="11.216763009878779"><ele>307.0</ele><time>2026-04-19T11:28:05.999Z</time></trkpt><trkpt lat="43.97191255008275" lon="11.216820598304713"><ele>307.0</ele><time>2026-04-19T11:28:06.999Z</time></trkpt><trkpt lat="43.971700299443704" lon="11.216893440701641"><ele>307.0</ele><time>2026-04-19T11:28:07.999Z</time></trkpt><trkpt lat="43.97151827245478" lon="11.216932191552736"><ele>310.0</ele><time>2026-04-19T11:28:08.999Z</time></trkpt><trkpt lat="43.97132334052838" lon="11.21693349022279"><ele>313.0</ele><time>2026-04-19T11:28:09.999Z</time></trkpt><trkpt lat="43.971146628836145" lon="11.216888368286899"><ele>316.0</ele><time>2026-04-19T11:28:10.999Z</time></trkpt><trkpt lat="43.97098806975011" lon="11.216846244391055"><ele>318.0</ele><time>2026-04-19T11:28:11.999Z</time></trkpt><trkpt lat="43.97084744726355" lon="11.216861472251015"><ele>320.0</ele><time>2026-04-19T11:28:12.999Z</time></trkpt><trkpt lat="43.97070591308844" lon="11.216953610087264"><ele>322.0</ele><time>2026-04-19T11:28:13.999Z</time></trkpt><trkpt lat="43.970547025563995" lon="11.217096659977075"><ele>322.0</ele><time>2026-04-19T11:28:14.999Z</time></trkpt><trkpt lat="43.970369117754935" lon="11.217219972627744"><ele>322.0</ele><time>2026-04-19T11:28:15.999Z</time></trkpt><trkpt lat="43.97016630592214" lon="11.217291538665139"><ele>322.0</ele><time>2026-04-19T11:28:16.999Z</time></trkpt><trkpt lat="43.96995429717394" lon="11.21728991154562"><ele>322.5</ele><time>2026-04-19T11:28:17.999Z</time></trkpt><trkpt lat="43.96973042188656" lon="11.217216642563882"><ele>323.0</ele><time>2026-04-19T11:28:18.999Z</time></trkpt><trkpt lat="43.969513990762984" lon="11.217118473166087"><ele>323.0</ele><time>2026-04-19T11:28:19.999Z</time></trkpt><trkpt lat="43.96927263548123" lon="11.217072465443408"><ele>323.0</ele><time>2026-04-19T11:28:20.999Z</time></trkpt><trkpt lat="43.96904939110184" lon="11.217030374863565"><ele>320.6666666666667</ele><time>2026-04-19T11:28:21.999Z</time></trkpt><trkpt lat="43.96883398755351" lon="11.21701264187925"><ele>318.3333333333333</ele><time>2026-04-19T11:28:22.999Z</time></trkpt><trkpt lat="43.96861810353621" lon="11.217017413077292"><ele>316.0</ele><time>2026-04-19T11:28:23.999Z</time></trkpt><trkpt lat="43.9684108286146" lon="11.217060677470517"><ele>312.66666666666663</ele><time>2026-04-19T11:28:24.999Z</time></trkpt><trkpt lat="43.96821738649904" lon="11.21712288467578"><ele>309.3333333333333</ele><time>2026-04-19T11:28:26Z</time></trkpt><trkpt lat="43.96802781567209" lon="11.217140394253201"><ele>306.0</ele><time>2026-04-19T11:28:27Z</time></trkpt><trkpt lat="43.96784351402926" lon="11.217089196405189"><ele>306.0</ele><time>2026-04-19T11:28:28Z</time></trkpt><trkpt lat="43.96766337836951" lon="11.216966842185133"><ele>306.0</ele><time>2026-04-19T11:28:29Z</time></trkpt><trkpt lat="43.967475836653506" lon="11.216795396036236"><ele>306.0</ele><time>2026-04-19T11:28:30Z</time></trkpt><trkpt lat="43.9672762264405" lon="11.21661229190032"><ele>305.3333333333333</ele><time>2026-04-19T11:28:31Z</time></trkpt><trkpt lat="43.96707045187752" lon="11.216499083534188"><ele>304.66666666666663</ele><time>2026-04-19T11:28:32Z</time></trkpt><trkpt lat="43.96684365922264" lon="11.216470583647526"><ele>304.0</ele><time>2026-04-19T11:28:33Z</time></trkpt><trkpt lat="43.96659595690699" lon="11.216509869657555"><ele>299.5</ele><time>2026-04-19T11:28:34Z</time></trkpt><trkpt lat="43.96634602561394" lon="11.216596207971454"><ele>295.0</ele><time>2026-04-19T11:28:35Z</time></trkpt><trkpt lat="43.966095990144694" lon="11.216698912312669"><ele>295.0</ele><time>2026-04-19T11:28:36Z</time></trkpt><trkpt lat="43.96583555161501" lon="11.216744715520417"><ele>295.0</ele><time>2026-04-19T11:28:37Z</time></trkpt><trkpt lat="43.96556141816965" lon="11.216728605785969"><ele>295.0</ele><time>2026-04-19T11:28:38Z</time></trkpt><trkpt lat="43.96529228417259" lon="11.2167073985857"><ele>295.0</ele><time>2026-04-19T11:28:39Z</time></trkpt><trkpt lat="43.96501813695275" lon="11.216647543231993"><ele>297.0</ele><time>2026-04-19T11:28:40Z</time></trkpt><trkpt lat="43.96476772615883" lon="11.216550182988254"><ele>299.0</ele><time>2026-04-19T11:28:41Z</time></trkpt><trkpt lat="43.96454751923482" lon="11.21646565342068"><ele>300.33333333333337</ele><time>2026-04-19T11:28:42Z</time></trkpt><trkpt lat="43.96433929010935" lon="11.216429850045845"><ele>301.6666666666667</ele><time>2026-04-19T11:28:43Z</time></trkpt><trkpt lat="43.96413592733369" lon="11.216446290958574"><ele>303.0</ele><time>2026-04-19T11:28:44Z</time></trkpt><trkpt lat="43.96393747421185" lon="11.216498459185148"><ele>303.0</ele><time>2026-04-19T11:28:45Z</time></trkpt><trkpt lat="43.96375642562804" lon="11.21657808365169"><ele>303.0</ele><time>2026-04-19T11:28:46Z</time></trkpt><trkpt lat="43.96359085174522" lon="11.216646710950531"><ele>303.0</ele><time>2026-04-19T11:28:47Z</time></trkpt><trkpt lat="43.9634274278116" lon="11.21668033396825"><ele>302.6666666666667</ele><time>2026-04-19T11:28:48Z</time></trkpt><trkpt lat="43.963248763947554" lon="11.216650059920486"><ele>302.33333333333337</ele><time>2026-04-19T11:28:49Z</time></trkpt><trkpt lat="43.96305942118867" lon="11.216551054294337"><ele>302.0</ele><time>2026-04-19T11:28:50Z</time></trkpt><trkpt lat="43.96286623814028" lon="11.216400326894194"><ele>304.0</ele><time>2026-04-19T11:28:51Z</time></trkpt><trkpt lat="43.96267383544744" lon="11.21621940755634"><ele>306.0</ele><time>2026-04-19T11:28:52Z</time></trkpt><trkpt lat="43.96247981363142" lon="11.216059596103735"><ele>306.0</ele><time>2026-04-19T11:28:53Z</time></trkpt><trkpt lat="43.96228200549382" lon="11.215912795691164"><ele>306.0</ele><time>2026-04-19T11:28:54Z</time></trkpt><trkpt lat="43.962078315828315" lon="11.215761889701666"><ele>306.0</ele><time>2026-04-19T11:28:55Z</time></trkpt><trkpt lat="43.961870990182575" lon="11.215607017651921"><ele>306.0</ele><time>2026-04-19T11:28:56Z</time></trkpt><trkpt lat="43.96166048717256" lon="11.21545404869142"><ele>306.0</ele><time>2026-04-19T11:28:57Z</time></trkpt><trkpt lat="43.96144682058856" lon="11.215306973620333"><ele>306.0</ele><time>2026-04-19T11:28:58Z</time></trkpt><trkpt lat="43.961233703642684" lon="11.215160258851595"><ele>306.0</ele><time>2026-04-19T11:28:59Z</time></trkpt><trkpt lat="43.96104156466617" lon="11.214993299016282"><ele>306.0</ele><time>2026-04-19T11:29:00Z</time></trkpt><trkpt lat="43.96085249335492" lon="11.214863018737326"><ele>306.0</ele><time>2026-04-19T11:29:01Z</time></trkpt><trkpt lat="43.96067254072356" lon="11.214726034534635"><ele>306.3333333333333</ele><time>2026-04-19T11:29:02Z</time></trkpt><trkpt lat="43.960492326545356" lon="11.214598540817285"><ele>306.66666666666663</ele><time>2026-04-19T11:29:03Z</time></trkpt><trkpt lat="43.960313166072254" lon="11.214503190943065"><ele>307.0</ele><time>2026-04-19T11:29:04Z</time></trkpt><trkpt lat="43.960131732850236" lon="11.214448274232668"><ele>308.3333333333333</ele><time>2026-04-19T11:29:05Z</time></trkpt><trkpt lat="43.95993617275278" lon="11.214439317967749"><ele>309.6666666666667</ele><time>2026-04-19T11:29:06Z</time></trkpt><trkpt lat="43.959745679387304" lon="11.21446458553179"><ele>311.0</ele><time>2026-04-19T11:29:07Z</time></trkpt><trkpt lat="43.959547724223135" lon="11.214481740069479"><ele>311.0</ele><time>2026-04-19T11:29:08Z</time></trkpt><trkpt lat="43.95934623991276" lon="11.214465959093422"><ele>311.0</ele><time>2026-04-19T11:29:09Z</time></trkpt><trkpt lat="43.95914005911126" lon="11.214422048688238"><ele>311.0</ele><time>2026-04-19T11:29:10Z</time></trkpt><trkpt lat="43.958936065322625" lon="11.214340743435692"><ele>311.0</ele><time>2026-04-19T11:29:11Z</time></trkpt><trkpt lat="43.9587440267462" lon="11.214215944732766"><ele>311.0</ele><time>2026-04-19T11:29:12Z</time></trkpt><trkpt lat="43.958564382440166" lon="11.21404223686281"><ele>311.0</ele><time>2026-04-19T11:29:13Z</time></trkpt><trkpt lat="43.95839635744236" lon="11.213886574074998"><ele>314.0</ele><time>2026-04-19T11:29:14Z</time></trkpt><trkpt lat="43.958246963878736" lon="11.213747387482602"><ele>317.0</ele><time>2026-04-19T11:29:15Z</time></trkpt><trkpt lat="43.958104736052945" lon="11.213617715676538"><ele>320.0</ele><time>2026-04-19T11:29:16Z</time></trkpt><trkpt lat="43.957954049287295" lon="11.213494474970343"><ele>320.0</ele><time>2026-04-19T11:29:17Z</time></trkpt><trkpt lat="43.957810311370615" lon="11.213403082911354"><ele>320.0</ele><time>2026-04-19T11:29:18Z</time></trkpt><trkpt lat="43.95767099633702" lon="11.213346312066157"><ele>320.0</ele><time>2026-04-19T11:29:19Z</time></trkpt><trkpt lat="43.95752267881248" lon="11.213302292372662"><ele>324.6666666666667</ele><time>2026-04-19T11:29:20Z</time></trkpt><trkpt lat="43.957344606317136" lon="11.213309914421686"><ele>329.3333333333333</ele><time>2026-04-19T11:29:21Z</time></trkpt><trkpt lat="43.95714716795081" lon="11.213343521247822"><ele>334.0</ele><time>2026-04-19T11:29:22Z</time></trkpt><trkpt lat="43.95693925306839" lon="11.213371479378706"><ele>334.0</ele><time>2026-04-19T11:29:23Z</time></trkpt><trkpt lat="43.95673004175732" lon="11.213369708380773"><ele>334.0</ele><time>2026-04-19T11:29:23.999Z</time></trkpt><trkpt lat="43.95652274000081" lon="11.213344767442415"><ele>334.0</ele><time>2026-04-19T11:29:24.999Z</time></trkpt><trkpt lat="43.956313589687916" lon="11.213316426751355"><ele>338.0</ele><time>2026-04-19T11:29:25.999Z</time></trkpt><trkpt lat="43.95609690071358" lon="11.21328429618429"><ele>342.0</ele><time>2026-04-19T11:29:26.999Z</time></trkpt><trkpt lat="43.955876916200644" lon="11.213249362521296"><ele>346.0</ele><time>2026-04-19T11:29:27.999Z</time></trkpt><trkpt lat="43.95565763016155" lon="11.213239646276014"><ele>350.5</ele><time>2026-04-19T11:29:28.999Z</time></trkpt><trkpt lat="43.955439341664004" lon="11.213280021158733"><ele>355.0</ele><time>2026-04-19T11:29:29.999Z</time></trkpt><trkpt lat="43.955209135976325" lon="11.213349344298882"><ele>359.3333333333333</ele><time>2026-04-19T11:29:30.999Z</time></trkpt><trkpt lat="43.955015256934615" lon="11.213421726680686"><ele>363.6666666666667</ele><time>2026-04-19T11:29:31.999Z</time></trkpt><trkpt lat="43.954836190301876" lon="11.213482697359998"><ele>368.0</ele><time>2026-04-19T11:29:32.999Z</time></trkpt><trkpt lat="43.95466631964059" lon="11.213532522823154"><ele>368.0</ele><time>2026-04-19T11:29:33.999Z</time></trkpt><trkpt lat="43.954510840417015" lon="11.213564971160398"><ele>368.0</ele><time>2026-04-19T11:29:34.999Z</time></trkpt><trkpt lat="43.954345041332324" lon="11.213565818519834"><ele>368.0</ele><time>2026-04-19T11:29:35.999Z</time></trkpt><trkpt lat="43.954175232612236" lon="11.21350039113352"><ele>371.33333333333337</ele><time>2026-04-19T11:29:36.999Z</time></trkpt><trkpt lat="43.95402264563237" lon="11.213401801369878"><ele>374.6666666666667</ele><time>2026-04-19T11:29:37.999Z</time></trkpt><trkpt lat="43.95388075562179" lon="11.213325366921563"><ele>378.0</ele><time>2026-04-19T11:29:38.999Z</time></trkpt><trkpt lat="43.9537308163314" lon="11.213296928816431"><ele>378.0</ele><time>2026-04-19T11:29:39.999Z</time></trkpt><trkpt lat="43.95356984372116" lon="11.213326794280277"><ele>378.0</ele><time>2026-04-19T11:29:40.999Z</time></trkpt><trkpt lat="43.953419176615746" lon="11.213377140589408"><ele>378.0</ele><time>2026-04-19T11:29:41.999Z</time></trkpt><trkpt lat="43.953279125211445" lon="11.213361653203725"><ele>377.5</ele><time>2026-04-19T11:29:42.999Z</time></trkpt><trkpt lat="43.9531452944116" lon="11.213350790787313"><ele>377.0</ele><time>2026-04-19T11:29:43.999Z</time></trkpt><trkpt lat="43.95301173190885" lon="11.213325173014265"><ele>376.5</ele><time>2026-04-19T11:29:44.999Z</time></trkpt><trkpt lat="43.952884070926345" lon="11.21329563596328"><ele>376.0</ele><time>2026-04-19T11:29:45.999Z</time></trkpt><trkpt lat="43.952762651931955" lon="11.213245938331447"><ele>376.0</ele><time>2026-04-19T11:29:46.999Z</time></trkpt><trkpt lat="43.95264549670091" lon="11.213160768312408"><ele>376.0</ele><time>2026-04-19T11:29:47.999Z</time></trkpt><trkpt lat="43.95253157542799" lon="11.213077184139745"><ele>376.0</ele><time>2026-04-19T11:29:48.999Z</time></trkpt><trkpt lat="43.95240841641903" lon="11.212980546136789"><ele>376.0</ele><time>2026-04-19T11:29:49.999Z</time></trkpt><trkpt lat="43.95226566098409" lon="11.212855446470511"><ele>379.66666666666663</ele><time>2026-04-19T11:29:50.999Z</time></trkpt><trkpt lat="43.95210936012502" lon="11.212720850618163"><ele>383.3333333333333</ele><time>2026-04-19T11:29:51.999Z</time></trkpt><trkpt lat="43.951951056094856" lon="11.212587710210554"><ele>387.0</ele><time>2026-04-19T11:29:52.999Z</time></trkpt><trkpt lat="43.951809500554496" lon="11.212403889057784"><ele>391.33333333333337</ele><time>2026-04-19T11:29:53.999Z</time></trkpt><trkpt lat="43.95165802563056" lon="11.212190811566774"><ele>395.6666666666667</ele><time>2026-04-19T11:29:54.999Z</time></trkpt><trkpt lat="43.951504485339356" lon="11.211964940250043"><ele>400.0</ele><time>2026-04-19T11:29:55.999Z</time></trkpt><trkpt lat="43.95135131237908" lon="11.211739985281108"><ele>400.0</ele><time>2026-04-19T11:29:56.999Z</time></trkpt><trkpt lat="43.95120336060562" lon="11.211523136762256"><ele>400.0</ele><time>2026-04-19T11:29:57.999Z</time></trkpt><trkpt lat="43.95107133760598" lon="11.211322275039656"><ele>400.0</ele><time>2026-04-19T11:29:58.999Z</time></trkpt><trkpt lat="43.950973070003776" lon="11.211122458462011"><ele>399.33333333333337</ele><time>2026-04-19T11:29:59.999Z</time></trkpt><trkpt lat="43.95090985115126" lon="11.210879797655428"><ele>398.66666666666663</ele><time>2026-04-19T11:30:00.999Z</time></trkpt><trkpt lat="43.950864482723276" lon="11.210590502921866"><ele>398.0</ele><time>2026-04-19T11:30:01.999Z</time></trkpt><trkpt lat="43.95081178946221" lon="11.210277147117127"><ele>398.0</ele><time>2026-04-19T11:30:02.999Z</time></trkpt><trkpt lat="43.95076337655083" lon="11.209989153131238"><ele>398.0</ele><time>2026-04-19T11:30:03.999Z</time></trkpt><trkpt lat="43.950720856369415" lon="11.209740363329152"><ele>398.0</ele><time>2026-04-19T11:30:04.999Z</time></trkpt><trkpt lat="43.95067422152833" lon="11.209534666193997"><ele>399.5</ele><time>2026-04-19T11:30:05.999Z</time></trkpt><trkpt lat="43.95063508674371" lon="11.209372846898184"><ele>401.0</ele><time>2026-04-19T11:30:06.999Z</time></trkpt><trkpt lat="43.950609202832396" lon="11.209214533841186"><ele>402.5</ele><time>2026-04-19T11:30:07.999Z</time></trkpt><trkpt lat="43.950526446171246" lon="11.209057807597478"><ele>404.0</ele><time>2026-04-19T11:30:08.999Z</time></trkpt><trkpt lat="43.9504599965049" lon="11.208953674036"><ele>404.0</ele><time>2026-04-19T11:30:09.999Z</time></trkpt><trkpt lat="43.95015819016957" lon="11.209238211356261"><ele>404.0</ele><time>2026-04-19T11:30:10.999Z</time></trkpt><trkpt lat="43.95004346470302" lon="11.20939623872483"><ele>403.66666666666663</ele><time>2026-04-19T11:30:11.999Z</time></trkpt><trkpt lat="43.949977219147044" lon="11.209613436731257"><ele>403.33333333333337</ele><time>2026-04-19T11:30:12.999Z</time></trkpt><trkpt lat="43.94993342199063" lon="11.209876729144321"><ele>403.0</ele><time>2026-04-19T11:30:13.999Z</time></trkpt><trkpt lat="43.94986556972262" lon="11.21014213540948"><ele>403.0</ele><time>2026-04-19T11:30:14.999Z</time></trkpt><trkpt lat="43.949780685307054" lon="11.210386951003676"><ele>403.0</ele><time>2026-04-19T11:30:15.999Z</time></trkpt><trkpt lat="43.9496649012513" lon="11.210531697010937"><ele>403.0</ele><time>2026-04-19T11:30:16.999Z</time></trkpt><trkpt lat="43.94952442601899" lon="11.210672619750554"><ele>402.6666666666667</ele><time>2026-04-19T11:30:17.999Z</time></trkpt><trkpt lat="43.949348370791746" lon="11.210766181708442"><ele>402.33333333333337</ele><time>2026-04-19T11:30:18.999Z</time></trkpt><trkpt lat="43.949171597866254" lon="11.210841861202148"><ele>402.0</ele><time>2026-04-19T11:30:19.999Z</time></trkpt><trkpt lat="43.94898315208412" lon="11.210823809445143"><ele>402.0</ele><time>2026-04-19T11:30:20.999Z</time></trkpt><trkpt lat="43.94878497111659" lon="11.210723264583347"><ele>402.0</ele><time>2026-04-19T11:30:21.999Z</time></trkpt><trkpt lat="43.94861118357573" lon="11.210569055876473"><ele>402.0</ele><time>2026-04-19T11:30:22.999Z</time></trkpt><trkpt lat="43.94845970037803" lon="11.210438511978612"><ele>406.33333333333337</ele><time>2026-04-19T11:30:23.999Z</time></trkpt><trkpt lat="43.948305881806384" lon="11.210390747747656"><ele>410.6666666666667</ele><time>2026-04-19T11:30:24.999Z</time></trkpt><trkpt lat="43.94814387614803" lon="11.210426017889693"><ele>415.0</ele><time>2026-04-19T11:30:25.999Z</time></trkpt><trkpt lat="43.94799198163719" lon="11.210534698733971"><ele>410.33333333333337</ele><time>2026-04-19T11:30:26.999Z</time></trkpt><trkpt lat="43.94787448593964" lon="11.210714798967295"><ele>405.66666666666663</ele><time>2026-04-19T11:30:27.999Z</time></trkpt><trkpt lat="43.94782548391997" lon="11.21095263259379"><ele>401.0</ele><time>2026-04-19T11:30:28.999Z</time></trkpt><trkpt lat="43.947788854952194" lon="11.21121242911214"><ele>400.66666666666663</ele><time>2026-04-19T11:30:29.999Z</time></trkpt><trkpt lat="43.94780403524332" lon="11.211493855965362"><ele>400.33333333333337</ele><time>2026-04-19T11:30:30.999Z</time></trkpt><trkpt lat="43.94778500149785" lon="11.211706988646727"><ele>400.0</ele><time>2026-04-19T11:30:32Z</time></trkpt><trkpt lat="43.94768209826191" lon="11.211885400609315"><ele>403.0</ele><time>2026-04-19T11:30:33Z</time></trkpt><trkpt lat="43.94752402587932" lon="11.212019622999643"><ele>406.0</ele><time>2026-04-19T11:30:34Z</time></trkpt><trkpt lat="43.947326159229334" lon="11.212176760975625"><ele>409.0</ele><time>2026-04-19T11:30:35Z</time></trkpt><trkpt lat="43.94718549856523" lon="11.212331385246877"><ele>409.0</ele><time>2026-04-19T11:30:36Z</time></trkpt><trkpt lat="43.94709489743181" lon="11.212541367915463"><ele>409.0</ele><time>2026-04-19T11:30:37Z</time></trkpt><trkpt lat="43.94702420016251" lon="11.212768246142339"><ele>409.0</ele><time>2026-04-19T11:30:38Z</time></trkpt><trkpt lat="43.94693769127753" lon="11.21294786185686"><ele>409.0</ele><time>2026-04-19T11:30:39Z</time></trkpt><trkpt lat="43.94680101792738" lon="11.213091509067583"><ele>409.0</ele><time>2026-04-19T11:30:40Z</time></trkpt><trkpt lat="43.94662443505338" lon="11.213130103710972"><ele>409.0</ele><time>2026-04-19T11:30:41Z</time></trkpt><trkpt lat="43.94642921946973" lon="11.213183341727742"><ele>412.0</ele><time>2026-04-19T11:30:42Z</time></trkpt><trkpt lat="43.94625232015154" lon="11.213214534602367"><ele>415.0</ele><time>2026-04-19T11:30:43Z</time></trkpt><trkpt lat="43.94609134313662" lon="11.213268451598472"><ele>418.0</ele><time>2026-04-19T11:30:44Z</time></trkpt><trkpt lat="43.94595510122531" lon="11.213336390099062"><ele>420.2</ele><time>2026-04-19T11:30:45Z</time></trkpt><trkpt lat="43.94585149488435" lon="11.213407452040679"><ele>422.4</ele><time>2026-04-19T11:30:46Z</time></trkpt><trkpt lat="43.94576189133893" lon="11.213484102285175"><ele>424.59999999999997</ele><time>2026-04-19T11:30:47Z</time></trkpt><trkpt lat="43.94567105591661" lon="11.213544428500628"><ele>426.79999999999995</ele><time>2026-04-19T11:30:48Z</time></trkpt><trkpt lat="43.945588409371425" lon="11.21359673788011"><ele>429.0</ele><time>2026-04-19T11:30:49Z</time></trkpt><trkpt lat="43.945512535636055" lon="11.213649192446553"><ele>429.0</ele><time>2026-04-19T11:30:50Z</time></trkpt><trkpt lat="43.94544600845584" lon="11.21368755915208"><ele>429.0</ele><time>2026-04-19T11:30:51Z</time></trkpt><trkpt lat="43.94538516927693" lon="11.213711172749573"><ele>429.0</ele><time>2026-04-19T11:30:52Z</time></trkpt><trkpt lat="43.94531129456666" lon="11.213739669890515"><ele>429.0</ele><time>2026-04-19T11:30:53Z</time></trkpt><trkpt lat="43.945212589375004" lon="11.213759837295093"><ele>429.0</ele><time>2026-04-19T11:30:54Z</time></trkpt><trkpt lat="43.94511974586666" lon="11.213760886859964"><ele>429.0</ele><time>2026-04-19T11:30:55Z</time></trkpt><trkpt lat="43.94503931495273" lon="11.213760081724066"><ele>427.79999999999995</ele><time>2026-04-19T11:30:56Z</time></trkpt><trkpt lat="43.94496681168805" lon="11.213753017792177"><ele>426.59999999999997</ele><time>2026-04-19T11:30:57Z</time></trkpt><trkpt lat="43.944896296354" lon="11.213747843870559"><ele>425.4</ele><time>2026-04-19T11:30:58Z</time></trkpt><trkpt lat="43.94481918569545" lon="11.213736151113471"><ele>424.2</ele><time>2026-04-19T11:30:59Z</time></trkpt><trkpt lat="43.94473261338668" lon="11.21384796348901"><ele>423.0</ele><time>2026-04-19T11:31:00Z</time></trkpt><trkpt lat="43.94466119126313" lon="11.213965469168444"><ele>424.0</ele><time>2026-04-19T11:31:01Z</time></trkpt><trkpt lat="43.944585513176314" lon="11.214116370067597"><ele>425.0</ele><time>2026-04-19T11:31:02Z</time></trkpt><trkpt lat="43.94449862044382" lon="11.214265069868745"><ele>426.0</ele><time>2026-04-19T11:31:03Z</time></trkpt><trkpt lat="43.944414845526374" lon="11.214401581975213"><ele>427.0</ele><time>2026-04-19T11:31:04Z</time></trkpt><trkpt lat="43.944334622487595" lon="11.214533776863782"><ele>427.0</ele><time>2026-04-19T11:31:05Z</time></trkpt><trkpt lat="43.94426067134496" lon="11.214656438181569"><ele>427.00000000000006</ele><time>2026-04-19T11:31:06Z</time></trkpt><trkpt lat="43.944191800118226" lon="11.214778686545001"><ele>427.00000000000006</ele><time>2026-04-19T11:31:07Z</time></trkpt><trkpt lat="43.9441223864518" lon="11.214894976721112"><ele>427.0</ele><time>2026-04-19T11:31:08Z</time></trkpt><trkpt lat="43.94405209750556" lon="11.215003901631198"><ele>427.0</ele><time>2026-04-19T11:31:09Z</time></trkpt><trkpt lat="43.94398350506096" lon="11.215117582493734"><ele>426.8</ele><time>2026-04-19T11:31:10Z</time></trkpt><trkpt lat="43.94391455750584" lon="11.215234442907086"><ele>426.6</ele><time>2026-04-19T11:31:11Z</time></trkpt><trkpt lat="43.94384714332186" lon="11.215347339632622"><ele>426.40000000000003</ele><time>2026-04-19T11:31:12Z</time></trkpt><trkpt lat="43.943775965392476" lon="11.215470553565327"><ele>426.20000000000005</ele><time>2026-04-19T11:31:13Z</time></trkpt><trkpt lat="43.943703875178024" lon="11.215592125058421"><ele>426.0</ele><time>2026-04-19T11:31:14Z</time></trkpt><trkpt lat="43.94361844966024" lon="11.215702754000022"><ele>426.0</ele><time>2026-04-19T11:31:15Z</time></trkpt><trkpt lat="43.94351877975243" lon="11.215777940811517"><ele>426.0</ele><time>2026-04-19T11:31:16Z</time></trkpt><trkpt lat="43.943407993358896" lon="11.215825747381349"><ele>426.0</ele><time>2026-04-19T11:31:17Z</time></trkpt><trkpt lat="43.94328127890884" lon="11.215858029658955"><ele>426.0</ele><time>2026-04-19T11:31:18Z</time></trkpt><trkpt lat="43.943140473493735" lon="11.215891499478293"><ele>422.0</ele><time>2026-04-19T11:31:19Z</time></trkpt><trkpt lat="43.94299311667476" lon="11.215952727866688"><ele>418.0</ele><time>2026-04-19T11:31:20Z</time></trkpt><trkpt lat="43.94284398371214" lon="11.216037992842184"><ele>414.0</ele><time>2026-04-19T11:31:21Z</time></trkpt><trkpt lat="43.94269994672776" lon="11.21612137822894"><ele>414.0</ele><time>2026-04-19T11:31:22Z</time></trkpt><trkpt lat="43.942564264015544" lon="11.216195626111919"><ele>414.0</ele><time>2026-04-19T11:31:23Z</time></trkpt><trkpt lat="43.94243108836575" lon="11.216263739394385"><ele>414.0</ele><time>2026-04-19T11:31:24Z</time></trkpt><trkpt lat="43.942307114342256" lon="11.21635382189874"><ele>414.0</ele><time>2026-04-19T11:31:25Z</time></trkpt><trkpt lat="43.942204584988964" lon="11.216486332289868"><ele>413.0</ele><time>2026-04-19T11:31:26Z</time></trkpt><trkpt lat="43.94212712600807" lon="11.21664928636485"><ele>412.0</ele><time>2026-04-19T11:31:27Z</time></trkpt><trkpt lat="43.94206358615104" lon="11.216809857677353"><ele>411.0</ele><time>2026-04-19T11:31:28Z</time></trkpt><trkpt lat="43.94200810522509" lon="11.216952053081112"><ele>410.0</ele><time>2026-04-19T11:31:29Z</time></trkpt><trkpt lat="43.941930065688204" lon="11.217048090181445"><ele>410.0</ele><time>2026-04-19T11:31:29.999Z</time></trkpt><trkpt lat="43.941839342333566" lon="11.217105916561556"><ele>410.0</ele><time>2026-04-19T11:31:30.999Z</time></trkpt><trkpt lat="43.94172880198581" lon="11.217113002002414"><ele>410.0</ele><time>2026-04-19T11:31:31.999Z</time></trkpt><trkpt lat="43.94162347916148" lon="11.217053950048113"><ele>410.0</ele><time>2026-04-19T11:31:32.999Z</time></trkpt><trkpt lat="43.941523613798296" lon="11.216956450572978"><ele>410.0</ele><time>2026-04-19T11:31:33.999Z</time></trkpt><trkpt lat="43.941463985342146" lon="11.216796000266637"><ele>407.0</ele><time>2026-04-19T11:31:34.999Z</time></trkpt><trkpt lat="43.94146490959204" lon="11.216605314976443"><ele>404.0</ele><time>2026-04-19T11:31:35.999Z</time></trkpt><trkpt lat="43.94148858855993" lon="11.21639787189818"><ele>401.0</ele><time>2026-04-19T11:31:36.999Z</time></trkpt><trkpt lat="43.94153625960654" lon="11.216198597465375"><ele>398.0</ele><time>2026-04-19T11:31:37.999Z</time></trkpt><trkpt lat="43.94161588605953" lon="11.216052347447658"><ele>399.0</ele><time>2026-04-19T11:31:38.999Z</time></trkpt><trkpt lat="43.9417103839884" lon="11.215925044067536"><ele>400.0</ele><time>2026-04-19T11:31:39.999Z</time></trkpt><trkpt lat="43.94184013410363" lon="11.215874741213314"><ele>401.0</ele><time>2026-04-19T11:31:40.999Z</time></trkpt><trkpt lat="43.94195622963226" lon="11.215833778279114"><ele>402.0</ele><time>2026-04-19T11:31:41.999Z</time></trkpt><trkpt lat="43.94203686312619" lon="11.215735435345447"><ele>400.25</ele><time>2026-04-19T11:31:42.999Z</time></trkpt><trkpt lat="43.94207815441777" lon="11.215588190307399"><ele>398.5</ele><time>2026-04-19T11:31:43.999Z</time></trkpt><trkpt lat="43.94206632936586" lon="11.215425076393727"><ele>396.75</ele><time>2026-04-19T11:31:44.999Z</time></trkpt><trkpt lat="43.94202112775889" lon="11.215279223850501"><ele>395.0</ele><time>2026-04-19T11:31:45.999Z</time></trkpt><trkpt lat="43.941931748632804" lon="11.215168356505854"><ele>395.0</ele><time>2026-04-19T11:31:46.999Z</time></trkpt><trkpt lat="43.94181323792058" lon="11.215119649972513"><ele>395.0</ele><time>2026-04-19T11:31:47.999Z</time></trkpt><trkpt lat="43.94167627836134" lon="11.215137582644216"><ele>395.0</ele><time>2026-04-19T11:31:48.999Z</time></trkpt><trkpt lat="43.94151922498373" lon="11.215225147204539"><ele>395.0</ele><time>2026-04-19T11:31:49.999Z</time></trkpt><trkpt lat="43.941358296878064" lon="11.215336134191514"><ele>391.0</ele><time>2026-04-19T11:31:50.999Z</time></trkpt><trkpt lat="43.941185036326345" lon="11.21543449144698"><ele>387.0</ele><time>2026-04-19T11:31:51.999Z</time></trkpt><trkpt lat="43.9410057673761" lon="11.215522985691134"><ele>383.0</ele><time>2026-04-19T11:31:52.999Z</time></trkpt><trkpt lat="43.94083108294046" lon="11.215595700098868"><ele>382.0</ele><time>2026-04-19T11:31:53.999Z</time></trkpt><trkpt lat="43.94066323830825" lon="11.215662921162725"><ele>381.0</ele><time>2026-04-19T11:31:54.999Z</time></trkpt><trkpt lat="43.94049675496374" lon="11.215732850919709"><ele>380.0</ele><time>2026-04-19T11:31:55.999Z</time></trkpt><trkpt lat="43.94033115670259" lon="11.215789568469264"><ele>380.0</ele><time>2026-04-19T11:31:56.999Z</time></trkpt><trkpt lat="43.940167015259924" lon="11.215833369379531"><ele>380.0</ele><time>2026-04-19T11:31:57.999Z</time></trkpt><trkpt lat="43.94000475852004" lon="11.215878855498024"><ele>380.0</ele><time>2026-04-19T11:31:58.999Z</time></trkpt><trkpt lat="43.939845015924966" lon="11.215914585270456"><ele>377.33333333333337</ele><time>2026-04-19T11:31:59.999Z</time></trkpt><trkpt lat="43.939685536070215" lon="11.21595490635423"><ele>374.6666666666667</ele><time>2026-04-19T11:32:00.999Z</time></trkpt><trkpt lat="43.93952893366012" lon="11.215979133269308"><ele>372.0</ele><time>2026-04-19T11:32:01.999Z</time></trkpt><trkpt lat="43.93937960604228" lon="11.21593016707458"><ele>372.0</ele><time>2026-04-19T11:32:02.999Z</time></trkpt><trkpt lat="43.93923928048571" lon="11.215859277534143"><ele>372.0</ele><time>2026-04-19T11:32:03.999Z</time></trkpt><trkpt lat="43.93911768695742" lon="11.215743039873082"><ele>372.0</ele><time>2026-04-19T11:32:04.999Z</time></trkpt><trkpt lat="43.938975534485756" lon="11.215658323055074"><ele>366.0</ele><time>2026-04-19T11:32:05.999Z</time></trkpt><trkpt lat="43.93882246813549" lon="11.215556723537091"><ele>360.0</ele><time>2026-04-19T11:32:06.999Z</time></trkpt><trkpt lat="43.9386348427499" lon="11.215498231724215"><ele>354.0</ele><time>2026-04-19T11:32:07.999Z</time></trkpt><trkpt lat="43.9384614647057" lon="11.215421592316686"><ele>352.6666666666667</ele><time>2026-04-19T11:32:08.999Z</time></trkpt><trkpt lat="43.93829234571244" lon="11.215342841647209"><ele>351.33333333333337</ele><time>2026-04-19T11:32:09.999Z</time></trkpt><trkpt lat="43.93812208847109" lon="11.21527370493176"><ele>350.0</ele><time>2026-04-19T11:32:10.999Z</time></trkpt><trkpt lat="43.937952916123415" lon="11.215204801374405"><ele>350.0</ele><time>2026-04-19T11:32:11.999Z</time></trkpt><trkpt lat="43.937779670534596" lon="11.21514449012449"><ele>350.0</ele><time>2026-04-19T11:32:12.999Z</time></trkpt><trkpt lat="43.937609608404756" lon="11.215099810672186"><ele>350.0</ele><time>2026-04-19T11:32:13.999Z</time></trkpt><trkpt lat="43.937437159034616" lon="11.215083820150344"><ele>350.6666666666667</ele><time>2026-04-19T11:32:14.999Z</time></trkpt><trkpt lat="43.93727498932261" lon="11.215051742257943"><ele>351.3333333333333</ele><time>2026-04-19T11:32:15.999Z</time></trkpt><trkpt lat="43.93713585326989" lon="11.21494597226302"><ele>352.0</ele><time>2026-04-19T11:32:16.999Z</time></trkpt><trkpt lat="43.937032207794836" lon="11.214795711341027"><ele>348.0</ele><time>2026-04-19T11:32:17.999Z</time></trkpt><trkpt lat="43.93693205375433" lon="11.214631445329319"><ele>344.0</ele><time>2026-04-19T11:32:18.999Z</time></trkpt><trkpt lat="43.93683165084571" lon="11.214514159146155"><ele>340.0</ele><time>2026-04-19T11:32:19.999Z</time></trkpt><trkpt lat="43.936704652238035" lon="11.214441643978438"><ele>336.0</ele><time>2026-04-19T11:32:20.999Z</time></trkpt><trkpt lat="43.936540032106585" lon="11.21443910914733"><ele>336.0</ele><time>2026-04-19T11:32:21.999Z</time></trkpt><trkpt lat="43.936365129578036" lon="11.214475828399783"><ele>336.0</ele><time>2026-04-19T11:32:22.999Z</time></trkpt><trkpt lat="43.93619560454173" lon="11.21449687520146"><ele>336.0</ele><time>2026-04-19T11:32:23.999Z</time></trkpt><trkpt lat="43.93601053139666" lon="11.214492252371011"><ele>335.6666666666667</ele><time>2026-04-19T11:32:24.999Z</time></trkpt><trkpt lat="43.93584279186345" lon="11.214379505712866"><ele>335.33333333333337</ele><time>2026-04-19T11:32:25.999Z</time></trkpt><trkpt lat="43.935668954498084" lon="11.21423860190809"><ele>335.0</ele><time>2026-04-19T11:32:26.999Z</time></trkpt><trkpt lat="43.93553185150461" lon="11.214124356040285"><ele>328.0</ele><time>2026-04-19T11:32:27.999Z</time></trkpt><trkpt lat="43.935373517517526" lon="11.213982777880924"><ele>321.0</ele><time>2026-04-19T11:32:28.999Z</time></trkpt><trkpt lat="43.93520457226319" lon="11.213871635943828"><ele>314.0</ele><time>2026-04-19T11:32:29.999Z</time></trkpt><trkpt lat="43.93502560207046" lon="11.213794041647837"><ele>314.0</ele><time>2026-04-19T11:32:30.999Z</time></trkpt><trkpt lat="43.93484473551541" lon="11.21372418657925"><ele>314.0</ele><time>2026-04-19T11:32:31.999Z</time></trkpt><trkpt lat="43.934662423244426" lon="11.213651051004376"><ele>314.0</ele><time>2026-04-19T11:32:32.999Z</time></trkpt><trkpt lat="43.93448439393407" lon="11.2135831497141"><ele>314.0</ele><time>2026-04-19T11:32:33.999Z</time></trkpt><trkpt lat="43.934300644595766" lon="11.213513214419"><ele>314.0</ele><time>2026-04-19T11:32:34.999Z</time></trkpt><trkpt lat="43.934119626864536" lon="11.213440773025575"><ele>314.0</ele><time>2026-04-19T11:32:35.999Z</time></trkpt><trkpt lat="43.933946308869295" lon="11.21335041261874"><ele>315.33333333333337</ele><time>2026-04-19T11:32:36.999Z</time></trkpt><trkpt lat="43.93377409480455" lon="11.213237422047433"><ele>316.6666666666667</ele><time>2026-04-19T11:32:38Z</time></trkpt><trkpt lat="43.93361798375513" lon="11.213124934243334"><ele>318.0</ele><time>2026-04-19T11:32:39Z</time></trkpt><trkpt lat="43.933486798720686" lon="11.212981156592278"><ele>312.3333333333333</ele><time>2026-04-19T11:32:40Z</time></trkpt><trkpt lat="43.933362095931194" lon="11.21283267781894"><ele>306.66666666666663</ele><time>2026-04-19T11:32:41Z</time></trkpt><trkpt lat="43.933239607484985" lon="11.212709745823865"><ele>301.0</ele><time>2026-04-19T11:32:42Z</time></trkpt><trkpt lat="43.933135608272664" lon="11.212580336195401"><ele>301.0</ele><time>2026-04-19T11:32:43Z</time></trkpt><trkpt lat="43.933017694165564" lon="11.21248814710519"><ele>301.0</ele><time>2026-04-19T11:32:44Z</time></trkpt><trkpt lat="43.932876774790024" lon="11.212483185611903"><ele>301.0</ele><time>2026-04-19T11:32:45Z</time></trkpt><trkpt lat="43.932735457490224" lon="11.212501071307852"><ele>301.0</ele><time>2026-04-19T11:32:46Z</time></trkpt><trkpt lat="43.932608636757394" lon="11.212530147553831"><ele>303.0</ele><time>2026-04-19T11:32:47Z</time></trkpt><trkpt lat="43.93246499602456" lon="11.212494278758323"><ele>305.0</ele><time>2026-04-19T11:32:48Z</time></trkpt><trkpt lat="43.93235876653436" lon="11.21234775013013"><ele>307.0</ele><time>2026-04-19T11:32:49Z</time></trkpt><trkpt lat="43.93228334709135" lon="11.212176819682972"><ele>309.0</ele><time>2026-04-19T11:32:50Z</time></trkpt><trkpt lat="43.93218596618931" lon="11.212019130507542"><ele>298.6666666666667</ele><time>2026-04-19T11:32:51Z</time></trkpt><trkpt lat="43.93206157789303" lon="11.211859857504752"><ele>288.33333333333337</ele><time>2026-04-19T11:32:52Z</time></trkpt><trkpt lat="43.93193046920091" lon="11.21172155466637"><ele>278.0</ele><time>2026-04-19T11:32:53Z</time></trkpt><trkpt lat="43.93177804026477" lon="11.211590781309539"><ele>273.33333333333337</ele><time>2026-04-19T11:32:54Z</time></trkpt><trkpt lat="43.93160257593319" lon="11.21145006207152"><ele>268.6666666666667</ele><time>2026-04-19T11:32:55Z</time></trkpt><trkpt lat="43.93142931455975" lon="11.211291349743947"><ele>264.0</ele><time>2026-04-19T11:32:56Z</time></trkpt><trkpt lat="43.93124772207358" lon="11.211140993386305"><ele>264.0</ele><time>2026-04-19T11:32:57Z</time></trkpt><trkpt lat="43.931067501625996" lon="11.211010334889348"><ele>264.0</ele><time>2026-04-19T11:32:58Z</time></trkpt><trkpt lat="43.93088855063323" lon="11.210892066713656"><ele>264.0</ele><time>2026-04-19T11:32:59Z</time></trkpt><trkpt lat="43.93070650312151" lon="11.210775735885184"><ele>259.3333333333333</ele><time>2026-04-19T11:33:00Z</time></trkpt><trkpt lat="43.93052333994762" lon="11.210677111764737"><ele>254.66666666666666</ele><time>2026-04-19T11:33:01Z</time></trkpt><trkpt lat="43.930346026748744" lon="11.210565230420498"><ele>250.0</ele><time>2026-04-19T11:33:02Z</time></trkpt><trkpt lat="43.930173972119064" lon="11.210449735343545"><ele>254.0</ele><time>2026-04-19T11:33:03Z</time></trkpt><trkpt lat="43.930017928019176" lon="11.210300898602226"><ele>258.0</ele><time>2026-04-19T11:33:04Z</time></trkpt><trkpt lat="43.92988212734836" lon="11.210120571991125"><ele>262.0</ele><time>2026-04-19T11:33:05Z</time></trkpt><trkpt lat="43.92975277341227" lon="11.209923790214242"><ele>254.0</ele><time>2026-04-19T11:33:06Z</time></trkpt><trkpt lat="43.9296228003999" lon="11.209727760954152"><ele>246.0</ele><time>2026-04-19T11:33:07Z</time></trkpt><trkpt lat="43.929476737491264" lon="11.209555255989017"><ele>238.0</ele><time>2026-04-19T11:33:08Z</time></trkpt><trkpt lat="43.92934019171361" lon="11.209380108423007"><ele>235.0</ele><time>2026-04-19T11:33:09Z</time></trkpt><trkpt lat="43.929189979964676" lon="11.209224257550073"><ele>232.0</ele><time>2026-04-19T11:33:10Z</time></trkpt><trkpt lat="43.929035484074575" lon="11.209084151989147"><ele>229.0</ele><time>2026-04-19T11:33:11Z</time></trkpt><trkpt lat="43.92888137017598" lon="11.208947244299507"><ele>229.0</ele><time>2026-04-19T11:33:12Z</time></trkpt><trkpt lat="43.92872540909031" lon="11.20881207991915"><ele>229.0</ele><time>2026-04-19T11:33:13Z</time></trkpt><trkpt lat="43.92856084049544" lon="11.208688874402577"><ele>229.0</ele><time>2026-04-19T11:33:14Z</time></trkpt><trkpt lat="43.92838772698057" lon="11.208598563831982"><ele>232.33333333333331</ele><time>2026-04-19T11:33:15Z</time></trkpt><trkpt lat="43.92821601458169" lon="11.208498582809586"><ele>235.66666666666669</ele><time>2026-04-19T11:33:16Z</time></trkpt><trkpt lat="43.928050907422595" lon="11.208392939390192"><ele>239.0</ele><time>2026-04-19T11:33:17Z</time></trkpt><trkpt lat="43.927888129409325" lon="11.20828651353747"><ele>239.0</ele><time>2026-04-19T11:33:18Z</time></trkpt><trkpt lat="43.92772260572457" lon="11.208185524328327"><ele>239.0</ele><time>2026-04-19T11:33:19Z</time></trkpt><trkpt lat="43.927562718115006" lon="11.208132737597573"><ele>239.0</ele><time>2026-04-19T11:33:20Z</time></trkpt><trkpt lat="43.927400962264535" lon="11.208090102268184"><ele>232.66666666666669</ele><time>2026-04-19T11:33:21Z</time></trkpt><trkpt lat="43.92723411695469" lon="11.208070019569504"><ele>226.33333333333331</ele><time>2026-04-19T11:33:22Z</time></trkpt><trkpt lat="43.92706920083235" lon="11.208054703012214"><ele>220.0</ele><time>2026-04-19T11:33:23Z</time></trkpt><trkpt lat="43.92690334467562" lon="11.208050742238607"><ele>219.0</ele><time>2026-04-19T11:33:24Z</time></trkpt><trkpt lat="43.92672457598881" lon="11.208040692269947"><ele>218.0</ele><time>2026-04-19T11:33:25Z</time></trkpt><trkpt lat="43.926549069900155" lon="11.208015176023729"><ele>217.0</ele><time>2026-04-19T11:33:26Z</time></trkpt><trkpt lat="43.9263663120909" lon="11.207952546024565"><ele>217.0</ele><time>2026-04-19T11:33:27Z</time></trkpt><trkpt lat="43.92618067964303" lon="11.207902063191431"><ele>217.0</ele><time>2026-04-19T11:33:28Z</time></trkpt><trkpt lat="43.92598917344923" lon="11.207851398464483"><ele>217.0</ele><time>2026-04-19T11:33:29Z</time></trkpt><trkpt lat="43.92580250986521" lon="11.207805742262574"><ele>216.33333333333331</ele><time>2026-04-19T11:33:30Z</time></trkpt><trkpt lat="43.92561280283023" lon="11.207796084804148"><ele>215.66666666666669</ele><time>2026-04-19T11:33:31Z</time></trkpt><trkpt lat="43.92543179612823" lon="11.207792434710747"><ele>215.0</ele><time>2026-04-19T11:33:32Z</time></trkpt><trkpt lat="43.92525628667469" lon="11.207808888806523"><ele>215.0</ele><time>2026-04-19T11:33:33Z</time></trkpt><trkpt lat="43.925089152519675" lon="11.207862230343496"><ele>215.0</ele><time>2026-04-19T11:33:34Z</time></trkpt><trkpt lat="43.924936668489984" lon="11.207947012803224"><ele>215.0</ele><time>2026-04-19T11:33:35Z</time></trkpt><trkpt lat="43.92479484469045" lon="11.208051567437508"><ele>218.0</ele><time>2026-04-19T11:33:36Z</time></trkpt><trkpt lat="43.92467807595504" lon="11.208195007455389"><ele>221.0</ele><time>2026-04-19T11:33:37Z</time></trkpt><trkpt lat="43.92454945468658" lon="11.208330831806675"><ele>224.0</ele><time>2026-04-19T11:33:38Z</time></trkpt><trkpt lat="43.92440607518646" lon="11.208421488341614"><ele>224.0</ele><time>2026-04-19T11:33:39Z</time></trkpt><trkpt lat="43.9242469985059" lon="11.20843664381611"><ele>224.0</ele><time>2026-04-19T11:33:40Z</time></trkpt><trkpt lat="43.92408177000817" lon="11.208433699624067"><ele>224.0</ele><time>2026-04-19T11:33:41Z</time></trkpt><trkpt lat="43.92391473399844" lon="11.208404116589824"><ele>216.66666666666669</ele><time>2026-04-19T11:33:42Z</time></trkpt><trkpt lat="43.923760945532834" lon="11.208320254149118"><ele>209.33333333333331</ele><time>2026-04-19T11:33:42.999Z</time></trkpt><trkpt lat="43.92362545210682" lon="11.208209331009064"><ele>202.0</ele><time>2026-04-19T11:33:43.999Z</time></trkpt><trkpt lat="43.923509936366166" lon="11.2080706828853"><ele>201.33333333333331</ele><time>2026-04-19T11:33:44.999Z</time></trkpt><trkpt lat="43.92343203430305" lon="11.207885040165175"><ele>200.66666666666669</ele><time>2026-04-19T11:33:45.999Z</time></trkpt><trkpt lat="43.92332262349922" lon="11.207739540020597"><ele>200.0</ele><time>2026-04-19T11:33:46.999Z</time></trkpt><trkpt lat="43.92325111043851" lon="11.207558916857183"><ele>200.0</ele><time>2026-04-19T11:33:47.999Z</time></trkpt><trkpt lat="43.923097904828396" lon="11.20738113735103"><ele>200.0</ele><time>2026-04-19T11:33:48.999Z</time></trkpt><trkpt lat="43.92298756061819" lon="11.20720282133613"><ele>200.0</ele><time>2026-04-19T11:33:49.999Z</time></trkpt><trkpt lat="43.92288996327619" lon="11.207045023647774"><ele>198.0</ele><time>2026-04-19T11:33:50.999Z</time></trkpt><trkpt lat="43.92280522358786" lon="11.206899187888137"><ele>196.0</ele><time>2026-04-19T11:33:51.999Z</time></trkpt><trkpt lat="43.92273024327318" lon="11.206747537313271"><ele>194.0</ele><time>2026-04-19T11:33:52.999Z</time></trkpt><trkpt lat="43.922663928122624" lon="11.206595364623436"><ele>192.0</ele><time>2026-04-19T11:33:53.999Z</time></trkpt><trkpt lat="43.92260315952609" lon="11.206436943059366"><ele>195.0</ele><time>2026-04-19T11:33:54.999Z</time></trkpt><trkpt lat="43.9225416970755" lon="11.206266527060814"><ele>198.0</ele><time>2026-04-19T11:33:55.999Z</time></trkpt><trkpt lat="43.92248435518145" lon="11.206089774005374"><ele>201.0</ele><time>2026-04-19T11:33:56.999Z</time></trkpt><trkpt lat="43.92242197780866" lon="11.205918301524974"><ele>204.0</ele><time>2026-04-19T11:33:57.999Z</time></trkpt><trkpt lat="43.922356230910346" lon="11.205738967734245"><ele>202.0</ele><time>2026-04-19T11:33:58.999Z</time></trkpt><trkpt lat="43.92229088464417" lon="11.205555820722928"><ele>200.0</ele><time>2026-04-19T11:33:59.999Z</time></trkpt><trkpt lat="43.92222292290232" lon="11.2053617161734"><ele>198.0</ele><time>2026-04-19T11:34:00.999Z</time></trkpt><trkpt lat="43.92214894956917" lon="11.205171687835003"><ele>198.0</ele><time>2026-04-19T11:34:01.999Z</time></trkpt><trkpt lat="43.92208062630724" lon="11.204973861088334"><ele>198.0</ele><time>2026-04-19T11:34:02.999Z</time></trkpt><trkpt lat="43.92201783033207" lon="11.204776276870472"><ele>198.0</ele><time>2026-04-19T11:34:03.999Z</time></trkpt><trkpt lat="43.921949156233" lon="11.204590046186933"><ele>196.0</ele><time>2026-04-19T11:34:04.999Z</time></trkpt><trkpt lat="43.92186601484683" lon="11.204410956540514"><ele>194.0</ele><time>2026-04-19T11:34:05.999Z</time></trkpt><trkpt lat="43.921755801576566" lon="11.204238095265081"><ele>192.0</ele><time>2026-04-19T11:34:06.999Z</time></trkpt><trkpt lat="43.921631952145376" lon="11.204070247125815"><ele>193.33333333333331</ele><time>2026-04-19T11:34:07.999Z</time></trkpt><trkpt lat="43.9215140934142" lon="11.203905536677318"><ele>194.66666666666666</ele><time>2026-04-19T11:34:08.999Z</time></trkpt><trkpt lat="43.92136590320104" lon="11.203789029715583"><ele>196.0</ele><time>2026-04-19T11:34:09.999Z</time></trkpt><trkpt lat="43.9212132088837" lon="11.203705192687261"><ele>196.0</ele><time>2026-04-19T11:34:10.999Z</time></trkpt><trkpt lat="43.9210718263496" lon="11.203618970814638"><ele>196.0</ele><time>2026-04-19T11:34:11.999Z</time></trkpt><trkpt lat="43.92093060147342" lon="11.203519144437534"><ele>196.0</ele><time>2026-04-19T11:34:12.999Z</time></trkpt><trkpt lat="43.92081016911126" lon="11.203374695252807"><ele>196.75</ele><time>2026-04-19T11:34:13.999Z</time></trkpt><trkpt lat="43.92070042818262" lon="11.203239246897361"><ele>197.5</ele><time>2026-04-19T11:34:14.999Z</time></trkpt><trkpt lat="43.92061393473303" lon="11.203108904887406"><ele>198.25</ele><time>2026-04-19T11:34:15.999Z</time></trkpt><trkpt lat="43.92051234438047" lon="11.202934566277326"><ele>199.0</ele><time>2026-04-19T11:34:16.999Z</time></trkpt><trkpt lat="43.920441365279416" lon="11.202757083679055"><ele>199.0</ele><time>2026-04-19T11:34:17.999Z</time></trkpt><trkpt lat="43.920369605907254" lon="11.20257253961909"><ele>199.0</ele><time>2026-04-19T11:34:18.999Z</time></trkpt><trkpt lat="43.92030127345597" lon="11.202398173656515"><ele>199.0</ele><time>2026-04-19T11:34:19.999Z</time></trkpt><trkpt lat="43.92023063195957" lon="11.202223315900378"><ele>199.0</ele><time>2026-04-19T11:34:20.999Z</time></trkpt><trkpt lat="43.92014931285332" lon="11.20202892319194"><ele>198.66666666666666</ele><time>2026-04-19T11:34:21.999Z</time></trkpt><trkpt lat="43.920042837276924" lon="11.201818855059857"><ele>198.33333333333331</ele><time>2026-04-19T11:34:22.999Z</time></trkpt><trkpt lat="43.9199105373281" lon="11.201598768986626"><ele>198.0</ele><time>2026-04-19T11:34:23.999Z</time></trkpt><trkpt lat="43.91976792899256" lon="11.20136809057495"><ele>191.5</ele><time>2026-04-19T11:34:24.999Z</time></trkpt><trkpt lat="43.919619864549475" lon="11.201128586546131"><ele>185.0</ele><time>2026-04-19T11:34:25.999Z</time></trkpt><trkpt lat="43.919457948916914" lon="11.200905010858271"><ele>185.0</ele><time>2026-04-19T11:34:26.999Z</time></trkpt><trkpt lat="43.91930495491467" lon="11.200673080908684"><ele>185.0</ele><time>2026-04-19T11:34:27.999Z</time></trkpt><trkpt lat="43.919142538974214" lon="11.200466698687361"><ele>185.0</ele><time>2026-04-19T11:34:28.999Z</time></trkpt><trkpt lat="43.91899074696899" lon="11.200267934701955"><ele>184.33333333333331</ele><time>2026-04-19T11:34:29.999Z</time></trkpt><trkpt lat="43.91887300726571" lon="11.200038310248685"><ele>183.66666666666666</ele><time>2026-04-19T11:34:30.999Z</time></trkpt><trkpt lat="43.91875611240938" lon="11.1998137167291"><ele>183.0</ele><time>2026-04-19T11:34:31.999Z</time></trkpt><trkpt lat="43.918630667305386" lon="11.199593553402059"><ele>183.33333333333334</ele><time>2026-04-19T11:34:32.999Z</time></trkpt><trkpt lat="43.918504967098286" lon="11.199366737775911"><ele>183.66666666666669</ele><time>2026-04-19T11:34:33.999Z</time></trkpt><trkpt lat="43.91837087143052" lon="11.19915285618507"><ele>184.0</ele><time>2026-04-19T11:34:34.999Z</time></trkpt><trkpt lat="43.91821540092612" lon="11.198959183046126"><ele>179.66666666666669</ele><time>2026-04-19T11:34:35.999Z</time></trkpt><trkpt lat="43.918032237972945" lon="11.198796345501698"><ele>175.33333333333334</ele><time>2026-04-19T11:34:36.999Z</time></trkpt><trkpt lat="43.91783121744142" lon="11.198654185894824"><ele>171.0</ele><time>2026-04-19T11:34:37.999Z</time></trkpt><trkpt lat="43.91761909280669" lon="11.198513076613253"><ele>172.5</ele><time>2026-04-19T11:34:38.999Z</time></trkpt><trkpt lat="43.917410847296814" lon="11.198366354903735"><ele>174.0</ele><time>2026-04-19T11:34:39.999Z</time></trkpt><trkpt lat="43.917200998352115" lon="11.19821967788217"><ele>173.5</ele><time>2026-04-19T11:34:40.999Z</time></trkpt><trkpt lat="43.91699085725178" lon="11.198083150167465"><ele>173.0</ele><time>2026-04-19T11:34:41.999Z</time></trkpt><trkpt lat="43.91678194002476" lon="11.19794437250719"><ele>171.0</ele><time>2026-04-19T11:34:42.999Z</time></trkpt><trkpt lat="43.91657428026544" lon="11.197809466766344"><ele>169.0</ele><time>2026-04-19T11:34:44Z</time></trkpt><trkpt lat="43.916370916177996" lon="11.197692145292406"><ele>167.0</ele><time>2026-04-19T11:34:45Z</time></trkpt><trkpt lat="43.9161705590667" lon="11.197579776327478"><ele>167.0</ele><time>2026-04-19T11:34:46Z</time></trkpt><trkpt lat="43.915971253296256" lon="11.197458977564263"><ele>167.0</ele><time>2026-04-19T11:34:47Z</time></trkpt><trkpt lat="43.9157707796905" lon="11.197336062260312"><ele>167.0</ele><time>2026-04-19T11:34:48Z</time></trkpt><trkpt lat="43.91557749758848" lon="11.197214736197939"><ele>165.33333333333331</ele><time>2026-04-19T11:34:49Z</time></trkpt><trkpt lat="43.91539517250531" lon="11.197095343087614"><ele>163.66666666666666</ele><time>2026-04-19T11:34:50Z</time></trkpt><trkpt lat="43.91521972880933" lon="11.196977575877861"><ele>162.0</ele><time>2026-04-19T11:34:51Z</time></trkpt><trkpt lat="43.91504758676413" lon="11.196863333687258"><ele>162.0</ele><time>2026-04-19T11:34:52Z</time></trkpt><trkpt lat="43.91488297766183" lon="11.196751640245576"><ele>162.0</ele><time>2026-04-19T11:34:53Z</time></trkpt><trkpt lat="43.91472309626179" lon="11.19664363696682"><ele>162.0</ele><time>2026-04-19T11:34:54Z</time></trkpt><trkpt lat="43.914561798695146" lon="11.196532294002711"><ele>161.0</ele><time>2026-04-19T11:34:55Z</time></trkpt><trkpt lat="43.91441079378194" lon="11.19641394515508"><ele>160.0</ele><time>2026-04-19T11:34:56Z</time></trkpt><trkpt lat="43.914259255735736" lon="11.19628630807336"><ele>159.0</ele><time>2026-04-19T11:34:57Z</time></trkpt><trkpt lat="43.91411795328414" lon="11.196139152671385"><ele>159.0</ele><time>2026-04-19T11:34:58Z</time></trkpt><trkpt lat="43.913982281504204" lon="11.195971484815315"><ele>159.0</ele><time>2026-04-19T11:34:59Z</time></trkpt><trkpt lat="43.91385753620882" lon="11.195800977249485"><ele>159.0</ele><time>2026-04-19T11:35:00Z</time></trkpt><trkpt lat="43.913741787427426" lon="11.195633837753519"><ele>158.66666666666666</ele><time>2026-04-19T11:35:01Z</time></trkpt><trkpt lat="43.91362615801549" lon="11.195477530604078"><ele>158.33333333333331</ele><time>2026-04-19T11:35:02Z</time></trkpt><trkpt lat="43.91350842498696" lon="11.195330820455032"><ele>158.0</ele><time>2026-04-19T11:35:03Z</time></trkpt><trkpt lat="43.91338384508934" lon="11.195208295645255"><ele>158.0</ele><time>2026-04-19T11:35:04Z</time></trkpt><trkpt lat="43.91324969798808" lon="11.195100185324252"><ele>158.0</ele><time>2026-04-19T11:35:05Z</time></trkpt><trkpt lat="43.91311038190077" lon="11.194992805832902"><ele>158.0</ele><time>2026-04-19T11:35:06Z</time></trkpt><trkpt lat="43.91296671426369" lon="11.194897636743304"><ele>156.0</ele><time>2026-04-19T11:35:07Z</time></trkpt><trkpt lat="43.91281529921692" lon="11.194802302541765"><ele>154.0</ele><time>2026-04-19T11:35:08Z</time></trkpt><trkpt lat="43.91265618032175" lon="11.194694549830013"><ele>152.0</ele><time>2026-04-19T11:35:09Z</time></trkpt><trkpt lat="43.91248351515359" lon="11.194571528589027"><ele>152.0</ele><time>2026-04-19T11:35:10Z</time></trkpt><trkpt lat="43.91230415101302" lon="11.19443840409442"><ele>152.0</ele><time>2026-04-19T11:35:11Z</time></trkpt><trkpt lat="43.912111590889204" lon="11.194298715274368"><ele>152.0</ele><time>2026-04-19T11:35:12Z</time></trkpt><trkpt lat="43.9119137617504" lon="11.19415850667506"><ele>151.0</ele><time>2026-04-19T11:35:13Z</time></trkpt><trkpt lat="43.911709243526154" lon="11.194020769844279"><ele>150.0</ele><time>2026-04-19T11:35:14Z</time></trkpt><trkpt lat="43.91150241526221" lon="11.19387629641249"><ele>150.0</ele><time>2026-04-19T11:35:15Z</time></trkpt><trkpt lat="43.911291808384235" lon="11.193728831029595"><ele>150.0</ele><time>2026-04-19T11:35:16Z</time></trkpt><trkpt lat="43.91107957075051" lon="11.193582788450005"><ele>152.5</ele><time>2026-04-19T11:35:17Z</time></trkpt><trkpt lat="43.9108654237737" lon="11.193439612290925"><ele>155.0</ele><time>2026-04-19T11:35:18Z</time></trkpt><trkpt lat="43.91064652663629" lon="11.193290890807235"><ele>151.0</ele><time>2026-04-19T11:35:19Z</time></trkpt><trkpt lat="43.910427258136046" lon="11.193143367851349"><ele>147.0</ele><time>2026-04-19T11:35:20Z</time></trkpt><trkpt lat="43.91020798467569" lon="11.19299892826292"><ele>145.5</ele><time>2026-04-19T11:35:21Z</time></trkpt><trkpt lat="43.90999681706612" lon="11.19285826111749"><ele>144.0</ele><time>2026-04-19T11:35:22Z</time></trkpt><trkpt lat="43.90979896517288" lon="11.192721016287306"><ele>144.0</ele><time>2026-04-19T11:35:23Z</time></trkpt><trkpt lat="43.909617510646434" lon="11.19259150430657"><ele>144.0</ele><time>2026-04-19T11:35:24Z</time></trkpt><trkpt lat="43.909450411544" lon="11.192474383984074"><ele>144.0</ele><time>2026-04-19T11:35:25Z</time></trkpt><trkpt lat="43.9092822437284" lon="11.192370350372617"><ele>143.33333333333334</ele><time>2026-04-19T11:35:26Z</time></trkpt><trkpt lat="43.90911370923476" lon="11.192289916760453"><ele>142.66666666666669</ele><time>2026-04-19T11:35:27Z</time></trkpt><trkpt lat="43.90893678679017" lon="11.192228277987837"><ele>142.0</ele><time>2026-04-19T11:35:28Z</time></trkpt><trkpt lat="43.90874737568815" lon="11.192195035448721"><ele>142.0</ele><time>2026-04-19T11:35:29Z</time></trkpt><trkpt lat="43.90855413820855" lon="11.192146606940474"><ele>142.0</ele><time>2026-04-19T11:35:30Z</time></trkpt><trkpt lat="43.90836699820182" lon="11.19210400769905"><ele>142.0</ele><time>2026-04-19T11:35:31Z</time></trkpt><trkpt lat="43.90819084160104" lon="11.192045003783436"><ele>141.66666666666669</ele><time>2026-04-19T11:35:32Z</time></trkpt><trkpt lat="43.908028377321756" lon="11.191969999745528"><ele>141.33333333333334</ele><time>2026-04-19T11:35:33Z</time></trkpt><trkpt lat="43.90786949113883" lon="11.191869410231623"><ele>141.0</ele><time>2026-04-19T11:35:34Z</time></trkpt><trkpt lat="43.907705201873185" lon="11.191745595867028"><ele>141.66666666666666</ele><time>2026-04-19T11:35:35Z</time></trkpt><trkpt lat="43.90753694078932" lon="11.191607455408896"><ele>142.33333333333331</ele><time>2026-04-19T11:35:36Z</time></trkpt><trkpt lat="43.90736413875959" lon="11.191483134032762"><ele>143.0</ele><time>2026-04-19T11:35:37Z</time></trkpt><trkpt lat="43.90720756630371" lon="11.191348067811768"><ele>141.0</ele><time>2026-04-19T11:35:38Z</time></trkpt><trkpt lat="43.907046946185" lon="11.191215862551877"><ele>139.0</ele><time>2026-04-19T11:35:39Z</time></trkpt><trkpt lat="43.90688761864334" lon="11.19109511387481"><ele>137.0</ele><time>2026-04-19T11:35:40Z</time></trkpt><trkpt lat="43.90672131771109" lon="11.190974103392822"><ele>136.33333333333331</ele><time>2026-04-19T11:35:40.999Z</time></trkpt><trkpt lat="43.90655078362972" lon="11.190897568493698"><ele>135.66666666666666</ele><time>2026-04-19T11:35:41.999Z</time></trkpt><trkpt lat="43.90638512673318" lon="11.190815570493871"><ele>135.0</ele><time>2026-04-19T11:35:42.999Z</time></trkpt><trkpt lat="43.906233520853796" lon="11.190703044153784"><ele>134.0</ele><time>2026-04-19T11:35:43.999Z</time></trkpt><trkpt lat="43.90608596386277" lon="11.190581215425764"><ele>133.0</ele><time>2026-04-19T11:35:44.999Z</time></trkpt><trkpt lat="43.90594095174232" lon="11.190461772347541"><ele>132.0</ele><time>2026-04-19T11:35:45.999Z</time></trkpt><trkpt lat="43.905794702671024" lon="11.190339097750428"><ele>131.66666666666666</ele><time>2026-04-19T11:35:46.999Z</time></trkpt><trkpt lat="43.90563435750063" lon="11.190201883941603"><ele>131.33333333333331</ele><time>2026-04-19T11:35:47.999Z</time></trkpt><trkpt lat="43.905459637902844" lon="11.190054627933552"><ele>131.0</ele><time>2026-04-19T11:35:48.999Z</time></trkpt><trkpt lat="43.90527457616191" lon="11.189898030643453"><ele>129.5</ele><time>2026-04-19T11:35:49.999Z</time></trkpt><trkpt lat="43.905069556164584" lon="11.189747560418828"><ele>128.0</ele><time>2026-04-19T11:35:50.999Z</time></trkpt><trkpt lat="43.90488613015596" lon="11.189582577926785"><ele>128.0</ele><time>2026-04-19T11:35:51.999Z</time></trkpt><trkpt lat="43.90471401126792" lon="11.189440418209902"><ele>128.0</ele><time>2026-04-19T11:35:52.999Z</time></trkpt><trkpt lat="43.90454249480123" lon="11.18931804784148"><ele>128.0</ele><time>2026-04-19T11:35:53.999Z</time></trkpt><trkpt lat="43.90435482885796" lon="11.189241004056784"><ele>128.0</ele><time>2026-04-19T11:35:54.999Z</time></trkpt><trkpt lat="43.90414379486205" lon="11.189213986611406"><ele>128.0</ele><time>2026-04-19T11:35:55.999Z</time></trkpt><trkpt lat="43.903921151832705" lon="11.189220405827678"><ele>128.0</ele><time>2026-04-19T11:35:56.999Z</time></trkpt><trkpt lat="43.90369868151806" lon="11.189210784507367"><ele>128.0</ele><time>2026-04-19T11:35:57.999Z</time></trkpt><trkpt lat="43.90347453291383" lon="11.189191138189658"><ele>128.0</ele><time>2026-04-19T11:35:58.999Z</time></trkpt><trkpt lat="43.903244993761795" lon="11.189165916444162"><ele>126.5</ele><time>2026-04-19T11:35:59.999Z</time></trkpt><trkpt lat="43.90301612049119" lon="11.18915166681927"><ele>125.0</ele><time>2026-04-19T11:36:00.999Z</time></trkpt><trkpt lat="43.90276319054932" lon="11.189151503685752"><ele>124.0</ele><time>2026-04-19T11:36:01.999Z</time></trkpt><trkpt lat="43.902498287541455" lon="11.189148093554433"><ele>123.0</ele><time>2026-04-19T11:36:02.999Z</time></trkpt><trkpt lat="43.902229048534686" lon="11.189140031999372"><ele>123.0</ele><time>2026-04-19T11:36:03.999Z</time></trkpt><trkpt lat="43.90198572757868" lon="11.189137524372606"><ele>123.0</ele><time>2026-04-19T11:36:04.999Z</time></trkpt><trkpt lat="43.901755492841744" lon="11.189135023642603"><ele>122.5</ele><time>2026-04-19T11:36:05.999Z</time></trkpt><trkpt lat="43.90151958435391" lon="11.189124954757354"><ele>122.0</ele><time>2026-04-19T11:36:06.999Z</time></trkpt><trkpt lat="43.9012773150124" lon="11.189063332957412"><ele>122.0</ele><time>2026-04-19T11:36:07.999Z</time></trkpt><trkpt lat="43.90103504885534" lon="11.189012556322098"><ele>122.0</ele><time>2026-04-19T11:36:08.999Z</time></trkpt><trkpt lat="43.90080956249135" lon="11.188966060251834"><ele>121.66666666666666</ele><time>2026-04-19T11:36:09.999Z</time></trkpt><trkpt lat="43.900592677295826" lon="11.188908986964744"><ele>121.33333333333334</ele><time>2026-04-19T11:36:10.999Z</time></trkpt><trkpt lat="43.90039410935361" lon="11.188783880701704"><ele>121.0</ele><time>2026-04-19T11:36:11.999Z</time></trkpt><trkpt lat="43.900192240285115" lon="11.18862504835712"><ele>120.66666666666667</ele><time>2026-04-19T11:36:12.999Z</time></trkpt><trkpt lat="43.899987104243635" lon="11.188481092806471"><ele>120.33333333333334</ele><time>2026-04-19T11:36:13.999Z</time></trkpt><trkpt lat="43.899804312053654" lon="11.188331437175655"><ele>120.0</ele><time>2026-04-19T11:36:14.999Z</time></trkpt><trkpt lat="43.899629575207406" lon="11.18819551658709"><ele>119.33333333333334</ele><time>2026-04-19T11:36:15.999Z</time></trkpt><trkpt lat="43.89946352171063" lon="11.188068563329017"><ele>118.66666666666667</ele><time>2026-04-19T11:36:16.999Z</time></trkpt><trkpt lat="43.89931214356618" lon="11.18795660884508"><ele>118.0</ele><time>2026-04-19T11:36:17.999Z</time></trkpt><trkpt lat="43.89918026431172" lon="11.187883934875465"><ele>117.60000000000001</ele><time>2026-04-19T11:36:18.999Z</time></trkpt><trkpt lat="43.8990594980078" lon="11.187822293479893"><ele>117.20000000000002</ele><time>2026-04-19T11:36:19.999Z</time></trkpt><trkpt lat="43.898954360721284" lon="11.187749734810764"><ele>116.8</ele><time>2026-04-19T11:36:20.999Z</time></trkpt><trkpt lat="43.89887982221603" lon="11.187761414754466"><ele>116.4</ele><time>2026-04-19T11:36:21.999Z</time></trkpt><trkpt lat="43.89881312482824" lon="11.187730990884827"><ele>116.0</ele><time>2026-04-19T11:36:22.999Z</time></trkpt><trkpt lat="43.89874053423668" lon="11.18781118547297"><ele>116.0</ele><time>2026-04-19T11:36:23.999Z</time></trkpt><trkpt lat="43.89867366184156" lon="11.187941518247532"><ele>116.0</ele><time>2026-04-19T11:36:24.999Z</time></trkpt><trkpt lat="43.8985879399328" lon="11.188084076983127"><ele>116.0</ele><time>2026-04-19T11:36:25.999Z</time></trkpt><trkpt lat="43.89844705323691" lon="11.188197421558726"><ele>116.0</ele><time>2026-04-19T11:36:26.999Z</time></trkpt><trkpt lat="43.89827145247235" lon="11.188279001145753"><ele>118.33333333333333</ele><time>2026-04-19T11:36:27.999Z</time></trkpt><trkpt lat="43.89807598457884" lon="11.188319391760725"><ele>120.66666666666666</ele><time>2026-04-19T11:36:28.999Z</time></trkpt><trkpt lat="43.89787323413665" lon="11.188311672972654"><ele>123.0</ele><time>2026-04-19T11:36:29.999Z</time></trkpt><trkpt lat="43.897655855160025" lon="11.188271065832588"><ele>120.5</ele><time>2026-04-19T11:36:30.999Z</time></trkpt><trkpt lat="43.897418354654306" lon="11.188211144582507"><ele>118.0</ele><time>2026-04-19T11:36:31.999Z</time></trkpt><trkpt lat="43.89716409726473" lon="11.188138608088606"><ele>118.0</ele><time>2026-04-19T11:36:32.999Z</time></trkpt><trkpt lat="43.89689367175192" lon="11.188068682755558"><ele>118.0</ele><time>2026-04-19T11:36:33.999Z</time></trkpt><trkpt lat="43.89661097690225" lon="11.188001303985015"><ele>119.5</ele><time>2026-04-19T11:36:34.999Z</time></trkpt><trkpt lat="43.89632995583191" lon="11.18791509602273"><ele>121.0</ele><time>2026-04-19T11:36:35.999Z</time></trkpt><trkpt lat="43.89605708771778" lon="11.187806550517909"><ele>124.5</ele><time>2026-04-19T11:36:36.999Z</time></trkpt><trkpt lat="43.895796823221154" lon="11.187669385484758"><ele>128.0</ele><time>2026-04-19T11:36:37.999Z</time></trkpt><trkpt lat="43.89554032924276" lon="11.187512492397408"><ele>128.0</ele><time>2026-04-19T11:36:38.999Z</time></trkpt><trkpt lat="43.89528938669046" lon="11.187331935851285"><ele>128.0</ele><time>2026-04-19T11:36:39.999Z</time></trkpt><trkpt lat="43.895053143194495" lon="11.187126255627883"><ele>128.0</ele><time>2026-04-19T11:36:40.999Z</time></trkpt><trkpt lat="43.89482494943952" lon="11.186897244022079"><ele>128.0</ele><time>2026-04-19T11:36:41.999Z</time></trkpt><trkpt lat="43.89460343004844" lon="11.186652114117283"><ele>125.0</ele><time>2026-04-19T11:36:42.999Z</time></trkpt><trkpt lat="43.89439426209973" lon="11.186385747350139"><ele>122.0</ele><time>2026-04-19T11:36:43.999Z</time></trkpt><trkpt lat="43.89419937629913" lon="11.186100306487498"><ele>122.0</ele><time>2026-04-19T11:36:44.999Z</time></trkpt><trkpt lat="43.894011913949036" lon="11.185793896876557"><ele>122.0</ele><time>2026-04-19T11:36:45.999Z</time></trkpt><trkpt lat="43.89382825230738" lon="11.185494070902026"><ele>118.0</ele><time>2026-04-19T11:36:46.999Z</time></trkpt><trkpt lat="43.893651871385124" lon="11.185214453593579"><ele>114.0</ele><time>2026-04-19T11:36:47.999Z</time></trkpt><trkpt lat="43.893481932208765" lon="11.18494557863955"><ele>112.5</ele><time>2026-04-19T11:36:48.999Z</time></trkpt><trkpt lat="43.89332017568906" lon="11.18468913513435"><ele>111.0</ele><time>2026-04-19T11:36:50Z</time></trkpt><trkpt lat="43.89316589248106" lon="11.184449696989708"><ele>111.0</ele><time>2026-04-19T11:36:51Z</time></trkpt><trkpt lat="43.893020329455744" lon="11.18422864088029"><ele>111.0</ele><time>2026-04-19T11:36:52Z</time></trkpt><trkpt lat="43.89287454459464" lon="11.18401769022845"><ele>111.0</ele><time>2026-04-19T11:36:53Z</time></trkpt><trkpt lat="43.89273223859197" lon="11.183827194315754"><ele>110.66666666666666</ele><time>2026-04-19T11:36:54Z</time></trkpt><trkpt lat="43.89260176912094" lon="11.18366854323687"><ele>110.33333333333333</ele><time>2026-04-19T11:36:55Z</time></trkpt><trkpt lat="43.89247470875726" lon="11.183531835546686"><ele>110.0</ele><time>2026-04-19T11:36:56Z</time></trkpt><trkpt lat="43.89234954851443" lon="11.183421000123367"><ele>110.0</ele><time>2026-04-19T11:36:57Z</time></trkpt><trkpt lat="43.89224087542433" lon="11.183312924418262"><ele>110.0</ele><time>2026-04-19T11:36:58Z</time></trkpt><trkpt lat="43.892162223859266" lon="11.183208695174963"><ele>110.0</ele><time>2026-04-19T11:36:59Z</time></trkpt><trkpt lat="43.89205740963357" lon="11.183141236753299"><ele>110.0</ele><time>2026-04-19T11:37:00Z</time></trkpt><trkpt lat="43.89191309576816" lon="11.18307075982964"><ele>108.0</ele><time>2026-04-19T11:37:01Z</time></trkpt><trkpt lat="43.891757714365774" lon="11.1829902907532"><ele>106.0</ele><time>2026-04-19T11:37:02Z</time></trkpt><trkpt lat="43.891584598812614" lon="11.182899801278161"><ele>104.0</ele><time>2026-04-19T11:37:03Z</time></trkpt><trkpt lat="43.8914010869658" lon="11.18282075087577"><ele>104.0</ele><time>2026-04-19T11:37:04Z</time></trkpt><trkpt lat="43.89119528787444" lon="11.182761037962694"><ele>104.0</ele><time>2026-04-19T11:37:05Z</time></trkpt><trkpt lat="43.890969406939135" lon="11.182701330562857"><ele>104.0</ele><time>2026-04-19T11:37:06Z</time></trkpt><trkpt lat="43.89073034129306" lon="11.182645254661718"><ele>103.5</ele><time>2026-04-19T11:37:07Z</time></trkpt><trkpt lat="43.890484984843845" lon="11.182600462054815"><ele>103.0</ele><time>2026-04-19T11:37:08Z</time></trkpt><trkpt lat="43.890218197885595" lon="11.182577365182413"><ele>102.0</ele><time>2026-04-19T11:37:09Z</time></trkpt><trkpt lat="43.88994049034965" lon="11.182562746770305"><ele>101.0</ele><time>2026-04-19T11:37:10Z</time></trkpt><trkpt lat="43.88968016900317" lon="11.182544473860137"><ele>101.0</ele><time>2026-04-19T11:37:11Z</time></trkpt><trkpt lat="43.88943231798301" lon="11.18253057546776"><ele>101.0</ele><time>2026-04-19T11:37:12Z</time></trkpt><trkpt lat="43.889192229762244" lon="11.18251420112375"><ele>102.0</ele><time>2026-04-19T11:37:13Z</time></trkpt><trkpt lat="43.88895483568536" lon="11.18248173600215"><ele>103.0</ele><time>2026-04-19T11:37:14Z</time></trkpt><trkpt lat="43.88871377629273" lon="11.182439097244991"><ele>103.0</ele><time>2026-04-19T11:37:15Z</time></trkpt><trkpt lat="43.88846891581912" lon="11.18240139860197"><ele>103.0</ele><time>2026-04-19T11:37:16Z</time></trkpt><trkpt lat="43.88822380289494" lon="11.182351723568997"><ele>98.5</ele><time>2026-04-19T11:37:17Z</time></trkpt><trkpt lat="43.887979364828794" lon="11.182284128742118"><ele>94.0</ele><time>2026-04-19T11:37:18Z</time></trkpt><trkpt lat="43.887728058944" lon="11.182220958992925"><ele>94.0</ele><time>2026-04-19T11:37:19Z</time></trkpt><trkpt lat="43.88748525024357" lon="11.182169338485739"><ele>94.0</ele><time>2026-04-19T11:37:20Z</time></trkpt><trkpt lat="43.88725712137482" lon="11.18212005552966"><ele>94.0</ele><time>2026-04-19T11:37:21Z</time></trkpt><trkpt lat="43.88702300931159" lon="11.182062995998029"><ele>94.0</ele><time>2026-04-19T11:37:22Z</time></trkpt><trkpt lat="43.88679201614063" lon="11.181990954781856"><ele>94.0</ele><time>2026-04-19T11:37:23Z</time></trkpt><trkpt lat="43.88657428469721" lon="11.181875214312983"><ele>94.0</ele><time>2026-04-19T11:37:24Z</time></trkpt><trkpt lat="43.886370381216366" lon="11.181725772216812"><ele>94.0</ele><time>2026-04-19T11:37:25Z</time></trkpt><trkpt lat="43.8861783422302" lon="11.18157802745179"><ele>94.0</ele><time>2026-04-19T11:37:26Z</time></trkpt><trkpt lat="43.88599801610482" lon="11.181440821062802"><ele>94.0</ele><time>2026-04-19T11:37:27Z</time></trkpt><trkpt lat="43.885821018591884" lon="11.181322957468018"><ele>93.0</ele><time>2026-04-19T11:37:28Z</time></trkpt><trkpt lat="43.8856435448658" lon="11.181221039384145"><ele>92.0</ele><time>2026-04-19T11:37:29Z</time></trkpt><trkpt lat="43.88546694692797" lon="11.181141778041246"><ele>91.0</ele><time>2026-04-19T11:37:30Z</time></trkpt><trkpt lat="43.8852840050807" lon="11.181079428027221"><ele>91.0</ele><time>2026-04-19T11:37:31Z</time></trkpt><trkpt lat="43.88510457964316" lon="11.181030501668937"><ele>91.0</ele><time>2026-04-19T11:37:32Z</time></trkpt><trkpt lat="43.884937048987716" lon="11.180993069240925"><ele>91.0</ele><time>2026-04-19T11:37:33Z</time></trkpt><trkpt lat="43.88477601923495" lon="11.180966687069208"><ele>91.0</ele><time>2026-04-19T11:37:34Z</time></trkpt><trkpt lat="43.88462361112247" lon="11.180957674228779"><ele>91.0</ele><time>2026-04-19T11:37:35Z</time></trkpt><trkpt lat="43.8844871687047" lon="11.180926128685226"><ele>91.0</ele><time>2026-04-19T11:37:36Z</time></trkpt><trkpt lat="43.88436065205485" lon="11.180914177496454"><ele>91.0</ele><time>2026-04-19T11:37:37Z</time></trkpt><trkpt lat="43.884241755413406" lon="11.180902946125546"><ele>91.0</ele><time>2026-04-19T11:37:38Z</time></trkpt><trkpt lat="43.884145456431064" lon="11.180893849397739"><ele>91.0</ele><time>2026-04-19T11:37:39Z</time></trkpt><trkpt lat="43.88405824619246" lon="11.180906697531487"><ele>91.0</ele><time>2026-04-19T11:37:40Z</time></trkpt><trkpt lat="43.88397617567493" lon="11.18087702398914"><ele>91.0</ele><time>2026-04-19T11:37:41Z</time></trkpt><trkpt lat="43.88389758526082" lon="11.180866332069764"><ele>91.0</ele><time>2026-04-19T11:37:42Z</time></trkpt><trkpt lat="43.88382289427289" lon="11.180868072775926"><ele>91.0</ele><time>2026-04-19T11:37:43Z</time></trkpt><trkpt lat="43.883760585477745" lon="11.180828412723608"><ele>91.0</ele><time>2026-04-19T11:37:44Z</time></trkpt><trkpt lat="43.88369950093141" lon="11.180767082607513"><ele>91.0</ele><time>2026-04-19T11:37:45Z</time></trkpt><trkpt lat="43.88364119136273" lon="11.18070392426913"><ele>91.0</ele><time>2026-04-19T11:37:46Z</time></trkpt><trkpt lat="43.88355935613854" lon="11.180669420440022"><ele>91.0</ele><time>2026-04-19T11:37:47Z</time></trkpt><trkpt lat="43.883471825367856" lon="11.180675125311115"><ele>91.0</ele><time>2026-04-19T11:37:48Z</time></trkpt><trkpt lat="43.883383959789256" lon="11.18070727615515"><ele>91.0</ele><time>2026-04-19T11:37:49Z</time></trkpt><trkpt lat="43.88330169023468" lon="11.180724092456416"><ele>91.0</ele><time>2026-04-19T11:37:50Z</time></trkpt><trkpt lat="43.88320505296666" lon="11.180715602400086"><ele>91.0</ele><time>2026-04-19T11:37:51Z</time></trkpt><trkpt lat="43.88310355900134" lon="11.180646957996426"><ele>91.0</ele><time>2026-04-19T11:37:52Z</time></trkpt><trkpt lat="43.88298417442851" lon="11.180591937313864"><ele>91.0</ele><time>2026-04-19T11:37:53Z</time></trkpt><trkpt lat="43.882863376011784" lon="11.180535082353105"><ele>91.0</ele><time>2026-04-19T11:37:54Z</time></trkpt><trkpt lat="43.88271939942166" lon="11.180470509961232"><ele>91.0</ele><time>2026-04-19T11:37:54.999Z</time></trkpt><trkpt lat="43.88258004688217" lon="11.180409261417322"><ele>91.0</ele><time>2026-04-19T11:37:55.999Z</time></trkpt><trkpt lat="43.88245399989745" lon="11.18035687501892"><ele>91.0</ele><time>2026-04-19T11:37:56.999Z</time></trkpt><trkpt lat="43.88233293794179" lon="11.18031485298561"><ele>91.0</ele><time>2026-04-19T11:37:57.999Z</time></trkpt><trkpt lat="43.88222304558648" lon="11.180283503462036"><ele>91.0</ele><time>2026-04-19T11:37:58.999Z</time></trkpt><trkpt lat="43.8821201606504" lon="11.18026334339287"><ele>91.0</ele><time>2026-04-19T11:37:59.999Z</time></trkpt><trkpt lat="43.88202914890846" lon="11.180253807130194"><ele>91.0</ele><time>2026-04-19T11:38:00.999Z</time></trkpt><trkpt lat="43.88194648459846" lon="11.180217380693566"><ele>91.0</ele><time>2026-04-19T11:38:01.999Z</time></trkpt><trkpt lat="43.88186802507076" lon="11.180181369729599"><ele>91.0</ele><time>2026-04-19T11:38:02.999Z</time></trkpt><trkpt lat="43.88179339058683" lon="11.180122867846027"><ele>91.0</ele><time>2026-04-19T11:38:03.999Z</time></trkpt><trkpt lat="43.881724249088656" lon="11.180096093650693"><ele>91.0</ele><time>2026-04-19T11:38:04.999Z</time></trkpt><trkpt lat="43.88166037483232" lon="11.1801172411715"><ele>91.0</ele><time>2026-04-19T11:38:05.999Z</time></trkpt><trkpt lat="43.8815912816744" lon="11.180170464471736"><ele>91.0</ele><time>2026-04-19T11:38:06.999Z</time></trkpt><trkpt lat="43.88153634332303" lon="11.180286361704077"><ele>91.0</ele><time>2026-04-19T11:38:07.999Z</time></trkpt><trkpt lat="43.881467187617666" lon="11.180405766354765"><ele>90.0</ele><time>2026-04-19T11:38:08.999Z</time></trkpt><trkpt lat="43.881369228686665" lon="11.180517498703077"><ele>89.0</ele><time>2026-04-19T11:38:09.999Z</time></trkpt><trkpt lat="43.88119124646563" lon="11.18049527441288"><ele>88.0</ele><time>2026-04-19T11:38:10.999Z</time></trkpt><trkpt lat="43.881031212832895" lon="11.180478866672297"><ele>87.66666666666666</ele><time>2026-04-19T11:38:11.999Z</time></trkpt><trkpt lat="43.880836191328115" lon="11.18042417982439"><ele>87.33333333333333</ele><time>2026-04-19T11:38:12.999Z</time></trkpt><trkpt lat="43.88063308590726" lon="11.180329668253213"><ele>87.0</ele><time>2026-04-19T11:38:13.999Z</time></trkpt><trkpt lat="43.88045582169975" lon="11.180205653719575"><ele>87.0</ele><time>2026-04-19T11:38:14.999Z</time></trkpt><trkpt lat="43.88029503654115" lon="11.18005581007679"><ele>87.0</ele><time>2026-04-19T11:38:15.999Z</time></trkpt><trkpt lat="43.880170138027374" lon="11.179910199732051"><ele>87.0</ele><time>2026-04-19T11:38:16.999Z</time></trkpt><trkpt lat="43.88005581807169" lon="11.179736708038416"><ele>87.0</ele><time>2026-04-19T11:38:17.999Z</time></trkpt><trkpt lat="43.87993614929333" lon="11.179519074463606"><ele>87.0</ele><time>2026-04-19T11:38:18.999Z</time></trkpt><trkpt lat="43.87981040714066" lon="11.17925987324816"><ele>87.0</ele><time>2026-04-19T11:38:19.999Z</time></trkpt><trkpt lat="43.879685984907844" lon="11.178987429600749"><ele>84.5</ele><time>2026-04-19T11:38:20.999Z</time></trkpt><trkpt lat="43.87956005877594" lon="11.178715111355496"><ele>82.0</ele><time>2026-04-19T11:38:21.999Z</time></trkpt><trkpt lat="43.87942674347787" lon="11.178430901104145"><ele>82.0</ele><time>2026-04-19T11:38:22.999Z</time></trkpt><trkpt lat="43.87927085045313" lon="11.178157013326446"><ele>82.0</ele><time>2026-04-19T11:38:23.999Z</time></trkpt><trkpt lat="43.8791128088069" lon="11.1778679373983"><ele>83.0</ele><time>2026-04-19T11:38:24.999Z</time></trkpt><trkpt lat="43.87896059177635" lon="11.177605169719076"><ele>84.0</ele><time>2026-04-19T11:38:25.999Z</time></trkpt><trkpt lat="43.87881087887775" lon="11.177370448941215"><ele>82.0</ele><time>2026-04-19T11:38:26.999Z</time></trkpt><trkpt lat="43.87865637048022" lon="11.177134385716087"><ele>80.0</ele><time>2026-04-19T11:38:27.999Z</time></trkpt><trkpt lat="43.878495816105186" lon="11.176902527057848"><ele>81.0</ele><time>2026-04-19T11:38:28.999Z</time></trkpt><trkpt lat="43.878325625268786" lon="11.176681318357868"><ele>82.0</ele><time>2026-04-19T11:38:29.999Z</time></trkpt><trkpt lat="43.87815067728519" lon="11.176466757511818"><ele>82.0</ele><time>2026-04-19T11:38:30.999Z</time></trkpt><trkpt lat="43.877969062770454" lon="11.176256102871301"><ele>82.0</ele><time>2026-04-19T11:38:31.999Z</time></trkpt><trkpt lat="43.877771108181015" lon="11.17605406649283"><ele>83.5</ele><time>2026-04-19T11:38:32.999Z</time></trkpt><trkpt lat="43.87755655487511" lon="11.175876569931441"><ele>85.0</ele><time>2026-04-19T11:38:33.999Z</time></trkpt><trkpt lat="43.87733428400664" lon="11.175700601138884"><ele>83.0</ele><time>2026-04-19T11:38:34.999Z</time></trkpt><trkpt lat="43.87711284218678" lon="11.17551560858793"><ele>81.0</ele><time>2026-04-19T11:38:35.999Z</time></trkpt><trkpt lat="43.87689151115597" lon="11.175326354295901"><ele>83.0</ele><time>2026-04-19T11:38:36.999Z</time></trkpt><trkpt lat="43.87666725098255" lon="11.175129569340628"><ele>85.0</ele><time>2026-04-19T11:38:37.999Z</time></trkpt><trkpt lat="43.87644007447754" lon="11.174938824961245"><ele>82.5</ele><time>2026-04-19T11:38:38.999Z</time></trkpt><trkpt lat="43.876236966780816" lon="11.17476366101065"><ele>80.0</ele><time>2026-04-19T11:38:39.999Z</time></trkpt><trkpt lat="43.87599607989542" lon="11.174547480163088"><ele>80.5</ele><time>2026-04-19T11:38:40.999Z</time></trkpt><trkpt lat="43.87577294156364" lon="11.174348556126956"><ele>81.0</ele><time>2026-04-19T11:38:41.999Z</time></trkpt><trkpt lat="43.87555975634946" lon="11.174109575369863"><ele>79.5</ele><time>2026-04-19T11:38:42.999Z</time></trkpt><trkpt lat="43.87534453230768" lon="11.17388933204804"><ele>78.0</ele><time>2026-04-19T11:38:43.999Z</time></trkpt><trkpt lat="43.8751296922081" lon="11.173676695189226"><ele>80.5</ele><time>2026-04-19T11:38:44.999Z</time></trkpt><trkpt lat="43.87490627106134" lon="11.17348697149188"><ele>83.0</ele><time>2026-04-19T11:38:45.999Z</time></trkpt><trkpt lat="43.87468531137743" lon="11.173290885828084"><ele>81.0</ele><time>2026-04-19T11:38:46.999Z</time></trkpt><trkpt lat="43.87445879452915" lon="11.173111876505583"><ele>79.0</ele><time>2026-04-19T11:38:47.999Z</time></trkpt><trkpt lat="43.8742308851835" lon="11.172956566468997"><ele>79.0</ele><time>2026-04-19T11:38:48.999Z</time></trkpt><trkpt lat="43.874006502544916" lon="11.172799901591114"><ele>79.0</ele><time>2026-04-19T11:38:49.999Z</time></trkpt><trkpt lat="43.87381067458004" lon="11.172653648303477"><ele>79.0</ele><time>2026-04-19T11:38:50.999Z</time></trkpt><trkpt lat="43.87361762437317" lon="11.172486016113933"><ele>79.0</ele><time>2026-04-19T11:38:51.999Z</time></trkpt><trkpt lat="43.8734382295415" lon="11.172275817010574"><ele>77.0</ele><time>2026-04-19T11:38:52.999Z</time></trkpt><trkpt lat="43.873237628743404" lon="11.172075069293454"><ele>75.0</ele><time>2026-04-19T11:38:53.999Z</time></trkpt><trkpt lat="43.87308962793916" lon="11.17182250712445"><ele>75.0</ele><time>2026-04-19T11:38:54.999Z</time></trkpt><trkpt lat="43.872948841809624" lon="11.171580471811462"><ele>75.0</ele><time>2026-04-19T11:38:56Z</time></trkpt><trkpt lat="43.872805837251335" lon="11.171343655383614"><ele>75.0</ele><time>2026-04-19T11:38:57Z</time></trkpt><trkpt lat="43.872697318943544" lon="11.171118012751869"><ele>75.33333333333333</ele><time>2026-04-19T11:38:58Z</time></trkpt><trkpt lat="43.872573088893084" lon="11.170920777366149"><ele>75.66666666666666</ele><time>2026-04-19T11:38:59Z</time></trkpt><trkpt lat="43.87245973975345" lon="11.170740816656695"><ele>76.0</ele><time>2026-04-19T11:39:00Z</time></trkpt><trkpt lat="43.872357068859074" lon="11.170577062264805"><ele>75.39999999999999</ele><time>2026-04-19T11:39:01Z</time></trkpt><trkpt lat="43.87227025747736" lon="11.170438030227857"><ele>74.8</ele><time>2026-04-19T11:39:02Z</time></trkpt><trkpt lat="43.87219996657471" lon="11.170325065942661"><ele>74.19999999999999</ele><time>2026-04-19T11:39:03Z</time></trkpt><trkpt lat="43.87212943435114" lon="11.170211714003837"><ele>73.6</ele><time>2026-04-19T11:39:04Z</time></trkpt><trkpt lat="43.872066030393434" lon="11.170109817853433"><ele>73.0</ele><time>2026-04-19T11:39:05Z</time></trkpt><trkpt lat="43.8720226738857" lon="11.170008622269682"><ele>73.0</ele><time>2026-04-19T11:39:06Z</time></trkpt><trkpt lat="43.87204136157358" lon="11.169884551994281"><ele>73.0</ele><time>2026-04-19T11:39:07Z</time></trkpt><trkpt lat="43.8720211007922" lon="11.169780805396833"><ele>73.0</ele><time>2026-04-19T11:39:08Z</time></trkpt><trkpt lat="43.87197923793409" lon="11.16970366074096"><ele>73.0</ele><time>2026-04-19T11:39:09Z</time></trkpt><trkpt lat="43.87190203673516" lon="11.169690644368682"><ele>73.0</ele><time>2026-04-19T11:39:10Z</time></trkpt><trkpt lat="43.871784356180605" lon="11.169726752668929"><ele>73.0</ele><time>2026-04-19T11:39:12Z</time></trkpt><trkpt lat="43.87173593539867" lon="11.16980492892686"><ele>74.2</ele><time>2026-04-19T11:39:13Z</time></trkpt><trkpt lat="43.87171294916441" lon="11.169908302643348"><ele>75.4</ele><time>2026-04-19T11:39:14Z</time></trkpt><trkpt lat="43.871711243901586" lon="11.170036001558794"><ele>76.60000000000001</ele><time>2026-04-19T11:39:15Z</time></trkpt><trkpt lat="43.87169876614971" lon="11.17017803074715"><ele>77.8</ele><time>2026-04-19T11:39:16Z</time></trkpt><trkpt lat="43.871649617063895" lon="11.170346671581806"><ele>79.0</ele><time>2026-04-19T11:39:17Z</time></trkpt><trkpt lat="43.871555185031816" lon="11.17054073877384"><ele>79.0</ele><time>2026-04-19T11:39:18Z</time></trkpt><trkpt lat="43.87143925566062" lon="11.170748767024607"><ele>79.0</ele><time>2026-04-19T11:39:19Z</time></trkpt><trkpt lat="43.87131261002534" lon="11.170982303587454"><ele>79.0</ele><time>2026-04-19T11:39:20Z</time></trkpt><trkpt lat="43.87115914678833" lon="11.17122810660383"><ele>79.0</ele><time>2026-04-19T11:39:21Z</time></trkpt><trkpt lat="43.870992505519915" lon="11.17146656121463"><ele>79.0</ele><time>2026-04-19T11:39:22Z</time></trkpt><trkpt lat="43.870814843786135" lon="11.171702489816493"><ele>83.0</ele><time>2026-04-19T11:39:23Z</time></trkpt><trkpt lat="43.87063027216189" lon="11.171940448985666"><ele>87.0</ele><time>2026-04-19T11:39:24Z</time></trkpt><trkpt lat="43.870422347780206" lon="11.172181411988896"><ele>87.5</ele><time>2026-04-19T11:39:25Z</time></trkpt><trkpt lat="43.87019689892589" lon="11.172413628352615"><ele>88.0</ele><time>2026-04-19T11:39:26Z</time></trkpt><trkpt lat="43.86996749249502" lon="11.172626190715633"><ele>94.5</ele><time>2026-04-19T11:39:27Z</time></trkpt><trkpt lat="43.86972687166602" lon="11.172820412123354"><ele>101.0</ele><time>2026-04-19T11:39:28Z</time></trkpt><trkpt lat="43.869473592284336" lon="11.173002171540274"><ele>111.5</ele><time>2026-04-19T11:39:29Z</time></trkpt><trkpt lat="43.86921465083595" lon="11.173175395328155"><ele>122.0</ele><time>2026-04-19T11:39:30Z</time></trkpt><trkpt lat="43.868957838381576" lon="11.173352791721799"><ele>123.5</ele><time>2026-04-19T11:39:31Z</time></trkpt><trkpt lat="43.86868608466649" lon="11.173484355599598"><ele>125.0</ele><time>2026-04-19T11:39:32Z</time></trkpt><trkpt lat="43.868398444926015" lon="11.173648705537884"><ele>128.0</ele><time>2026-04-19T11:39:33.068Z</time></trkpt><trkpt lat="43.868124226865866" lon="11.173805385998968"><ele>131.0</ele><time>2026-04-19T11:39:34.065Z</time></trkpt><trkpt lat="43.86784548278237" lon="11.173964653889609"><ele>122.5</ele><time>2026-04-19T11:39:35.062Z</time></trkpt><trkpt lat="43.867571043959714" lon="11.17412146098992"><ele>114.0</ele><time>2026-04-19T11:39:36.057Z</time></trkpt><trkpt lat="43.867300458391675" lon="11.174276066499315"><ele>114.0</ele><time>2026-04-19T11:39:37.057Z</time></trkpt><trkpt lat="43.867037164201776" lon="11.174426506085359"><ele>114.0</ele><time>2026-04-19T11:39:38.038Z</time></trkpt><trkpt lat="43.86535165101968" lon="11.175367615074467"><ele>97.5</ele><time>2026-04-19T11:39:43Z</time></trkpt><trkpt lat="43.86503917364803" lon="11.175512038731616"><ele>81.0</ele><time>2026-04-19T11:39:44Z</time></trkpt><trkpt lat="43.864736039268166" lon="11.175667828153244"><ele>81.5</ele><time>2026-04-19T11:39:45Z</time></trkpt><trkpt lat="43.86439736825923" lon="11.175767190222649"><ele>82.0</ele><time>2026-04-19T11:39:46Z</time></trkpt><trkpt lat="43.86412847397235" lon="11.175868379749652"><ele>82.0</ele><time>2026-04-19T11:39:47Z</time></trkpt><trkpt lat="43.863925624838814" lon="11.175986011119441"><ele>82.0</ele><time>2026-04-19T11:39:48Z</time></trkpt><trkpt lat="43.86376382159542" lon="11.176081031560832"><ele>82.0</ele><time>2026-04-19T11:39:49Z</time></trkpt><trkpt lat="43.86357282233104" lon="11.176154747364043"><ele>81.39999999999999</ele><time>2026-04-19T11:39:50Z</time></trkpt><trkpt lat="43.86344419376716" lon="11.176192157363039"><ele>80.8</ele><time>2026-04-19T11:39:51Z</time></trkpt><trkpt lat="43.86334185104455" lon="11.176220365375768"><ele>80.2</ele><time>2026-04-19T11:39:52Z</time></trkpt><trkpt lat="43.863253165904844" lon="11.176227887195244"><ele>79.6</ele><time>2026-04-19T11:39:53Z</time></trkpt><trkpt lat="43.863181089595216" lon="11.176193980178647"><ele>79.0</ele><time>2026-04-19T11:39:54Z</time></trkpt><trkpt lat="43.863089649842586" lon="11.176118655994594"><ele>79.0</ele><time>2026-04-19T11:39:55Z</time></trkpt><trkpt lat="43.86302634917654" lon="11.176022678540606"><ele>79.0</ele><time>2026-04-19T11:39:56Z</time></trkpt><trkpt lat="43.86295482975517" lon="11.17597114516292"><ele>79.0</ele><time>2026-04-19T11:39:57Z</time></trkpt><trkpt lat="43.86287900166873" lon="11.175957462749773"><ele>79.0</ele><time>2026-04-19T11:39:58Z</time></trkpt><trkpt lat="43.862812052485886" lon="11.17600741518609"><ele>79.0</ele><time>2026-04-19T11:39:59Z</time></trkpt><trkpt lat="43.862760021780886" lon="11.17607246045599"><ele>79.0</ele><time>2026-04-19T11:40:00Z</time></trkpt><trkpt lat="43.86276070057168" lon="11.176204684976996"><ele>79.0</ele><time>2026-04-19T11:40:00.999Z</time></trkpt><trkpt lat="43.862804636950905" lon="11.17632965665564"><ele>79.0</ele><time>2026-04-19T11:40:01.999Z</time></trkpt><trkpt lat="43.86288325690629" lon="11.176465656279504"><ele>79.0</ele><time>2026-04-19T11:40:02.999Z</time></trkpt><trkpt lat="43.86283674459709" lon="11.17670319748982"><ele>79.0</ele><time>2026-04-19T11:40:03.999Z</time></trkpt><trkpt lat="43.86282257975356" lon="11.176922706736901"><ele>79.0</ele><time>2026-04-19T11:40:04.999Z</time></trkpt><trkpt lat="43.86280610341135" lon="11.177141610987949"><ele>79.0</ele><time>2026-04-19T11:40:05.999Z</time></trkpt><trkpt lat="43.862773835405044" lon="11.17740865045775"><ele>79.0</ele><time>2026-04-19T11:40:06.999Z</time></trkpt><trkpt lat="43.86273121078811" lon="11.177561173345643"><ele>79.0</ele><time>2026-04-19T11:40:07.999Z</time></trkpt><trkpt lat="43.86263657316269" lon="11.17770998905889"><ele>79.0</ele><time>2026-04-19T11:40:08.999Z</time></trkpt><trkpt lat="43.862521789262225" lon="11.177816120399168"><ele>79.0</ele><time>2026-04-19T11:40:09.999Z</time></trkpt><trkpt lat="43.86238179567197" lon="11.177904295090187"><ele>79.0</ele><time>2026-04-19T11:40:10.999Z</time></trkpt><trkpt lat="43.862219614333824" lon="11.178002003638504"><ele>79.0</ele><time>2026-04-19T11:40:11.999Z</time></trkpt><trkpt lat="43.86204447915502" lon="11.17811719837335"><ele>79.0</ele><time>2026-04-19T11:40:12.999Z</time></trkpt><trkpt lat="43.86187299623893" lon="11.178232486163669"><ele>79.0</ele><time>2026-04-19T11:40:13.999Z</time></trkpt><trkpt lat="43.86169906232395" lon="11.178343038095052"><ele>80.0</ele><time>2026-04-19T11:40:14.999Z</time></trkpt><trkpt lat="43.861532646254524" lon="11.178414176720509"><ele>81.0</ele><time>2026-04-19T11:40:15.999Z</time></trkpt><trkpt lat="43.861367929563784" lon="11.17844824950507"><ele>82.0</ele><time>2026-04-19T11:40:16.999Z</time></trkpt><trkpt lat="43.861193046160686" lon="11.17847048265615"><ele>82.0</ele><time>2026-04-19T11:40:17.999Z</time></trkpt><trkpt lat="43.86099531796649" lon="11.178497376055894"><ele>82.0</ele><time>2026-04-19T11:40:18.999Z</time></trkpt><trkpt lat="43.86077551827249" lon="11.178525024588279"><ele>82.0</ele><time>2026-04-19T11:40:19.999Z</time></trkpt><trkpt lat="43.86056186842919" lon="11.178557471479557"><ele>82.0</ele><time>2026-04-19T11:40:20.999Z</time></trkpt><trkpt lat="43.86035185065551" lon="11.178601214352902"><ele>82.0</ele><time>2026-04-19T11:40:21.999Z</time></trkpt><trkpt lat="43.86014388549114" lon="11.178660627665787"><ele>82.0</ele><time>2026-04-19T11:40:22.999Z</time></trkpt><trkpt lat="43.85994509266082" lon="11.178728275712809"><ele>81.66666666666666</ele><time>2026-04-19T11:40:23.999Z</time></trkpt><trkpt lat="43.85975955986972" lon="11.17878483881942"><ele>81.33333333333333</ele><time>2026-04-19T11:40:24.999Z</time></trkpt><trkpt lat="43.85958815805074" lon="11.178843793622235"><ele>81.0</ele><time>2026-04-19T11:40:25.999Z</time></trkpt><trkpt lat="43.859424980955325" lon="11.178898009818344"><ele>81.0</ele><time>2026-04-19T11:40:26.999Z</time></trkpt><trkpt lat="43.85927816248416" lon="11.178943495770836"><ele>81.0</ele><time>2026-04-19T11:40:27.999Z</time></trkpt><trkpt lat="43.85913895165144" lon="11.17898909443012"><ele>81.0</ele><time>2026-04-19T11:40:28.999Z</time></trkpt><trkpt lat="43.859001823214385" lon="11.179026296002926"><ele>81.0</ele><time>2026-04-19T11:40:29.999Z</time></trkpt><trkpt lat="43.858868865146576" lon="11.179029278618396"><ele>81.0</ele><time>2026-04-19T11:40:30.999Z</time></trkpt><trkpt lat="43.85874395425723" lon="11.178992523190454"><ele>81.0</ele><time>2026-04-19T11:40:31.999Z</time></trkpt><trkpt lat="43.8586471237306" lon="11.178891420426673"><ele>81.0</ele><time>2026-04-19T11:40:32.999Z</time></trkpt><trkpt lat="43.85855136987171" lon="11.178776224153289"><ele>81.0</ele><time>2026-04-19T11:40:33.999Z</time></trkpt><trkpt lat="43.85845221819951" lon="11.178623903177172"><ele>80.0</ele><time>2026-04-19T11:40:34.999Z</time></trkpt><trkpt lat="43.858372800196285" lon="11.17841295314725"><ele>79.0</ele><time>2026-04-19T11:40:35.999Z</time></trkpt><trkpt lat="43.85827257711201" lon="11.178246532269963"><ele>78.0</ele><time>2026-04-19T11:40:36.999Z</time></trkpt><trkpt lat="43.85819497637068" lon="11.178080234332088"><ele>77.75</ele><time>2026-04-19T11:40:37.999Z</time></trkpt><trkpt lat="43.85811519262659" lon="11.177939569589062"><ele>77.5</ele><time>2026-04-19T11:40:38.999Z</time></trkpt><trkpt lat="43.85800883250123" lon="11.177854298662616"><ele>77.25</ele><time>2026-04-19T11:40:39.999Z</time></trkpt><trkpt lat="43.85788909839845" lon="11.1778186750254"><ele>77.0</ele><time>2026-04-19T11:40:40.999Z</time></trkpt><trkpt lat="43.85776183091278" lon="11.177807285934406"><ele>77.0</ele><time>2026-04-19T11:40:41.999Z</time></trkpt><trkpt lat="43.857639538138876" lon="11.177875764479477"><ele>77.0</ele><time>2026-04-19T11:40:42.999Z</time></trkpt><trkpt lat="43.857544881091556" lon="11.177966770911674"><ele>77.0</ele><time>2026-04-19T11:40:43.999Z</time></trkpt><trkpt lat="43.85743000551624" lon="11.17811759378399"><ele>77.0</ele><time>2026-04-19T11:40:44.999Z</time></trkpt><trkpt lat="43.857340470532066" lon="11.178258478938405"><ele>76.75</ele><time>2026-04-19T11:40:45.999Z</time></trkpt><trkpt lat="43.85724930679713" lon="11.178411932260305"><ele>76.5</ele><time>2026-04-19T11:40:46.999Z</time></trkpt><trkpt lat="43.857128512270194" lon="11.17852296945108"><ele>76.25</ele><time>2026-04-19T11:40:47.999Z</time></trkpt><trkpt lat="43.85698987656612" lon="11.178596060315238"><ele>76.0</ele><time>2026-04-19T11:40:48.999Z</time></trkpt><trkpt lat="43.85684480599892" lon="11.178655676913577"><ele>75.5</ele><time>2026-04-19T11:40:49.999Z</time></trkpt><trkpt lat="43.85670812141853" lon="11.178699153734483"><ele>75.0</ele><time>2026-04-19T11:40:50.999Z</time></trkpt><trkpt lat="43.85657407381001" lon="11.17874468497986"><ele>74.5</ele><time>2026-04-19T11:40:51.999Z</time></trkpt><trkpt lat="43.8564548031224" lon="11.17880132065029"><ele>74.0</ele><time>2026-04-19T11:40:52.999Z</time></trkpt><trkpt lat="43.85634735378281" lon="11.178857833809815"><ele>74.0</ele><time>2026-04-19T11:40:53.999Z</time></trkpt><trkpt lat="43.856231239656836" lon="11.17890706151789"><ele>74.0</ele><time>2026-04-19T11:40:54.999Z</time></trkpt><trkpt lat="43.85612436186387" lon="11.178939435975208"><ele>74.0</ele><time>2026-04-19T11:40:55.999Z</time></trkpt><trkpt lat="43.856020607013505" lon="11.17896564510171"><ele>74.0</ele><time>2026-04-19T11:40:56.999Z</time></trkpt><trkpt lat="43.855916578821684" lon="11.178985831389856"><ele>74.0</ele><time>2026-04-19T11:40:57.999Z</time></trkpt><trkpt lat="43.85582122930133" lon="11.179008065121481"><ele>74.0</ele><time>2026-04-19T11:40:58.999Z</time></trkpt><trkpt lat="43.855722784767444" lon="11.17902657179787"><ele>74.0</ele><time>2026-04-19T11:40:59.999Z</time></trkpt><trkpt lat="43.85561988018358" lon="11.179025481281672"><ele>74.0</ele><time>2026-04-19T11:41:00.999Z</time></trkpt><trkpt lat="43.855519572273565" lon="11.17895195796576"><ele>74.0</ele><time>2026-04-19T11:41:02Z</time></trkpt><trkpt lat="43.855385586647714" lon="11.178975030475563"><ele>74.0</ele><time>2026-04-19T11:41:03Z</time></trkpt><trkpt lat="43.855248448635095" lon="11.178990355603771"><ele>74.0</ele><time>2026-04-19T11:41:04Z</time></trkpt><trkpt lat="43.855121821232025" lon="11.179007104454625"><ele>74.0</ele><time>2026-04-19T11:41:05Z</time></trkpt><trkpt lat="43.85500890389645" lon="11.179024912099033"><ele>74.0</ele><time>2026-04-19T11:41:06Z</time></trkpt><trkpt lat="43.85490047291462" lon="11.179078433221779"><ele>73.83333333333334</ele><time>2026-04-19T11:41:07Z</time></trkpt><trkpt lat="43.85479740194622" lon="11.17908573011009"><ele>73.66666666666667</ele><time>2026-04-19T11:41:08Z</time></trkpt><trkpt lat="43.8547109613985" lon="11.17913989769747"><ele>73.5</ele><time>2026-04-19T11:41:09Z</time></trkpt><trkpt lat="43.854630134308586" lon="11.179150995135572"><ele>73.33333333333333</ele><time>2026-04-19T11:41:10Z</time></trkpt><trkpt lat="43.854549666642896" lon="11.179152128942976"><ele>73.16666666666666</ele><time>2026-04-19T11:41:11Z</time></trkpt><trkpt lat="43.854472032794234" lon="11.179157659031704"><ele>73.0</ele><time>2026-04-19T11:41:12Z</time></trkpt><trkpt lat="43.854392564734695" lon="11.179165043473915"><ele>73.0</ele><time>2026-04-19T11:41:13Z</time></trkpt><trkpt lat="43.854302971771915" lon="11.179176542121278"><ele>73.0</ele><time>2026-04-19T11:41:14Z</time></trkpt><trkpt lat="43.85421696544599" lon="11.179186338890009"><ele>73.0</ele><time>2026-04-19T11:41:15Z</time></trkpt><trkpt lat="43.85413000615033" lon="11.179194373629045"><ele>73.0</ele><time>2026-04-19T11:41:16Z</time></trkpt><trkpt lat="43.854043999548246" lon="11.179200429348835"><ele>73.0</ele><time>2026-04-19T11:41:17Z</time></trkpt><trkpt lat="43.85395624517175" lon="11.17921275950437"><ele>73.0</ele><time>2026-04-19T11:41:18Z</time></trkpt><trkpt lat="43.85387029264144" lon="11.179221172281006"><ele>73.0</ele><time>2026-04-19T11:41:19Z</time></trkpt><trkpt lat="43.85378452129104" lon="11.17923161894441"><ele>73.0</ele><time>2026-04-19T11:41:20Z</time></trkpt><trkpt lat="43.853701122458844" lon="11.179242901338462"><ele>73.0</ele><time>2026-04-19T11:41:21Z</time></trkpt><trkpt lat="43.85360153458641" lon="11.179256749435714"><ele>73.0</ele><time>2026-04-19T11:41:22Z</time></trkpt><trkpt lat="43.85349587015802" lon="11.17927237771265"><ele>73.0</ele><time>2026-04-19T11:41:23Z</time></trkpt><trkpt lat="43.85340461581565" lon="11.179278885827953"><ele>72.33333333333333</ele><time>2026-04-19T11:41:24Z</time></trkpt><trkpt lat="43.853315732772266" lon="11.179289435907055"><ele>71.66666666666666</ele><time>2026-04-19T11:41:25Z</time></trkpt><trkpt lat="43.85322903276323" lon="11.179298899931041"><ele>71.0</ele><time>2026-04-19T11:41:26Z</time></trkpt><trkpt lat="43.85315255318317" lon="11.179309189840419"><ele>70.33333333333333</ele><time>2026-04-19T11:41:27Z</time></trkpt><trkpt lat="43.853064553315875" lon="11.17931864005369"><ele>69.66666666666667</ele><time>2026-04-19T11:41:28Z</time></trkpt><trkpt lat="43.852964460205065" lon="11.17932894736732"><ele>69.0</ele><time>2026-04-19T11:41:29Z</time></trkpt><trkpt lat="43.85285856480376" lon="11.179337817491236"><ele>69.0</ele><time>2026-04-19T11:41:30Z</time></trkpt><trkpt lat="43.852751240382354" lon="11.17935199959617"><ele>69.0</ele><time>2026-04-19T11:41:31Z</time></trkpt><trkpt lat="43.85263709692794" lon="11.179366277918977"><ele>69.0</ele><time>2026-04-19T11:41:32Z</time></trkpt><trkpt lat="43.85253198176493" lon="11.179380503159235"><ele>69.0</ele><time>2026-04-19T11:41:33Z</time></trkpt><trkpt lat="43.85242970661307" lon="11.17939015745254"><ele>69.0</ele><time>2026-04-19T11:41:34Z</time></trkpt><trkpt lat="43.85233478782519" lon="11.17940198479608"><ele>68.66666666666667</ele><time>2026-04-19T11:41:35Z</time></trkpt><trkpt lat="43.85224116776232" lon="11.179415304979663"><ele>68.33333333333333</ele><time>2026-04-19T11:41:36Z</time></trkpt><trkpt lat="43.85215484260663" lon="11.179422358602448"><ele>68.0</ele><time>2026-04-19T11:41:37Z</time></trkpt><trkpt lat="43.8520719345215" lon="11.179434141769518"><ele>67.66666666666666</ele><time>2026-04-19T11:41:38Z</time></trkpt><trkpt lat="43.85198969744853" lon="11.179445600197349"><ele>67.33333333333333</ele><time>2026-04-19T11:41:39Z</time></trkpt><trkpt lat="43.851916301933656" lon="11.179454987350894"><ele>67.0</ele><time>2026-04-19T11:41:40Z</time></trkpt><trkpt lat="43.8518332102917" lon="11.179444525177328"><ele>66.6</ele><time>2026-04-19T11:41:41Z</time></trkpt><trkpt lat="43.85174712580976" lon="11.179455574552458"><ele>66.2</ele><time>2026-04-19T11:41:42Z</time></trkpt><trkpt lat="43.85165402938328" lon="11.179489600390474"><ele>65.8</ele><time>2026-04-19T11:41:43Z</time></trkpt><trkpt lat="43.851559907028964" lon="11.179499383331352"><ele>65.4</ele><time>2026-04-19T11:41:44Z</time></trkpt><trkpt lat="43.85147104407998" lon="11.179512371377836"><ele>65.0</ele><time>2026-04-19T11:41:45Z</time></trkpt><trkpt lat="43.85138484153809" lon="11.179524679091935"><ele>65.0</ele><time>2026-04-19T11:41:46Z</time></trkpt><trkpt lat="43.85129480777476" lon="11.179532627837"><ele>65.0</ele><time>2026-04-19T11:41:47Z</time></trkpt><trkpt lat="43.85119490975385" lon="11.179546990479102"><ele>65.0</ele><time>2026-04-19T11:41:48Z</time></trkpt><trkpt lat="43.85108495458358" lon="11.179541126611655"><ele>65.0</ele><time>2026-04-19T11:41:49Z</time></trkpt><trkpt lat="43.8509770330841" lon="11.179554869157382"><ele>65.0</ele><time>2026-04-19T11:41:50Z</time></trkpt><trkpt lat="43.850866865246786" lon="11.179568897748695"><ele>64.2</ele><time>2026-04-19T11:41:51Z</time></trkpt><trkpt lat="43.85075487483335" lon="11.179604389767995"><ele>63.4</ele><time>2026-04-19T11:41:52Z</time></trkpt><trkpt lat="43.85064189297686" lon="11.179597275878415"><ele>62.599999999999994</ele><time>2026-04-19T11:41:53Z</time></trkpt><trkpt lat="43.85052892132321" lon="11.179611099168792"><ele>61.8</ele><time>2026-04-19T11:41:54Z</time></trkpt><trkpt lat="43.85042466599142" lon="11.179646609519068"><ele>61.0</ele><time>2026-04-19T11:41:55Z</time></trkpt><trkpt lat="43.850323921172915" lon="11.179658645959506"><ele>60.99999999999999</ele><time>2026-04-19T11:41:56Z</time></trkpt><trkpt lat="43.85022931100252" lon="11.179667616910493"><ele>61.0</ele><time>2026-04-19T11:41:57Z</time></trkpt><trkpt lat="43.85014056544675" lon="11.179676784336094"><ele>61.0</ele><time>2026-04-19T11:41:58Z</time></trkpt><trkpt lat="43.85005836936147" lon="11.17967797990229"><ele>61.0</ele><time>2026-04-19T11:41:58.999Z</time></trkpt><trkpt lat="43.84998233737845" lon="11.17965636112772"><ele>60.99999999999999</ele><time>2026-04-19T11:41:59.999Z</time></trkpt><trkpt lat="43.84991113674125" lon="11.179610594577294"><ele>61.0</ele><time>2026-04-19T11:42:00.999Z</time></trkpt><trkpt lat="43.849863960661" lon="11.17952167901248"><ele>60.199999999999996</ele><time>2026-04-19T11:42:01.999Z</time></trkpt><trkpt lat="43.849785407488746" lon="11.17944937655229"><ele>59.39999999999999</ele><time>2026-04-19T11:42:02.999Z</time></trkpt><trkpt lat="43.84969204844465" lon="11.179426253248675"><ele>58.6</ele><time>2026-04-19T11:42:03.999Z</time></trkpt><trkpt lat="43.84959519423979" lon="11.179536065017928"><ele>57.8</ele><time>2026-04-19T11:42:04.999Z</time></trkpt><trkpt lat="43.84950691395706" lon="11.179626840837265"><ele>57.0</ele><time>2026-04-19T11:42:05.999Z</time></trkpt><trkpt lat="43.849425338939774" lon="11.17972888254612"><ele>57.0</ele><time>2026-04-19T11:42:06.999Z</time></trkpt><trkpt lat="43.849333458959634" lon="11.17979276449214"><ele>57.0</ele><time>2026-04-19T11:42:07.999Z</time></trkpt><trkpt lat="43.84922709978564" lon="11.179765943886187"><ele>57.0</ele><time>2026-04-19T11:42:08.999Z</time></trkpt><trkpt lat="43.84910871400109" lon="11.179799310974904"><ele>57.0</ele><time>2026-04-19T11:42:09.999Z</time></trkpt><trkpt lat="43.84897972352" lon="11.179809842845689"><ele>56.75</ele><time>2026-04-19T11:42:10.999Z</time></trkpt><trkpt lat="43.848837376756784" lon="11.179804920036444"><ele>56.5</ele><time>2026-04-19T11:42:11.999Z</time></trkpt><trkpt lat="43.848703313061115" lon="11.17981688240397"><ele>56.25</ele><time>2026-04-19T11:42:12.999Z</time></trkpt><trkpt lat="43.84858131852127" lon="11.179827767852593"><ele>56.0</ele><time>2026-04-19T11:42:13.999Z</time></trkpt><trkpt lat="43.84846251829382" lon="11.179840628440797"><ele>55.8</ele><time>2026-04-19T11:42:14.999Z</time></trkpt><trkpt lat="43.84835471206661" lon="11.179872944038154"><ele>55.599999999999994</ele><time>2026-04-19T11:42:15.999Z</time></trkpt><trkpt lat="43.84825006195039" lon="11.179882487867834"><ele>55.4</ele><time>2026-04-19T11:42:16.999Z</time></trkpt><trkpt lat="43.848151087373786" lon="11.17988569144532"><ele>55.2</ele><time>2026-04-19T11:42:17.999Z</time></trkpt><trkpt lat="43.848058033082864" lon="11.17990229749945"><ele>55.0</ele><time>2026-04-19T11:42:18.999Z</time></trkpt><trkpt lat="43.847968619751846" lon="11.179913703181354"><ele>55.0</ele><time>2026-04-19T11:42:19.999Z</time></trkpt><trkpt lat="43.84786492154511" lon="11.179922598789632"><ele>55.0</ele><time>2026-04-19T11:42:20.999Z</time></trkpt><trkpt lat="43.84774435757844" lon="11.179938785867163"><ele>55.0</ele><time>2026-04-19T11:42:21.999Z</time></trkpt><trkpt lat="43.84760777623596" lon="11.179959123096783"><ele>55.0</ele><time>2026-04-19T11:42:22.999Z</time></trkpt><trkpt lat="43.84745877610715" lon="11.179975996811862"><ele>55.0</ele><time>2026-04-19T11:42:23.999Z</time></trkpt><trkpt lat="43.847311232253034" lon="11.179989299418336"><ele>55.0</ele><time>2026-04-19T11:42:24.999Z</time></trkpt><trkpt lat="43.847158379687315" lon="11.180007398024156"><ele>55.0</ele><time>2026-04-19T11:42:25.999Z</time></trkpt><trkpt lat="43.84700392529411" lon="11.180027390175427"><ele>55.0</ele><time>2026-04-19T11:42:26.999Z</time></trkpt><trkpt lat="43.846861615705336" lon="11.180029850562395"><ele>55.0</ele><time>2026-04-19T11:42:27.999Z</time></trkpt><trkpt lat="43.846725804737154" lon="11.18004682276142"><ele>55.0</ele><time>2026-04-19T11:42:28.999Z</time></trkpt><trkpt lat="43.84659396510263" lon="11.180086960141562"><ele>55.0</ele><time>2026-04-19T11:42:29.999Z</time></trkpt><trkpt lat="43.84645074008244" lon="11.180102696248769"><ele>54.75</ele><time>2026-04-19T11:42:30.999Z</time></trkpt><trkpt lat="43.84631669375778" lon="11.180121260554337"><ele>54.5</ele><time>2026-04-19T11:42:31.999Z</time></trkpt><trkpt lat="43.84618741761737" lon="11.180134537102104"><ele>54.25</ele><time>2026-04-19T11:42:32.999Z</time></trkpt><trkpt lat="43.84606340285132" lon="11.180147546209067"><ele>54.0</ele><time>2026-04-19T11:42:33.999Z</time></trkpt><trkpt lat="43.845946366958046" lon="11.180162563233184"><ele>53.800000000000004</ele><time>2026-04-19T11:42:34.999Z</time></trkpt><trkpt lat="43.84583509807962" lon="11.18018011290998"><ele>53.60000000000001</ele><time>2026-04-19T11:42:35.999Z</time></trkpt><trkpt lat="43.84572944951494" lon="11.180201843531647"><ele>53.4</ele><time>2026-04-19T11:42:36.999Z</time></trkpt><trkpt lat="43.845621524857556" lon="11.180216049874868"><ele>53.2</ele><time>2026-04-19T11:42:37.999Z</time></trkpt><trkpt lat="43.84550590855596" lon="11.1802328392872"><ele>53.0</ele><time>2026-04-19T11:42:38.999Z</time></trkpt><trkpt lat="43.845397104182176" lon="11.180248178760019"><ele>53.00000000000001</ele><time>2026-04-19T11:42:39.999Z</time></trkpt><trkpt lat="43.84529430746769" lon="11.180265109569115"><ele>53.0</ele><time>2026-04-19T11:42:40.999Z</time></trkpt><trkpt lat="43.84519711604301" lon="11.180285503467983"><ele>53.0</ele><time>2026-04-19T11:42:41.999Z</time></trkpt><trkpt lat="43.84511608396251" lon="11.180291473863562"><ele>53.0</ele><time>2026-04-19T11:42:42.999Z</time></trkpt><trkpt lat="43.84504181510778" lon="11.180281183570271"><ele>53.00000000000001</ele><time>2026-04-19T11:42:43.999Z</time></trkpt><trkpt lat="43.844981463531006" lon="11.18022151310324"><ele>53.0</ele><time>2026-04-19T11:42:44.999Z</time></trkpt><trkpt lat="43.844920357893585" lon="11.180175175569428"><ele>52.833333333333336</ele><time>2026-04-19T11:42:45.999Z</time></trkpt><trkpt lat="43.844858335927675" lon="11.180147752684189"><ele>52.66666666666667</ele><time>2026-04-19T11:42:46.999Z</time></trkpt><trkpt lat="43.844792257133925" lon="11.18014376327322"><ele>52.5</ele><time>2026-04-19T11:42:47.999Z</time></trkpt><trkpt lat="43.844716123280385" lon="11.18016931780659"><ele>52.33333333333333</ele><time>2026-04-19T11:42:48.999Z</time></trkpt><trkpt lat="43.844645765463135" lon="11.180280159442447"><ele>52.166666666666664</ele><time>2026-04-19T11:42:49.999Z</time></trkpt><trkpt lat="43.84456853610287" lon="11.180411976231829"><ele>52.0</ele><time>2026-04-19T11:42:50.999Z</time></trkpt><trkpt lat="43.84449717841116" lon="11.180545749371436"><ele>51.99999999999999</ele><time>2026-04-19T11:42:51.999Z</time></trkpt><trkpt lat="43.84443057838076" lon="11.180650364904889"><ele>52.0</ele><time>2026-04-19T11:42:52.999Z</time></trkpt><trkpt lat="43.84436511517447" lon="11.180727502827628"><ele>52.0</ele><time>2026-04-19T11:42:53.999Z</time></trkpt><trkpt lat="43.844293134280285" lon="11.180772151404113"><ele>52.0</ele><time>2026-04-19T11:42:54.999Z</time></trkpt><trkpt lat="43.84421549918155" lon="11.180770936823327"><ele>51.99999999999999</ele><time>2026-04-19T11:42:55.999Z</time></trkpt><trkpt lat="43.844142787025774" lon="11.180734881463698"><ele>52.0</ele><time>2026-04-19T11:42:56.999Z</time></trkpt><trkpt lat="43.844068843686266" lon="11.180696922021816"><ele>51.83333333333333</ele><time>2026-04-19T11:42:57.999Z</time></trkpt><trkpt lat="43.8439874853742" lon="11.180686646733328"><ele>51.666666666666664</ele><time>2026-04-19T11:42:58.999Z</time></trkpt><trkpt lat="43.843914348624494" lon="11.180721531342611"><ele>51.5</ele><time>2026-04-19T11:42:59.999Z</time></trkpt><trkpt lat="43.84385382675401" lon="11.180787102850767"><ele>51.33333333333333</ele><time>2026-04-19T11:43:00.999Z</time></trkpt><trkpt lat="43.84381703052254" lon="11.180883876692779"><ele>51.166666666666664</ele><time>2026-04-19T11:43:01.999Z</time></trkpt><trkpt lat="43.8438073068853" lon="11.181006679141062"><ele>51.0</ele><time>2026-04-19T11:43:02.999Z</time></trkpt><trkpt lat="43.84382026602777" lon="11.181154231711195"><ele>51.0</ele><time>2026-04-19T11:43:03.999Z</time></trkpt><trkpt lat="43.843857710613214" lon="11.181302699694939"><ele>51.0</ele><time>2026-04-19T11:43:04.999Z</time></trkpt><trkpt lat="43.84388108612286" lon="11.181440856942894"><ele>51.0</ele><time>2026-04-19T11:43:05.999Z</time></trkpt><trkpt lat="43.843886764751495" lon="11.181558523131486"><ele>51.0</ele><time>2026-04-19T11:43:07Z</time></trkpt><trkpt lat="43.84389940354631" lon="11.18166923670726"><ele>51.0</ele><time>2026-04-19T11:43:08Z</time></trkpt><trkpt lat="43.84383586916673" lon="11.181782953200795"><ele>51.4</ele><time>2026-04-19T11:43:09Z</time></trkpt><trkpt lat="43.84379246285939" lon="11.181880281488331"><ele>51.8</ele><time>2026-04-19T11:43:10Z</time></trkpt><trkpt lat="43.84374038428351" lon="11.181969835228402"><ele>52.199999999999996</ele><time>2026-04-19T11:43:11Z</time></trkpt><trkpt lat="43.843685381030284" lon="11.182067171576964"><ele>52.599999999999994</ele><time>2026-04-19T11:43:12Z</time></trkpt><trkpt lat="43.84362866531249" lon="11.182180218671572"><ele>53.0</ele><time>2026-04-19T11:43:13Z</time></trkpt><trkpt lat="43.84357217039631" lon="11.182305453652665"><ele>53.5</ele><time>2026-04-19T11:43:14Z</time></trkpt><trkpt lat="43.843517036793344" lon="11.182433455993744"><ele>54.0</ele><time>2026-04-19T11:43:15Z</time></trkpt><trkpt lat="43.843458287673506" lon="11.182573238305839"><ele>54.5</ele><time>2026-04-19T11:43:16Z</time></trkpt><trkpt lat="43.8433970549296" lon="11.18271708674167"><ele>55.0</ele><time>2026-04-19T11:43:17Z</time></trkpt><trkpt lat="43.84333709484951" lon="11.182851093967756"><ele>54.2</ele><time>2026-04-19T11:43:18Z</time></trkpt><trkpt lat="43.8432826263211" lon="11.182971505983746"><ele>53.4</ele><time>2026-04-19T11:43:19Z</time></trkpt><trkpt lat="43.843237523095304" lon="11.183089228364896"><ele>52.599999999999994</ele><time>2026-04-19T11:43:20Z</time></trkpt><trkpt lat="43.84319774737201" lon="11.183200781926601"><ele>51.8</ele><time>2026-04-19T11:43:21Z</time></trkpt><trkpt lat="43.84315449338317" lon="11.183302344985083"><ele>51.0</ele><time>2026-04-19T11:43:22Z</time></trkpt><trkpt lat="43.84311389951727" lon="11.18339615551062"><ele>51.0</ele><time>2026-04-19T11:43:23Z</time></trkpt><trkpt lat="43.84308071606235" lon="11.183476861814597"><ele>51.0</ele><time>2026-04-19T11:43:24Z</time></trkpt><trkpt lat="43.843049281041445" lon="11.183553717410712"><ele>51.0</ele><time>2026-04-19T11:43:25Z</time></trkpt><trkpt lat="43.84298703178106" lon="11.183694690794406"><ele>51.0</ele><time>2026-04-19T11:43:27Z</time></trkpt><trkpt lat="43.84293086032586" lon="11.183827431178832"><ele>51.0</ele><time>2026-04-19T11:43:29Z</time></trkpt><trkpt lat="43.84286659889723" lon="11.183894320978592"><ele>51.0</ele><time>2026-04-19T11:43:31Z</time></trkpt><trkpt lat="43.84278600149192" lon="11.1838281818912"><ele>51.0</ele><time>2026-04-19T11:43:33Z</time></trkpt><trkpt lat="43.84271702831171" lon="11.183781366999845"><ele>51.0</ele><time>2026-04-19T11:45:46Z</time></trkpt><trkpt lat="43.842639511916374" lon="11.183712480182011"><ele>51.0</ele><time>2026-04-19T11:45:48Z</time></trkpt><trkpt lat="43.84255267607662" lon="11.183635569268972"><ele>51.0</ele><time>2026-04-19T11:45:50Z</time></trkpt><trkpt lat="43.84244982363745" lon="11.18354328006811"><ele>51.0</ele><time>2026-04-19T11:45:52Z</time></trkpt><trkpt lat="43.84235496130685" lon="11.183454927292136"><ele>50.599999999999994</ele><time>2026-04-19T11:45:54Z</time></trkpt><trkpt lat="43.84227858628073" lon="11.183385375225443"><ele>50.2</ele><time>2026-04-19T11:45:56Z</time></trkpt><trkpt lat="43.84221679963856" lon="11.183330284660505"><ele>49.8</ele><time>2026-04-19T11:45:58Z</time></trkpt><trkpt lat="43.84208762430695" lon="11.18349047683992"><ele>49.400000000000006</ele><time>2026-04-19T11:46:05Z</time></trkpt><trkpt lat="43.84207382425783" lon="11.183590885740598"><ele>49.0</ele><time>2026-04-19T11:46:09Z</time></trkpt><trkpt lat="43.842141945924865" lon="11.183635105132742"><ele>49.0</ele><time>2026-04-19T11:51:42Z</time></trkpt></trkseg></trk></gpx>